<?xml version='1.0' encoding='UTF-8'?><gpx version="1.1" creator="JPX - https://github.com/jenetics/jpx" xmlns="http://www.topografix.com/GPX/1/1"><trk><trkseg><trkpt lat="41.13865289285619" lon="9.523755891612586"><ele>9.0</ele><time>2026-04-26T07:58:04Z</time></trkpt><trkpt lat="41.13859944905429" lon="9.52360279785165"><ele>9.0</ele><time>2026-04-26T07:58:06Z</time></trkpt><trkpt lat="41.13853473819274" lon="9.523539823017565"><ele>9.0</ele><time>2026-04-26T07:58:07Z</time></trkpt><trkpt lat="41.13845002456236" lon="9.523489542407955"><ele>9.0</ele><time>2026-04-26T07:58:08Z</time></trkpt><trkpt lat="41.138354361719436" lon="9.52345580548213"><ele>9.0</ele><time>2026-04-26T07:58:09Z</time></trkpt><trkpt lat="41.13824799834277" lon="9.523439016197567"><ele>11.0</ele><time>2026-04-26T07:58:10Z</time></trkpt><trkpt lat="41.13813243232881" lon="9.523440137646459"><ele>13.0</ele><time>2026-04-26T07:58:11Z</time></trkpt><trkpt lat="41.138014079417964" lon="9.523435037398944"><ele>15.0</ele><time>2026-04-26T07:58:12Z</time></trkpt><trkpt lat="41.13787509859964" lon="9.523494323517717"><ele>17.0</ele><time>2026-04-26T07:58:13Z</time></trkpt><trkpt lat="41.13775516962503" lon="9.52354381457131"><ele>17.0</ele><time>2026-04-26T07:58:14Z</time></trkpt><trkpt lat="41.137658223331144" lon="9.523583821431998"><ele>17.0</ele><time>2026-04-26T07:58:15Z</time></trkpt><trkpt lat="41.13757943301599" lon="9.523625801179305"><ele>17.0</ele><time>2026-04-26T07:58:16Z</time></trkpt><trkpt lat="41.13750376691493" lon="9.523651629541483"><ele>17.0</ele><time>2026-04-26T07:58:17Z</time></trkpt><trkpt lat="41.1374392377229" lon="9.523673488065183"><ele>17.0</ele><time>2026-04-26T07:58:18Z</time></trkpt><trkpt lat="41.137337922119016" lon="9.523704839227468"><ele>17.0</ele><time>2026-04-26T07:58:20Z</time></trkpt><trkpt lat="41.1372753506139" lon="9.523728825871268"><ele>17.833333333333336</ele><time>2026-04-26T07:58:21Z</time></trkpt><trkpt lat="41.13718281419494" lon="9.523719237866533"><ele>18.666666666666668</ele><time>2026-04-26T07:58:23Z</time></trkpt><trkpt lat="41.13716259433325" lon="9.523602118307284"><ele>19.5</ele><time>2026-04-26T07:58:25Z</time></trkpt><trkpt lat="41.13720656229551" lon="9.523539063153041"><ele>20.333333333333332</ele><time>2026-04-26T07:58:26Z</time></trkpt><trkpt lat="41.137263066092345" lon="9.5234513969691"><ele>21.166666666666664</ele><time>2026-04-26T07:58:27Z</time></trkpt><trkpt lat="41.137292265563" lon="9.523332053485996"><ele>22.0</ele><time>2026-04-26T07:58:28Z</time></trkpt><trkpt lat="41.1373033188528" lon="9.523203835204335"><ele>22.0</ele><time>2026-04-26T07:58:29Z</time></trkpt><trkpt lat="41.137279806530195" lon="9.523065732892842"><ele>22.0</ele><time>2026-04-26T07:58:30Z</time></trkpt><trkpt lat="41.13724118742388" lon="9.522939314631406"><ele>22.0</ele><time>2026-04-26T07:58:31Z</time></trkpt><trkpt lat="41.13718610142251" lon="9.522820868614103"><ele>22.0</ele><time>2026-04-26T07:58:32Z</time></trkpt><trkpt lat="41.13712779279108" lon="9.522695605176125"><ele>22.0</ele><time>2026-04-26T07:58:33Z</time></trkpt><trkpt lat="41.1370717324786" lon="9.52256603812369"><ele>24.0</ele><time>2026-04-26T07:58:34Z</time></trkpt><trkpt lat="41.13701355302314" lon="9.52242718773563"><ele>26.0</ele><time>2026-04-26T07:58:35Z</time></trkpt><trkpt lat="41.13695906096897" lon="9.522295120651723"><ele>28.000000000000004</ele><time>2026-04-26T07:58:36Z</time></trkpt><trkpt lat="41.13691072014007" lon="9.522205034698576"><ele>30.0</ele><time>2026-04-26T07:58:37Z</time></trkpt><trkpt lat="41.13684502114539" lon="9.522153693462679"><ele>32.0</ele><time>2026-04-26T07:58:38Z</time></trkpt><trkpt lat="41.13675509902954" lon="9.52213704994864"><ele>32.0</ele><time>2026-04-26T07:58:39Z</time></trkpt><trkpt lat="41.136648475784796" lon="9.522157356725433"><ele>32.0</ele><time>2026-04-26T07:58:40Z</time></trkpt><trkpt lat="41.136546858581646" lon="9.52217245250534"><ele>32.0</ele><time>2026-04-26T07:58:41Z</time></trkpt><trkpt lat="41.13646487309789" lon="9.522301136986265"><ele>32.0</ele><time>2026-04-26T07:58:42Z</time></trkpt><trkpt lat="41.136396190187035" lon="9.522394448683206"><ele>32.0</ele><time>2026-04-26T07:58:43Z</time></trkpt><trkpt lat="41.13633689884904" lon="9.52245673447636"><ele>34.0</ele><time>2026-04-26T07:58:44Z</time></trkpt><trkpt lat="41.13622862312711" lon="9.522517001795467"><ele>36.0</ele><time>2026-04-26T07:58:46Z</time></trkpt><trkpt lat="41.13617182882184" lon="9.522477104697776"><ele>38.0</ele><time>2026-04-26T07:58:49Z</time></trkpt><trkpt lat="41.13620659646146" lon="9.522373963259263"><ele>40.0</ele><time>2026-04-26T07:58:51Z</time></trkpt><trkpt lat="41.136301098124534" lon="9.522248217811427"><ele>42.0</ele><time>2026-04-26T07:58:52Z</time></trkpt><trkpt lat="41.13640314179677" lon="9.522118979776852"><ele>42.25</ele><time>2026-04-26T07:58:53Z</time></trkpt><trkpt lat="41.136488120194734" lon="9.521996225011756"><ele>42.5</ele><time>2026-04-26T07:58:54Z</time></trkpt><trkpt lat="41.136570571040586" lon="9.521874699399403"><ele>42.75</ele><time>2026-04-26T07:58:55Z</time></trkpt><trkpt lat="41.13665303449608" lon="9.521754722230884"><ele>43.0</ele><time>2026-04-26T07:58:56Z</time></trkpt><trkpt lat="41.136733340062115" lon="9.521625598414769"><ele>43.0</ele><time>2026-04-26T07:58:57Z</time></trkpt><trkpt lat="41.13678440651875" lon="9.52146674898614"><ele>43.0</ele><time>2026-04-26T07:58:58Z</time></trkpt><trkpt lat="41.136806350552426" lon="9.521290024552652"><ele>43.0</ele><time>2026-04-26T07:58:59Z</time></trkpt><trkpt lat="41.13679498689156" lon="9.52110401142054"><ele>43.0</ele><time>2026-04-26T07:59:00Z</time></trkpt><trkpt lat="41.13675466689959" lon="9.520920809153841"><ele>44.75</ele><time>2026-04-26T07:59:01Z</time></trkpt><trkpt lat="41.136682861893426" lon="9.520755207037533"><ele>46.5</ele><time>2026-04-26T07:59:02Z</time></trkpt><trkpt lat="41.13658593232452" lon="9.52060435597941"><ele>48.25</ele><time>2026-04-26T07:59:03Z</time></trkpt><trkpt lat="41.13647571401964" lon="9.52046224856629"><ele>50.0</ele><time>2026-04-26T07:59:04Z</time></trkpt><trkpt lat="41.13636636875721" lon="9.520320453415216"><ele>53.333333333333336</ele><time>2026-04-26T07:59:05Z</time></trkpt><trkpt lat="41.13626066114414" lon="9.520171772545632"><ele>56.66666666666667</ele><time>2026-04-26T07:59:06Z</time></trkpt><trkpt lat="41.136156497164926" lon="9.520025036388624"><ele>60.0</ele><time>2026-04-26T07:59:07Z</time></trkpt><trkpt lat="41.13605292331479" lon="9.519878104717328"><ele>60.0</ele><time>2026-04-26T07:59:08Z</time></trkpt><trkpt lat="41.13594788856193" lon="9.519728814827182"><ele>60.0</ele><time>2026-04-26T07:59:09Z</time></trkpt><trkpt lat="41.13584657068722" lon="9.51957937128794"><ele>60.0</ele><time>2026-04-26T07:59:10Z</time></trkpt><trkpt lat="41.135749971113306" lon="9.519420829948011"><ele>63.33333333333333</ele><time>2026-04-26T07:59:11Z</time></trkpt><trkpt lat="41.13566416901831" lon="9.519255744222715"><ele>66.66666666666666</ele><time>2026-04-26T07:59:12Z</time></trkpt><trkpt lat="41.13558604955871" lon="9.519084135501213"><ele>70.0</ele><time>2026-04-26T07:59:13Z</time></trkpt><trkpt lat="41.135514779051654" lon="9.518904674564142"><ele>69.0</ele><time>2026-04-26T07:59:14Z</time></trkpt><trkpt lat="41.13544442007988" lon="9.518729013261176"><ele>68.0</ele><time>2026-04-26T07:59:15Z</time></trkpt><trkpt lat="41.13537454809999" lon="9.518556318352141"><ele>67.0</ele><time>2026-04-26T07:59:16Z</time></trkpt><trkpt lat="41.1353022325484" lon="9.51838136557497"><ele>66.0</ele><time>2026-04-26T07:59:17Z</time></trkpt><trkpt lat="41.13523183887957" lon="9.518210013137256"><ele>66.0</ele><time>2026-04-26T07:59:18Z</time></trkpt><trkpt lat="41.135165564902174" lon="9.518046482884607"><ele>66.0</ele><time>2026-04-26T07:59:19Z</time></trkpt><trkpt lat="41.13511575637924" lon="9.51789093197477"><ele>66.0</ele><time>2026-04-26T07:59:20Z</time></trkpt><trkpt lat="41.13509859914871" lon="9.517731821670731"><ele>66.0</ele><time>2026-04-26T07:59:21Z</time></trkpt><trkpt lat="41.13512530707863" lon="9.517577143123207"><ele>66.75</ele><time>2026-04-26T07:59:22Z</time></trkpt><trkpt lat="41.135206097156576" lon="9.517456363839786"><ele>67.5</ele><time>2026-04-26T07:59:23Z</time></trkpt><trkpt lat="41.135285913376485" lon="9.517318084190158"><ele>68.25</ele><time>2026-04-26T07:59:24Z</time></trkpt><trkpt lat="41.135390926266766" lon="9.517171942433905"><ele>69.0</ele><time>2026-04-26T07:59:25Z</time></trkpt><trkpt lat="41.13547736644852" lon="9.51702594750604"><ele>69.0</ele><time>2026-04-26T07:59:26Z</time></trkpt><trkpt lat="41.135542784208866" lon="9.516887913372779"><ele>69.0</ele><time>2026-04-26T07:59:27Z</time></trkpt><trkpt lat="41.13559367224823" lon="9.516749380031081"><ele>69.0</ele><time>2026-04-26T07:59:28Z</time></trkpt><trkpt lat="41.13564261154847" lon="9.516622733574962"><ele>69.0</ele><time>2026-04-26T07:59:29Z</time></trkpt><trkpt lat="41.13569363257855" lon="9.516503727008077"><ele>69.0</ele><time>2026-04-26T07:59:30Z</time></trkpt><trkpt lat="41.13573951951119" lon="9.516404599751747"><ele>68.4</ele><time>2026-04-26T07:59:31Z</time></trkpt><trkpt lat="41.13578251918354" lon="9.516333435581958"><ele>67.80000000000001</ele><time>2026-04-26T07:59:32Z</time></trkpt><trkpt lat="41.13571409248167" lon="9.516123702685144"><ele>67.19999999999999</ele><time>2026-04-26T07:59:34Z</time></trkpt><trkpt lat="41.13565772101614" lon="9.51604935900893"><ele>66.6</ele><time>2026-04-26T07:59:35Z</time></trkpt><trkpt lat="41.135584673111644" lon="9.515992269588445"><ele>66.0</ele><time>2026-04-26T07:59:36Z</time></trkpt><trkpt lat="41.13551230275263" lon="9.515941504075546"><ele>65.66666666666667</ele><time>2026-04-26T07:59:37Z</time></trkpt><trkpt lat="41.135449352273795" lon="9.515875483826015"><ele>65.33333333333333</ele><time>2026-04-26T07:59:38Z</time></trkpt><trkpt lat="41.13539941919342" lon="9.515801795988285"><ele>65.0</ele><time>2026-04-26T07:59:39Z</time></trkpt><trkpt lat="41.135349089799" lon="9.515723313012737"><ele>64.66666666666666</ele><time>2026-04-26T07:59:40Z</time></trkpt><trkpt lat="41.1352928325209" lon="9.515633867284688"><ele>64.33333333333333</ele><time>2026-04-26T07:59:41Z</time></trkpt><trkpt lat="41.13522792140167" lon="9.515526424516883"><ele>64.0</ele><time>2026-04-26T07:59:42Z</time></trkpt><trkpt lat="41.13515060533911" lon="9.515414632101335"><ele>63.33333333333333</ele><time>2026-04-26T07:59:43Z</time></trkpt><trkpt lat="41.135055228798834" lon="9.515267251399846"><ele>62.66666666666667</ele><time>2026-04-26T07:59:44Z</time></trkpt><trkpt lat="41.13495480190678" lon="9.515067725571118"><ele>62.0</ele><time>2026-04-26T07:59:45Z</time></trkpt><trkpt lat="41.13482566231018" lon="9.514876335198382"><ele>62.0</ele><time>2026-04-26T07:59:46Z</time></trkpt><trkpt lat="41.13471420193485" lon="9.51467051331964"><ele>62.0</ele><time>2026-04-26T07:59:47Z</time></trkpt><trkpt lat="41.134601928689015" lon="9.514471242419418"><ele>62.0</ele><time>2026-04-26T07:59:48Z</time></trkpt><trkpt lat="41.13450149082034" lon="9.514269636431381"><ele>59.66666666666667</ele><time>2026-04-26T07:59:49Z</time></trkpt><trkpt lat="41.13441608760268" lon="9.51406071041999"><ele>57.33333333333333</ele><time>2026-04-26T07:59:50Z</time></trkpt><trkpt lat="41.134347645424825" lon="9.513844430327765"><ele>55.0</ele><time>2026-04-26T07:59:51Z</time></trkpt><trkpt lat="41.13428870245613" lon="9.513625327472955"><ele>53.33333333333333</ele><time>2026-04-26T07:59:52Z</time></trkpt><trkpt lat="41.134242370572906" lon="9.513408558888155"><ele>51.66666666666667</ele><time>2026-04-26T07:59:53Z</time></trkpt><trkpt lat="41.13421914150346" lon="9.513191075158456"><ele>50.0</ele><time>2026-04-26T07:59:54Z</time></trkpt><trkpt lat="41.13422553135049" lon="9.512968246018147"><ele>49.333333333333336</ele><time>2026-04-26T07:59:55Z</time></trkpt><trkpt lat="41.13425795320449" lon="9.51274120852829"><ele>48.66666666666667</ele><time>2026-04-26T07:59:56Z</time></trkpt><trkpt lat="41.13431326833903" lon="9.512509146413988"><ele>48.0</ele><time>2026-04-26T07:59:57Z</time></trkpt><trkpt lat="41.13437804115378" lon="9.512278014537168"><ele>47.333333333333336</ele><time>2026-04-26T07:59:58Z</time></trkpt><trkpt lat="41.13444114439892" lon="9.512042185453947"><ele>46.66666666666667</ele><time>2026-04-26T07:59:59Z</time></trkpt><trkpt lat="41.134503854865756" lon="9.511801763960701"><ele>46.0</ele><time>2026-04-26T08:00:00Z</time></trkpt><trkpt lat="41.13457499873054" lon="9.511558866272557"><ele>46.0</ele><time>2026-04-26T08:00:01Z</time></trkpt><trkpt lat="41.13466027320203" lon="9.511321037864704"><ele>46.0</ele><time>2026-04-26T08:00:02Z</time></trkpt><trkpt lat="41.13475589468292" lon="9.511083279471093"><ele>46.0</ele><time>2026-04-26T08:00:03Z</time></trkpt><trkpt lat="41.1348606227326" lon="9.510847281231316"><ele>43.0</ele><time>2026-04-26T08:00:04Z</time></trkpt><trkpt lat="41.13496343702553" lon="9.510611665721868"><ele>40.0</ele><time>2026-04-26T08:00:05Z</time></trkpt><trkpt lat="41.13506478207861" lon="9.510375971528898"><ele>37.0</ele><time>2026-04-26T08:00:06Z</time></trkpt><trkpt lat="41.13515982874781" lon="9.510143243665874"><ele>34.0</ele><time>2026-04-26T08:00:07Z</time></trkpt><trkpt lat="41.1352542520474" lon="9.509922777283279"><ele>31.0</ele><time>2026-04-26T08:00:08Z</time></trkpt><trkpt lat="41.13535970863789" lon="9.509720929938533"><ele>28.0</ele><time>2026-04-26T08:00:09Z</time></trkpt><trkpt lat="41.135487445477814" lon="9.509536286682513"><ele>27.666666666666668</ele><time>2026-04-26T08:00:10Z</time></trkpt><trkpt lat="41.13562998391084" lon="9.50936774009262"><ele>27.333333333333336</ele><time>2026-04-26T08:00:11Z</time></trkpt><trkpt lat="41.13578919271419" lon="9.509208608816655"><ele>27.0</ele><time>2026-04-26T08:00:12Z</time></trkpt><trkpt lat="41.13595336712146" lon="9.509052884670828"><ele>27.666666666666664</ele><time>2026-04-26T08:00:13Z</time></trkpt><trkpt lat="41.13612062861695" lon="9.508884564915933"><ele>28.333333333333332</ele><time>2026-04-26T08:00:14Z</time></trkpt><trkpt lat="41.13628559031613" lon="9.50871481044575"><ele>29.0</ele><time>2026-04-26T08:00:15Z</time></trkpt><trkpt lat="41.136451019726685" lon="9.508545521268033"><ele>28.0</ele><time>2026-04-26T08:00:16Z</time></trkpt><trkpt lat="41.13660348867157" lon="9.508379609649687"><ele>27.0</ele><time>2026-04-26T08:00:17Z</time></trkpt><trkpt lat="41.13672522054075" lon="9.508203952589684"><ele>26.0</ele><time>2026-04-26T08:00:18Z</time></trkpt><trkpt lat="41.13682613379302" lon="9.508003740931041"><ele>29.0</ele><time>2026-04-26T08:00:19Z</time></trkpt><trkpt lat="41.13690265013818" lon="9.507780209083107"><ele>32.0</ele><time>2026-04-26T08:00:20Z</time></trkpt><trkpt lat="41.13696488713399" lon="9.50754529888509"><ele>35.0</ele><time>2026-04-26T08:00:21Z</time></trkpt><trkpt lat="41.13702629225441" lon="9.507312433714453"><ele>35.0</ele><time>2026-04-26T08:00:22Z</time></trkpt><trkpt lat="41.13709469017917" lon="9.50707958880891"><ele>35.0</ele><time>2026-04-26T08:00:23Z</time></trkpt><trkpt lat="41.137165893262384" lon="9.506850871299045"><ele>35.0</ele><time>2026-04-26T08:00:24Z</time></trkpt><trkpt lat="41.137233865273934" lon="9.50662941524605"><ele>36.666666666666664</ele><time>2026-04-26T08:00:25Z</time></trkpt><trkpt lat="41.13729468021646" lon="9.506406827554184"><ele>38.333333333333336</ele><time>2026-04-26T08:00:26Z</time></trkpt><trkpt lat="41.13734528193686" lon="9.506178913874754"><ele>40.0</ele><time>2026-04-26T08:00:27Z</time></trkpt><trkpt lat="41.137358929218536" lon="9.50594483172551"><ele>40.0</ele><time>2026-04-26T08:00:28Z</time></trkpt><trkpt lat="41.137338097643635" lon="9.505708629430153"><ele>40.0</ele><time>2026-04-26T08:00:29Z</time></trkpt><trkpt lat="41.13727755479293" lon="9.505475615344036"><ele>40.0</ele><time>2026-04-26T08:00:30Z</time></trkpt><trkpt lat="41.137205544036526" lon="9.505237218313887"><ele>38.0</ele><time>2026-04-26T08:00:31Z</time></trkpt><trkpt lat="41.13713837064452" lon="9.504994839815264"><ele>36.0</ele><time>2026-04-26T08:00:32Z</time></trkpt><trkpt lat="41.13706868889908" lon="9.504742051080024"><ele>34.0</ele><time>2026-04-26T08:00:33Z</time></trkpt><trkpt lat="41.136997935938986" lon="9.504488302461517"><ele>32.66666666666667</ele><time>2026-04-26T08:00:34Z</time></trkpt><trkpt lat="41.13692673556668" lon="9.504231971015132"><ele>31.333333333333336</ele><time>2026-04-26T08:00:35Z</time></trkpt><trkpt lat="41.13686259866827" lon="9.503972970768908"><ele>30.0</ele><time>2026-04-26T08:00:36Z</time></trkpt><trkpt lat="41.136822931992754" lon="9.503718633044743"><ele>28.333333333333336</ele><time>2026-04-26T08:00:37Z</time></trkpt><trkpt lat="41.13684173097005" lon="9.503468000329015"><ele>26.666666666666668</ele><time>2026-04-26T08:00:38Z</time></trkpt><trkpt lat="41.13687271161294" lon="9.503220246780261"><ele>25.0</ele><time>2026-04-26T08:00:39Z</time></trkpt><trkpt lat="41.136907769620265" lon="9.502957148088827"><ele>26.0</ele><time>2026-04-26T08:00:40Z</time></trkpt><trkpt lat="41.1369648955306" lon="9.502686881093812"><ele>27.0</ele><time>2026-04-26T08:00:41Z</time></trkpt><trkpt lat="41.137017508610015" lon="9.502402832084885"><ele>28.0</ele><time>2026-04-26T08:00:42Z</time></trkpt><trkpt lat="41.137062032757406" lon="9.502141482707007"><ele>31.333333333333336</ele><time>2026-04-26T08:00:43Z</time></trkpt><trkpt lat="41.137100597070905" lon="9.501906208213027"><ele>34.666666666666664</ele><time>2026-04-26T08:00:44Z</time></trkpt><trkpt lat="41.13712697868176" lon="9.501673237167621"><ele>38.0</ele><time>2026-04-26T08:00:45Z</time></trkpt><trkpt lat="41.13712050281514" lon="9.50144577805573"><ele>36.666666666666664</ele><time>2026-04-26T08:00:46Z</time></trkpt><trkpt lat="41.13708036706965" lon="9.501239287124447"><ele>35.333333333333336</ele><time>2026-04-26T08:00:47Z</time></trkpt><trkpt lat="41.13700909378312" lon="9.501050767498578"><ele>34.0</ele><time>2026-04-26T08:00:48Z</time></trkpt><trkpt lat="41.13691080807767" lon="9.500885750743183"><ele>34.0</ele><time>2026-04-26T08:00:49Z</time></trkpt><trkpt lat="41.13678593726189" lon="9.500739105299719"><ele>34.0</ele><time>2026-04-26T08:00:50Z</time></trkpt><trkpt lat="41.136636658199436" lon="9.500585718081235"><ele>34.0</ele><time>2026-04-26T08:00:51Z</time></trkpt><trkpt lat="41.13647081468907" lon="9.500416098829549"><ele>35.0</ele><time>2026-04-26T08:00:52Z</time></trkpt><trkpt lat="41.13629875473302" lon="9.500233854002301"><ele>36.0</ele><time>2026-04-26T08:00:53Z</time></trkpt><trkpt lat="41.13613616185001" lon="9.500055415388301"><ele>37.0</ele><time>2026-04-26T08:00:54Z</time></trkpt><trkpt lat="41.13599504130278" lon="9.499878366737821"><ele>37.0</ele><time>2026-04-26T08:00:55Z</time></trkpt><trkpt lat="41.13587591749992" lon="9.499689186509782"><ele>37.0</ele><time>2026-04-26T08:00:56Z</time></trkpt><trkpt lat="41.135798923907856" lon="9.499463463133155"><ele>37.0</ele><time>2026-04-26T08:00:57Z</time></trkpt><trkpt lat="41.13570564068379" lon="9.499223705153565"><ele>34.66666666666667</ele><time>2026-04-26T08:00:58Z</time></trkpt><trkpt lat="41.135627560660964" lon="9.498953419223769"><ele>32.333333333333336</ele><time>2026-04-26T08:00:59Z</time></trkpt><trkpt lat="41.13553734605633" lon="9.49870050283204"><ele>30.0</ele><time>2026-04-26T08:01:00Z</time></trkpt><trkpt lat="41.135436665875304" lon="9.498480997277147"><ele>30.0</ele><time>2026-04-26T08:01:01Z</time></trkpt><trkpt lat="41.13531649935972" lon="9.49828655108779"><ele>30.0</ele><time>2026-04-26T08:01:02Z</time></trkpt><trkpt lat="41.13516917449589" lon="9.498118950756272"><ele>30.0</ele><time>2026-04-26T08:01:03Z</time></trkpt><trkpt lat="41.13499947952776" lon="9.497974314751014"><ele>28.0</ele><time>2026-04-26T08:01:04Z</time></trkpt><trkpt lat="41.134812167468084" lon="9.497853122279619"><ele>26.0</ele><time>2026-04-26T08:01:05Z</time></trkpt><trkpt lat="41.134614572033925" lon="9.497730502706254"><ele>24.0</ele><time>2026-04-26T08:01:06Z</time></trkpt><trkpt lat="41.13442885670846" lon="9.497610159629291"><ele>24.0</ele><time>2026-04-26T08:01:07Z</time></trkpt><trkpt lat="41.13426246967576" lon="9.497485113040733"><ele>24.0</ele><time>2026-04-26T08:01:08Z</time></trkpt><trkpt lat="41.13412086377681" lon="9.497347763013124"><ele>24.0</ele><time>2026-04-26T08:01:09Z</time></trkpt><trkpt lat="41.134007943495845" lon="9.49718557293798"><ele>25.333333333333336</ele><time>2026-04-26T08:01:10Z</time></trkpt><trkpt lat="41.13392163732031" lon="9.49699386271148"><ele>26.666666666666668</ele><time>2026-04-26T08:01:11Z</time></trkpt><trkpt lat="41.133853972250904" lon="9.496791857585483"><ele>28.0</ele><time>2026-04-26T08:01:12Z</time></trkpt><trkpt lat="41.13381055889531" lon="9.496580117813362"><ele>28.0</ele><time>2026-04-26T08:01:13Z</time></trkpt><trkpt lat="41.133794379081955" lon="9.496362640006714"><ele>28.0</ele><time>2026-04-26T08:01:14Z</time></trkpt><trkpt lat="41.13380578649061" lon="9.496144013158617"><ele>28.0</ele><time>2026-04-26T08:01:15Z</time></trkpt><trkpt lat="41.13385848286924" lon="9.49594038126381"><ele>31.333333333333336</ele><time>2026-04-26T08:01:16Z</time></trkpt><trkpt lat="41.13392268048645" lon="9.495726039165472"><ele>34.666666666666664</ele><time>2026-04-26T08:01:17Z</time></trkpt><trkpt lat="41.13398774759451" lon="9.495486429315324"><ele>38.0</ele><time>2026-04-26T08:01:18Z</time></trkpt><trkpt lat="41.1340631536414" lon="9.49524727700729"><ele>38.0</ele><time>2026-04-26T08:01:19Z</time></trkpt><trkpt lat="41.134101147323584" lon="9.495013923208006"><ele>38.0</ele><time>2026-04-26T08:01:20Z</time></trkpt><trkpt lat="41.134101233182825" lon="9.494778778076759"><ele>38.0</ele><time>2026-04-26T08:01:21Z</time></trkpt><trkpt lat="41.134067366609266" lon="9.494538162468302"><ele>43.33333333333333</ele><time>2026-04-26T08:01:22Z</time></trkpt><trkpt lat="41.13400660121459" lon="9.49428540047766"><ele>48.666666666666664</ele><time>2026-04-26T08:01:23Z</time></trkpt><trkpt lat="41.133929323822606" lon="9.494018038191456"><ele>54.0</ele><time>2026-04-26T08:01:24Z</time></trkpt><trkpt lat="41.133845615908456" lon="9.493745267338657"><ele>54.0</ele><time>2026-04-26T08:01:25Z</time></trkpt><trkpt lat="41.13375073259657" lon="9.493468047821414"><ele>54.0</ele><time>2026-04-26T08:01:26Z</time></trkpt><trkpt lat="41.13364297119972" lon="9.493223992434773"><ele>54.0</ele><time>2026-04-26T08:01:27Z</time></trkpt><trkpt lat="41.13351800991567" lon="9.493007842257194"><ele>50.0</ele><time>2026-04-26T08:01:28Z</time></trkpt><trkpt lat="41.13337208104152" lon="9.492802944266806"><ele>46.0</ele><time>2026-04-26T08:01:29Z</time></trkpt><trkpt lat="41.1332111309152" lon="9.492595806189643"><ele>42.0</ele><time>2026-04-26T08:01:30Z</time></trkpt><trkpt lat="41.13304579799771" lon="9.49238224509279"><ele>47.0</ele><time>2026-04-26T08:01:31Z</time></trkpt><trkpt lat="41.13289285129225" lon="9.492171832168198"><ele>52.0</ele><time>2026-04-26T08:01:32Z</time></trkpt><trkpt lat="41.13276244338652" lon="9.491975422110263"><ele>57.0</ele><time>2026-04-26T08:01:33Z</time></trkpt><trkpt lat="41.13266241220737" lon="9.491773230925372"><ele>57.0</ele><time>2026-04-26T08:01:34Z</time></trkpt><trkpt lat="41.132629101419646" lon="9.491552544857965"><ele>57.0</ele><time>2026-04-26T08:01:35Z</time></trkpt><trkpt lat="41.13262235804117" lon="9.49134638139244"><ele>57.0</ele><time>2026-04-26T08:01:36Z</time></trkpt><trkpt lat="41.13264439126576" lon="9.49113853071422"><ele>58.66666666666667</ele><time>2026-04-26T08:01:37Z</time></trkpt><trkpt lat="41.132690262726" lon="9.490935730938759"><ele>60.333333333333336</ele><time>2026-04-26T08:01:38Z</time></trkpt><trkpt lat="41.13277293327989" lon="9.490755170026343"><ele>62.0</ele><time>2026-04-26T08:01:39Z</time></trkpt><trkpt lat="41.13287150079407" lon="9.490585130045393"><ele>63.333333333333336</ele><time>2026-04-26T08:01:40Z</time></trkpt><trkpt lat="41.13297071997505" lon="9.490408760457198"><ele>64.66666666666667</ele><time>2026-04-26T08:01:41Z</time></trkpt><trkpt lat="41.13308650877373" lon="9.490251712552999"><ele>66.0</ele><time>2026-04-26T08:01:42Z</time></trkpt><trkpt lat="41.133191562247724" lon="9.490085677781241"><ele>64.0</ele><time>2026-04-26T08:01:43Z</time></trkpt><trkpt lat="41.13329486160399" lon="9.48990429326136"><ele>62.0</ele><time>2026-04-26T08:01:44Z</time></trkpt><trkpt lat="41.13338941708239" lon="9.489700064388506"><ele>60.0</ele><time>2026-04-26T08:01:45Z</time></trkpt><trkpt lat="41.133466802965245" lon="9.489467101654828"><ele>60.0</ele><time>2026-04-26T08:01:46Z</time></trkpt><trkpt lat="41.133521560583965" lon="9.489218269048548"><ele>60.0</ele><time>2026-04-26T08:01:47Z</time></trkpt><trkpt lat="41.13355615676478" lon="9.488960426440807"><ele>60.0</ele><time>2026-04-26T08:01:48Z</time></trkpt><trkpt lat="41.13357117117507" lon="9.488710186035174"><ele>58.0</ele><time>2026-04-26T08:01:49Z</time></trkpt><trkpt lat="41.133558526743556" lon="9.488458926736008"><ele>56.0</ele><time>2026-04-26T08:01:50Z</time></trkpt><trkpt lat="41.133517309552744" lon="9.488208023084384"><ele>54.0</ele><time>2026-04-26T08:01:51Z</time></trkpt><trkpt lat="41.13344947699017" lon="9.487958224368873"><ele>52.33333333333333</ele><time>2026-04-26T08:01:52Z</time></trkpt><trkpt lat="41.13336456374732" lon="9.487704734218243"><ele>50.666666666666664</ele><time>2026-04-26T08:01:53Z</time></trkpt><trkpt lat="41.13326204685972" lon="9.48744694900144"><ele>49.0</ele><time>2026-04-26T08:01:54Z</time></trkpt><trkpt lat="41.133137788243175" lon="9.48718181055366"><ele>44.5</ele><time>2026-04-26T08:01:55Z</time></trkpt><trkpt lat="41.133001817277155" lon="9.486923174787828"><ele>40.0</ele><time>2026-04-26T08:01:56Z</time></trkpt><trkpt lat="41.13287497544126" lon="9.486679301967328"><ele>40.0</ele><time>2026-04-26T08:01:57Z</time></trkpt><trkpt lat="41.132765687211965" lon="9.486432731610059"><ele>40.0</ele><time>2026-04-26T08:01:58Z</time></trkpt><trkpt lat="41.13268854399759" lon="9.486172380399452"><ele>40.0</ele><time>2026-04-26T08:01:59Z</time></trkpt><trkpt lat="41.132671636341655" lon="9.485900524992644"><ele>38.0</ele><time>2026-04-26T08:02:00Z</time></trkpt><trkpt lat="41.132669921827635" lon="9.48562509059907"><ele>36.0</ele><time>2026-04-26T08:02:01Z</time></trkpt><trkpt lat="41.13267377385966" lon="9.485334657819351"><ele>34.0</ele><time>2026-04-26T08:02:02Z</time></trkpt><trkpt lat="41.132673411865895" lon="9.485034387451705"><ele>33.0</ele><time>2026-04-26T08:02:03Z</time></trkpt><trkpt lat="41.13268197543427" lon="9.484730212208317"><ele>32.0</ele><time>2026-04-26T08:02:04Z</time></trkpt><trkpt lat="41.13268666154389" lon="9.484420097016056"><ele>31.0</ele><time>2026-04-26T08:02:05Z</time></trkpt><trkpt lat="41.13269420081717" lon="9.484106880440853"><ele>30.0</ele><time>2026-04-26T08:02:06Z</time></trkpt><trkpt lat="41.13270877626951" lon="9.48379639016236"><ele>28.5</ele><time>2026-04-26T08:02:07Z</time></trkpt><trkpt lat="41.132731864564796" lon="9.483485906998913"><ele>27.0</ele><time>2026-04-26T08:02:08Z</time></trkpt><trkpt lat="41.13276376278216" lon="9.483176701687487"><ele>25.5</ele><time>2026-04-26T08:02:09Z</time></trkpt><trkpt lat="41.13280274861937" lon="9.482868471297234"><ele>24.0</ele><time>2026-04-26T08:02:10Z</time></trkpt><trkpt lat="41.13283913495836" lon="9.482559239657016"><ele>24.0</ele><time>2026-04-26T08:02:11Z</time></trkpt><trkpt lat="41.132869313245564" lon="9.482251384304737"><ele>24.0</ele><time>2026-04-26T08:02:12Z</time></trkpt><trkpt lat="41.13290119057758" lon="9.481940322677747"><ele>22.5</ele><time>2026-04-26T08:02:13Z</time></trkpt><trkpt lat="41.13293686512743" lon="9.481633291908958"><ele>21.0</ele><time>2026-04-26T08:02:14Z</time></trkpt><trkpt lat="41.132973448867766" lon="9.48133118492561"><ele>20.0</ele><time>2026-04-26T08:02:15Z</time></trkpt><trkpt lat="41.13301080689339" lon="9.481028156445682"><ele>19.0</ele><time>2026-04-26T08:02:16Z</time></trkpt><trkpt lat="41.13304334940631" lon="9.480725011383521"><ele>18.5</ele><time>2026-04-26T08:02:17Z</time></trkpt><trkpt lat="41.1330761401036" lon="9.480424262323718"><ele>18.0</ele><time>2026-04-26T08:02:18Z</time></trkpt><trkpt lat="41.13311004085092" lon="9.480128633559799"><ele>18.0</ele><time>2026-04-26T08:02:19Z</time></trkpt><trkpt lat="41.13314851558987" lon="9.479839306902312"><ele>18.0</ele><time>2026-04-26T08:02:20Z</time></trkpt><trkpt lat="41.133189415480786" lon="9.4795614116586"><ele>18.0</ele><time>2026-04-26T08:02:21Z</time></trkpt><trkpt lat="41.1332372273106" lon="9.479290830713113"><ele>20.333333333333336</ele><time>2026-04-26T08:02:22Z</time></trkpt><trkpt lat="41.13328731847246" lon="9.47902201939649"><ele>22.666666666666668</ele><time>2026-04-26T08:02:23Z</time></trkpt><trkpt lat="41.13333600895795" lon="9.478760667092311"><ele>25.0</ele><time>2026-04-26T08:02:24Z</time></trkpt><trkpt lat="41.133381563049355" lon="9.478499097586"><ele>25.0</ele><time>2026-04-26T08:02:25Z</time></trkpt><trkpt lat="41.13342340692657" lon="9.478245783004418"><ele>25.0</ele><time>2026-04-26T08:02:26Z</time></trkpt><trkpt lat="41.13346427098346" lon="9.47800890278463"><ele>25.0</ele><time>2026-04-26T08:02:27Z</time></trkpt><trkpt lat="41.13350477321768" lon="9.477786284447893"><ele>24.0</ele><time>2026-04-26T08:02:28Z</time></trkpt><trkpt lat="41.13354272572668" lon="9.47758122152844"><ele>23.0</ele><time>2026-04-26T08:02:29Z</time></trkpt><trkpt lat="41.133575020685676" lon="9.477402546413177"><ele>22.0</ele><time>2026-04-26T08:02:30Z</time></trkpt><trkpt lat="41.13361695335537" lon="9.47725121292388"><ele>21.0</ele><time>2026-04-26T08:02:31Z</time></trkpt><trkpt lat="41.133663643356556" lon="9.477128986381807"><ele>20.6</ele><time>2026-04-26T08:02:32Z</time></trkpt><trkpt lat="41.13368883106326" lon="9.477034200647585"><ele>20.200000000000003</ele><time>2026-04-26T08:02:33Z</time></trkpt><trkpt lat="41.133677248746096" lon="9.47691536179708"><ele>19.799999999999997</ele><time>2026-04-26T08:02:35Z</time></trkpt><trkpt lat="41.133636561973084" lon="9.47683612252565"><ele>19.4</ele><time>2026-04-26T08:02:37Z</time></trkpt><trkpt lat="41.133478542121324" lon="9.47678958653751"><ele>19.0</ele><time>2026-04-26T08:02:38Z</time></trkpt><trkpt lat="41.1333203722913" lon="9.47677244474641"><ele>17.666666666666664</ele><time>2026-04-26T08:02:39Z</time></trkpt><trkpt lat="41.133132748374194" lon="9.476766375029888"><ele>16.333333333333332</ele><time>2026-04-26T08:02:40Z</time></trkpt><trkpt lat="41.13291327923495" lon="9.476895768353126"><ele>15.0</ele><time>2026-04-26T08:02:41Z</time></trkpt><trkpt lat="41.132691073286026" lon="9.476863208456447"><ele>15.0</ele><time>2026-04-26T08:02:42Z</time></trkpt><trkpt lat="41.13247606202553" lon="9.47674139668229"><ele>15.0</ele><time>2026-04-26T08:02:43Z</time></trkpt><trkpt lat="41.13226498153618" lon="9.476732624265424"><ele>15.0</ele><time>2026-04-26T08:02:44Z</time></trkpt><trkpt lat="41.13206702958749" lon="9.476723643359785"><ele>14.666666666666668</ele><time>2026-04-26T08:02:45Z</time></trkpt><trkpt lat="41.1318766412097" lon="9.476715587854935"><ele>14.333333333333334</ele><time>2026-04-26T08:02:46Z</time></trkpt><trkpt lat="41.131689737361455" lon="9.476709509901347"><ele>14.0</ele><time>2026-04-26T08:02:47Z</time></trkpt><trkpt lat="41.13150256560935" lon="9.476702259781087"><ele>14.0</ele><time>2026-04-26T08:02:48Z</time></trkpt><trkpt lat="41.131309775007736" lon="9.476694136763783"><ele>14.0</ele><time>2026-04-26T08:02:49Z</time></trkpt><trkpt lat="41.131111980985395" lon="9.476687615834267"><ele>14.0</ele><time>2026-04-26T08:02:50Z</time></trkpt><trkpt lat="41.13091228548715" lon="9.476679318353932"><ele>14.0</ele><time>2026-04-26T08:02:51Z</time></trkpt><trkpt lat="41.13070978332622" lon="9.476669744139578"><ele>14.0</ele><time>2026-04-26T08:02:52Z</time></trkpt><trkpt lat="41.13050141224653" lon="9.47665835966285"><ele>14.0</ele><time>2026-04-26T08:02:53Z</time></trkpt><trkpt lat="41.130290385071035" lon="9.476638498732738"><ele>14.0</ele><time>2026-04-26T08:02:54Z</time></trkpt><trkpt lat="41.130078218524396" lon="9.476607159634789"><ele>14.0</ele><time>2026-04-26T08:02:55Z</time></trkpt><trkpt lat="41.129858302196666" lon="9.47656404495566"><ele>14.0</ele><time>2026-04-26T08:02:56Z</time></trkpt><trkpt lat="41.12963132552964" lon="9.476513290771877"><ele>15.0</ele><time>2026-04-26T08:02:57Z</time></trkpt><trkpt lat="41.1294062812643" lon="9.47646181548793"><ele>16.0</ele><time>2026-04-26T08:02:58Z</time></trkpt><trkpt lat="41.1291950898873" lon="9.47641187318879"><ele>17.0</ele><time>2026-04-26T08:02:59Z</time></trkpt><trkpt lat="41.12899947714772" lon="9.476367972697146"><ele>16.666666666666668</ele><time>2026-04-26T08:03:00Z</time></trkpt><trkpt lat="41.128813191374896" lon="9.476326083453756"><ele>16.333333333333332</ele><time>2026-04-26T08:03:01Z</time></trkpt><trkpt lat="41.12863345897857" lon="9.476262412884125"><ele>16.0</ele><time>2026-04-26T08:03:02Z</time></trkpt><trkpt lat="41.12844327140724" lon="9.476238634140307"><ele>16.0</ele><time>2026-04-26T08:03:03Z</time></trkpt><trkpt lat="41.12825870821271" lon="9.476195136778088"><ele>16.0</ele><time>2026-04-26T08:03:04Z</time></trkpt><trkpt lat="41.12808732955535" lon="9.476152267700668"><ele>16.0</ele><time>2026-04-26T08:03:05Z</time></trkpt><trkpt lat="41.12792201880286" lon="9.476112959786272"><ele>15.666666666666666</ele><time>2026-04-26T08:03:06Z</time></trkpt><trkpt lat="41.127766184125164" lon="9.476075483009117"><ele>15.333333333333332</ele><time>2026-04-26T08:03:07Z</time></trkpt><trkpt lat="41.12761597056042" lon="9.476040368089828"><ele>15.0</ele><time>2026-04-26T08:03:08Z</time></trkpt><trkpt lat="41.127473348001345" lon="9.476004817987938"><ele>15.25</ele><time>2026-04-26T08:03:09Z</time></trkpt><trkpt lat="41.1273399119615" lon="9.475972990043752"><ele>15.5</ele><time>2026-04-26T08:03:10Z</time></trkpt><trkpt lat="41.12720076159957" lon="9.4759406729028"><ele>15.75</ele><time>2026-04-26T08:03:11Z</time></trkpt><trkpt lat="41.127059330703766" lon="9.47590796761687"><ele>16.0</ele><time>2026-04-26T08:03:12Z</time></trkpt><trkpt lat="41.12691670471883" lon="9.475876774299907"><ele>16.0</ele><time>2026-04-26T08:03:13Z</time></trkpt><trkpt lat="41.126779353018684" lon="9.475844802913965"><ele>16.0</ele><time>2026-04-26T08:03:14Z</time></trkpt><trkpt lat="41.12664513228286" lon="9.475813136334045"><ele>16.0</ele><time>2026-04-26T08:03:15Z</time></trkpt><trkpt lat="41.1265161726003" lon="9.475781999145768"><ele>16.0</ele><time>2026-04-26T08:03:16Z</time></trkpt><trkpt lat="41.12638346276076" lon="9.47575180292162"><ele>15.75</ele><time>2026-04-26T08:03:17Z</time></trkpt><trkpt lat="41.12625134696953" lon="9.475723519664843"><ele>15.5</ele><time>2026-04-26T08:03:18Z</time></trkpt><trkpt lat="41.12611458456484" lon="9.475690065827191"><ele>15.25</ele><time>2026-04-26T08:03:19Z</time></trkpt><trkpt lat="41.12597953577183" lon="9.475660641537415"><ele>15.0</ele><time>2026-04-26T08:03:20Z</time></trkpt><trkpt lat="41.12585331148283" lon="9.47562659549132"><ele>14.5</ele><time>2026-04-26T08:03:21Z</time></trkpt><trkpt lat="41.12571918161296" lon="9.475596880218008"><ele>14.0</ele><time>2026-04-26T08:03:22Z</time></trkpt><trkpt lat="41.125583200847835" lon="9.475566944734792"><ele>13.5</ele><time>2026-04-26T08:03:23Z</time></trkpt><trkpt lat="41.12544390659794" lon="9.475532452880971"><ele>13.0</ele><time>2026-04-26T08:03:24Z</time></trkpt><trkpt lat="41.12530422652576" lon="9.4755002120557"><ele>13.0</ele><time>2026-04-26T08:03:25Z</time></trkpt><trkpt lat="41.12516148659432" lon="9.47546583999344"><ele>13.0</ele><time>2026-04-26T08:03:26Z</time></trkpt><trkpt lat="41.12502137959804" lon="9.47543256429791"><ele>13.0</ele><time>2026-04-26T08:03:27Z</time></trkpt><trkpt lat="41.12488316570319" lon="9.475400628502538"><ele>13.0</ele><time>2026-04-26T08:03:28Z</time></trkpt><trkpt lat="41.124746335731196" lon="9.475367658793697"><ele>12.5</ele><time>2026-04-26T08:03:29Z</time></trkpt><trkpt lat="41.124609951106585" lon="9.475333541850892"><ele>12.0</ele><time>2026-04-26T08:03:30Z</time></trkpt><trkpt lat="41.12447561249213" lon="9.475296685028313"><ele>11.5</ele><time>2026-04-26T08:03:31Z</time></trkpt><trkpt lat="41.12434300290248" lon="9.475253077872594"><ele>11.0</ele><time>2026-04-26T08:03:32Z</time></trkpt><trkpt lat="41.12421336591803" lon="9.47519615431177"><ele>11.0</ele><time>2026-04-26T08:03:33Z</time></trkpt><trkpt lat="41.12408357741097" lon="9.475131273692119"><ele>11.0</ele><time>2026-04-26T08:03:34Z</time></trkpt><trkpt lat="41.12395867837943" lon="9.47506477068481"><ele>11.0</ele><time>2026-04-26T08:03:35Z</time></trkpt><trkpt lat="41.12383824833991" lon="9.475000893145593"><ele>11.0</ele><time>2026-04-26T08:03:36Z</time></trkpt><trkpt lat="41.12371939151516" lon="9.474938929439354"><ele>11.5</ele><time>2026-04-26T08:03:37Z</time></trkpt><trkpt lat="41.12360173234593" lon="9.474877209796457"><ele>12.0</ele><time>2026-04-26T08:03:38Z</time></trkpt><trkpt lat="41.12347981710551" lon="9.47481592066658"><ele>12.5</ele><time>2026-04-26T08:03:39Z</time></trkpt><trkpt lat="41.12334997064946" lon="9.474753724341738"><ele>13.0</ele><time>2026-04-26T08:03:40Z</time></trkpt><trkpt lat="41.12320924097662" lon="9.474656693520991"><ele>10.666666666666666</ele><time>2026-04-26T08:03:41Z</time></trkpt><trkpt lat="41.12303769109698" lon="9.474566149534859"><ele>8.333333333333332</ele><time>2026-04-26T08:03:42Z</time></trkpt><trkpt lat="41.12285530287162" lon="9.474470031395366"><ele>6.0</ele><time>2026-04-26T08:03:43Z</time></trkpt><trkpt lat="41.12266948715164" lon="9.474372049951688"><ele>6.0</ele><time>2026-04-26T08:03:44Z</time></trkpt><trkpt lat="41.12248261837989" lon="9.474288619372098"><ele>6.0</ele><time>2026-04-26T08:03:45Z</time></trkpt><trkpt lat="41.122306678010894" lon="9.474191638254876"><ele>6.0</ele><time>2026-04-26T08:03:46Z</time></trkpt><trkpt lat="41.12213015526512" lon="9.474098377474512"><ele>6.666666666666666</ele><time>2026-04-26T08:03:47Z</time></trkpt><trkpt lat="41.121955484860244" lon="9.47400827396993"><ele>7.333333333333333</ele><time>2026-04-26T08:03:48Z</time></trkpt><trkpt lat="41.12177882323957" lon="9.473916693767688"><ele>8.0</ele><time>2026-04-26T08:03:49Z</time></trkpt><trkpt lat="41.1216019004308" lon="9.473821996860144"><ele>10.666666666666666</ele><time>2026-04-26T08:03:50Z</time></trkpt><trkpt lat="41.121426047337344" lon="9.47372985732681"><ele>13.333333333333332</ele><time>2026-04-26T08:03:51Z</time></trkpt><trkpt lat="41.12124511770829" lon="9.473638410119811"><ele>16.0</ele><time>2026-04-26T08:03:52Z</time></trkpt><trkpt lat="41.1210626975527" lon="9.473551095883236"><ele>16.0</ele><time>2026-04-26T08:03:53.001Z</time></trkpt><trkpt lat="41.12087172095904" lon="9.473466867988176"><ele>16.0</ele><time>2026-04-26T08:03:54.001Z</time></trkpt><trkpt lat="41.120674753707526" lon="9.473387634491997"><ele>16.0</ele><time>2026-04-26T08:03:55.001Z</time></trkpt><trkpt lat="41.12047543581476" lon="9.473311053460082"><ele>18.0</ele><time>2026-04-26T08:03:56.001Z</time></trkpt><trkpt lat="41.120276933122994" lon="9.473227919401154"><ele>20.0</ele><time>2026-04-26T08:03:57.001Z</time></trkpt><trkpt lat="41.120081290399355" lon="9.473147161940554"><ele>22.0</ele><time>2026-04-26T08:03:58.001Z</time></trkpt><trkpt lat="41.11988730846633" lon="9.4730662424575"><ele>22.0</ele><time>2026-04-26T08:03:59.001Z</time></trkpt><trkpt lat="41.11969340831021" lon="9.47298413568799"><ele>22.0</ele><time>2026-04-26T08:04:00.001Z</time></trkpt><trkpt lat="41.11949734649381" lon="9.472904826847927"><ele>22.0</ele><time>2026-04-26T08:04:01.001Z</time></trkpt><trkpt lat="41.11930912446614" lon="9.47282978339405"><ele>22.0</ele><time>2026-04-26T08:04:02.001Z</time></trkpt><trkpt lat="41.11913075322821" lon="9.472749902335178"><ele>22.0</ele><time>2026-04-26T08:04:03.001Z</time></trkpt><trkpt lat="41.11896538755548" lon="9.472665261838022"><ele>22.0</ele><time>2026-04-26T08:04:04Z</time></trkpt><trkpt lat="41.118807126917055" lon="9.47256368622084"><ele>24.333333333333332</ele><time>2026-04-26T08:04:05Z</time></trkpt><trkpt lat="41.11866429052357" lon="9.472425754510732"><ele>26.666666666666664</ele><time>2026-04-26T08:04:06Z</time></trkpt><trkpt lat="41.11850675695378" lon="9.472314007418525"><ele>29.0</ele><time>2026-04-26T08:04:07Z</time></trkpt><trkpt lat="41.118356588798164" lon="9.472182197427946"><ele>28.0</ele><time>2026-04-26T08:04:08Z</time></trkpt><trkpt lat="41.118205191600076" lon="9.472051042618583"><ele>27.0</ele><time>2026-04-26T08:04:09Z</time></trkpt><trkpt lat="41.11805060368838" lon="9.471919929961576"><ele>26.0</ele><time>2026-04-26T08:04:10Z</time></trkpt><trkpt lat="41.117895412412004" lon="9.471787062790606"><ele>26.0</ele><time>2026-04-26T08:04:11Z</time></trkpt><trkpt lat="41.11774181288946" lon="9.47165667557278"><ele>26.0</ele><time>2026-04-26T08:04:12Z</time></trkpt><trkpt lat="41.117595736807885" lon="9.471531274441029"><ele>26.0</ele><time>2026-04-26T08:04:13Z</time></trkpt><trkpt lat="41.11745371162178" lon="9.471412793836837"><ele>25.0</ele><time>2026-04-26T08:04:14Z</time></trkpt><trkpt lat="41.117308393177616" lon="9.47129907500463"><ele>24.0</ele><time>2026-04-26T08:04:15Z</time></trkpt><trkpt lat="41.117160778053204" lon="9.471196015301613"><ele>23.0</ele><time>2026-04-26T08:04:16Z</time></trkpt><trkpt lat="41.117013177234035" lon="9.471100314092476"><ele>22.0</ele><time>2026-04-26T08:04:17Z</time></trkpt><trkpt lat="41.116867366450066" lon="9.471003612092876"><ele>21.0</ele><time>2026-04-26T08:04:18Z</time></trkpt><trkpt lat="41.11672003558712" lon="9.470908314246639"><ele>20.0</ele><time>2026-04-26T08:04:19Z</time></trkpt><trkpt lat="41.116566243926705" lon="9.47081079677524"><ele>19.666666666666668</ele><time>2026-04-26T08:04:20Z</time></trkpt><trkpt lat="41.11640790087347" lon="9.470715026601887"><ele>19.333333333333332</ele><time>2026-04-26T08:04:21Z</time></trkpt><trkpt lat="41.11625226105146" lon="9.470620129686385"><ele>19.0</ele><time>2026-04-26T08:04:22Z</time></trkpt><trkpt lat="41.11610395025267" lon="9.470524677946143"><ele>18.666666666666664</ele><time>2026-04-26T08:04:23Z</time></trkpt><trkpt lat="41.11596128273839" lon="9.47042912940975"><ele>18.333333333333332</ele><time>2026-04-26T08:04:24Z</time></trkpt><trkpt lat="41.11584052535894" lon="9.470301373649168"><ele>18.0</ele><time>2026-04-26T08:04:25Z</time></trkpt><trkpt lat="41.11572909000263" lon="9.470171048454212"><ele>18.0</ele><time>2026-04-26T08:04:26Z</time></trkpt><trkpt lat="41.11563715060098" lon="9.470010045045555"><ele>18.0</ele><time>2026-04-26T08:04:27Z</time></trkpt><trkpt lat="41.1155694079301" lon="9.46983823413897"><ele>18.0</ele><time>2026-04-26T08:04:28Z</time></trkpt><trkpt lat="41.11551941742583" lon="9.469654064527278"><ele>18.0</ele><time>2026-04-26T08:04:29Z</time></trkpt><trkpt lat="41.11548940349458" lon="9.46944612271154"><ele>16.666666666666668</ele><time>2026-04-26T08:04:30Z</time></trkpt><trkpt lat="41.11548240049538" lon="9.469230283658822"><ele>15.333333333333334</ele><time>2026-04-26T08:04:31Z</time></trkpt><trkpt lat="41.11548664727331" lon="9.469011299184807"><ele>14.0</ele><time>2026-04-26T08:04:32Z</time></trkpt><trkpt lat="41.11551152622773" lon="9.468783548044614"><ele>15.0</ele><time>2026-04-26T08:04:33Z</time></trkpt><trkpt lat="41.11554254239166" lon="9.468546113266381"><ele>16.0</ele><time>2026-04-26T08:04:34Z</time></trkpt><trkpt lat="41.115572614915415" lon="9.468300308676197"><ele>17.0</ele><time>2026-04-26T08:04:35Z</time></trkpt><trkpt lat="41.115600666444" lon="9.468053892431659"><ele>20.333333333333336</ele><time>2026-04-26T08:04:36Z</time></trkpt><trkpt lat="41.115626472104175" lon="9.467815872212435"><ele>23.666666666666668</ele><time>2026-04-26T08:04:37Z</time></trkpt><trkpt lat="41.115651545151216" lon="9.467590365850024"><ele>27.0</ele><time>2026-04-26T08:04:38Z</time></trkpt><trkpt lat="41.11567605713389" lon="9.467362672170196"><ele>27.0</ele><time>2026-04-26T08:04:39Z</time></trkpt><trkpt lat="41.11570140199023" lon="9.467138728098098"><ele>27.0</ele><time>2026-04-26T08:04:40Z</time></trkpt><trkpt lat="41.115717419893784" lon="9.46692435963464"><ele>27.0</ele><time>2026-04-26T08:04:41Z</time></trkpt><trkpt lat="41.11571089428122" lon="9.466713775768246"><ele>26.666666666666664</ele><time>2026-04-26T08:04:42Z</time></trkpt><trkpt lat="41.11567881179157" lon="9.466502349182317"><ele>26.333333333333332</ele><time>2026-04-26T08:04:43Z</time></trkpt><trkpt lat="41.11562529737683" lon="9.466305593481062"><ele>26.0</ele><time>2026-04-26T08:04:44Z</time></trkpt><trkpt lat="41.115550422746836" lon="9.466124697760364"><ele>21.333333333333332</ele><time>2026-04-26T08:04:45Z</time></trkpt><trkpt lat="41.11546130029536" lon="9.465955915097998"><ele>16.666666666666664</ele><time>2026-04-26T08:04:46Z</time></trkpt><trkpt lat="41.11535581092772" lon="9.465805633080883"><ele>12.0</ele><time>2026-04-26T08:04:47Z</time></trkpt><trkpt lat="41.115237412977315" lon="9.465675360268087"><ele>12.0</ele><time>2026-04-26T08:04:48Z</time></trkpt><trkpt lat="41.11510485278823" lon="9.465570461185637"><ele>12.0</ele><time>2026-04-26T08:04:49Z</time></trkpt><trkpt lat="41.11496087781514" lon="9.465486503291228"><ele>12.0</ele><time>2026-04-26T08:04:50Z</time></trkpt><trkpt lat="41.114809291997034" lon="9.465408672330184"><ele>9.333333333333334</ele><time>2026-04-26T08:04:51Z</time></trkpt><trkpt lat="41.11465181669449" lon="9.465327808747958"><ele>6.666666666666666</ele><time>2026-04-26T08:04:52Z</time></trkpt><trkpt lat="41.114490160384634" lon="9.465240556217744"><ele>4.0</ele><time>2026-04-26T08:04:53Z</time></trkpt><trkpt lat="41.11432564384289" lon="9.4651401345496"><ele>4.0</ele><time>2026-04-26T08:04:54Z</time></trkpt><trkpt lat="41.114162110144285" lon="9.465023509065194"><ele>4.0</ele><time>2026-04-26T08:04:55Z</time></trkpt><trkpt lat="41.11400790805689" lon="9.464889607758435"><ele>4.0</ele><time>2026-04-26T08:04:56Z</time></trkpt><trkpt lat="41.11385582081303" lon="9.46475369655225"><ele>4.666666666666666</ele><time>2026-04-26T08:04:57Z</time></trkpt><trkpt lat="41.113705028414344" lon="9.464621441637684"><ele>5.333333333333333</ele><time>2026-04-26T08:04:58Z</time></trkpt><trkpt lat="41.113551597902074" lon="9.464491988723488"><ele>6.0</ele><time>2026-04-26T08:04:59Z</time></trkpt><trkpt lat="41.11339951796424" lon="9.464362045972988"><ele>6.0</ele><time>2026-04-26T08:05:00Z</time></trkpt><trkpt lat="41.11325078726229" lon="9.464229601034209"><ele>6.0</ele><time>2026-04-26T08:05:01Z</time></trkpt><trkpt lat="41.11310112551762" lon="9.46409760227816"><ele>6.0</ele><time>2026-04-26T08:05:02Z</time></trkpt><trkpt lat="41.112950802054954" lon="9.463968841758422"><ele>6.333333333333334</ele><time>2026-04-26T08:05:03Z</time></trkpt><trkpt lat="41.11280228222112" lon="9.463842065561886"><ele>6.666666666666667</ele><time>2026-04-26T08:05:04Z</time></trkpt><trkpt lat="41.112655559874646" lon="9.463715312815124"><ele>7.0</ele><time>2026-04-26T08:05:05Z</time></trkpt><trkpt lat="41.11250729614178" lon="9.463582981266606"><ele>7.0</ele><time>2026-04-26T08:05:06Z</time></trkpt><trkpt lat="41.112359176138305" lon="9.463466947391703"><ele>7.0</ele><time>2026-04-26T08:05:07Z</time></trkpt><trkpt lat="41.11220835236145" lon="9.463376739795779"><ele>7.0</ele><time>2026-04-26T08:05:08Z</time></trkpt><trkpt lat="41.11205157769219" lon="9.463323405281248"><ele>7.0</ele><time>2026-04-26T08:05:09Z</time></trkpt><trkpt lat="41.111889252181406" lon="9.463303473666727"><ele>7.0</ele><time>2026-04-26T08:05:10Z</time></trkpt><trkpt lat="41.11172382380302" lon="9.46331524269594"><ele>7.0</ele><time>2026-04-26T08:05:11Z</time></trkpt><trkpt lat="41.11156076078757" lon="9.463361222145833"><ele>7.666666666666667</ele><time>2026-04-26T08:05:12Z</time></trkpt><trkpt lat="41.111392560125225" lon="9.463432732197962"><ele>8.333333333333334</ele><time>2026-04-26T08:05:13Z</time></trkpt><trkpt lat="41.1112231129552" lon="9.46351190398823"><ele>9.0</ele><time>2026-04-26T08:05:14Z</time></trkpt><trkpt lat="41.11105732060529" lon="9.463587028441026"><ele>9.0</ele><time>2026-04-26T08:05:15Z</time></trkpt><trkpt lat="41.11089713632189" lon="9.46365814724543"><ele>9.0</ele><time>2026-04-26T08:05:16Z</time></trkpt><trkpt lat="41.110742702293024" lon="9.46372599181558"><ele>9.0</ele><time>2026-04-26T08:05:17Z</time></trkpt><trkpt lat="41.11058712415688" lon="9.463788538959816"><ele>12.0</ele><time>2026-04-26T08:05:18Z</time></trkpt><trkpt lat="41.11042966346575" lon="9.463853694454466"><ele>15.0</ele><time>2026-04-26T08:05:19Z</time></trkpt><trkpt lat="41.11027120679629" lon="9.463922986419995"><ele>18.0</ele><time>2026-04-26T08:05:20Z</time></trkpt><trkpt lat="41.11011235743225" lon="9.463991482951554"><ele>18.0</ele><time>2026-04-26T08:05:21Z</time></trkpt><trkpt lat="41.109959722793704" lon="9.464053963161291"><ele>18.0</ele><time>2026-04-26T08:05:22Z</time></trkpt><trkpt lat="41.109806287139264" lon="9.464119922299826"><ele>18.0</ele><time>2026-04-26T08:05:23Z</time></trkpt><trkpt lat="41.10965829341385" lon="9.464181449635454"><ele>20.75</ele><time>2026-04-26T08:05:24Z</time></trkpt><trkpt lat="41.10951481673019" lon="9.464241689978005"><ele>23.5</ele><time>2026-04-26T08:05:25Z</time></trkpt><trkpt lat="41.10937163117967" lon="9.464294092795065"><ele>26.25</ele><time>2026-04-26T08:05:26Z</time></trkpt><trkpt lat="41.109226552126344" lon="9.464333533661199"><ele>29.0</ele><time>2026-04-26T08:05:27Z</time></trkpt><trkpt lat="41.10908094840806" lon="9.4643558102159"><ele>31.5</ele><time>2026-04-26T08:05:28Z</time></trkpt><trkpt lat="41.10894021758037" lon="9.46435781483668"><ele>34.0</ele><time>2026-04-26T08:05:29Z</time></trkpt><trkpt lat="41.10881649495648" lon="9.464337744779753"><ele>36.5</ele><time>2026-04-26T08:05:30Z</time></trkpt><trkpt lat="41.108707261712524" lon="9.464298995415612"><ele>39.0</ele><time>2026-04-26T08:05:31Z</time></trkpt><trkpt lat="41.10861709653625" lon="9.46423245032004"><ele>39.0</ele><time>2026-04-26T08:05:32Z</time></trkpt><trkpt lat="41.10854432391205" lon="9.464138851930555"><ele>39.0</ele><time>2026-04-26T08:05:33Z</time></trkpt><trkpt lat="41.10848549520678" lon="9.464021681490467"><ele>39.0</ele><time>2026-04-26T08:05:34Z</time></trkpt><trkpt lat="41.108447748500346" lon="9.463890125132465"><ele>39.0</ele><time>2026-04-26T08:05:35Z</time></trkpt><trkpt lat="41.10843979521454" lon="9.463748650720687"><ele>39.0</ele><time>2026-04-26T08:05:36Z</time></trkpt><trkpt lat="41.108463807000994" lon="9.463604946158398"><ele>40.0</ele><time>2026-04-26T08:05:37Z</time></trkpt><trkpt lat="41.108539024828936" lon="9.463474823369966"><ele>41.0</ele><time>2026-04-26T08:05:38Z</time></trkpt><trkpt lat="41.108622911863804" lon="9.46336447909761"><ele>42.0</ele><time>2026-04-26T08:05:39Z</time></trkpt><trkpt lat="41.108738941818736" lon="9.463239948020595"><ele>43.0</ele><time>2026-04-26T08:05:40Z</time></trkpt><trkpt lat="41.10885175982815" lon="9.463119636546292"><ele>43.0</ele><time>2026-04-26T08:05:41Z</time></trkpt><trkpt lat="41.1089454776679" lon="9.463015401642028"><ele>43.0</ele><time>2026-04-26T08:05:42Z</time></trkpt><trkpt lat="41.10903752050373" lon="9.46290809728029"><ele>43.0</ele><time>2026-04-26T08:05:43Z</time></trkpt><trkpt lat="41.10912402851789" lon="9.462797902905656"><ele>43.0</ele><time>2026-04-26T08:05:44Z</time></trkpt><trkpt lat="41.10919832615952" lon="9.462668718509804"><ele>42.75</ele><time>2026-04-26T08:05:45Z</time></trkpt><trkpt lat="41.10925025864288" lon="9.462517908552709"><ele>42.5</ele><time>2026-04-26T08:05:46Z</time></trkpt><trkpt lat="41.10927860786065" lon="9.46235256926848"><ele>42.25</ele><time>2026-04-26T08:05:47Z</time></trkpt><trkpt lat="41.10927940199549" lon="9.462185073160315"><ele>42.0</ele><time>2026-04-26T08:05:48Z</time></trkpt><trkpt lat="41.10925073320848" lon="9.46202356438421"><ele>43.25</ele><time>2026-04-26T08:05:49Z</time></trkpt><trkpt lat="41.10919752906598" lon="9.46187015841569"><ele>44.5</ele><time>2026-04-26T08:05:50Z</time></trkpt><trkpt lat="41.10912138628076" lon="9.461721139337449"><ele>45.75</ele><time>2026-04-26T08:05:51Z</time></trkpt><trkpt lat="41.109034122838615" lon="9.4615728648779"><ele>47.0</ele><time>2026-04-26T08:05:52Z</time></trkpt><trkpt lat="41.10894760396631" lon="9.46142392409027"><ele>47.75</ele><time>2026-04-26T08:05:53Z</time></trkpt><trkpt lat="41.10886136472958" lon="9.461274005864523"><ele>48.5</ele><time>2026-04-26T08:05:54Z</time></trkpt><trkpt lat="41.10877427651457" lon="9.461121599695568"><ele>49.25</ele><time>2026-04-26T08:05:55Z</time></trkpt><trkpt lat="41.108684167496826" lon="9.46096696092649"><ele>50.0</ele><time>2026-04-26T08:05:56Z</time></trkpt><trkpt lat="41.1085943809964" lon="9.460808567973638"><ele>50.0</ele><time>2026-04-26T08:05:57Z</time></trkpt><trkpt lat="41.1085032954061" lon="9.460647322446405"><ele>50.0</ele><time>2026-04-26T08:05:58Z</time></trkpt><trkpt lat="41.10840895357231" lon="9.460483725117314"><ele>50.0</ele><time>2026-04-26T08:05:59Z</time></trkpt><trkpt lat="41.108313031745446" lon="9.46031716692906"><ele>51.0</ele><time>2026-04-26T08:06:00Z</time></trkpt><trkpt lat="41.108214876379314" lon="9.460146945427587"><ele>52.0</ele><time>2026-04-26T08:06:01Z</time></trkpt><trkpt lat="41.10811731672242" lon="9.459972245253836"><ele>53.0</ele><time>2026-04-26T08:06:02Z</time></trkpt><trkpt lat="41.10801770817181" lon="9.459794302454007"><ele>50.333333333333336</ele><time>2026-04-26T08:06:03Z</time></trkpt><trkpt lat="41.10791588322456" lon="9.459613961218555"><ele>47.66666666666667</ele><time>2026-04-26T08:06:04Z</time></trkpt><trkpt lat="41.10780471654538" lon="9.459416507855192"><ele>45.0</ele><time>2026-04-26T08:06:05Z</time></trkpt><trkpt lat="41.10769452200922" lon="9.459215195223866"><ele>45.0</ele><time>2026-04-26T08:06:06Z</time></trkpt><trkpt lat="41.10758892762475" lon="9.459024516138713"><ele>45.0</ele><time>2026-04-26T08:06:07Z</time></trkpt><trkpt lat="41.10748333971333" lon="9.458851320345287"><ele>45.0</ele><time>2026-04-26T08:06:08Z</time></trkpt><trkpt lat="41.10736156743789" lon="9.45868567783531"><ele>44.0</ele><time>2026-04-26T08:06:09Z</time></trkpt><trkpt lat="41.107222735267" lon="9.45853209635034"><ele>43.0</ele><time>2026-04-26T08:06:10Z</time></trkpt><trkpt lat="41.10707469360516" lon="9.45838118328774"><ele>42.0</ele><time>2026-04-26T08:06:11Z</time></trkpt><trkpt lat="41.10692629269593" lon="9.458228602483675"><ele>42.0</ele><time>2026-04-26T08:06:12Z</time></trkpt><trkpt lat="41.10678458798211" lon="9.45807419719356"><ele>42.0</ele><time>2026-04-26T08:06:13Z</time></trkpt><trkpt lat="41.10665511554047" lon="9.457911091894218"><ele>42.0</ele><time>2026-04-26T08:06:14Z</time></trkpt><trkpt lat="41.10655373124339" lon="9.45772039637573"><ele>42.333333333333336</ele><time>2026-04-26T08:06:15Z</time></trkpt><trkpt lat="41.10644960193337" lon="9.457542885155629"><ele>42.66666666666667</ele><time>2026-04-26T08:06:16Z</time></trkpt><trkpt lat="41.10633832596595" lon="9.457374987182336"><ele>43.0</ele><time>2026-04-26T08:06:17Z</time></trkpt><trkpt lat="41.10624427954941" lon="9.457199308749399"><ele>40.333333333333336</ele><time>2026-04-26T08:06:18Z</time></trkpt><trkpt lat="41.10614675099554" lon="9.457038081482455"><ele>37.666666666666664</ele><time>2026-04-26T08:06:19Z</time></trkpt><trkpt lat="41.10603284773897" lon="9.456894937862355"><ele>35.0</ele><time>2026-04-26T08:06:20Z</time></trkpt><trkpt lat="41.10589775852382" lon="9.456775268035939"><ele>35.0</ele><time>2026-04-26T08:06:21Z</time></trkpt><trkpt lat="41.1057466931041" lon="9.456692205010969"><ele>35.0</ele><time>2026-04-26T08:06:22Z</time></trkpt><trkpt lat="41.10558405636405" lon="9.456634853591291"><ele>35.0</ele><time>2026-04-26T08:06:23Z</time></trkpt><trkpt lat="41.10541583365572" lon="9.456642550841698"><ele>34.0</ele><time>2026-04-26T08:06:24Z</time></trkpt><trkpt lat="41.10525207043579" lon="9.456656710718098"><ele>33.0</ele><time>2026-04-26T08:06:25Z</time></trkpt><trkpt lat="41.105085425146996" lon="9.456679139163304"><ele>32.0</ele><time>2026-04-26T08:06:26Z</time></trkpt><trkpt lat="41.10491557675007" lon="9.456710221738637"><ele>30.666666666666664</ele><time>2026-04-26T08:06:27Z</time></trkpt><trkpt lat="41.10474302059344" lon="9.45673834296346"><ele>29.333333333333336</ele><time>2026-04-26T08:06:28Z</time></trkpt><trkpt lat="41.10456880889139" lon="9.456766401860355"><ele>28.0</ele><time>2026-04-26T08:06:29Z</time></trkpt><trkpt lat="41.104398497919085" lon="9.456796365627415"><ele>28.0</ele><time>2026-04-26T08:06:30Z</time></trkpt><trkpt lat="41.104233161730434" lon="9.456822460526297"><ele>28.0</ele><time>2026-04-26T08:06:31Z</time></trkpt><trkpt lat="41.10406960277752" lon="9.456848428001221"><ele>28.0</ele><time>2026-04-26T08:06:32Z</time></trkpt><trkpt lat="41.10390951119688" lon="9.456873192902409"><ele>26.0</ele><time>2026-04-26T08:06:33Z</time></trkpt><trkpt lat="41.10375292922465" lon="9.456895855903145"><ele>24.0</ele><time>2026-04-26T08:06:34Z</time></trkpt><trkpt lat="41.10359962283817" lon="9.456902842657314"><ele>22.0</ele><time>2026-04-26T08:06:35Z</time></trkpt><trkpt lat="41.10344777812148" lon="9.456887089447903"><ele>22.0</ele><time>2026-04-26T08:06:36Z</time></trkpt><trkpt lat="41.10329717354981" lon="9.456844412584912"><ele>22.0</ele><time>2026-04-26T08:06:37Z</time></trkpt><trkpt lat="41.103148281462296" lon="9.456762572468937"><ele>22.0</ele><time>2026-04-26T08:06:38Z</time></trkpt><trkpt lat="41.10300054683137" lon="9.45665242758529"><ele>21.0</ele><time>2026-04-26T08:06:39Z</time></trkpt><trkpt lat="41.102843161932796" lon="9.45651253370827"><ele>20.0</ele><time>2026-04-26T08:06:40Z</time></trkpt><trkpt lat="41.10268969693926" lon="9.456379610897814"><ele>19.0</ele><time>2026-04-26T08:06:41Z</time></trkpt><trkpt lat="41.10254307604037" lon="9.45625309814727"><ele>17.0</ele><time>2026-04-26T08:06:42Z</time></trkpt><trkpt lat="41.10240209108558" lon="9.456127461327672"><ele>15.0</ele><time>2026-04-26T08:06:43Z</time></trkpt><trkpt lat="41.10226659667748" lon="9.45601466228902"><ele>13.0</ele><time>2026-04-26T08:06:44Z</time></trkpt><trkpt lat="41.10213419093364" lon="9.455917669887214"><ele>13.0</ele><time>2026-04-26T08:06:45Z</time></trkpt><trkpt lat="41.101994679573515" lon="9.45583946144472"><ele>13.0</ele><time>2026-04-26T08:06:46Z</time></trkpt><trkpt lat="41.10184454544296" lon="9.455787372577067"><ele>13.0</ele><time>2026-04-26T08:06:47Z</time></trkpt><trkpt lat="41.1016848411541" lon="9.455762577309848"><ele>13.333333333333332</ele><time>2026-04-26T08:06:48Z</time></trkpt><trkpt lat="41.1015220349956" lon="9.455749831531518"><ele>13.666666666666668</ele><time>2026-04-26T08:06:49Z</time></trkpt><trkpt lat="41.10135741863757" lon="9.455731068727355"><ele>14.0</ele><time>2026-04-26T08:06:50Z</time></trkpt><trkpt lat="41.1011900447764" lon="9.455711844842225"><ele>14.0</ele><time>2026-04-26T08:06:51Z</time></trkpt><trkpt lat="41.10101972432199" lon="9.455693113796915"><ele>14.0</ele><time>2026-04-26T08:06:52Z</time></trkpt><trkpt lat="41.100849661244524" lon="9.455674081586587"><ele>14.0</ele><time>2026-04-26T08:06:53Z</time></trkpt><trkpt lat="41.10067693992505" lon="9.455654019600955"><ele>14.0</ele><time>2026-04-26T08:06:54Z</time></trkpt><trkpt lat="41.10051361904535" lon="9.455637740747852"><ele>14.0</ele><time>2026-04-26T08:06:55Z</time></trkpt><trkpt lat="41.100358252116955" lon="9.455619889575331"><ele>14.0</ele><time>2026-04-26T08:06:56Z</time></trkpt><trkpt lat="41.10021074743074" lon="9.455600322251051"><ele>14.0</ele><time>2026-04-26T08:06:57Z</time></trkpt><trkpt lat="41.10006036425701" lon="9.455574810662304"><ele>14.0</ele><time>2026-04-26T08:06:58Z</time></trkpt><trkpt lat="41.099910444118564" lon="9.4555193613241"><ele>14.0</ele><time>2026-04-26T08:06:59Z</time></trkpt><trkpt lat="41.09976818531562" lon="9.45541653647606"><ele>15.333333333333334</ele><time>2026-04-26T08:07:00Z</time></trkpt><trkpt lat="41.09963473974081" lon="9.455274670969914"><ele>16.666666666666668</ele><time>2026-04-26T08:07:01Z</time></trkpt><trkpt lat="41.09952628780087" lon="9.455085258048115"><ele>18.0</ele><time>2026-04-26T08:07:02Z</time></trkpt><trkpt lat="41.09940560990789" lon="9.45489918565645"><ele>18.0</ele><time>2026-04-26T08:07:03Z</time></trkpt><trkpt lat="41.099270376262396" lon="9.454717591167332"><ele>18.0</ele><time>2026-04-26T08:07:04Z</time></trkpt><trkpt lat="41.09914363412127" lon="9.454521788201514"><ele>18.0</ele><time>2026-04-26T08:07:05Z</time></trkpt><trkpt lat="41.09902286219108" lon="9.454329267714813"><ele>17.666666666666668</ele><time>2026-04-26T08:07:06Z</time></trkpt><trkpt lat="41.098903001899906" lon="9.454155854349843"><ele>17.333333333333336</ele><time>2026-04-26T08:07:07Z</time></trkpt><trkpt lat="41.09876770701203" lon="9.454012862103994"><ele>17.0</ele><time>2026-04-26T08:07:08Z</time></trkpt><trkpt lat="41.09861214049236" lon="9.453900468985438"><ele>17.0</ele><time>2026-04-26T08:07:09Z</time></trkpt><trkpt lat="41.09844471286894" lon="9.453815786287342"><ele>17.0</ele><time>2026-04-26T08:07:10Z</time></trkpt><trkpt lat="41.09826926927381" lon="9.453755336781805"><ele>17.0</ele><time>2026-04-26T08:07:11Z</time></trkpt><trkpt lat="41.098093557765836" lon="9.453702688637684"><ele>16.333333333333336</ele><time>2026-04-26T08:07:12Z</time></trkpt><trkpt lat="41.09791846562103" lon="9.453651049362968"><ele>15.666666666666668</ele><time>2026-04-26T08:07:13Z</time></trkpt><trkpt lat="41.09774380472217" lon="9.453592120042735"><ele>15.0</ele><time>2026-04-26T08:07:14Z</time></trkpt><trkpt lat="41.097569982743316" lon="9.453528102419247"><ele>15.666666666666668</ele><time>2026-04-26T08:07:15Z</time></trkpt><trkpt lat="41.09739570366368" lon="9.453466567700875"><ele>16.333333333333336</ele><time>2026-04-26T08:07:16Z</time></trkpt><trkpt lat="41.0972240514872" lon="9.453406816045392"><ele>17.0</ele><time>2026-04-26T08:07:17Z</time></trkpt><trkpt lat="41.09705232806022" lon="9.453347574398988"><ele>17.0</ele><time>2026-04-26T08:07:18Z</time></trkpt><trkpt lat="41.096880394426" lon="9.45328910070587"><ele>17.0</ele><time>2026-04-26T08:07:19Z</time></trkpt><trkpt lat="41.096709774261285" lon="9.453230865720526"><ele>17.0</ele><time>2026-04-26T08:07:20Z</time></trkpt><trkpt lat="41.096539247340594" lon="9.453170358605385"><ele>17.333333333333336</ele><time>2026-04-26T08:07:21Z</time></trkpt><trkpt lat="41.09636771371134" lon="9.453108966168784"><ele>17.666666666666668</ele><time>2026-04-26T08:07:22Z</time></trkpt><trkpt lat="41.09619616242207" lon="9.453048590335413"><ele>18.0</ele><time>2026-04-26T08:07:23Z</time></trkpt><trkpt lat="41.0960243002396" lon="9.452985937782971"><ele>17.333333333333332</ele><time>2026-04-26T08:07:24Z</time></trkpt><trkpt lat="41.09585155968154" lon="9.452921629058645"><ele>16.666666666666664</ele><time>2026-04-26T08:07:25Z</time></trkpt><trkpt lat="41.09567766309972" lon="9.452852091279482"><ele>16.0</ele><time>2026-04-26T08:07:26Z</time></trkpt><trkpt lat="41.095506601635144" lon="9.45277616292984"><ele>16.0</ele><time>2026-04-26T08:07:27Z</time></trkpt><trkpt lat="41.09533473061614" lon="9.452700163509542"><ele>16.0</ele><time>2026-04-26T08:07:28Z</time></trkpt><trkpt lat="41.09516545826374" lon="9.452627884349598"><ele>16.0</ele><time>2026-04-26T08:07:29Z</time></trkpt><trkpt lat="41.09499926481623" lon="9.452555577323919"><ele>17.333333333333332</ele><time>2026-04-26T08:07:30Z</time></trkpt><trkpt lat="41.09483073365594" lon="9.452484256511436"><ele>18.666666666666668</ele><time>2026-04-26T08:07:31Z</time></trkpt><trkpt lat="41.09466255649266" lon="9.452407922017914"><ele>20.0</ele><time>2026-04-26T08:07:32Z</time></trkpt><trkpt lat="41.094494724373796" lon="9.452330181260523"><ele>20.0</ele><time>2026-04-26T08:07:33Z</time></trkpt><trkpt lat="41.09432603521047" lon="9.45225450631381"><ele>20.0</ele><time>2026-04-26T08:07:34Z</time></trkpt><trkpt lat="41.094156762686445" lon="9.452180080587116"><ele>20.0</ele><time>2026-04-26T08:07:35Z</time></trkpt><trkpt lat="41.0939854079121" lon="9.452105077544672"><ele>18.666666666666668</ele><time>2026-04-26T08:07:36Z</time></trkpt><trkpt lat="41.09381439254432" lon="9.452026606355236"><ele>17.333333333333332</ele><time>2026-04-26T08:07:37Z</time></trkpt><trkpt lat="41.09364313115359" lon="9.451947886047718"><ele>16.0</ele><time>2026-04-26T08:07:38Z</time></trkpt><trkpt lat="41.093471712870546" lon="9.4518749738538"><ele>16.0</ele><time>2026-04-26T08:07:39Z</time></trkpt><trkpt lat="41.09330570860591" lon="9.45182302949305"><ele>16.0</ele><time>2026-04-26T08:07:40Z</time></trkpt><trkpt lat="41.093139257814016" lon="9.451809238779044"><ele>16.0</ele><time>2026-04-26T08:07:41Z</time></trkpt><trkpt lat="41.09296873059494" lon="9.451838872688475"><ele>16.333333333333332</ele><time>2026-04-26T08:07:42Z</time></trkpt><trkpt lat="41.09279578541219" lon="9.451906658161427"><ele>16.666666666666668</ele><time>2026-04-26T08:07:43Z</time></trkpt><trkpt lat="41.092637062088585" lon="9.451991556482847"><ele>17.0</ele><time>2026-04-26T08:07:44Z</time></trkpt><trkpt lat="41.09248747132107" lon="9.452075898139224"><ele>18.666666666666668</ele><time>2026-04-26T08:07:45Z</time></trkpt><trkpt lat="41.09234172607601" lon="9.452162549648106"><ele>20.333333333333332</ele><time>2026-04-26T08:07:46Z</time></trkpt><trkpt lat="41.09220078608632" lon="9.452264881766519"><ele>22.0</ele><time>2026-04-26T08:07:47Z</time></trkpt><trkpt lat="41.09205957658652" lon="9.45238972479872"><ele>22.0</ele><time>2026-04-26T08:07:48Z</time></trkpt><trkpt lat="41.09191907819545" lon="9.452515654776258"><ele>22.0</ele><time>2026-04-26T08:07:49Z</time></trkpt><trkpt lat="41.091787437271726" lon="9.452651168573741"><ele>22.0</ele><time>2026-04-26T08:07:50Z</time></trkpt><trkpt lat="41.09166329025687" lon="9.452771535296057"><ele>21.75</ele><time>2026-04-26T08:07:51Z</time></trkpt><trkpt lat="41.09154126424887" lon="9.452882127348671"><ele>21.5</ele><time>2026-04-26T08:07:52Z</time></trkpt><trkpt lat="41.09142181141558" lon="9.452977224996445"><ele>21.25</ele><time>2026-04-26T08:07:53Z</time></trkpt><trkpt lat="41.091292513618846" lon="9.453058605590199"><ele>21.0</ele><time>2026-04-26T08:07:54Z</time></trkpt><trkpt lat="41.091149641727824" lon="9.45308446221657"><ele>22.0</ele><time>2026-04-26T08:07:55Z</time></trkpt><trkpt lat="41.09100982983879" lon="9.453107073846983"><ele>23.0</ele><time>2026-04-26T08:07:56Z</time></trkpt><trkpt lat="41.09086372434427" lon="9.453122203693919"><ele>24.0</ele><time>2026-04-26T08:07:57Z</time></trkpt><trkpt lat="41.090716259138055" lon="9.453156659976502"><ele>25.0</ele><time>2026-04-26T08:07:58Z</time></trkpt><trkpt lat="41.090565566367026" lon="9.45316407000734"><ele>25.0</ele><time>2026-04-26T08:07:59Z</time></trkpt><trkpt lat="41.09041488681896" lon="9.453174861455576"><ele>25.0</ele><time>2026-04-26T08:08:00Z</time></trkpt><trkpt lat="41.090262391315484" lon="9.453187242559553"><ele>25.0</ele><time>2026-04-26T08:08:01Z</time></trkpt><trkpt lat="41.090111056178785" lon="9.453198074891933"><ele>25.0</ele><time>2026-04-26T08:08:02Z</time></trkpt><trkpt lat="41.08995313373766" lon="9.453211525711957"><ele>25.0</ele><time>2026-04-26T08:08:03Z</time></trkpt><trkpt lat="41.089795434563364" lon="9.453226734452452"><ele>25.0</ele><time>2026-04-26T08:08:04Z</time></trkpt><trkpt lat="41.089636060896325" lon="9.45325836915943"><ele>23.333333333333336</ele><time>2026-04-26T08:08:05Z</time></trkpt><trkpt lat="41.089476335943125" lon="9.453320585750552"><ele>21.666666666666668</ele><time>2026-04-26T08:08:06Z</time></trkpt><trkpt lat="41.08932063923952" lon="9.453411517569993"><ele>20.0</ele><time>2026-04-26T08:08:07Z</time></trkpt><trkpt lat="41.08916774874178" lon="9.453506919562919"><ele>18.333333333333336</ele><time>2026-04-26T08:08:08Z</time></trkpt><trkpt lat="41.089016063355665" lon="9.453603943958065"><ele>16.666666666666668</ele><time>2026-04-26T08:08:09Z</time></trkpt><trkpt lat="41.088869810177464" lon="9.453698441362908"><ele>15.0</ele><time>2026-04-26T08:08:10Z</time></trkpt><trkpt lat="41.088725713815705" lon="9.453784142247198"><ele>16.0</ele><time>2026-04-26T08:08:11Z</time></trkpt><trkpt lat="41.08858506873302" lon="9.453862991315434"><ele>17.0</ele><time>2026-04-26T08:08:12Z</time></trkpt><trkpt lat="41.08844511012465" lon="9.453933287696513"><ele>18.0</ele><time>2026-04-26T08:08:13Z</time></trkpt><trkpt lat="41.08830348983059" lon="9.453984968065038"><ele>19.0</ele><time>2026-04-26T08:08:14Z</time></trkpt><trkpt lat="41.088158001395385" lon="9.453977047373685"><ele>19.666666666666664</ele><time>2026-04-26T08:08:15Z</time></trkpt><trkpt lat="41.08801047093886" lon="9.4539585570136"><ele>20.333333333333332</ele><time>2026-04-26T08:08:16Z</time></trkpt><trkpt lat="41.08786093662286" lon="9.453907712153194"><ele>21.0</ele><time>2026-04-26T08:08:17Z</time></trkpt><trkpt lat="41.0877135737934" lon="9.453826861047965"><ele>21.0</ele><time>2026-04-26T08:08:18Z</time></trkpt><trkpt lat="41.08756374284079" lon="9.453736084800664"><ele>21.0</ele><time>2026-04-26T08:08:19Z</time></trkpt><trkpt lat="41.08741160851768" lon="9.453641127879694"><ele>21.0</ele><time>2026-04-26T08:08:20Z</time></trkpt><trkpt lat="41.08725170682216" lon="9.453565228314336"><ele>21.0</ele><time>2026-04-26T08:08:21Z</time></trkpt><trkpt lat="41.08711245508691" lon="9.453469154969643"><ele>21.0</ele><time>2026-04-26T08:08:22Z</time></trkpt><trkpt lat="41.08697641461786" lon="9.453385373029635"><ele>21.0</ele><time>2026-04-26T08:08:23Z</time></trkpt><trkpt lat="41.08684069231231" lon="9.453304317669609"><ele>21.0</ele><time>2026-04-26T08:08:24Z</time></trkpt><trkpt lat="41.086700428398146" lon="9.453240609332795"><ele>21.0</ele><time>2026-04-26T08:08:25Z</time></trkpt><trkpt lat="41.08655259003622" lon="9.453209089082295"><ele>21.0</ele><time>2026-04-26T08:08:26Z</time></trkpt><trkpt lat="41.08640092213125" lon="9.453213735697645"><ele>21.0</ele><time>2026-04-26T08:08:27Z</time></trkpt><trkpt lat="41.086251362839576" lon="9.453254344258372"><ele>21.0</ele><time>2026-04-26T08:08:28Z</time></trkpt><trkpt lat="41.08610679810965" lon="9.45333468136907"><ele>21.0</ele><time>2026-04-26T08:08:29Z</time></trkpt><trkpt lat="41.08597723880467" lon="9.453418140728044"><ele>21.0</ele><time>2026-04-26T08:08:30Z</time></trkpt><trkpt lat="41.085857452984676" lon="9.4535101584696"><ele>21.0</ele><time>2026-04-26T08:08:31Z</time></trkpt><trkpt lat="41.08574920202316" lon="9.453639867741986"><ele>21.0</ele><time>2026-04-26T08:08:32Z</time></trkpt><trkpt lat="41.08566139822279" lon="9.453774434951297"><ele>21.0</ele><time>2026-04-26T08:08:33Z</time></trkpt><trkpt lat="41.08559408511904" lon="9.453911650947077"><ele>20.400000000000002</ele><time>2026-04-26T08:08:34Z</time></trkpt><trkpt lat="41.08554151010708" lon="9.45405124943341"><ele>19.8</ele><time>2026-04-26T08:08:35Z</time></trkpt><trkpt lat="41.085492050261564" lon="9.454172976506388"><ele>19.200000000000003</ele><time>2026-04-26T08:08:36Z</time></trkpt><trkpt lat="41.08543455007083" lon="9.454253920582179"><ele>18.6</ele><time>2026-04-26T08:08:37Z</time></trkpt><trkpt lat="41.08535688756493" lon="9.454290315046597"><ele>18.0</ele><time>2026-04-26T08:08:38Z</time></trkpt><trkpt lat="41.08526043123814" lon="9.454286244681542"><ele>18.0</ele><time>2026-04-26T08:08:39Z</time></trkpt><trkpt lat="41.08516373835759" lon="9.454202672553022"><ele>18.0</ele><time>2026-04-26T08:08:40Z</time></trkpt><trkpt lat="41.0850533005891" lon="9.454109898276542"><ele>18.0</ele><time>2026-04-26T08:08:41Z</time></trkpt><trkpt lat="41.084930093094044" lon="9.454010997379763"><ele>18.0</ele><time>2026-04-26T08:08:42Z</time></trkpt><trkpt lat="41.084795453190765" lon="9.45392611498349"><ele>16.333333333333332</ele><time>2026-04-26T08:08:43Z</time></trkpt><trkpt lat="41.08466281400171" lon="9.453815875122293"><ele>14.666666666666666</ele><time>2026-04-26T08:08:44Z</time></trkpt><trkpt lat="41.084520693383894" lon="9.45370625722263"><ele>13.0</ele><time>2026-04-26T08:08:45Z</time></trkpt><trkpt lat="41.08437178057087" lon="9.453587133688922"><ele>13.0</ele><time>2026-04-26T08:08:46Z</time></trkpt><trkpt lat="41.084223083659666" lon="9.453470741841027"><ele>13.0</ele><time>2026-04-26T08:08:47Z</time></trkpt><trkpt lat="41.08408424986915" lon="9.453357250097186"><ele>13.0</ele><time>2026-04-26T08:08:48Z</time></trkpt><trkpt lat="41.08397088323842" lon="9.453213174558405"><ele>11.666666666666666</ele><time>2026-04-26T08:08:49Z</time></trkpt><trkpt lat="41.08385908643999" lon="9.453050723743239"><ele>10.333333333333332</ele><time>2026-04-26T08:08:50Z</time></trkpt><trkpt lat="41.08375031262447" lon="9.452858511092922"><ele>9.0</ele><time>2026-04-26T08:08:51Z</time></trkpt><trkpt lat="41.08364298102995" lon="9.452632379944227"><ele>9.0</ele><time>2026-04-26T08:08:52Z</time></trkpt><trkpt lat="41.08354847761151" lon="9.45237701785695"><ele>9.0</ele><time>2026-04-26T08:08:53Z</time></trkpt><trkpt lat="41.08345428158987" lon="9.452102918596957"><ele>9.0</ele><time>2026-04-26T08:08:54Z</time></trkpt><trkpt lat="41.083362703885975" lon="9.451826213705914"><ele>8.0</ele><time>2026-04-26T08:08:55Z</time></trkpt><trkpt lat="41.08327603795931" lon="9.45156434995377"><ele>7.0</ele><time>2026-04-26T08:08:56Z</time></trkpt><trkpt lat="41.08319162392588" lon="9.451311752882877"><ele>6.0</ele><time>2026-04-26T08:08:57Z</time></trkpt><trkpt lat="41.08310585750158" lon="9.45105850490502"><ele>5.0</ele><time>2026-04-26T08:08:58Z</time></trkpt><trkpt lat="41.083021991703525" lon="9.450810869064265"><ele>4.0</ele><time>2026-04-26T08:08:59Z</time></trkpt><trkpt lat="41.08294293187542" lon="9.450576577968882"><ele>3.0</ele><time>2026-04-26T08:09:00Z</time></trkpt><trkpt lat="41.08286664811834" lon="9.450350255708507"><ele>3.0</ele><time>2026-04-26T08:09:01Z</time></trkpt><trkpt lat="41.08279555095865" lon="9.450135837056484"><ele>3.0</ele><time>2026-04-26T08:09:02Z</time></trkpt><trkpt lat="41.08273528647065" lon="9.449933737522162"><ele>3.0</ele><time>2026-04-26T08:09:03Z</time></trkpt><trkpt lat="41.08268758688786" lon="9.449750058658992"><ele>2.6666666666666665</ele><time>2026-04-26T08:09:04Z</time></trkpt><trkpt lat="41.0826575091889" lon="9.449551247854016"><ele>2.333333333333333</ele><time>2026-04-26T08:09:05Z</time></trkpt><trkpt lat="41.08264260340809" lon="9.449323908073712"><ele>2.0</ele><time>2026-04-26T08:09:06Z</time></trkpt><trkpt lat="41.082635335784765" lon="9.449063104924456"><ele>2.0</ele><time>2026-04-26T08:09:07Z</time></trkpt><trkpt lat="41.082626160550326" lon="9.44880182711578"><ele>2.0</ele><time>2026-04-26T08:09:08Z</time></trkpt><trkpt lat="41.0826150312902" lon="9.448571034466232"><ele>2.0</ele><time>2026-04-26T08:09:09Z</time></trkpt><trkpt lat="41.082609158319414" lon="9.448370162408255"><ele>2.0</ele><time>2026-04-26T08:09:10Z</time></trkpt><trkpt lat="41.082617832025136" lon="9.448200638936946"><ele>2.0</ele><time>2026-04-26T08:09:11Z</time></trkpt><trkpt lat="41.08265110848718" lon="9.448036976499656"><ele>2.0</ele><time>2026-04-26T08:09:12Z</time></trkpt><trkpt lat="41.0827142614195" lon="9.447886428490278"><ele>2.0</ele><time>2026-04-26T08:09:13Z</time></trkpt><trkpt lat="41.08278781606649" lon="9.447716870991265"><ele>2.0</ele><time>2026-04-26T08:09:14Z</time></trkpt><trkpt lat="41.082871850962" lon="9.447530363929639"><ele>2.0</ele><time>2026-04-26T08:09:15Z</time></trkpt><trkpt lat="41.082946847073025" lon="9.44733593437555"><ele>2.0</ele><time>2026-04-26T08:09:16Z</time></trkpt><trkpt lat="41.08301938689997" lon="9.447167183501719"><ele>2.0</ele><time>2026-04-26T08:09:17Z</time></trkpt><trkpt lat="41.08307876815926" lon="9.447001857438673"><ele>2.0</ele><time>2026-04-26T08:09:18Z</time></trkpt><trkpt lat="41.08312102303929" lon="9.446830985778604"><ele>2.0</ele><time>2026-04-26T08:09:19Z</time></trkpt><trkpt lat="41.083138616020754" lon="9.446643059117406"><ele>2.0</ele><time>2026-04-26T08:09:20Z</time></trkpt><trkpt lat="41.08313985411329" lon="9.446446329446564"><ele>2.6666666666666665</ele><time>2026-04-26T08:09:21Z</time></trkpt><trkpt lat="41.083129301269395" lon="9.446243556537636"><ele>3.333333333333333</ele><time>2026-04-26T08:09:22Z</time></trkpt><trkpt lat="41.08311734692289" lon="9.446038058237082"><ele>4.0</ele><time>2026-04-26T08:09:23Z</time></trkpt><trkpt lat="41.08312475539204" lon="9.445831969866404"><ele>4.0</ele><time>2026-04-26T08:09:24Z</time></trkpt><trkpt lat="41.08311580531449" lon="9.445622166953086"><ele>4.0</ele><time>2026-04-26T08:09:25Z</time></trkpt><trkpt lat="41.083106866307666" lon="9.445412623705806"><ele>4.0</ele><time>2026-04-26T08:09:26Z</time></trkpt><trkpt lat="41.08309725001622" lon="9.445201201845292"><ele>4.0</ele><time>2026-04-26T08:09:27Z</time></trkpt><trkpt lat="41.083073256615485" lon="9.444994923993551"><ele>4.0</ele><time>2026-04-26T08:09:28Z</time></trkpt><trkpt lat="41.08306163241859" lon="9.444789179288398"><ele>4.0</ele><time>2026-04-26T08:09:29Z</time></trkpt><trkpt lat="41.0830531367303" lon="9.444582665274734"><ele>3.5</ele><time>2026-04-26T08:09:30Z</time></trkpt><trkpt lat="41.083044462496005" lon="9.444383840981834"><ele>3.0</ele><time>2026-04-26T08:09:31Z</time></trkpt><trkpt lat="41.08304113403786" lon="9.444197394921332"><ele>2.5</ele><time>2026-04-26T08:09:32Z</time></trkpt><trkpt lat="41.083044702769826" lon="9.444013241200421"><ele>2.0</ele><time>2026-04-26T08:09:33Z</time></trkpt><trkpt lat="41.08308277024972" lon="9.44383361640068"><ele>2.0</ele><time>2026-04-26T08:09:34Z</time></trkpt><trkpt lat="41.083121741236766" lon="9.443654548192969"><ele>2.0</ele><time>2026-04-26T08:09:35Z</time></trkpt><trkpt lat="41.083178571183986" lon="9.443483733413911"><ele>2.0</ele><time>2026-04-26T08:09:36Z</time></trkpt><trkpt lat="41.08325774480658" lon="9.443325966259371"><ele>2.0</ele><time>2026-04-26T08:09:37Z</time></trkpt><trkpt lat="41.08335559631957" lon="9.443178309518114"><ele>2.0</ele><time>2026-04-26T08:09:38Z</time></trkpt><trkpt lat="41.08346730538084" lon="9.443037995482458"><ele>2.0</ele><time>2026-04-26T08:09:39Z</time></trkpt><trkpt lat="41.08358102352275" lon="9.442897290386426"><ele>2.0</ele><time>2026-04-26T08:09:40Z</time></trkpt><trkpt lat="41.08369624677623" lon="9.442741304712527"><ele>2.0</ele><time>2026-04-26T08:09:41Z</time></trkpt><trkpt lat="41.08381863556213" lon="9.44260100870999"><ele>2.0</ele><time>2026-04-26T08:09:42Z</time></trkpt><trkpt lat="41.08393287265188" lon="9.442466909153941"><ele>2.0</ele><time>2026-04-26T08:09:43Z</time></trkpt><trkpt lat="41.084039766884686" lon="9.442337813281297"><ele>2.5</ele><time>2026-04-26T08:09:44Z</time></trkpt><trkpt lat="41.08412868786996" lon="9.442202980317317"><ele>3.0</ele><time>2026-04-26T08:09:45Z</time></trkpt><trkpt lat="41.08420365393063" lon="9.442043061651036"><ele>3.5</ele><time>2026-04-26T08:09:46Z</time></trkpt><trkpt lat="41.08425534626518" lon="9.441867830313912"><ele>4.0</ele><time>2026-04-26T08:09:47Z</time></trkpt><trkpt lat="41.08428331095471" lon="9.441677021613112"><ele>4.0</ele><time>2026-04-26T08:09:48Z</time></trkpt><trkpt lat="41.08429120013668" lon="9.44148113604485"><ele>4.0</ele><time>2026-04-26T08:09:49Z</time></trkpt><trkpt lat="41.08429116444859" lon="9.44128559214008"><ele>4.0</ele><time>2026-04-26T08:09:50Z</time></trkpt><trkpt lat="41.084293126715444" lon="9.441083145869623"><ele>4.0</ele><time>2026-04-26T08:09:51Z</time></trkpt><trkpt lat="41.084297963620465" lon="9.440856826120635"><ele>4.0</ele><time>2026-04-26T08:09:52Z</time></trkpt><trkpt lat="41.084304733834" lon="9.440626521115014"><ele>4.0</ele><time>2026-04-26T08:09:53Z</time></trkpt><trkpt lat="41.084315361866835" lon="9.440406096561258"><ele>4.0</ele><time>2026-04-26T08:09:54Z</time></trkpt><trkpt lat="41.084327958046934" lon="9.440182618710798"><ele>4.666666666666666</ele><time>2026-04-26T08:09:55Z</time></trkpt><trkpt lat="41.08436086906783" lon="9.439958676348665"><ele>5.333333333333333</ele><time>2026-04-26T08:09:56Z</time></trkpt><trkpt lat="41.08438109626332" lon="9.439731895482918"><ele>6.0</ele><time>2026-04-26T08:09:57Z</time></trkpt><trkpt lat="41.0844019230666" lon="9.439505996442826"><ele>6.0</ele><time>2026-04-26T08:09:58Z</time></trkpt><trkpt lat="41.084409912750644" lon="9.439270889022835"><ele>6.0</ele><time>2026-04-26T08:09:59Z</time></trkpt><trkpt lat="41.08443101138184" lon="9.439039813060532"><ele>6.0</ele><time>2026-04-26T08:10:00Z</time></trkpt><trkpt lat="41.0844510509254" lon="9.438807897165958"><ele>6.333333333333334</ele><time>2026-04-26T08:10:01Z</time></trkpt><trkpt lat="41.08447146599043" lon="9.438574268009956"><ele>6.666666666666667</ele><time>2026-04-26T08:10:02Z</time></trkpt><trkpt lat="41.08449318935632" lon="9.438341172094226"><ele>7.0</ele><time>2026-04-26T08:10:03Z</time></trkpt><trkpt lat="41.084514488671445" lon="9.438104095324531"><ele>7.666666666666667</ele><time>2026-04-26T08:10:04Z</time></trkpt><trkpt lat="41.08453876394889" lon="9.437867025265302"><ele>8.333333333333334</ele><time>2026-04-26T08:10:04.999Z</time></trkpt><trkpt lat="41.08456257747661" lon="9.437622147631101"><ele>9.0</ele><time>2026-04-26T08:10:05.999Z</time></trkpt><trkpt lat="41.08458757495154" lon="9.437375271734542"><ele>8.666666666666666</ele><time>2026-04-26T08:10:06.999Z</time></trkpt><trkpt lat="41.08461054661999" lon="9.437115065673012"><ele>8.333333333333332</ele><time>2026-04-26T08:10:07.999Z</time></trkpt><trkpt lat="41.08463464300976" lon="9.436839124958587"><ele>8.0</ele><time>2026-04-26T08:10:08.999Z</time></trkpt><trkpt lat="41.08465762056536" lon="9.436586486366535"><ele>8.0</ele><time>2026-04-26T08:10:09.999Z</time></trkpt><trkpt lat="41.08467887476434" lon="9.436348510438368"><ele>8.0</ele><time>2026-04-26T08:10:11Z</time></trkpt><trkpt lat="41.08470108529708" lon="9.436109348974364"><ele>8.0</ele><time>2026-04-26T08:10:12Z</time></trkpt><trkpt lat="41.084720828388356" lon="9.43587228291606"><ele>8.333333333333332</ele><time>2026-04-26T08:10:13Z</time></trkpt><trkpt lat="41.084742079169686" lon="9.435632361029725"><ele>8.666666666666666</ele><time>2026-04-26T08:10:14Z</time></trkpt><trkpt lat="41.084763095804114" lon="9.435402680396674"><ele>9.0</ele><time>2026-04-26T08:10:15Z</time></trkpt><trkpt lat="41.084780624138006" lon="9.435192568209457"><ele>9.5</ele><time>2026-04-26T08:10:16Z</time></trkpt><trkpt lat="41.08479836158759" lon="9.434994291192373"><ele>10.0</ele><time>2026-04-26T08:10:17Z</time></trkpt><trkpt lat="41.084816865468966" lon="9.434810334809246"><ele>10.5</ele><time>2026-04-26T08:10:18Z</time></trkpt><trkpt lat="41.08483952743104" lon="9.434638160641324"><ele>11.0</ele><time>2026-04-26T08:10:19Z</time></trkpt><trkpt lat="41.084871529663246" lon="9.434479174584078"><ele>11.5</ele><time>2026-04-26T08:10:20Z</time></trkpt><trkpt lat="41.08489567245809" lon="9.434350208309924"><ele>12.0</ele><time>2026-04-26T08:10:21Z</time></trkpt><trkpt lat="41.08490428670358" lon="9.43425901116549"><ele>12.5</ele><time>2026-04-26T08:10:22Z</time></trkpt><trkpt lat="41.08511579791821" lon="9.434186374836827"><ele>13.0</ele><time>2026-04-26T08:10:24Z</time></trkpt><trkpt lat="41.085223535264525" lon="9.434170517581538"><ele>13.0</ele><time>2026-04-26T08:10:25Z</time></trkpt><trkpt lat="41.085349632110926" lon="9.434159535829673"><ele>13.0</ele><time>2026-04-26T08:10:26Z</time></trkpt><trkpt lat="41.08548813735" lon="9.43414725688498"><ele>13.0</ele><time>2026-04-26T08:10:27Z</time></trkpt><trkpt lat="41.085638214064915" lon="9.434133321340889"><ele>13.0</ele><time>2026-04-26T08:10:28Z</time></trkpt><trkpt lat="41.085797962306245" lon="9.434118439453034"><ele>13.333333333333332</ele><time>2026-04-26T08:10:29Z</time></trkpt><trkpt lat="41.08596662065245" lon="9.434104276735905"><ele>13.666666666666668</ele><time>2026-04-26T08:10:30Z</time></trkpt><trkpt lat="41.08614093929781" lon="9.434089689250163"><ele>14.0</ele><time>2026-04-26T08:10:31Z</time></trkpt><trkpt lat="41.08632310424528" lon="9.43407237292488"><ele>14.0</ele><time>2026-04-26T08:10:32Z</time></trkpt><trkpt lat="41.08651465480872" lon="9.434052680415311"><ele>14.0</ele><time>2026-04-26T08:10:33Z</time></trkpt><trkpt lat="41.086715953523694" lon="9.434032153372785"><ele>14.0</ele><time>2026-04-26T08:10:34Z</time></trkpt><trkpt lat="41.08691935029654" lon="9.434013528132436"><ele>13.0</ele><time>2026-04-26T08:10:35Z</time></trkpt><trkpt lat="41.087117565985615" lon="9.434003198641427"><ele>12.0</ele><time>2026-04-26T08:10:36Z</time></trkpt><trkpt lat="41.0873062558934" lon="9.434007601513258"><ele>11.0</ele><time>2026-04-26T08:10:37Z</time></trkpt><trkpt lat="41.08749172939235" lon="9.434035584286482"><ele>11.0</ele><time>2026-04-26T08:10:38Z</time></trkpt><trkpt lat="41.087674859944954" lon="9.43408980380622"><ele>11.0</ele><time>2026-04-26T08:10:39Z</time></trkpt><trkpt lat="41.087853890048535" lon="9.434168685977767"><ele>11.0</ele><time>2026-04-26T08:10:40Z</time></trkpt><trkpt lat="41.08802877372033" lon="9.434269258815487"><ele>11.0</ele><time>2026-04-26T08:10:41Z</time></trkpt><trkpt lat="41.08820365784086" lon="9.434379906728386"><ele>11.0</ele><time>2026-04-26T08:10:42Z</time></trkpt><trkpt lat="41.08837831682181" lon="9.4344964452735"><ele>11.0</ele><time>2026-04-26T08:10:43Z</time></trkpt><trkpt lat="41.08855400721088" lon="9.434613403408575"><ele>10.0</ele><time>2026-04-26T08:10:44Z</time></trkpt><trkpt lat="41.08873169291164" lon="9.434729832436785"><ele>9.0</ele><time>2026-04-26T08:10:45Z</time></trkpt><trkpt lat="41.08890961153031" lon="9.43484296863687"><ele>8.0</ele><time>2026-04-26T08:10:46Z</time></trkpt><trkpt lat="41.08908886111874" lon="9.43495502249306"><ele>9.666666666666666</ele><time>2026-04-26T08:10:47Z</time></trkpt><trkpt lat="41.08926864764992" lon="9.435062875669763"><ele>11.333333333333332</ele><time>2026-04-26T08:10:48Z</time></trkpt><trkpt lat="41.08945025965981" lon="9.435161602664778"><ele>13.0</ele><time>2026-04-26T08:10:49Z</time></trkpt><trkpt lat="41.089634574332855" lon="9.435246357680123"><ele>13.0</ele><time>2026-04-26T08:10:50Z</time></trkpt><trkpt lat="41.089824055994654" lon="9.43532391260716"><ele>13.0</ele><time>2026-04-26T08:10:51Z</time></trkpt><trkpt lat="41.09001401235404" lon="9.43539782098872"><ele>13.0</ele><time>2026-04-26T08:10:52Z</time></trkpt><trkpt lat="41.09020587329695" lon="9.435471518805386"><ele>13.0</ele><time>2026-04-26T08:10:53Z</time></trkpt><trkpt lat="41.09039584455994" lon="9.435542888732098"><ele>13.0</ele><time>2026-04-26T08:10:54Z</time></trkpt><trkpt lat="41.09058798617242" lon="9.435615044004804"><ele>13.0</ele><time>2026-04-26T08:10:55Z</time></trkpt><trkpt lat="41.09078058255674" lon="9.43568664593604"><ele>13.0</ele><time>2026-04-26T08:10:56Z</time></trkpt><trkpt lat="41.09097400564118" lon="9.435760169088093"><ele>13.0</ele><time>2026-04-26T08:10:57Z</time></trkpt><trkpt lat="41.091167713067215" lon="9.435832813025025"><ele>13.0</ele><time>2026-04-26T08:10:58Z</time></trkpt><trkpt lat="41.091362482223914" lon="9.43590539117415"><ele>13.0</ele><time>2026-04-26T08:10:59Z</time></trkpt><trkpt lat="41.091556804646544" lon="9.435975307029857"><ele>13.0</ele><time>2026-04-26T08:11:00Z</time></trkpt><trkpt lat="41.091750413839364" lon="9.436047170016849"><ele>13.0</ele><time>2026-04-26T08:11:01Z</time></trkpt><trkpt lat="41.09194768194221" lon="9.436120734221245"><ele>12.666666666666666</ele><time>2026-04-26T08:11:02Z</time></trkpt><trkpt lat="41.09214152668231" lon="9.436195318331935"><ele>12.333333333333332</ele><time>2026-04-26T08:11:03Z</time></trkpt><trkpt lat="41.092337937370225" lon="9.436270684748777"><ele>12.0</ele><time>2026-04-26T08:11:04Z</time></trkpt><trkpt lat="41.09253333251916" lon="9.436347250804452"><ele>12.0</ele><time>2026-04-26T08:11:05Z</time></trkpt><trkpt lat="41.092728520737495" lon="9.436422576827374"><ele>12.0</ele><time>2026-04-26T08:11:06Z</time></trkpt><trkpt lat="41.09291930271941" lon="9.436497251763951"><ele>12.0</ele><time>2026-04-26T08:11:07Z</time></trkpt><trkpt lat="41.09311317825662" lon="9.436568071718208"><ele>13.0</ele><time>2026-04-26T08:11:08Z</time></trkpt><trkpt lat="41.0933066012551" lon="9.43663320453425"><ele>14.0</ele><time>2026-04-26T08:11:09Z</time></trkpt><trkpt lat="41.093499588005834" lon="9.436691391482753"><ele>15.0</ele><time>2026-04-26T08:11:10Z</time></trkpt><trkpt lat="41.09369413846749" lon="9.436741428033109"><ele>15.0</ele><time>2026-04-26T08:11:11Z</time></trkpt><trkpt lat="41.09388793897398" lon="9.436777094482816"><ele>15.0</ele><time>2026-04-26T08:11:12Z</time></trkpt><trkpt lat="41.094084210731076" lon="9.436800559492626"><ele>15.0</ele><time>2026-04-26T08:11:13Z</time></trkpt><trkpt lat="41.09428062793098" lon="9.436814832329503"><ele>14.666666666666668</ele><time>2026-04-26T08:11:14Z</time></trkpt><trkpt lat="41.094475426562624" lon="9.436817686320767"><ele>14.333333333333334</ele><time>2026-04-26T08:11:15Z</time></trkpt><trkpt lat="41.094674185961914" lon="9.436810134320206"><ele>14.0</ele><time>2026-04-26T08:11:16Z</time></trkpt><trkpt lat="41.09487180934421" lon="9.43679406612116"><ele>13.0</ele><time>2026-04-26T08:11:17Z</time></trkpt><trkpt lat="41.09507014158766" lon="9.436773174011343"><ele>12.0</ele><time>2026-04-26T08:11:18Z</time></trkpt><trkpt lat="41.095270919411234" lon="9.436754044568287"><ele>11.0</ele><time>2026-04-26T08:11:19Z</time></trkpt><trkpt lat="41.09546989797151" lon="9.436736695858093"><ele>11.0</ele><time>2026-04-26T08:11:20Z</time></trkpt><trkpt lat="41.09566983958038" lon="9.436718416040986"><ele>11.0</ele><time>2026-04-26T08:11:21Z</time></trkpt><trkpt lat="41.095869613749976" lon="9.436699516505453"><ele>11.0</ele><time>2026-04-26T08:11:22Z</time></trkpt><trkpt lat="41.096070226858465" lon="9.436682173216582"><ele>11.333333333333332</ele><time>2026-04-26T08:11:23Z</time></trkpt><trkpt lat="41.09626857697954" lon="9.43666264339871"><ele>11.666666666666666</ele><time>2026-04-26T08:11:24Z</time></trkpt><trkpt lat="41.096469231026276" lon="9.436640903025568"><ele>12.0</ele><time>2026-04-26T08:11:25Z</time></trkpt><trkpt lat="41.09666854977683" lon="9.436619085379164"><ele>11.333333333333334</ele><time>2026-04-26T08:11:26Z</time></trkpt><trkpt lat="41.09686863831033" lon="9.436598937486007"><ele>10.666666666666668</ele><time>2026-04-26T08:11:27Z</time></trkpt><trkpt lat="41.097069476589176" lon="9.436577238448624"><ele>10.0</ele><time>2026-04-26T08:11:28Z</time></trkpt><trkpt lat="41.09727137395154" lon="9.436565340275013"><ele>10.333333333333334</ele><time>2026-04-26T08:11:29Z</time></trkpt><trkpt lat="41.097473562782454" lon="9.436565139517297"><ele>10.666666666666666</ele><time>2026-04-26T08:11:30Z</time></trkpt><trkpt lat="41.09767580896406" lon="9.436578960747363"><ele>11.0</ele><time>2026-04-26T08:11:31Z</time></trkpt><trkpt lat="41.0978773313852" lon="9.436604601797843"><ele>11.0</ele><time>2026-04-26T08:11:32Z</time></trkpt><trkpt lat="41.09807710682353" lon="9.436646779344995"><ele>11.0</ele><time>2026-04-26T08:11:33Z</time></trkpt><trkpt lat="41.09827377373765" lon="9.436706520994194"><ele>11.0</ele><time>2026-04-26T08:11:34Z</time></trkpt><trkpt lat="41.098471825325134" lon="9.43677399141851"><ele>10.666666666666666</ele><time>2026-04-26T08:11:35Z</time></trkpt><trkpt lat="41.09866785961429" lon="9.43683978883854"><ele>10.333333333333334</ele><time>2026-04-26T08:11:36Z</time></trkpt><trkpt lat="41.098862774116704" lon="9.436902337062493"><ele>10.0</ele><time>2026-04-26T08:11:37Z</time></trkpt><trkpt lat="41.099059463065686" lon="9.436962836443834"><ele>9.333333333333334</ele><time>2026-04-26T08:11:38Z</time></trkpt><trkpt lat="41.09925991854117" lon="9.437025051290373"><ele>8.666666666666666</ele><time>2026-04-26T08:11:39Z</time></trkpt><trkpt lat="41.0994773884301" lon="9.437092074653833"><ele>8.0</ele><time>2026-04-26T08:11:40Z</time></trkpt><trkpt lat="41.099707988774746" lon="9.437162501138308"><ele>8.5</ele><time>2026-04-26T08:11:41Z</time></trkpt><trkpt lat="41.09993603505948" lon="9.437234285565157"><ele>9.0</ele><time>2026-04-26T08:11:42Z</time></trkpt><trkpt lat="41.10014601564867" lon="9.437302745209179"><ele>9.0</ele><time>2026-04-26T08:11:43Z</time></trkpt><trkpt lat="41.10034984633064" lon="9.43736602735335"><ele>9.0</ele><time>2026-04-26T08:11:44Z</time></trkpt><trkpt lat="41.10055751498743" lon="9.43742919739807"><ele>9.0</ele><time>2026-04-26T08:11:45Z</time></trkpt><trkpt lat="41.10076125416064" lon="9.437489056449095"><ele>9.666666666666666</ele><time>2026-04-26T08:11:46Z</time></trkpt><trkpt lat="41.100966564332985" lon="9.437549253176702"><ele>10.333333333333332</ele><time>2026-04-26T08:11:47Z</time></trkpt><trkpt lat="41.1011678839544" lon="9.437611177792848"><ele>11.0</ele><time>2026-04-26T08:11:48Z</time></trkpt><trkpt lat="41.10136667196787" lon="9.437668737145229"><ele>11.0</ele><time>2026-04-26T08:11:49Z</time></trkpt><trkpt lat="41.1015597111589" lon="9.437725421579662"><ele>11.0</ele><time>2026-04-26T08:11:50Z</time></trkpt><trkpt lat="41.10174473222475" lon="9.437779897679759"><ele>11.0</ele><time>2026-04-26T08:11:51Z</time></trkpt><trkpt lat="41.101925037788995" lon="9.437827739923156"><ele>9.666666666666666</ele><time>2026-04-26T08:11:52Z</time></trkpt><trkpt lat="41.10210453715099" lon="9.437876726216208"><ele>8.333333333333334</ele><time>2026-04-26T08:11:53Z</time></trkpt><trkpt lat="41.10228334024637" lon="9.437927977566643"><ele>7.0</ele><time>2026-04-26T08:11:54Z</time></trkpt><trkpt lat="41.10245442137033" lon="9.437977208128144"><ele>7.0</ele><time>2026-04-26T08:11:55Z</time></trkpt><trkpt lat="41.10261864036712" lon="9.43802373609377"><ele>7.0</ele><time>2026-04-26T08:11:56Z</time></trkpt><trkpt lat="41.10277504231084" lon="9.438068132048144"><ele>7.0</ele><time>2026-04-26T08:11:56.999Z</time></trkpt><trkpt lat="41.10292212254506" lon="9.43810939866711"><ele>7.0</ele><time>2026-04-26T08:11:57.999Z</time></trkpt><trkpt lat="41.10305352831127" lon="9.438149935563008"><ele>7.0</ele><time>2026-04-26T08:11:58.999Z</time></trkpt><trkpt lat="41.103172720158945" lon="9.438186539287273"><ele>7.0</ele><time>2026-04-26T08:11:59.999Z</time></trkpt><trkpt lat="41.10328021278251" lon="9.438217427726523"><ele>7.0</ele><time>2026-04-26T08:12:00.999Z</time></trkpt><trkpt lat="41.10338233441677" lon="9.438240162470494"><ele>6.75</ele><time>2026-04-26T08:12:01.999Z</time></trkpt><trkpt lat="41.10349142894683" lon="9.43826273346127"><ele>6.5</ele><time>2026-04-26T08:12:02.999Z</time></trkpt><trkpt lat="41.10360705144811" lon="9.438293094799695"><ele>6.25</ele><time>2026-04-26T08:12:03.999Z</time></trkpt><trkpt lat="41.103728301463626" lon="9.438331957013062"><ele>6.0</ele><time>2026-04-26T08:12:04.999Z</time></trkpt><trkpt lat="41.10385957100704" lon="9.438372670482602"><ele>6.0</ele><time>2026-04-26T08:12:05.999Z</time></trkpt><trkpt lat="41.10399920816917" lon="9.438412644320584"><ele>6.0</ele><time>2026-04-26T08:12:06.999Z</time></trkpt><trkpt lat="41.10413716903482" lon="9.438443394511165"><ele>6.0</ele><time>2026-04-26T08:12:07.999Z</time></trkpt><trkpt lat="41.10427174739067" lon="9.438462254039328"><ele>6.0</ele><time>2026-04-26T08:12:08.999Z</time></trkpt><trkpt lat="41.10439941050586" lon="9.438470884962463"><ele>6.199999999999999</ele><time>2026-04-26T08:12:09.999Z</time></trkpt><trkpt lat="41.104517290398825" lon="9.438475185163211"><ele>6.3999999999999995</ele><time>2026-04-26T08:12:10.999Z</time></trkpt><trkpt lat="41.10462568097895" lon="9.438476104187144"><ele>6.6</ele><time>2026-04-26T08:12:11.999Z</time></trkpt><trkpt lat="41.10473082017214" lon="9.438482173690899"><ele>6.8</ele><time>2026-04-26T08:12:12.999Z</time></trkpt><trkpt lat="41.1048227852655" lon="9.438487180874196"><ele>7.0</ele><time>2026-04-26T08:12:13.999Z</time></trkpt><trkpt lat="41.10490342253533" lon="9.438492799842713"><ele>7.333333333333334</ele><time>2026-04-26T08:12:14.999Z</time></trkpt><trkpt lat="41.1049802704875" lon="9.438504317120396"><ele>7.666666666666667</ele><time>2026-04-26T08:12:15.999Z</time></trkpt><trkpt lat="41.10505099292554" lon="9.438513040188857"><ele>8.0</ele><time>2026-04-26T08:12:17Z</time></trkpt><trkpt lat="41.10512472963083" lon="9.438519897292018"><ele>8.333333333333334</ele><time>2026-04-26T08:12:18Z</time></trkpt><trkpt lat="41.105212801371245" lon="9.438527343452266"><ele>8.666666666666666</ele><time>2026-04-26T08:12:19Z</time></trkpt><trkpt lat="41.1053168423371" lon="9.438533303189761"><ele>9.0</ele><time>2026-04-26T08:12:20Z</time></trkpt><trkpt lat="41.105438173662826" lon="9.438538717889742"><ele>9.0</ele><time>2026-04-26T08:12:21Z</time></trkpt><trkpt lat="41.10557737593429" lon="9.438552196224402"><ele>9.0</ele><time>2026-04-26T08:12:22Z</time></trkpt><trkpt lat="41.10571180424383" lon="9.438560482920554"><ele>9.0</ele><time>2026-04-26T08:12:23Z</time></trkpt><trkpt lat="41.10583935454933" lon="9.438569228000384"><ele>9.0</ele><time>2026-04-26T08:12:24Z</time></trkpt><trkpt lat="41.10596138444209" lon="9.438577445089171"><ele>9.25</ele><time>2026-04-26T08:12:25Z</time></trkpt><trkpt lat="41.106076628086825" lon="9.438585389395923"><ele>9.5</ele><time>2026-04-26T08:12:26Z</time></trkpt><trkpt lat="41.10619288101612" lon="9.438596858302404"><ele>9.75</ele><time>2026-04-26T08:12:27Z</time></trkpt><trkpt lat="41.10631144968555" lon="9.438605514194826"><ele>10.0</ele><time>2026-04-26T08:12:28Z</time></trkpt><trkpt lat="41.106430834405906" lon="9.438613565119002"><ele>10.0</ele><time>2026-04-26T08:12:29Z</time></trkpt><trkpt lat="41.10655244863054" lon="9.438619439681645"><ele>10.0</ele><time>2026-04-26T08:12:30Z</time></trkpt><trkpt lat="41.10667178822548" lon="9.438625633809822"><ele>10.0</ele><time>2026-04-26T08:12:31Z</time></trkpt><trkpt lat="41.106790451650895" lon="9.43863564526602"><ele>10.0</ele><time>2026-04-26T08:12:32Z</time></trkpt><trkpt lat="41.106901699366155" lon="9.438645343740722"><ele>10.0</ele><time>2026-04-26T08:12:33Z</time></trkpt><trkpt lat="41.1070043567253" lon="9.438656985787635"><ele>10.0</ele><time>2026-04-26T08:12:34Z</time></trkpt><trkpt lat="41.10710158059099" lon="9.43866771998018"><ele>10.0</ele><time>2026-04-26T08:12:35Z</time></trkpt><trkpt lat="41.10719723376056" lon="9.438668021039165"><ele>10.0</ele><time>2026-04-26T08:12:36Z</time></trkpt><trkpt lat="41.10730639790272" lon="9.438666432900108"><ele>10.0</ele><time>2026-04-26T08:12:37Z</time></trkpt><trkpt lat="41.107411894285526" lon="9.438670867764746"><ele>9.833333333333334</ele><time>2026-04-26T08:12:38Z</time></trkpt><trkpt lat="41.10750747369176" lon="9.438678304341558"><ele>9.666666666666668</ele><time>2026-04-26T08:12:39Z</time></trkpt><trkpt lat="41.10759582982126" lon="9.438682486622877"><ele>9.5</ele><time>2026-04-26T08:12:40Z</time></trkpt><trkpt lat="41.10768590063544" lon="9.438689876357136"><ele>9.333333333333334</ele><time>2026-04-26T08:12:41Z</time></trkpt><trkpt lat="41.10776733820071" lon="9.438700372571455"><ele>9.166666666666666</ele><time>2026-04-26T08:12:42Z</time></trkpt><trkpt lat="41.10784138003641" lon="9.438712577434723"><ele>9.0</ele><time>2026-04-26T08:12:43Z</time></trkpt><trkpt lat="41.10790492504156" lon="9.438725373095375"><ele>9.0</ele><time>2026-04-26T08:12:44Z</time></trkpt><trkpt lat="41.108005428903965" lon="9.438712238063477"><ele>9.0</ele><time>2026-04-26T08:12:46Z</time></trkpt><trkpt lat="41.10799920499932" lon="9.43860404250633"><ele>9.0</ele><time>2026-04-26T08:12:48Z</time></trkpt><trkpt lat="41.107936762923195" lon="9.438574349243131"><ele>9.0</ele><time>2026-04-26T08:12:51Z</time></trkpt><trkpt lat="41.107866067259266" lon="9.438585372000981"><ele>9.0</ele><time>2026-04-26T08:13:37Z</time></trkpt><trkpt lat="41.10782040285266" lon="9.438651858918307"><ele>9.0</ele><time>2026-04-26T08:15:13Z</time></trkpt><trkpt lat="41.10775123976868" lon="9.43865298678039"><ele>9.000000000000002</ele><time>2026-04-26T08:19:08Z</time></trkpt><trkpt lat="41.10769713809587" lon="9.438602866277172"><ele>9.0</ele><time>2026-04-26T08:19:45Z</time></trkpt><trkpt lat="41.10764207942843" lon="9.438665051645604"><ele>9.0</ele><time>2026-04-26T08:22:03Z</time></trkpt><trkpt lat="41.107577215635054" lon="9.438703768715412"><ele>9.0</ele><time>2026-04-26T08:22:09Z</time></trkpt><trkpt lat="41.107498005452975" lon="9.438675963548935"><ele>9.0</ele><time>2026-04-26T08:24:36.999Z</time></trkpt><trkpt lat="41.10753839848924" lon="9.438607475399674"><ele>9.000000000000002</ele><time>2026-04-26T08:24:42.999Z</time></trkpt><trkpt lat="41.10760951581929" lon="9.438584631456106"><ele>9.0</ele><time>2026-04-26T08:24:46.999Z</time></trkpt><trkpt lat="41.107679725673336" lon="9.438578035396716"><ele>9.0</ele><time>2026-04-26T08:24:51.999Z</time></trkpt><trkpt lat="41.10774751163784" lon="9.438590643509956"><ele>9.0</ele><time>2026-04-26T08:24:57Z</time></trkpt><trkpt lat="41.107667775480415" lon="9.43861133719557"><ele>9.0</ele><time>2026-04-26T08:26:46Z</time></trkpt><trkpt lat="41.10767134427053" lon="9.438700096487578"><ele>9.0</ele><time>2026-04-26T08:26:51Z</time></trkpt><trkpt lat="41.10782898720101" lon="9.438699558002849"><ele>9.0</ele><time>2026-04-26T08:26:53Z</time></trkpt><trkpt lat="41.107928483163796" lon="9.438709463669055"><ele>9.0</ele><time>2026-04-26T08:26:54Z</time></trkpt><trkpt lat="41.10804579694536" lon="9.438743192328536"><ele>9.0</ele><time>2026-04-26T08:26:55Z</time></trkpt><trkpt lat="41.10816082687266" lon="9.438795860622578"><ele>9.0</ele><time>2026-04-26T08:26:56Z</time></trkpt><trkpt lat="41.10825619186565" lon="9.438846826942676"><ele>9.0</ele><time>2026-04-26T08:26:57Z</time></trkpt><trkpt lat="41.10834326388253" lon="9.438889599848315"><ele>9.0</ele><time>2026-04-26T08:26:58Z</time></trkpt><trkpt lat="41.10842313168008" lon="9.438926104164373"><ele>8.666666666666666</ele><time>2026-04-26T08:26:59Z</time></trkpt><trkpt lat="41.10850857165692" lon="9.438963413498861"><ele>8.333333333333334</ele><time>2026-04-26T08:27:00Z</time></trkpt><trkpt lat="41.1085925722666" lon="9.439005017969656"><ele>8.0</ele><time>2026-04-26T08:27:01Z</time></trkpt><trkpt lat="41.10867619495384" lon="9.439041696070777"><ele>7.666666666666667</ele><time>2026-04-26T08:27:02Z</time></trkpt><trkpt lat="41.108759908776626" lon="9.439078567831798"><ele>7.333333333333334</ele><time>2026-04-26T08:27:03Z</time></trkpt><trkpt lat="41.10884182893431" lon="9.439119102068956"><ele>7.0</ele><time>2026-04-26T08:27:04Z</time></trkpt><trkpt lat="41.10892495407938" lon="9.439158677283038"><ele>7.000000000000001</ele><time>2026-04-26T08:27:05Z</time></trkpt><trkpt lat="41.10900580842643" lon="9.439206948588243"><ele>7.0</ele><time>2026-04-26T08:27:06Z</time></trkpt><trkpt lat="41.10907501416522" lon="9.439271437005566"><ele>7.0</ele><time>2026-04-26T08:27:07Z</time></trkpt><trkpt lat="41.10913632521277" lon="9.439343688546726"><ele>7.0</ele><time>2026-04-26T08:27:08Z</time></trkpt><trkpt lat="41.109193097086816" lon="9.43942105146222"><ele>7.000000000000001</ele><time>2026-04-26T08:27:09Z</time></trkpt><trkpt lat="41.10924465068836" lon="9.43949489914306"><ele>7.0</ele><time>2026-04-26T08:27:10Z</time></trkpt><trkpt lat="41.10929526045113" lon="9.439560066423557"><ele>7.166666666666667</ele><time>2026-04-26T08:27:11Z</time></trkpt><trkpt lat="41.10934735748363" lon="9.439624298254895"><ele>7.333333333333334</ele><time>2026-04-26T08:27:12Z</time></trkpt><trkpt lat="41.109402582684005" lon="9.439689105417779"><ele>7.5</ele><time>2026-04-26T08:27:13Z</time></trkpt><trkpt lat="41.10946298508245" lon="9.43976534867728"><ele>7.666666666666666</ele><time>2026-04-26T08:27:14Z</time></trkpt><trkpt lat="41.10952858815432" lon="9.439849557367689"><ele>7.833333333333333</ele><time>2026-04-26T08:27:15Z</time></trkpt><trkpt lat="41.10959583477987" lon="9.439935837784393"><ele>8.0</ele><time>2026-04-26T08:27:16Z</time></trkpt><trkpt lat="41.10967027520087" lon="9.440030804653944"><ele>8.200000000000001</ele><time>2026-04-26T08:27:17Z</time></trkpt><trkpt lat="41.10974115025667" lon="9.440127438172336"><ele>8.4</ele><time>2026-04-26T08:27:18Z</time></trkpt><trkpt lat="41.10981897065209" lon="9.44022591556594"><ele>8.600000000000001</ele><time>2026-04-26T08:27:19Z</time></trkpt><trkpt lat="41.10989839403641" lon="9.440328030293966"><ele>8.8</ele><time>2026-04-26T08:27:20Z</time></trkpt><trkpt lat="41.1099766244582" lon="9.440434457587424"><ele>9.0</ele><time>2026-04-26T08:27:21Z</time></trkpt><trkpt lat="41.11005576180028" lon="9.440542316258469"><ele>8.2</ele><time>2026-04-26T08:27:22Z</time></trkpt><trkpt lat="41.11012885082497" lon="9.440639078169117"><ele>7.4</ele><time>2026-04-26T08:27:23Z</time></trkpt><trkpt lat="41.110201630158755" lon="9.440732421002958"><ele>6.6</ele><time>2026-04-26T08:27:24Z</time></trkpt><trkpt lat="41.11027111201724" lon="9.440821158278004"><ele>5.8</ele><time>2026-04-26T08:27:25Z</time></trkpt><trkpt lat="41.11033806275212" lon="9.4409050911723"><ele>5.0</ele><time>2026-04-26T08:27:26Z</time></trkpt><trkpt lat="41.11040958061093" lon="9.440993186298604"><ele>5.0</ele><time>2026-04-26T08:27:27Z</time></trkpt><trkpt lat="41.11047863505211" lon="9.441084877907272"><ele>5.0</ele><time>2026-04-26T08:27:28Z</time></trkpt><trkpt lat="41.1105495500267" lon="9.441181419395752"><ele>5.0</ele><time>2026-04-26T08:27:29Z</time></trkpt><trkpt lat="41.110616744353976" lon="9.441278393998521"><ele>5.0</ele><time>2026-04-26T08:27:30Z</time></trkpt><trkpt lat="41.11068571489476" lon="9.441381344393955"><ele>5.0</ele><time>2026-04-26T08:27:31Z</time></trkpt><trkpt lat="41.110754150145624" lon="9.441477302004461"><ele>4.6</ele><time>2026-04-26T08:27:32Z</time></trkpt><trkpt lat="41.11083081817337" lon="9.441539007602874"><ele>4.2</ele><time>2026-04-26T08:27:33Z</time></trkpt><trkpt lat="41.11090703762791" lon="9.441594308536231"><ele>3.8</ele><time>2026-04-26T08:27:34Z</time></trkpt><trkpt lat="41.110985001250874" lon="9.441640204005196"><ele>3.4</ele><time>2026-04-26T08:27:35Z</time></trkpt><trkpt lat="41.11107012281467" lon="9.441673980467831"><ele>3.0</ele><time>2026-04-26T08:27:36Z</time></trkpt><trkpt lat="41.1111756754587" lon="9.441651888263152"><ele>3.0</ele><time>2026-04-26T08:27:37Z</time></trkpt><trkpt lat="41.111274738189394" lon="9.44161918523878"><ele>3.0</ele><time>2026-04-26T08:27:38Z</time></trkpt><trkpt lat="41.111367438204844" lon="9.441592982115454"><ele>3.0</ele><time>2026-04-26T08:27:39Z</time></trkpt><trkpt lat="41.11145377841599" lon="9.441561112838327"><ele>3.0</ele><time>2026-04-26T08:27:40Z</time></trkpt><trkpt lat="41.11152785873502" lon="9.441503613872863"><ele>3.0</ele><time>2026-04-26T08:27:41Z</time></trkpt><trkpt lat="41.11157963328052" lon="9.441419965242801"><ele>2.6</ele><time>2026-04-26T08:27:42Z</time></trkpt><trkpt lat="41.111622670825255" lon="9.44131272017388"><ele>2.1999999999999997</ele><time>2026-04-26T08:27:43Z</time></trkpt><trkpt lat="41.111663648348845" lon="9.441197506324558"><ele>1.8</ele><time>2026-04-26T08:27:44Z</time></trkpt><trkpt lat="41.11171105052731" lon="9.441083955702254"><ele>1.4</ele><time>2026-04-26T08:27:45Z</time></trkpt><trkpt lat="41.11175925989065" lon="9.440982538176845"><ele>1.0</ele><time>2026-04-26T08:27:46Z</time></trkpt><trkpt lat="41.111788584834976" lon="9.440892565536675"><ele>1.8333333333333333</ele><time>2026-04-26T08:27:47Z</time></trkpt><trkpt lat="41.11181346080664" lon="9.440797542973526"><ele>2.6666666666666665</ele><time>2026-04-26T08:27:48Z</time></trkpt><trkpt lat="41.111779283644985" lon="9.440675820851949"><ele>3.5</ele><time>2026-04-26T08:27:49Z</time></trkpt><trkpt lat="41.11175694881948" lon="9.440553521933804"><ele>4.333333333333333</ele><time>2026-04-26T08:27:50Z</time></trkpt><trkpt lat="41.11173439324924" lon="9.440437881990057"><ele>5.166666666666667</ele><time>2026-04-26T08:27:51Z</time></trkpt><trkpt lat="41.11172205199446" lon="9.440344730416232"><ele>6.0</ele><time>2026-04-26T08:27:52Z</time></trkpt><trkpt lat="41.11173556349143" lon="9.440249761512417"><ele>6.0</ele><time>2026-04-26T08:27:53Z</time></trkpt><trkpt lat="41.11171689081196" lon="9.440151951400566"><ele>6.0</ele><time>2026-04-26T08:27:54Z</time></trkpt><trkpt lat="41.11171359499758" lon="9.440021654067477"><ele>6.0</ele><time>2026-04-26T08:27:55Z</time></trkpt><trkpt lat="41.11170772838289" lon="9.439882792680944"><ele>6.0</ele><time>2026-04-26T08:27:56Z</time></trkpt><trkpt lat="41.11170520607362" lon="9.439767434073232"><ele>6.0</ele><time>2026-04-26T08:27:57Z</time></trkpt><trkpt lat="41.111718515211116" lon="9.439666839702642"><ele>6.0</ele><time>2026-04-26T08:27:58Z</time></trkpt><trkpt lat="41.11176483912199" lon="9.439585065643177"><ele>6.4</ele><time>2026-04-26T08:27:59Z</time></trkpt><trkpt lat="41.11183978644365" lon="9.439513127646132"><ele>6.8</ele><time>2026-04-26T08:28:00Z</time></trkpt><trkpt lat="41.111933074325506" lon="9.439442042556342"><ele>7.200000000000001</ele><time>2026-04-26T08:28:01Z</time></trkpt><trkpt lat="41.112028665933046" lon="9.439363680419335"><ele>7.6000000000000005</ele><time>2026-04-26T08:28:02Z</time></trkpt><trkpt lat="41.11211953302138" lon="9.43928367563978"><ele>8.0</ele><time>2026-04-26T08:28:03Z</time></trkpt><trkpt lat="41.11220422696853" lon="9.439225186688292"><ele>7.999999999999999</ele><time>2026-04-26T08:28:04Z</time></trkpt><trkpt lat="41.112287218611876" lon="9.439192033358438"><ele>8.0</ele><time>2026-04-26T08:28:05Z</time></trkpt><trkpt lat="41.11236528588083" lon="9.439180107632954"><ele>8.0</ele><time>2026-04-26T08:28:06Z</time></trkpt><trkpt lat="41.11243131320239" lon="9.43917124918763"><ele>8.0</ele><time>2026-04-26T08:28:07Z</time></trkpt><trkpt lat="41.11250598809375" lon="9.439173754907783"><ele>7.999999999999999</ele><time>2026-04-26T08:28:09Z</time></trkpt><trkpt lat="41.11246782693553" lon="9.439022881342906"><ele>8.0</ele><time>2026-04-26T08:28:10Z</time></trkpt><trkpt lat="41.11250002430933" lon="9.438918298024678"><ele>7.6000000000000005</ele><time>2026-04-26T08:28:11Z</time></trkpt><trkpt lat="41.112468646748155" lon="9.438759285255646"><ele>7.200000000000001</ele><time>2026-04-26T08:28:12Z</time></trkpt><trkpt lat="41.11244221009886" lon="9.438594308393967"><ele>6.8</ele><time>2026-04-26T08:28:13Z</time></trkpt><trkpt lat="41.112428799708404" lon="9.438466825558422"><ele>6.4</ele><time>2026-04-26T08:28:14Z</time></trkpt><trkpt lat="41.11245629423068" lon="9.438389673635104"><ele>6.0</ele><time>2026-04-26T08:28:15Z</time></trkpt><trkpt lat="41.1125702160744" lon="9.43835586007216"><ele>6.0</ele><time>2026-04-26T08:28:18Z</time></trkpt><trkpt lat="41.112688775441015" lon="9.438356951526904"><ele>6.0</ele><time>2026-04-26T08:28:19Z</time></trkpt><trkpt lat="41.11284067232308" lon="9.438346138942178"><ele>6.0</ele><time>2026-04-26T08:28:20Z</time></trkpt><trkpt lat="41.11297607941708" lon="9.438358779423108"><ele>6.0</ele><time>2026-04-26T08:28:21Z</time></trkpt><trkpt lat="41.11309193481003" lon="9.438353733902938"><ele>6.0</ele><time>2026-04-26T08:28:22Z</time></trkpt><trkpt lat="41.11319363260831" lon="9.438344888540183"><ele>6.0</ele><time>2026-04-26T08:28:23Z</time></trkpt><trkpt lat="41.11328953687536" lon="9.43832079687667"><ele>6.0</ele><time>2026-04-26T08:28:24Z</time></trkpt><trkpt lat="41.1133856606733" lon="9.438257775048882"><ele>6.0</ele><time>2026-04-26T08:28:25Z</time></trkpt><trkpt lat="41.11349321761271" lon="9.438182475662918"><ele>6.0</ele><time>2026-04-26T08:28:26Z</time></trkpt><trkpt lat="41.11360026240941" lon="9.438118323881982"><ele>6.5</ele><time>2026-04-26T08:28:27Z</time></trkpt><trkpt lat="41.11370500719371" lon="9.438059946112554"><ele>7.0</ele><time>2026-04-26T08:28:28Z</time></trkpt><trkpt lat="41.113808716816436" lon="9.4379904363731"><ele>7.5</ele><time>2026-04-26T08:28:29Z</time></trkpt><trkpt lat="41.11391476020897" lon="9.437916532560635"><ele>8.0</ele><time>2026-04-26T08:28:30Z</time></trkpt><trkpt lat="41.11400693485883" lon="9.437854176420313"><ele>9.0</ele><time>2026-04-26T08:28:31Z</time></trkpt><trkpt lat="41.114079416555256" lon="9.437799281789523"><ele>10.0</ele><time>2026-04-26T08:28:32Z</time></trkpt><trkpt lat="41.11418705759707" lon="9.437754152499556"><ele>11.0</ele><time>2026-04-26T08:28:34Z</time></trkpt><trkpt lat="41.11429044855368" lon="9.437853304708577"><ele>12.0</ele><time>2026-04-26T08:28:36Z</time></trkpt><trkpt lat="41.11437074655353" lon="9.437979273648358"><ele>13.0</ele><time>2026-04-26T08:28:37Z</time></trkpt><trkpt lat="41.11446555559309" lon="9.438135847655266"><ele>13.0</ele><time>2026-04-26T08:28:38Z</time></trkpt><trkpt lat="41.114571100616786" lon="9.438300633172737"><ele>13.0</ele><time>2026-04-26T08:28:39Z</time></trkpt><trkpt lat="41.11466734219894" lon="9.43843949444124"><ele>13.0</ele><time>2026-04-26T08:28:40Z</time></trkpt><trkpt lat="41.11475388738447" lon="9.438567262288938"><ele>13.0</ele><time>2026-04-26T08:28:41Z</time></trkpt><trkpt lat="41.11483520077492" lon="9.438693150093751"><ele>12.75</ele><time>2026-04-26T08:28:42Z</time></trkpt><trkpt lat="41.11491901477613" lon="9.43881458203438"><ele>12.5</ele><time>2026-04-26T08:28:43Z</time></trkpt><trkpt lat="41.11501687407023" lon="9.438917464115862"><ele>12.25</ele><time>2026-04-26T08:28:44Z</time></trkpt><trkpt lat="41.11513000536861" lon="9.438986476663288"><ele>12.0</ele><time>2026-04-26T08:28:45Z</time></trkpt><trkpt lat="41.115254351594295" lon="9.439023551604583"><ele>12.0</ele><time>2026-04-26T08:28:46Z</time></trkpt><trkpt lat="41.11538997202452" lon="9.439043088743976"><ele>12.0</ele><time>2026-04-26T08:28:47Z</time></trkpt><trkpt lat="41.11553784432037" lon="9.439064516921144"><ele>12.0</ele><time>2026-04-26T08:28:48Z</time></trkpt><trkpt lat="41.11569368481173" lon="9.439109731506774"><ele>12.0</ele><time>2026-04-26T08:28:49Z</time></trkpt><trkpt lat="41.11585210762566" lon="9.439158629779858"><ele>12.333333333333332</ele><time>2026-04-26T08:28:50Z</time></trkpt><trkpt lat="41.1160168169177" lon="9.439194327452855"><ele>12.666666666666666</ele><time>2026-04-26T08:28:51Z</time></trkpt><trkpt lat="41.11618201756477" lon="9.439242055939605"><ele>13.0</ele><time>2026-04-26T08:28:52Z</time></trkpt><trkpt lat="41.11634812737346" lon="9.43927962182"><ele>13.0</ele><time>2026-04-26T08:28:52.999Z</time></trkpt><trkpt lat="41.11650351141875" lon="9.439324774619552"><ele>13.0</ele><time>2026-04-26T08:28:53.999Z</time></trkpt><trkpt lat="41.116648059733315" lon="9.439368982715203"><ele>13.0</ele><time>2026-04-26T08:28:54.999Z</time></trkpt><trkpt lat="41.11678429834631" lon="9.439410946786676"><ele>13.0</ele><time>2026-04-26T08:28:55.999Z</time></trkpt><trkpt lat="41.116915327657054" lon="9.439438432432022"><ele>13.600000000000001</ele><time>2026-04-26T08:28:56.999Z</time></trkpt><trkpt lat="41.117042177511905" lon="9.439460787474315"><ele>14.200000000000001</ele><time>2026-04-26T08:28:57.999Z</time></trkpt><trkpt lat="41.11715638548058" lon="9.439488280951895"><ele>14.8</ele><time>2026-04-26T08:28:58.999Z</time></trkpt><trkpt lat="41.117254926006815" lon="9.439515158808765"><ele>15.4</ele><time>2026-04-26T08:28:59.999Z</time></trkpt><trkpt lat="41.11735057091951" lon="9.439532495782027"><ele>16.0</ele><time>2026-04-26T08:29:00.999Z</time></trkpt><trkpt lat="41.11745074186823" lon="9.439552826525182"><ele>16.0</ele><time>2026-04-26T08:29:01.999Z</time></trkpt><trkpt lat="41.117566616881" lon="9.439571752136725"><ele>16.0</ele><time>2026-04-26T08:29:02.999Z</time></trkpt><trkpt lat="41.11768893970465" lon="9.439587238993228"><ele>16.0</ele><time>2026-04-26T08:29:03.999Z</time></trkpt><trkpt lat="41.117821611659856" lon="9.43960641308742"><ele>16.0</ele><time>2026-04-26T08:29:05Z</time></trkpt><trkpt lat="41.117952862731805" lon="9.439627786863854"><ele>14.25</ele><time>2026-04-26T08:29:06Z</time></trkpt><trkpt lat="41.11806350797973" lon="9.439646213505736"><ele>12.5</ele><time>2026-04-26T08:29:07Z</time></trkpt><trkpt lat="41.11816991337068" lon="9.439671354730569"><ele>10.75</ele><time>2026-04-26T08:29:08Z</time></trkpt><trkpt lat="41.11828430115471" lon="9.43970445358646"><ele>9.0</ele><time>2026-04-26T08:29:09Z</time></trkpt><trkpt lat="41.11840895595917" lon="9.439734141909128"><ele>9.0</ele><time>2026-04-26T08:29:10Z</time></trkpt><trkpt lat="41.11854409761786" lon="9.439759428483272"><ele>9.0</ele><time>2026-04-26T08:29:11Z</time></trkpt><trkpt lat="41.11867985458273" lon="9.439780202709732"><ele>9.0</ele><time>2026-04-26T08:29:12Z</time></trkpt><trkpt lat="41.11880834618243" lon="9.439791224959583"><ele>9.0</ele><time>2026-04-26T08:29:13Z</time></trkpt><trkpt lat="41.11892701023057" lon="9.439792955317404"><ele>9.0</ele><time>2026-04-26T08:29:14Z</time></trkpt><trkpt lat="41.11901995857365" lon="9.439793324315923"><ele>9.0</ele><time>2026-04-26T08:29:15Z</time></trkpt><trkpt lat="41.119096142238874" lon="9.43979875860498"><ele>9.0</ele><time>2026-04-26T08:29:16Z</time></trkpt><trkpt lat="41.119171112034614" lon="9.439799063143942"><ele>9.0</ele><time>2026-04-26T08:29:17Z</time></trkpt><trkpt lat="41.11926359674003" lon="9.439807068547365"><ele>9.0</ele><time>2026-04-26T08:29:18Z</time></trkpt><trkpt lat="41.11939186119363" lon="9.439809706568715"><ele>9.0</ele><time>2026-04-26T08:29:19Z</time></trkpt><trkpt lat="41.11954390232379" lon="9.439817724192421"><ele>9.0</ele><time>2026-04-26T08:29:20Z</time></trkpt><trkpt lat="41.11968524870653" lon="9.439796795876248"><ele>9.0</ele><time>2026-04-26T08:29:21Z</time></trkpt><trkpt lat="41.11981071076423" lon="9.439780607699605"><ele>9.0</ele><time>2026-04-26T08:29:22Z</time></trkpt><trkpt lat="41.1199218496245" lon="9.439762715326212"><ele>9.0</ele><time>2026-04-26T08:29:23Z</time></trkpt><trkpt lat="41.1200279771097" lon="9.439715180937553"><ele>9.0</ele><time>2026-04-26T08:29:24Z</time></trkpt><trkpt lat="41.12013979821867" lon="9.439641362924464"><ele>9.0</ele><time>2026-04-26T08:29:25Z</time></trkpt><trkpt lat="41.120260192779604" lon="9.439568893557142"><ele>9.0</ele><time>2026-04-26T08:29:26Z</time></trkpt><trkpt lat="41.12037722972651" lon="9.439484409099308"><ele>9.5</ele><time>2026-04-26T08:29:27Z</time></trkpt><trkpt lat="41.120500374527694" lon="9.439400525138344"><ele>10.0</ele><time>2026-04-26T08:29:28Z</time></trkpt><trkpt lat="41.12062678106891" lon="9.439321976459434"><ele>10.5</ele><time>2026-04-26T08:29:29Z</time></trkpt><trkpt lat="41.1207524971273" lon="9.439243641978049"><ele>11.0</ele><time>2026-04-26T08:29:30Z</time></trkpt><trkpt lat="41.12086915163088" lon="9.439179538700664"><ele>11.0</ele><time>2026-04-26T08:29:31Z</time></trkpt><trkpt lat="41.1209691758317" lon="9.439111371737418"><ele>11.0</ele><time>2026-04-26T08:29:32Z</time></trkpt><trkpt lat="41.12106969457552" lon="9.439040382221478"><ele>11.0</ele><time>2026-04-26T08:29:33Z</time></trkpt><trkpt lat="41.121173773536185" lon="9.438973164389397"><ele>11.0</ele><time>2026-04-26T08:29:34Z</time></trkpt><trkpt lat="41.12128043953344" lon="9.438903605202867"><ele>11.0</ele><time>2026-04-26T08:29:35Z</time></trkpt><trkpt lat="41.1213926433767" lon="9.438835282951509"><ele>11.0</ele><time>2026-04-26T08:29:36Z</time></trkpt><trkpt lat="41.12149876171388" lon="9.438762702742213"><ele>11.0</ele><time>2026-04-26T08:29:37Z</time></trkpt><trkpt lat="41.1216024491756" lon="9.438692819787036"><ele>11.0</ele><time>2026-04-26T08:29:38Z</time></trkpt><trkpt lat="41.121701018201364" lon="9.438628073829257"><ele>11.200000000000001</ele><time>2026-04-26T08:29:39Z</time></trkpt><trkpt lat="41.12178708881708" lon="9.43855598380579"><ele>11.4</ele><time>2026-04-26T08:29:40Z</time></trkpt><trkpt lat="41.12186803701777" lon="9.438498583512454"><ele>11.6</ele><time>2026-04-26T08:29:41Z</time></trkpt><trkpt lat="41.121934292815894" lon="9.438460947100145"><ele>11.8</ele><time>2026-04-26T08:29:42Z</time></trkpt><trkpt lat="41.122058407337285" lon="9.438401632949306"><ele>12.0</ele><time>2026-04-26T08:29:44Z</time></trkpt><trkpt lat="41.12213814685056" lon="9.438336353275721"><ele>12.0</ele><time>2026-04-26T08:29:45Z</time></trkpt><trkpt lat="41.12223003185253" lon="9.43826125404809"><ele>12.0</ele><time>2026-04-26T08:29:46Z</time></trkpt><trkpt lat="41.12233008267508" lon="9.438187823367338"><ele>12.0</ele><time>2026-04-26T08:29:47Z</time></trkpt><trkpt lat="41.12243816672511" lon="9.43811724629396"><ele>12.0</ele><time>2026-04-26T08:29:48Z</time></trkpt><trkpt lat="41.12255392056464" lon="9.438042793492533"><ele>12.5</ele><time>2026-04-26T08:29:49Z</time></trkpt><trkpt lat="41.12267544478542" lon="9.437967081329802"><ele>13.0</ele><time>2026-04-26T08:29:50Z</time></trkpt><trkpt lat="41.122801974711436" lon="9.437894783672919"><ele>13.5</ele><time>2026-04-26T08:29:51Z</time></trkpt><trkpt lat="41.122929800023655" lon="9.43782556878478"><ele>14.0</ele><time>2026-04-26T08:29:52Z</time></trkpt><trkpt lat="41.12304465954794" lon="9.437757531935025"><ele>14.0</ele><time>2026-04-26T08:29:53Z</time></trkpt><trkpt lat="41.123151373193295" lon="9.437693555703927"><ele>13.999999999999998</ele><time>2026-04-26T08:29:54Z</time></trkpt><trkpt lat="41.12325185913999" lon="9.43763284244135"><ele>13.999999999999998</ele><time>2026-04-26T08:29:55Z</time></trkpt><trkpt lat="41.12335067401627" lon="9.437576715368422"><ele>14.0</ele><time>2026-04-26T08:29:56Z</time></trkpt><trkpt lat="41.123451574307914" lon="9.437546345193077"><ele>14.0</ele><time>2026-04-26T08:29:57Z</time></trkpt><trkpt lat="41.123534905649485" lon="9.43748457394821"><ele>13.0</ele><time>2026-04-26T08:29:58Z</time></trkpt><trkpt lat="41.12362774756711" lon="9.437479075494403"><ele>12.0</ele><time>2026-04-26T08:29:59Z</time></trkpt><trkpt lat="41.12372740159333" lon="9.437474523273918"><ele>11.0</ele><time>2026-04-26T08:30:00Z</time></trkpt><trkpt lat="41.12385429154856" lon="9.437448365621517"><ele>10.0</ele><time>2026-04-26T08:30:01Z</time></trkpt><trkpt lat="41.12399006430525" lon="9.437439559618298"><ele>9.75</ele><time>2026-04-26T08:30:02Z</time></trkpt><trkpt lat="41.12413091990806" lon="9.437427545902032"><ele>9.5</ele><time>2026-04-26T08:30:03Z</time></trkpt><trkpt lat="41.12426633933557" lon="9.437418864570375"><ele>9.25</ele><time>2026-04-26T08:30:04Z</time></trkpt><trkpt lat="41.12439084145377" lon="9.437408268364782"><ele>9.0</ele><time>2026-04-26T08:30:05Z</time></trkpt><trkpt lat="41.124511238546766" lon="9.437399764511571"><ele>9.0</ele><time>2026-04-26T08:30:06Z</time></trkpt><trkpt lat="41.12463090220435" lon="9.437392207000578"><ele>9.0</ele><time>2026-04-26T08:30:07Z</time></trkpt><trkpt lat="41.1247475418035" lon="9.437384356814839"><ele>9.0</ele><time>2026-04-26T08:30:08Z</time></trkpt><trkpt lat="41.12486562233552" lon="9.437376643968504"><ele>9.0</ele><time>2026-04-26T08:30:09Z</time></trkpt><trkpt lat="41.12498964915635" lon="9.437369791267662"><ele>8.25</ele><time>2026-04-26T08:30:10Z</time></trkpt><trkpt lat="41.12511921728851" lon="9.437363678845719"><ele>7.5</ele><time>2026-04-26T08:30:11Z</time></trkpt><trkpt lat="41.12525280930398" lon="9.437358090359306"><ele>6.75</ele><time>2026-04-26T08:30:12Z</time></trkpt><trkpt lat="41.12539104710785" lon="9.437343171502002"><ele>6.0</ele><time>2026-04-26T08:30:13Z</time></trkpt><trkpt lat="41.12553003661776" lon="9.437327937485101"><ele>6.0</ele><time>2026-04-26T08:30:14Z</time></trkpt><trkpt lat="41.12567241654046" lon="9.437317269203023"><ele>6.0</ele><time>2026-04-26T08:30:15Z</time></trkpt><trkpt lat="41.12581209629403" lon="9.437305437066655"><ele>6.0</ele><time>2026-04-26T08:30:16Z</time></trkpt><trkpt lat="41.125950100536244" lon="9.437278050978636"><ele>6.0</ele><time>2026-04-26T08:30:17Z</time></trkpt><trkpt lat="41.12608665104323" lon="9.437246291201046"><ele>6.25</ele><time>2026-04-26T08:30:18Z</time></trkpt><trkpt lat="41.12621963178536" lon="9.437213370635263"><ele>6.5</ele><time>2026-04-26T08:30:19Z</time></trkpt><trkpt lat="41.12635600415211" lon="9.437183064873023"><ele>6.75</ele><time>2026-04-26T08:30:20Z</time></trkpt><trkpt lat="41.12649249883708" lon="9.437155515865548"><ele>7.0</ele><time>2026-04-26T08:30:21Z</time></trkpt><trkpt lat="41.12661966313648" lon="9.437127949053991"><ele>7.0</ele><time>2026-04-26T08:30:22Z</time></trkpt><trkpt lat="41.12671870453672" lon="9.437108315129006"><ele>6.999999999999999</ele><time>2026-04-26T08:30:23Z</time></trkpt><trkpt lat="41.12680598929023" lon="9.437093963770797"><ele>6.999999999999999</ele><time>2026-04-26T08:30:24Z</time></trkpt><trkpt lat="41.12689389209278" lon="9.437099984741373"><ele>7.0</ele><time>2026-04-26T08:30:26Z</time></trkpt><trkpt lat="41.12699574192356" lon="9.437053414640596"><ele>7.0</ele><time>2026-04-26T08:31:17Z</time></trkpt><trkpt lat="41.127040270495215" lon="9.436962075818919"><ele>7.0</ele><time>2026-04-26T08:31:18Z</time></trkpt><trkpt lat="41.127093025344955" lon="9.436863284872635"><ele>6.999999999999999</ele><time>2026-04-26T08:31:19Z</time></trkpt><trkpt lat="41.127149263224744" lon="9.436758405939749"><ele>6.999999999999999</ele><time>2026-04-26T08:31:20Z</time></trkpt><trkpt lat="41.12720771981875" lon="9.436652224877228"><ele>7.0</ele><time>2026-04-26T08:31:21Z</time></trkpt><trkpt lat="41.12726896491581" lon="9.436543571844279"><ele>7.0</ele><time>2026-04-26T08:31:22Z</time></trkpt><trkpt lat="41.12733189235108" lon="9.436432484138713"><ele>7.6</ele><time>2026-04-26T08:31:23Z</time></trkpt><trkpt lat="41.12739518862071" lon="9.43632182379182"><ele>8.2</ele><time>2026-04-26T08:31:24Z</time></trkpt><trkpt lat="41.12745985428052" lon="9.436208940618119"><ele>8.8</ele><time>2026-04-26T08:31:25Z</time></trkpt><trkpt lat="41.12752325054251" lon="9.436098273340956"><ele>9.4</ele><time>2026-04-26T08:31:26Z</time></trkpt><trkpt lat="41.12758319362519" lon="9.435993634105683"><ele>10.0</ele><time>2026-04-26T08:31:27Z</time></trkpt><trkpt lat="41.12764002937293" lon="9.435893812984439"><ele>11.0</ele><time>2026-04-26T08:31:28Z</time></trkpt><trkpt lat="41.127699962733615" lon="9.435787976593305"><ele>12.0</ele><time>2026-04-26T08:31:29Z</time></trkpt><trkpt lat="41.12776248317776" lon="9.435677572362085"><ele>13.0</ele><time>2026-04-26T08:31:30Z</time></trkpt><trkpt lat="41.127822374289295" lon="9.435570254487754"><ele>14.0</ele><time>2026-04-26T08:31:31Z</time></trkpt><trkpt lat="41.12788334800869" lon="9.435461623204809"><ele>15.0</ele><time>2026-04-26T08:31:32Z</time></trkpt><trkpt lat="41.12794796313655" lon="9.435345254363543"><ele>16.25</ele><time>2026-04-26T08:31:33Z</time></trkpt><trkpt lat="41.12801881770363" lon="9.435217716160675"><ele>17.5</ele><time>2026-04-26T08:31:34Z</time></trkpt><trkpt lat="41.128094224937186" lon="9.435083121675973"><ele>18.75</ele><time>2026-04-26T08:31:35Z</time></trkpt><trkpt lat="41.12816741587877" lon="9.434952750353373"><ele>20.0</ele><time>2026-04-26T08:31:36Z</time></trkpt><trkpt lat="41.128235763353345" lon="9.434831006440609"><ele>18.0</ele><time>2026-04-26T08:31:37Z</time></trkpt><trkpt lat="41.128304569051494" lon="9.434708446354515"><ele>16.0</ele><time>2026-04-26T08:31:38Z</time></trkpt><trkpt lat="41.12837290550365" lon="9.43459453124767"><ele>14.0</ele><time>2026-04-26T08:31:39Z</time></trkpt><trkpt lat="41.12844735527111" lon="9.434506057176653"><ele>12.0</ele><time>2026-04-26T08:31:40Z</time></trkpt><trkpt lat="41.12853931428998" lon="9.434439247788243"><ele>10.0</ele><time>2026-04-26T08:31:41Z</time></trkpt><trkpt lat="41.128652540406804" lon="9.434384643535964"><ele>9.5</ele><time>2026-04-26T08:31:42Z</time></trkpt><trkpt lat="41.128782996528784" lon="9.434353852092874"><ele>9.0</ele><time>2026-04-26T08:31:43Z</time></trkpt><trkpt lat="41.12892254103045" lon="9.434319567057214"><ele>8.5</ele><time>2026-04-26T08:31:44Z</time></trkpt><trkpt lat="41.12906605130439" lon="9.434276759181381"><ele>8.0</ele><time>2026-04-26T08:31:45Z</time></trkpt><trkpt lat="41.129219418132664" lon="9.434257177273276"><ele>8.0</ele><time>2026-04-26T08:31:46Z</time></trkpt><trkpt lat="41.12937383279762" lon="9.434262022188232"><ele>8.0</ele><time>2026-04-26T08:31:47Z</time></trkpt><trkpt lat="41.12953052841388" lon="9.434284930415092"><ele>8.0</ele><time>2026-04-26T08:31:48Z</time></trkpt><trkpt lat="41.1296876838628" lon="9.434312399574365"><ele>8.0</ele><time>2026-04-26T08:31:49Z</time></trkpt><trkpt lat="41.12984816798868" lon="9.434336934252753"><ele>8.0</ele><time>2026-04-26T08:31:50Z</time></trkpt><trkpt lat="41.13000111037415" lon="9.434364075527466"><ele>8.0</ele><time>2026-04-26T08:31:51Z</time></trkpt><trkpt lat="41.13015773126507" lon="9.434390986632305"><ele>9.5</ele><time>2026-04-26T08:31:52Z</time></trkpt><trkpt lat="41.13031112957825" lon="9.434413623690132"><ele>11.0</ele><time>2026-04-26T08:31:53Z</time></trkpt><trkpt lat="41.130463984859766" lon="9.434426936700019"><ele>12.5</ele><time>2026-04-26T08:31:54Z</time></trkpt><trkpt lat="41.13060488839197" lon="9.434422573595613"><ele>14.0</ele><time>2026-04-26T08:31:55Z</time></trkpt><trkpt lat="41.13073761301185" lon="9.43439044009147"><ele>14.5</ele><time>2026-04-26T08:31:56Z</time></trkpt><trkpt lat="41.13086719969957" lon="9.434331833939677"><ele>15.0</ele><time>2026-04-26T08:31:57Z</time></trkpt><trkpt lat="41.13100482984528" lon="9.434254281532855"><ele>15.5</ele><time>2026-04-26T08:31:58Z</time></trkpt><trkpt lat="41.13115310576776" lon="9.434180684384797"><ele>16.0</ele><time>2026-04-26T08:31:59Z</time></trkpt><trkpt lat="41.131310985885406" lon="9.434110004314821"><ele>16.0</ele><time>2026-04-26T08:32:00Z</time></trkpt><trkpt lat="41.13147697521259" lon="9.434020750408786"><ele>16.0</ele><time>2026-04-26T08:32:01Z</time></trkpt><trkpt lat="41.13164197319707" lon="9.43393469424563"><ele>16.0</ele><time>2026-04-26T08:32:02Z</time></trkpt><trkpt lat="41.1318021542178" lon="9.43383260980345"><ele>15.666666666666666</ele><time>2026-04-26T08:32:03Z</time></trkpt><trkpt lat="41.131958409764685" lon="9.43373166712904"><ele>15.333333333333332</ele><time>2026-04-26T08:32:04Z</time></trkpt><trkpt lat="41.13210755859807" lon="9.433636881507965"><ele>15.0</ele><time>2026-04-26T08:32:05Z</time></trkpt><trkpt lat="41.132250583956186" lon="9.433540624803095"><ele>15.0</ele><time>2026-04-26T08:32:06Z</time></trkpt><trkpt lat="41.132387385027975" lon="9.433446759813195"><ele>15.0</ele><time>2026-04-26T08:32:07Z</time></trkpt><trkpt lat="41.132524595789256" lon="9.433349614387772"><ele>15.0</ele><time>2026-04-26T08:32:08Z</time></trkpt><trkpt lat="41.13266225829308" lon="9.433253043140471"><ele>13.0</ele><time>2026-04-26T08:32:09Z</time></trkpt><trkpt lat="41.13280406649862" lon="9.433167392170306"><ele>11.0</ele><time>2026-04-26T08:32:10Z</time></trkpt><trkpt lat="41.13295589931548" lon="9.433110181518163"><ele>9.0</ele><time>2026-04-26T08:32:11Z</time></trkpt><trkpt lat="41.13311338792571" lon="9.433070857538203"><ele>8.333333333333334</ele><time>2026-04-26T08:32:12Z</time></trkpt><trkpt lat="41.13327531569523" lon="9.433041273791728"><ele>7.666666666666667</ele><time>2026-04-26T08:32:13Z</time></trkpt><trkpt lat="41.13344201030873" lon="9.433015276702854"><ele>7.0</ele><time>2026-04-26T08:32:14Z</time></trkpt><trkpt lat="41.13361166673939" lon="9.432991686058783"><ele>7.0</ele><time>2026-04-26T08:32:15Z</time></trkpt><trkpt lat="41.1337847497678" lon="9.432973496094405"><ele>7.0</ele><time>2026-04-26T08:32:16Z</time></trkpt><trkpt lat="41.133958267053515" lon="9.432959086018919"><ele>7.0</ele><time>2026-04-26T08:32:17Z</time></trkpt><trkpt lat="41.13413262412905" lon="9.432948764318866"><ele>8.333333333333334</ele><time>2026-04-26T08:32:18Z</time></trkpt><trkpt lat="41.134306842987215" lon="9.432939576572801"><ele>9.666666666666666</ele><time>2026-04-26T08:32:19Z</time></trkpt><trkpt lat="41.1344822466124" lon="9.432928207879756"><ele>11.0</ele><time>2026-04-26T08:32:20Z</time></trkpt><trkpt lat="41.134657861499775" lon="9.432915926090013"><ele>11.0</ele><time>2026-04-26T08:32:21Z</time></trkpt><trkpt lat="41.13483277122928" lon="9.432905323917556"><ele>11.0</ele><time>2026-04-26T08:32:22Z</time></trkpt><trkpt lat="41.135006651017314" lon="9.43289421776114"><ele>11.0</ele><time>2026-04-26T08:32:23Z</time></trkpt><trkpt lat="41.13518070737188" lon="9.432883502673867"><ele>11.666666666666666</ele><time>2026-04-26T08:32:24Z</time></trkpt><trkpt lat="41.13535366567021" lon="9.432868595727042"><ele>12.333333333333332</ele><time>2026-04-26T08:32:25Z</time></trkpt><trkpt lat="41.135525876139624" lon="9.432840674171072"><ele>13.0</ele><time>2026-04-26T08:32:26Z</time></trkpt><trkpt lat="41.13570663473605" lon="9.432798997453887"><ele>13.333333333333332</ele><time>2026-04-26T08:32:27Z</time></trkpt><trkpt lat="41.13588805659254" lon="9.432747239864758"><ele>13.666666666666668</ele><time>2026-04-26T08:32:28Z</time></trkpt><trkpt lat="41.136065344171755" lon="9.432693091686705"><ele>14.0</ele><time>2026-04-26T08:32:29Z</time></trkpt><trkpt lat="41.136240849264816" lon="9.432636681899295"><ele>14.0</ele><time>2026-04-26T08:32:30Z</time></trkpt><trkpt lat="41.136410601038754" lon="9.432579237094322"><ele>14.0</ele><time>2026-04-26T08:32:31Z</time></trkpt><trkpt lat="41.136572481995174" lon="9.432513173443617"><ele>14.0</ele><time>2026-04-26T08:32:32Z</time></trkpt><trkpt lat="41.136727161585945" lon="9.432436255449376"><ele>13.666666666666668</ele><time>2026-04-26T08:32:33Z</time></trkpt><trkpt lat="41.13687415143816" lon="9.432345077479145"><ele>13.333333333333332</ele><time>2026-04-26T08:32:34Z</time></trkpt><trkpt lat="41.13701695020155" lon="9.432244026758084"><ele>13.0</ele><time>2026-04-26T08:32:35Z</time></trkpt><trkpt lat="41.13717010608365" lon="9.432141730712447"><ele>13.0</ele><time>2026-04-26T08:32:36Z</time></trkpt><trkpt lat="41.137330777121626" lon="9.432031124908377"><ele>13.0</ele><time>2026-04-26T08:32:37Z</time></trkpt><trkpt lat="41.13748523784941" lon="9.43191304454161"><ele>13.0</ele><time>2026-04-26T08:32:38Z</time></trkpt><trkpt lat="41.137623701589824" lon="9.431781341005694"><ele>13.666666666666666</ele><time>2026-04-26T08:32:39Z</time></trkpt><trkpt lat="41.137749151967476" lon="9.431623534624865"><ele>14.333333333333332</ele><time>2026-04-26T08:32:40Z</time></trkpt><trkpt lat="41.13786892359039" lon="9.431446599375917"><ele>15.0</ele><time>2026-04-26T08:32:41Z</time></trkpt><trkpt lat="41.1379860748423" lon="9.43126398013633"><ele>15.0</ele><time>2026-04-26T08:32:42Z</time></trkpt><trkpt lat="41.138119678728245" lon="9.431093771968447"><ele>15.0</ele><time>2026-04-26T08:32:43Z</time></trkpt><trkpt lat="41.13822837088705" lon="9.43089636010466"><ele>15.0</ele><time>2026-04-26T08:32:44Z</time></trkpt><trkpt lat="41.13835187467573" lon="9.430711436994201"><ele>14.333333333333332</ele><time>2026-04-26T08:32:45Z</time></trkpt><trkpt lat="41.13847478512984" lon="9.430523494217432"><ele>13.666666666666666</ele><time>2026-04-26T08:32:46Z</time></trkpt><trkpt lat="41.13859953619636" lon="9.430333793180996"><ele>13.0</ele><time>2026-04-26T08:32:47Z</time></trkpt><trkpt lat="41.13872730820292" lon="9.430147969305647"><ele>13.0</ele><time>2026-04-26T08:32:48Z</time></trkpt><trkpt lat="41.13885166642392" lon="9.429957308382491"><ele>13.0</ele><time>2026-04-26T08:32:49Z</time></trkpt><trkpt lat="41.1389892461889" lon="9.429796345905368"><ele>13.0</ele><time>2026-04-26T08:32:50Z</time></trkpt><trkpt lat="41.139107246329104" lon="9.4296304320505"><ele>9.666666666666666</ele><time>2026-04-26T08:32:51Z</time></trkpt><trkpt lat="41.13923932816091" lon="9.429484567618823"><ele>6.333333333333333</ele><time>2026-04-26T08:32:52Z</time></trkpt><trkpt lat="41.139389872910606" lon="9.429350357024266"><ele>3.0</ele><time>2026-04-26T08:32:53Z</time></trkpt><trkpt lat="41.13954997201559" lon="9.429223847543533"><ele>3.0</ele><time>2026-04-26T08:32:54Z</time></trkpt><trkpt lat="41.13971233363507" lon="9.429094379943907"><ele>3.0</ele><time>2026-04-26T08:32:55Z</time></trkpt><trkpt lat="41.1398758454785" lon="9.428963993997764"><ele>3.0</ele><time>2026-04-26T08:32:56Z</time></trkpt><trkpt lat="41.140040923709094" lon="9.428831771164683"><ele>2.6666666666666665</ele><time>2026-04-26T08:32:57Z</time></trkpt><trkpt lat="41.14020682447283" lon="9.428699292554503"><ele>2.333333333333333</ele><time>2026-04-26T08:32:58Z</time></trkpt><trkpt lat="41.14037246993873" lon="9.42856830483615"><ele>2.0</ele><time>2026-04-26T08:32:59Z</time></trkpt><trkpt lat="41.140536230866225" lon="9.428438807373622"><ele>2.0</ele><time>2026-04-26T08:33:00Z</time></trkpt><trkpt lat="41.14069715563137" lon="9.42831155265267"><ele>2.0</ele><time>2026-04-26T08:33:01Z</time></trkpt><trkpt lat="41.14085653606754" lon="9.428185519145565"><ele>2.0</ele><time>2026-04-26T08:33:02Z</time></trkpt><trkpt lat="41.141014325907605" lon="9.428060743795587"><ele>3.333333333333333</ele><time>2026-04-26T08:33:03Z</time></trkpt><trkpt lat="41.14116916576743" lon="9.427938211196881"><ele>4.666666666666667</ele><time>2026-04-26T08:33:04Z</time></trkpt><trkpt lat="41.14132388835109" lon="9.427815797330965"><ele>6.0</ele><time>2026-04-26T08:33:05Z</time></trkpt><trkpt lat="41.14147633090105" lon="9.427695187373724"><ele>6.666666666666666</ele><time>2026-04-26T08:33:06Z</time></trkpt><trkpt lat="41.141625523018156" lon="9.427577149326646"><ele>7.333333333333333</ele><time>2026-04-26T08:33:07Z</time></trkpt><trkpt lat="41.1417548855852" lon="9.42744787438592"><ele>8.0</ele><time>2026-04-26T08:33:08Z</time></trkpt><trkpt lat="41.1418944017328" lon="9.427343995714198"><ele>8.0</ele><time>2026-04-26T08:33:09Z</time></trkpt><trkpt lat="41.14205146444749" lon="9.427285263632479"><ele>8.0</ele><time>2026-04-26T08:33:10Z</time></trkpt><trkpt lat="41.14220884763011" lon="9.427221604500748"><ele>8.0</ele><time>2026-04-26T08:33:11Z</time></trkpt><trkpt lat="41.14236891744589" lon="9.427159530303605"><ele>9.0</ele><time>2026-04-26T08:33:12Z</time></trkpt><trkpt lat="41.142537021143035" lon="9.427094842300026"><ele>10.0</ele><time>2026-04-26T08:33:13Z</time></trkpt><trkpt lat="41.142716420375194" lon="9.427026633803466"><ele>11.0</ele><time>2026-04-26T08:33:14Z</time></trkpt><trkpt lat="41.142903002901576" lon="9.426957421484394"><ele>11.0</ele><time>2026-04-26T08:33:15Z</time></trkpt><trkpt lat="41.14309272693149" lon="9.426887043886296"><ele>11.0</ele><time>2026-04-26T08:33:16Z</time></trkpt><trkpt lat="41.14327143782533" lon="9.42680011188675"><ele>11.0</ele><time>2026-04-26T08:33:17Z</time></trkpt><trkpt lat="41.143439648822735" lon="9.426736427437167"><ele>11.333333333333332</ele><time>2026-04-26T08:33:18Z</time></trkpt><trkpt lat="41.14359645432446" lon="9.426675621967002"><ele>11.666666666666666</ele><time>2026-04-26T08:33:19Z</time></trkpt><trkpt lat="41.143740766487866" lon="9.426613322901702"><ele>12.0</ele><time>2026-04-26T08:33:20Z</time></trkpt><trkpt lat="41.14387312186906" lon="9.426543177114093"><ele>12.0</ele><time>2026-04-26T08:33:21Z</time></trkpt><trkpt lat="41.144010155241816" lon="9.426486072115102"><ele>12.0</ele><time>2026-04-26T08:33:22Z</time></trkpt><trkpt lat="41.14413995130833" lon="9.426409068903583"><ele>12.0</ele><time>2026-04-26T08:33:23Z</time></trkpt><trkpt lat="41.1442800896281" lon="9.426325930032519"><ele>12.0</ele><time>2026-04-26T08:33:24Z</time></trkpt><trkpt lat="41.14440539260613" lon="9.426251938504501"><ele>14.25</ele><time>2026-04-26T08:33:25Z</time></trkpt><trkpt lat="41.144515640920396" lon="9.426187127563667"><ele>16.5</ele><time>2026-04-26T08:33:26Z</time></trkpt><trkpt lat="41.14461304966111" lon="9.426108842010771"><ele>18.75</ele><time>2026-04-26T08:33:27Z</time></trkpt><trkpt lat="41.14472458595317" lon="9.426091329317334"><ele>21.0</ele><time>2026-04-26T08:33:28Z</time></trkpt><trkpt lat="41.14485316358309" lon="9.426081251606746"><ele>19.8</ele><time>2026-04-26T08:33:29Z</time></trkpt><trkpt lat="41.144979716438854" lon="9.426078216451105"><ele>18.6</ele><time>2026-04-26T08:33:30Z</time></trkpt><trkpt lat="41.14508701617319" lon="9.42607781767308"><ele>17.4</ele><time>2026-04-26T08:33:31Z</time></trkpt><trkpt lat="41.14517569850422" lon="9.42607748808571"><ele>16.2</ele><time>2026-04-26T08:33:32Z</time></trkpt><trkpt lat="41.1452572880099" lon="9.426077184859825"><ele>15.0</ele><time>2026-04-26T08:33:33Z</time></trkpt><trkpt lat="41.145336883008476" lon="9.426077030894211"><ele>15.0</ele><time>2026-04-26T08:33:34Z</time></trkpt><trkpt lat="41.14542435023832" lon="9.426062189290967"><ele>15.0</ele><time>2026-04-26T08:33:35Z</time></trkpt><trkpt lat="41.14552292677997" lon="9.426070107623042"><ele>15.0</ele><time>2026-04-26T08:33:36Z</time></trkpt><trkpt lat="41.14563815643348" lon="9.426074439746214"><ele>15.0</ele><time>2026-04-26T08:33:37Z</time></trkpt><trkpt lat="41.14576621183993" lon="9.42607843732097"><ele>15.0</ele><time>2026-04-26T08:33:38Z</time></trkpt><trkpt lat="41.145915957149526" lon="9.426072412488908"><ele>15.25</ele><time>2026-04-26T08:33:39Z</time></trkpt><trkpt lat="41.14606798999703" lon="9.426076101681709"><ele>15.5</ele><time>2026-04-26T08:33:40Z</time></trkpt><trkpt lat="41.14620299895059" lon="9.426077442309397"><ele>15.75</ele><time>2026-04-26T08:33:41Z</time></trkpt><trkpt lat="41.1463373342618" lon="9.426081142472166"><ele>16.0</ele><time>2026-04-26T08:33:42Z</time></trkpt><trkpt lat="41.146472115215516" lon="9.426083820773465"><ele>15.5</ele><time>2026-04-26T08:33:43Z</time></trkpt><trkpt lat="41.1466097214526" lon="9.426083871332184"><ele>15.0</ele><time>2026-04-26T08:33:44Z</time></trkpt><trkpt lat="41.14674582141818" lon="9.42608359797708"><ele>14.5</ele><time>2026-04-26T08:33:45Z</time></trkpt><trkpt lat="41.14688409049371" lon="9.426083252497955"><ele>14.0</ele><time>2026-04-26T08:33:46Z</time></trkpt><trkpt lat="41.14702738688613" lon="9.426075287182007"><ele>14.0</ele><time>2026-04-26T08:33:47Z</time></trkpt><trkpt lat="41.14717442876835" lon="9.426062405879794"><ele>14.0</ele><time>2026-04-26T08:33:48Z</time></trkpt><trkpt lat="41.147326265607106" lon="9.426056130058106"><ele>14.0</ele><time>2026-04-26T08:33:49Z</time></trkpt><trkpt lat="41.14747133192162" lon="9.426060138347765"><ele>14.0</ele><time>2026-04-26T08:33:50Z</time></trkpt><trkpt lat="41.14760935901127" lon="9.426070997171433"><ele>13.75</ele><time>2026-04-26T08:33:51Z</time></trkpt><trkpt lat="41.14773821914545" lon="9.426107972043372"><ele>13.5</ele><time>2026-04-26T08:33:52Z</time></trkpt><trkpt lat="41.14784349127608" lon="9.4261952443953"><ele>13.25</ele><time>2026-04-26T08:33:53Z</time></trkpt><trkpt lat="41.14795554693616" lon="9.42626425133155"><ele>13.0</ele><time>2026-04-26T08:33:54Z</time></trkpt><trkpt lat="41.14805591913145" lon="9.426364078362427"><ele>12.5</ele><time>2026-04-26T08:33:55Z</time></trkpt><trkpt lat="41.1481650152465" lon="9.42645693000022"><ele>12.0</ele><time>2026-04-26T08:33:56Z</time></trkpt><trkpt lat="41.148270653708714" lon="9.426543930380715"><ele>11.5</ele><time>2026-04-26T08:33:57Z</time></trkpt><trkpt lat="41.14838953351653" lon="9.426626463488967"><ele>11.0</ele><time>2026-04-26T08:33:58Z</time></trkpt><trkpt lat="41.148514399934214" lon="9.42669945370462"><ele>13.333333333333332</ele><time>2026-04-26T08:33:59Z</time></trkpt><trkpt lat="41.14865173950294" lon="9.42674895243961"><ele>15.666666666666666</ele><time>2026-04-26T08:34:00Z</time></trkpt><trkpt lat="41.14879567585546" lon="9.426797388179905"><ele>18.0</ele><time>2026-04-26T08:34:01Z</time></trkpt><trkpt lat="41.14894933360907" lon="9.426857326236355"><ele>20.333333333333336</ele><time>2026-04-26T08:34:02Z</time></trkpt><trkpt lat="41.149103306720434" lon="9.426924593182099"><ele>22.666666666666668</ele><time>2026-04-26T08:34:03Z</time></trkpt><trkpt lat="41.14925877222865" lon="9.426989916590086"><ele>25.0</ele><time>2026-04-26T08:34:04Z</time></trkpt><trkpt lat="41.14942661605671" lon="9.427055678974371"><ele>25.0</ele><time>2026-04-26T08:34:05Z</time></trkpt><trkpt lat="41.149608900934766" lon="9.42712334550259"><ele>25.0</ele><time>2026-04-26T08:34:06Z</time></trkpt><trkpt lat="41.14978507281521" lon="9.42720021721017"><ele>25.0</ele><time>2026-04-26T08:34:07Z</time></trkpt><trkpt lat="41.149945558261486" lon="9.427264689266057"><ele>25.0</ele><time>2026-04-26T08:34:08Z</time></trkpt><trkpt lat="41.15009393309169" lon="9.427318462376252"><ele>25.0</ele><time>2026-04-26T08:34:09Z</time></trkpt><trkpt lat="41.1502314416817" lon="9.427364534749909"><ele>25.0</ele><time>2026-04-26T08:34:10Z</time></trkpt><trkpt lat="41.15036416836518" lon="9.427402078742626"><ele>25.0</ele><time>2026-04-26T08:34:11Z</time></trkpt><trkpt lat="41.15050411695332" lon="9.42742231826433"><ele>25.0</ele><time>2026-04-26T08:34:12Z</time></trkpt><trkpt lat="41.150651385117094" lon="9.427404523168113"><ele>25.0</ele><time>2026-04-26T08:34:13Z</time></trkpt><trkpt lat="41.15080263499441" lon="9.42735121114661"><ele>25.0</ele><time>2026-04-26T08:34:14Z</time></trkpt><trkpt lat="41.15096471497313" lon="9.42728960142965"><ele>24.666666666666668</ele><time>2026-04-26T08:34:15Z</time></trkpt><trkpt lat="41.15114714893888" lon="9.427238418556165"><ele>24.333333333333336</ele><time>2026-04-26T08:34:16Z</time></trkpt><trkpt lat="41.15134607519669" lon="9.427164721867834"><ele>24.0</ele><time>2026-04-26T08:34:17Z</time></trkpt><trkpt lat="41.15153617997512" lon="9.427088449399923"><ele>24.0</ele><time>2026-04-26T08:34:18Z</time></trkpt><trkpt lat="41.15171608181014" lon="9.427013007590785"><ele>24.0</ele><time>2026-04-26T08:34:19Z</time></trkpt><trkpt lat="41.151887711875254" lon="9.426935837925939"><ele>24.0</ele><time>2026-04-26T08:34:20Z</time></trkpt><trkpt lat="41.15205288656723" lon="9.42686537041771"><ele>24.0</ele><time>2026-04-26T08:34:21Z</time></trkpt><trkpt lat="41.152209332924926" lon="9.426795019057593"><ele>24.0</ele><time>2026-04-26T08:34:22Z</time></trkpt><trkpt lat="41.15235169106964" lon="9.42673560415337"><ele>24.0</ele><time>2026-04-26T08:34:23Z</time></trkpt><trkpt lat="41.15249454720712" lon="9.42671964088697"><ele>23.25</ele><time>2026-04-26T08:34:24Z</time></trkpt><trkpt lat="41.15262938271607" lon="9.426701307118536"><ele>22.5</ele><time>2026-04-26T08:34:25Z</time></trkpt><trkpt lat="41.152755374167" lon="9.426661245559211"><ele>21.75</ele><time>2026-04-26T08:34:26Z</time></trkpt><trkpt lat="41.15287214335967" lon="9.42660895912517"><ele>21.0</ele><time>2026-04-26T08:34:27Z</time></trkpt><trkpt lat="41.1529809990824" lon="9.426505952559014"><ele>21.0</ele><time>2026-04-26T08:34:28Z</time></trkpt><trkpt lat="41.15308516269181" lon="9.426340440434473"><ele>21.0</ele><time>2026-04-26T08:34:29Z</time></trkpt><trkpt lat="41.15323173531103" lon="9.426178309959251"><ele>21.0</ele><time>2026-04-26T08:34:30Z</time></trkpt><trkpt lat="41.153367142698855" lon="9.426002816580825"><ele>21.666666666666668</ele><time>2026-04-26T08:34:31Z</time></trkpt><trkpt lat="41.15348521705229" lon="9.42584229934798"><ele>22.333333333333336</ele><time>2026-04-26T08:34:32Z</time></trkpt><trkpt lat="41.15359545759419" lon="9.42570158254455"><ele>23.0</ele><time>2026-04-26T08:34:33Z</time></trkpt><trkpt lat="41.15369970917606" lon="9.425591290807594"><ele>23.0</ele><time>2026-04-26T08:34:34Z</time></trkpt><trkpt lat="41.15378223073705" lon="9.425523050611552"><ele>23.0</ele><time>2026-04-26T08:34:35Z</time></trkpt><trkpt lat="41.15384204623962" lon="9.425474825827887"><ele>23.0</ele><time>2026-04-26T08:34:36Z</time></trkpt><trkpt lat="41.15392442583125" lon="9.425400840289479"><ele>23.0</ele><time>2026-04-26T08:34:38Z</time></trkpt><trkpt lat="41.153981537345636" lon="9.425334733961625"><ele>23.0</ele><time>2026-04-26T08:34:40Z</time></trkpt><trkpt lat="41.15404718730576" lon="9.425238508534855"><ele>23.0</ele><time>2026-04-26T08:34:42Z</time></trkpt><trkpt lat="41.154108963964035" lon="9.425113327061233"><ele>22.166666666666668</ele><time>2026-04-26T08:34:44Z</time></trkpt><trkpt lat="41.15415112992538" lon="9.425015517321743"><ele>21.333333333333336</ele><time>2026-04-26T08:34:46Z</time></trkpt><trkpt lat="41.154205295382205" lon="9.424885768137203"><ele>20.5</ele><time>2026-04-26T08:34:48Z</time></trkpt><trkpt lat="41.15423792000722" lon="9.424806254662995"><ele>19.666666666666668</ele><time>2026-04-26T08:34:49Z</time></trkpt><trkpt lat="41.1542744635835" lon="9.424716797541299"><ele>18.833333333333332</ele><time>2026-04-26T08:34:50Z</time></trkpt><trkpt lat="41.15431298550441" lon="9.424618974464071"><ele>18.0</ele><time>2026-04-26T08:34:51Z</time></trkpt><trkpt lat="41.15435126732425" lon="9.424511477742753"><ele>18.0</ele><time>2026-04-26T08:34:52Z</time></trkpt><trkpt lat="41.154372730866136" lon="9.424391333896564"><ele>18.0</ele><time>2026-04-26T08:34:53Z</time></trkpt><trkpt lat="41.15441217731012" lon="9.424281258379827"><ele>18.0</ele><time>2026-04-26T08:34:54Z</time></trkpt><trkpt lat="41.15441903081472" lon="9.42415357700821"><ele>18.0</ele><time>2026-04-26T08:34:55Z</time></trkpt><trkpt lat="41.15438254727763" lon="9.424022119713863"><ele>18.0</ele><time>2026-04-26T08:34:56Z</time></trkpt><trkpt lat="41.154335021744515" lon="9.423892330522511"><ele>17.6</ele><time>2026-04-26T08:34:57Z</time></trkpt><trkpt lat="41.154259612750934" lon="9.42377455297778"><ele>17.200000000000003</ele><time>2026-04-26T08:34:58Z</time></trkpt><trkpt lat="41.154177888065796" lon="9.423660196435616"><ele>16.8</ele><time>2026-04-26T08:34:59Z</time></trkpt><trkpt lat="41.15413236220752" lon="9.423526160538184"><ele>16.400000000000002</ele><time>2026-04-26T08:35:00Z</time></trkpt><trkpt lat="41.15409997527812" lon="9.423400684807056"><ele>16.0</ele><time>2026-04-26T08:35:01Z</time></trkpt><trkpt lat="41.15410645809115" lon="9.423262229283567"><ele>16.0</ele><time>2026-04-26T08:35:02Z</time></trkpt><trkpt lat="41.1541270287688" lon="9.423095503623076"><ele>16.0</ele><time>2026-04-26T08:35:03Z</time></trkpt><trkpt lat="41.154147074939864" lon="9.422910089886553"><ele>16.0</ele><time>2026-04-26T08:35:04Z</time></trkpt><trkpt lat="41.15416491310293" lon="9.422721952934596"><ele>16.0</ele><time>2026-04-26T08:35:05Z</time></trkpt><trkpt lat="41.154162865500346" lon="9.42254004207973"><ele>16.0</ele><time>2026-04-26T08:35:06Z</time></trkpt><trkpt lat="41.15416318696779" lon="9.422373455482537"><ele>16.0</ele><time>2026-04-26T08:35:07Z</time></trkpt><trkpt lat="41.15414418404825" lon="9.42220294718518"><ele>16.0</ele><time>2026-04-26T08:35:08Z</time></trkpt><trkpt lat="41.15411180823143" lon="9.422035451317326"><ele>16.0</ele><time>2026-04-26T08:35:09Z</time></trkpt><trkpt lat="41.15407920100184" lon="9.421865925464731"><ele>14.25</ele><time>2026-04-26T08:35:10Z</time></trkpt><trkpt lat="41.15407205126533" lon="9.421715827517698"><ele>12.5</ele><time>2026-04-26T08:35:11Z</time></trkpt><trkpt lat="41.154061624071396" lon="9.421569023915982"><ele>10.75</ele><time>2026-04-26T08:35:12Z</time></trkpt><trkpt lat="41.15407669650295" lon="9.421423947748242"><ele>9.0</ele><time>2026-04-26T08:35:13Z</time></trkpt><trkpt lat="41.15410431957763" lon="9.421252178672383"><ele>8.75</ele><time>2026-04-26T08:35:14Z</time></trkpt><trkpt lat="41.15413698441064" lon="9.421070772686118"><ele>8.5</ele><time>2026-04-26T08:35:15Z</time></trkpt><trkpt lat="41.15417908225894" lon="9.420914854139744"><ele>8.25</ele><time>2026-04-26T08:35:16Z</time></trkpt><trkpt lat="41.15423067797201" lon="9.42076463132494"><ele>8.0</ele><time>2026-04-26T08:35:17Z</time></trkpt><trkpt lat="41.15429080950619" lon="9.4205929371622"><ele>7.75</ele><time>2026-04-26T08:35:18Z</time></trkpt><trkpt lat="41.154351020275264" lon="9.420411003322277"><ele>7.5</ele><time>2026-04-26T08:35:19Z</time></trkpt><trkpt lat="41.15440741442593" lon="9.42025049481416"><ele>7.25</ele><time>2026-04-26T08:35:20Z</time></trkpt><trkpt lat="41.15447382732636" lon="9.420125109394041"><ele>7.0</ele><time>2026-04-26T08:35:21Z</time></trkpt><trkpt lat="41.15455508210934" lon="9.420013223694806"><ele>7.0</ele><time>2026-04-26T08:35:22Z</time></trkpt><trkpt lat="41.154653561189434" lon="9.419916829351006"><ele>7.0</ele><time>2026-04-26T08:35:23Z</time></trkpt><trkpt lat="41.154761574523924" lon="9.419816312036517"><ele>7.0</ele><time>2026-04-26T08:35:24Z</time></trkpt><trkpt lat="41.15487048495014" lon="9.419696527434295"><ele>7.0</ele><time>2026-04-26T08:35:25Z</time></trkpt><trkpt lat="41.15498494546112" lon="9.419581089082866"><ele>6.0</ele><time>2026-04-26T08:35:26Z</time></trkpt><trkpt lat="41.15508732888677" lon="9.419439122375756"><ele>5.0</ele><time>2026-04-26T08:35:27Z</time></trkpt><trkpt lat="41.155177224166316" lon="9.41926553024177"><ele>4.0</ele><time>2026-04-26T08:35:28Z</time></trkpt><trkpt lat="41.155249467926964" lon="9.419070058812592"><ele>4.0</ele><time>2026-04-26T08:35:29Z</time></trkpt><trkpt lat="41.155334207397374" lon="9.418859973017144"><ele>4.0</ele><time>2026-04-26T08:35:30Z</time></trkpt><trkpt lat="41.15541174930869" lon="9.418663784924092"><ele>4.0</ele><time>2026-04-26T08:35:31Z</time></trkpt><trkpt lat="41.15549703010192" lon="9.418492059708207"><ele>4.333333333333333</ele><time>2026-04-26T08:35:32Z</time></trkpt><trkpt lat="41.15558564617094" lon="9.418328851828662"><ele>4.666666666666667</ele><time>2026-04-26T08:35:33Z</time></trkpt><trkpt lat="41.1556819013218" lon="9.418161706548455"><ele>5.0</ele><time>2026-04-26T08:35:34Z</time></trkpt><trkpt lat="41.15576748637546" lon="9.417979925088636"><ele>5.0</ele><time>2026-04-26T08:35:35Z</time></trkpt><trkpt lat="41.15582002611297" lon="9.417791306789015"><ele>5.0</ele><time>2026-04-26T08:35:36Z</time></trkpt><trkpt lat="41.15586976024852" lon="9.417600773649138"><ele>5.0</ele><time>2026-04-26T08:35:37Z</time></trkpt><trkpt lat="41.1558947234916" lon="9.417410745388997"><ele>5.0</ele><time>2026-04-26T08:35:38Z</time></trkpt><trkpt lat="41.155896333895576" lon="9.417197170834598"><ele>5.666666666666667</ele><time>2026-04-26T08:35:39Z</time></trkpt><trkpt lat="41.15587680825808" lon="9.416958269022711"><ele>6.333333333333334</ele><time>2026-04-26T08:35:40Z</time></trkpt><trkpt lat="41.155864623810125" lon="9.416724666437652"><ele>7.0</ele><time>2026-04-26T08:35:41Z</time></trkpt><trkpt lat="41.155827279154316" lon="9.416525676290236"><ele>7.0</ele><time>2026-04-26T08:35:42Z</time></trkpt><trkpt lat="41.15578807184676" lon="9.416365471401363"><ele>6.999999999999999</ele><time>2026-04-26T08:35:43Z</time></trkpt><trkpt lat="41.15578285811428" lon="9.416232632948232"><ele>6.999999999999999</ele><time>2026-04-26T08:35:44Z</time></trkpt><trkpt lat="41.15580200046056" lon="9.41610355499621"><ele>7.0</ele><time>2026-04-26T08:35:45Z</time></trkpt><trkpt lat="41.15586202471456" lon="9.415971577665776"><ele>7.0</ele><time>2026-04-26T08:35:46Z</time></trkpt><trkpt lat="41.155906120512476" lon="9.415791529927635"><ele>7.0</ele><time>2026-04-26T08:35:47Z</time></trkpt><trkpt lat="41.15594572602292" lon="9.415583615115095"><ele>7.0</ele><time>2026-04-26T08:35:48Z</time></trkpt><trkpt lat="41.15597184209836" lon="9.415369577548779"><ele>7.0</ele><time>2026-04-26T08:35:49Z</time></trkpt><trkpt lat="41.156008838326464" lon="9.415180684710052"><ele>7.0</ele><time>2026-04-26T08:35:50Z</time></trkpt><trkpt lat="41.15602254638369" lon="9.414976772894866"><ele>7.0</ele><time>2026-04-26T08:35:51Z</time></trkpt><trkpt lat="41.1560100041296" lon="9.414761196065788"><ele>7.0</ele><time>2026-04-26T08:35:52Z</time></trkpt><trkpt lat="41.15599232994233" lon="9.414531402631454"><ele>7.0</ele><time>2026-04-26T08:35:53Z</time></trkpt><trkpt lat="41.15598817802942" lon="9.414294067190554"><ele>7.0</ele><time>2026-04-26T08:35:54Z</time></trkpt><trkpt lat="41.155936122859714" lon="9.414065759775012"><ele>7.0</ele><time>2026-04-26T08:35:55Z</time></trkpt><trkpt lat="41.15590762009364" lon="9.413826023185598"><ele>6.333333333333334</ele><time>2026-04-26T08:35:56Z</time></trkpt><trkpt lat="41.15586201407021" lon="9.413584137352027"><ele>5.666666666666667</ele><time>2026-04-26T08:35:57Z</time></trkpt><trkpt lat="41.155816077607085" lon="9.413340498873922"><ele>5.0</ele><time>2026-04-26T08:35:58Z</time></trkpt><trkpt lat="41.15577048595379" lon="9.413101376170706"><ele>4.333333333333334</ele><time>2026-04-26T08:35:59Z</time></trkpt><trkpt lat="41.15571067258195" lon="9.412879535907221"><ele>3.666666666666667</ele><time>2026-04-26T08:36:00Z</time></trkpt><trkpt lat="41.15567101854815" lon="9.412672194790987"><ele>3.0</ele><time>2026-04-26T08:36:01Z</time></trkpt><trkpt lat="41.15564765196931" lon="9.412462597865424"><ele>4.25</ele><time>2026-04-26T08:36:02Z</time></trkpt><trkpt lat="41.15559463746095" lon="9.412273910872342"><ele>5.5</ele><time>2026-04-26T08:36:03Z</time></trkpt><trkpt lat="41.15555707057606" lon="9.412093864194812"><ele>6.75</ele><time>2026-04-26T08:36:04Z</time></trkpt><trkpt lat="41.155513230820326" lon="9.411922361280961"><ele>8.0</ele><time>2026-04-26T08:36:05Z</time></trkpt><trkpt lat="41.155459963953334" lon="9.411769554298647"><ele>8.0</ele><time>2026-04-26T08:36:06Z</time></trkpt><trkpt lat="41.15539318716257" lon="9.411633641084071"><ele>8.0</ele><time>2026-04-26T08:36:07Z</time></trkpt><trkpt lat="41.15531034938817" lon="9.411517322814461"><ele>8.0</ele><time>2026-04-26T08:36:08Z</time></trkpt><trkpt lat="41.155218973273996" lon="9.411409321971284"><ele>8.0</ele><time>2026-04-26T08:36:09Z</time></trkpt><trkpt lat="41.15514905988748" lon="9.411291070380987"><ele>7.333333333333333</ele><time>2026-04-26T08:36:10Z</time></trkpt><trkpt lat="41.15508759432784" lon="9.411193645604765"><ele>6.666666666666666</ele><time>2026-04-26T08:36:11Z</time></trkpt><trkpt lat="41.15504342441314" lon="9.41109044260935"><ele>6.0</ele><time>2026-04-26T08:36:12Z</time></trkpt><trkpt lat="41.155032640602684" lon="9.410982884294706"><ele>5.333333333333333</ele><time>2026-04-26T08:36:13Z</time></trkpt><trkpt lat="41.155054032143816" lon="9.410873533623588"><ele>4.666666666666666</ele><time>2026-04-26T08:36:14Z</time></trkpt><trkpt lat="41.15511118178631" lon="9.410786607269472"><ele>4.0</ele><time>2026-04-26T08:36:15Z</time></trkpt><trkpt lat="41.15518940778853" lon="9.410682262687793"><ele>4.0</ele><time>2026-04-26T08:36:16Z</time></trkpt><trkpt lat="41.155242489461195" lon="9.410533664025865"><ele>4.0</ele><time>2026-04-26T08:36:17Z</time></trkpt><trkpt lat="41.15528587904211" lon="9.41035941407816"><ele>4.0</ele><time>2026-04-26T08:36:18Z</time></trkpt><trkpt lat="41.155308672680576" lon="9.410145764562296"><ele>4.0</ele><time>2026-04-26T08:36:19Z</time></trkpt><trkpt lat="41.155326930408556" lon="9.409910517504025"><ele>5.75</ele><time>2026-04-26T08:36:20Z</time></trkpt><trkpt lat="41.15534259251927" lon="9.409703558729188"><ele>7.5</ele><time>2026-04-26T08:36:21Z</time></trkpt><trkpt lat="41.15535332180635" lon="9.409523421684765"><ele>9.25</ele><time>2026-04-26T08:36:22Z</time></trkpt><trkpt lat="41.15535924961482" lon="9.409356172344888"><ele>11.0</ele><time>2026-04-26T08:36:23Z</time></trkpt><trkpt lat="41.15535635662579" lon="9.409196252791835"><ele>11.0</ele><time>2026-04-26T08:36:24Z</time></trkpt><trkpt lat="41.15533762738827" lon="9.409042973741846"><ele>11.0</ele><time>2026-04-26T08:36:25Z</time></trkpt><trkpt lat="41.155290828637604" lon="9.408900562308606"><ele>11.0</ele><time>2026-04-26T08:36:26Z</time></trkpt><trkpt lat="41.155213477562654" lon="9.40878770359366"><ele>11.0</ele><time>2026-04-26T08:36:27Z</time></trkpt><trkpt lat="41.155122211392" lon="9.408699638738707"><ele>10.333333333333332</ele><time>2026-04-26T08:36:28Z</time></trkpt><trkpt lat="41.15505666422596" lon="9.408593415096941"><ele>9.666666666666666</ele><time>2026-04-26T08:36:29Z</time></trkpt><trkpt lat="41.155023869786746" lon="9.408494732217095"><ele>9.0</ele><time>2026-04-26T08:36:30Z</time></trkpt><trkpt lat="41.155017041373554" lon="9.408391777894341"><ele>8.333333333333334</ele><time>2026-04-26T08:36:31Z</time></trkpt><trkpt lat="41.15504783677925" lon="9.408300291226881"><ele>7.666666666666667</ele><time>2026-04-26T08:36:32Z</time></trkpt><trkpt lat="41.155095863447514" lon="9.40820959377928"><ele>7.0</ele><time>2026-04-26T08:36:33Z</time></trkpt><trkpt lat="41.15517567112466" lon="9.408122366454299"><ele>7.0</ele><time>2026-04-26T08:36:34Z</time></trkpt><trkpt lat="41.1552846580688" lon="9.408009859236238"><ele>7.0</ele><time>2026-04-26T08:36:35Z</time></trkpt><trkpt lat="41.15541791430395" lon="9.407876784608145"><ele>7.0</ele><time>2026-04-26T08:36:36Z</time></trkpt><trkpt lat="41.15556586841369" lon="9.407742441041062"><ele>6.666666666666667</ele><time>2026-04-26T08:36:37Z</time></trkpt><trkpt lat="41.15570515909312" lon="9.407623478732969"><ele>6.333333333333334</ele><time>2026-04-26T08:36:38Z</time></trkpt><trkpt lat="41.15582093965424" lon="9.40749970579326"><ele>6.0</ele><time>2026-04-26T08:36:39Z</time></trkpt><trkpt lat="41.155940503042906" lon="9.407405350813445"><ele>6.0</ele><time>2026-04-26T08:36:40Z</time></trkpt><trkpt lat="41.1560479097919" lon="9.407302977715677"><ele>6.0</ele><time>2026-04-26T08:36:41Z</time></trkpt><trkpt lat="41.15614873180725" lon="9.407186944164584"><ele>6.0</ele><time>2026-04-26T08:36:42Z</time></trkpt><trkpt lat="41.156253349586684" lon="9.407054264699171"><ele>6.0</ele><time>2026-04-26T08:36:43Z</time></trkpt><trkpt lat="41.15634004032453" lon="9.406878972104643"><ele>6.333333333333334</ele><time>2026-04-26T08:36:44Z</time></trkpt><trkpt lat="41.15642230701335" lon="9.406689332044412"><ele>6.666666666666667</ele><time>2026-04-26T08:36:45Z</time></trkpt><trkpt lat="41.15650712965997" lon="9.40648825958112"><ele>7.0</ele><time>2026-04-26T08:36:46Z</time></trkpt><trkpt lat="41.15658658853905" lon="9.406291819111356"><ele>7.0</ele><time>2026-04-26T08:36:47Z</time></trkpt><trkpt lat="41.15666409809004" lon="9.406115561484969"><ele>7.0</ele><time>2026-04-26T08:36:48Z</time></trkpt><trkpt lat="41.156742099224616" lon="9.405949446800788"><ele>7.0</ele><time>2026-04-26T08:36:49Z</time></trkpt><trkpt lat="41.15680965624713" lon="9.405784687658084"><ele>7.0</ele><time>2026-04-26T08:36:50Z</time></trkpt><trkpt lat="41.156856500691106" lon="9.405616655607874"><ele>8.0</ele><time>2026-04-26T08:36:51Z</time></trkpt><trkpt lat="41.15686875130532" lon="9.405433856232738"><ele>9.0</ele><time>2026-04-26T08:36:52Z</time></trkpt><trkpt lat="41.15687442173914" lon="9.405254858564845"><ele>10.0</ele><time>2026-04-26T08:36:53Z</time></trkpt><trkpt lat="41.15685549657728" lon="9.405077689693238"><ele>11.0</ele><time>2026-04-26T08:36:54Z</time></trkpt><trkpt lat="41.156813409978945" lon="9.40490283694307"><ele>11.0</ele><time>2026-04-26T08:36:55Z</time></trkpt><trkpt lat="41.15674605758609" lon="9.404737414958346"><ele>11.0</ele><time>2026-04-26T08:36:56Z</time></trkpt><trkpt lat="41.15665464675546" lon="9.404571594154412"><ele>11.0</ele><time>2026-04-26T08:36:57Z</time></trkpt><trkpt lat="41.15654594339014" lon="9.404402573728829"><ele>12.5</ele><time>2026-04-26T08:36:58Z</time></trkpt><trkpt lat="41.15648709723014" lon="9.404222452990714"><ele>14.0</ele><time>2026-04-26T08:36:59Z</time></trkpt><trkpt lat="41.1564277013341" lon="9.40405642195907"><ele>15.5</ele><time>2026-04-26T08:37:00Z</time></trkpt><trkpt lat="41.15638224677391" lon="9.403910833005837"><ele>17.0</ele><time>2026-04-26T08:37:01Z</time></trkpt><trkpt lat="41.156376563144455" lon="9.403777395925097"><ele>17.0</ele><time>2026-04-26T08:37:02Z</time></trkpt><trkpt lat="41.156396021955594" lon="9.40363002718043"><ele>17.0</ele><time>2026-04-26T08:37:03Z</time></trkpt><trkpt lat="41.156420740999856" lon="9.403436181108459"><ele>17.0</ele><time>2026-04-26T08:37:04Z</time></trkpt><trkpt lat="41.15643761929718" lon="9.40320726087226"><ele>17.0</ele><time>2026-04-26T08:37:05Z</time></trkpt><trkpt lat="41.15645297339575" lon="9.402986896574369"><ele>16.25</ele><time>2026-04-26T08:37:06Z</time></trkpt><trkpt lat="41.15645555546765" lon="9.40279607231876"><ele>15.5</ele><time>2026-04-26T08:37:07Z</time></trkpt><trkpt lat="41.15649345300493" lon="9.40261321022255"><ele>14.75</ele><time>2026-04-26T08:37:08Z</time></trkpt><trkpt lat="41.156559052909834" lon="9.402421903772435"><ele>14.0</ele><time>2026-04-26T08:37:09Z</time></trkpt><trkpt lat="41.15662555154326" lon="9.402203856506679"><ele>14.666666666666668</ele><time>2026-04-26T08:37:10Z</time></trkpt><trkpt lat="41.156703357834495" lon="9.401956807248691"><ele>15.333333333333332</ele><time>2026-04-26T08:37:11Z</time></trkpt><trkpt lat="41.156788709307804" lon="9.401685798334265"><ele>16.0</ele><time>2026-04-26T08:37:12Z</time></trkpt><trkpt lat="41.15687914225853" lon="9.401398656369208"><ele>20.0</ele><time>2026-04-26T08:37:13Z</time></trkpt><trkpt lat="41.1569760471868" lon="9.40109555287714"><ele>24.0</ele><time>2026-04-26T08:37:14Z</time></trkpt><trkpt lat="41.1570860260581" lon="9.40078761473996"><ele>28.5</ele><time>2026-04-26T08:37:15Z</time></trkpt><trkpt lat="41.15720588999329" lon="9.400484483851105"><ele>33.0</ele><time>2026-04-26T08:37:16Z</time></trkpt><trkpt lat="41.157318889624825" lon="9.400202443605409"><ele>28.0</ele><time>2026-04-26T08:37:17Z</time></trkpt><trkpt lat="41.15742500498872" lon="9.399940153416564"><ele>23.0</ele><time>2026-04-26T08:37:18Z</time></trkpt><trkpt lat="41.15752779115816" lon="9.399689735307689"><ele>18.0</ele><time>2026-04-26T08:37:19Z</time></trkpt><trkpt lat="41.15762995055155" lon="9.399453839431356"><ele>18.0</ele><time>2026-04-26T08:37:20Z</time></trkpt><trkpt lat="41.15773882851867" lon="9.39923451773547"><ele>18.0</ele><time>2026-04-26T08:37:21Z</time></trkpt><trkpt lat="41.157853489704316" lon="9.399023840419261"><ele>18.0</ele><time>2026-04-26T08:37:22Z</time></trkpt><trkpt lat="41.1579706394119" lon="9.398813477543934"><ele>19.333333333333332</ele><time>2026-04-26T08:37:23Z</time></trkpt><trkpt lat="41.15808217845334" lon="9.39860858946824"><ele>20.666666666666664</ele><time>2026-04-26T08:37:24Z</time></trkpt><trkpt lat="41.15819645318189" lon="9.39839818517831"><ele>22.0</ele><time>2026-04-26T08:37:25Z</time></trkpt><trkpt lat="41.158304283396156" lon="9.398199646725562"><ele>20.25</ele><time>2026-04-26T08:37:26Z</time></trkpt><trkpt lat="41.15840500134744" lon="9.398014203027037"><ele>18.5</ele><time>2026-04-26T08:37:27Z</time></trkpt><trkpt lat="41.15849302950503" lon="9.39785212424692"><ele>16.75</ele><time>2026-04-26T08:37:28Z</time></trkpt><trkpt lat="41.15856680527625" lon="9.397716287230217"><ele>15.0</ele><time>2026-04-26T08:37:29Z</time></trkpt><trkpt lat="41.158632366365914" lon="9.397614375263307"><ele>15.0</ele><time>2026-04-26T08:37:30Z</time></trkpt><trkpt lat="41.15869908924585" lon="9.3975309050376"><ele>15.0</ele><time>2026-04-26T08:37:31Z</time></trkpt><trkpt lat="41.15874898390355" lon="9.397453608713889"><ele>15.0</ele><time>2026-04-26T08:37:32Z</time></trkpt><trkpt lat="41.15886480720598" lon="9.39738603269048"><ele>15.0</ele><time>2026-04-26T08:37:34Z</time></trkpt><trkpt lat="41.158944168503496" lon="9.39736778908677"><ele>15.0</ele><time>2026-04-26T08:37:35Z</time></trkpt><trkpt lat="41.1590055739873" lon="9.39732986591786"><ele>15.0</ele><time>2026-04-26T08:37:36Z</time></trkpt><trkpt lat="41.159050269983446" lon="9.397177704450934"><ele>15.6</ele><time>2026-04-26T08:37:38Z</time></trkpt><trkpt lat="41.159033243398554" lon="9.39708669443952"><ele>16.2</ele><time>2026-04-26T08:37:39Z</time></trkpt><trkpt lat="41.1589779193946" lon="9.397013716313163"><ele>16.8</ele><time>2026-04-26T08:37:40Z</time></trkpt><trkpt lat="41.15888710447785" lon="9.396990259967357"><ele>17.4</ele><time>2026-04-26T08:37:41Z</time></trkpt><trkpt lat="41.158785049713835" lon="9.396975412497683"><ele>18.0</ele><time>2026-04-26T08:37:42Z</time></trkpt><trkpt lat="41.158685709441606" lon="9.396923673107587"><ele>18.0</ele><time>2026-04-26T08:37:43Z</time></trkpt><trkpt lat="41.15859957662549" lon="9.396809866616211"><ele>18.0</ele><time>2026-04-26T08:37:44Z</time></trkpt><trkpt lat="41.15849210304986" lon="9.396692705492429"><ele>18.0</ele><time>2026-04-26T08:37:45Z</time></trkpt><trkpt lat="41.15838906392697" lon="9.396580379323487"><ele>18.0</ele><time>2026-04-26T08:37:46Z</time></trkpt><trkpt lat="41.15828722913739" lon="9.396464435966397"><ele>19.75</ele><time>2026-04-26T08:37:47Z</time></trkpt><trkpt lat="41.15818415412606" lon="9.396343067665585"><ele>21.5</ele><time>2026-04-26T08:37:48Z</time></trkpt><trkpt lat="41.15807682260402" lon="9.396216687402193"><ele>23.25</ele><time>2026-04-26T08:37:49Z</time></trkpt><trkpt lat="41.15796668155296" lon="9.396087434742569"><ele>25.0</ele><time>2026-04-26T08:37:50Z</time></trkpt><trkpt lat="41.15785132349411" lon="9.395952064755129"><ele>26.25</ele><time>2026-04-26T08:37:51Z</time></trkpt><trkpt lat="41.1577376551461" lon="9.395818677560623"><ele>27.5</ele><time>2026-04-26T08:37:52Z</time></trkpt><trkpt lat="41.157629316080836" lon="9.395688754377554"><ele>28.75</ele><time>2026-04-26T08:37:53Z</time></trkpt><trkpt lat="41.15752461944423" lon="9.395559757577876"><ele>30.0</ele><time>2026-04-26T08:37:54Z</time></trkpt><trkpt lat="41.15742089577224" lon="9.395434011894793"><ele>34.75</ele><time>2026-04-26T08:37:55Z</time></trkpt><trkpt lat="41.15731259844835" lon="9.395313792854452"><ele>39.5</ele><time>2026-04-26T08:37:56Z</time></trkpt><trkpt lat="41.157194064790154" lon="9.39520069769748"><ele>44.25</ele><time>2026-04-26T08:37:57Z</time></trkpt><trkpt lat="41.15706634370306" lon="9.395089202588284"><ele>49.0</ele><time>2026-04-26T08:37:58Z</time></trkpt><trkpt lat="41.15692831750879" lon="9.39501603949276"><ele>49.0</ele><time>2026-04-26T08:37:59Z</time></trkpt><trkpt lat="41.156812073031155" lon="9.394938156512836"><ele>49.0</ele><time>2026-04-26T08:38:00Z</time></trkpt><trkpt lat="41.15670720346748" lon="9.394871845261157"><ele>49.0</ele><time>2026-04-26T08:38:01Z</time></trkpt><trkpt lat="41.156600481819574" lon="9.3948026848418"><ele>49.0</ele><time>2026-04-26T08:38:02Z</time></trkpt><trkpt lat="41.15648900263178" lon="9.394733675455752"><ele>50.0</ele><time>2026-04-26T08:38:03Z</time></trkpt><trkpt lat="41.15637502310271" lon="9.394638087804346"><ele>51.0</ele><time>2026-04-26T08:38:04Z</time></trkpt><trkpt lat="41.15623489049127" lon="9.394565366055339"><ele>52.0</ele><time>2026-04-26T08:38:05Z</time></trkpt><trkpt lat="41.15610979562741" lon="9.39447794902225"><ele>53.0</ele><time>2026-04-26T08:38:06Z</time></trkpt><trkpt lat="41.15599313725731" lon="9.394406688923219"><ele>53.0</ele><time>2026-04-26T08:38:07Z</time></trkpt><trkpt lat="41.15588741091344" lon="9.394333111168134"><ele>53.0</ele><time>2026-04-26T08:38:08Z</time></trkpt><trkpt lat="41.15579518974792" lon="9.394276550048774"><ele>53.0</ele><time>2026-04-26T08:38:09Z</time></trkpt><trkpt lat="41.15570916835279" lon="9.394253663518718"><ele>53.0</ele><time>2026-04-26T08:38:10Z</time></trkpt><trkpt lat="41.15561423050609" lon="9.394270982826692"><ele>53.0</ele><time>2026-04-26T08:38:11Z</time></trkpt><trkpt lat="41.15549538405529" lon="9.394319038597319"><ele>53.599999999999994</ele><time>2026-04-26T08:38:12Z</time></trkpt><trkpt lat="41.155371271666716" lon="9.394367379576765"><ele>54.199999999999996</ele><time>2026-04-26T08:38:13Z</time></trkpt><trkpt lat="41.155262629368394" lon="9.394391839080553"><ele>54.8</ele><time>2026-04-26T08:38:14Z</time></trkpt><trkpt lat="41.15517067487368" lon="9.394394815692314"><ele>55.4</ele><time>2026-04-26T08:38:15Z</time></trkpt><trkpt lat="41.155072348042" lon="9.394341568109569"><ele>56.0</ele><time>2026-04-26T08:38:16Z</time></trkpt><trkpt lat="41.15493686185175" lon="9.394287172640988"><ele>58.333333333333336</ele><time>2026-04-26T08:38:17Z</time></trkpt><trkpt lat="41.15477287735312" lon="9.394243758551008"><ele>60.66666666666667</ele><time>2026-04-26T08:38:18Z</time></trkpt><trkpt lat="41.154616193987316" lon="9.39418562193385"><ele>63.0</ele><time>2026-04-26T08:38:19Z</time></trkpt><trkpt lat="41.15447907647128" lon="9.394139061156316"><ele>63.0</ele><time>2026-04-26T08:38:20Z</time></trkpt><trkpt lat="41.15435968004451" lon="9.39409692952616"><ele>63.0</ele><time>2026-04-26T08:38:21Z</time></trkpt><trkpt lat="41.154247625209756" lon="9.39406702267497"><ele>63.0</ele><time>2026-04-26T08:38:22Z</time></trkpt><trkpt lat="41.15414802671041" lon="9.394064214955606"><ele>63.0</ele><time>2026-04-26T08:38:23Z</time></trkpt><trkpt lat="41.154055095029385" lon="9.39410276976086"><ele>63.0</ele><time>2026-04-26T08:38:24Z</time></trkpt><trkpt lat="41.153967322372814" lon="9.394172078022422"><ele>63.75</ele><time>2026-04-26T08:38:25Z</time></trkpt><trkpt lat="41.153882136885336" lon="9.394272802870365"><ele>64.5</ele><time>2026-04-26T08:38:26Z</time></trkpt><trkpt lat="41.1537872606814" lon="9.394361446233376"><ele>65.25</ele><time>2026-04-26T08:38:27Z</time></trkpt><trkpt lat="41.153670299363185" lon="9.394407050210681"><ele>66.0</ele><time>2026-04-26T08:38:28Z</time></trkpt><trkpt lat="41.1535399050335" lon="9.394415686256739"><ele>66.0</ele><time>2026-04-26T08:38:29Z</time></trkpt><trkpt lat="41.15342645385406" lon="9.394415055104028"><ele>66.0</ele><time>2026-04-26T08:38:30Z</time></trkpt><trkpt lat="41.15332402656" lon="9.394448180114699"><ele>66.0</ele><time>2026-04-26T08:38:31Z</time></trkpt><trkpt lat="41.15321687578228" lon="9.394532458934938"><ele>66.0</ele><time>2026-04-26T08:38:32Z</time></trkpt><trkpt lat="41.15311808105839" lon="9.394646107329004"><ele>66.66666666666667</ele><time>2026-04-26T08:38:33Z</time></trkpt><trkpt lat="41.153035387277136" lon="9.394747618551742"><ele>67.33333333333333</ele><time>2026-04-26T08:38:34Z</time></trkpt><trkpt lat="41.15296050754885" lon="9.394821899361446"><ele>68.0</ele><time>2026-04-26T08:38:35Z</time></trkpt><trkpt lat="41.152889801757446" lon="9.394849900826017"><ele>68.66666666666666</ele><time>2026-04-26T08:38:36Z</time></trkpt><trkpt lat="41.15282484846796" lon="9.394836690127502"><ele>69.33333333333333</ele><time>2026-04-26T08:38:37Z</time></trkpt><trkpt lat="41.152759582402524" lon="9.39475977884004"><ele>70.0</ele><time>2026-04-26T08:38:38Z</time></trkpt><trkpt lat="41.1526692731355" lon="9.394718020382061"><ele>70.0</ele><time>2026-04-26T08:38:39Z</time></trkpt><trkpt lat="41.152568248909866" lon="9.394664652387805"><ele>70.0</ele><time>2026-04-26T08:38:40Z</time></trkpt><trkpt lat="41.15243377965489" lon="9.394641981272391"><ele>70.0</ele><time>2026-04-26T08:38:41Z</time></trkpt><trkpt lat="41.152288087298786" lon="9.394639904007915"><ele>70.0</ele><time>2026-04-26T08:38:42Z</time></trkpt><trkpt lat="41.1521466874368" lon="9.39464501749392"><ele>70.0</ele><time>2026-04-26T08:38:43Z</time></trkpt><trkpt lat="41.15202328348882" lon="9.394662140472528"><ele>70.0</ele><time>2026-04-26T08:38:44Z</time></trkpt><trkpt lat="41.15190857325006" lon="9.394662584197308"><ele>70.0</ele><time>2026-04-26T08:38:45Z</time></trkpt><trkpt lat="41.151793831343774" lon="9.394657975874154"><ele>70.0</ele><time>2026-04-26T08:38:46Z</time></trkpt><trkpt lat="41.1516785992379" lon="9.394634218700329"><ele>70.0</ele><time>2026-04-26T08:38:47Z</time></trkpt><trkpt lat="41.151569555081025" lon="9.394601635309328"><ele>70.0</ele><time>2026-04-26T08:38:48Z</time></trkpt><trkpt lat="41.15146492523663" lon="9.394583641585362"><ele>70.0</ele><time>2026-04-26T08:38:49Z</time></trkpt><trkpt lat="41.15136241455606" lon="9.394591458742184"><ele>70.0</ele><time>2026-04-26T08:38:50Z</time></trkpt><trkpt lat="41.15125275112162" lon="9.394605265091247"><ele>70.0</ele><time>2026-04-26T08:38:51Z</time></trkpt><trkpt lat="41.15113935106527" lon="9.394618597380228"><ele>71.2</ele><time>2026-04-26T08:38:52Z</time></trkpt><trkpt lat="41.15104329795707" lon="9.394621451324499"><ele>72.4</ele><time>2026-04-26T08:38:53Z</time></trkpt><trkpt lat="41.150961931539456" lon="9.394576528508308"><ele>73.6</ele><time>2026-04-26T08:38:54Z</time></trkpt><trkpt lat="41.15086340818325" lon="9.394527719862781"><ele>74.8</ele><time>2026-04-26T08:38:55Z</time></trkpt><trkpt lat="41.150745192969296" lon="9.394473937876207"><ele>76.0</ele><time>2026-04-26T08:38:56Z</time></trkpt><trkpt lat="41.15062214550036" lon="9.394423531849515"><ele>78.0</ele><time>2026-04-26T08:38:57Z</time></trkpt><trkpt lat="41.150508916131024" lon="9.394375076031574"><ele>80.0</ele><time>2026-04-26T08:38:58Z</time></trkpt><trkpt lat="41.15040347330708" lon="9.394340313919724"><ele>82.0</ele><time>2026-04-26T08:38:59Z</time></trkpt><trkpt lat="41.15029347980718" lon="9.394322705622827"><ele>84.0</ele><time>2026-04-26T08:39:00Z</time></trkpt><trkpt lat="41.15016670088153" lon="9.394326838353336"><ele>84.0</ele><time>2026-04-26T08:39:01Z</time></trkpt><trkpt lat="41.15003388265245" lon="9.394349590473453"><ele>84.0</ele><time>2026-04-26T08:39:02Z</time></trkpt><trkpt lat="41.149897467492465" lon="9.394389162904002"><ele>84.0</ele><time>2026-04-26T08:39:03Z</time></trkpt><trkpt lat="41.14975462125081" lon="9.394454489212752"><ele>84.0</ele><time>2026-04-26T08:39:04Z</time></trkpt><trkpt lat="41.14960107007712" lon="9.394510204475203"><ele>85.33333333333333</ele><time>2026-04-26T08:39:05Z</time></trkpt><trkpt lat="41.1494380053323" lon="9.394568445511558"><ele>86.66666666666666</ele><time>2026-04-26T08:39:06Z</time></trkpt><trkpt lat="41.1492695955605" lon="9.394629673174462"><ele>88.0</ele><time>2026-04-26T08:39:07Z</time></trkpt><trkpt lat="41.14911230480661" lon="9.394705519379714"><ele>93.0</ele><time>2026-04-26T08:39:08Z</time></trkpt><trkpt lat="41.148956874864105" lon="9.394794622873416"><ele>98.0</ele><time>2026-04-26T08:39:09Z</time></trkpt><trkpt lat="41.148803073228976" lon="9.394885628178487"><ele>103.0</ele><time>2026-04-26T08:39:10Z</time></trkpt><trkpt lat="41.14865205432014" lon="9.394972782451358"><ele>103.0</ele><time>2026-04-26T08:39:11Z</time></trkpt><trkpt lat="41.14852222707833" lon="9.395051181909098"><ele>103.0</ele><time>2026-04-26T08:39:12Z</time></trkpt><trkpt lat="41.14840754732817" lon="9.395124585368352"><ele>103.0</ele><time>2026-04-26T08:39:13Z</time></trkpt><trkpt lat="41.14829159807992" lon="9.395211281800322"><ele>103.0</ele><time>2026-04-26T08:39:14Z</time></trkpt><trkpt lat="41.148182502210396" lon="9.395300104699826"><ele>105.0</ele><time>2026-04-26T08:39:15Z</time></trkpt><trkpt lat="41.14807634976528" lon="9.395407340000155"><ele>107.0</ele><time>2026-04-26T08:39:16Z</time></trkpt><trkpt lat="41.1479640565723" lon="9.3955171955832"><ele>109.0</ele><time>2026-04-26T08:39:17Z</time></trkpt><trkpt lat="41.147841342343334" lon="9.39563632576485"><ele>111.0</ele><time>2026-04-26T08:39:18Z</time></trkpt><trkpt lat="41.14772258464815" lon="9.395746415907666"><ele>111.75</ele><time>2026-04-26T08:39:19Z</time></trkpt><trkpt lat="41.147607903035684" lon="9.395846653144426"><ele>112.5</ele><time>2026-04-26T08:39:20Z</time></trkpt><trkpt lat="41.147503484538234" lon="9.395941802412256"><ele>113.25</ele><time>2026-04-26T08:39:21Z</time></trkpt><trkpt lat="41.147411362088285" lon="9.396022259086639"><ele>114.0</ele><time>2026-04-26T08:39:22Z</time></trkpt><trkpt lat="41.14733853766617" lon="9.396080303950212"><ele>115.6</ele><time>2026-04-26T08:39:23Z</time></trkpt><trkpt lat="41.14726645365258" lon="9.396087936618114"><ele>117.2</ele><time>2026-04-26T08:39:24Z</time></trkpt><trkpt lat="41.147203511627175" lon="9.396079661378046"><ele>118.79999999999998</ele><time>2026-04-26T08:39:25Z</time></trkpt><trkpt lat="41.14713092671327" lon="9.39602833210655"><ele>120.39999999999999</ele><time>2026-04-26T08:39:26Z</time></trkpt><trkpt lat="41.1470237901447" lon="9.395976497228174"><ele>122.0</ele><time>2026-04-26T08:39:27Z</time></trkpt><trkpt lat="41.14689419946722" lon="9.395919537064477"><ele>122.0</ele><time>2026-04-26T08:39:28Z</time></trkpt><trkpt lat="41.1467579820306" lon="9.395877555222025"><ele>122.0</ele><time>2026-04-26T08:39:29Z</time></trkpt><trkpt lat="41.14663295603115" lon="9.395828731109425"><ele>122.0</ele><time>2026-04-26T08:39:30Z</time></trkpt><trkpt lat="41.1465057303553" lon="9.39578259621175"><ele>122.0</ele><time>2026-04-26T08:39:31Z</time></trkpt><trkpt lat="41.1463926494241" lon="9.395711779048808"><ele>121.8</ele><time>2026-04-26T08:39:32Z</time></trkpt><trkpt lat="41.146296766664015" lon="9.395648112661204"><ele>121.6</ele><time>2026-04-26T08:39:33Z</time></trkpt><trkpt lat="41.146226918315016" lon="9.395576579806292"><ele>121.39999999999999</ele><time>2026-04-26T08:39:34Z</time></trkpt><trkpt lat="41.14615566373544" lon="9.395504398626272"><ele>121.19999999999999</ele><time>2026-04-26T08:39:35Z</time></trkpt><trkpt lat="41.14612469271248" lon="9.395378987389671"><ele>121.0</ele><time>2026-04-26T08:39:36Z</time></trkpt><trkpt lat="41.14606536648381" lon="9.395237290503042"><ele>122.33333333333334</ele><time>2026-04-26T08:39:37Z</time></trkpt><trkpt lat="41.14599501267817" lon="9.395076491382502"><ele>123.66666666666666</ele><time>2026-04-26T08:39:38Z</time></trkpt><trkpt lat="41.14591038483024" lon="9.394883067898013"><ele>125.0</ele><time>2026-04-26T08:39:39Z</time></trkpt><trkpt lat="41.145826414224636" lon="9.394684525839695"><ele>124.75</ele><time>2026-04-26T08:39:40Z</time></trkpt><trkpt lat="41.145748072662045" lon="9.394494366060236"><ele>124.5</ele><time>2026-04-26T08:39:41Z</time></trkpt><trkpt lat="41.1456771097271" lon="9.394322116471262"><ele>124.25</ele><time>2026-04-26T08:39:42Z</time></trkpt><trkpt lat="41.14559342314542" lon="9.394176040921943"><ele>124.0</ele><time>2026-04-26T08:39:43Z</time></trkpt><trkpt lat="41.145540384407326" lon="9.394006560172405"><ele>125.0</ele><time>2026-04-26T08:39:44Z</time></trkpt><trkpt lat="41.14544591792905" lon="9.393871624411805"><ele>126.0</ele><time>2026-04-26T08:39:45Z</time></trkpt><trkpt lat="41.14535897783546" lon="9.39374349259123"><ele>127.0</ele><time>2026-04-26T08:39:46Z</time></trkpt><trkpt lat="41.145277383009" lon="9.393630511298488"><ele>128.0</ele><time>2026-04-26T08:39:47Z</time></trkpt><trkpt lat="41.14520454111093" lon="9.393522920790792"><ele>127.80000000000001</ele><time>2026-04-26T08:39:48Z</time></trkpt><trkpt lat="41.14513761377109" lon="9.393426004048615"><ele>127.60000000000001</ele><time>2026-04-26T08:39:49Z</time></trkpt><trkpt lat="41.145068353845105" lon="9.393353722080963"><ele>127.39999999999999</ele><time>2026-04-26T08:39:50Z</time></trkpt><trkpt lat="41.144990791914246" lon="9.393317591039771"><ele>127.19999999999999</ele><time>2026-04-26T08:39:51Z</time></trkpt><trkpt lat="41.14489538455833" lon="9.393294315263134"><ele>127.0</ele><time>2026-04-26T08:39:52Z</time></trkpt><trkpt lat="41.1447926782947" lon="9.39323154247421"><ele>127.0</ele><time>2026-04-26T08:39:53Z</time></trkpt><trkpt lat="41.14467500171667" lon="9.393193131368792"><ele>126.99999999999999</ele><time>2026-04-26T08:39:54Z</time></trkpt><trkpt lat="41.1445703658881" lon="9.393149680310145"><ele>126.99999999999999</ele><time>2026-04-26T08:39:55Z</time></trkpt><trkpt lat="41.144476478124055" lon="9.39311184052059"><ele>127.0</ele><time>2026-04-26T08:39:56Z</time></trkpt><trkpt lat="41.14440067582726" lon="9.393071894598483"><ele>127.0</ele><time>2026-04-26T08:39:57Z</time></trkpt><trkpt lat="41.14434384882015" lon="9.392985034328419"><ele>128.2</ele><time>2026-04-26T08:39:58Z</time></trkpt><trkpt lat="41.14428075742865" lon="9.392882761481225"><ele>129.39999999999998</ele><time>2026-04-26T08:39:59Z</time></trkpt><trkpt lat="41.144202189333924" lon="9.3927631380724"><ele>130.60000000000002</ele><time>2026-04-26T08:40:00Z</time></trkpt><trkpt lat="41.14412647664469" lon="9.392647307081372"><ele>131.8</ele><time>2026-04-26T08:40:01Z</time></trkpt><trkpt lat="41.144061187130845" lon="9.392542393810206"><ele>133.0</ele><time>2026-04-26T08:40:02Z</time></trkpt><trkpt lat="41.14400587341024" lon="9.392432260953303"><ele>133.0</ele><time>2026-04-26T08:40:03Z</time></trkpt><trkpt lat="41.14395929564192" lon="9.392317688016279"><ele>133.0</ele><time>2026-04-26T08:40:04Z</time></trkpt><trkpt lat="41.14392054092264" lon="9.392215582639562"><ele>133.0</ele><time>2026-04-26T08:40:05Z</time></trkpt><trkpt lat="41.143873898740864" lon="9.392136355758923"><ele>133.0</ele><time>2026-04-26T08:40:06Z</time></trkpt><trkpt lat="41.14380471984145" lon="9.392086177814603"><ele>133.0</ele><time>2026-04-26T08:40:07Z</time></trkpt><trkpt lat="41.1437290965165" lon="9.39204150369096"><ele>133.0</ele><time>2026-04-26T08:40:08Z</time></trkpt><trkpt lat="41.1436481367597" lon="9.392014228236262"><ele>133.0</ele><time>2026-04-26T08:40:09Z</time></trkpt><trkpt lat="41.14357495032394" lon="9.39202763633312"><ele>133.0</ele><time>2026-04-26T08:40:10Z</time></trkpt><trkpt lat="41.143511754061706" lon="9.392081500650562"><ele>133.0</ele><time>2026-04-26T08:40:11Z</time></trkpt><trkpt lat="41.14345887276995" lon="9.392175696483166"><ele>133.0</ele><time>2026-04-26T08:40:12Z</time></trkpt><trkpt lat="41.14340160257524" lon="9.392295121492628"><ele>133.0</ele><time>2026-04-26T08:40:13Z</time></trkpt><trkpt lat="41.14333252625545" lon="9.39242517224151"><ele>133.0</ele><time>2026-04-26T08:40:14Z</time></trkpt><trkpt lat="41.143262714921676" lon="9.392546053419919"><ele>133.0</ele><time>2026-04-26T08:40:15Z</time></trkpt><trkpt lat="41.143203969659154" lon="9.392648871675599"><ele>133.0</ele><time>2026-04-26T08:40:16Z</time></trkpt><trkpt lat="41.14314761277731" lon="9.39274571047714"><ele>133.0</ele><time>2026-04-26T08:40:17Z</time></trkpt><trkpt lat="41.14309348231013" lon="9.392844414847012"><ele>133.0</ele><time>2026-04-26T08:40:18Z</time></trkpt><trkpt lat="41.143033054595485" lon="9.392954466160056"><ele>132.0</ele><time>2026-04-26T08:40:19Z</time></trkpt><trkpt lat="41.14296765147697" lon="9.393072502982236"><ele>131.0</ele><time>2026-04-26T08:40:20Z</time></trkpt><trkpt lat="41.14290774556753" lon="9.393179777620656"><ele>130.0</ele><time>2026-04-26T08:40:21Z</time></trkpt><trkpt lat="41.14285027510118" lon="9.393272682908613"><ele>129.0</ele><time>2026-04-26T08:40:22Z</time></trkpt><trkpt lat="41.14278170708932" lon="9.393337176790585"><ele>128.0</ele><time>2026-04-26T08:40:23Z</time></trkpt><trkpt lat="41.14269943395322" lon="9.393374530812343"><ele>128.0</ele><time>2026-04-26T08:40:24Z</time></trkpt><trkpt lat="41.142607845484044" lon="9.393394680770292"><ele>128.0</ele><time>2026-04-26T08:40:25Z</time></trkpt><trkpt lat="41.142505914576255" lon="9.393410367575852"><ele>128.0</ele><time>2026-04-26T08:40:26Z</time></trkpt><trkpt lat="41.14239825194495" lon="9.393426171863062"><ele>128.0</ele><time>2026-04-26T08:40:27Z</time></trkpt><trkpt lat="41.14227878998396" lon="9.393444582238919"><ele>128.0</ele><time>2026-04-26T08:40:28Z</time></trkpt><trkpt lat="41.142155016879514" lon="9.393475091227375"><ele>128.6</ele><time>2026-04-26T08:40:29Z</time></trkpt><trkpt lat="41.142031077320496" lon="9.393505453292539"><ele>129.20000000000002</ele><time>2026-04-26T08:40:30Z</time></trkpt><trkpt lat="41.14191655248091" lon="9.393517107527812"><ele>129.8</ele><time>2026-04-26T08:40:31Z</time></trkpt><trkpt lat="41.14181117654821" lon="9.393520350196475"><ele>130.4</ele><time>2026-04-26T08:40:32Z</time></trkpt><trkpt lat="41.141724436900155" lon="9.393532651190853"><ele>131.0</ele><time>2026-04-26T08:40:33Z</time></trkpt><trkpt lat="41.14165786872392" lon="9.393573639781785"><ele>131.0</ele><time>2026-04-26T08:40:34Z</time></trkpt><trkpt lat="41.1416163614577" lon="9.393640187638562"><ele>131.0</ele><time>2026-04-26T08:40:35Z</time></trkpt><trkpt lat="41.14155404974496" lon="9.393772660429091"><ele>131.0</ele><time>2026-04-26T08:40:37Z</time></trkpt><trkpt lat="41.14144585884165" lon="9.393643891355294"><ele>131.0</ele><time>2026-04-26T08:40:42Z</time></trkpt><trkpt lat="41.14139009680332" lon="9.393556853238579"><ele>131.0</ele><time>2026-04-26T08:40:43Z</time></trkpt><trkpt lat="41.1413156798582" lon="9.393484897248825"><ele>133.0</ele><time>2026-04-26T08:40:44Z</time></trkpt><trkpt lat="41.14123570538949" lon="9.393398513174418"><ele>135.0</ele><time>2026-04-26T08:40:45Z</time></trkpt><trkpt lat="41.14114180516759" lon="9.393318543864703"><ele>137.0</ele><time>2026-04-26T08:40:46Z</time></trkpt><trkpt lat="41.14103684592862" lon="9.39325580945624"><ele>139.0</ele><time>2026-04-26T08:40:47Z</time></trkpt><trkpt lat="41.14092301235524" lon="9.39318943760261"><ele>139.0</ele><time>2026-04-26T08:40:48Z</time></trkpt><trkpt lat="41.14080457554947" lon="9.393121368079823"><ele>139.0</ele><time>2026-04-26T08:40:49Z</time></trkpt><trkpt lat="41.14068247403234" lon="9.393048403303803"><ele>139.0</ele><time>2026-04-26T08:40:50Z</time></trkpt><trkpt lat="41.140556318899904" lon="9.392977099482176"><ele>139.0</ele><time>2026-04-26T08:40:51Z</time></trkpt><trkpt lat="41.14043261139356" lon="9.392910866398463"><ele>138.5</ele><time>2026-04-26T08:40:52Z</time></trkpt><trkpt lat="41.1403146867024" lon="9.392840815926835"><ele>138.0</ele><time>2026-04-26T08:40:53Z</time></trkpt><trkpt lat="41.140189373835156" lon="9.392768930543784"><ele>137.5</ele><time>2026-04-26T08:40:54Z</time></trkpt><trkpt lat="41.14005675384961" lon="9.392691032825804"><ele>137.0</ele><time>2026-04-26T08:40:55Z</time></trkpt><trkpt lat="41.13992239530623" lon="9.39260636627368"><ele>136.0</ele><time>2026-04-26T08:40:56Z</time></trkpt><trkpt lat="41.13979297761456" lon="9.392537948298884"><ele>135.0</ele><time>2026-04-26T08:40:57Z</time></trkpt><trkpt lat="41.139665086571995" lon="9.392463578506328"><ele>134.0</ele><time>2026-04-26T08:40:58Z</time></trkpt><trkpt lat="41.139542129065774" lon="9.392393500103328"><ele>133.0</ele><time>2026-04-26T08:40:59Z</time></trkpt><trkpt lat="41.139420682483205" lon="9.39232138424492"><ele>133.0</ele><time>2026-04-26T08:41:00Z</time></trkpt><trkpt lat="41.1392976894393" lon="9.39224952198743"><ele>133.0</ele><time>2026-04-26T08:41:01Z</time></trkpt><trkpt lat="41.139166339310336" lon="9.392175238933383"><ele>133.0</ele><time>2026-04-26T08:41:02Z</time></trkpt><trkpt lat="41.13903881433018" lon="9.392103798651286"><ele>133.0</ele><time>2026-04-26T08:41:03Z</time></trkpt><trkpt lat="41.13891635664217" lon="9.392021323714204"><ele>131.4</ele><time>2026-04-26T08:41:04Z</time></trkpt><trkpt lat="41.13880114906308" lon="9.391955860596637"><ele>129.8</ele><time>2026-04-26T08:41:05Z</time></trkpt><trkpt lat="41.13870927864159" lon="9.391883703346227"><ele>128.2</ele><time>2026-04-26T08:41:06Z</time></trkpt><trkpt lat="41.13864369217179" lon="9.391773863454105"><ele>126.6</ele><time>2026-04-26T08:41:07Z</time></trkpt><trkpt lat="41.13859061743866" lon="9.391668767486122"><ele>125.0</ele><time>2026-04-26T08:41:08Z</time></trkpt><trkpt lat="41.13855600330369" lon="9.391546660461632"><ele>125.0</ele><time>2026-04-26T08:41:09Z</time></trkpt><trkpt lat="41.138533823816616" lon="9.391405754298363"><ele>125.0</ele><time>2026-04-26T08:41:10Z</time></trkpt><trkpt lat="41.1385152361966" lon="9.391236449116676"><ele>125.0</ele><time>2026-04-26T08:41:11Z</time></trkpt><trkpt lat="41.13849478681468" lon="9.39104734070493"><ele>125.0</ele><time>2026-04-26T08:41:12Z</time></trkpt><trkpt lat="41.13847291953689" lon="9.390852685783493"><ele>124.25</ele><time>2026-04-26T08:41:13Z</time></trkpt><trkpt lat="41.138448463244785" lon="9.390668912232556"><ele>123.5</ele><time>2026-04-26T08:41:14Z</time></trkpt><trkpt lat="41.13841004495088" lon="9.390499151544937"><ele>122.75</ele><time>2026-04-26T08:41:15Z</time></trkpt><trkpt lat="41.138411127229055" lon="9.390344953582353"><ele>122.0</ele><time>2026-04-26T08:41:16Z</time></trkpt><trkpt lat="41.1384127006152" lon="9.390222456498567"><ele>121.39999999999999</ele><time>2026-04-26T08:41:17Z</time></trkpt><trkpt lat="41.13843759758007" lon="9.39011149031866"><ele>120.79999999999998</ele><time>2026-04-26T08:41:18Z</time></trkpt><trkpt lat="41.13848911456353" lon="9.390005004562042"><ele>120.2</ele><time>2026-04-26T08:41:19Z</time></trkpt><trkpt lat="41.13855427515169" lon="9.389868239310863"><ele>119.6</ele><time>2026-04-26T08:41:20Z</time></trkpt><trkpt lat="41.1386320287797" lon="9.389712663401378"><ele>119.0</ele><time>2026-04-26T08:41:21Z</time></trkpt><trkpt lat="41.13870162348191" lon="9.389579488342337"><ele>118.6</ele><time>2026-04-26T08:41:22Z</time></trkpt><trkpt lat="41.138757696379386" lon="9.389474263459999"><ele>118.2</ele><time>2026-04-26T08:41:23Z</time></trkpt><trkpt lat="41.13880095260145" lon="9.389369558562363"><ele>117.79999999999998</ele><time>2026-04-26T08:41:24Z</time></trkpt><trkpt lat="41.138849673910464" lon="9.389284531099158"><ele>117.39999999999999</ele><time>2026-04-26T08:41:25Z</time></trkpt><trkpt lat="41.138902862681924" lon="9.389184107526509"><ele>117.0</ele><time>2026-04-26T08:41:26Z</time></trkpt><trkpt lat="41.13894340398586" lon="9.389076298974105"><ele>117.0</ele><time>2026-04-26T08:41:27Z</time></trkpt><trkpt lat="41.138952600349796" lon="9.388972472562132"><ele>116.99999999999999</ele><time>2026-04-26T08:41:28Z</time></trkpt><trkpt lat="41.13893712808058" lon="9.388866722661074"><ele>116.99999999999999</ele><time>2026-04-26T08:41:29Z</time></trkpt><trkpt lat="41.13888883391209" lon="9.388762683033919"><ele>117.0</ele><time>2026-04-26T08:41:30Z</time></trkpt><trkpt lat="41.13881738847876" lon="9.388648119226747"><ele>117.0</ele><time>2026-04-26T08:41:31Z</time></trkpt><trkpt lat="41.13874311111801" lon="9.388510723810843"><ele>116.75</ele><time>2026-04-26T08:41:32Z</time></trkpt><trkpt lat="41.138668102840604" lon="9.38836946758226"><ele>116.5</ele><time>2026-04-26T08:41:33Z</time></trkpt><trkpt lat="41.1385918221883" lon="9.388228006339109"><ele>116.25</ele><time>2026-04-26T08:41:34Z</time></trkpt><trkpt lat="41.13850491161445" lon="9.388088408838717"><ele>116.0</ele><time>2026-04-26T08:41:35Z</time></trkpt><trkpt lat="41.13842118107669" lon="9.387946931040782"><ele>116.0</ele><time>2026-04-26T08:41:36Z</time></trkpt><trkpt lat="41.13833844344383" lon="9.3878201355429"><ele>116.0</ele><time>2026-04-26T08:41:37Z</time></trkpt><trkpt lat="41.13827239193658" lon="9.387712668889357"><ele>116.0</ele><time>2026-04-26T08:41:38Z</time></trkpt><trkpt lat="41.13822348873698" lon="9.387620047188385"><ele>116.0</ele><time>2026-04-26T08:41:39Z</time></trkpt><trkpt lat="41.13818961090662" lon="9.387515507454516"><ele>116.0</ele><time>2026-04-26T08:41:40Z</time></trkpt><trkpt lat="41.13818811672181" lon="9.387384653857518"><ele>115.0</ele><time>2026-04-26T08:41:41Z</time></trkpt><trkpt lat="41.13815502866447" lon="9.387243116544903"><ele>114.0</ele><time>2026-04-26T08:41:42Z</time></trkpt><trkpt lat="41.13813952235597" lon="9.38708860541986"><ele>113.0</ele><time>2026-04-26T08:41:43Z</time></trkpt><trkpt lat="41.13811947813451" lon="9.386925273175322"><ele>112.0</ele><time>2026-04-26T08:41:44Z</time></trkpt><trkpt lat="41.138097657703796" lon="9.38675642967042"><ele>112.0</ele><time>2026-04-26T08:41:45Z</time></trkpt><trkpt lat="41.1380770095886" lon="9.386599586622069"><ele>111.99999999999999</ele><time>2026-04-26T08:41:46Z</time></trkpt><trkpt lat="41.13805874763324" lon="9.386461824385202"><ele>111.99999999999999</ele><time>2026-04-26T08:41:47Z</time></trkpt><trkpt lat="41.13804125713371" lon="9.386328333009967"><ele>112.0</ele><time>2026-04-26T08:41:48Z</time></trkpt><trkpt lat="41.138015823536755" lon="9.386191224715924"><ele>112.0</ele><time>2026-04-26T08:41:49Z</time></trkpt><trkpt lat="41.137979220811104" lon="9.386059109090214"><ele>112.19999999999999</ele><time>2026-04-26T08:41:50Z</time></trkpt><trkpt lat="41.13793337999458" lon="9.385939457406302"><ele>112.39999999999999</ele><time>2026-04-26T08:41:51Z</time></trkpt><trkpt lat="41.137870206413545" lon="9.38582606596072"><ele>112.60000000000001</ele><time>2026-04-26T08:41:52Z</time></trkpt><trkpt lat="41.137796351431355" lon="9.38572809114927"><ele>112.80000000000001</ele><time>2026-04-26T08:41:53Z</time></trkpt><trkpt lat="41.13771724113264" lon="9.385648936973793"><ele>113.0</ele><time>2026-04-26T08:41:54Z</time></trkpt><trkpt lat="41.13762572364378" lon="9.385590414863312"><ele>113.0</ele><time>2026-04-26T08:41:55Z</time></trkpt><trkpt lat="41.13751243447431" lon="9.38554957997234"><ele>113.00000000000001</ele><time>2026-04-26T08:41:56Z</time></trkpt><trkpt lat="41.137397476968744" lon="9.385524144744517"><ele>113.00000000000001</ele><time>2026-04-26T08:41:57Z</time></trkpt><trkpt lat="41.13729535538301" lon="9.385494024868136"><ele>113.0</ele><time>2026-04-26T08:41:58Z</time></trkpt><trkpt lat="41.13722045975463" lon="9.385424735606886"><ele>113.0</ele><time>2026-04-26T08:41:59Z</time></trkpt><trkpt lat="41.137169187193" lon="9.385365608538454"><ele>112.33333333333333</ele><time>2026-04-26T08:42:00Z</time></trkpt><trkpt lat="41.137144201804865" lon="9.385282416173547"><ele>111.66666666666666</ele><time>2026-04-26T08:42:01Z</time></trkpt><trkpt lat="41.13714090558991" lon="9.385164716719968"><ele>111.0</ele><time>2026-04-26T08:42:02Z</time></trkpt><trkpt lat="41.137126153387065" lon="9.385038218838737"><ele>110.33333333333334</ele><time>2026-04-26T08:42:03Z</time></trkpt><trkpt lat="41.1371109936695" lon="9.384925021848028"><ele>109.66666666666667</ele><time>2026-04-26T08:42:04Z</time></trkpt><trkpt lat="41.13708982384489" lon="9.384817921540485"><ele>109.0</ele><time>2026-04-26T08:42:05Z</time></trkpt><trkpt lat="41.137062371398635" lon="9.384724063537938"><ele>109.33333333333334</ele><time>2026-04-26T08:42:06Z</time></trkpt><trkpt lat="41.137030308576364" lon="9.384640031909825"><ele>109.66666666666667</ele><time>2026-04-26T08:42:07Z</time></trkpt><trkpt lat="41.13700103008839" lon="9.384557986551114"><ele>110.0</ele><time>2026-04-26T08:42:08Z</time></trkpt><trkpt lat="41.13696132535929" lon="9.384459610840873"><ele>110.33333333333334</ele><time>2026-04-26T08:42:09Z</time></trkpt><trkpt lat="41.13690629109181" lon="9.384360494799928"><ele>110.66666666666667</ele><time>2026-04-26T08:42:10Z</time></trkpt><trkpt lat="41.13682186056402" lon="9.384291263485048"><ele>111.0</ele><time>2026-04-26T08:42:11Z</time></trkpt><trkpt lat="41.136745920575486" lon="9.384214743057576"><ele>111.0</ele><time>2026-04-26T08:42:12Z</time></trkpt><trkpt lat="41.13669649919614" lon="9.384125851329546"><ele>111.0</ele><time>2026-04-26T08:42:13Z</time></trkpt><trkpt lat="41.13664313504829" lon="9.384022313165083"><ele>111.0</ele><time>2026-04-26T08:42:14Z</time></trkpt><trkpt lat="41.13659720575814" lon="9.383899252884314"><ele>111.0</ele><time>2026-04-26T08:42:15Z</time></trkpt><trkpt lat="41.136545331759535" lon="9.383760738850656"><ele>111.0</ele><time>2026-04-26T08:42:16Z</time></trkpt><trkpt lat="41.13647601530417" lon="9.383637210311708"><ele>110.4</ele><time>2026-04-26T08:42:17Z</time></trkpt><trkpt lat="41.13642472615387" lon="9.38351913655538"><ele>109.8</ele><time>2026-04-26T08:42:18Z</time></trkpt><trkpt lat="41.136361040469474" lon="9.383423322007433"><ele>109.20000000000002</ele><time>2026-04-26T08:42:19Z</time></trkpt><trkpt lat="41.136282060900854" lon="9.383349630166819"><ele>108.60000000000001</ele><time>2026-04-26T08:42:20Z</time></trkpt><trkpt lat="41.13618566695109" lon="9.383284197265889"><ele>108.0</ele><time>2026-04-26T08:42:21Z</time></trkpt><trkpt lat="41.13608311243066" lon="9.383208954964758"><ele>108.0</ele><time>2026-04-26T08:42:22Z</time></trkpt><trkpt lat="41.13597637372318" lon="9.38314300432405"><ele>108.0</ele><time>2026-04-26T08:42:23Z</time></trkpt><trkpt lat="41.13586357861304" lon="9.383055889450985"><ele>108.0</ele><time>2026-04-26T08:42:24Z</time></trkpt><trkpt lat="41.13576202322524" lon="9.382953812570191"><ele>108.0</ele><time>2026-04-26T08:42:25Z</time></trkpt><trkpt lat="41.13565681852984" lon="9.382875751784486"><ele>106.75</ele><time>2026-04-26T08:42:26Z</time></trkpt><trkpt lat="41.13554546367533" lon="9.382817266209903"><ele>105.5</ele><time>2026-04-26T08:42:27Z</time></trkpt><trkpt lat="41.13543935190286" lon="9.382739504454133"><ele>104.25</ele><time>2026-04-26T08:42:28Z</time></trkpt><trkpt lat="41.13532806852387" lon="9.382674332140237"><ele>103.0</ele><time>2026-04-26T08:42:29Z</time></trkpt><trkpt lat="41.13521114433659" lon="9.382619945475106"><ele>103.0</ele><time>2026-04-26T08:42:30Z</time></trkpt><trkpt lat="41.13508757058309" lon="9.382571985383668"><ele>103.0</ele><time>2026-04-26T08:42:31Z</time></trkpt><trkpt lat="41.134959268327805" lon="9.38252388145019"><ele>103.0</ele><time>2026-04-26T08:42:32Z</time></trkpt><trkpt lat="41.13483299172302" lon="9.382469822596285"><ele>103.0</ele><time>2026-04-26T08:42:33Z</time></trkpt><trkpt lat="41.13471030749765" lon="9.38239902130955"><ele>102.5</ele><time>2026-04-26T08:42:34Z</time></trkpt><trkpt lat="41.13459049965716" lon="9.382317547616509"><ele>102.0</ele><time>2026-04-26T08:42:35Z</time></trkpt><trkpt lat="41.1344684944038" lon="9.382232699331299"><ele>101.5</ele><time>2026-04-26T08:42:36Z</time></trkpt><trkpt lat="41.13434305457602" lon="9.382148779396768"><ele>101.0</ele><time>2026-04-26T08:42:37Z</time></trkpt><trkpt lat="41.13422048440641" lon="9.382058012505047"><ele>101.0</ele><time>2026-04-26T08:42:38Z</time></trkpt><trkpt lat="41.134086993803976" lon="9.381987499404069"><ele>101.0</ele><time>2026-04-26T08:42:39Z</time></trkpt><trkpt lat="41.1339484657901" lon="9.381927561597614"><ele>101.0</ele><time>2026-04-26T08:42:40Z</time></trkpt><trkpt lat="41.133811778591564" lon="9.381863602916415"><ele>101.0</ele><time>2026-04-26T08:42:41Z</time></trkpt><trkpt lat="41.13367830570269" lon="9.381798751466746"><ele>101.0</ele><time>2026-04-26T08:42:42Z</time></trkpt><trkpt lat="41.133538330764466" lon="9.381725959185692"><ele>101.0</ele><time>2026-04-26T08:42:43Z</time></trkpt><trkpt lat="41.133405095927564" lon="9.38165131997167"><ele>101.0</ele><time>2026-04-26T08:42:44Z</time></trkpt><trkpt lat="41.13327704536811" lon="9.381584830964101"><ele>101.0</ele><time>2026-04-26T08:42:45Z</time></trkpt><trkpt lat="41.1331444484295" lon="9.381534218205598"><ele>100.5</ele><time>2026-04-26T08:42:46Z</time></trkpt><trkpt lat="41.13300266185984" lon="9.381500524355195"><ele>100.0</ele><time>2026-04-26T08:42:47Z</time></trkpt><trkpt lat="41.132860823472" lon="9.381482197063075"><ele>99.5</ele><time>2026-04-26T08:42:48Z</time></trkpt><trkpt lat="41.13272869747477" lon="9.381463305049628"><ele>99.0</ele><time>2026-04-26T08:42:49Z</time></trkpt><trkpt lat="41.132604585866524" lon="9.381453451952803"><ele>99.0</ele><time>2026-04-26T08:42:50Z</time></trkpt><trkpt lat="41.13248317556338" lon="9.381453234587374"><ele>99.0</ele><time>2026-04-26T08:42:51Z</time></trkpt><trkpt lat="41.132360888769284" lon="9.381444287410224"><ele>99.0</ele><time>2026-04-26T08:42:52Z</time></trkpt><trkpt lat="41.13224389563423" lon="9.381408411139526"><ele>99.0</ele><time>2026-04-26T08:42:53Z</time></trkpt><trkpt lat="41.13214512116092" lon="9.381318936177735"><ele>98.25</ele><time>2026-04-26T08:42:54Z</time></trkpt><trkpt lat="41.132040711336145" lon="9.381225729784973"><ele>97.5</ele><time>2026-04-26T08:42:55Z</time></trkpt><trkpt lat="41.13193044822631" lon="9.381116585458846"><ele>96.75</ele><time>2026-04-26T08:42:56Z</time></trkpt><trkpt lat="41.13180060492072" lon="9.381008950538591"><ele>96.0</ele><time>2026-04-26T08:42:57Z</time></trkpt><trkpt lat="41.131683691967666" lon="9.380886447177279"><ele>96.0</ele><time>2026-04-26T08:42:58Z</time></trkpt><trkpt lat="41.13157394317284" lon="9.380774474510893"><ele>96.0</ele><time>2026-04-26T08:42:59Z</time></trkpt><trkpt lat="41.13146807048673" lon="9.380665010128439"><ele>96.0</ele><time>2026-04-26T08:43:00Z</time></trkpt><trkpt lat="41.13137015525107" lon="9.380562051966841"><ele>96.0</ele><time>2026-04-26T08:43:01Z</time></trkpt><trkpt lat="41.13126932157481" lon="9.380466065098059"><ele>94.0</ele><time>2026-04-26T08:43:02Z</time></trkpt><trkpt lat="41.13116634820292" lon="9.380379796721812"><ele>92.0</ele><time>2026-04-26T08:43:03Z</time></trkpt><trkpt lat="41.13105735139224" lon="9.380308737965402"><ele>90.0</ele><time>2026-04-26T08:43:04Z</time></trkpt><trkpt lat="41.130945725435176" lon="9.38024521096137"><ele>88.0</ele><time>2026-04-26T08:43:05Z</time></trkpt><trkpt lat="41.130821150280774" lon="9.380180418514742"><ele>88.5</ele><time>2026-04-26T08:43:06Z</time></trkpt><trkpt lat="41.13068926804233" lon="9.380118788154297"><ele>89.0</ele><time>2026-04-26T08:43:07Z</time></trkpt><trkpt lat="41.13055088663673" lon="9.380058583861619"><ele>89.5</ele><time>2026-04-26T08:43:08Z</time></trkpt><trkpt lat="41.13041993686208" lon="9.380004522933122"><ele>90.0</ele><time>2026-04-26T08:43:09Z</time></trkpt><trkpt lat="41.130310183729705" lon="9.379959240538781"><ele>90.0</ele><time>2026-04-26T08:43:10Z</time></trkpt><trkpt lat="41.13021395379633" lon="9.379925124310185"><ele>90.0</ele><time>2026-04-26T08:43:11Z</time></trkpt><trkpt lat="41.13013200077561" lon="9.379884278641065"><ele>90.0</ele><time>2026-04-26T08:43:12Z</time></trkpt><trkpt lat="41.13006063718551" lon="9.379825530278655"><ele>90.0</ele><time>2026-04-26T08:43:13Z</time></trkpt><trkpt lat="41.130009471304874" lon="9.379706393066158"><ele>90.0</ele><time>2026-04-26T08:43:14Z</time></trkpt><trkpt lat="41.12992720402634" lon="9.379572181254733"><ele>90.25</ele><time>2026-04-26T08:43:15Z</time></trkpt><trkpt lat="41.129816158539704" lon="9.379428138774726"><ele>90.5</ele><time>2026-04-26T08:43:16Z</time></trkpt><trkpt lat="41.129713579637496" lon="9.379271030202585"><ele>90.75</ele><time>2026-04-26T08:43:17Z</time></trkpt><trkpt lat="41.129612698986996" lon="9.379149704619092"><ele>91.0</ele><time>2026-04-26T08:43:18Z</time></trkpt><trkpt lat="41.12951481418414" lon="9.379054759052261"><ele>91.0</ele><time>2026-04-26T08:43:19Z</time></trkpt><trkpt lat="41.129396266523564" lon="9.378968758707066"><ele>91.0</ele><time>2026-04-26T08:43:20Z</time></trkpt><trkpt lat="41.1292589049758" lon="9.37888324223889"><ele>91.0</ele><time>2026-04-26T08:43:21Z</time></trkpt><trkpt lat="41.1291309321831" lon="9.378802253139611"><ele>91.0</ele><time>2026-04-26T08:43:22Z</time></trkpt><trkpt lat="41.129017520498046" lon="9.378723485705766"><ele>90.5</ele><time>2026-04-26T08:43:22.999Z</time></trkpt><trkpt lat="41.12890995586246" lon="9.378648045959801"><ele>90.0</ele><time>2026-04-26T08:43:23.999Z</time></trkpt><trkpt lat="41.128800296368816" lon="9.378566798590292"><ele>89.5</ele><time>2026-04-26T08:43:24.999Z</time></trkpt><trkpt lat="41.12868539230463" lon="9.378481380918824"><ele>89.0</ele><time>2026-04-26T08:43:25.999Z</time></trkpt><trkpt lat="41.12857380938091" lon="9.37839898813772"><ele>89.0</ele><time>2026-04-26T08:43:26.999Z</time></trkpt><trkpt lat="41.12846891677184" lon="9.378329549538115"><ele>89.0</ele><time>2026-04-26T08:43:27.999Z</time></trkpt><trkpt lat="41.1283587766778" lon="9.378278463287103"><ele>89.0</ele><time>2026-04-26T08:43:28.999Z</time></trkpt><trkpt lat="41.12822633863341" lon="9.378250737060876"><ele>89.0</ele><time>2026-04-26T08:43:29.999Z</time></trkpt><trkpt lat="41.12806909619931" lon="9.378244510337904"><ele>89.5</ele><time>2026-04-26T08:43:30.999Z</time></trkpt><trkpt lat="41.12791047367451" lon="9.378246776618713"><ele>90.0</ele><time>2026-04-26T08:43:31.999Z</time></trkpt><trkpt lat="41.12777580562615" lon="9.378242190524224"><ele>90.5</ele><time>2026-04-26T08:43:32.999Z</time></trkpt><trkpt lat="41.12766956711404" lon="9.378224114112532"><ele>91.0</ele><time>2026-04-26T08:43:33.999Z</time></trkpt><trkpt lat="41.12760103653384" lon="9.378175981745997"><ele>91.0</ele><time>2026-04-26T08:43:34.999Z</time></trkpt><trkpt lat="41.12750080317924" lon="9.378128184810652"><ele>91.0</ele><time>2026-04-26T08:43:36.999Z</time></trkpt><trkpt lat="41.127451514759365" lon="9.37791326864642"><ele>91.0</ele><time>2026-04-26T08:43:38.999Z</time></trkpt><trkpt lat="41.127385253317705" lon="9.377730833233562"><ele>91.0</ele><time>2026-04-26T08:43:39.999Z</time></trkpt><trkpt lat="41.12727873158287" lon="9.377555405226827"><ele>90.33333333333333</ele><time>2026-04-26T08:43:40.999Z</time></trkpt><trkpt lat="41.12720241102865" lon="9.377371380579913"><ele>89.66666666666667</ele><time>2026-04-26T08:43:41.999Z</time></trkpt><trkpt lat="41.12711594148252" lon="9.377206573538169"><ele>89.0</ele><time>2026-04-26T08:43:42.999Z</time></trkpt><trkpt lat="41.127036479742124" lon="9.37704907968127"><ele>88.25</ele><time>2026-04-26T08:43:43.999Z</time></trkpt><trkpt lat="41.12695404806633" lon="9.376889737252807"><ele>87.5</ele><time>2026-04-26T08:43:44.999Z</time></trkpt><trkpt lat="41.12686693849927" lon="9.376727081353108"><ele>86.75</ele><time>2026-04-26T08:43:45.999Z</time></trkpt><trkpt lat="41.126764582005826" lon="9.376576350272845"><ele>86.0</ele><time>2026-04-26T08:43:47Z</time></trkpt><trkpt lat="41.126668120167096" lon="9.376440456796724"><ele>84.75</ele><time>2026-04-26T08:43:48Z</time></trkpt><trkpt lat="41.12658799254887" lon="9.376295046088385"><ele>83.5</ele><time>2026-04-26T08:43:49Z</time></trkpt><trkpt lat="41.126510814809365" lon="9.376140937097157"><ele>82.25</ele><time>2026-04-26T08:43:50Z</time></trkpt><trkpt lat="41.126436698774896" lon="9.375983128523254"><ele>81.0</ele><time>2026-04-26T08:43:51Z</time></trkpt><trkpt lat="41.1263646645259" lon="9.375831297592727"><ele>81.0</ele><time>2026-04-26T08:43:52Z</time></trkpt><trkpt lat="41.1262757364389" lon="9.375694556585728"><ele>81.0</ele><time>2026-04-26T08:43:53Z</time></trkpt><trkpt lat="41.1261949804312" lon="9.375568209383575"><ele>81.0</ele><time>2026-04-26T08:43:54Z</time></trkpt><trkpt lat="41.12609271191893" lon="9.37547029556031"><ele>81.0</ele><time>2026-04-26T08:43:55Z</time></trkpt><trkpt lat="41.125973488055344" lon="9.375384942730372"><ele>80.25</ele><time>2026-04-26T08:43:56Z</time></trkpt><trkpt lat="41.12584582152746" lon="9.375307179704514"><ele>79.5</ele><time>2026-04-26T08:43:57Z</time></trkpt><trkpt lat="41.12571372716059" lon="9.375223761137287"><ele>78.75</ele><time>2026-04-26T08:43:58Z</time></trkpt><trkpt lat="41.12559139203131" lon="9.375109249054272"><ele>78.0</ele><time>2026-04-26T08:43:59Z</time></trkpt><trkpt lat="41.12545735649479" lon="9.375034379950938"><ele>76.75</ele><time>2026-04-26T08:44:00Z</time></trkpt><trkpt lat="41.125336444670566" lon="9.374949023645499"><ele>75.5</ele><time>2026-04-26T08:44:01Z</time></trkpt><trkpt lat="41.12522116197082" lon="9.374862222777496"><ele>74.25</ele><time>2026-04-26T08:44:02Z</time></trkpt><trkpt lat="41.12510391139058" lon="9.374782255398408"><ele>73.0</ele><time>2026-04-26T08:44:03Z</time></trkpt><trkpt lat="41.1249881115992" lon="9.374705554328779"><ele>72.0</ele><time>2026-04-26T08:44:04Z</time></trkpt><trkpt lat="41.12488038513408" lon="9.374628122796505"><ele>71.0</ele><time>2026-04-26T08:44:05Z</time></trkpt><trkpt lat="41.12479441671328" lon="9.374567497076066"><ele>70.0</ele><time>2026-04-26T08:44:06Z</time></trkpt><trkpt lat="41.124727410983844" lon="9.374475709704075"><ele>69.0</ele><time>2026-04-26T08:44:07Z</time></trkpt><trkpt lat="41.12464983253486" lon="9.37437748828676"><ele>68.0</ele><time>2026-04-26T08:44:08Z</time></trkpt><trkpt lat="41.12456338501593" lon="9.374268549178295"><ele>68.0</ele><time>2026-04-26T08:44:09Z</time></trkpt><trkpt lat="41.12446733629297" lon="9.374184041056225"><ele>68.0</ele><time>2026-04-26T08:44:10Z</time></trkpt><trkpt lat="41.124377521586425" lon="9.374082586821183"><ele>68.0</ele><time>2026-04-26T08:44:11Z</time></trkpt><trkpt lat="41.12429040977847" lon="9.373983775554523"><ele>68.0</ele><time>2026-04-26T08:44:12Z</time></trkpt><trkpt lat="41.12420161492142" lon="9.373880761862965"><ele>68.25</ele><time>2026-04-26T08:44:13Z</time></trkpt><trkpt lat="41.12411615213814" lon="9.373770257727891"><ele>68.5</ele><time>2026-04-26T08:44:14Z</time></trkpt><trkpt lat="41.12402351997232" lon="9.373668591473916"><ele>68.75</ele><time>2026-04-26T08:44:15Z</time></trkpt><trkpt lat="41.1239349036254" lon="9.37356150152114"><ele>69.0</ele><time>2026-04-26T08:44:16Z</time></trkpt><trkpt lat="41.12384558100889" lon="9.373454759968883"><ele>69.75</ele><time>2026-04-26T08:44:17Z</time></trkpt><trkpt lat="41.12375634957748" lon="9.373349446989447"><ele>70.5</ele><time>2026-04-26T08:44:18Z</time></trkpt><trkpt lat="41.12367106171085" lon="9.373242620334043"><ele>71.25</ele><time>2026-04-26T08:44:19Z</time></trkpt><trkpt lat="41.12357694886201" lon="9.373133905713896"><ele>72.0</ele><time>2026-04-26T08:44:20Z</time></trkpt><trkpt lat="41.12348002643584" lon="9.373026299076521"><ele>72.0</ele><time>2026-04-26T08:44:21Z</time></trkpt><trkpt lat="41.12339468189568" lon="9.372931398956197"><ele>72.0</ele><time>2026-04-26T08:44:22Z</time></trkpt><trkpt lat="41.123312658551114" lon="9.372861779781047"><ele>72.0</ele><time>2026-04-26T08:44:23Z</time></trkpt><trkpt lat="41.12323586151493" lon="9.372780265535798"><ele>72.0</ele><time>2026-04-26T08:44:24Z</time></trkpt><trkpt lat="41.1231569622624" lon="9.372698293896757"><ele>72.0</ele><time>2026-04-26T08:44:25Z</time></trkpt><trkpt lat="41.12307469899389" lon="9.372605926373044"><ele>71.25</ele><time>2026-04-26T08:44:26Z</time></trkpt><trkpt lat="41.12300616057076" lon="9.372490412566837"><ele>70.5</ele><time>2026-04-26T08:44:27Z</time></trkpt><trkpt lat="41.12291646838753" lon="9.372394687371234"><ele>69.75</ele><time>2026-04-26T08:44:28Z</time></trkpt><trkpt lat="41.1228374749178" lon="9.372276860482886"><ele>69.0</ele><time>2026-04-26T08:44:29Z</time></trkpt><trkpt lat="41.12274683398486" lon="9.372171293413361"><ele>68.75</ele><time>2026-04-26T08:44:30Z</time></trkpt><trkpt lat="41.122649685239004" lon="9.372081371739927"><ele>68.5</ele><time>2026-04-26T08:44:31Z</time></trkpt><trkpt lat="41.122561365275764" lon="9.371970774752661"><ele>68.25</ele><time>2026-04-26T08:44:32Z</time></trkpt><trkpt lat="41.12246648099431" lon="9.371882496579163"><ele>68.0</ele><time>2026-04-26T08:44:33Z</time></trkpt><trkpt lat="41.12237272875069" lon="9.371795563798543"><ele>67.0</ele><time>2026-04-26T08:44:34Z</time></trkpt><trkpt lat="41.12227512513456" lon="9.371712241227986"><ele>66.0</ele><time>2026-04-26T08:44:35Z</time></trkpt><trkpt lat="41.12217809427719" lon="9.371625080387158"><ele>65.0</ele><time>2026-04-26T08:44:36Z</time></trkpt><trkpt lat="41.12208167850907" lon="9.371537259018497"><ele>64.0</ele><time>2026-04-26T08:44:37Z</time></trkpt><trkpt lat="41.121983198495656" lon="9.371447529526398"><ele>64.5</ele><time>2026-04-26T08:44:38Z</time></trkpt><trkpt lat="41.12187965079257" lon="9.371353999070688"><ele>65.0</ele><time>2026-04-26T08:44:39Z</time></trkpt><trkpt lat="41.121778618743726" lon="9.371262470797596"><ele>65.5</ele><time>2026-04-26T08:44:40Z</time></trkpt><trkpt lat="41.12168012696985" lon="9.371170425386161"><ele>66.0</ele><time>2026-04-26T08:44:41Z</time></trkpt><trkpt lat="41.12157911635755" lon="9.371074258249758"><ele>65.0</ele><time>2026-04-26T08:44:42Z</time></trkpt><trkpt lat="41.121478028495694" lon="9.370978744774666"><ele>64.0</ele><time>2026-04-26T08:44:43Z</time></trkpt><trkpt lat="41.12137730675667" lon="9.37089128777983"><ele>63.0</ele><time>2026-04-26T08:44:44Z</time></trkpt><trkpt lat="41.121274616295345" lon="9.370794451428589"><ele>62.0</ele><time>2026-04-26T08:44:45Z</time></trkpt><trkpt lat="41.12117831268881" lon="9.370694065518393"><ele>62.0</ele><time>2026-04-26T08:44:46Z</time></trkpt><trkpt lat="41.12107800619965" lon="9.370606315555465"><ele>62.0</ele><time>2026-04-26T08:44:47Z</time></trkpt><trkpt lat="41.12098038335141" lon="9.37051567608361"><ele>62.0</ele><time>2026-04-26T08:44:48Z</time></trkpt><trkpt lat="41.12088933995863" lon="9.370430581934551"><ele>62.0</ele><time>2026-04-26T08:44:49Z</time></trkpt><trkpt lat="41.1208056807676" lon="9.370358456632884"><ele>61.833333333333336</ele><time>2026-04-26T08:44:50Z</time></trkpt><trkpt lat="41.120727207063304" lon="9.370298192539467"><ele>61.66666666666667</ele><time>2026-04-26T08:44:51Z</time></trkpt><trkpt lat="41.120658547918545" lon="9.370252923855578"><ele>61.5</ele><time>2026-04-26T08:44:52Z</time></trkpt><trkpt lat="41.120600876330045" lon="9.370188101376348"><ele>61.33333333333333</ele><time>2026-04-26T08:44:53Z</time></trkpt><trkpt lat="41.120537067622784" lon="9.370124081611195"><ele>61.166666666666664</ele><time>2026-04-26T08:44:54Z</time></trkpt><trkpt lat="41.120467289676796" lon="9.370052207999828"><ele>61.0</ele><time>2026-04-26T08:44:55Z</time></trkpt><trkpt lat="41.12037499043941" lon="9.36998620770997"><ele>61.0</ele><time>2026-04-26T08:44:56Z</time></trkpt><trkpt lat="41.120279547680795" lon="9.369889533429017"><ele>61.0</ele><time>2026-04-26T08:44:57Z</time></trkpt><trkpt lat="41.120177106183505" lon="9.369777996562261"><ele>61.0</ele><time>2026-04-26T08:44:58Z</time></trkpt><trkpt lat="41.12006804267781" lon="9.36965678806469"><ele>61.0</ele><time>2026-04-26T08:44:59Z</time></trkpt><trkpt lat="41.11997138053853" lon="9.369553853393144"><ele>61.0</ele><time>2026-04-26T08:45:00Z</time></trkpt><trkpt lat="41.119881841990704" lon="9.369451872553332"><ele>61.0</ele><time>2026-04-26T08:45:01Z</time></trkpt><trkpt lat="41.11977983024767" lon="9.369366613404736"><ele>61.0</ele><time>2026-04-26T08:45:02Z</time></trkpt><trkpt lat="41.119642696915975" lon="9.369293518681346"><ele>61.0</ele><time>2026-04-26T08:45:03Z</time></trkpt><trkpt lat="41.119492121392454" lon="9.369224125939173"><ele>61.0</ele><time>2026-04-26T08:45:04Z</time></trkpt><trkpt lat="41.11936069648988" lon="9.36916017581203"><ele>61.0</ele><time>2026-04-26T08:45:05Z</time></trkpt><trkpt lat="41.11924063498446" lon="9.369097891510927"><ele>61.0</ele><time>2026-04-26T08:45:06Z</time></trkpt><trkpt lat="41.119129513576155" lon="9.369039489177952"><ele>61.0</ele><time>2026-04-26T08:45:07Z</time></trkpt><trkpt lat="41.119032232292646" lon="9.368981191007789"><ele>61.8</ele><time>2026-04-26T08:45:08Z</time></trkpt><trkpt lat="41.118963476030075" lon="9.36888700559406"><ele>62.599999999999994</ele><time>2026-04-26T08:45:09Z</time></trkpt><trkpt lat="41.118902541833734" lon="9.368791694567923"><ele>63.4</ele><time>2026-04-26T08:45:10Z</time></trkpt><trkpt lat="41.11884136761758" lon="9.36866768241935"><ele>64.2</ele><time>2026-04-26T08:45:11Z</time></trkpt><trkpt lat="41.11878364583842" lon="9.368525455483448"><ele>65.0</ele><time>2026-04-26T08:45:12Z</time></trkpt><trkpt lat="41.1187371338276" lon="9.368366258832138"><ele>65.0</ele><time>2026-04-26T08:45:13Z</time></trkpt><trkpt lat="41.11868456489776" lon="9.3681993050334"><ele>65.0</ele><time>2026-04-26T08:45:14Z</time></trkpt><trkpt lat="41.11860438997569" lon="9.368054473652863"><ele>65.0</ele><time>2026-04-26T08:45:15Z</time></trkpt><trkpt lat="41.118519359039944" lon="9.367911525085953"><ele>65.0</ele><time>2026-04-26T08:45:16Z</time></trkpt><trkpt lat="41.118413293613756" lon="9.367777706373266"><ele>65.75</ele><time>2026-04-26T08:45:17Z</time></trkpt><trkpt lat="41.11828556736657" lon="9.367648211032293"><ele>66.5</ele><time>2026-04-26T08:45:18Z</time></trkpt><trkpt lat="41.11818000361573" lon="9.367515023792619"><ele>67.25</ele><time>2026-04-26T08:45:19Z</time></trkpt><trkpt lat="41.118078342911055" lon="9.367383474809428"><ele>68.0</ele><time>2026-04-26T08:45:20Z</time></trkpt><trkpt lat="41.117972803961884" lon="9.367240658747566"><ele>68.75</ele><time>2026-04-26T08:45:21Z</time></trkpt><trkpt lat="41.117863340589686" lon="9.367087193417836"><ele>69.5</ele><time>2026-04-26T08:45:22Z</time></trkpt><trkpt lat="41.117760313606794" lon="9.36694446330418"><ele>70.25</ele><time>2026-04-26T08:45:23Z</time></trkpt><trkpt lat="41.11766396366165" lon="9.36681160743829"><ele>71.0</ele><time>2026-04-26T08:45:24Z</time></trkpt><trkpt lat="41.11757522736132" lon="9.366689249255318"><ele>71.0</ele><time>2026-04-26T08:45:25Z</time></trkpt><trkpt lat="41.117494441377744" lon="9.36657591086634"><ele>71.0</ele><time>2026-04-26T08:45:26Z</time></trkpt><trkpt lat="41.117418301733416" lon="9.366473239945185"><ele>71.0</ele><time>2026-04-26T08:45:27Z</time></trkpt><trkpt lat="41.11732871159369" lon="9.366411664983438"><ele>71.0</ele><time>2026-04-26T08:45:28Z</time></trkpt><trkpt lat="41.117253887040434" lon="9.36635361185508"><ele>71.0</ele><time>2026-04-26T08:45:29Z</time></trkpt><trkpt lat="41.11717227887691" lon="9.36632034504934"><ele>71.0</ele><time>2026-04-26T08:45:30Z</time></trkpt><trkpt lat="41.117103102632875" lon="9.366262939856798"><ele>71.0</ele><time>2026-04-26T08:45:31Z</time></trkpt><trkpt lat="41.11703414691766" lon="9.366197880383373"><ele>71.0</ele><time>2026-04-26T08:45:33Z</time></trkpt><trkpt lat="41.117158008872025" lon="9.36613499775058"><ele>71.0</ele><time>2026-04-26T08:45:39Z</time></trkpt><trkpt lat="41.11729894794071" lon="9.366137450914035"><ele>71.0</ele><time>2026-04-26T08:45:40Z</time></trkpt><trkpt lat="41.11746315827154" lon="9.366159062534406"><ele>71.0</ele><time>2026-04-26T08:45:41Z</time></trkpt><trkpt lat="41.11764441112833" lon="9.366170037976502"><ele>71.0</ele><time>2026-04-26T08:45:42Z</time></trkpt><trkpt lat="41.11783919278687" lon="9.366191682646724"><ele>71.0</ele><time>2026-04-26T08:45:42.999Z</time></trkpt><trkpt lat="41.11802903409942" lon="9.366211083204762"><ele>71.0</ele><time>2026-04-26T08:45:43.999Z</time></trkpt><trkpt lat="41.11821109759767" lon="9.366231996421748"><ele>71.0</ele><time>2026-04-26T08:45:44.999Z</time></trkpt><trkpt lat="41.11839926717046" lon="9.366252908985787"><ele>71.0</ele><time>2026-04-26T08:45:45.999Z</time></trkpt><trkpt lat="41.11859154718463" lon="9.366273444614041"><ele>70.0</ele><time>2026-04-26T08:45:46.999Z</time></trkpt><trkpt lat="41.11878346450085" lon="9.366293191058947"><ele>69.0</ele><time>2026-04-26T08:45:47.999Z</time></trkpt><trkpt lat="41.11897482182195" lon="9.366313109085459"><ele>68.0</ele><time>2026-04-26T08:45:48.999Z</time></trkpt><trkpt lat="41.119157607849694" lon="9.36633175790583"><ele>68.0</ele><time>2026-04-26T08:45:49.999Z</time></trkpt><trkpt lat="41.11932927586627" lon="9.36635084736105"><ele>68.0</ele><time>2026-04-26T08:45:50.999Z</time></trkpt><trkpt lat="41.119494095067765" lon="9.366369065423275"><ele>68.0</ele><time>2026-04-26T08:45:51.999Z</time></trkpt><trkpt lat="41.119651059249364" lon="9.36638647744492"><ele>67.75</ele><time>2026-04-26T08:45:53Z</time></trkpt><trkpt lat="41.11979953680886" lon="9.36642397179517"><ele>67.5</ele><time>2026-04-26T08:45:54Z</time></trkpt><trkpt lat="41.11993937263253" lon="9.36643964241681"><ele>67.25</ele><time>2026-04-26T08:45:55Z</time></trkpt><trkpt lat="41.12005712467767" lon="9.36645283823076"><ele>67.0</ele><time>2026-04-26T08:45:56Z</time></trkpt><trkpt lat="41.1201596879677" lon="9.366464331926323"><ele>67.0</ele><time>2026-04-26T08:45:57Z</time></trkpt><trkpt lat="41.1202458157322" lon="9.366473983785347"><ele>67.0</ele><time>2026-04-26T08:45:58Z</time></trkpt><trkpt lat="41.120312300880435" lon="9.366481434404765"><ele>67.0</ele><time>2026-04-26T08:45:59Z</time></trkpt><trkpt lat="41.12038321435837" lon="9.366489381284538"><ele>67.0</ele><time>2026-04-26T08:46:01Z</time></trkpt><trkpt lat="41.12042603983181" lon="9.366279030975402"><ele>67.0</ele><time>2026-04-26T08:46:03Z</time></trkpt><trkpt lat="41.120425232321494" lon="9.366189155114272"><ele>67.4</ele><time>2026-04-26T08:46:04Z</time></trkpt><trkpt lat="41.12042257232983" lon="9.366049142478731"><ele>67.80000000000001</ele><time>2026-04-26T08:46:06Z</time></trkpt><trkpt lat="41.120416480810775" lon="9.36595191483687"><ele>68.2</ele><time>2026-04-26T08:46:09Z</time></trkpt><trkpt lat="41.12039251531622" lon="9.365838465934395"><ele>68.60000000000001</ele><time>2026-04-26T08:46:11Z</time></trkpt><trkpt lat="41.12034103059542" lon="9.365680932976236"><ele>69.0</ele><time>2026-04-26T08:46:13Z</time></trkpt><trkpt lat="41.12031599162739" lon="9.365590415797726"><ele>69.66666666666667</ele><time>2026-04-26T08:46:14Z</time></trkpt><trkpt lat="41.12028866347587" lon="9.365491623045026"><ele>70.33333333333333</ele><time>2026-04-26T08:46:15Z</time></trkpt><trkpt lat="41.12026007222317" lon="9.365388264116717"><ele>71.0</ele><time>2026-04-26T08:46:16Z</time></trkpt><trkpt lat="41.12023020593812" lon="9.365280295909779"><ele>71.66666666666666</ele><time>2026-04-26T08:46:17Z</time></trkpt><trkpt lat="41.12019926258994" lon="9.365169805019606"><ele>72.33333333333333</ele><time>2026-04-26T08:46:18Z</time></trkpt><trkpt lat="41.120166948867904" lon="9.365056604955479"><ele>73.0</ele><time>2026-04-26T08:46:19Z</time></trkpt><trkpt lat="41.120132182574054" lon="9.36494024661209"><ele>73.0</ele><time>2026-04-26T08:46:20Z</time></trkpt><trkpt lat="41.12009687602764" lon="9.364819019675545"><ele>73.0</ele><time>2026-04-26T08:46:21Z</time></trkpt><trkpt lat="41.12005140805659" lon="9.364714917322967"><ele>73.0</ele><time>2026-04-26T08:46:22Z</time></trkpt><trkpt lat="41.12003473521925" lon="9.364599445883766"><ele>73.0</ele><time>2026-04-26T08:46:23Z</time></trkpt><trkpt lat="41.12000894965808" lon="9.364493014553831"><ele>73.0</ele><time>2026-04-26T08:46:24Z</time></trkpt><trkpt lat="41.11998383856197" lon="9.364384458755213"><ele>73.0</ele><time>2026-04-26T08:46:25Z</time></trkpt><trkpt lat="41.11996027410389" lon="9.364282303999465"><ele>73.8</ele><time>2026-04-26T08:46:26Z</time></trkpt><trkpt lat="41.11994031941276" lon="9.364198788723321"><ele>74.6</ele><time>2026-04-26T08:46:27Z</time></trkpt><trkpt lat="41.11991041365112" lon="9.364067375736585"><ele>75.4</ele><time>2026-04-26T08:46:29Z</time></trkpt><trkpt lat="41.11987975897506" lon="9.363944463812114"><ele>76.2</ele><time>2026-04-26T08:46:31Z</time></trkpt><trkpt lat="41.11983414850044" lon="9.36377295111018"><ele>77.0</ele><time>2026-04-26T08:46:33Z</time></trkpt><trkpt lat="41.11980749798959" lon="9.363659703813191"><ele>78.2</ele><time>2026-04-26T08:46:34Z</time></trkpt><trkpt lat="41.11978471798346" lon="9.363533050495219"><ele>79.4</ele><time>2026-04-26T08:46:35Z</time></trkpt><trkpt lat="41.11972976353313" lon="9.36340252321134"><ele>80.60000000000001</ele><time>2026-04-26T08:46:36Z</time></trkpt><trkpt lat="41.1196920030726" lon="9.363253479885685"><ele>81.80000000000001</ele><time>2026-04-26T08:46:37Z</time></trkpt><trkpt lat="41.119662874821366" lon="9.36314605853067"><ele>83.0</ele><time>2026-04-26T08:46:38Z</time></trkpt><trkpt lat="41.11965785616011" lon="9.363040279081913"><ele>84.75</ele><time>2026-04-26T08:46:39Z</time></trkpt><trkpt lat="41.119645814047125" lon="9.3629209309675"><ele>86.5</ele><time>2026-04-26T08:46:40Z</time></trkpt><trkpt lat="41.119629820782166" lon="9.36275824216567"><ele>88.25</ele><time>2026-04-26T08:46:41Z</time></trkpt><trkpt lat="41.11958910378182" lon="9.362567761872775"><ele>90.0</ele><time>2026-04-26T08:46:42Z</time></trkpt><trkpt lat="41.119575534600905" lon="9.362346471780354"><ele>91.66666666666667</ele><time>2026-04-26T08:46:43Z</time></trkpt><trkpt lat="41.11954344864205" lon="9.362125829887544"><ele>93.33333333333334</ele><time>2026-04-26T08:46:44Z</time></trkpt><trkpt lat="41.11950041761531" lon="9.361926488857689"><ele>95.0</ele><time>2026-04-26T08:46:45Z</time></trkpt><trkpt lat="41.11947650577794" lon="9.361743197763287"><ele>95.0</ele><time>2026-04-26T08:46:46Z</time></trkpt><trkpt lat="41.11944948566433" lon="9.361574344699532"><ele>95.0</ele><time>2026-04-26T08:46:47Z</time></trkpt><trkpt lat="41.119447606896685" lon="9.361409362850083"><ele>95.0</ele><time>2026-04-26T08:46:48Z</time></trkpt><trkpt lat="41.11942917866308" lon="9.361244336409346"><ele>95.0</ele><time>2026-04-26T08:46:49Z</time></trkpt><trkpt lat="41.119390314942706" lon="9.361087072013273"><ele>96.8</ele><time>2026-04-26T08:46:50Z</time></trkpt><trkpt lat="41.11936329196131" lon="9.360938376118513"><ele>98.6</ele><time>2026-04-26T08:46:51Z</time></trkpt><trkpt lat="41.11933147186753" lon="9.360796020467173"><ele>100.4</ele><time>2026-04-26T08:46:52Z</time></trkpt><trkpt lat="41.11928483343154" lon="9.360680808699174"><ele>102.2</ele><time>2026-04-26T08:46:53Z</time></trkpt><trkpt lat="41.11925034517361" lon="9.360550550636148"><ele>104.0</ele><time>2026-04-26T08:46:54Z</time></trkpt><trkpt lat="41.11926099268288" lon="9.360411190109456"><ele>104.75</ele><time>2026-04-26T08:46:55Z</time></trkpt><trkpt lat="41.119267493134004" lon="9.360257740000677"><ele>105.5</ele><time>2026-04-26T08:46:56Z</time></trkpt><trkpt lat="41.119285398089424" lon="9.360076469853938"><ele>106.25</ele><time>2026-04-26T08:46:57Z</time></trkpt><trkpt lat="41.11930666596143" lon="9.359871605986246"><ele>107.0</ele><time>2026-04-26T08:46:58Z</time></trkpt><trkpt lat="41.11932583608809" lon="9.359686948765761"><ele>107.75</ele><time>2026-04-26T08:46:59Z</time></trkpt><trkpt lat="41.119341847004655" lon="9.359527637965265"><ele>108.5</ele><time>2026-04-26T08:47:00Z</time></trkpt><trkpt lat="41.11935555819067" lon="9.359375198741969"><ele>109.25</ele><time>2026-04-26T08:47:01Z</time></trkpt><trkpt lat="41.119370199014476" lon="9.359228093424699"><ele>110.0</ele><time>2026-04-26T08:47:02Z</time></trkpt><trkpt lat="41.11938640812276" lon="9.359094085344983"><ele>110.0</ele><time>2026-04-26T08:47:03Z</time></trkpt><trkpt lat="41.11940750366174" lon="9.358962934138285"><ele>110.0</ele><time>2026-04-26T08:47:04Z</time></trkpt><trkpt lat="41.119441440688554" lon="9.358828520495626"><ele>110.0</ele><time>2026-04-26T08:47:05Z</time></trkpt><trkpt lat="41.11948486543786" lon="9.358681167791367"><ele>110.0</ele><time>2026-04-26T08:47:06Z</time></trkpt><trkpt lat="41.11953502396873" lon="9.3585193621237"><ele>111.0</ele><time>2026-04-26T08:47:07Z</time></trkpt><trkpt lat="41.119589171063" lon="9.358340038167304"><ele>112.0</ele><time>2026-04-26T08:47:08Z</time></trkpt><trkpt lat="41.1196462227149" lon="9.358150865637448"><ele>113.0</ele><time>2026-04-26T08:47:09Z</time></trkpt><trkpt lat="41.119705078939624" lon="9.357955709554426"><ele>114.66666666666666</ele><time>2026-04-26T08:47:10Z</time></trkpt><trkpt lat="41.11976522879275" lon="9.357756263996327"><ele>116.33333333333334</ele><time>2026-04-26T08:47:11Z</time></trkpt><trkpt lat="41.119827716615106" lon="9.357545530129109"><ele>118.0</ele><time>2026-04-26T08:47:12Z</time></trkpt><trkpt lat="41.11989095197911" lon="9.35733106755768"><ele>115.66666666666667</ele><time>2026-04-26T08:47:13Z</time></trkpt><trkpt lat="41.11994952409148" lon="9.357132420387558"><ele>113.33333333333334</ele><time>2026-04-26T08:47:14Z</time></trkpt><trkpt lat="41.12000335535626" lon="9.35694985179549"><ele>111.0</ele><time>2026-04-26T08:47:15Z</time></trkpt><trkpt lat="41.1200565459859" lon="9.35676945587781"><ele>111.0</ele><time>2026-04-26T08:47:16Z</time></trkpt><trkpt lat="41.12010972908795" lon="9.356589345490114"><ele>111.0</ele><time>2026-04-26T08:47:17Z</time></trkpt><trkpt lat="41.12015989821282" lon="9.356420162024001"><ele>111.0</ele><time>2026-04-26T08:47:18Z</time></trkpt><trkpt lat="41.1202093264165" lon="9.35625347710166"><ele>111.0</ele><time>2026-04-26T08:47:19Z</time></trkpt><trkpt lat="41.12025675580486" lon="9.356090246909575"><ele>112.0</ele><time>2026-04-26T08:47:20Z</time></trkpt><trkpt lat="41.12030130049166" lon="9.355936098138734"><ele>113.0</ele><time>2026-04-26T08:47:21Z</time></trkpt><trkpt lat="41.12034707733021" lon="9.355793335476779"><ele>114.0</ele><time>2026-04-26T08:47:22Z</time></trkpt><trkpt lat="41.12039364869593" lon="9.355668207999113"><ele>115.0</ele><time>2026-04-26T08:47:23Z</time></trkpt><trkpt lat="41.12045751567036" lon="9.355558960296413"><ele>116.25</ele><time>2026-04-26T08:47:24Z</time></trkpt><trkpt lat="41.12053582071544" lon="9.355439129065418"><ele>117.5</ele><time>2026-04-26T08:47:25Z</time></trkpt><trkpt lat="41.12062967911415" lon="9.355326043659812"><ele>118.75</ele><time>2026-04-26T08:47:26Z</time></trkpt><trkpt lat="41.12074493139435" lon="9.355219900425203"><ele>120.0</ele><time>2026-04-26T08:47:27Z</time></trkpt><trkpt lat="41.12087144564668" lon="9.355125320108659"><ele>120.0</ele><time>2026-04-26T08:47:28Z</time></trkpt><trkpt lat="41.120985684241084" lon="9.355046058214612"><ele>120.0</ele><time>2026-04-26T08:47:29Z</time></trkpt><trkpt lat="41.121084775946166" lon="9.354978549915355"><ele>120.0</ele><time>2026-04-26T08:47:30Z</time></trkpt><trkpt lat="41.12115582713061" lon="9.354910283158057"><ele>120.0</ele><time>2026-04-26T08:47:31Z</time></trkpt><trkpt lat="41.121216889213834" lon="9.354873904017309"><ele>120.0</ele><time>2026-04-26T08:47:32Z</time></trkpt><trkpt lat="41.121276971376574" lon="9.354830920305348"><ele>120.0</ele><time>2026-04-26T08:47:33Z</time></trkpt><trkpt lat="41.12134763083532" lon="9.354784916469356"><ele>120.0</ele><time>2026-04-26T08:47:34Z</time></trkpt><trkpt lat="41.121421704861454" lon="9.354732657921756"><ele>120.0</ele><time>2026-04-26T08:47:35Z</time></trkpt><trkpt lat="41.12150996309841" lon="9.354666520778368"><ele>120.0</ele><time>2026-04-26T08:47:36Z</time></trkpt><trkpt lat="41.12162134853282" lon="9.354601838549506"><ele>120.0</ele><time>2026-04-26T08:47:37Z</time></trkpt><trkpt lat="41.12171984577664" lon="9.354526741962529"><ele>121.2</ele><time>2026-04-26T08:47:38Z</time></trkpt><trkpt lat="41.12181815012797" lon="9.354470043680045"><ele>122.4</ele><time>2026-04-26T08:47:38.999Z</time></trkpt><trkpt lat="41.12191018226573" lon="9.354413598531966"><ele>123.6</ele><time>2026-04-26T08:47:39.999Z</time></trkpt><trkpt lat="41.12198986843514" lon="9.354334203735245"><ele>124.8</ele><time>2026-04-26T08:47:40.999Z</time></trkpt><trkpt lat="41.12206754917548" lon="9.35424504728197"><ele>126.0</ele><time>2026-04-26T08:47:41.999Z</time></trkpt><trkpt lat="41.12213989956241" lon="9.35413778241375"><ele>126.0</ele><time>2026-04-26T08:47:42.999Z</time></trkpt><trkpt lat="41.122205809111655" lon="9.354025140606925"><ele>126.0</ele><time>2026-04-26T08:47:43.999Z</time></trkpt><trkpt lat="41.12226087650964" lon="9.353906375202406"><ele>126.0</ele><time>2026-04-26T08:47:44.999Z</time></trkpt><trkpt lat="41.122293568326086" lon="9.353770365755507"><ele>126.0</ele><time>2026-04-26T08:47:45.999Z</time></trkpt><trkpt lat="41.1223109393086" lon="9.353612626164203"><ele>126.0</ele><time>2026-04-26T08:47:46.999Z</time></trkpt><trkpt lat="41.12231986221309" lon="9.353440254589595"><ele>128.0</ele><time>2026-04-26T08:47:47.999Z</time></trkpt><trkpt lat="41.122317556481825" lon="9.353244002874803"><ele>130.0</ele><time>2026-04-26T08:47:48.999Z</time></trkpt><trkpt lat="41.12232477833273" lon="9.353032967013329"><ele>132.0</ele><time>2026-04-26T08:47:49.999Z</time></trkpt><trkpt lat="41.12231394747016" lon="9.352840570072274"><ele>133.0</ele><time>2026-04-26T08:47:50.999Z</time></trkpt><trkpt lat="41.12230808177398" lon="9.352673253392771"><ele>134.0</ele><time>2026-04-26T08:47:51.999Z</time></trkpt><trkpt lat="41.12230440411429" lon="9.352519396110315"><ele>135.0</ele><time>2026-04-26T08:47:52.999Z</time></trkpt><trkpt lat="41.12231170441529" lon="9.352374120459444"><ele>136.0</ele><time>2026-04-26T08:47:53.999Z</time></trkpt><trkpt lat="41.122341495790906" lon="9.35224007302797"><ele>138.5</ele><time>2026-04-26T08:47:54.999Z</time></trkpt><trkpt lat="41.122392653701034" lon="9.352101955691623"><ele>141.0</ele><time>2026-04-26T08:47:55.999Z</time></trkpt><trkpt lat="41.12246034190227" lon="9.351954204903691"><ele>143.5</ele><time>2026-04-26T08:47:56.999Z</time></trkpt><trkpt lat="41.122540911148604" lon="9.35179034692733"><ele>146.0</ele><time>2026-04-26T08:47:57.999Z</time></trkpt><trkpt lat="41.12262837573848" lon="9.351612686352356"><ele>140.75</ele><time>2026-04-26T08:47:59Z</time></trkpt><trkpt lat="41.12271126760861" lon="9.351449086764594"><ele>135.5</ele><time>2026-04-26T08:48:00Z</time></trkpt><trkpt lat="41.122794228133706" lon="9.351285351619369"><ele>130.25</ele><time>2026-04-26T08:48:01Z</time></trkpt><trkpt lat="41.12286395814712" lon="9.351112083649202"><ele>125.0</ele><time>2026-04-26T08:48:02Z</time></trkpt><trkpt lat="41.12294774473411" lon="9.35094573055034"><ele>125.0</ele><time>2026-04-26T08:48:03Z</time></trkpt><trkpt lat="41.1230462888112" lon="9.350791689482442"><ele>125.0</ele><time>2026-04-26T08:48:04Z</time></trkpt><trkpt lat="41.12313008861944" lon="9.3506279998872"><ele>125.0</ele><time>2026-04-26T08:48:05Z</time></trkpt><trkpt lat="41.12321475523094" lon="9.350462617139822"><ele>123.5</ele><time>2026-04-26T08:48:06Z</time></trkpt><trkpt lat="41.12330088255679" lon="9.350294381108217"><ele>122.0</ele><time>2026-04-26T08:48:07Z</time></trkpt><trkpt lat="41.1233855873874" lon="9.350130427476053"><ele>120.5</ele><time>2026-04-26T08:48:08Z</time></trkpt><trkpt lat="41.12346517837098" lon="9.349978317296397"><ele>119.0</ele><time>2026-04-26T08:48:09Z</time></trkpt><trkpt lat="41.123542605299306" lon="9.349831778906967"><ele>119.75</ele><time>2026-04-26T08:48:10Z</time></trkpt><trkpt lat="41.12362226744719" lon="9.349681090542909"><ele>120.5</ele><time>2026-04-26T08:48:11Z</time></trkpt><trkpt lat="41.12370592405636" lon="9.349524919119428"><ele>121.25</ele><time>2026-04-26T08:48:12Z</time></trkpt><trkpt lat="41.12378957243632" lon="9.34935835309844"><ele>122.0</ele><time>2026-04-26T08:48:13Z</time></trkpt><trkpt lat="41.12387033423889" lon="9.349173134566964"><ele>122.0</ele><time>2026-04-26T08:48:14Z</time></trkpt><trkpt lat="41.12395508256486" lon="9.34896436820778"><ele>122.0</ele><time>2026-04-26T08:48:15Z</time></trkpt><trkpt lat="41.12404123835827" lon="9.34873529545292"><ele>122.0</ele><time>2026-04-26T08:48:16Z</time></trkpt><trkpt lat="41.12411728701908" lon="9.34848647671933"><ele>122.0</ele><time>2026-04-26T08:48:17Z</time></trkpt><trkpt lat="41.12420574152657" lon="9.348260634830526"><ele>122.0</ele><time>2026-04-26T08:48:18Z</time></trkpt><trkpt lat="41.12428684309238" lon="9.348051253750837"><ele>122.0</ele><time>2026-04-26T08:48:19Z</time></trkpt><trkpt lat="41.12436259001239" lon="9.347853040938382"><ele>122.66666666666666</ele><time>2026-04-26T08:48:20Z</time></trkpt><trkpt lat="41.124452301911816" lon="9.347672069779653"><ele>123.33333333333334</ele><time>2026-04-26T08:48:21Z</time></trkpt><trkpt lat="41.124521869583766" lon="9.347495174116922"><ele>124.0</ele><time>2026-04-26T08:48:22Z</time></trkpt><trkpt lat="41.12458731363578" lon="9.347326047682397"><ele>125.25</ele><time>2026-04-26T08:48:23Z</time></trkpt><trkpt lat="41.124650980649776" lon="9.347159832046025"><ele>126.5</ele><time>2026-04-26T08:48:24Z</time></trkpt><trkpt lat="41.124707541896726" lon="9.34701355594856"><ele>127.75</ele><time>2026-04-26T08:48:25Z</time></trkpt><trkpt lat="41.124765009729956" lon="9.346872548812572"><ele>129.0</ele><time>2026-04-26T08:48:26Z</time></trkpt><trkpt lat="41.12483266411538" lon="9.346726526178402"><ele>129.66666666666666</ele><time>2026-04-26T08:48:27Z</time></trkpt><trkpt lat="41.1249124797052" lon="9.346568076350126"><ele>130.33333333333331</ele><time>2026-04-26T08:48:28Z</time></trkpt><trkpt lat="41.125003097518885" lon="9.346390602372413"><ele>131.0</ele><time>2026-04-26T08:48:29Z</time></trkpt><trkpt lat="41.125102142389835" lon="9.34619709730938"><ele>132.0</ele><time>2026-04-26T08:48:30Z</time></trkpt><trkpt lat="41.12519558153435" lon="9.345983796771995"><ele>133.0</ele><time>2026-04-26T08:48:31Z</time></trkpt><trkpt lat="41.12528917981217" lon="9.345789479626673"><ele>134.0</ele><time>2026-04-26T08:48:32Z</time></trkpt><trkpt lat="41.125372069136176" lon="9.345621880511978"><ele>136.25</ele><time>2026-04-26T08:48:33Z</time></trkpt><trkpt lat="41.12544872384859" lon="9.345468528827679"><ele>138.5</ele><time>2026-04-26T08:48:34Z</time></trkpt><trkpt lat="41.12552213124416" lon="9.345322341764023"><ele>140.75</ele><time>2026-04-26T08:48:35Z</time></trkpt><trkpt lat="41.125589133005235" lon="9.345183491397451"><ele>143.0</ele><time>2026-04-26T08:48:36Z</time></trkpt><trkpt lat="41.12564616938818" lon="9.34506016403134"><ele>143.0</ele><time>2026-04-26T08:48:37Z</time></trkpt><trkpt lat="41.12568505610786" lon="9.344933373472118"><ele>143.0</ele><time>2026-04-26T08:48:38Z</time></trkpt><trkpt lat="41.12569833427499" lon="9.344794900025066"><ele>143.0</ele><time>2026-04-26T08:48:39Z</time></trkpt><trkpt lat="41.125688577669656" lon="9.34463263932818"><ele>143.0</ele><time>2026-04-26T08:48:40Z</time></trkpt><trkpt lat="41.12567197939383" lon="9.344449538234004"><ele>145.5</ele><time>2026-04-26T08:48:41Z</time></trkpt><trkpt lat="41.12565550139564" lon="9.34430164256755"><ele>148.0</ele><time>2026-04-26T08:48:42Z</time></trkpt><trkpt lat="41.125650478470774" lon="9.344162904818084"><ele>150.5</ele><time>2026-04-26T08:48:43Z</time></trkpt><trkpt lat="41.12568489697526" lon="9.344017032438344"><ele>153.0</ele><time>2026-04-26T08:48:44Z</time></trkpt><trkpt lat="41.12572843213169" lon="9.34385144892278"><ele>155.0</ele><time>2026-04-26T08:48:45Z</time></trkpt><trkpt lat="41.12575170225706" lon="9.343680169522264"><ele>157.0</ele><time>2026-04-26T08:48:46Z</time></trkpt><trkpt lat="41.12578228034799" lon="9.343546563666742"><ele>159.0</ele><time>2026-04-26T08:48:47Z</time></trkpt><trkpt lat="41.12579024697973" lon="9.343434372042257"><ele>161.0</ele><time>2026-04-26T08:48:48Z</time></trkpt><trkpt lat="41.12577776530204" lon="9.343310154531212"><ele>163.0</ele><time>2026-04-26T08:48:49Z</time></trkpt><trkpt lat="41.12574138619819" lon="9.343174603612653"><ele>161.25</ele><time>2026-04-26T08:48:50Z</time></trkpt><trkpt lat="41.12569279532412" lon="9.343038048498927"><ele>159.5</ele><time>2026-04-26T08:48:51Z</time></trkpt><trkpt lat="41.1256472177322" lon="9.342907017077087"><ele>157.75</ele><time>2026-04-26T08:48:52Z</time></trkpt><trkpt lat="41.12560896913407" lon="9.34275460317402"><ele>156.0</ele><time>2026-04-26T08:48:53Z</time></trkpt><trkpt lat="41.125581707321146" lon="9.342576731514594"><ele>156.0</ele><time>2026-04-26T08:48:54Z</time></trkpt><trkpt lat="41.12556103722405" lon="9.342404650067285"><ele>156.0</ele><time>2026-04-26T08:48:55Z</time></trkpt><trkpt lat="41.125538119445295" lon="9.342211073650041"><ele>156.0</ele><time>2026-04-26T08:48:56Z</time></trkpt><trkpt lat="41.12551841662288" lon="9.342006341604794"><ele>156.0</ele><time>2026-04-26T08:48:57Z</time></trkpt><trkpt lat="41.1255165210341" lon="9.34179807962968"><ele>156.66666666666666</ele><time>2026-04-26T08:48:58Z</time></trkpt><trkpt lat="41.125504798222686" lon="9.341593340940376"><ele>157.33333333333331</ele><time>2026-04-26T08:48:59Z</time></trkpt><trkpt lat="41.125498500983475" lon="9.341382548888385"><ele>158.0</ele><time>2026-04-26T08:49:00Z</time></trkpt><trkpt lat="41.12548349443256" lon="9.341171237909291"><ele>158.5</ele><time>2026-04-26T08:49:01Z</time></trkpt><trkpt lat="41.12548103382665" lon="9.340975054100422"><ele>159.0</ele><time>2026-04-26T08:49:02Z</time></trkpt><trkpt lat="41.12549200629878" lon="9.34079456565312"><ele>159.5</ele><time>2026-04-26T08:49:03Z</time></trkpt><trkpt lat="41.125496282511364" lon="9.340629457339325"><ele>160.0</ele><time>2026-04-26T08:49:04Z</time></trkpt><trkpt lat="41.12551319644907" lon="9.340470647156566"><ele>161.0</ele><time>2026-04-26T08:49:05Z</time></trkpt><trkpt lat="41.125539554422936" lon="9.34030238378438"><ele>162.0</ele><time>2026-04-26T08:49:06Z</time></trkpt><trkpt lat="41.12557333494527" lon="9.340126046787448"><ele>163.0</ele><time>2026-04-26T08:49:07Z</time></trkpt><trkpt lat="41.12560245463078" lon="9.339921341988857"><ele>164.0</ele><time>2026-04-26T08:49:08Z</time></trkpt><trkpt lat="41.12564824679231" lon="9.339703299767585"><ele>165.0</ele><time>2026-04-26T08:49:09Z</time></trkpt><trkpt lat="41.12569635702015" lon="9.339468460808362"><ele>166.0</ele><time>2026-04-26T08:49:10Z</time></trkpt><trkpt lat="41.125745351359086" lon="9.339232274307177"><ele>167.0</ele><time>2026-04-26T08:49:11Z</time></trkpt><trkpt lat="41.125788214294914" lon="9.33902112282455"><ele>168.75</ele><time>2026-04-26T08:49:12Z</time></trkpt><trkpt lat="41.125829779969976" lon="9.338824274918649"><ele>170.5</ele><time>2026-04-26T08:49:13Z</time></trkpt><trkpt lat="41.125868133235294" lon="9.338646692891556"><ele>172.25</ele><time>2026-04-26T08:49:14Z</time></trkpt><trkpt lat="41.12590133228028" lon="9.338481617238038"><ele>174.0</ele><time>2026-04-26T08:49:15Z</time></trkpt><trkpt lat="41.12592064379022" lon="9.338323185334128"><ele>174.0</ele><time>2026-04-26T08:49:16Z</time></trkpt><trkpt lat="41.12593260698712" lon="9.33816630871669"><ele>174.0</ele><time>2026-04-26T08:49:17Z</time></trkpt><trkpt lat="41.12593802666894" lon="9.338001594617618"><ele>174.0</ele><time>2026-04-26T08:49:18Z</time></trkpt><trkpt lat="41.1259348436921" lon="9.33784960918062"><ele>174.0</ele><time>2026-04-26T08:49:19Z</time></trkpt><trkpt lat="41.12593732951856" lon="9.337726403424895"><ele>174.6</ele><time>2026-04-26T08:49:20Z</time></trkpt><trkpt lat="41.125923143809366" lon="9.33763329906442"><ele>175.2</ele><time>2026-04-26T08:49:21Z</time></trkpt><trkpt lat="41.12591867064368" lon="9.3375394197433"><ele>175.79999999999998</ele><time>2026-04-26T08:49:23Z</time></trkpt><trkpt lat="41.12602698317393" lon="9.337550852525322"><ele>176.39999999999998</ele><time>2026-04-26T08:49:25Z</time></trkpt><trkpt lat="41.126124663228175" lon="9.337558993833422"><ele>177.0</ele><time>2026-04-26T08:49:26Z</time></trkpt><trkpt lat="41.12623978673828" lon="9.33757660171669"><ele>177.0</ele><time>2026-04-26T08:49:27Z</time></trkpt><trkpt lat="41.12636124132035" lon="9.33763448777584"><ele>177.0</ele><time>2026-04-26T08:49:28Z</time></trkpt><trkpt lat="41.126484673042356" lon="9.337712324060469"><ele>177.0</ele><time>2026-04-26T08:49:29Z</time></trkpt><trkpt lat="41.12662353651912" lon="9.337810275382374"><ele>177.0</ele><time>2026-04-26T08:49:29.999Z</time></trkpt><trkpt lat="41.12675532959755" lon="9.337908620779073"><ele>177.0</ele><time>2026-04-26T08:49:30.999Z</time></trkpt><trkpt lat="41.126870680032525" lon="9.337987449164363"><ele>177.0</ele><time>2026-04-26T08:49:31.999Z</time></trkpt><trkpt lat="41.12697788285951" lon="9.338057169145655"><ele>177.0</ele><time>2026-04-26T08:49:32.999Z</time></trkpt><trkpt lat="41.12708256510668" lon="9.338116538486764"><ele>177.0</ele><time>2026-04-26T08:49:33.999Z</time></trkpt><trkpt lat="41.12717921701344" lon="9.338153154241775"><ele>177.0</ele><time>2026-04-26T08:49:34.999Z</time></trkpt><trkpt lat="41.12727666299654" lon="9.338162107303033"><ele>177.0</ele><time>2026-04-26T08:49:35.999Z</time></trkpt><trkpt lat="41.1273808260397" lon="9.338157066991663"><ele>177.0</ele><time>2026-04-26T08:49:36.999Z</time></trkpt><trkpt lat="41.12747475496899" lon="9.338159586366483"><ele>177.0</ele><time>2026-04-26T08:49:37.999Z</time></trkpt><trkpt lat="41.1275608507252" lon="9.338182811693407"><ele>177.0</ele><time>2026-04-26T08:49:38.999Z</time></trkpt><trkpt lat="41.12764907372603" lon="9.338234279786855"><ele>178.0</ele><time>2026-04-26T08:49:39.999Z</time></trkpt><trkpt lat="41.12774421925601" lon="9.338306794109355"><ele>179.0</ele><time>2026-04-26T08:49:40.999Z</time></trkpt><trkpt lat="41.127856163795364" lon="9.338376715672698"><ele>180.0</ele><time>2026-04-26T08:49:41.999Z</time></trkpt><trkpt lat="41.127978211134185" lon="9.338436309834815"><ele>181.0</ele><time>2026-04-26T08:49:42.999Z</time></trkpt><trkpt lat="41.12808936356007" lon="9.338469392144066"><ele>181.0</ele><time>2026-04-26T08:49:43.999Z</time></trkpt><trkpt lat="41.12820454348547" lon="9.338480946810394"><ele>181.0</ele><time>2026-04-26T08:49:44.999Z</time></trkpt><trkpt lat="41.12832156324834" lon="9.33849484246045"><ele>181.0</ele><time>2026-04-26T08:49:45.999Z</time></trkpt><trkpt lat="41.128440493630336" lon="9.33853087734021"><ele>181.0</ele><time>2026-04-26T08:49:46.999Z</time></trkpt><trkpt lat="41.128549545091005" lon="9.338577612114241"><ele>182.20000000000002</ele><time>2026-04-26T08:49:47.999Z</time></trkpt><trkpt lat="41.12864239917518" lon="9.338623275295959"><ele>183.4</ele><time>2026-04-26T08:49:48.999Z</time></trkpt><trkpt lat="41.12870498638445" lon="9.338646734683774"><ele>184.6</ele><time>2026-04-26T08:49:49.999Z</time></trkpt><trkpt lat="41.12881470080947" lon="9.338638588844749"><ele>185.8</ele><time>2026-04-26T08:49:51.999Z</time></trkpt><trkpt lat="41.128876507642886" lon="9.33857790148267"><ele>187.0</ele><time>2026-04-26T08:49:52.999Z</time></trkpt><trkpt lat="41.1289348491863" lon="9.338447925055924"><ele>187.0</ele><time>2026-04-26T08:49:53.999Z</time></trkpt><trkpt lat="41.12898879878033" lon="9.338319243170162"><ele>187.0</ele><time>2026-04-26T08:49:54.999Z</time></trkpt><trkpt lat="41.129040858778424" lon="9.338203802841807"><ele>187.0</ele><time>2026-04-26T08:49:55.999Z</time></trkpt><trkpt lat="41.12909346566423" lon="9.338079926861962"><ele>187.0</ele><time>2026-04-26T08:49:56.999Z</time></trkpt><trkpt lat="41.1291447483421" lon="9.33796774636672"><ele>187.0</ele><time>2026-04-26T08:49:57.999Z</time></trkpt><trkpt lat="41.129194382744465" lon="9.337876097421553"><ele>188.0</ele><time>2026-04-26T08:49:58.999Z</time></trkpt><trkpt lat="41.12924096920171" lon="9.337808065653716"><ele>189.0</ele><time>2026-04-26T08:49:59.999Z</time></trkpt><trkpt lat="41.12929194065214" lon="9.337751821974354"><ele>190.0</ele><time>2026-04-26T08:50:00.999Z</time></trkpt><trkpt lat="41.1293439848269" lon="9.337704483870478"><ele>191.0</ele><time>2026-04-26T08:50:01.999Z</time></trkpt><trkpt lat="41.129418225651094" lon="9.33771938923541"><ele>191.99999999999997</ele><time>2026-04-26T08:50:02.999Z</time></trkpt><trkpt lat="41.12951146990327" lon="9.337693187356319"><ele>193.0</ele><time>2026-04-26T08:50:03.999Z</time></trkpt><trkpt lat="41.1296320859734" lon="9.337673173478933"><ele>193.0</ele><time>2026-04-26T08:50:05Z</time></trkpt><trkpt lat="41.1297784461405" lon="9.337673639086868"><ele>193.0</ele><time>2026-04-26T08:50:06Z</time></trkpt><trkpt lat="41.12992124933414" lon="9.33765229583107"><ele>193.0</ele><time>2026-04-26T08:50:07Z</time></trkpt><trkpt lat="41.13003024224334" lon="9.337637166799022"><ele>193.0</ele><time>2026-04-26T08:50:08Z</time></trkpt><trkpt lat="41.13010500676872" lon="9.337626014471764"><ele>195.60000000000002</ele><time>2026-04-26T08:50:09Z</time></trkpt><trkpt lat="41.13015812938564" lon="9.337729982692622"><ele>198.20000000000002</ele><time>2026-04-26T08:50:11Z</time></trkpt><trkpt lat="41.13015850077444" lon="9.337825479185435"><ele>200.8</ele><time>2026-04-26T08:50:12Z</time></trkpt><trkpt lat="41.13016980904251" lon="9.337912543428606"><ele>203.4</ele><time>2026-04-26T08:50:13Z</time></trkpt><trkpt lat="41.13028524241522" lon="9.337951375450874"><ele>206.0</ele><time>2026-04-26T08:50:15Z</time></trkpt><trkpt lat="41.13038491918513" lon="9.33792212733652"><ele>206.0</ele><time>2026-04-26T08:50:16Z</time></trkpt><trkpt lat="41.13050064347719" lon="9.337851994650554"><ele>206.0</ele><time>2026-04-26T08:50:17Z</time></trkpt><trkpt lat="41.13059210264863" lon="9.337827784567503"><ele>206.0</ele><time>2026-04-26T08:50:18Z</time></trkpt><trkpt lat="41.13068086327927" lon="9.337898985980033"><ele>206.0</ele><time>2026-04-26T08:50:20Z</time></trkpt><trkpt lat="41.13066545677814" lon="9.338025818198421"><ele>206.0</ele><time>2026-04-26T08:50:21Z</time></trkpt><trkpt lat="41.130704776742434" lon="9.338137421929181"><ele>210.25</ele><time>2026-04-26T08:50:22Z</time></trkpt><trkpt lat="41.130813995785" lon="9.338224111070847"><ele>214.5</ele><time>2026-04-26T08:50:24Z</time></trkpt><trkpt lat="41.13091720381017" lon="9.338214777655647"><ele>218.75</ele><time>2026-04-26T08:50:25Z</time></trkpt><trkpt lat="41.131022175760634" lon="9.338176674962696"><ele>223.0</ele><time>2026-04-26T08:50:26Z</time></trkpt><trkpt lat="41.13112395125973" lon="9.33810303631062"><ele>223.0</ele><time>2026-04-26T08:50:27Z</time></trkpt><trkpt lat="41.13123633204958" lon="9.338003324191467"><ele>223.0</ele><time>2026-04-26T08:50:28Z</time></trkpt><trkpt lat="41.13134069041644" lon="9.337957410606505"><ele>223.0</ele><time>2026-04-26T08:50:29Z</time></trkpt><trkpt lat="41.131421391086256" lon="9.337937153108033"><ele>223.0</ele><time>2026-04-26T08:50:30Z</time></trkpt><trkpt lat="41.131484925638844" lon="9.337941767074481"><ele>223.0</ele><time>2026-04-26T08:50:31Z</time></trkpt><trkpt lat="41.13153276862986" lon="9.338091262646525"><ele>222.99999999999997</ele><time>2026-04-26T08:50:33Z</time></trkpt><trkpt lat="41.13151546933896" lon="9.33819029587672"><ele>223.0</ele><time>2026-04-26T08:50:34Z</time></trkpt><trkpt lat="41.13148173207065" lon="9.338296740107518"><ele>223.0</ele><time>2026-04-26T08:50:35Z</time></trkpt><trkpt lat="41.1314773840108" lon="9.338383898568269"><ele>223.0</ele><time>2026-04-26T08:50:36Z</time></trkpt><trkpt lat="41.13158486983698" lon="9.338448140610781"><ele>222.99999999999997</ele><time>2026-04-26T08:50:38Z</time></trkpt><trkpt lat="41.13166617809915" lon="9.338438672294005"><ele>223.0</ele><time>2026-04-26T08:50:39Z</time></trkpt><trkpt lat="41.13175958781441" lon="9.338415313629426"><ele>224.8</ele><time>2026-04-26T08:50:40Z</time></trkpt><trkpt lat="41.13183167542258" lon="9.338421436491014"><ele>226.60000000000002</ele><time>2026-04-26T08:50:41Z</time></trkpt><trkpt lat="41.13189235826846" lon="9.338458966378818"><ele>228.39999999999998</ele><time>2026-04-26T08:50:42Z</time></trkpt><trkpt lat="41.1319422797656" lon="9.338537636953731"><ele>230.2</ele><time>2026-04-26T08:50:43Z</time></trkpt><trkpt lat="41.131978112277025" lon="9.338676957930836"><ele>232.0</ele><time>2026-04-26T08:50:44Z</time></trkpt><trkpt lat="41.132049502589624" lon="9.33883886345569"><ele>232.5</ele><time>2026-04-26T08:50:45Z</time></trkpt><trkpt lat="41.13211037206598" lon="9.339027222343232"><ele>233.0</ele><time>2026-04-26T08:50:46Z</time></trkpt><trkpt lat="41.13216513696531" lon="9.339200799409387"><ele>233.5</ele><time>2026-04-26T08:50:47Z</time></trkpt><trkpt lat="41.132204550575615" lon="9.339375575446914"><ele>234.0</ele><time>2026-04-26T08:50:48Z</time></trkpt><trkpt lat="41.13222943835463" lon="9.339527822888748"><ele>234.0</ele><time>2026-04-26T08:50:49Z</time></trkpt><trkpt lat="41.132236587563774" lon="9.339674126588463"><ele>233.99999999999997</ele><time>2026-04-26T08:50:50Z</time></trkpt><trkpt lat="41.13224143813541" lon="9.33980362508273"><ele>233.99999999999997</ele><time>2026-04-26T08:50:51Z</time></trkpt><trkpt lat="41.132251294903284" lon="9.339910724412793"><ele>234.0</ele><time>2026-04-26T08:50:52Z</time></trkpt><trkpt lat="41.13227178193661" lon="9.339997922809236"><ele>234.0</ele><time>2026-04-26T08:50:53Z</time></trkpt><trkpt lat="41.132379589072194" lon="9.3400994274255"><ele>237.75</ele><time>2026-04-26T08:50:55Z</time></trkpt><trkpt lat="41.13248319647588" lon="9.340121111143084"><ele>241.5</ele><time>2026-04-26T08:50:56Z</time></trkpt><trkpt lat="41.13261103675788" lon="9.340147684080893"><ele>245.25</ele><time>2026-04-26T08:50:57Z</time></trkpt><trkpt lat="41.13275989008383" lon="9.340194938338646"><ele>249.0</ele><time>2026-04-26T08:50:58Z</time></trkpt><trkpt lat="41.13291868409887" lon="9.34025522290362"><ele>249.0</ele><time>2026-04-26T08:50:59Z</time></trkpt><trkpt lat="41.1330868668414" lon="9.34032089002956"><ele>249.0</ele><time>2026-04-26T08:51:00Z</time></trkpt><trkpt lat="41.133243027715494" lon="9.34038435374616"><ele>249.0</ele><time>2026-04-26T08:51:01Z</time></trkpt><trkpt lat="41.13338198676299" lon="9.340441707764109"><ele>249.25</ele><time>2026-04-26T08:51:02Z</time></trkpt><trkpt lat="41.13351576892134" lon="9.340494494839248"><ele>249.5</ele><time>2026-04-26T08:51:03Z</time></trkpt><trkpt lat="41.13364843268423" lon="9.340552128202843"><ele>249.75</ele><time>2026-04-26T08:51:04Z</time></trkpt><trkpt lat="41.133774635294415" lon="9.340614400515244"><ele>250.0</ele><time>2026-04-26T08:51:05Z</time></trkpt><trkpt lat="41.13390124270157" lon="9.340679357688565"><ele>252.5</ele><time>2026-04-26T08:51:06Z</time></trkpt><trkpt lat="41.134027859119286" lon="9.34074483614836"><ele>255.0</ele><time>2026-04-26T08:51:07Z</time></trkpt><trkpt lat="41.13416332530088" lon="9.340806478145053"><ele>257.5</ele><time>2026-04-26T08:51:08Z</time></trkpt><trkpt lat="41.1343007074563" lon="9.340867797929477"><ele>260.0</ele><time>2026-04-26T08:51:09Z</time></trkpt><trkpt lat="41.13444683196894" lon="9.340926561971196"><ele>260.0</ele><time>2026-04-26T08:51:10Z</time></trkpt><trkpt lat="41.134595504355374" lon="9.340989328163147"><ele>260.0</ele><time>2026-04-26T08:51:11Z</time></trkpt><trkpt lat="41.134748523991725" lon="9.34105326334491"><ele>260.0</ele><time>2026-04-26T08:51:12Z</time></trkpt><trkpt lat="41.13490524270193" lon="9.341111306154561"><ele>259.33333333333337</ele><time>2026-04-26T08:51:13Z</time></trkpt><trkpt lat="41.135061952127764" lon="9.341149318807553"><ele>258.6666666666667</ele><time>2026-04-26T08:51:14Z</time></trkpt><trkpt lat="41.135219403518455" lon="9.341183711994901"><ele>258.0</ele><time>2026-04-26T08:51:15Z</time></trkpt><trkpt lat="41.13537291842928" lon="9.341210330156914"><ele>258.0</ele><time>2026-04-26T08:51:16Z</time></trkpt><trkpt lat="41.135512288558964" lon="9.341247040010407"><ele>258.0</ele><time>2026-04-26T08:51:17Z</time></trkpt><trkpt lat="41.135622362786904" lon="9.341282336166088"><ele>258.0</ele><time>2026-04-26T08:51:18Z</time></trkpt><trkpt lat="41.13571449487396" lon="9.341322767461122"><ele>258.0</ele><time>2026-04-26T08:51:19Z</time></trkpt><trkpt lat="41.13581883962652" lon="9.341360939445572"><ele>260.75</ele><time>2026-04-26T08:51:20Z</time></trkpt><trkpt lat="41.13595211615313" lon="9.341404009646443"><ele>263.5</ele><time>2026-04-26T08:51:21Z</time></trkpt><trkpt lat="41.13608135753236" lon="9.341450061862854"><ele>266.25</ele><time>2026-04-26T08:51:22Z</time></trkpt><trkpt lat="41.13617339923692" lon="9.341490727900405"><ele>269.0</ele><time>2026-04-26T08:51:23Z</time></trkpt><trkpt lat="41.13626051961249" lon="9.341528477235146"><ele>269.0</ele><time>2026-04-26T08:51:24Z</time></trkpt><trkpt lat="41.13636580341405" lon="9.3415773533117"><ele>269.0</ele><time>2026-04-26T08:51:25Z</time></trkpt><trkpt lat="41.13648959371544" lon="9.341633913930742"><ele>269.0</ele><time>2026-04-26T08:51:26Z</time></trkpt><trkpt lat="41.13662383293974" lon="9.341702089346567"><ele>269.0</ele><time>2026-04-26T08:51:27Z</time></trkpt><trkpt lat="41.13675518184343" lon="9.341771265757965"><ele>268.0</ele><time>2026-04-26T08:51:28Z</time></trkpt><trkpt lat="41.13687451298476" lon="9.34182680806514"><ele>267.0</ele><time>2026-04-26T08:51:29Z</time></trkpt><trkpt lat="41.136985982044465" lon="9.341874994487542"><ele>266.0</ele><time>2026-04-26T08:51:30Z</time></trkpt><trkpt lat="41.13708631545361" lon="9.341913172270907"><ele>265.0</ele><time>2026-04-26T08:51:31Z</time></trkpt><trkpt lat="41.137179789431706" lon="9.3419366428128"><ele>264.0</ele><time>2026-04-26T08:51:32Z</time></trkpt><trkpt lat="41.13727836535924" lon="9.34193571030879"><ele>264.0</ele><time>2026-04-26T08:51:33Z</time></trkpt><trkpt lat="41.13738110341235" lon="9.341914312828573"><ele>264.0</ele><time>2026-04-26T08:51:34Z</time></trkpt><trkpt lat="41.13749158364464" lon="9.341901069467115"><ele>264.0</ele><time>2026-04-26T08:51:35Z</time></trkpt><trkpt lat="41.13759930895659" lon="9.341876340800985"><ele>264.0</ele><time>2026-04-26T08:51:36Z</time></trkpt><trkpt lat="41.137694847268364" lon="9.341846985881757"><ele>264.0</ele><time>2026-04-26T08:51:37Z</time></trkpt><trkpt lat="41.137797331437696" lon="9.341823778772554"><ele>263.4</ele><time>2026-04-26T08:51:38Z</time></trkpt><trkpt lat="41.137907108167695" lon="9.341810929550102"><ele>262.79999999999995</ele><time>2026-04-26T08:51:39Z</time></trkpt><trkpt lat="41.138018207640336" lon="9.341818624019478"><ele>262.20000000000005</ele><time>2026-04-26T08:51:40Z</time></trkpt><trkpt lat="41.13811700917721" lon="9.341823425323698"><ele>261.6</ele><time>2026-04-26T08:51:41Z</time></trkpt><trkpt lat="41.1382146507781" lon="9.341803917625471"><ele>261.0</ele><time>2026-04-26T08:51:42Z</time></trkpt><trkpt lat="41.138315399244114" lon="9.341749708641311"><ele>260.0</ele><time>2026-04-26T08:51:43Z</time></trkpt><trkpt lat="41.13841921139481" lon="9.341682847040845"><ele>259.0</ele><time>2026-04-26T08:51:44Z</time></trkpt><trkpt lat="41.138511425017235" lon="9.34161876263699"><ele>258.0</ele><time>2026-04-26T08:51:45Z</time></trkpt><trkpt lat="41.138590673094015" lon="9.34156179323805"><ele>257.0</ele><time>2026-04-26T08:51:46Z</time></trkpt><trkpt lat="41.13866755877279" lon="9.341515117915744"><ele>256.0</ele><time>2026-04-26T08:51:47Z</time></trkpt><trkpt lat="41.138747428743784" lon="9.34148701659271"><ele>256.0</ele><time>2026-04-26T08:51:48Z</time></trkpt><trkpt lat="41.138838534787865" lon="9.341501933178685"><ele>256.0</ele><time>2026-04-26T08:51:48.999Z</time></trkpt><trkpt lat="41.138930877912934" lon="9.341514992707731"><ele>256.0</ele><time>2026-04-26T08:51:49.999Z</time></trkpt><trkpt lat="41.13902258273799" lon="9.341509477763205"><ele>256.0</ele><time>2026-04-26T08:51:50.999Z</time></trkpt><trkpt lat="41.13911192281153" lon="9.341487843953656"><ele>256.0</ele><time>2026-04-26T08:51:51.999Z</time></trkpt><trkpt lat="41.13919312117019" lon="9.341440128727866"><ele>255.66666666666666</ele><time>2026-04-26T08:51:52.999Z</time></trkpt><trkpt lat="41.139266460391845" lon="9.341383771726957"><ele>255.33333333333331</ele><time>2026-04-26T08:51:53.999Z</time></trkpt><trkpt lat="41.13933547966803" lon="9.34134769958955"><ele>255.0</ele><time>2026-04-26T08:51:54.999Z</time></trkpt><trkpt lat="41.13939435511523" lon="9.341277322719277"><ele>254.66666666666669</ele><time>2026-04-26T08:51:55.999Z</time></trkpt><trkpt lat="41.139429253190926" lon="9.341157739439371"><ele>254.33333333333334</ele><time>2026-04-26T08:51:56.999Z</time></trkpt><trkpt lat="41.139474221065086" lon="9.341023822261233"><ele>254.0</ele><time>2026-04-26T08:51:57.999Z</time></trkpt><trkpt lat="41.13951106731191" lon="9.340866257243002"><ele>253.79999999999998</ele><time>2026-04-26T08:51:58.999Z</time></trkpt><trkpt lat="41.13956238541783" lon="9.340740005687577"><ele>253.59999999999997</ele><time>2026-04-26T08:51:59.999Z</time></trkpt><trkpt lat="41.13960337381542" lon="9.340640378544188"><ele>253.4</ele><time>2026-04-26T08:52:00.999Z</time></trkpt><trkpt lat="41.139650695396156" lon="9.340550846203547"><ele>253.2</ele><time>2026-04-26T08:52:01.999Z</time></trkpt><trkpt lat="41.13971398099127" lon="9.340471789889344"><ele>253.0</ele><time>2026-04-26T08:52:02.999Z</time></trkpt><trkpt lat="41.13978582909626" lon="9.340390774805124"><ele>253.0</ele><time>2026-04-26T08:52:03.999Z</time></trkpt><trkpt lat="41.139867375192736" lon="9.340340072823677"><ele>253.0</ele><time>2026-04-26T08:52:04.999Z</time></trkpt><trkpt lat="41.13995049042908" lon="9.340304092887985"><ele>253.0</ele><time>2026-04-26T08:52:05.999Z</time></trkpt><trkpt lat="41.140049483232104" lon="9.340281871430596"><ele>253.0</ele><time>2026-04-26T08:52:06.999Z</time></trkpt><trkpt lat="41.1401502808497" lon="9.34026044977461"><ele>253.0</ele><time>2026-04-26T08:52:07.999Z</time></trkpt><trkpt lat="41.14023514301444" lon="9.340236526107546"><ele>251.25</ele><time>2026-04-26T08:52:08.999Z</time></trkpt><trkpt lat="41.14031513990914" lon="9.340254469192313"><ele>249.5</ele><time>2026-04-26T08:52:09.999Z</time></trkpt><trkpt lat="41.14040981231914" lon="9.340328682385039"><ele>247.75</ele><time>2026-04-26T08:52:11Z</time></trkpt><trkpt lat="41.14054786981517" lon="9.340380128333623"><ele>246.0</ele><time>2026-04-26T08:52:12Z</time></trkpt><trkpt lat="41.140677579409505" lon="9.3404459435679"><ele>245.0</ele><time>2026-04-26T08:52:13Z</time></trkpt><trkpt lat="41.140792180378725" lon="9.34051445333882"><ele>244.0</ele><time>2026-04-26T08:52:14Z</time></trkpt><trkpt lat="41.14090607169234" lon="9.340589546099004"><ele>243.0</ele><time>2026-04-26T08:52:15Z</time></trkpt><trkpt lat="41.14101152862025" lon="9.340671432938167"><ele>242.0</ele><time>2026-04-26T08:52:16Z</time></trkpt><trkpt lat="41.14110882243309" lon="9.340749063949877"><ele>242.0</ele><time>2026-04-26T08:52:17Z</time></trkpt><trkpt lat="41.141207897113134" lon="9.340819865019977"><ele>242.0</ele><time>2026-04-26T08:52:18Z</time></trkpt><trkpt lat="41.141304475425386" lon="9.340883503048914"><ele>242.0</ele><time>2026-04-26T08:52:19Z</time></trkpt><trkpt lat="41.14139317296141" lon="9.340911779250611"><ele>242.0</ele><time>2026-04-26T08:52:20Z</time></trkpt><trkpt lat="41.141477538914934" lon="9.340913298789916"><ele>242.0</ele><time>2026-04-26T08:52:21Z</time></trkpt><trkpt lat="41.14154799387795" lon="9.340877148313782"><ele>241.66666666666669</ele><time>2026-04-26T08:52:22Z</time></trkpt><trkpt lat="41.14160427813401" lon="9.340818745339131"><ele>241.33333333333334</ele><time>2026-04-26T08:52:23Z</time></trkpt><trkpt lat="41.14166733974949" lon="9.340770991671057"><ele>241.0</ele><time>2026-04-26T08:52:24Z</time></trkpt><trkpt lat="41.141705896564105" lon="9.340662578583364"><ele>240.66666666666669</ele><time>2026-04-26T08:52:25Z</time></trkpt><trkpt lat="41.14175017849689" lon="9.340556791951277"><ele>240.33333333333334</ele><time>2026-04-26T08:52:26Z</time></trkpt><trkpt lat="41.1418043112146" lon="9.340446683649569"><ele>240.0</ele><time>2026-04-26T08:52:27Z</time></trkpt><trkpt lat="41.141882971341595" lon="9.340338878188199"><ele>239.6</ele><time>2026-04-26T08:52:28Z</time></trkpt><trkpt lat="41.141968986720876" lon="9.340243243407265"><ele>239.2</ele><time>2026-04-26T08:52:29Z</time></trkpt><trkpt lat="41.142045329539044" lon="9.340145945001881"><ele>238.8</ele><time>2026-04-26T08:52:30Z</time></trkpt><trkpt lat="41.14210407309012" lon="9.34003115021345"><ele>238.4</ele><time>2026-04-26T08:52:31Z</time></trkpt><trkpt lat="41.14215202488512" lon="9.339901981824125"><ele>238.0</ele><time>2026-04-26T08:52:32Z</time></trkpt><trkpt lat="41.142191702579574" lon="9.339764220843454"><ele>237.5</ele><time>2026-04-26T08:52:33Z</time></trkpt><trkpt lat="41.142224605569744" lon="9.33961340325528"><ele>237.0</ele><time>2026-04-26T08:52:34Z</time></trkpt><trkpt lat="41.14224980500543" lon="9.339452277868727"><ele>236.5</ele><time>2026-04-26T08:52:35Z</time></trkpt><trkpt lat="41.14227380268895" lon="9.33928185071"><ele>236.0</ele><time>2026-04-26T08:52:36Z</time></trkpt><trkpt lat="41.14230093867836" lon="9.339104420215923"><ele>236.0</ele><time>2026-04-26T08:52:37Z</time></trkpt><trkpt lat="41.142331195065616" lon="9.338930465442447"><ele>236.0</ele><time>2026-04-26T08:52:38Z</time></trkpt><trkpt lat="41.14236596828487" lon="9.33875578250134"><ele>236.0</ele><time>2026-04-26T08:52:39Z</time></trkpt><trkpt lat="41.142388514883784" lon="9.338569999481583"><ele>236.0</ele><time>2026-04-26T08:52:40Z</time></trkpt><trkpt lat="41.14243568838698" lon="9.338399618619597"><ele>235.75</ele><time>2026-04-26T08:52:41Z</time></trkpt><trkpt lat="41.14246816488632" lon="9.338216349162114"><ele>235.5</ele><time>2026-04-26T08:52:42Z</time></trkpt><trkpt lat="41.14250530721963" lon="9.338037631214235"><ele>235.25</ele><time>2026-04-26T08:52:43Z</time></trkpt><trkpt lat="41.142551986402566" lon="9.337875757681099"><ele>235.0</ele><time>2026-04-26T08:52:44Z</time></trkpt><trkpt lat="41.142555594696546" lon="9.337723138558093"><ele>235.0</ele><time>2026-04-26T08:52:45Z</time></trkpt><trkpt lat="41.14259046500002" lon="9.337584142781003"><ele>235.0</ele><time>2026-04-26T08:52:46Z</time></trkpt><trkpt lat="41.142597706119" lon="9.337445148619558"><ele>235.0</ele><time>2026-04-26T08:52:47Z</time></trkpt><trkpt lat="41.14261923432458" lon="9.33731533238516"><ele>235.0</ele><time>2026-04-26T08:52:48Z</time></trkpt><trkpt lat="41.142651041801706" lon="9.337206131439443"><ele>235.0</ele><time>2026-04-26T08:52:49Z</time></trkpt><trkpt lat="41.14270533185101" lon="9.337130262184077"><ele>234.4</ele><time>2026-04-26T08:52:50Z</time></trkpt><trkpt lat="41.14274009210236" lon="9.337039136879941"><ele>233.8</ele><time>2026-04-26T08:52:51Z</time></trkpt><trkpt lat="41.14283353897649" lon="9.33699506299783"><ele>233.2</ele><time>2026-04-26T08:52:52Z</time></trkpt><trkpt lat="41.14290770511018" lon="9.336896553347822"><ele>232.6</ele><time>2026-04-26T08:52:53Z</time></trkpt><trkpt lat="41.14294255264386" lon="9.336744444738365"><ele>232.0</ele><time>2026-04-26T08:52:54Z</time></trkpt><trkpt lat="41.142983978837606" lon="9.336626938513856"><ele>232.0</ele><time>2026-04-26T08:52:55Z</time></trkpt><trkpt lat="41.14302789011615" lon="9.336529729972993"><ele>232.0</ele><time>2026-04-26T08:52:56Z</time></trkpt><trkpt lat="41.143098232696275" lon="9.336430619102439"><ele>232.0</ele><time>2026-04-26T08:52:57Z</time></trkpt><trkpt lat="41.14319698501012" lon="9.33636453698102"><ele>232.0</ele><time>2026-04-26T08:52:58Z</time></trkpt><trkpt lat="41.14329310006459" lon="9.336277241869425"><ele>232.0</ele><time>2026-04-26T08:52:59Z</time></trkpt><trkpt lat="41.143377336318366" lon="9.336183088178315"><ele>231.49999999999997</ele><time>2026-04-26T08:53:00Z</time></trkpt><trkpt lat="41.14346142052833" lon="9.336141929938107"><ele>231.0</ele><time>2026-04-26T08:53:01Z</time></trkpt><trkpt lat="41.14350927834029" lon="9.336086095239974"><ele>230.5</ele><time>2026-04-26T08:53:02Z</time></trkpt><trkpt lat="41.143581975850196" lon="9.336039419501525"><ele>230.0</ele><time>2026-04-26T08:53:04Z</time></trkpt><trkpt lat="41.14368494171965" lon="9.33597529634591"><ele>229.49999999999997</ele><time>2026-04-26T08:53:06Z</time></trkpt><trkpt lat="41.14375968676848" lon="9.335917436344461"><ele>229.0</ele><time>2026-04-26T08:53:07Z</time></trkpt><trkpt lat="41.143864531560624" lon="9.33588301150062"><ele>229.0</ele><time>2026-04-26T08:53:08Z</time></trkpt><trkpt lat="41.143988170913495" lon="9.335830257682042"><ele>229.0</ele><time>2026-04-26T08:53:09Z</time></trkpt><trkpt lat="41.1441436218848" lon="9.33576940269174"><ele>229.0</ele><time>2026-04-26T08:53:10Z</time></trkpt><trkpt lat="41.144302660906476" lon="9.335710078221439"><ele>228.0</ele><time>2026-04-26T08:53:11Z</time></trkpt><trkpt lat="41.144447897171666" lon="9.335655902452977"><ele>227.0</ele><time>2026-04-26T08:53:12Z</time></trkpt><trkpt lat="41.14457557335554" lon="9.33558865648898"><ele>226.0</ele><time>2026-04-26T08:53:13Z</time></trkpt><trkpt lat="41.14469927267501" lon="9.335562907510113"><ele>225.0</ele><time>2026-04-26T08:53:14Z</time></trkpt><trkpt lat="41.14480537873713" lon="9.335503544878785"><ele>221.75</ele><time>2026-04-26T08:53:15Z</time></trkpt><trkpt lat="41.14490893755301" lon="9.335476186898179"><ele>218.5</ele><time>2026-04-26T08:53:16Z</time></trkpt><trkpt lat="41.145015237612725" lon="9.335463761437685"><ele>215.25</ele><time>2026-04-26T08:53:17Z</time></trkpt><trkpt lat="41.145130493169546" lon="9.335503344841303"><ele>212.0</ele><time>2026-04-26T08:53:18Z</time></trkpt><trkpt lat="41.14525887669218" lon="9.335506031404142"><ele>212.0</ele><time>2026-04-26T08:53:19Z</time></trkpt><trkpt lat="41.145375946059445" lon="9.335525395836678"><ele>212.0</ele><time>2026-04-26T08:53:20Z</time></trkpt><trkpt lat="41.14548106949354" lon="9.335528152642256"><ele>212.0</ele><time>2026-04-26T08:53:21Z</time></trkpt><trkpt lat="41.145574072174675" lon="9.335521895068618"><ele>212.0</ele><time>2026-04-26T08:53:22Z</time></trkpt><trkpt lat="41.14566782225105" lon="9.335483900579879"><ele>212.0</ele><time>2026-04-26T08:53:23Z</time></trkpt><trkpt lat="41.145773331568954" lon="9.335416518803754"><ele>210.5</ele><time>2026-04-26T08:53:24Z</time></trkpt><trkpt lat="41.1458918171769" lon="9.335335572567246"><ele>209.0</ele><time>2026-04-26T08:53:25Z</time></trkpt><trkpt lat="41.146009800264466" lon="9.335272373654496"><ele>207.5</ele><time>2026-04-26T08:53:26Z</time></trkpt><trkpt lat="41.14611692844135" lon="9.335200954734406"><ele>206.0</ele><time>2026-04-26T08:53:27Z</time></trkpt><trkpt lat="41.146222251831134" lon="9.335135912560656"><ele>206.0</ele><time>2026-04-26T08:53:28Z</time></trkpt><trkpt lat="41.14632507977469" lon="9.335063268168424"><ele>206.0</ele><time>2026-04-26T08:53:29Z</time></trkpt><trkpt lat="41.14642568200941" lon="9.334968539442695"><ele>206.0</ele><time>2026-04-26T08:53:30Z</time></trkpt><trkpt lat="41.14650737107651" lon="9.334861101846293"><ele>206.0</ele><time>2026-04-26T08:53:31Z</time></trkpt><trkpt lat="41.14658932648247" lon="9.33477328732138"><ele>204.4</ele><time>2026-04-26T08:53:32Z</time></trkpt><trkpt lat="41.1466777630354" lon="9.334720715388439"><ele>202.8</ele><time>2026-04-26T08:53:33Z</time></trkpt><trkpt lat="41.14675659831" lon="9.334658556390272"><ele>201.20000000000002</ele><time>2026-04-26T08:53:34Z</time></trkpt><trkpt lat="41.14684981106263" lon="9.334636006821698"><ele>199.60000000000002</ele><time>2026-04-26T08:53:35Z</time></trkpt><trkpt lat="41.14694814943451" lon="9.33463603234087"><ele>198.0</ele><time>2026-04-26T08:53:36Z</time></trkpt><trkpt lat="41.147046155170045" lon="9.334662972726889"><ele>198.0</ele><time>2026-04-26T08:53:37Z</time></trkpt><trkpt lat="41.147156834915656" lon="9.334717819517788"><ele>198.0</ele><time>2026-04-26T08:53:38Z</time></trkpt><trkpt lat="41.14727265855776" lon="9.334783913125861"><ele>198.0</ele><time>2026-04-26T08:53:39Z</time></trkpt><trkpt lat="41.147385435136854" lon="9.334838580419092"><ele>198.0</ele><time>2026-04-26T08:53:40Z</time></trkpt><trkpt lat="41.147489836635614" lon="9.334888700878865"><ele>198.0</ele><time>2026-04-26T08:53:41Z</time></trkpt><trkpt lat="41.14757293909635" lon="9.334933970998833"><ele>198.0</ele><time>2026-04-26T08:53:42Z</time></trkpt><trkpt lat="41.14764389297203" lon="9.334986540010362"><ele>198.0</ele><time>2026-04-26T08:53:43Z</time></trkpt><trkpt lat="41.1477158931418" lon="9.335046434022047"><ele>198.0</ele><time>2026-04-26T08:53:44Z</time></trkpt><trkpt lat="41.14777781168491" lon="9.335076805571351"><ele>198.0</ele><time>2026-04-26T08:53:44.999Z</time></trkpt><trkpt lat="41.1478956309199" lon="9.335014421704866"><ele>198.0</ele><time>2026-04-26T08:53:46.999Z</time></trkpt><trkpt lat="41.14793106627461" lon="9.334904734230633"><ele>198.0</ele><time>2026-04-26T08:53:47.999Z</time></trkpt><trkpt lat="41.147990815965095" lon="9.334838594174924"><ele>198.0</ele><time>2026-04-26T08:53:48.999Z</time></trkpt><trkpt lat="41.14807832219908" lon="9.334789577839814"><ele>198.0</ele><time>2026-04-26T08:53:50.999Z</time></trkpt><trkpt lat="41.148128681720294" lon="9.334860157792956"><ele>198.0</ele><time>2026-04-26T08:53:51.999Z</time></trkpt><trkpt lat="41.14815202064667" lon="9.334979176342024"><ele>198.0</ele><time>2026-04-26T08:53:52.999Z</time></trkpt><trkpt lat="41.148166655337604" lon="9.335116418695861"><ele>198.0</ele><time>2026-04-26T08:53:53.999Z</time></trkpt><trkpt lat="41.148181851401375" lon="9.335220282164158"><ele>193.8</ele><time>2026-04-26T08:53:54.999Z</time></trkpt><trkpt lat="41.14827231924209" lon="9.335285636845484"><ele>189.60000000000002</ele><time>2026-04-26T08:53:56.999Z</time></trkpt><trkpt lat="41.14834050933472" lon="9.33527875779187"><ele>185.39999999999998</ele><time>2026-04-26T08:53:57.999Z</time></trkpt><trkpt lat="41.14839835691141" lon="9.33518666234547"><ele>181.2</ele><time>2026-04-26T08:53:58.999Z</time></trkpt><trkpt lat="41.14843334276659" lon="9.335099761365539"><ele>177.0</ele><time>2026-04-26T08:53:59.999Z</time></trkpt><trkpt lat="41.148553472693486" lon="9.335101460825673"><ele>177.0</ele><time>2026-04-26T08:54:01.999Z</time></trkpt><trkpt lat="41.14861064429731" lon="9.335220219624148"><ele>177.0</ele><time>2026-04-26T08:54:02.999Z</time></trkpt><trkpt lat="41.14870475275288" lon="9.33530611837343"><ele>177.0</ele><time>2026-04-26T08:54:03.999Z</time></trkpt><trkpt lat="41.148792237570255" lon="9.335395549694551"><ele>177.0</ele><time>2026-04-26T08:54:04.999Z</time></trkpt><trkpt lat="41.14887440228073" lon="9.335477078833708"><ele>177.0</ele><time>2026-04-26T08:54:05.999Z</time></trkpt><trkpt lat="41.14893993224159" lon="9.335554853521298"><ele>176.8</ele><time>2026-04-26T08:54:06.999Z</time></trkpt><trkpt lat="41.148991781120635" lon="9.335656941810479"><ele>176.6</ele><time>2026-04-26T08:54:07.999Z</time></trkpt><trkpt lat="41.14901464305611" lon="9.33577836058147"><ele>176.4</ele><time>2026-04-26T08:54:08.999Z</time></trkpt><trkpt lat="41.14901755551459" lon="9.335900303785252"><ele>176.20000000000002</ele><time>2026-04-26T08:54:09.999Z</time></trkpt><trkpt lat="41.148996453652416" lon="9.336013306188569"><ele>176.0</ele><time>2026-04-26T08:54:10.999Z</time></trkpt><trkpt lat="41.14895557529292" lon="9.33612502519832"><ele>176.0</ele><time>2026-04-26T08:54:11.999Z</time></trkpt><trkpt lat="41.14891159921725" lon="9.33622457575346"><ele>176.0</ele><time>2026-04-26T08:54:12.999Z</time></trkpt><trkpt lat="41.14888744759161" lon="9.336308992627277"><ele>176.0</ele><time>2026-04-26T08:54:13.999Z</time></trkpt><trkpt lat="41.14894439770647" lon="9.33644437555598"><ele>176.0</ele><time>2026-04-26T08:54:15.999Z</time></trkpt><trkpt lat="41.14901992765314" lon="9.3364661512452"><ele>176.0</ele><time>2026-04-26T08:54:17Z</time></trkpt><trkpt lat="41.14909459482089" lon="9.3364659198434"><ele>176.0</ele><time>2026-04-26T08:54:18Z</time></trkpt><trkpt lat="41.1491456569981" lon="9.336523586268184"><ele>173.83333333333331</ele><time>2026-04-26T08:54:19Z</time></trkpt><trkpt lat="41.14915258766918" lon="9.336627709757108"><ele>171.66666666666666</ele><time>2026-04-26T08:54:20Z</time></trkpt><trkpt lat="41.14912138073824" lon="9.336737798815436"><ele>169.5</ele><time>2026-04-26T08:54:21Z</time></trkpt><trkpt lat="41.149071232524804" lon="9.336834375444795"><ele>167.33333333333334</ele><time>2026-04-26T08:54:22Z</time></trkpt><trkpt lat="41.149029269075704" lon="9.3369269072476"><ele>165.16666666666669</ele><time>2026-04-26T08:54:23Z</time></trkpt><trkpt lat="41.1490231379564" lon="9.337014100963014"><ele>163.0</ele><time>2026-04-26T08:54:24Z</time></trkpt><trkpt lat="41.149091504114416" lon="9.337111396804687"><ele>160.0</ele><time>2026-04-26T08:54:26Z</time></trkpt><trkpt lat="41.149196272267794" lon="9.33709596036515"><ele>157.0</ele><time>2026-04-26T08:54:29Z</time></trkpt><trkpt lat="41.14925682880206" lon="9.337054907382566"><ele>154.0</ele><time>2026-04-26T08:54:30Z</time></trkpt><trkpt lat="41.14933295147663" lon="9.337002997759791"><ele>151.0</ele><time>2026-04-26T08:54:31Z</time></trkpt><trkpt lat="41.14941768028933" lon="9.336935497747655"><ele>148.0</ele><time>2026-04-26T08:54:32Z</time></trkpt><trkpt lat="41.14949522273827" lon="9.336869250149402"><ele>148.0</ele><time>2026-04-26T08:54:33Z</time></trkpt><trkpt lat="41.14956761375245" lon="9.336815442909945"><ele>148.0</ele><time>2026-04-26T08:54:34Z</time></trkpt><trkpt lat="41.14962993784276" lon="9.336789696598519"><ele>148.0</ele><time>2026-04-26T08:54:35Z</time></trkpt><trkpt lat="41.14969626014726" lon="9.336780602610197"><ele>148.0</ele><time>2026-04-26T08:54:36Z</time></trkpt><trkpt lat="41.14977156415641" lon="9.336802073784387"><ele>148.0</ele><time>2026-04-26T08:54:37Z</time></trkpt><trkpt lat="41.14986417130392" lon="9.336812449459707"><ele>148.0</ele><time>2026-04-26T08:54:38Z</time></trkpt><trkpt lat="41.14996089818512" lon="9.336820182993886"><ele>146.66666666666669</ele><time>2026-04-26T08:54:39Z</time></trkpt><trkpt lat="41.15005065494599" lon="9.336831784653882"><ele>145.33333333333334</ele><time>2026-04-26T08:54:40Z</time></trkpt><trkpt lat="41.15012021001637" lon="9.33684187626278"><ele>144.0</ele><time>2026-04-26T08:54:41Z</time></trkpt><trkpt lat="41.1501600838353" lon="9.336909275094483"><ele>142.66666666666666</ele><time>2026-04-26T08:54:42Z</time></trkpt><trkpt lat="41.15018341437285" lon="9.33702917011648"><ele>141.33333333333331</ele><time>2026-04-26T08:54:43Z</time></trkpt><trkpt lat="41.15021871224537" lon="9.33718436222733"><ele>140.0</ele><time>2026-04-26T08:54:44Z</time></trkpt><trkpt lat="41.150275947132116" lon="9.337350324613485"><ele>139.2</ele><time>2026-04-26T08:54:45Z</time></trkpt><trkpt lat="41.15033632658462" lon="9.337523465683354"><ele>138.4</ele><time>2026-04-26T08:54:46Z</time></trkpt><trkpt lat="41.15038346566573" lon="9.337656487828966"><ele>137.6</ele><time>2026-04-26T08:54:47Z</time></trkpt><trkpt lat="41.15043241835634" lon="9.337760372553788"><ele>136.8</ele><time>2026-04-26T08:54:48Z</time></trkpt><trkpt lat="41.15048734772395" lon="9.337834853941937"><ele>136.0</ele><time>2026-04-26T08:54:49Z</time></trkpt><trkpt lat="41.15056292847252" lon="9.337879683357759"><ele>136.0</ele><time>2026-04-26T08:54:50Z</time></trkpt><trkpt lat="41.15066351627613" lon="9.337896541218807"><ele>136.0</ele><time>2026-04-26T08:54:51Z</time></trkpt><trkpt lat="41.150795594342355" lon="9.337908505935179"><ele>136.0</ele><time>2026-04-26T08:54:52Z</time></trkpt><trkpt lat="41.15094823766965" lon="9.337933466421141"><ele>136.0</ele><time>2026-04-26T08:54:53Z</time></trkpt><trkpt lat="41.15110687222402" lon="9.337970960725908"><ele>141.6</ele><time>2026-04-26T08:54:54Z</time></trkpt><trkpt lat="41.15123740721282" lon="9.338008115800463"><ele>147.2</ele><time>2026-04-26T08:54:55Z</time></trkpt><trkpt lat="41.15134534013065" lon="9.338031592127786"><ele>152.79999999999998</ele><time>2026-04-26T08:54:56Z</time></trkpt><trkpt lat="41.151436112755405" lon="9.33804158048855"><ele>158.39999999999998</ele><time>2026-04-26T08:54:57Z</time></trkpt><trkpt lat="41.151527422719816" lon="9.338018624341473"><ele>164.0</ele><time>2026-04-26T08:54:58Z</time></trkpt><trkpt lat="41.151613633574534" lon="9.337975056158408"><ele>163.33333333333331</ele><time>2026-04-26T08:54:59Z</time></trkpt><trkpt lat="41.15168752395528" lon="9.337949263219981"><ele>162.66666666666666</ele><time>2026-04-26T08:55:00Z</time></trkpt><trkpt lat="41.15176262232921" lon="9.337961934740692"><ele>162.0</ele><time>2026-04-26T08:55:01Z</time></trkpt><trkpt lat="41.15183643822782" lon="9.338032170732182"><ele>161.33333333333334</ele><time>2026-04-26T08:55:02Z</time></trkpt><trkpt lat="41.15192279764714" lon="9.338069885354068"><ele>160.66666666666669</ele><time>2026-04-26T08:55:03Z</time></trkpt><trkpt lat="41.151988535894255" lon="9.338091219808735"><ele>160.0</ele><time>2026-04-26T08:55:04Z</time></trkpt><trkpt lat="41.15205442568382" lon="9.338066328984159"><ele>163.16666666666669</ele><time>2026-04-26T08:55:05Z</time></trkpt><trkpt lat="41.15212336063009" lon="9.338013420830041"><ele>166.33333333333334</ele><time>2026-04-26T08:55:06Z</time></trkpt><trkpt lat="41.15219092245314" lon="9.337912857619122"><ele>169.5</ele><time>2026-04-26T08:55:07Z</time></trkpt><trkpt lat="41.1522646214805" lon="9.337835694652101"><ele>172.66666666666666</ele><time>2026-04-26T08:55:08Z</time></trkpt><trkpt lat="41.152332767894734" lon="9.33779410282505"><ele>175.83333333333331</ele><time>2026-04-26T08:55:09Z</time></trkpt><trkpt lat="41.1524021363008" lon="9.337776513006187"><ele>179.0</ele><time>2026-04-26T08:55:10Z</time></trkpt><trkpt lat="41.15247311985222" lon="9.33777649466982"><ele>179.39999999999998</ele><time>2026-04-26T08:55:11Z</time></trkpt><trkpt lat="41.15255605691694" lon="9.33776307657234"><ele>179.8</ele><time>2026-04-26T08:55:12Z</time></trkpt><trkpt lat="41.15264622931475" lon="9.337781519408761"><ele>180.2</ele><time>2026-04-26T08:55:13Z</time></trkpt><trkpt lat="41.15271822005725" lon="9.337799239891043"><ele>180.60000000000002</ele><time>2026-04-26T08:55:14Z</time></trkpt><trkpt lat="41.152773951876" lon="9.337839433837704"><ele>181.0</ele><time>2026-04-26T08:55:15Z</time></trkpt><trkpt lat="41.15282878140909" lon="9.338013221604715"><ele>180.5</ele><time>2026-04-26T08:55:17Z</time></trkpt><trkpt lat="41.15287047137045" lon="9.338108549458996"><ele>180.0</ele><time>2026-04-26T08:55:18Z</time></trkpt><trkpt lat="41.15293870212705" lon="9.338158060539019"><ele>179.5</ele><time>2026-04-26T08:55:19Z</time></trkpt><trkpt lat="41.153025928399" lon="9.33816978092788"><ele>179.0</ele><time>2026-04-26T08:55:20Z</time></trkpt><trkpt lat="41.153118896315064" lon="9.33816640773644"><ele>178.5</ele><time>2026-04-26T08:55:21Z</time></trkpt><trkpt lat="41.153215926546245" lon="9.338174708267557"><ele>178.0</ele><time>2026-04-26T08:55:22Z</time></trkpt><trkpt lat="41.15330669679759" lon="9.338199786937743"><ele>177.99999999999997</ele><time>2026-04-26T08:55:23Z</time></trkpt><trkpt lat="41.153378186337385" lon="9.338191369859812"><ele>178.0</ele><time>2026-04-26T08:55:24Z</time></trkpt><trkpt lat="41.15344268733978" lon="9.338189151883148"><ele>178.0</ele><time>2026-04-26T08:55:25Z</time></trkpt><trkpt lat="41.1535061870703" lon="9.33818753448652"><ele>178.0</ele><time>2026-04-26T08:55:26Z</time></trkpt><trkpt lat="41.15358192553908" lon="9.338178929585409"><ele>178.0</ele><time>2026-04-26T08:55:27Z</time></trkpt><trkpt lat="41.15366573233085" lon="9.33816380385216"><ele>177.99999999999997</ele><time>2026-04-26T08:55:28Z</time></trkpt><trkpt lat="41.153752767141576" lon="9.338161695144883"><ele>178.0</ele><time>2026-04-26T08:55:29Z</time></trkpt><trkpt lat="41.15383838308959" lon="9.338143023030732"><ele>178.0</ele><time>2026-04-26T08:55:30Z</time></trkpt><trkpt lat="41.153926806447394" lon="9.338135177072624"><ele>178.0</ele><time>2026-04-26T08:55:31Z</time></trkpt><trkpt lat="41.15402458602943" lon="9.338137732382034"><ele>178.0</ele><time>2026-04-26T08:55:32Z</time></trkpt><trkpt lat="41.15411660637567" lon="9.338154095077861"><ele>178.0</ele><time>2026-04-26T08:55:33Z</time></trkpt><trkpt lat="41.154211404894895" lon="9.338167028362578"><ele>178.0</ele><time>2026-04-26T08:55:34Z</time></trkpt><trkpt lat="41.154306905946974" lon="9.33818127931698"><ele>176.4</ele><time>2026-04-26T08:55:35Z</time></trkpt><trkpt lat="41.15440748765173" lon="9.338197327353772"><ele>174.8</ele><time>2026-04-26T08:55:36Z</time></trkpt><trkpt lat="41.15451263765335" lon="9.33821410426413"><ele>173.2</ele><time>2026-04-26T08:55:37Z</time></trkpt><trkpt lat="41.15462228423448" lon="9.338232979728087"><ele>171.6</ele><time>2026-04-26T08:55:38Z</time></trkpt><trkpt lat="41.154732397147534" lon="9.338246802218793"><ele>170.0</ele><time>2026-04-26T08:55:39Z</time></trkpt><trkpt lat="41.1548375349219" lon="9.338264271673456"><ele>168.6</ele><time>2026-04-26T08:55:40Z</time></trkpt><trkpt lat="41.15493920459603" lon="9.338302954948613"><ele>167.2</ele><time>2026-04-26T08:55:41Z</time></trkpt><trkpt lat="41.15504331728046" lon="9.338296785019644"><ele>165.8</ele><time>2026-04-26T08:55:42Z</time></trkpt><trkpt lat="41.155145936875094" lon="9.338284192193404"><ele>164.4</ele><time>2026-04-26T08:55:43Z</time></trkpt><trkpt lat="41.155254670230605" lon="9.338270280293196"><ele>163.0</ele><time>2026-04-26T08:55:44Z</time></trkpt><trkpt lat="41.155360305535325" lon="9.338256764763974"><ele>163.0</ele><time>2026-04-26T08:55:45Z</time></trkpt><trkpt lat="41.1554680041682" lon="9.338237463314094"><ele>163.0</ele><time>2026-04-26T08:55:46Z</time></trkpt><trkpt lat="41.15556687049898" lon="9.338208670307571"><ele>163.0</ele><time>2026-04-26T08:55:47Z</time></trkpt><trkpt lat="41.15566378720515" lon="9.338172694765966"><ele>163.0</ele><time>2026-04-26T08:55:48Z</time></trkpt><trkpt lat="41.155754726887274" lon="9.338127103200497"><ele>163.0</ele><time>2026-04-26T08:55:49Z</time></trkpt><trkpt lat="41.15584061894396" lon="9.338070731694929"><ele>162.83333333333334</ele><time>2026-04-26T08:55:50Z</time></trkpt><trkpt lat="41.15592389697882" lon="9.338000608171217"><ele>162.66666666666669</ele><time>2026-04-26T08:55:51Z</time></trkpt><trkpt lat="41.15599944603034" lon="9.337925971953075"><ele>162.5</ele><time>2026-04-26T08:55:52Z</time></trkpt><trkpt lat="41.156073290584615" lon="9.337865603525902"><ele>162.33333333333334</ele><time>2026-04-26T08:55:53Z</time></trkpt><trkpt lat="41.15614866391128" lon="9.337822760470846"><ele>162.16666666666666</ele><time>2026-04-26T08:55:54Z</time></trkpt><trkpt lat="41.15622877976224" lon="9.337790659559085"><ele>162.0</ele><time>2026-04-26T08:55:55Z</time></trkpt><trkpt lat="41.15630709779676" lon="9.33777180959091"><ele>162.0</ele><time>2026-04-26T08:55:56Z</time></trkpt><trkpt lat="41.156373641766365" lon="9.337763204427104"><ele>162.0</ele><time>2026-04-26T08:55:57Z</time></trkpt><trkpt lat="41.15649897999854" lon="9.337791242919277"><ele>162.0</ele><time>2026-04-26T08:55:58.999Z</time></trkpt><trkpt lat="41.15657281110919" lon="9.337790508977134"><ele>162.0</ele><time>2026-04-26T08:55:59.999Z</time></trkpt><trkpt lat="41.15664741922537" lon="9.33782527362374"><ele>162.0</ele><time>2026-04-26T08:56:00.999Z</time></trkpt><trkpt lat="41.15672661290477" lon="9.33785921545799"><ele>162.0</ele><time>2026-04-26T08:56:01.999Z</time></trkpt><trkpt lat="41.156802829366114" lon="9.337891350257536"><ele>159.83333333333334</ele><time>2026-04-26T08:56:02.999Z</time></trkpt><trkpt lat="41.156871741905384" lon="9.337914889705656"><ele>157.66666666666666</ele><time>2026-04-26T08:56:03.999Z</time></trkpt><trkpt lat="41.156941493923455" lon="9.337910595909424"><ele>155.5</ele><time>2026-04-26T08:56:04.999Z</time></trkpt><trkpt lat="41.15701365517301" lon="9.33791231477166"><ele>153.33333333333331</ele><time>2026-04-26T08:56:05.999Z</time></trkpt><trkpt lat="41.15708834052927" lon="9.337850979631284"><ele>151.16666666666666</ele><time>2026-04-26T08:56:06.999Z</time></trkpt><trkpt lat="41.15715630553038" lon="9.337793952230205"><ele>149.0</ele><time>2026-04-26T08:56:07.999Z</time></trkpt><trkpt lat="41.157219142499805" lon="9.337741227995817"><ele>149.0</ele><time>2026-04-26T08:56:08.999Z</time></trkpt><trkpt lat="41.1573120762044" lon="9.337670873722285"><ele>149.0</ele><time>2026-04-26T08:56:10.999Z</time></trkpt><trkpt lat="41.15737488802806" lon="9.337709781118063"><ele>149.0</ele><time>2026-04-26T08:56:12.999Z</time></trkpt><trkpt lat="41.15737919212538" lon="9.337805156058462"><ele>149.0</ele><time>2026-04-26T08:56:13.999Z</time></trkpt><trkpt lat="41.15741081344102" lon="9.337967138372633"><ele>149.0</ele><time>2026-04-26T08:56:15.999Z</time></trkpt><trkpt lat="41.157515200811545" lon="9.338078279493509"><ele>146.33333333333331</ele><time>2026-04-26T08:56:17.999Z</time></trkpt><trkpt lat="41.157595714350855" lon="9.338091993515905"><ele>143.66666666666666</ele><time>2026-04-26T08:56:18.999Z</time></trkpt><trkpt lat="41.15767243971427" lon="9.33810607209638"><ele>141.0</ele><time>2026-04-26T08:56:19.999Z</time></trkpt><trkpt lat="41.15775085711194" lon="9.338112593130054"><ele>138.33333333333334</ele><time>2026-04-26T08:56:20.999Z</time></trkpt><trkpt lat="41.15781668100894" lon="9.338176816973467"><ele>135.66666666666669</ele><time>2026-04-26T08:56:21.999Z</time></trkpt><trkpt lat="41.15786730360134" lon="9.338267243929081"><ele>133.0</ele><time>2026-04-26T08:56:23Z</time></trkpt><trkpt lat="41.15789902476068" lon="9.338378059581188"><ele>133.0</ele><time>2026-04-26T08:56:24Z</time></trkpt><trkpt lat="41.15793009374278" lon="9.338501745385939"><ele>133.0</ele><time>2026-04-26T08:56:25Z</time></trkpt><trkpt lat="41.15796453870953" lon="9.338615818139864"><ele>133.0</ele><time>2026-04-26T08:56:26Z</time></trkpt><trkpt lat="41.15801211471368" lon="9.33871841367557"><ele>133.0</ele><time>2026-04-26T08:56:27Z</time></trkpt><trkpt lat="41.15807389187841" lon="9.338809913152566"><ele>133.0</ele><time>2026-04-26T08:56:28Z</time></trkpt><trkpt lat="41.15814715230078" lon="9.338887334029044"><ele>131.0</ele><time>2026-04-26T08:56:29Z</time></trkpt><trkpt lat="41.15822834404366" lon="9.338957625601772"><ele>129.0</ele><time>2026-04-26T08:56:30Z</time></trkpt><trkpt lat="41.158316246268846" lon="9.339012592516998"><ele>127.00000000000001</ele><time>2026-04-26T08:56:31Z</time></trkpt><trkpt lat="41.158405978108" lon="9.339059189462757"><ele>125.0</ele><time>2026-04-26T08:56:32Z</time></trkpt><trkpt lat="41.15849954766932" lon="9.339097241111993"><ele>123.0</ele><time>2026-04-26T08:56:33Z</time></trkpt><trkpt lat="41.158595359097944" lon="9.339134732286007"><ele>123.0</ele><time>2026-04-26T08:56:34Z</time></trkpt><trkpt lat="41.15869652881677" lon="9.339166192705232"><ele>123.00000000000001</ele><time>2026-04-26T08:56:35Z</time></trkpt><trkpt lat="41.15880166336697" lon="9.339195070310728"><ele>123.00000000000001</ele><time>2026-04-26T08:56:36Z</time></trkpt><trkpt lat="41.15889641441729" lon="9.339226555971585"><ele>123.0</ele><time>2026-04-26T08:56:37Z</time></trkpt><trkpt lat="41.15897307070761" lon="9.33925883413236"><ele>123.0</ele><time>2026-04-26T08:56:38Z</time></trkpt><trkpt lat="41.15903391733387" lon="9.339301136298719"><ele>120.16666666666667</ele><time>2026-04-26T08:56:39Z</time></trkpt><trkpt lat="41.159078542963655" lon="9.339360935851408"><ele>117.33333333333334</ele><time>2026-04-26T08:56:40Z</time></trkpt><trkpt lat="41.15910372526419" lon="9.339460074997387"><ele>114.5</ele><time>2026-04-26T08:56:41Z</time></trkpt><trkpt lat="41.15910013982143" lon="9.339573797552827"><ele>111.66666666666667</ele><time>2026-04-26T08:56:42Z</time></trkpt><trkpt lat="41.159113970394024" lon="9.339673991425837"><ele>108.83333333333334</ele><time>2026-04-26T08:56:43Z</time></trkpt><trkpt lat="41.15916713223167" lon="9.339755387833941"><ele>106.0</ele><time>2026-04-26T08:56:44Z</time></trkpt><trkpt lat="41.159244325828766" lon="9.339828649632906"><ele>104.4</ele><time>2026-04-26T08:56:45Z</time></trkpt><trkpt lat="41.15932698291054" lon="9.339902235331222"><ele>102.8</ele><time>2026-04-26T08:56:46Z</time></trkpt><trkpt lat="41.15940489502515" lon="9.339978033934225"><ele>101.2</ele><time>2026-04-26T08:56:47Z</time></trkpt><trkpt lat="41.159483823099414" lon="9.340032073553704"><ele>99.60000000000001</ele><time>2026-04-26T08:56:48Z</time></trkpt><trkpt lat="41.15956897567409" lon="9.340055648743801"><ele>98.0</ele><time>2026-04-26T08:56:49Z</time></trkpt><trkpt lat="41.15966209972941" lon="9.340040875601375"><ele>98.0</ele><time>2026-04-26T08:56:50Z</time></trkpt><trkpt lat="41.1597545408169" lon="9.340012553907451"><ele>98.0</ele><time>2026-04-26T08:56:51Z</time></trkpt><trkpt lat="41.15984850413741" lon="9.340024590515618"><ele>98.0</ele><time>2026-04-26T08:56:52Z</time></trkpt><trkpt lat="41.15993929054395" lon="9.340035775900809"><ele>98.0</ele><time>2026-04-26T08:56:53Z</time></trkpt><trkpt lat="41.16004061037014" lon="9.340051297597949"><ele>98.0</ele><time>2026-04-26T08:56:54Z</time></trkpt><trkpt lat="41.16013773018305" lon="9.34006617588339"><ele>95.99999999999999</ele><time>2026-04-26T08:56:55Z</time></trkpt><trkpt lat="41.160217034753046" lon="9.340075713948377"><ele>94.0</ele><time>2026-04-26T08:56:56Z</time></trkpt><trkpt lat="41.16031415770596" lon="9.340089853789245"><ele>92.0</ele><time>2026-04-26T08:56:58Z</time></trkpt><trkpt lat="41.160376156340654" lon="9.34010451044185"><ele>90.0</ele><time>2026-04-26T08:57:00Z</time></trkpt><trkpt lat="41.160410166985514" lon="9.340205081956036"><ele>88.0</ele><time>2026-04-26T08:57:03Z</time></trkpt><trkpt lat="41.160464200977344" lon="9.340351827711862"><ele>86.0</ele><time>2026-04-26T08:57:05Z</time></trkpt><trkpt lat="41.16049467998825" lon="9.340487946591182"><ele>85.5</ele><time>2026-04-26T08:57:06Z</time></trkpt><trkpt lat="41.16053018919019" lon="9.340610295507199"><ele>85.0</ele><time>2026-04-26T08:57:07Z</time></trkpt><trkpt lat="41.16056606547746" lon="9.34073453682441"><ele>84.5</ele><time>2026-04-26T08:57:08Z</time></trkpt><trkpt lat="41.16060028215288" lon="9.34084776607812"><ele>84.0</ele><time>2026-04-26T08:57:09Z</time></trkpt><trkpt lat="41.160636384878934" lon="9.340945131540204"><ele>83.5</ele><time>2026-04-26T08:57:10Z</time></trkpt><trkpt lat="41.16068444976594" lon="9.341022948831652"><ele>83.0</ele><time>2026-04-26T08:57:11Z</time></trkpt><trkpt lat="41.16074637263981" lon="9.341083399853158"><ele>82.0</ele><time>2026-04-26T08:57:12Z</time></trkpt><trkpt lat="41.16081536373099" lon="9.341136062030753"><ele>81.0</ele><time>2026-04-26T08:57:13Z</time></trkpt><trkpt lat="41.16090318384736" lon="9.341141155232226"><ele>80.0</ele><time>2026-04-26T08:57:14Z</time></trkpt><trkpt lat="41.16100025936257" lon="9.3411189035763"><ele>79.0</ele><time>2026-04-26T08:57:15Z</time></trkpt><trkpt lat="41.16109581618644" lon="9.341061231712512"><ele>78.0</ele><time>2026-04-26T08:57:16Z</time></trkpt><trkpt lat="41.16117793017935" lon="9.340999873920692"><ele>78.0</ele><time>2026-04-26T08:57:17Z</time></trkpt><trkpt lat="41.16123903279659" lon="9.340956659034186"><ele>78.0</ele><time>2026-04-26T08:57:18Z</time></trkpt><trkpt lat="41.161335501960956" lon="9.340939523046272"><ele>78.0</ele><time>2026-04-26T08:57:20Z</time></trkpt><trkpt lat="41.161392985193245" lon="9.341110120217822"><ele>78.0</ele><time>2026-04-26T08:57:22Z</time></trkpt><trkpt lat="41.1614090052732" lon="9.341276310519916"><ele>78.0</ele><time>2026-04-26T08:57:23Z</time></trkpt><trkpt lat="41.16142800120438" lon="9.341436698391103"><ele>76.2</ele><time>2026-04-26T08:57:24Z</time></trkpt><trkpt lat="41.16144730830047" lon="9.341584430355535"><ele>74.4</ele><time>2026-04-26T08:57:25Z</time></trkpt><trkpt lat="41.161472479981335" lon="9.341717116313141"><ele>72.60000000000001</ele><time>2026-04-26T08:57:26Z</time></trkpt><trkpt lat="41.161516597225535" lon="9.341827935011283"><ele>70.8</ele><time>2026-04-26T08:57:27Z</time></trkpt><trkpt lat="41.16158491284203" lon="9.341931705537489"><ele>69.0</ele><time>2026-04-26T08:57:28Z</time></trkpt><trkpt lat="41.16167441686673" lon="9.342036114544992"><ele>66.5</ele><time>2026-04-26T08:57:29Z</time></trkpt><trkpt lat="41.16177749819178" lon="9.342139884365324"><ele>64.0</ele><time>2026-04-26T08:57:30Z</time></trkpt><trkpt lat="41.161876500614405" lon="9.342240211050797"><ele>61.5</ele><time>2026-04-26T08:57:31Z</time></trkpt><trkpt lat="41.161972128187784" lon="9.342339973781131"><ele>59.0</ele><time>2026-04-26T08:57:32Z</time></trkpt><trkpt lat="41.16205689109927" lon="9.342429592441984"><ele>58.400000000000006</ele><time>2026-04-26T08:57:33Z</time></trkpt><trkpt lat="41.16213192589623" lon="9.342498661895142"><ele>57.800000000000004</ele><time>2026-04-26T08:57:34Z</time></trkpt><trkpt lat="41.16221055197121" lon="9.34255096335867"><ele>57.199999999999996</ele><time>2026-04-26T08:57:35Z</time></trkpt><trkpt lat="41.16230429126816" lon="9.342577614770088"><ele>56.599999999999994</ele><time>2026-04-26T08:57:36Z</time></trkpt><trkpt lat="41.16240915897144" lon="9.342583325401758"><ele>56.0</ele><time>2026-04-26T08:57:37Z</time></trkpt><trkpt lat="41.162513072362025" lon="9.342601486901291"><ele>55.199999999999996</ele><time>2026-04-26T08:57:38Z</time></trkpt><trkpt lat="41.16261462111341" lon="9.342593822375273"><ele>54.39999999999999</ele><time>2026-04-26T08:57:39Z</time></trkpt><trkpt lat="41.16271409538414" lon="9.342555771259361"><ele>53.6</ele><time>2026-04-26T08:57:40Z</time></trkpt><trkpt lat="41.16280666590503" lon="9.342504523835878"><ele>52.8</ele><time>2026-04-26T08:57:41Z</time></trkpt><trkpt lat="41.16288602470929" lon="9.342437297806262"><ele>52.0</ele><time>2026-04-26T08:57:42Z</time></trkpt><trkpt lat="41.162956727964634" lon="9.342336049793623"><ele>52.6</ele><time>2026-04-26T08:57:43Z</time></trkpt><trkpt lat="41.16301812913238" lon="9.342208108736848"><ele>53.2</ele><time>2026-04-26T08:57:44Z</time></trkpt><trkpt lat="41.16308787327681" lon="9.342094632623397"><ele>53.8</ele><time>2026-04-26T08:57:45Z</time></trkpt><trkpt lat="41.163155677722514" lon="9.342004790609623"><ele>54.4</ele><time>2026-04-26T08:57:46Z</time></trkpt><trkpt lat="41.16323583513007" lon="9.341925666000781"><ele>55.0</ele><time>2026-04-26T08:57:47Z</time></trkpt><trkpt lat="41.16331346332194" lon="9.341871554757585"><ele>53.99999999999999</ele><time>2026-04-26T08:57:48Z</time></trkpt><trkpt lat="41.16339236481077" lon="9.341843263894866"><ele>53.0</ele><time>2026-04-26T08:57:49Z</time></trkpt><trkpt lat="41.16347157674063" lon="9.341817720478218"><ele>52.0</ele><time>2026-04-26T08:57:50Z</time></trkpt><trkpt lat="41.163547358594876" lon="9.3418521757828"><ele>51.0</ele><time>2026-04-26T08:57:51Z</time></trkpt><trkpt lat="41.16360072490377" lon="9.341917785369644"><ele>49.99999999999999</ele><time>2026-04-26T08:57:52Z</time></trkpt><trkpt lat="41.163650148275025" lon="9.342013852268627"><ele>49.0</ele><time>2026-04-26T08:57:53Z</time></trkpt><trkpt lat="41.16370814536275" lon="9.34215842599079"><ele>48.5</ele><time>2026-04-26T08:57:54Z</time></trkpt><trkpt lat="41.16377933741823" lon="9.342329183879174"><ele>48.0</ele><time>2026-04-26T08:57:55Z</time></trkpt><trkpt lat="41.16385775071641" lon="9.342490411563006"><ele>47.5</ele><time>2026-04-26T08:57:56Z</time></trkpt><trkpt lat="41.16393948208299" lon="9.342638949711358"><ele>47.0</ele><time>2026-04-26T08:57:57Z</time></trkpt><trkpt lat="41.164033069530404" lon="9.342788158862417"><ele>46.25</ele><time>2026-04-26T08:57:57.999Z</time></trkpt><trkpt lat="41.16412678553915" lon="9.342937296872257"><ele>45.5</ele><time>2026-04-26T08:57:58.999Z</time></trkpt><trkpt lat="41.164221200875254" lon="9.34307794003447"><ele>44.75</ele><time>2026-04-26T08:57:59.999Z</time></trkpt><trkpt lat="41.16432367378819" lon="9.343208026160628"><ele>44.0</ele><time>2026-04-26T08:58:00.999Z</time></trkpt><trkpt lat="41.16442948048309" lon="9.343332821342544"><ele>43.75</ele><time>2026-04-26T08:58:01.999Z</time></trkpt><trkpt lat="41.164537530752156" lon="9.343456271065769"><ele>43.5</ele><time>2026-04-26T08:58:02.999Z</time></trkpt><trkpt lat="41.16464559706899" lon="9.343579762157939"><ele>43.25</ele><time>2026-04-26T08:58:03.999Z</time></trkpt><trkpt lat="41.16475189775221" lon="9.343702288261342"><ele>43.0</ele><time>2026-04-26T08:58:04.999Z</time></trkpt><trkpt lat="41.164856946531984" lon="9.343817530192185"><ele>42.0</ele><time>2026-04-26T08:58:05.999Z</time></trkpt><trkpt lat="41.164959847763626" lon="9.343931463622756"><ele>41.0</ele><time>2026-04-26T08:58:06.999Z</time></trkpt><trkpt lat="41.16505315128728" lon="9.344044786155148"><ele>40.0</ele><time>2026-04-26T08:58:07.999Z</time></trkpt><trkpt lat="41.165139376967666" lon="9.344154760325083"><ele>39.0</ele><time>2026-04-26T08:58:08.999Z</time></trkpt><trkpt lat="41.165225739956504" lon="9.34425710834213"><ele>39.0</ele><time>2026-04-26T08:58:09.999Z</time></trkpt><trkpt lat="41.165316585204145" lon="9.344346961502719"><ele>39.0</ele><time>2026-04-26T08:58:10.999Z</time></trkpt><trkpt lat="41.165410276578605" lon="9.344420297166442"><ele>39.0</ele><time>2026-04-26T08:58:11.999Z</time></trkpt><trkpt lat="41.16550627408332" lon="9.344485784368466"><ele>39.0</ele><time>2026-04-26T08:58:12.999Z</time></trkpt><trkpt lat="41.165604480804156" lon="9.344540279877327"><ele>39.0</ele><time>2026-04-26T08:58:13.999Z</time></trkpt><trkpt lat="41.16570131143139" lon="9.344589009305514"><ele>38.25</ele><time>2026-04-26T08:58:14.999Z</time></trkpt><trkpt lat="41.16582226652726" lon="9.344588734065065"><ele>37.5</ele><time>2026-04-26T08:58:15.999Z</time></trkpt><trkpt lat="41.16594575178619" lon="9.344562471262563"><ele>36.75</ele><time>2026-04-26T08:58:16.999Z</time></trkpt><trkpt lat="41.16607395581585" lon="9.34453376050267"><ele>36.0</ele><time>2026-04-26T08:58:17.999Z</time></trkpt><trkpt lat="41.166194232428275" lon="9.34451063984761"><ele>36.0</ele><time>2026-04-26T08:58:18.999Z</time></trkpt><trkpt lat="41.1663166417576" lon="9.344501967902312"><ele>36.0</ele><time>2026-04-26T08:58:19.999Z</time></trkpt><trkpt lat="41.16643843979793" lon="9.344497817459333"><ele>36.0</ele><time>2026-04-26T08:58:20.999Z</time></trkpt><trkpt lat="41.16654616831228" lon="9.34449414645124"><ele>36.0</ele><time>2026-04-26T08:58:21.999Z</time></trkpt><trkpt lat="41.16664519718378" lon="9.344470862923833"><ele>36.0</ele><time>2026-04-26T08:58:22.999Z</time></trkpt><trkpt lat="41.166731057975475" lon="9.344487330064265"><ele>36.0</ele><time>2026-04-26T08:58:23.999Z</time></trkpt><trkpt lat="41.166799923371556" lon="9.344513839639651"><ele>36.0</ele><time>2026-04-26T08:58:24.999Z</time></trkpt><trkpt lat="41.16686036968662" lon="9.344567476691747"><ele>36.0</ele><time>2026-04-26T08:58:25.999Z</time></trkpt><trkpt lat="41.166925599340736" lon="9.344645042040513"><ele>36.0</ele><time>2026-04-26T08:58:26.999Z</time></trkpt><trkpt lat="41.16700307124184" lon="9.344761301161537"><ele>36.0</ele><time>2026-04-26T08:58:27.999Z</time></trkpt><trkpt lat="41.167104864057215" lon="9.344917325533856"><ele>35.666666666666664</ele><time>2026-04-26T08:58:29Z</time></trkpt><trkpt lat="41.167219940335364" lon="9.345097255507724"><ele>35.33333333333333</ele><time>2026-04-26T08:58:30Z</time></trkpt><trkpt lat="41.167340842267414" lon="9.345279926009017"><ele>35.0</ele><time>2026-04-26T08:58:31Z</time></trkpt><trkpt lat="41.1674549960657" lon="9.345448557410615"><ele>33.666666666666664</ele><time>2026-04-26T08:58:32Z</time></trkpt><trkpt lat="41.16756472365179" lon="9.345604529683326"><ele>32.333333333333336</ele><time>2026-04-26T08:58:33Z</time></trkpt><trkpt lat="41.16766738699839" lon="9.345756286740436"><ele>31.0</ele><time>2026-04-26T08:58:34Z</time></trkpt><trkpt lat="41.16776497118061" lon="9.345902864076606"><ele>31.0</ele><time>2026-04-26T08:58:35Z</time></trkpt><trkpt lat="41.167862391297355" lon="9.346044471575322"><ele>31.0</ele><time>2026-04-26T08:58:36Z</time></trkpt><trkpt lat="41.16794199093599" lon="9.346186682151625"><ele>31.0</ele><time>2026-04-26T08:58:37Z</time></trkpt><trkpt lat="41.16800523310634" lon="9.346333929110363"><ele>31.0</ele><time>2026-04-26T08:58:38Z</time></trkpt><trkpt lat="41.16805343890246" lon="9.34649731679934"><ele>31.0</ele><time>2026-04-26T08:58:39Z</time></trkpt><trkpt lat="41.16809766505385" lon="9.346672118189204"><ele>31.0</ele><time>2026-04-26T08:58:40Z</time></trkpt><trkpt lat="41.16814592662096" lon="9.34685742049008"><ele>31.0</ele><time>2026-04-26T08:58:41Z</time></trkpt><trkpt lat="41.16820049488541" lon="9.34705319367485"><ele>31.0</ele><time>2026-04-26T08:58:42Z</time></trkpt><trkpt lat="41.16824833497049" lon="9.347245025466023"><ele>30.75</ele><time>2026-04-26T08:58:43Z</time></trkpt><trkpt lat="41.168297565034656" lon="9.347421874908797"><ele>30.5</ele><time>2026-04-26T08:58:44Z</time></trkpt><trkpt lat="41.168345428785685" lon="9.347586417032044"><ele>30.25</ele><time>2026-04-26T08:58:45Z</time></trkpt><trkpt lat="41.1683965986581" lon="9.347740442365776"><ele>30.0</ele><time>2026-04-26T08:58:46Z</time></trkpt><trkpt lat="41.16846697201083" lon="9.347865118876747"><ele>30.0</ele><time>2026-04-26T08:58:47Z</time></trkpt><trkpt lat="41.168539045037015" lon="9.347980367220682"><ele>30.0</ele><time>2026-04-26T08:58:48Z</time></trkpt><trkpt lat="41.16861109020764" lon="9.348091712572632"><ele>30.0</ele><time>2026-04-26T08:58:49Z</time></trkpt><trkpt lat="41.168693092728674" lon="9.348195826850974"><ele>30.0</ele><time>2026-04-26T08:58:50Z</time></trkpt><trkpt lat="41.168770713909176" lon="9.3483151756498"><ele>30.0</ele><time>2026-04-26T08:58:51Z</time></trkpt><trkpt lat="41.16885583982829" lon="9.348437535991632"><ele>30.0</ele><time>2026-04-26T08:58:52Z</time></trkpt><trkpt lat="41.16894101733624" lon="9.348571212887041"><ele>30.0</ele><time>2026-04-26T08:58:53Z</time></trkpt><trkpt lat="41.169032231235946" lon="9.348711944451509"><ele>30.0</ele><time>2026-04-26T08:58:54Z</time></trkpt><trkpt lat="41.16912531133236" lon="9.34885211058126"><ele>29.75</ele><time>2026-04-26T08:58:55Z</time></trkpt><trkpt lat="41.16921031734958" lon="9.348980740703134"><ele>29.5</ele><time>2026-04-26T08:58:56Z</time></trkpt><trkpt lat="41.16929159609535" lon="9.349099221826966"><ele>29.25</ele><time>2026-04-26T08:58:57Z</time></trkpt><trkpt lat="41.16937874881801" lon="9.349196356669976"><ele>29.0</ele><time>2026-04-26T08:58:58Z</time></trkpt><trkpt lat="41.16947609789615" lon="9.349264583479686"><ele>29.0</ele><time>2026-04-26T08:58:59Z</time></trkpt><trkpt lat="41.16959248687098" lon="9.34930755116566"><ele>29.0</ele><time>2026-04-26T08:59:00Z</time></trkpt><trkpt lat="41.169728684625426" lon="9.349335755049806"><ele>29.0</ele><time>2026-04-26T08:59:01Z</time></trkpt><trkpt lat="41.169865566473355" lon="9.34936225605383"><ele>29.0</ele><time>2026-04-26T08:59:02Z</time></trkpt><trkpt lat="41.16998515662658" lon="9.349399746536871"><ele>28.5</ele><time>2026-04-26T08:59:03Z</time></trkpt><trkpt lat="41.17009418697914" lon="9.349447215054292"><ele>28.0</ele><time>2026-04-26T08:59:04Z</time></trkpt><trkpt lat="41.17020671787244" lon="9.349513642422577"><ele>27.5</ele><time>2026-04-26T08:59:05Z</time></trkpt><trkpt lat="41.170323358334926" lon="9.349594650793499"><ele>27.0</ele><time>2026-04-26T08:59:06Z</time></trkpt><trkpt lat="41.17043422853448" lon="9.349671171428378"><ele>27.0</ele><time>2026-04-26T08:59:07Z</time></trkpt><trkpt lat="41.17053487949409" lon="9.349738976491087"><ele>27.0</ele><time>2026-04-26T08:59:08Z</time></trkpt><trkpt lat="41.170624141666906" lon="9.349793275603785"><ele>27.0</ele><time>2026-04-26T08:59:09Z</time></trkpt><trkpt lat="41.1706934508786" lon="9.349837836464891"><ele>27.0</ele><time>2026-04-26T08:59:10Z</time></trkpt><trkpt lat="41.170751059039205" lon="9.349879510680834"><ele>27.0</ele><time>2026-04-26T08:59:11Z</time></trkpt><trkpt lat="41.17081080763264" lon="9.349913825214948"><ele>27.0</ele><time>2026-04-26T08:59:12Z</time></trkpt><trkpt lat="41.17090226503693" lon="9.349969685872587"><ele>27.0</ele><time>2026-04-26T08:59:14Z</time></trkpt><trkpt lat="41.1709951025092" lon="9.34997174829893"><ele>27.0</ele><time>2026-04-26T08:59:20Z</time></trkpt><trkpt lat="41.17100463115441" lon="9.349812610780713"><ele>27.0</ele><time>2026-04-26T08:59:21Z</time></trkpt><trkpt lat="41.17101678098011" lon="9.34964740465863"><ele>27.0</ele><time>2026-04-26T08:59:22Z</time></trkpt><trkpt lat="41.17102164747476" lon="9.349458932326574"><ele>26.333333333333336</ele><time>2026-04-26T08:59:23Z</time></trkpt><trkpt lat="41.17102862624843" lon="9.349236776473909"><ele>25.666666666666668</ele><time>2026-04-26T08:59:24Z</time></trkpt><trkpt lat="41.17103757444668" lon="9.348984211077525"><ele>25.0</ele><time>2026-04-26T08:59:25Z</time></trkpt><trkpt lat="41.17104703714525" lon="9.348717123853438"><ele>24.666666666666668</ele><time>2026-04-26T08:59:26Z</time></trkpt><trkpt lat="41.17105620196075" lon="9.348458444575993"><ele>24.333333333333336</ele><time>2026-04-26T08:59:27Z</time></trkpt><trkpt lat="41.17106428231054" lon="9.34820468312781"><ele>24.0</ele><time>2026-04-26T08:59:28Z</time></trkpt><trkpt lat="41.17107170989937" lon="9.34794533122239"><ele>24.666666666666664</ele><time>2026-04-26T08:59:29Z</time></trkpt><trkpt lat="41.1710790909887" lon="9.34768760312392"><ele>25.333333333333332</ele><time>2026-04-26T08:59:30Z</time></trkpt><trkpt lat="41.1710863850937" lon="9.347432912304109"><ele>26.0</ele><time>2026-04-26T08:59:31Z</time></trkpt><trkpt lat="41.171093621580205" lon="9.347180233350317"><ele>26.0</ele><time>2026-04-26T08:59:32Z</time></trkpt><trkpt lat="41.171100209493346" lon="9.346924687332303"><ele>26.0</ele><time>2026-04-26T08:59:33Z</time></trkpt><trkpt lat="41.17110625885286" lon="9.346668870286486"><ele>26.0</ele><time>2026-04-26T08:59:34Z</time></trkpt><trkpt lat="41.171111296327254" lon="9.346413646626408"><ele>26.333333333333332</ele><time>2026-04-26T08:59:35Z</time></trkpt><trkpt lat="41.171115758941454" lon="9.346170262501634"><ele>26.666666666666664</ele><time>2026-04-26T08:59:36Z</time></trkpt><trkpt lat="41.17111852274786" lon="9.345934788137486"><ele>27.0</ele><time>2026-04-26T08:59:37Z</time></trkpt><trkpt lat="41.171120638720204" lon="9.345704972577794"><ele>28.0</ele><time>2026-04-26T08:59:38Z</time></trkpt><trkpt lat="41.17112105800449" lon="9.345472450162298"><ele>29.0</ele><time>2026-04-26T08:59:39Z</time></trkpt><trkpt lat="41.17112105800359" lon="9.345237259522614"><ele>30.0</ele><time>2026-04-26T08:59:40Z</time></trkpt><trkpt lat="41.171090535468096" lon="9.345002078618101"><ele>30.0</ele><time>2026-04-26T08:59:41Z</time></trkpt><trkpt lat="41.17109149111801" lon="9.344767072070022"><ele>30.0</ele><time>2026-04-26T08:59:42Z</time></trkpt><trkpt lat="41.17109107138975" lon="9.344528720405876"><ele>30.0</ele><time>2026-04-26T08:59:43Z</time></trkpt><trkpt lat="41.171088052823805" lon="9.344288469716123"><ele>30.0</ele><time>2026-04-26T08:59:44Z</time></trkpt><trkpt lat="41.17108338381641" lon="9.344040848545687"><ele>30.0</ele><time>2026-04-26T08:59:45Z</time></trkpt><trkpt lat="41.17108471358587" lon="9.343786124829851"><ele>30.0</ele><time>2026-04-26T08:59:46Z</time></trkpt><trkpt lat="41.17110621076143" lon="9.343529916867578"><ele>30.0</ele><time>2026-04-26T08:59:47Z</time></trkpt><trkpt lat="41.171102827176185" lon="9.34328131669892"><ele>30.0</ele><time>2026-04-26T08:59:48Z</time></trkpt><trkpt lat="41.17109652597481" lon="9.343037096524169"><ele>30.0</ele><time>2026-04-26T08:59:49Z</time></trkpt><trkpt lat="41.1710822429128" lon="9.34279757487566"><ele>30.666666666666664</ele><time>2026-04-26T08:59:50Z</time></trkpt><trkpt lat="41.17105801274873" lon="9.342561417939002"><ele>31.333333333333332</ele><time>2026-04-26T08:59:51Z</time></trkpt><trkpt lat="41.17102998212558" lon="9.342329326502814"><ele>32.0</ele><time>2026-04-26T08:59:52Z</time></trkpt><trkpt lat="41.171000260592045" lon="9.342095641863487"><ele>32.666666666666664</ele><time>2026-04-26T08:59:53Z</time></trkpt><trkpt lat="41.17095438344405" lon="9.341864769700393"><ele>33.333333333333336</ele><time>2026-04-26T08:59:54Z</time></trkpt><trkpt lat="41.170925451675366" lon="9.341644369746948"><ele>34.0</ele><time>2026-04-26T08:59:55Z</time></trkpt><trkpt lat="41.17088388266809" lon="9.3414510194264"><ele>35.0</ele><time>2026-04-26T08:59:56Z</time></trkpt><trkpt lat="41.170814633796034" lon="9.341265793449178"><ele>36.0</ele><time>2026-04-26T08:59:57Z</time></trkpt><trkpt lat="41.17070550526002" lon="9.341074956846363"><ele>37.0</ele><time>2026-04-26T08:59:58Z</time></trkpt><trkpt lat="41.17058620646093" lon="9.34089673472539"><ele>37.0</ele><time>2026-04-26T08:59:59Z</time></trkpt><trkpt lat="41.17051898411218" lon="9.340707974765332"><ele>37.0</ele><time>2026-04-26T09:00:00Z</time></trkpt><trkpt lat="41.170484971710835" lon="9.340501324002313"><ele>37.0</ele><time>2026-04-26T09:00:01Z</time></trkpt><trkpt lat="41.17045733225594" lon="9.34026189832497"><ele>38.0</ele><time>2026-04-26T09:00:02Z</time></trkpt><trkpt lat="41.170426978338085" lon="9.339993941444943"><ele>39.0</ele><time>2026-04-26T09:00:03Z</time></trkpt><trkpt lat="41.170380254432" lon="9.339720392006736"><ele>40.0</ele><time>2026-04-26T09:00:04Z</time></trkpt><trkpt lat="41.170349631248314" lon="9.339454893046454"><ele>41.333333333333336</ele><time>2026-04-26T09:00:05Z</time></trkpt><trkpt lat="41.17032410572441" lon="9.339216984313236"><ele>42.666666666666664</ele><time>2026-04-26T09:00:06Z</time></trkpt><trkpt lat="41.170300104790826" lon="9.338996079130403"><ele>44.0</ele><time>2026-04-26T09:00:07Z</time></trkpt><trkpt lat="41.17027084513947" lon="9.338788136734234"><ele>44.666666666666664</ele><time>2026-04-26T09:00:08Z</time></trkpt><trkpt lat="41.1702178904941" lon="9.338593581934415"><ele>45.333333333333336</ele><time>2026-04-26T09:00:08.999Z</time></trkpt><trkpt lat="41.170140079891816" lon="9.338399746793426"><ele>46.0</ele><time>2026-04-26T09:00:09.999Z</time></trkpt><trkpt lat="41.170054106791795" lon="9.33820792387073"><ele>45.66666666666667</ele><time>2026-04-26T09:00:10.999Z</time></trkpt><trkpt lat="41.1700099840289" lon="9.338006432593868"><ele>45.333333333333336</ele><time>2026-04-26T09:00:11.999Z</time></trkpt><trkpt lat="41.16999053312895" lon="9.337795246674748"><ele>45.0</ele><time>2026-04-26T09:00:12.999Z</time></trkpt><trkpt lat="41.16999220393512" lon="9.33756947534757"><ele>45.0</ele><time>2026-04-26T09:00:13.999Z</time></trkpt><trkpt lat="41.169997252511116" lon="9.337346839336082"><ele>45.0</ele><time>2026-04-26T09:00:14.999Z</time></trkpt><trkpt lat="41.17000285682762" lon="9.337134615169381"><ele>45.0</ele><time>2026-04-26T09:00:15.999Z</time></trkpt><trkpt lat="41.170007801327124" lon="9.336935659974968"><ele>45.25</ele><time>2026-04-26T09:00:16.999Z</time></trkpt><trkpt lat="41.170012518578936" lon="9.33674175524789"><ele>45.5</ele><time>2026-04-26T09:00:17.999Z</time></trkpt><trkpt lat="41.17001517282425" lon="9.336541887586037"><ele>45.75</ele><time>2026-04-26T09:00:18.999Z</time></trkpt><trkpt lat="41.17003275330422" lon="9.336344082898586"><ele>46.0</ele><time>2026-04-26T09:00:19.999Z</time></trkpt><trkpt lat="41.17007375466957" lon="9.33614846508683"><ele>46.0</ele><time>2026-04-26T09:00:20.999Z</time></trkpt><trkpt lat="41.170117788835825" lon="9.33595282366275"><ele>46.0</ele><time>2026-04-26T09:00:21.999Z</time></trkpt><trkpt lat="41.170235445688206" lon="9.335808465772047"><ele>46.0</ele><time>2026-04-26T09:00:22.999Z</time></trkpt><trkpt lat="41.17031477363106" lon="9.33564235154405"><ele>46.75</ele><time>2026-04-26T09:00:23.999Z</time></trkpt><trkpt lat="41.170369042858816" lon="9.335465103075663"><ele>47.5</ele><time>2026-04-26T09:00:24.999Z</time></trkpt><trkpt lat="41.170419200776784" lon="9.335282573305957"><ele>48.25</ele><time>2026-04-26T09:00:25.999Z</time></trkpt><trkpt lat="41.170444160428794" lon="9.335087412833515"><ele>49.0</ele><time>2026-04-26T09:00:26.999Z</time></trkpt><trkpt lat="41.170436067549495" lon="9.334888231057306"><ele>48.33333333333333</ele><time>2026-04-26T09:00:27.999Z</time></trkpt><trkpt lat="41.17040168315459" lon="9.334688990838517"><ele>47.666666666666664</ele><time>2026-04-26T09:00:28.999Z</time></trkpt><trkpt lat="41.17035103359556" lon="9.33449338997985"><ele>47.0</ele><time>2026-04-26T09:00:29.999Z</time></trkpt><trkpt lat="41.17028675957411" lon="9.33430217167335"><ele>47.0</ele><time>2026-04-26T09:00:30.999Z</time></trkpt><trkpt lat="41.17020811306013" lon="9.334118944217122"><ele>47.0</ele><time>2026-04-26T09:00:31.999Z</time></trkpt><trkpt lat="41.17011573227109" lon="9.333945812737747"><ele>47.0</ele><time>2026-04-26T09:00:32.999Z</time></trkpt><trkpt lat="41.17001607112684" lon="9.333785586294052"><ele>45.33333333333333</ele><time>2026-04-26T09:00:33.999Z</time></trkpt><trkpt lat="41.16990868060881" lon="9.333624912393127"><ele>43.666666666666664</ele><time>2026-04-26T09:00:35Z</time></trkpt><trkpt lat="41.16980105097381" lon="9.333465269265536"><ele>42.0</ele><time>2026-04-26T09:00:36Z</time></trkpt><trkpt lat="41.169697725983305" lon="9.333310963240656"><ele>44.5</ele><time>2026-04-26T09:00:37Z</time></trkpt><trkpt lat="41.16963290549111" lon="9.33313228696736"><ele>47.0</ele><time>2026-04-26T09:00:38Z</time></trkpt><trkpt lat="41.16957750574002" lon="9.332953890594519"><ele>49.5</ele><time>2026-04-26T09:00:39Z</time></trkpt><trkpt lat="41.16954043576707" lon="9.332764095764707"><ele>52.0</ele><time>2026-04-26T09:00:40Z</time></trkpt><trkpt lat="41.16951139628258" lon="9.332568501922056"><ele>52.0</ele><time>2026-04-26T09:00:41Z</time></trkpt><trkpt lat="41.16946863785393" lon="9.332365168156942"><ele>52.0</ele><time>2026-04-26T09:00:42Z</time></trkpt><trkpt lat="41.16944250357729" lon="9.332163751353391"><ele>52.0</ele><time>2026-04-26T09:00:43Z</time></trkpt><trkpt lat="41.16942465988481" lon="9.331961257293967"><ele>52.0</ele><time>2026-04-26T09:00:44Z</time></trkpt><trkpt lat="41.169375232946905" lon="9.331772269489003"><ele>52.0</ele><time>2026-04-26T09:00:45Z</time></trkpt><trkpt lat="41.16930873058022" lon="9.331591963166522"><ele>52.0</ele><time>2026-04-26T09:00:46Z</time></trkpt><trkpt lat="41.16921968946986" lon="9.331423472296919"><ele>51.5</ele><time>2026-04-26T09:00:47Z</time></trkpt><trkpt lat="41.16914893402866" lon="9.331242955994359"><ele>51.0</ele><time>2026-04-26T09:00:48Z</time></trkpt><trkpt lat="41.16907902621515" lon="9.331071209498509"><ele>50.5</ele><time>2026-04-26T09:00:49Z</time></trkpt><trkpt lat="41.16902136360397" lon="9.330907780062443"><ele>50.0</ele><time>2026-04-26T09:00:50Z</time></trkpt><trkpt lat="41.16900003207042" lon="9.330730409401454"><ele>50.25</ele><time>2026-04-26T09:00:51Z</time></trkpt><trkpt lat="41.16899240570448" lon="9.330559580790329"><ele>50.5</ele><time>2026-04-26T09:00:52Z</time></trkpt><trkpt lat="41.1690202490881" lon="9.330403373817964"><ele>50.75</ele><time>2026-04-26T09:00:53Z</time></trkpt><trkpt lat="41.16905357075937" lon="9.330238469018722"><ele>51.0</ele><time>2026-04-26T09:00:54Z</time></trkpt><trkpt lat="41.16909438048142" lon="9.33007094695939"><ele>51.0</ele><time>2026-04-26T09:00:55Z</time></trkpt><trkpt lat="41.169135746373385" lon="9.329906848861299"><ele>51.0</ele><time>2026-04-26T09:00:56Z</time></trkpt><trkpt lat="41.169177059458505" lon="9.32974536985112"><ele>51.0</ele><time>2026-04-26T09:00:57Z</time></trkpt><trkpt lat="41.169217383068826" lon="9.329585369182524"><ele>51.0</ele><time>2026-04-26T09:00:58Z</time></trkpt><trkpt lat="41.169257656314876" lon="9.329421399725044"><ele>52.25</ele><time>2026-04-26T09:00:59Z</time></trkpt><trkpt lat="41.1692983491222" lon="9.32925136964728"><ele>53.5</ele><time>2026-04-26T09:01:00Z</time></trkpt><trkpt lat="41.16933842496097" lon="9.32907173236954"><ele>54.75</ele><time>2026-04-26T09:01:01Z</time></trkpt><trkpt lat="41.16935881303451" lon="9.328874230312655"><ele>56.0</ele><time>2026-04-26T09:01:02Z</time></trkpt><trkpt lat="41.169371928501114" lon="9.328659821026088"><ele>56.0</ele><time>2026-04-26T09:01:03Z</time></trkpt><trkpt lat="41.16936913103284" lon="9.328453097083509"><ele>56.0</ele><time>2026-04-26T09:01:04Z</time></trkpt><trkpt lat="41.16936445596628" lon="9.328255271234235"><ele>56.0</ele><time>2026-04-26T09:01:05Z</time></trkpt><trkpt lat="41.16939076100725" lon="9.328058510508953"><ele>55.25</ele><time>2026-04-26T09:01:06Z</time></trkpt><trkpt lat="41.1694187080308" lon="9.327862055356874"><ele>54.5</ele><time>2026-04-26T09:01:07Z</time></trkpt><trkpt lat="41.16945254167509" lon="9.32768517170089"><ele>53.75</ele><time>2026-04-26T09:01:08Z</time></trkpt><trkpt lat="41.16947061871236" lon="9.327507415509448"><ele>53.0</ele><time>2026-04-26T09:01:09Z</time></trkpt><trkpt lat="41.16953054607752" lon="9.327355971971786"><ele>53.0</ele><time>2026-04-26T09:01:10Z</time></trkpt><trkpt lat="41.169616090480716" lon="9.32723288601897"><ele>53.0</ele><time>2026-04-26T09:01:11Z</time></trkpt><trkpt lat="41.16972422742283" lon="9.327138065681053"><ele>53.0</ele><time>2026-04-26T09:01:12Z</time></trkpt><trkpt lat="41.16985836925273" lon="9.327076797063803"><ele>53.0</ele><time>2026-04-26T09:01:13Z</time></trkpt><trkpt lat="41.16998466686959" lon="9.326959214701935"><ele>52.0</ele><time>2026-04-26T09:01:14Z</time></trkpt><trkpt lat="41.1700961367489" lon="9.326812879570843"><ele>51.0</ele><time>2026-04-26T09:01:15Z</time></trkpt><trkpt lat="41.17019881521955" lon="9.326668261440423"><ele>50.0</ele><time>2026-04-26T09:01:16Z</time></trkpt><trkpt lat="41.17029827308786" lon="9.326514523383747"><ele>51.333333333333336</ele><time>2026-04-26T09:01:17Z</time></trkpt><trkpt lat="41.17037988836365" lon="9.326334998002137"><ele>52.66666666666667</ele><time>2026-04-26T09:01:18Z</time></trkpt><trkpt lat="41.17046108908301" lon="9.326159943462553"><ele>54.0</ele><time>2026-04-26T09:01:19Z</time></trkpt><trkpt lat="41.170545105532206" lon="9.32599734277683"><ele>54.0</ele><time>2026-04-26T09:01:20Z</time></trkpt><trkpt lat="41.17063268277204" lon="9.325854449077132"><ele>54.0</ele><time>2026-04-26T09:01:21Z</time></trkpt><trkpt lat="41.17072309810102" lon="9.32572429439748"><ele>54.0</ele><time>2026-04-26T09:01:22Z</time></trkpt><trkpt lat="41.170819112868365" lon="9.325608759075001"><ele>54.0</ele><time>2026-04-26T09:01:23Z</time></trkpt><trkpt lat="41.17091959148055" lon="9.325491793839063"><ele>52.75</ele><time>2026-04-26T09:01:24Z</time></trkpt><trkpt lat="41.1710126752796" lon="9.325380585446903"><ele>51.5</ele><time>2026-04-26T09:01:25Z</time></trkpt><trkpt lat="41.17109996720974" lon="9.325268918197317"><ele>50.25</ele><time>2026-04-26T09:01:26Z</time></trkpt><trkpt lat="41.171170402435216" lon="9.325130690757199"><ele>49.0</ele><time>2026-04-26T09:01:27Z</time></trkpt><trkpt lat="41.17120441766574" lon="9.324968735035139"><ele>49.0</ele><time>2026-04-26T09:01:28Z</time></trkpt><trkpt lat="41.17117971028266" lon="9.324800130526182"><ele>49.0</ele><time>2026-04-26T09:01:29Z</time></trkpt><trkpt lat="41.171152858371016" lon="9.324624621566196"><ele>49.0</ele><time>2026-04-26T09:01:30Z</time></trkpt><trkpt lat="41.17111089082637" lon="9.324480796261208"><ele>49.0</ele><time>2026-04-26T09:01:31Z</time></trkpt><trkpt lat="41.17106004892975" lon="9.324341788801263"><ele>49.0</ele><time>2026-04-26T09:01:32Z</time></trkpt><trkpt lat="41.170982642584356" lon="9.324230981059818"><ele>49.0</ele><time>2026-04-26T09:01:33Z</time></trkpt><trkpt lat="41.17088609628498" lon="9.324150788615729"><ele>49.0</ele><time>2026-04-26T09:01:34Z</time></trkpt><trkpt lat="41.17077991043361" lon="9.324089876250847"><ele>49.0</ele><time>2026-04-26T09:01:35Z</time></trkpt><trkpt lat="41.17067486515436" lon="9.324026299564247"><ele>49.0</ele><time>2026-04-26T09:01:36Z</time></trkpt><trkpt lat="41.17056858207745" lon="9.323954564603811"><ele>49.0</ele><time>2026-04-26T09:01:37Z</time></trkpt><trkpt lat="41.17046300200209" lon="9.323873425371984"><ele>49.0</ele><time>2026-04-26T09:01:38Z</time></trkpt><trkpt lat="41.1703594477974" lon="9.323780869643242"><ele>49.0</ele><time>2026-04-26T09:01:39Z</time></trkpt><trkpt lat="41.17025488388632" lon="9.323682554311263"><ele>49.25</ele><time>2026-04-26T09:01:40Z</time></trkpt><trkpt lat="41.170149441856026" lon="9.323583480401792"><ele>49.5</ele><time>2026-04-26T09:01:41Z</time></trkpt><trkpt lat="41.17004740710395" lon="9.32348220730181"><ele>49.75</ele><time>2026-04-26T09:01:42Z</time></trkpt><trkpt lat="41.169952180894434" lon="9.323384274464544"><ele>50.0</ele><time>2026-04-26T09:01:43Z</time></trkpt><trkpt lat="41.169882305779595" lon="9.32325879094491"><ele>50.75</ele><time>2026-04-26T09:01:44Z</time></trkpt><trkpt lat="41.169824434005534" lon="9.32311760111627"><ele>51.5</ele><time>2026-04-26T09:01:45Z</time></trkpt><trkpt lat="41.16979218983768" lon="9.3229606325464"><ele>52.25</ele><time>2026-04-26T09:01:46Z</time></trkpt><trkpt lat="41.16978042003596" lon="9.322790551202294"><ele>53.0</ele><time>2026-04-26T09:01:47Z</time></trkpt><trkpt lat="41.16979011589523" lon="9.3226103942645"><ele>53.0</ele><time>2026-04-26T09:01:48Z</time></trkpt><trkpt lat="41.16983058570875" lon="9.322429134753559"><ele>53.0</ele><time>2026-04-26T09:01:49Z</time></trkpt><trkpt lat="41.16988893555877" lon="9.32225572697834"><ele>53.0</ele><time>2026-04-26T09:01:50Z</time></trkpt><trkpt lat="41.16996096052839" lon="9.32210239788054"><ele>53.0</ele><time>2026-04-26T09:01:51Z</time></trkpt><trkpt lat="41.170031714611284" lon="9.321961320211877"><ele>52.25</ele><time>2026-04-26T09:01:52Z</time></trkpt><trkpt lat="41.17010026473811" lon="9.321828445713976"><ele>51.5</ele><time>2026-04-26T09:01:53Z</time></trkpt><trkpt lat="41.17015344140665" lon="9.321688650367147"><ele>50.75</ele><time>2026-04-26T09:01:54Z</time></trkpt><trkpt lat="41.17021996808202" lon="9.321568436230185"><ele>50.0</ele><time>2026-04-26T09:01:55Z</time></trkpt><trkpt lat="41.17028626093178" lon="9.321451293418177"><ele>50.2</ele><time>2026-04-26T09:01:56Z</time></trkpt><trkpt lat="41.17035194772484" lon="9.321329577455385"><ele>50.4</ele><time>2026-04-26T09:01:57Z</time></trkpt><trkpt lat="41.170415161420465" lon="9.321205679674797"><ele>50.599999999999994</ele><time>2026-04-26T09:01:58Z</time></trkpt><trkpt lat="41.17045863285743" lon="9.321076412930395"><ele>50.8</ele><time>2026-04-26T09:01:59Z</time></trkpt><trkpt lat="41.17049265229667" lon="9.320948109579135"><ele>51.0</ele><time>2026-04-26T09:02:00Z</time></trkpt><trkpt lat="41.17046139932454" lon="9.32079396981236"><ele>51.0</ele><time>2026-04-26T09:02:01Z</time></trkpt><trkpt lat="41.170422956795726" lon="9.320644453144293"><ele>51.0</ele><time>2026-04-26T09:02:02Z</time></trkpt><trkpt lat="41.17036824705919" lon="9.320492198281269"><ele>51.0</ele><time>2026-04-26T09:02:03Z</time></trkpt><trkpt lat="41.17030933828875" lon="9.320326276463991"><ele>51.0</ele><time>2026-04-26T09:02:04Z</time></trkpt><trkpt lat="41.17025205008679" lon="9.320164002315284"><ele>49.75</ele><time>2026-04-26T09:02:05Z</time></trkpt><trkpt lat="41.17019725161645" lon="9.320006088692303"><ele>48.5</ele><time>2026-04-26T09:02:06Z</time></trkpt><trkpt lat="41.17014932149575" lon="9.319852241019127"><ele>47.25</ele><time>2026-04-26T09:02:07Z</time></trkpt><trkpt lat="41.17010389087238" lon="9.319689678421385"><ele>46.0</ele><time>2026-04-26T09:02:08Z</time></trkpt><trkpt lat="41.17006184377181" lon="9.319512626368939"><ele>44.0</ele><time>2026-04-26T09:02:09Z</time></trkpt><trkpt lat="41.170023283087346" lon="9.31932748460126"><ele>42.0</ele><time>2026-04-26T09:02:10Z</time></trkpt><trkpt lat="41.169995465053255" lon="9.319132623703453"><ele>40.0</ele><time>2026-04-26T09:02:11Z</time></trkpt><trkpt lat="41.16997723281847" lon="9.318947324924736"><ele>38.0</ele><time>2026-04-26T09:02:12Z</time></trkpt><trkpt lat="41.16995709447236" lon="9.318768532349043"><ele>36.75</ele><time>2026-04-26T09:02:13Z</time></trkpt><trkpt lat="41.169927907001124" lon="9.318594992644748"><ele>35.5</ele><time>2026-04-26T09:02:14Z</time></trkpt><trkpt lat="41.16990896658314" lon="9.31842370420724"><ele>34.25</ele><time>2026-04-26T09:02:15Z</time></trkpt><trkpt lat="41.16988722429407" lon="9.318255297406123"><ele>33.0</ele><time>2026-04-26T09:02:16Z</time></trkpt><trkpt lat="41.169865722711414" lon="9.318103856471662"><ele>32.4</ele><time>2026-04-26T09:02:17Z</time></trkpt><trkpt lat="41.1698300011053" lon="9.317965515149739"><ele>31.799999999999997</ele><time>2026-04-26T09:02:18Z</time></trkpt><trkpt lat="41.16976513347343" lon="9.317855532523826"><ele>31.2</ele><time>2026-04-26T09:02:18.999Z</time></trkpt><trkpt lat="41.1696685270038" lon="9.31777304803884"><ele>30.6</ele><time>2026-04-26T09:02:19.999Z</time></trkpt><trkpt lat="41.16955498691099" lon="9.3177329460609"><ele>30.0</ele><time>2026-04-26T09:02:20.999Z</time></trkpt><trkpt lat="41.16943878591686" lon="9.317735936735813"><ele>30.0</ele><time>2026-04-26T09:02:21.999Z</time></trkpt><trkpt lat="41.16932458565543" lon="9.317780369235143"><ele>30.0</ele><time>2026-04-26T09:02:22.999Z</time></trkpt><trkpt lat="41.16922646217557" lon="9.31786874166977"><ele>30.0</ele><time>2026-04-26T09:02:23.999Z</time></trkpt><trkpt lat="41.16914915174628" lon="9.317983432551499"><ele>30.0</ele><time>2026-04-26T09:02:24.999Z</time></trkpt><trkpt lat="41.16906597302232" lon="9.318073132932316"><ele>29.2</ele><time>2026-04-26T09:02:25.999Z</time></trkpt><trkpt lat="41.16896788071001" lon="9.318090814881126"><ele>28.4</ele><time>2026-04-26T09:02:26.999Z</time></trkpt><trkpt lat="41.16886853907525" lon="9.318041378655337"><ele>27.6</ele><time>2026-04-26T09:02:27.999Z</time></trkpt><trkpt lat="41.16879088033214" lon="9.317935331922042"><ele>26.8</ele><time>2026-04-26T09:02:28.999Z</time></trkpt><trkpt lat="41.16870259600885" lon="9.317836310180734"><ele>26.0</ele><time>2026-04-26T09:02:29.999Z</time></trkpt><trkpt lat="41.16862171299755" lon="9.317710189418403"><ele>26.0</ele><time>2026-04-26T09:02:30.999Z</time></trkpt><trkpt lat="41.16853356654868" lon="9.317596907863894"><ele>26.0</ele><time>2026-04-26T09:02:31.999Z</time></trkpt><trkpt lat="41.168441378312984" lon="9.31749850084411"><ele>26.0</ele><time>2026-04-26T09:02:32.999Z</time></trkpt><trkpt lat="41.16833348269923" lon="9.317427579222006"><ele>26.0</ele><time>2026-04-26T09:02:33.999Z</time></trkpt><trkpt lat="41.16820311979242" lon="9.317409510761133"><ele>26.0</ele><time>2026-04-26T09:02:34.999Z</time></trkpt><trkpt lat="41.16807504955024" lon="9.317429746706042"><ele>26.0</ele><time>2026-04-26T09:02:35.999Z</time></trkpt><trkpt lat="41.167952919101" lon="9.317458248068254"><ele>26.0</ele><time>2026-04-26T09:02:36.999Z</time></trkpt><trkpt lat="41.16783655038018" lon="9.31748310379722"><ele>26.0</ele><time>2026-04-26T09:02:37.999Z</time></trkpt><trkpt lat="41.167728436619285" lon="9.317464306446007"><ele>26.0</ele><time>2026-04-26T09:02:38.999Z</time></trkpt><trkpt lat="41.16762929619469" lon="9.317395138171506"><ele>26.0</ele><time>2026-04-26T09:02:39.999Z</time></trkpt><trkpt lat="41.16754806927601" lon="9.317276315357743"><ele>26.0</ele><time>2026-04-26T09:02:41Z</time></trkpt><trkpt lat="41.16747821559296" lon="9.317134850825637"><ele>26.0</ele><time>2026-04-26T09:02:42Z</time></trkpt><trkpt lat="41.167399506859155" lon="9.31699474453996"><ele>24.25</ele><time>2026-04-26T09:02:43Z</time></trkpt><trkpt lat="41.16731365557688" lon="9.31685658552107"><ele>22.5</ele><time>2026-04-26T09:02:44Z</time></trkpt><trkpt lat="41.167239934545385" lon="9.316723345105713"><ele>20.75</ele><time>2026-04-26T09:02:45Z</time></trkpt><trkpt lat="41.16716285449122" lon="9.31659386923406"><ele>19.0</ele><time>2026-04-26T09:02:46Z</time></trkpt><trkpt lat="41.167082687689714" lon="9.316464730411532"><ele>16.5</ele><time>2026-04-26T09:02:47Z</time></trkpt><trkpt lat="41.1669888159007" lon="9.316339894667692"><ele>14.0</ele><time>2026-04-26T09:02:48Z</time></trkpt><trkpt lat="41.16687691343975" lon="9.316234102925037"><ele>11.5</ele><time>2026-04-26T09:02:49Z</time></trkpt><trkpt lat="41.16676432652398" lon="9.316152769620222"><ele>9.0</ele><time>2026-04-26T09:02:50Z</time></trkpt><trkpt lat="41.16664505765093" lon="9.316084816097817"><ele>8.75</ele><time>2026-04-26T09:02:51Z</time></trkpt><trkpt lat="41.166522143672644" lon="9.316028688900206"><ele>8.5</ele><time>2026-04-26T09:02:52Z</time></trkpt><trkpt lat="41.16639158985412" lon="9.315999986736617"><ele>8.25</ele><time>2026-04-26T09:02:53Z</time></trkpt><trkpt lat="41.16625497533361" lon="9.315982754669859"><ele>8.0</ele><time>2026-04-26T09:02:54Z</time></trkpt><trkpt lat="41.16611096723514" lon="9.315977893711612"><ele>8.0</ele><time>2026-04-26T09:02:55Z</time></trkpt><trkpt lat="41.16596632661798" lon="9.315981559606907"><ele>8.0</ele><time>2026-04-26T09:02:56Z</time></trkpt><trkpt lat="41.16582502383127" lon="9.315986442814078"><ele>8.0</ele><time>2026-04-26T09:02:57Z</time></trkpt><trkpt lat="41.16567798595109" lon="9.315990981814826"><ele>8.0</ele><time>2026-04-26T09:02:58Z</time></trkpt><trkpt lat="41.1655319877757" lon="9.315996500114968"><ele>8.0</ele><time>2026-04-26T09:02:59Z</time></trkpt><trkpt lat="41.1653935822173" lon="9.316002467799228"><ele>8.0</ele><time>2026-04-26T09:03:00Z</time></trkpt><trkpt lat="41.16525253883635" lon="9.31600827093902"><ele>8.0</ele><time>2026-04-26T09:03:01Z</time></trkpt><trkpt lat="41.1651094739071" lon="9.316015766355516"><ele>8.0</ele><time>2026-04-26T09:03:02Z</time></trkpt><trkpt lat="41.164965392977194" lon="9.31602251980536"><ele>7.75</ele><time>2026-04-26T09:03:03Z</time></trkpt><trkpt lat="41.164830778796734" lon="9.316024467939352"><ele>7.5</ele><time>2026-04-26T09:03:04Z</time></trkpt><trkpt lat="41.164697248528256" lon="9.316027955254476"><ele>7.25</ele><time>2026-04-26T09:03:05Z</time></trkpt><trkpt lat="41.16457227606833" lon="9.316033786439766"><ele>7.0</ele><time>2026-04-26T09:03:06Z</time></trkpt><trkpt lat="41.164453204541985" lon="9.31602842738427"><ele>7.0</ele><time>2026-04-26T09:03:07Z</time></trkpt><trkpt lat="41.16434372316924" lon="9.315993891162176"><ele>6.999999999999999</ele><time>2026-04-26T09:03:08Z</time></trkpt><trkpt lat="41.164251437434444" lon="9.315928974099144"><ele>6.999999999999999</ele><time>2026-04-26T09:03:09Z</time></trkpt><trkpt lat="41.164176810904564" lon="9.315831781258028"><ele>7.0</ele><time>2026-04-26T09:03:10Z</time></trkpt><trkpt lat="41.164138555633514" lon="9.315687793292428"><ele>7.0</ele><time>2026-04-26T09:03:11Z</time></trkpt><trkpt lat="41.164100164232124" lon="9.315529243476108"><ele>6.0</ele><time>2026-04-26T09:03:12Z</time></trkpt><trkpt lat="41.164042485689755" lon="9.315348116093642"><ele>5.0</ele><time>2026-04-26T09:03:13Z</time></trkpt><trkpt lat="41.1639990473053" lon="9.315157123177034"><ele>4.0</ele><time>2026-04-26T09:03:14Z</time></trkpt><trkpt lat="41.16395357571173" lon="9.314969326008823"><ele>3.0</ele><time>2026-04-26T09:03:15Z</time></trkpt><trkpt lat="41.16390811399902" lon="9.314775078845624"><ele>2.6666666666666665</ele><time>2026-04-26T09:03:16Z</time></trkpt><trkpt lat="41.16386146614491" lon="9.314579009320514"><ele>2.333333333333333</ele><time>2026-04-26T09:03:17Z</time></trkpt><trkpt lat="41.16381467371823" lon="9.314379447669763"><ele>2.0</ele><time>2026-04-26T09:03:18Z</time></trkpt><trkpt lat="41.16376887313067" lon="9.314182265657218"><ele>2.0</ele><time>2026-04-26T09:03:19Z</time></trkpt><trkpt lat="41.1637257179005" lon="9.313997462910596"><ele>2.0</ele><time>2026-04-26T09:03:20Z</time></trkpt><trkpt lat="41.163682167792295" lon="9.313814861711727"><ele>2.0</ele><time>2026-04-26T09:03:21Z</time></trkpt><trkpt lat="41.16363867091972" lon="9.313635808923381"><ele>2.0</ele><time>2026-04-26T09:03:22Z</time></trkpt><trkpt lat="41.16359327811797" lon="9.313452864091635"><ele>2.333333333333333</ele><time>2026-04-26T09:03:23Z</time></trkpt><trkpt lat="41.16354736904083" lon="9.313264122339564"><ele>2.6666666666666665</ele><time>2026-04-26T09:03:24Z</time></trkpt><trkpt lat="41.163516883956156" lon="9.313066749942832"><ele>3.0</ele><time>2026-04-26T09:03:25Z</time></trkpt><trkpt lat="41.16347297057994" lon="9.31287408532213"><ele>4.333333333333334</ele><time>2026-04-26T09:03:26Z</time></trkpt><trkpt lat="41.16342868385706" lon="9.312677827941302"><ele>5.666666666666667</ele><time>2026-04-26T09:03:27Z</time></trkpt><trkpt lat="41.16337451523289" lon="9.312485489494865"><ele>7.0</ele><time>2026-04-26T09:03:28Z</time></trkpt><trkpt lat="41.163347419655764" lon="9.31227624545888"><ele>8.666666666666668</ele><time>2026-04-26T09:03:29Z</time></trkpt><trkpt lat="41.16332419986987" lon="9.312069041366955"><ele>10.333333333333334</ele><time>2026-04-26T09:03:30Z</time></trkpt><trkpt lat="41.16331233404732" lon="9.311870348731375"><ele>12.0</ele><time>2026-04-26T09:03:31Z</time></trkpt><trkpt lat="41.16331740434818" lon="9.31166794180204"><ele>12.0</ele><time>2026-04-26T09:03:32Z</time></trkpt><trkpt lat="41.163337180585955" lon="9.311465990514904"><ele>12.0</ele><time>2026-04-26T09:03:33Z</time></trkpt><trkpt lat="41.163370938939536" lon="9.311269132313315"><ele>12.0</ele><time>2026-04-26T09:03:34Z</time></trkpt><trkpt lat="41.16341577511446" lon="9.311079081519102"><ele>12.5</ele><time>2026-04-26T09:03:35Z</time></trkpt><trkpt lat="41.16347378661663" lon="9.310907932483305"><ele>13.0</ele><time>2026-04-26T09:03:36Z</time></trkpt><trkpt lat="41.16354473423131" lon="9.310750365025735"><ele>13.5</ele><time>2026-04-26T09:03:37Z</time></trkpt><trkpt lat="41.1636215149267" lon="9.310609276411137"><ele>14.0</ele><time>2026-04-26T09:03:38Z</time></trkpt><trkpt lat="41.16371078820818" lon="9.310475618130347"><ele>14.75</ele><time>2026-04-26T09:03:39Z</time></trkpt><trkpt lat="41.16382417640417" lon="9.31036798966387"><ele>15.5</ele><time>2026-04-26T09:03:40Z</time></trkpt><trkpt lat="41.163936321813516" lon="9.310255983622946"><ele>16.25</ele><time>2026-04-26T09:03:41Z</time></trkpt><trkpt lat="41.164059802778624" lon="9.310158700700526"><ele>17.0</ele><time>2026-04-26T09:03:42Z</time></trkpt><trkpt lat="41.16418849124685" lon="9.310071094254452"><ele>15.5</ele><time>2026-04-26T09:03:43Z</time></trkpt><trkpt lat="41.16431839025539" lon="9.309982388957424"><ele>14.0</ele><time>2026-04-26T09:03:44Z</time></trkpt><trkpt lat="41.164440081299254" lon="9.30989928908692"><ele>12.5</ele><time>2026-04-26T09:03:45Z</time></trkpt><trkpt lat="41.164554807406255" lon="9.309822219227119"><ele>11.0</ele><time>2026-04-26T09:03:46Z</time></trkpt><trkpt lat="41.164666456224104" lon="9.309747333643525"><ele>11.5</ele><time>2026-04-26T09:03:47Z</time></trkpt><trkpt lat="41.16477589715586" lon="9.309673929118098"><ele>12.0</ele><time>2026-04-26T09:03:48Z</time></trkpt><trkpt lat="41.16488844058537" lon="9.309598443461958"><ele>12.5</ele><time>2026-04-26T09:03:49Z</time></trkpt><trkpt lat="41.16500351856022" lon="9.309521258183809"><ele>13.0</ele><time>2026-04-26T09:03:50Z</time></trkpt><trkpt lat="41.1651200123729" lon="9.309442711777871"><ele>13.0</ele><time>2026-04-26T09:03:51Z</time></trkpt><trkpt lat="41.165236732999595" lon="9.309363741449202"><ele>13.0</ele><time>2026-04-26T09:03:52Z</time></trkpt><trkpt lat="41.16535549038298" lon="9.309283392931913"><ele>13.0</ele><time>2026-04-26T09:03:53Z</time></trkpt><trkpt lat="41.16547655444984" lon="9.309201483927865"><ele>13.0</ele><time>2026-04-26T09:03:54Z</time></trkpt><trkpt lat="41.16559753794547" lon="9.309119628559376"><ele>12.75</ele><time>2026-04-26T09:03:55Z</time></trkpt><trkpt lat="41.16571695710875" lon="9.309038832405923"><ele>12.5</ele><time>2026-04-26T09:03:56Z</time></trkpt><trkpt lat="41.165835621235836" lon="9.308958547085991"><ele>12.25</ele><time>2026-04-26T09:03:57Z</time></trkpt><trkpt lat="41.16595137990408" lon="9.308880227527167"><ele>12.0</ele><time>2026-04-26T09:03:58Z</time></trkpt><trkpt lat="41.1660608158157" lon="9.308806185800945"><ele>13.25</ele><time>2026-04-26T09:03:59Z</time></trkpt><trkpt lat="41.16615950244542" lon="9.308739601442685"><ele>14.5</ele><time>2026-04-26T09:04:00Z</time></trkpt><trkpt lat="41.16626240764557" lon="9.308670795397532"><ele>15.75</ele><time>2026-04-26T09:04:01Z</time></trkpt><trkpt lat="41.166366220544006" lon="9.308598835661318"><ele>17.0</ele><time>2026-04-26T09:04:02Z</time></trkpt><trkpt lat="41.166465324008676" lon="9.308512529090851"><ele>16.5</ele><time>2026-04-26T09:04:03Z</time></trkpt><trkpt lat="41.166554194737365" lon="9.308415773786178"><ele>16.0</ele><time>2026-04-26T09:04:04Z</time></trkpt><trkpt lat="41.1666292611319" lon="9.308282746632043"><ele>15.5</ele><time>2026-04-26T09:04:05Z</time></trkpt><trkpt lat="41.166683461421215" lon="9.308130513611989"><ele>15.0</ele><time>2026-04-26T09:04:06Z</time></trkpt><trkpt lat="41.166717874397555" lon="9.307960483521354"><ele>15.0</ele><time>2026-04-26T09:04:07Z</time></trkpt><trkpt lat="41.16672538969463" lon="9.30775931572533"><ele>15.0</ele><time>2026-04-26T09:04:08Z</time></trkpt><trkpt lat="41.16670606876768" lon="9.307574925802772"><ele>15.0</ele><time>2026-04-26T09:04:09Z</time></trkpt><trkpt lat="41.166713072182375" lon="9.30740052588881"><ele>15.0</ele><time>2026-04-26T09:04:10Z</time></trkpt><trkpt lat="41.16668976683683" lon="9.307237256075028"><ele>16.0</ele><time>2026-04-26T09:04:11Z</time></trkpt><trkpt lat="41.166686603572444" lon="9.307070893862607"><ele>17.0</ele><time>2026-04-26T09:04:12Z</time></trkpt><trkpt lat="41.166681692868394" lon="9.306906907044816"><ele>18.0</ele><time>2026-04-26T09:04:13Z</time></trkpt><trkpt lat="41.166696594088535" lon="9.306744813230734"><ele>19.0</ele><time>2026-04-26T09:04:14Z</time></trkpt><trkpt lat="41.16675169674649" lon="9.30660318948917"><ele>19.0</ele><time>2026-04-26T09:04:15Z</time></trkpt><trkpt lat="41.166818316715975" lon="9.3064782865646"><ele>19.0</ele><time>2026-04-26T09:04:16Z</time></trkpt><trkpt lat="41.16689444613341" lon="9.306347810074032"><ele>19.0</ele><time>2026-04-26T09:04:17Z</time></trkpt><trkpt lat="41.16697482788703" lon="9.3062146005391"><ele>19.0</ele><time>2026-04-26T09:04:18Z</time></trkpt><trkpt lat="41.16705897211841" lon="9.306090282881707"><ele>21.0</ele><time>2026-04-26T09:04:19Z</time></trkpt><trkpt lat="41.16714758069416" lon="9.305984782805622"><ele>23.0</ele><time>2026-04-26T09:04:20Z</time></trkpt><trkpt lat="41.167244565421605" lon="9.305883099411169"><ele>25.0</ele><time>2026-04-26T09:04:21Z</time></trkpt><trkpt lat="41.16733601533835" lon="9.30579511825764"><ele>27.0</ele><time>2026-04-26T09:04:22Z</time></trkpt><trkpt lat="41.167426502955905" lon="9.305706935903741"><ele>25.5</ele><time>2026-04-26T09:04:23Z</time></trkpt><trkpt lat="41.16751454278042" lon="9.305620640036416"><ele>24.0</ele><time>2026-04-26T09:04:24Z</time></trkpt><trkpt lat="41.167607345865264" lon="9.305525488134382"><ele>22.5</ele><time>2026-04-26T09:04:25Z</time></trkpt><trkpt lat="41.167702511077536" lon="9.305410397693832"><ele>21.0</ele><time>2026-04-26T09:04:26Z</time></trkpt><trkpt lat="41.16778781038658" lon="9.305266571822795"><ele>21.0</ele><time>2026-04-26T09:04:27Z</time></trkpt><trkpt lat="41.167863026483545" lon="9.305075808336662"><ele>21.0</ele><time>2026-04-26T09:04:28Z</time></trkpt><trkpt lat="41.16792970596932" lon="9.304887820080095"><ele>21.0</ele><time>2026-04-26T09:04:29Z</time></trkpt><trkpt lat="41.167999113781995" lon="9.30472702143016"><ele>19.0</ele><time>2026-04-26T09:04:29.999Z</time></trkpt><trkpt lat="41.16807786924352" lon="9.304577401524705"><ele>17.0</ele><time>2026-04-26T09:04:30.999Z</time></trkpt><trkpt lat="41.16815609745314" lon="9.304432042891877"><ele>15.0</ele><time>2026-04-26T09:04:31.999Z</time></trkpt><trkpt lat="41.168223770722214" lon="9.304287634967615"><ele>13.0</ele><time>2026-04-26T09:04:32.999Z</time></trkpt><trkpt lat="41.16825592376276" lon="9.304126159314904"><ele>13.0</ele><time>2026-04-26T09:04:33.999Z</time></trkpt><trkpt lat="41.168274925971296" lon="9.303959238578871"><ele>13.0</ele><time>2026-04-26T09:04:34.999Z</time></trkpt><trkpt lat="41.16826987861265" lon="9.303783624859088"><ele>13.0</ele><time>2026-04-26T09:04:35.999Z</time></trkpt><trkpt lat="41.16826334515596" lon="9.30360768361994"><ele>13.0</ele><time>2026-04-26T09:04:36.999Z</time></trkpt><trkpt lat="41.16825857316111" lon="9.30343410720487"><ele>14.25</ele><time>2026-04-26T09:04:37.999Z</time></trkpt><trkpt lat="41.16827909744241" lon="9.303269978106167"><ele>15.5</ele><time>2026-04-26T09:04:38.999Z</time></trkpt><trkpt lat="41.16830968307739" lon="9.303101497740139"><ele>16.75</ele><time>2026-04-26T09:04:39.999Z</time></trkpt><trkpt lat="41.16834008906404" lon="9.302935146898859"><ele>18.0</ele><time>2026-04-26T09:04:40.999Z</time></trkpt><trkpt lat="41.168370329452365" lon="9.302775239877594"><ele>18.5</ele><time>2026-04-26T09:04:41.999Z</time></trkpt><trkpt lat="41.16840362758059" lon="9.302614491532534"><ele>19.0</ele><time>2026-04-26T09:04:42.999Z</time></trkpt><trkpt lat="41.1684511112219" lon="9.302460135198386"><ele>19.5</ele><time>2026-04-26T09:04:43.999Z</time></trkpt><trkpt lat="41.16852961257544" lon="9.302320639974218"><ele>20.0</ele><time>2026-04-26T09:04:44.999Z</time></trkpt><trkpt lat="41.168617665066975" lon="9.30217122354601"><ele>22.0</ele><time>2026-04-26T09:04:45.999Z</time></trkpt><trkpt lat="41.168708260448014" lon="9.302017419894993"><ele>24.0</ele><time>2026-04-26T09:04:47Z</time></trkpt><trkpt lat="41.16879932909136" lon="9.301862812781883"><ele>26.0</ele><time>2026-04-26T09:04:48Z</time></trkpt><trkpt lat="41.16888995828034" lon="9.301708910734122"><ele>28.0</ele><time>2026-04-26T09:04:49Z</time></trkpt><trkpt lat="41.16898164627957" lon="9.301553191859611"><ele>25.5</ele><time>2026-04-26T09:04:50Z</time></trkpt><trkpt lat="41.16907323454143" lon="9.301397836046654"><ele>23.0</ele><time>2026-04-26T09:04:51Z</time></trkpt><trkpt lat="41.169163073518426" lon="9.301246105821527"><ele>20.5</ele><time>2026-04-26T09:04:52Z</time></trkpt><trkpt lat="41.169248834904245" lon="9.301101245894248"><ele>18.0</ele><time>2026-04-26T09:04:53Z</time></trkpt><trkpt lat="41.16933161217161" lon="9.300961310592408"><ele>18.0</ele><time>2026-04-26T09:04:54Z</time></trkpt><trkpt lat="41.16941134767419" lon="9.300826517409128"><ele>18.0</ele><time>2026-04-26T09:04:55Z</time></trkpt><trkpt lat="41.16949232261776" lon="9.300689805616635"><ele>18.0</ele><time>2026-04-26T09:04:56Z</time></trkpt><trkpt lat="41.16957674675131" lon="9.3005472656006"><ele>18.0</ele><time>2026-04-26T09:04:57Z</time></trkpt><trkpt lat="41.16966295499749" lon="9.300401364178693"><ele>17.0</ele><time>2026-04-26T09:04:58Z</time></trkpt><trkpt lat="41.16975259396618" lon="9.300248844148758"><ele>16.0</ele><time>2026-04-26T09:04:59Z</time></trkpt><trkpt lat="41.16984477273287" lon="9.300092808420345"><ele>15.0</ele><time>2026-04-26T09:05:00Z</time></trkpt><trkpt lat="41.169936205640724" lon="9.299938442908555"><ele>14.0</ele><time>2026-04-26T09:05:01Z</time></trkpt><trkpt lat="41.170022935299144" lon="9.299791762064796"><ele>13.5</ele><time>2026-04-26T09:05:02Z</time></trkpt><trkpt lat="41.170104084986534" lon="9.299654150928184"><ele>13.0</ele><time>2026-04-26T09:05:03Z</time></trkpt><trkpt lat="41.170184633011566" lon="9.299517560064896"><ele>12.5</ele><time>2026-04-26T09:05:04Z</time></trkpt><trkpt lat="41.17026449827424" lon="9.299382127023733"><ele>12.0</ele><time>2026-04-26T09:05:05Z</time></trkpt><trkpt lat="41.17034598235224" lon="9.299243948836324"><ele>12.0</ele><time>2026-04-26T09:05:06Z</time></trkpt><trkpt lat="41.17043022040809" lon="9.299074774579932"><ele>12.0</ele><time>2026-04-26T09:05:07Z</time></trkpt><trkpt lat="41.17052625743402" lon="9.29892599293623"><ele>12.0</ele><time>2026-04-26T09:05:08Z</time></trkpt><trkpt lat="41.170604759090665" lon="9.29877785700007"><ele>12.0</ele><time>2026-04-26T09:05:09Z</time></trkpt><trkpt lat="41.17067411965775" lon="9.298621210663082"><ele>14.25</ele><time>2026-04-26T09:05:10Z</time></trkpt><trkpt lat="41.17073061299387" lon="9.298453163528244"><ele>16.5</ele><time>2026-04-26T09:05:11Z</time></trkpt><trkpt lat="41.17077297372891" lon="9.298281292681494"><ele>18.75</ele><time>2026-04-26T09:05:12Z</time></trkpt><trkpt lat="41.17080899549972" lon="9.298106162889189"><ele>21.0</ele><time>2026-04-26T09:05:13Z</time></trkpt><trkpt lat="41.17084064222261" lon="9.297930256620607"><ele>21.0</ele><time>2026-04-26T09:05:14Z</time></trkpt><trkpt lat="41.17086949270989" lon="9.297747794442852"><ele>21.0</ele><time>2026-04-26T09:05:15Z</time></trkpt><trkpt lat="41.17089819986574" lon="9.297564429291462"><ele>21.0</ele><time>2026-04-26T09:05:16Z</time></trkpt><trkpt lat="41.1709275558848" lon="9.297380764402806"><ele>21.0</ele><time>2026-04-26T09:05:17Z</time></trkpt><trkpt lat="41.170954818003146" lon="9.297191928550264"><ele>21.0</ele><time>2026-04-26T09:05:18Z</time></trkpt><trkpt lat="41.1709788295108" lon="9.297003076429343"><ele>21.0</ele><time>2026-04-26T09:05:19Z</time></trkpt><trkpt lat="41.17100420127176" lon="9.296812792592345"><ele>21.0</ele><time>2026-04-26T09:05:20Z</time></trkpt><trkpt lat="41.171030008398034" lon="9.296621780122209"><ele>21.0</ele><time>2026-04-26T09:05:21Z</time></trkpt><trkpt lat="41.17105696765482" lon="9.296427895135894"><ele>21.5</ele><time>2026-04-26T09:05:22Z</time></trkpt><trkpt lat="41.171084878158204" lon="9.296235094404318"><ele>22.0</ele><time>2026-04-26T09:05:23Z</time></trkpt><trkpt lat="41.171113220825106" lon="9.296038143452925"><ele>22.5</ele><time>2026-04-26T09:05:24Z</time></trkpt><trkpt lat="41.17114409208976" lon="9.295842733057354"><ele>23.0</ele><time>2026-04-26T09:05:25Z</time></trkpt><trkpt lat="41.17117308735907" lon="9.29564530310891"><ele>23.75</ele><time>2026-04-26T09:05:26Z</time></trkpt><trkpt lat="41.171208443446034" lon="9.295445750335057"><ele>24.5</ele><time>2026-04-26T09:05:27Z</time></trkpt><trkpt lat="41.17124721369372" lon="9.295250426082276"><ele>25.25</ele><time>2026-04-26T09:05:28Z</time></trkpt><trkpt lat="41.17128715319152" lon="9.295069966799252"><ele>26.0</ele><time>2026-04-26T09:05:29Z</time></trkpt><trkpt lat="41.171329368290344" lon="9.294896937451758"><ele>26.75</ele><time>2026-04-26T09:05:30Z</time></trkpt><trkpt lat="41.171376312757175" lon="9.29472562317918"><ele>27.5</ele><time>2026-04-26T09:05:31Z</time></trkpt><trkpt lat="41.17142559435094" lon="9.294558011964517"><ele>28.25</ele><time>2026-04-26T09:05:32Z</time></trkpt><trkpt lat="41.17146364711179" lon="9.294391988811851"><ele>29.0</ele><time>2026-04-26T09:05:33Z</time></trkpt><trkpt lat="41.17148324221371" lon="9.294228240646179"><ele>29.0</ele><time>2026-04-26T09:05:34Z</time></trkpt><trkpt lat="41.171478772387715" lon="9.294065561433154"><ele>29.0</ele><time>2026-04-26T09:05:35Z</time></trkpt><trkpt lat="41.17146872039868" lon="9.293906493556975"><ele>29.0</ele><time>2026-04-26T09:05:36Z</time></trkpt><trkpt lat="41.171472431311315" lon="9.293744199438963"><ele>29.0</ele><time>2026-04-26T09:05:37Z</time></trkpt><trkpt lat="41.17149724210836" lon="9.293581716546111"><ele>30.25</ele><time>2026-04-26T09:05:38Z</time></trkpt><trkpt lat="41.171538507005835" lon="9.293421977684304"><ele>31.5</ele><time>2026-04-26T09:05:39Z</time></trkpt><trkpt lat="41.17158611570117" lon="9.293263489846678"><ele>32.75</ele><time>2026-04-26T09:05:40Z</time></trkpt><trkpt lat="41.171630951250926" lon="9.293103044169367"><ele>34.0</ele><time>2026-04-26T09:05:41Z</time></trkpt><trkpt lat="41.17167777286664" lon="9.29294089850832"><ele>34.0</ele><time>2026-04-26T09:05:42Z</time></trkpt><trkpt lat="41.17172033252509" lon="9.292795977922303"><ele>34.0</ele><time>2026-04-26T09:05:43Z</time></trkpt><trkpt lat="41.17176394603397" lon="9.292660886770543"><ele>34.0</ele><time>2026-04-26T09:05:44Z</time></trkpt><trkpt lat="41.17181110684119" lon="9.292519750702835"><ele>34.0</ele><time>2026-04-26T09:05:45Z</time></trkpt><trkpt lat="41.17186317938089" lon="9.29238647097132"><ele>34.0</ele><time>2026-04-26T09:05:46Z</time></trkpt><trkpt lat="41.171917027846305" lon="9.292265227342133"><ele>34.0</ele><time>2026-04-26T09:05:47Z</time></trkpt><trkpt lat="41.171964005323744" lon="9.292159411723494"><ele>34.0</ele><time>2026-04-26T09:05:48Z</time></trkpt><trkpt lat="41.172007136190764" lon="9.292063443842114"><ele>34.0</ele><time>2026-04-26T09:05:49Z</time></trkpt><trkpt lat="41.17204577710444" lon="9.291972681628193"><ele>34.0</ele><time>2026-04-26T09:05:50Z</time></trkpt><trkpt lat="41.17208985382897" lon="9.291879828017958"><ele>34.0</ele><time>2026-04-26T09:05:51Z</time></trkpt><trkpt lat="41.172133683339155" lon="9.291785577993206"><ele>34.6</ele><time>2026-04-26T09:05:52Z</time></trkpt><trkpt lat="41.17217949971289" lon="9.29168668225443"><ele>35.2</ele><time>2026-04-26T09:05:53Z</time></trkpt><trkpt lat="41.17222737449164" lon="9.29158404918524"><ele>35.800000000000004</ele><time>2026-04-26T09:05:54Z</time></trkpt><trkpt lat="41.17227594140902" lon="9.291480398859992"><ele>36.4</ele><time>2026-04-26T09:05:55Z</time></trkpt><trkpt lat="41.17232508820009" lon="9.291372436742288"><ele>37.0</ele><time>2026-04-26T09:05:56Z</time></trkpt><trkpt lat="41.17238011491445" lon="9.291252761103621"><ele>37.25</ele><time>2026-04-26T09:05:57Z</time></trkpt><trkpt lat="41.17244146401663" lon="9.291115432231113"><ele>37.5</ele><time>2026-04-26T09:05:58Z</time></trkpt><trkpt lat="41.1725062186944" lon="9.29097171538573"><ele>37.75</ele><time>2026-04-26T09:05:59Z</time></trkpt><trkpt lat="41.17256704128762" lon="9.290825040220252"><ele>38.0</ele><time>2026-04-26T09:06:00Z</time></trkpt><trkpt lat="41.17264065326439" lon="9.290682774141764"><ele>38.0</ele><time>2026-04-26T09:06:01Z</time></trkpt><trkpt lat="41.17269793701448" lon="9.290514050644614"><ele>38.0</ele><time>2026-04-26T09:06:02Z</time></trkpt><trkpt lat="41.17275392877484" lon="9.290341730948146"><ele>38.0</ele><time>2026-04-26T09:06:03Z</time></trkpt><trkpt lat="41.17280925535355" lon="9.290166200476953"><ele>38.0</ele><time>2026-04-26T09:06:04Z</time></trkpt><trkpt lat="41.172862869957804" lon="9.289992738192597"><ele>38.0</ele><time>2026-04-26T09:06:05Z</time></trkpt><trkpt lat="41.17291696603107" lon="9.28981771801278"><ele>38.0</ele><time>2026-04-26T09:06:06Z</time></trkpt><trkpt lat="41.17296614693488" lon="9.289658600220298"><ele>38.0</ele><time>2026-04-26T09:06:07Z</time></trkpt><trkpt lat="41.17301294753855" lon="9.28950725187928"><ele>38.0</ele><time>2026-04-26T09:06:08Z</time></trkpt><trkpt lat="41.17305729340609" lon="9.289363850290636"><ele>38.4</ele><time>2026-04-26T09:06:09Z</time></trkpt><trkpt lat="41.173099222793624" lon="9.289228262805615"><ele>38.8</ele><time>2026-04-26T09:06:10Z</time></trkpt><trkpt lat="41.17313788015217" lon="9.28910325615469"><ele>39.2</ele><time>2026-04-26T09:06:11Z</time></trkpt><trkpt lat="41.17317269676123" lon="9.288990669332378"><ele>39.6</ele><time>2026-04-26T09:06:12Z</time></trkpt><trkpt lat="41.173202635928206" lon="9.288893854857196"><ele>40.0</ele><time>2026-04-26T09:06:13Z</time></trkpt><trkpt lat="41.17307802622147" lon="9.288654164979148"><ele>40.75</ele><time>2026-04-26T09:06:15Z</time></trkpt><trkpt lat="41.17301110020395" lon="9.28852950275929"><ele>41.5</ele><time>2026-04-26T09:06:16Z</time></trkpt><trkpt lat="41.17294376778711" lon="9.288387332792546"><ele>42.25</ele><time>2026-04-26T09:06:17Z</time></trkpt><trkpt lat="41.17287403704196" lon="9.288231744509032"><ele>43.0</ele><time>2026-04-26T09:06:18Z</time></trkpt><trkpt lat="41.172809753498754" lon="9.288081460146556"><ele>44.0</ele><time>2026-04-26T09:06:19Z</time></trkpt><trkpt lat="41.17274461688894" lon="9.287932580724876"><ele>45.0</ele><time>2026-04-26T09:06:20Z</time></trkpt><trkpt lat="41.17267978713127" lon="9.287787470398294"><ele>46.0</ele><time>2026-04-26T09:06:21Z</time></trkpt><trkpt lat="41.17261511047336" lon="9.287641652438998"><ele>47.0</ele><time>2026-04-26T09:06:22Z</time></trkpt><trkpt lat="41.172545238686354" lon="9.287483869932373"><ele>47.0</ele><time>2026-04-26T09:06:23Z</time></trkpt><trkpt lat="41.172476189781825" lon="9.28731552894984"><ele>47.0</ele><time>2026-04-26T09:06:24Z</time></trkpt><trkpt lat="41.17241691158479" lon="9.287167239608074"><ele>47.0</ele><time>2026-04-26T09:06:25Z</time></trkpt><trkpt lat="41.17239526812808" lon="9.287011839638579"><ele>47.0</ele><time>2026-04-26T09:06:26Z</time></trkpt><trkpt lat="41.17239774973545" lon="9.286862267077936"><ele>48.75</ele><time>2026-04-26T09:06:27Z</time></trkpt><trkpt lat="41.172420709356665" lon="9.286698922451802"><ele>50.5</ele><time>2026-04-26T09:06:28Z</time></trkpt><trkpt lat="41.17245456543775" lon="9.286500076602666"><ele>52.25</ele><time>2026-04-26T09:06:29Z</time></trkpt><trkpt lat="41.17249571790799" lon="9.286298433592956"><ele>54.0</ele><time>2026-04-26T09:06:30Z</time></trkpt><trkpt lat="41.172511977352315" lon="9.286112747663468"><ele>55.0</ele><time>2026-04-26T09:06:31Z</time></trkpt><trkpt lat="41.17254031036318" lon="9.285953179555545"><ele>56.0</ele><time>2026-04-26T09:06:32Z</time></trkpt><trkpt lat="41.17255322649394" lon="9.285804218534661"><ele>57.0</ele><time>2026-04-26T09:06:33Z</time></trkpt><trkpt lat="41.17254413738829" lon="9.285650283882156"><ele>58.0</ele><time>2026-04-26T09:06:34Z</time></trkpt><trkpt lat="41.17250864193563" lon="9.285477049562141"><ele>58.666666666666664</ele><time>2026-04-26T09:06:35Z</time></trkpt><trkpt lat="41.172451074366336" lon="9.285276019699474"><ele>59.33333333333333</ele><time>2026-04-26T09:06:36Z</time></trkpt><trkpt lat="41.17239021320752" lon="9.285064196499034"><ele>60.0</ele><time>2026-04-26T09:06:36.999Z</time></trkpt><trkpt lat="41.17232960183854" lon="9.284884374851401"><ele>61.0</ele><time>2026-04-26T09:06:37.999Z</time></trkpt><trkpt lat="41.17225638423683" lon="9.284739023378789"><ele>62.0</ele><time>2026-04-26T09:06:38.999Z</time></trkpt><trkpt lat="41.17216742652459" lon="9.2846302250857"><ele>63.0</ele><time>2026-04-26T09:06:39.999Z</time></trkpt><trkpt lat="41.17208849795555" lon="9.284579555440285"><ele>64.0</ele><time>2026-04-26T09:06:40.999Z</time></trkpt><trkpt lat="41.17201733207622" lon="9.284586009605029"><ele>65.0</ele><time>2026-04-26T09:06:41.999Z</time></trkpt><trkpt lat="41.17196180630607" lon="9.284640652175405"><ele>65.0</ele><time>2026-04-26T09:06:42.999Z</time></trkpt><trkpt lat="41.17192894260191" lon="9.284734739680445"><ele>65.0</ele><time>2026-04-26T09:06:43.999Z</time></trkpt><trkpt lat="41.17190183366097" lon="9.28487669912939"><ele>65.0</ele><time>2026-04-26T09:06:44.999Z</time></trkpt><trkpt lat="41.171852537645684" lon="9.28503004255375"><ele>65.0</ele><time>2026-04-26T09:06:45.999Z</time></trkpt><trkpt lat="41.171766940965355" lon="9.285151315513769"><ele>65.0</ele><time>2026-04-26T09:06:46.999Z</time></trkpt><trkpt lat="41.1716588953906" lon="9.285235113722461"><ele>65.2</ele><time>2026-04-26T09:06:47.999Z</time></trkpt><trkpt lat="41.17154503318358" lon="9.285280964082434"><ele>65.4</ele><time>2026-04-26T09:06:48.999Z</time></trkpt><trkpt lat="41.171440422422705" lon="9.285280859224983"><ele>65.6</ele><time>2026-04-26T09:06:49.999Z</time></trkpt><trkpt lat="41.17135458198108" lon="9.285230631745309"><ele>65.8</ele><time>2026-04-26T09:06:50.999Z</time></trkpt><trkpt lat="41.17130201443225" lon="9.285092392779065"><ele>66.0</ele><time>2026-04-26T09:06:51.999Z</time></trkpt><trkpt lat="41.17123237883456" lon="9.284951857432848"><ele>68.33333333333333</ele><time>2026-04-26T09:06:53Z</time></trkpt><trkpt lat="41.17113990878673" lon="9.284780730013772"><ele>70.66666666666666</ele><time>2026-04-26T09:06:54Z</time></trkpt><trkpt lat="41.17104253356568" lon="9.28461198266023"><ele>73.0</ele><time>2026-04-26T09:06:55Z</time></trkpt><trkpt lat="41.17096098324254" lon="9.284465177124323"><ele>74.33333333333333</ele><time>2026-04-26T09:06:56Z</time></trkpt><trkpt lat="41.17085633293216" lon="9.28433988257404"><ele>75.66666666666667</ele><time>2026-04-26T09:06:57Z</time></trkpt><trkpt lat="41.170711101238965" lon="9.284236552007798"><ele>77.0</ele><time>2026-04-26T09:06:58Z</time></trkpt><trkpt lat="41.17056085838966" lon="9.284167277764197"><ele>79.33333333333334</ele><time>2026-04-26T09:06:59Z</time></trkpt><trkpt lat="41.170414443675305" lon="9.284108833003305"><ele>81.66666666666667</ele><time>2026-04-26T09:07:00Z</time></trkpt><trkpt lat="41.170253925047994" lon="9.284037941106789"><ele>84.0</ele><time>2026-04-26T09:07:01Z</time></trkpt><trkpt lat="41.1700738615811" lon="9.283955590883116"><ele>85.33333333333333</ele><time>2026-04-26T09:07:02Z</time></trkpt><trkpt lat="41.16989509020509" lon="9.283875592921035"><ele>86.66666666666666</ele><time>2026-04-26T09:07:03Z</time></trkpt><trkpt lat="41.169739580623705" lon="9.283796354663167"><ele>88.0</ele><time>2026-04-26T09:07:04Z</time></trkpt><trkpt lat="41.16960392863389" lon="9.283731899276415"><ele>89.60000000000001</ele><time>2026-04-26T09:07:05Z</time></trkpt><trkpt lat="41.16949437351975" lon="9.28364874136366"><ele>91.2</ele><time>2026-04-26T09:07:06Z</time></trkpt><trkpt lat="41.169412510500415" lon="9.283571455652298"><ele>92.8</ele><time>2026-04-26T09:07:07Z</time></trkpt><trkpt lat="41.16934313037633" lon="9.28348645099582"><ele>94.4</ele><time>2026-04-26T09:07:08Z</time></trkpt><trkpt lat="41.16935891701064" lon="9.283331788132529"><ele>96.0</ele><time>2026-04-26T09:07:09Z</time></trkpt><trkpt lat="41.16937154720179" lon="9.283175670116146"><ele>96.6</ele><time>2026-04-26T09:07:10Z</time></trkpt><trkpt lat="41.16932847813935" lon="9.283013321172934"><ele>97.19999999999999</ele><time>2026-04-26T09:07:11Z</time></trkpt><trkpt lat="41.16932278158334" lon="9.282897514718146"><ele>97.80000000000001</ele><time>2026-04-26T09:07:12Z</time></trkpt><trkpt lat="41.16920985752281" lon="9.28281806327517"><ele>98.4</ele><time>2026-04-26T09:07:14Z</time></trkpt><trkpt lat="41.16912344301227" lon="9.282850917940562"><ele>99.0</ele><time>2026-04-26T09:07:15Z</time></trkpt><trkpt lat="41.16901133030966" lon="9.282924893350659"><ele>102.25</ele><time>2026-04-26T09:07:16Z</time></trkpt><trkpt lat="41.168882127339465" lon="9.283009257423531"><ele>105.5</ele><time>2026-04-26T09:07:17Z</time></trkpt><trkpt lat="41.16874697220066" lon="9.283046136464995"><ele>108.75</ele><time>2026-04-26T09:07:18Z</time></trkpt><trkpt lat="41.168618803839955" lon="9.283022336577755"><ele>112.0</ele><time>2026-04-26T09:07:19Z</time></trkpt><trkpt lat="41.168516773837425" lon="9.282936359985577"><ele>112.0</ele><time>2026-04-26T09:07:20Z</time></trkpt><trkpt lat="41.16842382029526" lon="9.28284807756119"><ele>111.99999999999999</ele><time>2026-04-26T09:07:21Z</time></trkpt><trkpt lat="41.16835432718993" lon="9.282731440642703"><ele>111.99999999999999</ele><time>2026-04-26T09:07:22Z</time></trkpt><trkpt lat="41.1683181356665" lon="9.282598054690386"><ele>112.0</ele><time>2026-04-26T09:07:23Z</time></trkpt><trkpt lat="41.16829386693024" lon="9.28247779743476"><ele>112.0</ele><time>2026-04-26T09:07:24Z</time></trkpt><trkpt lat="41.16828588950812" lon="9.282379354492482"><ele>112.6</ele><time>2026-04-26T09:07:25Z</time></trkpt><trkpt lat="41.16828568098857" lon="9.282261655949844"><ele>113.19999999999999</ele><time>2026-04-26T09:07:27Z</time></trkpt><trkpt lat="41.16814995623819" lon="9.282279721917893"><ele>113.8</ele><time>2026-04-26T09:07:29Z</time></trkpt><trkpt lat="41.16808529359364" lon="9.282340947856369"><ele>114.4</ele><time>2026-04-26T09:07:30Z</time></trkpt><trkpt lat="41.16800041253132" lon="9.282427152544802"><ele>115.0</ele><time>2026-04-26T09:07:31Z</time></trkpt><trkpt lat="41.167905927222925" lon="9.282498880026374"><ele>115.6</ele><time>2026-04-26T09:07:32Z</time></trkpt><trkpt lat="41.16781231951081" lon="9.282546464800303"><ele>116.2</ele><time>2026-04-26T09:07:33Z</time></trkpt><trkpt lat="41.167711473466106" lon="9.282568163160974"><ele>116.80000000000001</ele><time>2026-04-26T09:07:34Z</time></trkpt><trkpt lat="41.16760962515075" lon="9.282586613903508"><ele>117.4</ele><time>2026-04-26T09:07:35Z</time></trkpt><trkpt lat="41.16749558253159" lon="9.28258259545795"><ele>118.0</ele><time>2026-04-26T09:07:36Z</time></trkpt><trkpt lat="41.16738449699479" lon="9.282589077892863"><ele>119.60000000000001</ele><time>2026-04-26T09:07:37Z</time></trkpt><trkpt lat="41.167280069364445" lon="9.282613805852279"><ele>121.20000000000002</ele><time>2026-04-26T09:07:38Z</time></trkpt><trkpt lat="41.16717990821224" lon="9.282659627021317"><ele>122.8</ele><time>2026-04-26T09:07:39Z</time></trkpt><trkpt lat="41.167076388115014" lon="9.282707059326968"><ele>124.4</ele><time>2026-04-26T09:07:40Z</time></trkpt><trkpt lat="41.16696230441094" lon="9.282750522767156"><ele>126.0</ele><time>2026-04-26T09:07:41Z</time></trkpt><trkpt lat="41.16685313671559" lon="9.28281717053009"><ele>126.0</ele><time>2026-04-26T09:07:42Z</time></trkpt><trkpt lat="41.166754125581505" lon="9.282874655527042"><ele>126.0</ele><time>2026-04-26T09:07:43Z</time></trkpt><trkpt lat="41.16666768669899" lon="9.28293606188609"><ele>126.0</ele><time>2026-04-26T09:07:44Z</time></trkpt><trkpt lat="41.16658015996507" lon="9.282992658152258"><ele>126.0</ele><time>2026-04-26T09:07:45Z</time></trkpt><trkpt lat="41.166476886060835" lon="9.283026143386518"><ele>126.0</ele><time>2026-04-26T09:07:46Z</time></trkpt><trkpt lat="41.16636205878302" lon="9.283032179496711"><ele>128.0</ele><time>2026-04-26T09:07:47Z</time></trkpt><trkpt lat="41.16623715513418" lon="9.283022954562323"><ele>130.0</ele><time>2026-04-26T09:07:48Z</time></trkpt><trkpt lat="41.166100540856064" lon="9.283006513096487"><ele>132.0</ele><time>2026-04-26T09:07:49Z</time></trkpt><trkpt lat="41.165942080033936" lon="9.28297963347532"><ele>134.0</ele><time>2026-04-26T09:07:50Z</time></trkpt><trkpt lat="41.16578186851294" lon="9.282952020929539"><ele>134.66666666666666</ele><time>2026-04-26T09:07:51Z</time></trkpt><trkpt lat="41.16563123982616" lon="9.282928712542683"><ele>135.33333333333334</ele><time>2026-04-26T09:07:52Z</time></trkpt><trkpt lat="41.16548110859913" lon="9.282903689564911"><ele>136.0</ele><time>2026-04-26T09:07:53Z</time></trkpt><trkpt lat="41.16532653819789" lon="9.2828707170979"><ele>136.0</ele><time>2026-04-26T09:07:54Z</time></trkpt><trkpt lat="41.165172507565806" lon="9.282834580812935"><ele>136.0</ele><time>2026-04-26T09:07:55Z</time></trkpt><trkpt lat="41.165022697416276" lon="9.282799749681331"><ele>136.0</ele><time>2026-04-26T09:07:56Z</time></trkpt><trkpt lat="41.16489175401316" lon="9.282740115771125"><ele>136.0</ele><time>2026-04-26T09:07:57Z</time></trkpt><trkpt lat="41.164770505199684" lon="9.282676704686242"><ele>137.33333333333334</ele><time>2026-04-26T09:07:58Z</time></trkpt><trkpt lat="41.16463317296719" lon="9.282596541010165"><ele>138.66666666666666</ele><time>2026-04-26T09:07:59Z</time></trkpt><trkpt lat="41.16447774728569" lon="9.282509211526135"><ele>140.0</ele><time>2026-04-26T09:08:00Z</time></trkpt><trkpt lat="41.16431096436728" lon="9.282419111215004"><ele>140.0</ele><time>2026-04-26T09:08:01Z</time></trkpt><trkpt lat="41.164146184909946" lon="9.28233085238995"><ele>140.0</ele><time>2026-04-26T09:08:02Z</time></trkpt><trkpt lat="41.164010533698786" lon="9.282258195187088"><ele>140.0</ele><time>2026-04-26T09:08:03Z</time></trkpt><trkpt lat="41.16390496934209" lon="9.282194601226655"><ele>140.0</ele><time>2026-04-26T09:08:04Z</time></trkpt><trkpt lat="41.16382869270139" lon="9.282127244191678"><ele>143.66666666666666</ele><time>2026-04-26T09:08:05Z</time></trkpt><trkpt lat="41.163765730401984" lon="9.282041064247949"><ele>147.33333333333331</ele><time>2026-04-26T09:08:06Z</time></trkpt><trkpt lat="41.16369242270967" lon="9.281952481171244"><ele>151.0</ele><time>2026-04-26T09:08:07Z</time></trkpt><trkpt lat="41.16362016096536" lon="9.281889874924188"><ele>154.66666666666666</ele><time>2026-04-26T09:08:08Z</time></trkpt><trkpt lat="41.16354807301028" lon="9.281863322839447"><ele>158.33333333333334</ele><time>2026-04-26T09:08:09Z</time></trkpt><trkpt lat="41.16346906375466" lon="9.281907820593805"><ele>162.0</ele><time>2026-04-26T09:08:10Z</time></trkpt><trkpt lat="41.16339991360498" lon="9.281956890167926"><ele>162.0</ele><time>2026-04-26T09:08:11Z</time></trkpt><trkpt lat="41.16332772323216" lon="9.282013458536266"><ele>162.0</ele><time>2026-04-26T09:08:12Z</time></trkpt><trkpt lat="41.16323058771647" lon="9.282050187231139"><ele>162.0</ele><time>2026-04-26T09:08:13Z</time></trkpt><trkpt lat="41.163128096503776" lon="9.282122072555813"><ele>162.0</ele><time>2026-04-26T09:08:14Z</time></trkpt><trkpt lat="41.1630412151616" lon="9.282154859119546"><ele>162.0</ele><time>2026-04-26T09:08:15Z</time></trkpt><trkpt lat="41.162977928557964" lon="9.282151154180989"><ele>161.8</ele><time>2026-04-26T09:08:16Z</time></trkpt><trkpt lat="41.16296553352352" lon="9.28197918389026"><ele>161.6</ele><time>2026-04-26T09:08:18Z</time></trkpt><trkpt lat="41.162927320125064" lon="9.28189034172169"><ele>161.4</ele><time>2026-04-26T09:08:19Z</time></trkpt><trkpt lat="41.16287648445574" lon="9.281803474575765"><ele>161.20000000000002</ele><time>2026-04-26T09:08:20Z</time></trkpt><trkpt lat="41.162779190088656" lon="9.281778435358774"><ele>161.0</ele><time>2026-04-26T09:08:21Z</time></trkpt><trkpt lat="41.16267970717935" lon="9.281792198347768"><ele>161.0</ele><time>2026-04-26T09:08:22Z</time></trkpt><trkpt lat="41.16256290571982" lon="9.281851291025793"><ele>161.0</ele><time>2026-04-26T09:08:23Z</time></trkpt><trkpt lat="41.16245781306271" lon="9.281932235903364"><ele>161.0</ele><time>2026-04-26T09:08:24Z</time></trkpt><trkpt lat="41.16238822553158" lon="9.282005074656075"><ele>161.0</ele><time>2026-04-26T09:08:25Z</time></trkpt><trkpt lat="41.162358598728815" lon="9.282085302227872"><ele>161.0</ele><time>2026-04-26T09:08:26Z</time></trkpt><trkpt lat="41.16237706475973" lon="9.282175582710952"><ele>162.8</ele><time>2026-04-26T09:08:27Z</time></trkpt><trkpt lat="41.16243956580104" lon="9.282271509669311"><ele>164.60000000000002</ele><time>2026-04-26T09:08:28Z</time></trkpt><trkpt lat="41.16253694220667" lon="9.282374278561068"><ele>166.4</ele><time>2026-04-26T09:08:29Z</time></trkpt><trkpt lat="41.162624522233244" lon="9.28248975286796"><ele>168.2</ele><time>2026-04-26T09:08:30Z</time></trkpt><trkpt lat="41.16265931436264" lon="9.282594983152654"><ele>170.0</ele><time>2026-04-26T09:08:31Z</time></trkpt><trkpt lat="41.162636303377276" lon="9.282676987930094"><ele>170.0</ele><time>2026-04-26T09:08:32Z</time></trkpt><trkpt lat="41.16257179830486" lon="9.282719327982518"><ele>170.0</ele><time>2026-04-26T09:08:33Z</time></trkpt><trkpt lat="41.162483309068094" lon="9.28272268125263"><ele>170.0</ele><time>2026-04-26T09:08:34Z</time></trkpt><trkpt lat="41.16236015899442" lon="9.282701947605705"><ele>170.0</ele><time>2026-04-26T09:08:35Z</time></trkpt><trkpt lat="41.162215423641385" lon="9.282730730352132"><ele>170.0</ele><time>2026-04-26T09:08:36Z</time></trkpt><trkpt lat="41.1620486016057" lon="9.282739091568942"><ele>172.0</ele><time>2026-04-26T09:08:37Z</time></trkpt><trkpt lat="41.16187533517607" lon="9.282746208252366"><ele>174.0</ele><time>2026-04-26T09:08:38Z</time></trkpt><trkpt lat="41.16170781749916" lon="9.282755768318017"><ele>176.0</ele><time>2026-04-26T09:08:39Z</time></trkpt><trkpt lat="41.16155118968161" lon="9.282762300431836"><ele>176.25</ele><time>2026-04-26T09:08:40Z</time></trkpt><trkpt lat="41.16140390500691" lon="9.282766737857914"><ele>176.5</ele><time>2026-04-26T09:08:41Z</time></trkpt><trkpt lat="41.16126804331069" lon="9.282773741461924"><ele>176.75</ele><time>2026-04-26T09:08:42Z</time></trkpt><trkpt lat="41.161142718448936" lon="9.282754082178453"><ele>177.0</ele><time>2026-04-26T09:08:43Z</time></trkpt><trkpt lat="41.1610310123771" lon="9.282783619271704"><ele>177.0</ele><time>2026-04-26T09:08:44Z</time></trkpt><trkpt lat="41.16093212877452" lon="9.282815806586507"><ele>177.0</ele><time>2026-04-26T09:08:45Z</time></trkpt><trkpt lat="41.16084872377557" lon="9.282856906355516"><ele>177.0</ele><time>2026-04-26T09:08:46Z</time></trkpt><trkpt lat="41.16077312213441" lon="9.2828729391064"><ele>177.0</ele><time>2026-04-26T09:08:47Z</time></trkpt><trkpt lat="41.16069637384108" lon="9.282790831581893"><ele>177.0</ele><time>2026-04-26T09:08:48Z</time></trkpt><trkpt lat="41.16061273900662" lon="9.282765590418263"><ele>175.5</ele><time>2026-04-26T09:08:49Z</time></trkpt><trkpt lat="41.16054889159392" lon="9.282757876805722"><ele>174.0</ele><time>2026-04-26T09:08:50Z</time></trkpt><trkpt lat="41.160440454924434" lon="9.282870186517002"><ele>172.5</ele><time>2026-04-26T09:08:52Z</time></trkpt><trkpt lat="41.1603921663414" lon="9.283006106953307"><ele>171.0</ele><time>2026-04-26T09:08:53Z</time></trkpt><trkpt lat="41.16033577058878" lon="9.283182194829406"><ele>171.0</ele><time>2026-04-26T09:08:54Z</time></trkpt><trkpt lat="41.1602849648353" lon="9.283340900996702"><ele>171.0</ele><time>2026-04-26T09:08:55Z</time></trkpt><trkpt lat="41.16024205291576" lon="9.283479637611933"><ele>171.0</ele><time>2026-04-26T09:08:56Z</time></trkpt><trkpt lat="41.16019960290755" lon="9.283582715855685"><ele>171.0</ele><time>2026-04-26T09:08:57Z</time></trkpt><trkpt lat="41.16015212123477" lon="9.283648465200157"><ele>171.0</ele><time>2026-04-26T09:08:58Z</time></trkpt><trkpt lat="41.16008747701765" lon="9.283679389867686"><ele>171.0</ele><time>2026-04-26T09:08:59Z</time></trkpt><trkpt lat="41.16001279741572" lon="9.283646685668334"><ele>171.0</ele><time>2026-04-26T09:09:00Z</time></trkpt><trkpt lat="41.15994390979108" lon="9.283586976329028"><ele>171.0</ele><time>2026-04-26T09:09:01Z</time></trkpt><trkpt lat="41.15984963691468" lon="9.283557159110593"><ele>171.0</ele><time>2026-04-26T09:09:02Z</time></trkpt><trkpt lat="41.15975074948861" lon="9.283510490746115"><ele>171.0</ele><time>2026-04-26T09:09:03Z</time></trkpt><trkpt lat="41.15964181810727" lon="9.283456262226936"><ele>171.0</ele><time>2026-04-26T09:09:04Z</time></trkpt><trkpt lat="41.15952119559301" lon="9.283394203346463"><ele>171.0</ele><time>2026-04-26T09:09:05Z</time></trkpt><trkpt lat="41.15939484751096" lon="9.283324968367046"><ele>171.0</ele><time>2026-04-26T09:09:06Z</time></trkpt><trkpt lat="41.15926872341163" lon="9.28326126705274"><ele>171.0</ele><time>2026-04-26T09:09:07Z</time></trkpt><trkpt lat="41.15916313123784" lon="9.283209128047282"><ele>171.0</ele><time>2026-04-26T09:09:08Z</time></trkpt><trkpt lat="41.15906519208103" lon="9.283195999475488"><ele>171.0</ele><time>2026-04-26T09:09:09Z</time></trkpt><trkpt lat="41.158971498099454" lon="9.283208063508665"><ele>171.0</ele><time>2026-04-26T09:09:10Z</time></trkpt><trkpt lat="41.1588752969829" lon="9.28325331314074"><ele>171.0</ele><time>2026-04-26T09:09:11Z</time></trkpt><trkpt lat="41.15877831115756" lon="9.283316780767215"><ele>171.0</ele><time>2026-04-26T09:09:12Z</time></trkpt><trkpt lat="41.15868007471433" lon="9.283399169035203"><ele>170.75</ele><time>2026-04-26T09:09:13Z</time></trkpt><trkpt lat="41.158573690103886" lon="9.28348749511886"><ele>170.5</ele><time>2026-04-26T09:09:14Z</time></trkpt><trkpt lat="41.15846572148033" lon="9.28359589517886"><ele>170.25</ele><time>2026-04-26T09:09:15Z</time></trkpt><trkpt lat="41.15836048564666" lon="9.283709567743912"><ele>170.0</ele><time>2026-04-26T09:09:16Z</time></trkpt><trkpt lat="41.158263465371576" lon="9.283807227782647"><ele>170.0</ele><time>2026-04-26T09:09:17Z</time></trkpt><trkpt lat="41.15816463961401" lon="9.283884926636196"><ele>170.0</ele><time>2026-04-26T09:09:18Z</time></trkpt><trkpt lat="41.15806268102178" lon="9.283934052482822"><ele>170.0</ele><time>2026-04-26T09:09:19Z</time></trkpt><trkpt lat="41.157938744891204" lon="9.283931191608078"><ele>170.0</ele><time>2026-04-26T09:09:20Z</time></trkpt><trkpt lat="41.15781057121948" lon="9.283960144636143"><ele>170.0</ele><time>2026-04-26T09:09:21Z</time></trkpt><trkpt lat="41.15768264810634" lon="9.283953844482074"><ele>170.0</ele><time>2026-04-26T09:09:22Z</time></trkpt><trkpt lat="41.15756375115564" lon="9.28393673233194"><ele>170.0</ele><time>2026-04-26T09:09:23Z</time></trkpt><trkpt lat="41.15743740520849" lon="9.28390581109281"><ele>170.0</ele><time>2026-04-26T09:09:24Z</time></trkpt><trkpt lat="41.157294261565646" lon="9.28386337530271"><ele>169.75</ele><time>2026-04-26T09:09:25Z</time></trkpt><trkpt lat="41.157141016722534" lon="9.283816056342904"><ele>169.5</ele><time>2026-04-26T09:09:26Z</time></trkpt><trkpt lat="41.15700101836848" lon="9.283770075523906"><ele>169.25</ele><time>2026-04-26T09:09:27Z</time></trkpt><trkpt lat="41.15687579255746" lon="9.283726776153948"><ele>169.0</ele><time>2026-04-26T09:09:28Z</time></trkpt><trkpt lat="41.15675191787536" lon="9.283672168898486"><ele>169.0</ele><time>2026-04-26T09:09:29Z</time></trkpt><trkpt lat="41.156626878374745" lon="9.283609196267067"><ele>169.0</ele><time>2026-04-26T09:09:30Z</time></trkpt><trkpt lat="41.15649888863489" lon="9.283530872309605"><ele>169.0</ele><time>2026-04-26T09:09:31Z</time></trkpt><trkpt lat="41.156375778641134" lon="9.283456595214785"><ele>169.0</ele><time>2026-04-26T09:09:32Z</time></trkpt><trkpt lat="41.15626358881158" lon="9.283390416821922"><ele>169.0</ele><time>2026-04-26T09:09:33Z</time></trkpt><trkpt lat="41.1561449448687" lon="9.28332123744876"><ele>169.0</ele><time>2026-04-26T09:09:34Z</time></trkpt><trkpt lat="41.15601901509255" lon="9.28325199177927"><ele>169.0</ele><time>2026-04-26T09:09:35Z</time></trkpt><trkpt lat="41.1558843557528" lon="9.283178887065905"><ele>169.0</ele><time>2026-04-26T09:09:36Z</time></trkpt><trkpt lat="41.15575302858648" lon="9.283107528558103"><ele>167.0</ele><time>2026-04-26T09:09:37Z</time></trkpt><trkpt lat="41.15562646934817" lon="9.283042413084626"><ele>165.0</ele><time>2026-04-26T09:09:38Z</time></trkpt><trkpt lat="41.15550998649073" lon="9.28297392828339"><ele>163.0</ele><time>2026-04-26T09:09:39Z</time></trkpt><trkpt lat="41.15540318316409" lon="9.282926227073506"><ele>161.0</ele><time>2026-04-26T09:09:40Z</time></trkpt><trkpt lat="41.15528916496791" lon="9.282908601865815"><ele>161.0</ele><time>2026-04-26T09:09:41Z</time></trkpt><trkpt lat="41.155166705181664" lon="9.282903835983596"><ele>161.0</ele><time>2026-04-26T09:09:42Z</time></trkpt><trkpt lat="41.15503221462459" lon="9.282918480357958"><ele>161.0</ele><time>2026-04-26T09:09:43Z</time></trkpt><trkpt lat="41.15490422153229" lon="9.282940851836031"><ele>161.0</ele><time>2026-04-26T09:09:44Z</time></trkpt><trkpt lat="41.154800009434574" lon="9.282957030947143"><ele>161.0</ele><time>2026-04-26T09:09:45Z</time></trkpt><trkpt lat="41.15471714606327" lon="9.282964501020722"><ele>161.0</ele><time>2026-04-26T09:09:46Z</time></trkpt><trkpt lat="41.154643325698245" lon="9.28297094832823"><ele>161.0</ele><time>2026-04-26T09:09:47Z</time></trkpt><trkpt lat="41.154558038074825" lon="9.282982694973436"><ele>161.0</ele><time>2026-04-26T09:09:48Z</time></trkpt><trkpt lat="41.154455032722005" lon="9.282993023774196"><ele>161.0</ele><time>2026-04-26T09:09:49Z</time></trkpt><trkpt lat="41.154346745787876" lon="9.283000964848016"><ele>161.0</ele><time>2026-04-26T09:09:50Z</time></trkpt><trkpt lat="41.15423318892861" lon="9.28300805993017"><ele>161.0</ele><time>2026-04-26T09:09:51Z</time></trkpt><trkpt lat="41.15411927154207" lon="9.283008319242029"><ele>161.0</ele><time>2026-04-26T09:09:52Z</time></trkpt><trkpt lat="41.15400791745114" lon="9.28298958533846"><ele>161.0</ele><time>2026-04-26T09:09:53Z</time></trkpt><trkpt lat="41.15389007778839" lon="9.282921409094833"><ele>162.33333333333331</ele><time>2026-04-26T09:09:54Z</time></trkpt><trkpt lat="41.15373984036404" lon="9.282853111875635"><ele>163.66666666666666</ele><time>2026-04-26T09:09:55Z</time></trkpt><trkpt lat="41.15355848158979" lon="9.282799384491348"><ele>165.0</ele><time>2026-04-26T09:09:56Z</time></trkpt><trkpt lat="41.15336583903054" lon="9.282726693384163"><ele>166.0</ele><time>2026-04-26T09:09:57Z</time></trkpt><trkpt lat="41.15316989424125" lon="9.282646168215264"><ele>167.0</ele><time>2026-04-26T09:09:58Z</time></trkpt><trkpt lat="41.15298699736662" lon="9.282587694409639"><ele>168.0</ele><time>2026-04-26T09:09:59Z</time></trkpt><trkpt lat="41.152817693107274" lon="9.282540121977663"><ele>168.0</ele><time>2026-04-26T09:10:00Z</time></trkpt><trkpt lat="41.15265500707483" lon="9.282478110885101"><ele>168.0</ele><time>2026-04-26T09:10:01Z</time></trkpt><trkpt lat="41.15248940175112" lon="9.282418895024419"><ele>168.0</ele><time>2026-04-26T09:10:02Z</time></trkpt><trkpt lat="41.152323107003625" lon="9.28236477848325"><ele>168.33333333333334</ele><time>2026-04-26T09:10:03Z</time></trkpt><trkpt lat="41.152153221740384" lon="9.282319547476172"><ele>168.66666666666669</ele><time>2026-04-26T09:10:04Z</time></trkpt><trkpt lat="41.1519827191501" lon="9.282282472955172"><ele>169.0</ele><time>2026-04-26T09:10:05Z</time></trkpt><trkpt lat="41.151807910902555" lon="9.282245299536422"><ele>169.33333333333334</ele><time>2026-04-26T09:10:06Z</time></trkpt><trkpt lat="41.15163245155771" lon="9.282205771398631"><ele>169.66666666666666</ele><time>2026-04-26T09:10:07Z</time></trkpt><trkpt lat="41.15145737501834" lon="9.282165603025513"><ele>170.0</ele><time>2026-04-26T09:10:08Z</time></trkpt><trkpt lat="41.15128137884812" lon="9.2821240994782"><ele>171.0</ele><time>2026-04-26T09:10:09Z</time></trkpt><trkpt lat="41.15111041423899" lon="9.282083925281803"><ele>172.0</ele><time>2026-04-26T09:10:10Z</time></trkpt><trkpt lat="41.150943632410296" lon="9.282044464465733"><ele>173.0</ele><time>2026-04-26T09:10:11Z</time></trkpt><trkpt lat="41.15078421588675" lon="9.282011926603579"><ele>173.25</ele><time>2026-04-26T09:10:12Z</time></trkpt><trkpt lat="41.15064265292641" lon="9.281988941009397"><ele>173.5</ele><time>2026-04-26T09:10:13Z</time></trkpt><trkpt lat="41.15051653476233" lon="9.28197375896663"><ele>173.75</ele><time>2026-04-26T09:10:14Z</time></trkpt><trkpt lat="41.15039354901839" lon="9.281968071174022"><ele>174.0</ele><time>2026-04-26T09:10:15Z</time></trkpt><trkpt lat="41.15026278572051" lon="9.281972151314632"><ele>174.0</ele><time>2026-04-26T09:10:16Z</time></trkpt><trkpt lat="41.15013707039306" lon="9.281976367759937"><ele>174.0</ele><time>2026-04-26T09:10:17Z</time></trkpt><trkpt lat="41.150020570099606" lon="9.28198382668591"><ele>174.0</ele><time>2026-04-26T09:10:18Z</time></trkpt><trkpt lat="41.14991261527278" lon="9.281990505966299"><ele>174.0</ele><time>2026-04-26T09:10:19Z</time></trkpt><trkpt lat="41.14982944610929" lon="9.281999343436022"><ele>174.0</ele><time>2026-04-26T09:10:20Z</time></trkpt><trkpt lat="41.14976509584237" lon="9.282007719371432"><ele>174.6</ele><time>2026-04-26T09:10:21Z</time></trkpt><trkpt lat="41.149677151537034" lon="9.282017049150708"><ele>175.2</ele><time>2026-04-26T09:10:23Z</time></trkpt><trkpt lat="41.14959331135006" lon="9.28205698628169"><ele>175.79999999999998</ele><time>2026-04-26T09:10:25Z</time></trkpt><trkpt lat="41.14950309349879" lon="9.282131181661644"><ele>176.39999999999998</ele><time>2026-04-26T09:10:27Z</time></trkpt><trkpt lat="41.14947606224319" lon="9.282236582538438"><ele>177.0</ele><time>2026-04-26T09:10:28Z</time></trkpt><trkpt lat="41.14943204853895" lon="9.282345184213552"><ele>177.0</ele><time>2026-04-26T09:10:29Z</time></trkpt><trkpt lat="41.149373146571335" lon="9.28249565714343"><ele>177.0</ele><time>2026-04-26T09:10:30Z</time></trkpt><trkpt lat="41.14930405470511" lon="9.282657252118497"><ele>177.0</ele><time>2026-04-26T09:10:31Z</time></trkpt><trkpt lat="41.14923837427867" lon="9.282790899349175"><ele>177.0</ele><time>2026-04-26T09:10:32Z</time></trkpt><trkpt lat="41.149170005264985" lon="9.282901828241346"><ele>177.0</ele><time>2026-04-26T09:10:33Z</time></trkpt><trkpt lat="41.149085585033234" lon="9.282997881175532"><ele>177.0</ele><time>2026-04-26T09:10:34Z</time></trkpt><trkpt lat="41.14898572139428" lon="9.283083232723877"><ele>177.0</ele><time>2026-04-26T09:10:35Z</time></trkpt><trkpt lat="41.14887312269164" lon="9.283158761122397"><ele>177.0</ele><time>2026-04-26T09:10:36Z</time></trkpt><trkpt lat="41.148755896617594" lon="9.283233335901032"><ele>177.25</ele><time>2026-04-26T09:10:37Z</time></trkpt><trkpt lat="41.14864269499427" lon="9.283310009116116"><ele>177.5</ele><time>2026-04-26T09:10:38Z</time></trkpt><trkpt lat="41.148534894476335" lon="9.283371200827789"><ele>177.75</ele><time>2026-04-26T09:10:39Z</time></trkpt><trkpt lat="41.148415393738816" lon="9.283413864888159"><ele>178.0</ele><time>2026-04-26T09:10:40Z</time></trkpt><trkpt lat="41.148289313887076" lon="9.283445272093937"><ele>178.0</ele><time>2026-04-26T09:10:41Z</time></trkpt><trkpt lat="41.148166086322725" lon="9.283496466722644"><ele>178.0</ele><time>2026-04-26T09:10:42Z</time></trkpt><trkpt lat="41.148048506847246" lon="9.28357671128508"><ele>178.0</ele><time>2026-04-26T09:10:43Z</time></trkpt><trkpt lat="41.147928818034245" lon="9.283666652933196"><ele>178.0</ele><time>2026-04-26T09:10:44Z</time></trkpt><trkpt lat="41.14781234127613" lon="9.283762236258752"><ele>178.0</ele><time>2026-04-26T09:10:45Z</time></trkpt><trkpt lat="41.1476966703498" lon="9.283854762244573"><ele>178.0</ele><time>2026-04-26T09:10:46Z</time></trkpt><trkpt lat="41.14759329032867" lon="9.283947509957581"><ele>178.0</ele><time>2026-04-26T09:10:47Z</time></trkpt><trkpt lat="41.14748957460904" lon="9.284046851603948"><ele>178.0</ele><time>2026-04-26T09:10:48Z</time></trkpt><trkpt lat="41.147393880861735" lon="9.284147576775139"><ele>176.0</ele><time>2026-04-26T09:10:49Z</time></trkpt><trkpt lat="41.14729273145192" lon="9.284239251749138"><ele>174.0</ele><time>2026-04-26T09:10:49.999Z</time></trkpt><trkpt lat="41.14718011199747" lon="9.284316278185825"><ele>172.0</ele><time>2026-04-26T09:10:50.999Z</time></trkpt><trkpt lat="41.14704101820411" lon="9.284387146201414"><ele>170.0</ele><time>2026-04-26T09:10:51.999Z</time></trkpt><trkpt lat="41.1468879003698" lon="9.284459788316008"><ele>170.0</ele><time>2026-04-26T09:10:52.999Z</time></trkpt><trkpt lat="41.14673675568078" lon="9.284526533696534"><ele>170.0</ele><time>2026-04-26T09:10:53.999Z</time></trkpt><trkpt lat="41.14659772640096" lon="9.284586847904809"><ele>170.0</ele><time>2026-04-26T09:10:54.999Z</time></trkpt><trkpt lat="41.14647525382621" lon="9.284639947988747"><ele>170.0</ele><time>2026-04-26T09:10:55.999Z</time></trkpt><trkpt lat="41.14637962746994" lon="9.284682150705086"><ele>168.2</ele><time>2026-04-26T09:10:56.999Z</time></trkpt><trkpt lat="41.14630486198043" lon="9.284717022643978"><ele>166.4</ele><time>2026-04-26T09:10:57.999Z</time></trkpt><trkpt lat="41.146244231963145" lon="9.28476899771084"><ele>164.60000000000002</ele><time>2026-04-26T09:10:58.999Z</time></trkpt><trkpt lat="41.146186475886935" lon="9.284854124774768"><ele>162.8</ele><time>2026-04-26T09:10:59.999Z</time></trkpt><trkpt lat="41.1461338084405" lon="9.284978730299004"><ele>161.0</ele><time>2026-04-26T09:11:00.999Z</time></trkpt><trkpt lat="41.14607338781592" lon="9.2851037304847"><ele>161.0</ele><time>2026-04-26T09:11:01.999Z</time></trkpt><trkpt lat="41.14601445517923" lon="9.285205578516248"><ele>161.0</ele><time>2026-04-26T09:11:02.999Z</time></trkpt><trkpt lat="41.14595543639994" lon="9.285265839576654"><ele>161.0</ele><time>2026-04-26T09:11:03.999Z</time></trkpt><trkpt lat="41.14588777599087" lon="9.285286780444261"><ele>161.0</ele><time>2026-04-26T09:11:05Z</time></trkpt><trkpt lat="41.14581020166603" lon="9.285242353622097"><ele>161.0</ele><time>2026-04-26T09:11:06Z</time></trkpt><trkpt lat="41.14573093987214" lon="9.285158187582523"><ele>161.0</ele><time>2026-04-26T09:11:07Z</time></trkpt><trkpt lat="41.145600606010596" lon="9.285061508136998"><ele>159.0</ele><time>2026-04-26T09:11:08Z</time></trkpt><trkpt lat="41.145459729183415" lon="9.284983819904728"><ele>157.0</ele><time>2026-04-26T09:11:09Z</time></trkpt><trkpt lat="41.14534473575967" lon="9.284894793810269"><ele>155.0</ele><time>2026-04-26T09:11:10Z</time></trkpt><trkpt lat="41.1452483695276" lon="9.284823138589411"><ele>153.0</ele><time>2026-04-26T09:11:11Z</time></trkpt><trkpt lat="41.14516201641061" lon="9.284770982583737"><ele>152.25</ele><time>2026-04-26T09:11:12Z</time></trkpt><trkpt lat="41.14506995979291" lon="9.284748557192183"><ele>151.5</ele><time>2026-04-26T09:11:13Z</time></trkpt><trkpt lat="41.14495903992944" lon="9.28475929393079"><ele>150.75</ele><time>2026-04-26T09:11:14Z</time></trkpt><trkpt lat="41.14482338951054" lon="9.2848012048681"><ele>150.0</ele><time>2026-04-26T09:11:15Z</time></trkpt><trkpt lat="41.14469769107321" lon="9.284843589917338"><ele>150.0</ele><time>2026-04-26T09:11:16Z</time></trkpt><trkpt lat="41.144589891050984" lon="9.284866235673197"><ele>150.0</ele><time>2026-04-26T09:11:17Z</time></trkpt><trkpt lat="41.144500742001014" lon="9.28486661867402"><ele>150.0</ele><time>2026-04-26T09:11:18Z</time></trkpt><trkpt lat="41.144424113155885" lon="9.28480426897996"><ele>150.0</ele><time>2026-04-26T09:11:19Z</time></trkpt><trkpt lat="41.14432999272245" lon="9.284730463609145"><ele>150.0</ele><time>2026-04-26T09:11:20Z</time></trkpt><trkpt lat="41.14422325180572" lon="9.284673516636097"><ele>150.0</ele><time>2026-04-26T09:11:21Z</time></trkpt><trkpt lat="41.14412617467928" lon="9.284635299983194"><ele>150.0</ele><time>2026-04-26T09:11:22Z</time></trkpt><trkpt lat="41.144014963393765" lon="9.284651747141597"><ele>150.0</ele><time>2026-04-26T09:11:23Z</time></trkpt><trkpt lat="41.143890292204404" lon="9.284696344763985"><ele>150.0</ele><time>2026-04-26T09:11:24Z</time></trkpt><trkpt lat="41.14377885281251" lon="9.284726726642646"><ele>150.0</ele><time>2026-04-26T09:11:25Z</time></trkpt><trkpt lat="41.14367787897999" lon="9.284731609984986"><ele>150.0</ele><time>2026-04-26T09:11:26Z</time></trkpt><trkpt lat="41.14357416961383" lon="9.284711454186555"><ele>150.0</ele><time>2026-04-26T09:11:27Z</time></trkpt><trkpt lat="41.14345404548695" lon="9.284676470181049"><ele>150.0</ele><time>2026-04-26T09:11:28Z</time></trkpt><trkpt lat="41.14332302652787" lon="9.284635342052393"><ele>149.5</ele><time>2026-04-26T09:11:29Z</time></trkpt><trkpt lat="41.1431855602106" lon="9.284595492085662"><ele>149.0</ele><time>2026-04-26T09:11:30Z</time></trkpt><trkpt lat="41.14305192183442" lon="9.284550745362912"><ele>148.5</ele><time>2026-04-26T09:11:31Z</time></trkpt><trkpt lat="41.14291847666265" lon="9.284536637195785"><ele>148.0</ele><time>2026-04-26T09:11:32Z</time></trkpt><trkpt lat="41.14278625242995" lon="9.284526111092662"><ele>148.0</ele><time>2026-04-26T09:11:33Z</time></trkpt><trkpt lat="41.14265358092234" lon="9.28453229342986"><ele>148.0</ele><time>2026-04-26T09:11:34Z</time></trkpt><trkpt lat="41.142517964976854" lon="9.28454541522793"><ele>148.0</ele><time>2026-04-26T09:11:35Z</time></trkpt><trkpt lat="41.14237057102952" lon="9.284568560969296"><ele>148.0</ele><time>2026-04-26T09:11:36Z</time></trkpt><trkpt lat="41.14221427621539" lon="9.284595688292878"><ele>147.33333333333334</ele><time>2026-04-26T09:11:37Z</time></trkpt><trkpt lat="41.14205182441886" lon="9.284619885457245"><ele>146.66666666666666</ele><time>2026-04-26T09:11:38Z</time></trkpt><trkpt lat="41.14189833031296" lon="9.28464160970911"><ele>146.0</ele><time>2026-04-26T09:11:39Z</time></trkpt><trkpt lat="41.14175329259049" lon="9.284661109475401"><ele>146.0</ele><time>2026-04-26T09:11:40Z</time></trkpt><trkpt lat="41.14161107282228" lon="9.284678417175861"><ele>146.0</ele><time>2026-04-26T09:11:41Z</time></trkpt><trkpt lat="41.141476366468446" lon="9.284696858779254"><ele>146.0</ele><time>2026-04-26T09:11:42Z</time></trkpt><trkpt lat="41.14133693073396" lon="9.284720843540242"><ele>146.0</ele><time>2026-04-26T09:11:43Z</time></trkpt><trkpt lat="41.14119789265621" lon="9.284741934953557"><ele>144.75</ele><time>2026-04-26T09:11:44Z</time></trkpt><trkpt lat="41.14105309882141" lon="9.284762122762839"><ele>143.5</ele><time>2026-04-26T09:11:45Z</time></trkpt><trkpt lat="41.140909280114684" lon="9.284781984325164"><ele>142.25</ele><time>2026-04-26T09:11:46Z</time></trkpt><trkpt lat="41.14077008842037" lon="9.284802225940574"><ele>141.0</ele><time>2026-04-26T09:11:47Z</time></trkpt><trkpt lat="41.14063782581345" lon="9.284820789119463"><ele>139.75</ele><time>2026-04-26T09:11:48Z</time></trkpt><trkpt lat="41.14050740961979" lon="9.284840795816153"><ele>138.5</ele><time>2026-04-26T09:11:49Z</time></trkpt><trkpt lat="41.14037436998024" lon="9.284861417894161"><ele>137.25</ele><time>2026-04-26T09:11:50Z</time></trkpt><trkpt lat="41.140238470558444" lon="9.28488731170789"><ele>136.0</ele><time>2026-04-26T09:11:51Z</time></trkpt><trkpt lat="41.140092929163835" lon="9.284917482495864"><ele>136.0</ele><time>2026-04-26T09:11:52Z</time></trkpt><trkpt lat="41.13994878108278" lon="9.284961462892113"><ele>136.0</ele><time>2026-04-26T09:11:53Z</time></trkpt><trkpt lat="41.139805402056595" lon="9.285019573724389"><ele>136.0</ele><time>2026-04-26T09:11:54Z</time></trkpt><trkpt lat="41.13967378407851" lon="9.28508254825075"><ele>136.0</ele><time>2026-04-26T09:11:55Z</time></trkpt><trkpt lat="41.139551157544375" lon="9.285137826063357"><ele>135.75</ele><time>2026-04-26T09:11:56Z</time></trkpt><trkpt lat="41.139430404748346" lon="9.285188239589255"><ele>135.5</ele><time>2026-04-26T09:11:57Z</time></trkpt><trkpt lat="41.13931127189836" lon="9.285240122530855"><ele>135.25</ele><time>2026-04-26T09:11:58Z</time></trkpt><trkpt lat="41.13919457068336" lon="9.285290231254537"><ele>135.0</ele><time>2026-04-26T09:11:59Z</time></trkpt><trkpt lat="41.13909433446202" lon="9.285340610313453"><ele>134.6</ele><time>2026-04-26T09:12:00Z</time></trkpt><trkpt lat="41.13899793987845" lon="9.285399189487782"><ele>134.2</ele><time>2026-04-26T09:12:01Z</time></trkpt><trkpt lat="41.13890503316142" lon="9.28547763664483"><ele>133.8</ele><time>2026-04-26T09:12:02Z</time></trkpt><trkpt lat="41.138818578029664" lon="9.285576754308485"><ele>133.4</ele><time>2026-04-26T09:12:03Z</time></trkpt><trkpt lat="41.13873803121218" lon="9.285691894072784"><ele>133.0</ele><time>2026-04-26T09:12:04Z</time></trkpt><trkpt lat="41.13866329353073" lon="9.285813699128706"><ele>131.0</ele><time>2026-04-26T09:12:05Z</time></trkpt><trkpt lat="41.13858765682844" lon="9.285924116023"><ele>129.0</ele><time>2026-04-26T09:12:06Z</time></trkpt><trkpt lat="41.13849347406116" lon="9.28603068968371"><ele>127.0</ele><time>2026-04-26T09:12:07Z</time></trkpt><trkpt lat="41.13837597109644" lon="9.286133786362184"><ele>125.0</ele><time>2026-04-26T09:12:08Z</time></trkpt><trkpt lat="41.13825040598363" lon="9.286239228310103"><ele>123.25</ele><time>2026-04-26T09:12:09Z</time></trkpt><trkpt lat="41.13812773432144" lon="9.286337966127173"><ele>121.5</ele><time>2026-04-26T09:12:10Z</time></trkpt><trkpt lat="41.13800503322377" lon="9.286437700270751"><ele>119.75</ele><time>2026-04-26T09:12:11Z</time></trkpt><trkpt lat="41.13788921192603" lon="9.286526366951572"><ele>118.0</ele><time>2026-04-26T09:12:12Z</time></trkpt><trkpt lat="41.13778789139369" lon="9.286600569458153"><ele>117.4</ele><time>2026-04-26T09:12:13Z</time></trkpt><trkpt lat="41.1376996427613" lon="9.286654476058919"><ele>116.80000000000001</ele><time>2026-04-26T09:12:14Z</time></trkpt><trkpt lat="41.13761139837187" lon="9.286686578697307"><ele>116.2</ele><time>2026-04-26T09:12:15Z</time></trkpt><trkpt lat="41.1374942622333" lon="9.286694073856161"><ele>115.6</ele><time>2026-04-26T09:12:16Z</time></trkpt><trkpt lat="41.13735332140694" lon="9.286692383810099"><ele>115.0</ele><time>2026-04-26T09:12:17Z</time></trkpt><trkpt lat="41.13718411638219" lon="9.286699091525387"><ele>113.33333333333334</ele><time>2026-04-26T09:12:18Z</time></trkpt><trkpt lat="41.13702407923931" lon="9.286700742878597"><ele>111.66666666666666</ele><time>2026-04-26T09:12:19Z</time></trkpt><trkpt lat="41.13687611698071" lon="9.286704645776274"><ele>110.0</ele><time>2026-04-26T09:12:20Z</time></trkpt><trkpt lat="41.13672784223389" lon="9.286712019441199"><ele>110.0</ele><time>2026-04-26T09:12:21Z</time></trkpt><trkpt lat="41.13658331150589" lon="9.286717675215613"><ele>110.0</ele><time>2026-04-26T09:12:22Z</time></trkpt><trkpt lat="41.1364435398344" lon="9.286723085201922"><ele>110.0</ele><time>2026-04-26T09:12:23Z</time></trkpt><trkpt lat="41.13630765984187" lon="9.286728722847375"><ele>110.0</ele><time>2026-04-26T09:12:24Z</time></trkpt><trkpt lat="41.136174568376305" lon="9.28673524699131"><ele>109.75</ele><time>2026-04-26T09:12:25Z</time></trkpt><trkpt lat="41.13603936388068" lon="9.28674388701783"><ele>109.5</ele><time>2026-04-26T09:12:26Z</time></trkpt><trkpt lat="41.13590399362251" lon="9.286753789567936"><ele>109.25</ele><time>2026-04-26T09:12:27Z</time></trkpt><trkpt lat="41.13577939233896" lon="9.286769673574138"><ele>109.0</ele><time>2026-04-26T09:12:28Z</time></trkpt><trkpt lat="41.13566580920165" lon="9.286776062879083"><ele>108.25</ele><time>2026-04-26T09:12:29Z</time></trkpt><trkpt lat="41.13555593469187" lon="9.286735431039821"><ele>107.5</ele><time>2026-04-26T09:12:30Z</time></trkpt><trkpt lat="41.135443084596844" lon="9.286707309569854"><ele>106.75</ele><time>2026-04-26T09:12:31Z</time></trkpt><trkpt lat="41.13531778712718" lon="9.28669279340971"><ele>106.0</ele><time>2026-04-26T09:12:32Z</time></trkpt><trkpt lat="41.1351814789628" lon="9.28665593896177"><ele>106.0</ele><time>2026-04-26T09:12:33Z</time></trkpt><trkpt lat="41.13505146410439" lon="9.286623829642004"><ele>106.0</ele><time>2026-04-26T09:12:34Z</time></trkpt><trkpt lat="41.13492725408545" lon="9.286595429909147"><ele>106.0</ele><time>2026-04-26T09:12:35Z</time></trkpt><trkpt lat="41.134803274216424" lon="9.286560897393539"><ele>106.0</ele><time>2026-04-26T09:12:36Z</time></trkpt><trkpt lat="41.13470134802475" lon="9.28654518519496"><ele>106.0</ele><time>2026-04-26T09:12:37Z</time></trkpt><trkpt lat="41.13461541809599" lon="9.286527185319141"><ele>106.0</ele><time>2026-04-26T09:12:39Z</time></trkpt><trkpt lat="41.13449225521809" lon="9.286512633746497"><ele>106.0</ele><time>2026-04-26T09:12:41Z</time></trkpt><trkpt lat="41.13440430702422" lon="9.286485421307347"><ele>106.0</ele><time>2026-04-26T09:12:42Z</time></trkpt><trkpt lat="41.13430073257974" lon="9.28644027563683"><ele>106.0</ele><time>2026-04-26T09:12:43Z</time></trkpt><trkpt lat="41.13419104696957" lon="9.286387177675591"><ele>106.0</ele><time>2026-04-26T09:12:44Z</time></trkpt><trkpt lat="41.13408912053228" lon="9.286336308859484"><ele>106.0</ele><time>2026-04-26T09:12:45Z</time></trkpt><trkpt lat="41.13399359583091" lon="9.286282225860653"><ele>106.0</ele><time>2026-04-26T09:12:46Z</time></trkpt><trkpt lat="41.13389454736849" lon="9.286242678269778"><ele>106.0</ele><time>2026-04-26T09:12:47Z</time></trkpt><trkpt lat="41.13380434829323" lon="9.286194730093172"><ele>106.0</ele><time>2026-04-26T09:12:48Z</time></trkpt><trkpt lat="41.13371938048623" lon="9.28615694801703"><ele>105.19999999999999</ele><time>2026-04-26T09:12:49Z</time></trkpt><trkpt lat="41.13362766383199" lon="9.28611136638843"><ele>104.39999999999999</ele><time>2026-04-26T09:12:50Z</time></trkpt><trkpt lat="41.13352296158129" lon="9.286057679230684"><ele>103.6</ele><time>2026-04-26T09:12:51Z</time></trkpt><trkpt lat="41.133417537069114" lon="9.286006256272868"><ele>102.8</ele><time>2026-04-26T09:12:52Z</time></trkpt><trkpt lat="41.13332844037816" lon="9.285960584366789"><ele>102.0</ele><time>2026-04-26T09:12:52.999Z</time></trkpt><trkpt lat="41.13325258967736" lon="9.28592361886618"><ele>101.0</ele><time>2026-04-26T09:12:53.999Z</time></trkpt><trkpt lat="41.133178826233205" lon="9.285900927192285"><ele>100.0</ele><time>2026-04-26T09:12:54.999Z</time></trkpt><trkpt lat="41.13309381423811" lon="9.285910395624814"><ele>99.0</ele><time>2026-04-26T09:12:55.999Z</time></trkpt><trkpt lat="41.132990347350336" lon="9.285957927457483"><ele>98.0</ele><time>2026-04-26T09:12:56.999Z</time></trkpt><trkpt lat="41.13286533586815" lon="9.286023360785729"><ele>97.0</ele><time>2026-04-26T09:12:57.999Z</time></trkpt><trkpt lat="41.13271334297337" lon="9.286093072562544"><ele>97.0</ele><time>2026-04-26T09:12:58.999Z</time></trkpt><trkpt lat="41.132548066889626" lon="9.286167186037657"><ele>97.0</ele><time>2026-04-26T09:12:59.999Z</time></trkpt><trkpt lat="41.13239541465825" lon="9.286235402028629"><ele>97.0</ele><time>2026-04-26T09:13:00.999Z</time></trkpt><trkpt lat="41.13225533531049" lon="9.286299740738864"><ele>97.25</ele><time>2026-04-26T09:13:01.999Z</time></trkpt><trkpt lat="41.13212481121141" lon="9.286357694296438"><ele>97.5</ele><time>2026-04-26T09:13:02.999Z</time></trkpt><trkpt lat="41.13199472265733" lon="9.286414949348936"><ele>97.75</ele><time>2026-04-26T09:13:03.999Z</time></trkpt><trkpt lat="41.131866461648336" lon="9.286469334574424"><ele>98.0</ele><time>2026-04-26T09:13:04.999Z</time></trkpt><trkpt lat="41.13174464860711" lon="9.286521649017583"><ele>97.66666666666666</ele><time>2026-04-26T09:13:05.999Z</time></trkpt><trkpt lat="41.13164308454751" lon="9.286579286334081"><ele>97.33333333333333</ele><time>2026-04-26T09:13:06.999Z</time></trkpt><trkpt lat="41.13156188040472" lon="9.286631210278047"><ele>97.0</ele><time>2026-04-26T09:13:07.999Z</time></trkpt><trkpt lat="41.131470762144254" lon="9.28668879115843"><ele>96.66666666666666</ele><time>2026-04-26T09:13:09.999Z</time></trkpt><trkpt lat="41.131408802770885" lon="9.2867198251515"><ele>96.33333333333333</ele><time>2026-04-26T09:13:12Z</time></trkpt><trkpt lat="41.13133764140593" lon="9.286744021341267"><ele>96.0</ele><time>2026-04-26T09:13:14Z</time></trkpt><trkpt lat="41.13123339182963" lon="9.286800497823009"><ele>96.0</ele><time>2026-04-26T09:13:16Z</time></trkpt><trkpt lat="41.131151144614" lon="9.286837586691952"><ele>96.0</ele><time>2026-04-26T09:13:17Z</time></trkpt><trkpt lat="41.13104786406454" lon="9.286873604342148"><ele>96.0</ele><time>2026-04-26T09:13:18Z</time></trkpt><trkpt lat="41.130914334609685" lon="9.28691676856218"><ele>96.0</ele><time>2026-04-26T09:13:19Z</time></trkpt><trkpt lat="41.130765880082386" lon="9.286952945779763"><ele>94.5</ele><time>2026-04-26T09:13:20Z</time></trkpt><trkpt lat="41.130618813800076" lon="9.286990076856037"><ele>93.0</ele><time>2026-04-26T09:13:21Z</time></trkpt><trkpt lat="41.130473419778774" lon="9.28702114422596"><ele>91.5</ele><time>2026-04-26T09:13:22Z</time></trkpt><trkpt lat="41.1303237619994" lon="9.287052941899274"><ele>90.0</ele><time>2026-04-26T09:13:23Z</time></trkpt><trkpt lat="41.130173490358175" lon="9.28708419634326"><ele>90.0</ele><time>2026-04-26T09:13:24Z</time></trkpt><trkpt lat="41.13002650330936" lon="9.287115876153253"><ele>90.0</ele><time>2026-04-26T09:13:25Z</time></trkpt><trkpt lat="41.12988581905232" lon="9.287148916613116"><ele>90.0</ele><time>2026-04-26T09:13:26Z</time></trkpt><trkpt lat="41.129754207052954" lon="9.287177892861806"><ele>90.0</ele><time>2026-04-26T09:13:27Z</time></trkpt><trkpt lat="41.129639893352056" lon="9.28720279428086"><ele>88.6</ele><time>2026-04-26T09:13:28Z</time></trkpt><trkpt lat="41.12953137631509" lon="9.287225676008946"><ele>87.2</ele><time>2026-04-26T09:13:29Z</time></trkpt><trkpt lat="41.129424705845494" lon="9.287247083172836"><ele>85.80000000000001</ele><time>2026-04-26T09:13:30Z</time></trkpt><trkpt lat="41.12932972424077" lon="9.28726424320971"><ele>84.4</ele><time>2026-04-26T09:13:31Z</time></trkpt><trkpt lat="41.12923968974489" lon="9.287266918863805"><ele>83.0</ele><time>2026-04-26T09:13:32Z</time></trkpt><trkpt lat="41.12915121733395" lon="9.287208112015946"><ele>83.0</ele><time>2026-04-26T09:13:33Z</time></trkpt><trkpt lat="41.129066410501466" lon="9.287207115709325"><ele>83.0</ele><time>2026-04-26T09:13:34Z</time></trkpt><trkpt lat="41.128998950392194" lon="9.28719593429918"><ele>83.0</ele><time>2026-04-26T09:13:35Z</time></trkpt><trkpt lat="41.12891869624814" lon="9.287221868506155"><ele>83.0</ele><time>2026-04-26T09:13:37Z</time></trkpt><trkpt lat="41.128815247338416" lon="9.287077269232103"><ele>83.0</ele><time>2026-04-26T09:13:40Z</time></trkpt><trkpt lat="41.12875464695561" lon="9.286930696531124"><ele>81.75</ele><time>2026-04-26T09:13:41Z</time></trkpt><trkpt lat="41.128714396002984" lon="9.286749273589521"><ele>80.5</ele><time>2026-04-26T09:13:42Z</time></trkpt><trkpt lat="41.128717390208074" lon="9.286573004420886"><ele>79.25</ele><time>2026-04-26T09:13:43Z</time></trkpt><trkpt lat="41.128751732208556" lon="9.286412538337524"><ele>78.0</ele><time>2026-04-26T09:13:44Z</time></trkpt><trkpt lat="41.12880835027905" lon="9.286227060411306"><ele>78.0</ele><time>2026-04-26T09:13:45Z</time></trkpt><trkpt lat="41.12885308670735" lon="9.286027304097873"><ele>78.0</ele><time>2026-04-26T09:13:46Z</time></trkpt><trkpt lat="41.128902201872336" lon="9.28586275795699"><ele>78.0</ele><time>2026-04-26T09:13:47Z</time></trkpt><trkpt lat="41.12891625051171" lon="9.285702461969178"><ele>78.0</ele><time>2026-04-26T09:13:48Z</time></trkpt><trkpt lat="41.12889702102482" lon="9.285551723667623"><ele>78.5</ele><time>2026-04-26T09:13:49Z</time></trkpt><trkpt lat="41.128842914123396" lon="9.28543150042769"><ele>79.0</ele><time>2026-04-26T09:13:50Z</time></trkpt><trkpt lat="41.1287566816321" lon="9.28534013241973"><ele>79.5</ele><time>2026-04-26T09:13:51Z</time></trkpt><trkpt lat="41.1286337303813" lon="9.285259689939114"><ele>80.0</ele><time>2026-04-26T09:13:52Z</time></trkpt><trkpt lat="41.128477475209515" lon="9.285187768469052"><ele>80.0</ele><time>2026-04-26T09:13:53Z</time></trkpt><trkpt lat="41.128302647338046" lon="9.285114605727905"><ele>80.0</ele><time>2026-04-26T09:13:54Z</time></trkpt><trkpt lat="41.12811181830906" lon="9.285032852145996"><ele>80.0</ele><time>2026-04-26T09:13:55Z</time></trkpt><trkpt lat="41.12793215276624" lon="9.284949329847539"><ele>80.0</ele><time>2026-04-26T09:13:56Z</time></trkpt><trkpt lat="41.12776620199721" lon="9.28487500551233"><ele>80.0</ele><time>2026-04-26T09:13:57Z</time></trkpt><trkpt lat="41.12760902528173" lon="9.284801151519382"><ele>80.0</ele><time>2026-04-26T09:13:58Z</time></trkpt><trkpt lat="41.1274611798811" lon="9.284728342284716"><ele>79.75</ele><time>2026-04-26T09:13:59Z</time></trkpt><trkpt lat="41.127333985527144" lon="9.28464673615317"><ele>79.5</ele><time>2026-04-26T09:14:00Z</time></trkpt><trkpt lat="41.12722854562204" lon="9.284533322677586"><ele>79.25</ele><time>2026-04-26T09:14:01Z</time></trkpt><trkpt lat="41.127148501404754" lon="9.284382539091567"><ele>79.0</ele><time>2026-04-26T09:14:02Z</time></trkpt><trkpt lat="41.12710156380338" lon="9.284193366898661"><ele>79.0</ele><time>2026-04-26T09:14:03Z</time></trkpt><trkpt lat="41.12704015178632" lon="9.283977883057679"><ele>79.0</ele><time>2026-04-26T09:14:04Z</time></trkpt><trkpt lat="41.12696099123384" lon="9.283735709254834"><ele>79.0</ele><time>2026-04-26T09:14:05Z</time></trkpt><trkpt lat="41.126887545045086" lon="9.28346953474942"><ele>79.5</ele><time>2026-04-26T09:14:06Z</time></trkpt><trkpt lat="41.12680796064371" lon="9.283184044395243"><ele>80.0</ele><time>2026-04-26T09:14:07Z</time></trkpt><trkpt lat="41.12672626920394" lon="9.282890391796283"><ele>80.0</ele><time>2026-04-26T09:14:08Z</time></trkpt><trkpt lat="41.126649189267745" lon="9.282621889253933"><ele>80.0</ele><time>2026-04-26T09:14:09Z</time></trkpt><trkpt lat="41.12657688512425" lon="9.282367229531799"><ele>80.0</ele><time>2026-04-26T09:14:10Z</time></trkpt><trkpt lat="41.126511805032166" lon="9.282121331538217"><ele>79.33333333333334</ele><time>2026-04-26T09:14:11Z</time></trkpt><trkpt lat="41.12646351498325" lon="9.281882793726396"><ele>78.66666666666667</ele><time>2026-04-26T09:14:12Z</time></trkpt><trkpt lat="41.12643835365063" lon="9.281646968817894"><ele>78.0</ele><time>2026-04-26T09:14:13Z</time></trkpt><trkpt lat="41.12643146870791" lon="9.28141756025924"><ele>78.0</ele><time>2026-04-26T09:14:14Z</time></trkpt><trkpt lat="41.12644325734222" lon="9.281187587066533"><ele>78.0</ele><time>2026-04-26T09:14:15Z</time></trkpt><trkpt lat="41.126475500114395" lon="9.280938170417219"><ele>78.0</ele><time>2026-04-26T09:14:16Z</time></trkpt><trkpt lat="41.126515703304264" lon="9.280665063141388"><ele>78.0</ele><time>2026-04-26T09:14:17Z</time></trkpt><trkpt lat="41.12655599203094" lon="9.28038712215793"><ele>78.0</ele><time>2026-04-26T09:14:18Z</time></trkpt><trkpt lat="41.126594914647875" lon="9.280132868223609"><ele>78.0</ele><time>2026-04-26T09:14:19Z</time></trkpt><trkpt lat="41.126634255801534" lon="9.279887184696525"><ele>76.66666666666667</ele><time>2026-04-26T09:14:20Z</time></trkpt><trkpt lat="41.12667319936664" lon="9.279652422282073"><ele>75.33333333333334</ele><time>2026-04-26T09:14:21Z</time></trkpt><trkpt lat="41.12670492695188" lon="9.279424696209102"><ele>74.0</ele><time>2026-04-26T09:14:22Z</time></trkpt><trkpt lat="41.12672631602582" lon="9.279202055096913"><ele>74.0</ele><time>2026-04-26T09:14:23Z</time></trkpt><trkpt lat="41.12673583262346" lon="9.278987409365604"><ele>74.0</ele><time>2026-04-26T09:14:24Z</time></trkpt><trkpt lat="41.12672823220794" lon="9.278777900286391"><ele>74.0</ele><time>2026-04-26T09:14:25Z</time></trkpt><trkpt lat="41.126701104332675" lon="9.278572694990613"><ele>73.33333333333334</ele><time>2026-04-26T09:14:26Z</time></trkpt><trkpt lat="41.126654099233455" lon="9.278378775944008"><ele>72.66666666666667</ele><time>2026-04-26T09:14:27Z</time></trkpt><trkpt lat="41.12658862373569" lon="9.278194276252025"><ele>72.0</ele><time>2026-04-26T09:14:28Z</time></trkpt><trkpt lat="41.126496296286355" lon="9.278003046886477"><ele>71.33333333333333</ele><time>2026-04-26T09:14:29Z</time></trkpt><trkpt lat="41.126379016519635" lon="9.277797808012814"><ele>70.66666666666666</ele><time>2026-04-26T09:14:30Z</time></trkpt><trkpt lat="41.12624232106676" lon="9.277585406731063"><ele>70.0</ele><time>2026-04-26T09:14:31Z</time></trkpt><trkpt lat="41.126090726634246" lon="9.27736566693617"><ele>70.5</ele><time>2026-04-26T09:14:32Z</time></trkpt><trkpt lat="41.12593348163888" lon="9.27713169700896"><ele>71.0</ele><time>2026-04-26T09:14:33Z</time></trkpt><trkpt lat="41.125774647246416" lon="9.27689468894885"><ele>71.0</ele><time>2026-04-26T09:14:34Z</time></trkpt><trkpt lat="41.1256225450023" lon="9.276670994351214"><ele>71.0</ele><time>2026-04-26T09:14:35Z</time></trkpt><trkpt lat="41.12547008188983" lon="9.27643958398938"><ele>70.5</ele><time>2026-04-26T09:14:36Z</time></trkpt><trkpt lat="41.125310636432545" lon="9.27619785171825"><ele>70.0</ele><time>2026-04-26T09:14:37Z</time></trkpt><trkpt lat="41.12515650597526" lon="9.275965109668508"><ele>70.0</ele><time>2026-04-26T09:14:38Z</time></trkpt><trkpt lat="41.125011671865245" lon="9.275748736115087"><ele>70.0</ele><time>2026-04-26T09:14:39Z</time></trkpt><trkpt lat="41.12487371654555" lon="9.275549791901074"><ele>70.0</ele><time>2026-04-26T09:14:40Z</time></trkpt><trkpt lat="41.1247413635929" lon="9.275346942094249"><ele>70.0</ele><time>2026-04-26T09:14:41Z</time></trkpt><trkpt lat="41.12460834178179" lon="9.275145456716404"><ele>70.0</ele><time>2026-04-26T09:14:42Z</time></trkpt><trkpt lat="41.1244748957576" lon="9.274946279599401"><ele>70.0</ele><time>2026-04-26T09:14:43Z</time></trkpt><trkpt lat="41.12434243452566" lon="9.274743718581094"><ele>70.0</ele><time>2026-04-26T09:14:44Z</time></trkpt><trkpt lat="41.12420566782297" lon="9.274542740456289"><ele>70.0</ele><time>2026-04-26T09:14:45Z</time></trkpt><trkpt lat="41.124065511330635" lon="9.27434564733848"><ele>70.0</ele><time>2026-04-26T09:14:46Z</time></trkpt><trkpt lat="41.12391647480362" lon="9.274152859504264"><ele>69.66666666666666</ele><time>2026-04-26T09:14:47Z</time></trkpt><trkpt lat="41.1237593386277" lon="9.273963595542643"><ele>69.33333333333333</ele><time>2026-04-26T09:14:48Z</time></trkpt><trkpt lat="41.12359886013812" lon="9.27377505338218"><ele>69.0</ele><time>2026-04-26T09:14:49Z</time></trkpt><trkpt lat="41.12343526601845" lon="9.273582866050553"><ele>68.5</ele><time>2026-04-26T09:14:49.999Z</time></trkpt><trkpt lat="41.123260619224844" lon="9.27337896927558"><ele>68.0</ele><time>2026-04-26T09:14:50.999Z</time></trkpt><trkpt lat="41.1230781244391" lon="9.273164179697826"><ele>67.5</ele><time>2026-04-26T09:14:51.999Z</time></trkpt><trkpt lat="41.122889753293286" lon="9.272940965539096"><ele>67.0</ele><time>2026-04-26T09:14:52.999Z</time></trkpt><trkpt lat="41.122699980469605" lon="9.272715233753615"><ele>67.0</ele><time>2026-04-26T09:14:53.999Z</time></trkpt><trkpt lat="41.122513314302104" lon="9.272496055243815"><ele>67.0</ele><time>2026-04-26T09:14:54.999Z</time></trkpt><trkpt lat="41.122335584634506" lon="9.272286689540465"><ele>66.5</ele><time>2026-04-26T09:14:55.999Z</time></trkpt><trkpt lat="41.12215714840236" lon="9.272077448732286"><ele>66.0</ele><time>2026-04-26T09:14:56.999Z</time></trkpt><trkpt lat="41.1219744951546" lon="9.27186192003935"><ele>66.0</ele><time>2026-04-26T09:14:57.999Z</time></trkpt><trkpt lat="41.12178943354323" lon="9.271642652227744"><ele>66.0</ele><time>2026-04-26T09:14:58.999Z</time></trkpt><trkpt lat="41.121600837447566" lon="9.271417937025756"><ele>65.5</ele><time>2026-04-26T09:14:59.999Z</time></trkpt><trkpt lat="41.12141256258435" lon="9.271194344313539"><ele>65.0</ele><time>2026-04-26T09:15:00.999Z</time></trkpt><trkpt lat="41.12123791387453" lon="9.270985881350516"><ele>65.0</ele><time>2026-04-26T09:15:01.999Z</time></trkpt><trkpt lat="41.121065015790016" lon="9.270780155991545"><ele>65.0</ele><time>2026-04-26T09:15:02.999Z</time></trkpt><trkpt lat="41.12089193666463" lon="9.270575571194712"><ele>64.5</ele><time>2026-04-26T09:15:03.999Z</time></trkpt><trkpt lat="41.120720889140635" lon="9.270372066333659"><ele>64.0</ele><time>2026-04-26T09:15:04.999Z</time></trkpt><trkpt lat="41.12055071987679" lon="9.270170836652365"><ele>64.0</ele><time>2026-04-26T09:15:05.999Z</time></trkpt><trkpt lat="41.120379685230745" lon="9.269966273352908"><ele>64.0</ele><time>2026-04-26T09:15:06.999Z</time></trkpt><trkpt lat="41.12021008169624" lon="9.269760638261717"><ele>64.5</ele><time>2026-04-26T09:15:07.999Z</time></trkpt><trkpt lat="41.120037353835606" lon="9.269559465205441"><ele>65.0</ele><time>2026-04-26T09:15:08.999Z</time></trkpt><trkpt lat="41.1198651191014" lon="9.269359179859086"><ele>65.0</ele><time>2026-04-26T09:15:09.999Z</time></trkpt><trkpt lat="41.1196953621256" lon="9.2691564987934"><ele>65.0</ele><time>2026-04-26T09:15:10.999Z</time></trkpt><trkpt lat="41.11953208126085" lon="9.268950424555287"><ele>65.66666666666667</ele><time>2026-04-26T09:15:11.999Z</time></trkpt><trkpt lat="41.119371136346324" lon="9.268742857393132"><ele>66.33333333333333</ele><time>2026-04-26T09:15:12.999Z</time></trkpt><trkpt lat="41.11921398824708" lon="9.268541719118145"><ele>67.0</ele><time>2026-04-26T09:15:13.999Z</time></trkpt><trkpt lat="41.1190434380052" lon="9.268334371950882"><ele>67.5</ele><time>2026-04-26T09:15:14.999Z</time></trkpt><trkpt lat="41.118860284862336" lon="9.268121446566095"><ele>68.0</ele><time>2026-04-26T09:15:15.999Z</time></trkpt><trkpt lat="41.118671439131894" lon="9.267904048010838"><ele>69.0</ele><time>2026-04-26T09:15:17Z</time></trkpt><trkpt lat="41.118477210357575" lon="9.26768060155186"><ele>70.0</ele><time>2026-04-26T09:15:18Z</time></trkpt><trkpt lat="41.118277831387296" lon="9.26745860766334"><ele>70.5</ele><time>2026-04-26T09:15:19Z</time></trkpt><trkpt lat="41.11807516744255" lon="9.267230100459466"><ele>71.0</ele><time>2026-04-26T09:15:20Z</time></trkpt><trkpt lat="41.117873735129166" lon="9.266994967174318"><ele>71.0</ele><time>2026-04-26T09:15:21Z</time></trkpt><trkpt lat="41.11768819196134" lon="9.266773835194517"><ele>71.0</ele><time>2026-04-26T09:15:22Z</time></trkpt><trkpt lat="41.11751244532062" lon="9.266565690273127"><ele>72.33333333333334</ele><time>2026-04-26T09:15:23Z</time></trkpt><trkpt lat="41.117346693483476" lon="9.266369519955147"><ele>73.66666666666667</ele><time>2026-04-26T09:15:24Z</time></trkpt><trkpt lat="41.11719262102149" lon="9.266187808191246"><ele>75.0</ele><time>2026-04-26T09:15:25Z</time></trkpt><trkpt lat="41.11704431521814" lon="9.266012154958414"><ele>75.0</ele><time>2026-04-26T09:15:26Z</time></trkpt><trkpt lat="41.11689560639447" lon="9.265836085663043"><ele>75.0</ele><time>2026-04-26T09:15:27Z</time></trkpt><trkpt lat="41.11675475796558" lon="9.265670412073128"><ele>75.0</ele><time>2026-04-26T09:15:28Z</time></trkpt><trkpt lat="41.11662456113242" lon="9.265511930718942"><ele>73.33333333333333</ele><time>2026-04-26T09:15:29Z</time></trkpt><trkpt lat="41.11650898204386" lon="9.265351560533214"><ele>71.66666666666666</ele><time>2026-04-26T09:15:30Z</time></trkpt><trkpt lat="41.116409701329545" lon="9.26518201343462"><ele>70.0</ele><time>2026-04-26T09:15:31Z</time></trkpt><trkpt lat="41.116329524668025" lon="9.264996323548516"><ele>69.0</ele><time>2026-04-26T09:15:32Z</time></trkpt><trkpt lat="41.11627174504867" lon="9.264777727432946"><ele>68.0</ele><time>2026-04-26T09:15:33Z</time></trkpt><trkpt lat="41.11619360578339" lon="9.264535832934737"><ele>67.0</ele><time>2026-04-26T09:15:34Z</time></trkpt><trkpt lat="41.116101112391824" lon="9.264286765259357"><ele>67.0</ele><time>2026-04-26T09:15:35Z</time></trkpt><trkpt lat="41.116028801545475" lon="9.264045280506275"><ele>67.0</ele><time>2026-04-26T09:15:36Z</time></trkpt><trkpt lat="41.11595992217875" lon="9.263821085523903"><ele>67.0</ele><time>2026-04-26T09:15:37Z</time></trkpt><trkpt lat="41.11589269837174" lon="9.263604579731599"><ele>66.66666666666666</ele><time>2026-04-26T09:15:38Z</time></trkpt><trkpt lat="41.11582916705752" lon="9.263394769168125"><ele>66.33333333333333</ele><time>2026-04-26T09:15:39Z</time></trkpt><trkpt lat="41.11577175069701" lon="9.263204817630356"><ele>66.0</ele><time>2026-04-26T09:15:40Z</time></trkpt><trkpt lat="41.11572343325716" lon="9.263033421106577"><ele>65.75</ele><time>2026-04-26T09:15:41Z</time></trkpt><trkpt lat="41.11567686311575" lon="9.262862371320798"><ele>65.5</ele><time>2026-04-26T09:15:42Z</time></trkpt><trkpt lat="41.115627059722655" lon="9.262697007159526"><ele>65.25</ele><time>2026-04-26T09:15:43Z</time></trkpt><trkpt lat="41.11557181111941" lon="9.262542856625405"><ele>65.0</ele><time>2026-04-26T09:15:44Z</time></trkpt><trkpt lat="41.11550440692986" lon="9.262404740196265"><ele>65.5</ele><time>2026-04-26T09:15:45Z</time></trkpt><trkpt lat="41.11543294210121" lon="9.262262899523382"><ele>66.0</ele><time>2026-04-26T09:15:46Z</time></trkpt><trkpt lat="41.11537380989845" lon="9.26214072976432"><ele>66.5</ele><time>2026-04-26T09:15:47Z</time></trkpt><trkpt lat="41.1152135316619" lon="9.262153386876449"><ele>67.0</ele><time>2026-04-26T09:15:48Z</time></trkpt><trkpt lat="41.11511250629186" lon="9.262175897140535"><ele>67.0</ele><time>2026-04-26T09:15:49Z</time></trkpt><trkpt lat="41.11500877819045" lon="9.262254616441833"><ele>67.0</ele><time>2026-04-26T09:15:50Z</time></trkpt><trkpt lat="41.11490208515322" lon="9.262386059581253"><ele>67.0</ele><time>2026-04-26T09:15:51Z</time></trkpt><trkpt lat="41.114779040746804" lon="9.262545533707964"><ele>67.0</ele><time>2026-04-26T09:15:52Z</time></trkpt><trkpt lat="41.114642443643525" lon="9.262689961467299"><ele>68.66666666666666</ele><time>2026-04-26T09:15:53Z</time></trkpt><trkpt lat="41.114506628070565" lon="9.262782414317766"><ele>70.33333333333333</ele><time>2026-04-26T09:15:54Z</time></trkpt><trkpt lat="41.114359601298474" lon="9.26282224241709"><ele>72.0</ele><time>2026-04-26T09:15:55Z</time></trkpt><trkpt lat="41.114196178430994" lon="9.262816672899124"><ele>72.0</ele><time>2026-04-26T09:15:56Z</time></trkpt><trkpt lat="41.11401551789196" lon="9.262781755722058"><ele>72.0</ele><time>2026-04-26T09:15:57Z</time></trkpt><trkpt lat="41.11381758417868" lon="9.262737381327277"><ele>72.0</ele><time>2026-04-26T09:15:58Z</time></trkpt><trkpt lat="41.11361584521211" lon="9.26269866487447"><ele>72.0</ele><time>2026-04-26T09:15:59Z</time></trkpt><trkpt lat="41.11341810808305" lon="9.262661717657526"><ele>72.0</ele><time>2026-04-26T09:16:00Z</time></trkpt><trkpt lat="41.11321088071544" lon="9.262621732219566"><ele>72.0</ele><time>2026-04-26T09:16:01Z</time></trkpt><trkpt lat="41.11300288132755" lon="9.262583416296186"><ele>71.66666666666667</ele><time>2026-04-26T09:16:02Z</time></trkpt><trkpt lat="41.112807576875824" lon="9.262548795123859"><ele>71.33333333333334</ele><time>2026-04-26T09:16:03Z</time></trkpt><trkpt lat="41.11261399028664" lon="9.262514968227238"><ele>71.0</ele><time>2026-04-26T09:16:04Z</time></trkpt><trkpt lat="41.11242046453278" lon="9.26247950373192"><ele>70.66666666666667</ele><time>2026-04-26T09:16:05Z</time></trkpt><trkpt lat="41.11222696719706" lon="9.26244424709222"><ele>70.33333333333333</ele><time>2026-04-26T09:16:06Z</time></trkpt><trkpt lat="41.11203200078514" lon="9.262411814651255"><ele>70.0</ele><time>2026-04-26T09:16:07Z</time></trkpt><trkpt lat="41.111838641084844" lon="9.262381780255943"><ele>70.0</ele><time>2026-04-26T09:16:08Z</time></trkpt><trkpt lat="41.11164678398428" lon="9.262348767161201"><ele>70.0</ele><time>2026-04-26T09:16:09Z</time></trkpt><trkpt lat="41.111458054400494" lon="9.262314508639868"><ele>70.0</ele><time>2026-04-26T09:16:10Z</time></trkpt><trkpt lat="41.111272726077466" lon="9.262282105672279"><ele>71.33333333333333</ele><time>2026-04-26T09:16:11Z</time></trkpt><trkpt lat="41.11109567482936" lon="9.26225217867802"><ele>72.66666666666667</ele><time>2026-04-26T09:16:12Z</time></trkpt><trkpt lat="41.11092818516272" lon="9.26222554294095"><ele>74.0</ele><time>2026-04-26T09:16:13Z</time></trkpt><trkpt lat="41.11076059467692" lon="9.262198770116372"><ele>74.75</ele><time>2026-04-26T09:16:14Z</time></trkpt><trkpt lat="41.11060077722806" lon="9.262171584695693"><ele>75.5</ele><time>2026-04-26T09:16:15Z</time></trkpt><trkpt lat="41.110451153518014" lon="9.262145247598735"><ele>76.25</ele><time>2026-04-26T09:16:16Z</time></trkpt><trkpt lat="41.11031603044563" lon="9.262120006270575"><ele>77.0</ele><time>2026-04-26T09:16:17Z</time></trkpt><trkpt lat="41.110197510297475" lon="9.262097823177248"><ele>77.0</ele><time>2026-04-26T09:16:18Z</time></trkpt><trkpt lat="41.110085255897495" lon="9.262070241008653"><ele>77.0</ele><time>2026-04-26T09:16:19Z</time></trkpt><trkpt lat="41.10997946868412" lon="9.262036929573435"><ele>77.0</ele><time>2026-04-26T09:16:20Z</time></trkpt><trkpt lat="41.10989183923914" lon="9.261997878342166"><ele>77.0</ele><time>2026-04-26T09:16:21Z</time></trkpt><trkpt lat="41.109802226942925" lon="9.261953580315094"><ele>77.0</ele><time>2026-04-26T09:16:22Z</time></trkpt><trkpt lat="41.1097181598292" lon="9.2619072902709"><ele>77.0</ele><time>2026-04-26T09:16:23Z</time></trkpt><trkpt lat="41.10963733724286" lon="9.261856071893277"><ele>77.0</ele><time>2026-04-26T09:16:24Z</time></trkpt><trkpt lat="41.10955788063895" lon="9.2618112259706"><ele>77.0</ele><time>2026-04-26T09:16:25Z</time></trkpt><trkpt lat="41.10948260284055" lon="9.261768080955465"><ele>77.0</ele><time>2026-04-26T09:16:26Z</time></trkpt><trkpt lat="41.10940724372702" lon="9.261723915122532"><ele>77.0</ele><time>2026-04-26T09:16:27Z</time></trkpt><trkpt lat="41.10932477027181" lon="9.261674330325521"><ele>77.0</ele><time>2026-04-26T09:16:28Z</time></trkpt><trkpt lat="41.109242953545994" lon="9.261608916673909"><ele>77.0</ele><time>2026-04-26T09:16:29Z</time></trkpt><trkpt lat="41.109164098309485" lon="9.261564395783447"><ele>77.0</ele><time>2026-04-26T09:16:30Z</time></trkpt><trkpt lat="41.109086498646185" lon="9.261514638638205"><ele>77.0</ele><time>2026-04-26T09:16:31Z</time></trkpt><trkpt lat="41.109004817945916" lon="9.261459478278937"><ele>77.0</ele><time>2026-04-26T09:16:32Z</time></trkpt><trkpt lat="41.1089194622284" lon="9.26140936639709"><ele>77.0</ele><time>2026-04-26T09:16:33Z</time></trkpt><trkpt lat="41.108833941263576" lon="9.261359838866932"><ele>76.16666666666667</ele><time>2026-04-26T09:16:34Z</time></trkpt><trkpt lat="41.108753469074344" lon="9.261317201322989"><ele>75.33333333333334</ele><time>2026-04-26T09:16:35Z</time></trkpt><trkpt lat="41.108674209713556" lon="9.261269985616744"><ele>74.5</ele><time>2026-04-26T09:16:36Z</time></trkpt><trkpt lat="41.108591193571925" lon="9.261234132655021"><ele>73.66666666666667</ele><time>2026-04-26T09:16:37Z</time></trkpt><trkpt lat="41.10850471244353" lon="9.261224395838891"><ele>72.83333333333333</ele><time>2026-04-26T09:16:38Z</time></trkpt><trkpt lat="41.10841536688283" lon="9.2612204417053"><ele>72.0</ele><time>2026-04-26T09:16:39Z</time></trkpt><trkpt lat="41.10833387077985" lon="9.26122558247334"><ele>72.0</ele><time>2026-04-26T09:16:40Z</time></trkpt><trkpt lat="41.108261887506366" lon="9.261235505991383"><ele>72.0</ele><time>2026-04-26T09:16:41Z</time></trkpt><trkpt lat="41.10818652621822" lon="9.2612511293039"><ele>72.0</ele><time>2026-04-26T09:16:42Z</time></trkpt><trkpt lat="41.10810476653924" lon="9.261266487470053"><ele>72.0</ele><time>2026-04-26T09:16:43Z</time></trkpt><trkpt lat="41.10802551661534" lon="9.261283177586373"><ele>72.0</ele><time>2026-04-26T09:16:44Z</time></trkpt><trkpt lat="41.107942794430116" lon="9.261294112161789"><ele>72.0</ele><time>2026-04-26T09:16:45Z</time></trkpt><trkpt lat="41.10786328723544" lon="9.261297233999613"><ele>71.8</ele><time>2026-04-26T09:16:46Z</time></trkpt><trkpt lat="41.1077715428177" lon="9.261285563658602"><ele>71.6</ele><time>2026-04-26T09:16:47Z</time></trkpt><trkpt lat="41.10768882052023" lon="9.261255084242949"><ele>71.39999999999999</ele><time>2026-04-26T09:16:48Z</time></trkpt><trkpt lat="41.10760518884197" lon="9.26120861323914"><ele>71.2</ele><time>2026-04-26T09:16:49Z</time></trkpt><trkpt lat="41.10752361420247" lon="9.261143460982305"><ele>71.0</ele><time>2026-04-26T09:16:50Z</time></trkpt><trkpt lat="41.10744305971192" lon="9.261071322052034"><ele>70.0</ele><time>2026-04-26T09:16:51Z</time></trkpt><trkpt lat="41.10735878814491" lon="9.260997333386856"><ele>69.0</ele><time>2026-04-26T09:16:52Z</time></trkpt><trkpt lat="41.10727445795841" lon="9.260920761764888"><ele>68.0</ele><time>2026-04-26T09:16:53Z</time></trkpt><trkpt lat="41.10718576475819" lon="9.260841837759582"><ele>67.0</ele><time>2026-04-26T09:16:54Z</time></trkpt><trkpt lat="41.10708776079108" lon="9.260752332655587"><ele>66.0</ele><time>2026-04-26T09:16:55Z</time></trkpt><trkpt lat="41.10698457874259" lon="9.260657933426359"><ele>66.25</ele><time>2026-04-26T09:16:56Z</time></trkpt><trkpt lat="41.10688048425791" lon="9.260562216220979"><ele>66.5</ele><time>2026-04-26T09:16:57Z</time></trkpt><trkpt lat="41.106779066674044" lon="9.260472345357272"><ele>66.75</ele><time>2026-04-26T09:16:58Z</time></trkpt><trkpt lat="41.10667797499236" lon="9.260380805569923"><ele>67.0</ele><time>2026-04-26T09:16:59Z</time></trkpt><trkpt lat="41.10658638676279" lon="9.260303584668794"><ele>66.6</ele><time>2026-04-26T09:17:00Z</time></trkpt><trkpt lat="41.10650609232779" lon="9.260236765113428"><ele>66.2</ele><time>2026-04-26T09:17:01Z</time></trkpt><trkpt lat="41.1064287133674" lon="9.260173783814908"><ele>65.8</ele><time>2026-04-26T09:17:02Z</time></trkpt><trkpt lat="41.10634338072756" lon="9.260106342528696"><ele>65.4</ele><time>2026-04-26T09:17:03Z</time></trkpt><trkpt lat="41.10623355533384" lon="9.260012270668492"><ele>65.0</ele><time>2026-04-26T09:17:04Z</time></trkpt><trkpt lat="41.1061012609289" lon="9.259883328588703"><ele>66.33333333333334</ele><time>2026-04-26T09:17:05Z</time></trkpt><trkpt lat="41.10595887910713" lon="9.259745100336485"><ele>67.66666666666667</ele><time>2026-04-26T09:17:06Z</time></trkpt><trkpt lat="41.105823119312575" lon="9.259621380664937"><ele>69.0</ele><time>2026-04-26T09:17:07Z</time></trkpt><trkpt lat="41.10569971006754" lon="9.259511356554892"><ele>69.0</ele><time>2026-04-26T09:17:08Z</time></trkpt><trkpt lat="41.10558286934673" lon="9.259407891726582"><ele>69.0</ele><time>2026-04-26T09:17:09Z</time></trkpt><trkpt lat="41.10547333909579" lon="9.259308956707992"><ele>69.0</ele><time>2026-04-26T09:17:09.999Z</time></trkpt><trkpt lat="41.10536094819307" lon="9.259212637635686"><ele>69.0</ele><time>2026-04-26T09:17:10.999Z</time></trkpt><trkpt lat="41.10524670799974" lon="9.259111445081244"><ele>69.0</ele><time>2026-04-26T09:17:11.999Z</time></trkpt><trkpt lat="41.10512779342424" lon="9.259009253652406"><ele>69.0</ele><time>2026-04-26T09:17:12.999Z</time></trkpt><trkpt lat="41.1050099481165" lon="9.258910469819533"><ele>69.0</ele><time>2026-04-26T09:17:13.999Z</time></trkpt><trkpt lat="41.104898913414786" lon="9.258808712947324"><ele>69.0</ele><time>2026-04-26T09:17:14.999Z</time></trkpt><trkpt lat="41.10479685595196" lon="9.258717843258001"><ele>69.5</ele><time>2026-04-26T09:17:15.999Z</time></trkpt><trkpt lat="41.10469245096086" lon="9.258629422057094"><ele>70.0</ele><time>2026-04-26T09:17:16.999Z</time></trkpt><trkpt lat="41.10458284730229" lon="9.258535574906047"><ele>70.5</ele><time>2026-04-26T09:17:17.999Z</time></trkpt><trkpt lat="41.10447374389733" lon="9.258437731896615"><ele>71.0</ele><time>2026-04-26T09:17:18.999Z</time></trkpt><trkpt lat="41.10437304185104" lon="9.258346932363525"><ele>71.0</ele><time>2026-04-26T09:17:19.999Z</time></trkpt><trkpt lat="41.10426630559055" lon="9.258256458007008"><ele>71.0</ele><time>2026-04-26T09:17:20.999Z</time></trkpt><trkpt lat="41.10415311646821" lon="9.25816939830307"><ele>71.0</ele><time>2026-04-26T09:17:21.999Z</time></trkpt><trkpt lat="41.1040240542572" lon="9.258093492416437"><ele>71.0</ele><time>2026-04-26T09:17:23Z</time></trkpt><trkpt lat="41.10387668108693" lon="9.258017142210736"><ele>71.0</ele><time>2026-04-26T09:17:24Z</time></trkpt><trkpt lat="41.103714486894454" lon="9.25793160521719"><ele>71.0</ele><time>2026-04-26T09:17:25Z</time></trkpt><trkpt lat="41.103528582823365" lon="9.257841882605835"><ele>71.0</ele><time>2026-04-26T09:17:26Z</time></trkpt><trkpt lat="41.10333600849886" lon="9.25774346525905"><ele>70.5</ele><time>2026-04-26T09:17:27Z</time></trkpt><trkpt lat="41.10312713569901" lon="9.25762142034078"><ele>70.0</ele><time>2026-04-26T09:17:28Z</time></trkpt><trkpt lat="41.10291330340971" lon="9.257493949593615"><ele>70.0</ele><time>2026-04-26T09:17:29Z</time></trkpt><trkpt lat="41.10268652912246" lon="9.257361391248354"><ele>70.0</ele><time>2026-04-26T09:17:30Z</time></trkpt><trkpt lat="41.10246079032231" lon="9.257230088353431"><ele>72.0</ele><time>2026-04-26T09:17:31Z</time></trkpt><trkpt lat="41.102243693435874" lon="9.257110251627436"><ele>74.0</ele><time>2026-04-26T09:17:32Z</time></trkpt><trkpt lat="41.10203164153284" lon="9.256996188361464"><ele>74.0</ele><time>2026-04-26T09:17:33Z</time></trkpt><trkpt lat="41.1018078770092" lon="9.256884764135712"><ele>74.0</ele><time>2026-04-26T09:17:34Z</time></trkpt><trkpt lat="41.1015779459481" lon="9.256768539070578"><ele>72.0</ele><time>2026-04-26T09:17:35Z</time></trkpt><trkpt lat="41.1013371812365" lon="9.256633203666093"><ele>70.0</ele><time>2026-04-26T09:17:36Z</time></trkpt><trkpt lat="41.10109879707577" lon="9.256484689489714"><ele>71.5</ele><time>2026-04-26T09:17:37Z</time></trkpt><trkpt lat="41.10086866610881" lon="9.256335874239884"><ele>73.0</ele><time>2026-04-26T09:17:38Z</time></trkpt><trkpt lat="41.100656847400145" lon="9.256195801568428"><ele>73.0</ele><time>2026-04-26T09:17:39Z</time></trkpt><trkpt lat="41.10046051879438" lon="9.256067207153443"><ele>73.0</ele><time>2026-04-26T09:17:40Z</time></trkpt><trkpt lat="41.100275201545216" lon="9.255952773052599"><ele>73.0</ele><time>2026-04-26T09:17:41Z</time></trkpt><trkpt lat="41.10010267780883" lon="9.255843611082065"><ele>73.0</ele><time>2026-04-26T09:17:42Z</time></trkpt><trkpt lat="41.09995395236274" lon="9.255741469191637"><ele>73.0</ele><time>2026-04-26T09:17:43Z</time></trkpt><trkpt lat="41.099821038866594" lon="9.255628279340863"><ele>73.0</ele><time>2026-04-26T09:17:44Z</time></trkpt><trkpt lat="41.099712382236966" lon="9.25548871717316"><ele>72.66666666666666</ele><time>2026-04-26T09:17:45Z</time></trkpt><trkpt lat="41.09963110686738" lon="9.255323258989474"><ele>72.33333333333333</ele><time>2026-04-26T09:17:46Z</time></trkpt><trkpt lat="41.099573943951924" lon="9.255126990371245"><ele>72.0</ele><time>2026-04-26T09:17:47Z</time></trkpt><trkpt lat="41.09952467548988" lon="9.254900614717867"><ele>72.66666666666667</ele><time>2026-04-26T09:17:48Z</time></trkpt><trkpt lat="41.09947505281633" lon="9.254647023689085"><ele>73.33333333333334</ele><time>2026-04-26T09:17:49Z</time></trkpt><trkpt lat="41.09943055119626" lon="9.254408044002197"><ele>74.0</ele><time>2026-04-26T09:17:50Z</time></trkpt><trkpt lat="41.099385903237035" lon="9.25419243450037"><ele>74.0</ele><time>2026-04-26T09:17:51Z</time></trkpt><trkpt lat="41.09933740297907" lon="9.253994374799726"><ele>74.0</ele><time>2026-04-26T09:17:52Z</time></trkpt><trkpt lat="41.09927535996056" lon="9.253820239057056"><ele>74.0</ele><time>2026-04-26T09:17:53Z</time></trkpt><trkpt lat="41.09917873418767" lon="9.253679776853676"><ele>74.0</ele><time>2026-04-26T09:17:54Z</time></trkpt><trkpt lat="41.099059805354216" lon="9.253570936430267"><ele>76.0</ele><time>2026-04-26T09:17:55Z</time></trkpt><trkpt lat="41.09891844833025" lon="9.253500020679905"><ele>78.0</ele><time>2026-04-26T09:17:56Z</time></trkpt><trkpt lat="41.098744642428386" lon="9.253461877756255"><ele>80.0</ele><time>2026-04-26T09:17:57Z</time></trkpt><trkpt lat="41.098561600334406" lon="9.253440598881356"><ele>80.0</ele><time>2026-04-26T09:17:58Z</time></trkpt><trkpt lat="41.09840009821027" lon="9.253388022644582"><ele>80.0</ele><time>2026-04-26T09:17:59Z</time></trkpt><trkpt lat="41.0982591172733" lon="9.253288987933175"><ele>80.0</ele><time>2026-04-26T09:18:00Z</time></trkpt><trkpt lat="41.09814403737354" lon="9.253152911799056"><ele>79.33333333333334</ele><time>2026-04-26T09:18:01Z</time></trkpt><trkpt lat="41.0980522440425" lon="9.252981646744772"><ele>78.66666666666667</ele><time>2026-04-26T09:18:02Z</time></trkpt><trkpt lat="41.097971413546745" lon="9.252777684340199"><ele>78.0</ele><time>2026-04-26T09:18:03Z</time></trkpt><trkpt lat="41.097889765166116" lon="9.252533216970784"><ele>78.66666666666667</ele><time>2026-04-26T09:18:04Z</time></trkpt><trkpt lat="41.09779697784632" lon="9.252277160549255"><ele>79.33333333333334</ele><time>2026-04-26T09:18:05Z</time></trkpt><trkpt lat="41.09769798490571" lon="9.252008254511583"><ele>80.0</ele><time>2026-04-26T09:18:06Z</time></trkpt><trkpt lat="41.09759037896948" lon="9.251729875473085"><ele>80.0</ele><time>2026-04-26T09:18:07Z</time></trkpt><trkpt lat="41.09747534536632" lon="9.251440052363975"><ele>80.0</ele><time>2026-04-26T09:18:08Z</time></trkpt><trkpt lat="41.0973551088189" lon="9.251139246049858"><ele>79.0</ele><time>2026-04-26T09:18:09Z</time></trkpt><trkpt lat="41.09723410911418" lon="9.25082905837109"><ele>78.0</ele><time>2026-04-26T09:18:10Z</time></trkpt><trkpt lat="41.09711013934125" lon="9.250511010489054"><ele>78.0</ele><time>2026-04-26T09:18:11Z</time></trkpt><trkpt lat="41.0969860685353" lon="9.250190276958088"><ele>78.0</ele><time>2026-04-26T09:18:12Z</time></trkpt><trkpt lat="41.09686905048453" lon="9.249890785760005"><ele>79.5</ele><time>2026-04-26T09:18:13Z</time></trkpt><trkpt lat="41.09675499666289" lon="9.249603825311018"><ele>81.0</ele><time>2026-04-26T09:18:14Z</time></trkpt><trkpt lat="41.096636716983475" lon="9.249298136203555"><ele>80.0</ele><time>2026-04-26T09:18:15Z</time></trkpt><trkpt lat="41.09651732114975" lon="9.24897851946062"><ele>79.0</ele><time>2026-04-26T09:18:16Z</time></trkpt><trkpt lat="41.09640572602986" lon="9.248645702000172"><ele>79.0</ele><time>2026-04-26T09:18:17Z</time></trkpt><trkpt lat="41.09629817996063" lon="9.248301698113599"><ele>79.0</ele><time>2026-04-26T09:18:18Z</time></trkpt><trkpt lat="41.096191716224446" lon="9.247955610870878"><ele>79.0</ele><time>2026-04-26T09:18:19Z</time></trkpt><trkpt lat="41.096080000152746" lon="9.247601207511085"><ele>79.0</ele><time>2026-04-26T09:18:20Z</time></trkpt><trkpt lat="41.09596446419837" lon="9.247244341140174"><ele>79.5</ele><time>2026-04-26T09:18:21Z</time></trkpt><trkpt lat="41.09585056874219" lon="9.246886471076273"><ele>80.0</ele><time>2026-04-26T09:18:22Z</time></trkpt><trkpt lat="41.09573609516246" lon="9.246526056709024"><ele>79.5</ele><time>2026-04-26T09:18:23Z</time></trkpt><trkpt lat="41.09562177521859" lon="9.246165363611055"><ele>79.0</ele><time>2026-04-26T09:18:24Z</time></trkpt><trkpt lat="41.095504228226424" lon="9.245804732865071"><ele>80.5</ele><time>2026-04-26T09:18:25Z</time></trkpt><trkpt lat="41.09539047565801" lon="9.245443787622806"><ele>82.0</ele><time>2026-04-26T09:18:26Z</time></trkpt><trkpt lat="41.0952765416901" lon="9.24508559909498"><ele>82.0</ele><time>2026-04-26T09:18:27Z</time></trkpt><trkpt lat="41.09516278191087" lon="9.244733949957075"><ele>82.0</ele><time>2026-04-26T09:18:28Z</time></trkpt><trkpt lat="41.09505662363807" lon="9.244400068993906"><ele>82.0</ele><time>2026-04-26T09:18:29Z</time></trkpt><trkpt lat="41.094951232520195" lon="9.244067108858484"><ele>82.0</ele><time>2026-04-26T09:18:30Z</time></trkpt><trkpt lat="41.094843497785185" lon="9.243725377269215"><ele>83.0</ele><time>2026-04-26T09:18:31Z</time></trkpt><trkpt lat="41.09474129645625" lon="9.243397918595198"><ele>84.0</ele><time>2026-04-26T09:18:32Z</time></trkpt><trkpt lat="41.094647066754185" lon="9.243095126861334"><ele>84.33333333333333</ele><time>2026-04-26T09:18:33Z</time></trkpt><trkpt lat="41.094560836345586" lon="9.242814247005292"><ele>84.66666666666666</ele><time>2026-04-26T09:18:34Z</time></trkpt><trkpt lat="41.0944752089602" lon="9.242550836517943"><ele>85.0</ele><time>2026-04-26T09:18:35Z</time></trkpt><trkpt lat="41.094395386093936" lon="9.242302672897901"><ele>85.33333333333333</ele><time>2026-04-26T09:18:36Z</time></trkpt><trkpt lat="41.094317458171986" lon="9.24206185266102"><ele>85.66666666666667</ele><time>2026-04-26T09:18:37Z</time></trkpt><trkpt lat="41.09424380816886" lon="9.241832116249"><ele>86.0</ele><time>2026-04-26T09:18:38Z</time></trkpt><trkpt lat="41.09417678506075" lon="9.241615516221987"><ele>86.33333333333334</ele><time>2026-04-26T09:18:39Z</time></trkpt><trkpt lat="41.09411493025089" lon="9.241404015235718"><ele>86.66666666666667</ele><time>2026-04-26T09:18:40Z</time></trkpt><trkpt lat="41.0940658821578" lon="9.241189982811877"><ele>87.0</ele><time>2026-04-26T09:18:41Z</time></trkpt><trkpt lat="41.09403610020509" lon="9.240959577485787"><ele>85.66666666666667</ele><time>2026-04-26T09:18:42Z</time></trkpt><trkpt lat="41.0940293161187" lon="9.240706188668243"><ele>84.33333333333334</ele><time>2026-04-26T09:18:43Z</time></trkpt><trkpt lat="41.094020713192364" lon="9.240437717008213"><ele>83.0</ele><time>2026-04-26T09:18:44Z</time></trkpt><trkpt lat="41.0940149537009" lon="9.240184666090055"><ele>83.0</ele><time>2026-04-26T09:18:45Z</time></trkpt><trkpt lat="41.094008261723594" lon="9.239952770865543"><ele>83.0</ele><time>2026-04-26T09:18:46Z</time></trkpt><trkpt lat="41.09399955371282" lon="9.239748551092159"><ele>83.0</ele><time>2026-04-26T09:18:47Z</time></trkpt><trkpt lat="41.09397578872497" lon="9.239575877571417"><ele>83.5</ele><time>2026-04-26T09:18:48Z</time></trkpt><trkpt lat="41.09391635870538" lon="9.239414436043731"><ele>84.0</ele><time>2026-04-26T09:18:49Z</time></trkpt><trkpt lat="41.0938234151801" lon="9.239279709184835"><ele>84.5</ele><time>2026-04-26T09:18:50Z</time></trkpt><trkpt lat="41.09369938239107" lon="9.23917824489735"><ele>85.0</ele><time>2026-04-26T09:18:51Z</time></trkpt><trkpt lat="41.09354868479378" lon="9.239101946023888"><ele>85.0</ele><time>2026-04-26T09:18:52Z</time></trkpt><trkpt lat="41.09338348086679" lon="9.239043116945595"><ele>85.0</ele><time>2026-04-26T09:18:53Z</time></trkpt><trkpt lat="41.09324318400732" lon="9.238970046560999"><ele>85.0</ele><time>2026-04-26T09:18:54Z</time></trkpt><trkpt lat="41.093135166844874" lon="9.238848975827363"><ele>84.66666666666666</ele><time>2026-04-26T09:18:55Z</time></trkpt><trkpt lat="41.09304508760444" lon="9.238677985249831"><ele>84.33333333333333</ele><time>2026-04-26T09:18:56Z</time></trkpt><trkpt lat="41.0929596954878" lon="9.238462994195789"><ele>84.0</ele><time>2026-04-26T09:18:57Z</time></trkpt><trkpt lat="41.092866469224404" lon="9.238218686933118"><ele>86.0</ele><time>2026-04-26T09:18:58Z</time></trkpt><trkpt lat="41.09275633170963" lon="9.237967105591885"><ele>88.0</ele><time>2026-04-26T09:18:59Z</time></trkpt><trkpt lat="41.09262710332637" lon="9.237713038736251"><ele>88.0</ele><time>2026-04-26T09:19:00Z</time></trkpt><trkpt lat="41.09247872830826" lon="9.2374575154743"><ele>88.0</ele><time>2026-04-26T09:19:00.999Z</time></trkpt><trkpt lat="41.092326150015616" lon="9.237192121691614"><ele>87.5</ele><time>2026-04-26T09:19:01.999Z</time></trkpt><trkpt lat="41.09217483178188" lon="9.236926969766428"><ele>87.0</ele><time>2026-04-26T09:19:02.999Z</time></trkpt><trkpt lat="41.092034063433765" lon="9.236684693784248"><ele>87.66666666666667</ele><time>2026-04-26T09:19:03.999Z</time></trkpt><trkpt lat="41.091899695040894" lon="9.23646353381579"><ele>88.33333333333334</ele><time>2026-04-26T09:19:04.999Z</time></trkpt><trkpt lat="41.09175545346507" lon="9.236257787742371"><ele>89.0</ele><time>2026-04-26T09:19:05.999Z</time></trkpt><trkpt lat="41.091608200497774" lon="9.236069211361576"><ele>88.33333333333334</ele><time>2026-04-26T09:19:06.999Z</time></trkpt><trkpt lat="41.09145210693683" lon="9.23587937571959"><ele>87.66666666666667</ele><time>2026-04-26T09:19:07.999Z</time></trkpt><trkpt lat="41.09128086680954" lon="9.235672804916868"><ele>87.0</ele><time>2026-04-26T09:19:08.999Z</time></trkpt><trkpt lat="41.091096390307094" lon="9.235454439484405"><ele>87.0</ele><time>2026-04-26T09:19:09.999Z</time></trkpt><trkpt lat="41.090924912739915" lon="9.235250314900231"><ele>87.0</ele><time>2026-04-26T09:19:10.999Z</time></trkpt><trkpt lat="41.090766838155176" lon="9.235061983290278"><ele>87.0</ele><time>2026-04-26T09:19:11.999Z</time></trkpt><trkpt lat="41.090618204055666" lon="9.23487766777325"><ele>87.0</ele><time>2026-04-26T09:19:12.999Z</time></trkpt><trkpt lat="41.090479741685094" lon="9.234686100496257"><ele>87.0</ele><time>2026-04-26T09:19:13.999Z</time></trkpt><trkpt lat="41.090347451688636" lon="9.23447132205305"><ele>87.0</ele><time>2026-04-26T09:19:14.999Z</time></trkpt><trkpt lat="41.09021296725741" lon="9.234233409917378"><ele>87.0</ele><time>2026-04-26T09:19:15.999Z</time></trkpt><trkpt lat="41.090068751780095" lon="9.233978213143834"><ele>87.0</ele><time>2026-04-26T09:19:16.999Z</time></trkpt><trkpt lat="41.089920679160635" lon="9.233717271982435"><ele>86.66666666666667</ele><time>2026-04-26T09:19:17.999Z</time></trkpt><trkpt lat="41.0897831731995" lon="9.233472808989866"><ele>86.33333333333334</ele><time>2026-04-26T09:19:18.999Z</time></trkpt><trkpt lat="41.089658502312446" lon="9.233251595463564"><ele>86.0</ele><time>2026-04-26T09:19:19.999Z</time></trkpt><trkpt lat="41.08954723438038" lon="9.233056537507268"><ele>87.33333333333334</ele><time>2026-04-26T09:19:20.999Z</time></trkpt><trkpt lat="41.089429884703115" lon="9.232885505128976"><ele>88.66666666666667</ele><time>2026-04-26T09:19:21.999Z</time></trkpt><trkpt lat="41.08928133559393" lon="9.232731057140937"><ele>90.0</ele><time>2026-04-26T09:19:22.999Z</time></trkpt><trkpt lat="41.089103754495845" lon="9.23258387161666"><ele>90.0</ele><time>2026-04-26T09:19:23.999Z</time></trkpt><trkpt lat="41.08892222027168" lon="9.232413624715516"><ele>90.0</ele><time>2026-04-26T09:19:24.999Z</time></trkpt><trkpt lat="41.08874990579517" lon="9.232204456717392"><ele>90.5</ele><time>2026-04-26T09:19:25.999Z</time></trkpt><trkpt lat="41.08857593580798" lon="9.231979161726725"><ele>91.0</ele><time>2026-04-26T09:19:26.999Z</time></trkpt><trkpt lat="41.0883939780114" lon="9.231749366298287"><ele>90.5</ele><time>2026-04-26T09:19:27.999Z</time></trkpt><trkpt lat="41.08820535796067" lon="9.231510649647104"><ele>90.0</ele><time>2026-04-26T09:19:29Z</time></trkpt><trkpt lat="41.088014503411245" lon="9.231266106808983"><ele>91.0</ele><time>2026-04-26T09:19:30Z</time></trkpt><trkpt lat="41.08782259662342" lon="9.231030333191827"><ele>92.0</ele><time>2026-04-26T09:19:31Z</time></trkpt><trkpt lat="41.0876469574062" lon="9.230812945113108"><ele>92.33333333333334</ele><time>2026-04-26T09:19:32Z</time></trkpt><trkpt lat="41.08748414844943" lon="9.230606272408378"><ele>92.66666666666667</ele><time>2026-04-26T09:19:33Z</time></trkpt><trkpt lat="41.08732845753954" lon="9.230411727040433"><ele>93.0</ele><time>2026-04-26T09:19:34Z</time></trkpt><trkpt lat="41.08717924952204" lon="9.230228887354137"><ele>92.66666666666667</ele><time>2026-04-26T09:19:35Z</time></trkpt><trkpt lat="41.08703777810046" lon="9.230055441150936"><ele>92.33333333333334</ele><time>2026-04-26T09:19:36Z</time></trkpt><trkpt lat="41.08690817080803" lon="9.229883052768981"><ele>92.0</ele><time>2026-04-26T09:19:37Z</time></trkpt><trkpt lat="41.08679830482055" lon="9.2296967340433"><ele>92.0</ele><time>2026-04-26T09:19:38Z</time></trkpt><trkpt lat="41.08670817800044" lon="9.229465467436286"><ele>92.0</ele><time>2026-04-26T09:19:39Z</time></trkpt><trkpt lat="41.08663055405964" lon="9.229188224181708"><ele>92.0</ele><time>2026-04-26T09:19:40Z</time></trkpt><trkpt lat="41.08656663804608" lon="9.228917884363984"><ele>92.33333333333334</ele><time>2026-04-26T09:19:41Z</time></trkpt><trkpt lat="41.08649010467588" lon="9.228673981222327"><ele>92.66666666666667</ele><time>2026-04-26T09:19:42Z</time></trkpt><trkpt lat="41.08638624159288" lon="9.228447153596806"><ele>93.0</ele><time>2026-04-26T09:19:43Z</time></trkpt><trkpt lat="41.086252235478" lon="9.228223635535583"><ele>93.0</ele><time>2026-04-26T09:19:44Z</time></trkpt><trkpt lat="41.086096815168546" lon="9.227987739790358"><ele>93.0</ele><time>2026-04-26T09:19:45Z</time></trkpt><trkpt lat="41.08591631255833" lon="9.227764105341775"><ele>93.5</ele><time>2026-04-26T09:19:46Z</time></trkpt><trkpt lat="41.08573352405101" lon="9.227527489312402"><ele>94.0</ele><time>2026-04-26T09:19:47Z</time></trkpt><trkpt lat="41.08555534203069" lon="9.227273056116102"><ele>94.0</ele><time>2026-04-26T09:19:48Z</time></trkpt><trkpt lat="41.085369177744184" lon="9.227024558147646"><ele>94.0</ele><time>2026-04-26T09:19:49Z</time></trkpt><trkpt lat="41.08519902675252" lon="9.226784794153861"><ele>94.0</ele><time>2026-04-26T09:19:50Z</time></trkpt><trkpt lat="41.08504424127693" lon="9.226563895763823"><ele>94.0</ele><time>2026-04-26T09:19:51Z</time></trkpt><trkpt lat="41.084892140933945" lon="9.226343523939658"><ele>93.5</ele><time>2026-04-26T09:19:52Z</time></trkpt><trkpt lat="41.084755986317795" lon="9.226118484808518"><ele>93.0</ele><time>2026-04-26T09:19:53Z</time></trkpt><trkpt lat="41.08458595847177" lon="9.22590529980278"><ele>93.0</ele><time>2026-04-26T09:19:54Z</time></trkpt><trkpt lat="41.084414258253624" lon="9.225665787173353"><ele>93.0</ele><time>2026-04-26T09:19:55Z</time></trkpt><trkpt lat="41.08423469769209" lon="9.225415776897117"><ele>94.0</ele><time>2026-04-26T09:19:56Z</time></trkpt><trkpt lat="41.084055016227715" lon="9.225157581303824"><ele>95.0</ele><time>2026-04-26T09:19:57Z</time></trkpt><trkpt lat="41.08386814730404" lon="9.224892894008406"><ele>95.5</ele><time>2026-04-26T09:19:58Z</time></trkpt><trkpt lat="41.083679821335664" lon="9.224628526338941"><ele>96.0</ele><time>2026-04-26T09:19:59Z</time></trkpt><trkpt lat="41.08350260751985" lon="9.224372011703776"><ele>96.0</ele><time>2026-04-26T09:20:00Z</time></trkpt><trkpt lat="41.08332527699053" lon="9.224131239333609"><ele>96.0</ele><time>2026-04-26T09:20:01Z</time></trkpt><trkpt lat="41.08315817920868" lon="9.223897194478754"><ele>97.5</ele><time>2026-04-26T09:20:02Z</time></trkpt><trkpt lat="41.0829956248311" lon="9.223661683839682"><ele>99.0</ele><time>2026-04-26T09:20:03Z</time></trkpt><trkpt lat="41.08284087305941" lon="9.22344669039278"><ele>99.0</ele><time>2026-04-26T09:20:04Z</time></trkpt><trkpt lat="41.08269272854671" lon="9.223225593815597"><ele>99.0</ele><time>2026-04-26T09:20:05Z</time></trkpt><trkpt lat="41.08254658614289" lon="9.223010215479661"><ele>99.0</ele><time>2026-04-26T09:20:06Z</time></trkpt><trkpt lat="41.08240737252009" lon="9.222802473862625"><ele>98.66666666666666</ele><time>2026-04-26T09:20:07Z</time></trkpt><trkpt lat="41.08227299777615" lon="9.222588138119852"><ele>98.33333333333333</ele><time>2026-04-26T09:20:08Z</time></trkpt><trkpt lat="41.08213519197534" lon="9.222365314666531"><ele>98.0</ele><time>2026-04-26T09:20:09Z</time></trkpt><trkpt lat="41.08197583501721" lon="9.222140456770765"><ele>98.0</ele><time>2026-04-26T09:20:10Z</time></trkpt><trkpt lat="41.081798576211135" lon="9.221916649650096"><ele>98.0</ele><time>2026-04-26T09:20:11Z</time></trkpt><trkpt lat="41.08161491048144" lon="9.221695269945021"><ele>98.0</ele><time>2026-04-26T09:20:12Z</time></trkpt><trkpt lat="41.081432171070254" lon="9.221473330559974"><ele>98.0</ele><time>2026-04-26T09:20:13Z</time></trkpt><trkpt lat="41.0812513952583" lon="9.221246411265586"><ele>98.0</ele><time>2026-04-26T09:20:14Z</time></trkpt><trkpt lat="41.08108249939127" lon="9.221041549362619"><ele>98.0</ele><time>2026-04-26T09:20:15Z</time></trkpt><trkpt lat="41.08091798923736" lon="9.220840004604085"><ele>98.0</ele><time>2026-04-26T09:20:16Z</time></trkpt><trkpt lat="41.08075865899976" lon="9.22061854278395"><ele>98.0</ele><time>2026-04-26T09:20:17Z</time></trkpt><trkpt lat="41.08057709277505" lon="9.220415433818449"><ele>98.0</ele><time>2026-04-26T09:20:18Z</time></trkpt><trkpt lat="41.08040597562046" lon="9.220205117312101"><ele>98.0</ele><time>2026-04-26T09:20:19Z</time></trkpt><trkpt lat="41.080255884406306" lon="9.219975810716484"><ele>98.33333333333333</ele><time>2026-04-26T09:20:20Z</time></trkpt><trkpt lat="41.080098890083505" lon="9.219764776906326"><ele>98.66666666666666</ele><time>2026-04-26T09:20:21Z</time></trkpt><trkpt lat="41.07994930548522" lon="9.219589314110614"><ele>99.0</ele><time>2026-04-26T09:20:22Z</time></trkpt><trkpt lat="41.07981949044817" lon="9.219404702149339"><ele>99.0</ele><time>2026-04-26T09:20:23Z</time></trkpt><trkpt lat="41.079703564692906" lon="9.219223369554882"><ele>99.0</ele><time>2026-04-26T09:20:24Z</time></trkpt><trkpt lat="41.079609821107766" lon="9.219040484353366"><ele>99.0</ele><time>2026-04-26T09:20:25Z</time></trkpt><trkpt lat="41.07953681702844" lon="9.218849531746793"><ele>99.0</ele><time>2026-04-26T09:20:26Z</time></trkpt><trkpt lat="41.07949159688917" lon="9.218654603830055"><ele>99.0</ele><time>2026-04-26T09:20:27Z</time></trkpt><trkpt lat="41.07947742705727" lon="9.218445976129459"><ele>99.0</ele><time>2026-04-26T09:20:28Z</time></trkpt><trkpt lat="41.07947798011717" lon="9.21822214089257"><ele>100.66666666666666</ele><time>2026-04-26T09:20:29Z</time></trkpt><trkpt lat="41.07947598774323" lon="9.21798666713809"><ele>102.33333333333333</ele><time>2026-04-26T09:20:30Z</time></trkpt><trkpt lat="41.07943118395067" lon="9.217739852833686"><ele>104.0</ele><time>2026-04-26T09:20:31Z</time></trkpt><trkpt lat="41.07937663162882" lon="9.217491201007759"><ele>103.66666666666666</ele><time>2026-04-26T09:20:32Z</time></trkpt><trkpt lat="41.07929635545742" lon="9.217260666657351"><ele>103.33333333333334</ele><time>2026-04-26T09:20:33Z</time></trkpt><trkpt lat="41.079201754426414" lon="9.217060510473576"><ele>103.0</ele><time>2026-04-26T09:20:34Z</time></trkpt><trkpt lat="41.079084192728374" lon="9.216909739982171"><ele>103.0</ele><time>2026-04-26T09:20:35Z</time></trkpt><trkpt lat="41.078942748178925" lon="9.216753142352562"><ele>103.0</ele><time>2026-04-26T09:20:36Z</time></trkpt><trkpt lat="41.07878645673913" lon="9.21658763748127"><ele>103.0</ele><time>2026-04-26T09:20:37Z</time></trkpt><trkpt lat="41.07864367104829" lon="9.216433944687662"><ele>104.0</ele><time>2026-04-26T09:20:38Z</time></trkpt><trkpt lat="41.07849771784767" lon="9.216318326735795"><ele>105.0</ele><time>2026-04-26T09:20:39Z</time></trkpt><trkpt lat="41.07831864303284" lon="9.216249132084116"><ele>106.0</ele><time>2026-04-26T09:20:40Z</time></trkpt><trkpt lat="41.078132082064435" lon="9.216193097246954"><ele>106.0</ele><time>2026-04-26T09:20:41Z</time></trkpt><trkpt lat="41.077978570681466" lon="9.21608357223291"><ele>106.0</ele><time>2026-04-26T09:20:42Z</time></trkpt><trkpt lat="41.07784371374459" lon="9.215942278833582"><ele>106.0</ele><time>2026-04-26T09:20:43Z</time></trkpt><trkpt lat="41.07769688620656" lon="9.215765919327122"><ele>106.33333333333334</ele><time>2026-04-26T09:20:44Z</time></trkpt><trkpt lat="41.07755235438252" lon="9.215568715912736"><ele>106.66666666666666</ele><time>2026-04-26T09:20:45Z</time></trkpt><trkpt lat="41.07740769181211" lon="9.215398703042501"><ele>107.0</ele><time>2026-04-26T09:20:46Z</time></trkpt><trkpt lat="41.077293390770016" lon="9.215243819368444"><ele>107.0</ele><time>2026-04-26T09:20:47Z</time></trkpt><trkpt lat="41.07717911290818" lon="9.215131388612177"><ele>107.0</ele><time>2026-04-26T09:20:48Z</time></trkpt><trkpt lat="41.07705319060817" lon="9.215076802552119"><ele>107.0</ele><time>2026-04-26T09:20:49Z</time></trkpt><trkpt lat="41.076915693586834" lon="9.215082143996238"><ele>107.0</ele><time>2026-04-26T09:20:50Z</time></trkpt><trkpt lat="41.07676563321123" lon="9.215140763284678"><ele>107.0</ele><time>2026-04-26T09:20:51Z</time></trkpt><trkpt lat="41.07661317033643" lon="9.215221130331665"><ele>107.0</ele><time>2026-04-26T09:20:52Z</time></trkpt><trkpt lat="41.07646748680656" lon="9.215229226435767"><ele>107.0</ele><time>2026-04-26T09:20:53Z</time></trkpt><trkpt lat="41.07631892009849" lon="9.21520210133482"><ele>107.0</ele><time>2026-04-26T09:20:54Z</time></trkpt><trkpt lat="41.07618049605041" lon="9.215144957484327"><ele>107.0</ele><time>2026-04-26T09:20:55Z</time></trkpt><trkpt lat="41.07610150110168" lon="9.214980496915773"><ele>107.0</ele><time>2026-04-26T09:20:56Z</time></trkpt><trkpt lat="41.07605784348358" lon="9.214835422478043"><ele>107.0</ele><time>2026-04-26T09:20:57Z</time></trkpt><trkpt lat="41.07601249617254" lon="9.214666637835151"><ele>107.0</ele><time>2026-04-26T09:20:58Z</time></trkpt><trkpt lat="41.075967748218304" lon="9.214452254422069"><ele>107.0</ele><time>2026-04-26T09:20:59Z</time></trkpt><trkpt lat="41.075929082247114" lon="9.214203575538036"><ele>107.0</ele><time>2026-04-26T09:21:00Z</time></trkpt><trkpt lat="41.0758929727957" lon="9.213942091624892"><ele>108.0</ele><time>2026-04-26T09:21:01Z</time></trkpt><trkpt lat="41.0758643362153" lon="9.213707856735535"><ele>109.0</ele><time>2026-04-26T09:21:02Z</time></trkpt><trkpt lat="41.075818323745274" lon="9.213490777854924"><ele>110.0</ele><time>2026-04-26T09:21:03Z</time></trkpt><trkpt lat="41.07578441431214" lon="9.21329247628576"><ele>110.5</ele><time>2026-04-26T09:21:04Z</time></trkpt><trkpt lat="41.07571893781182" lon="9.213124639443064"><ele>111.0</ele><time>2026-04-26T09:21:05Z</time></trkpt><trkpt lat="41.07561308986507" lon="9.212996766615152"><ele>111.5</ele><time>2026-04-26T09:21:06Z</time></trkpt><trkpt lat="41.075465902347474" lon="9.21291474417812"><ele>112.0</ele><time>2026-04-26T09:21:06.999Z</time></trkpt><trkpt lat="41.075291655833176" lon="9.212832590787112"><ele>112.0</ele><time>2026-04-26T09:21:07.999Z</time></trkpt><trkpt lat="41.07511753285474" lon="9.21273949710051"><ele>112.0</ele><time>2026-04-26T09:21:08.999Z</time></trkpt><trkpt lat="41.07495131841444" lon="9.212634712438355"><ele>112.0</ele><time>2026-04-26T09:21:09.999Z</time></trkpt><trkpt lat="41.07479404693436" lon="9.21249470341562"><ele>111.66666666666667</ele><time>2026-04-26T09:21:10.999Z</time></trkpt><trkpt lat="41.07462600091107" lon="9.21235332180634"><ele>111.33333333333334</ele><time>2026-04-26T09:21:11.999Z</time></trkpt><trkpt lat="41.074440633506605" lon="9.21221005835533"><ele>111.0</ele><time>2026-04-26T09:21:12.999Z</time></trkpt><trkpt lat="41.07425403276268" lon="9.212034376756723"><ele>110.5</ele><time>2026-04-26T09:21:13.999Z</time></trkpt><trkpt lat="41.07404825429642" lon="9.21187507504752"><ele>110.0</ele><time>2026-04-26T09:21:14.999Z</time></trkpt><trkpt lat="41.07384109845183" lon="9.211748232622506"><ele>110.0</ele><time>2026-04-26T09:21:15.999Z</time></trkpt><trkpt lat="41.07363751608331" lon="9.211651054823808"><ele>110.0</ele><time>2026-04-26T09:21:16.999Z</time></trkpt><trkpt lat="41.07344957052043" lon="9.21156155718104"><ele>110.0</ele><time>2026-04-26T09:21:17.999Z</time></trkpt><trkpt lat="41.07330222186386" lon="9.211449290323486"><ele>110.0</ele><time>2026-04-26T09:21:18.999Z</time></trkpt><trkpt lat="41.073195332974635" lon="9.211328250299776"><ele>110.0</ele><time>2026-04-26T09:21:19.999Z</time></trkpt><trkpt lat="41.07309984537701" lon="9.21116726922051"><ele>110.0</ele><time>2026-04-26T09:21:20.999Z</time></trkpt><trkpt lat="41.07298704627156" lon="9.210974168061574"><ele>110.0</ele><time>2026-04-26T09:21:21.999Z</time></trkpt><trkpt lat="41.07284935077727" lon="9.210770091630565"><ele>110.0</ele><time>2026-04-26T09:21:22.999Z</time></trkpt><trkpt lat="41.0727363087018" lon="9.210562133065965"><ele>110.0</ele><time>2026-04-26T09:21:23.999Z</time></trkpt><trkpt lat="41.072627601309144" lon="9.210378189192205"><ele>111.0</ele><time>2026-04-26T09:21:24.999Z</time></trkpt><trkpt lat="41.07250256378718" lon="9.210255102858119"><ele>112.0</ele><time>2026-04-26T09:21:25.999Z</time></trkpt><trkpt lat="41.07237815595075" lon="9.210184764452787"><ele>113.0</ele><time>2026-04-26T09:21:26.999Z</time></trkpt><trkpt lat="41.072234731244436" lon="9.210171837926104"><ele>114.0</ele><time>2026-04-26T09:21:27.999Z</time></trkpt><trkpt lat="41.07207701839409" lon="9.210195169681477"><ele>115.0</ele><time>2026-04-26T09:21:28.999Z</time></trkpt><trkpt lat="41.07189909285093" lon="9.210232603057698"><ele>116.0</ele><time>2026-04-26T09:21:29.999Z</time></trkpt><trkpt lat="41.07170211794503" lon="9.210257243520118"><ele>117.0</ele><time>2026-04-26T09:21:30.999Z</time></trkpt><trkpt lat="41.07150267858202" lon="9.210297613522407"><ele>119.0</ele><time>2026-04-26T09:21:31.999Z</time></trkpt><trkpt lat="41.07131133767688" lon="9.210381329183086"><ele>121.0</ele><time>2026-04-26T09:21:32.999Z</time></trkpt><trkpt lat="41.07112633357568" lon="9.210504296941828"><ele>123.0</ele><time>2026-04-26T09:21:33.999Z</time></trkpt><trkpt lat="41.070958804337934" lon="9.210622498712466"><ele>121.33333333333334</ele><time>2026-04-26T09:21:35Z</time></trkpt><trkpt lat="41.07079014453546" lon="9.210701982665576"><ele>119.66666666666667</ele><time>2026-04-26T09:21:36Z</time></trkpt><trkpt lat="41.07061020169165" lon="9.210707683343475"><ele>118.0</ele><time>2026-04-26T09:21:37Z</time></trkpt><trkpt lat="41.070412298823754" lon="9.210745025179946"><ele>118.0</ele><time>2026-04-26T09:21:38Z</time></trkpt><trkpt lat="41.070196983480926" lon="9.21076095776766"><ele>118.0</ele><time>2026-04-26T09:21:39Z</time></trkpt><trkpt lat="41.06999659925472" lon="9.210784086844065"><ele>118.0</ele><time>2026-04-26T09:21:40Z</time></trkpt><trkpt lat="41.06982722641907" lon="9.210777901484624"><ele>119.0</ele><time>2026-04-26T09:21:41Z</time></trkpt><trkpt lat="41.069681261991406" lon="9.210710234952867"><ele>120.0</ele><time>2026-04-26T09:21:42Z</time></trkpt><trkpt lat="41.069532049523495" lon="9.210618507804542"><ele>121.0</ele><time>2026-04-26T09:21:43Z</time></trkpt><trkpt lat="41.069378065314595" lon="9.210486789419363"><ele>121.33333333333334</ele><time>2026-04-26T09:21:44Z</time></trkpt><trkpt lat="41.06919988785912" lon="9.21035457092629"><ele>121.66666666666666</ele><time>2026-04-26T09:21:45Z</time></trkpt><trkpt lat="41.06902782268069" lon="9.210185504056678"><ele>122.0</ele><time>2026-04-26T09:21:46Z</time></trkpt><trkpt lat="41.068857718988326" lon="9.210018944319863"><ele>121.33333333333333</ele><time>2026-04-26T09:21:47Z</time></trkpt><trkpt lat="41.06870554553864" lon="9.209871432018387"><ele>120.66666666666666</ele><time>2026-04-26T09:21:48Z</time></trkpt><trkpt lat="41.0685616373707" lon="9.209754289514077"><ele>120.0</ele><time>2026-04-26T09:21:49Z</time></trkpt><trkpt lat="41.06841059859868" lon="9.209677058512826"><ele>122.0</ele><time>2026-04-26T09:21:50Z</time></trkpt><trkpt lat="41.06822858603125" lon="9.209639408756761"><ele>124.0</ele><time>2026-04-26T09:21:51Z</time></trkpt><trkpt lat="41.06802469204349" lon="9.20961496384928"><ele>126.0</ele><time>2026-04-26T09:21:52Z</time></trkpt><trkpt lat="41.067806988331476" lon="9.209594609479142"><ele>126.0</ele><time>2026-04-26T09:21:53Z</time></trkpt><trkpt lat="41.067605497527666" lon="9.209561458865979"><ele>126.0</ele><time>2026-04-26T09:21:54Z</time></trkpt><trkpt lat="41.06743091352723" lon="9.209523729205175"><ele>126.0</ele><time>2026-04-26T09:21:55Z</time></trkpt><trkpt lat="41.06729034359919" lon="9.209457214969833"><ele>126.66666666666666</ele><time>2026-04-26T09:21:56Z</time></trkpt><trkpt lat="41.06717456955369" lon="9.209312007470784"><ele>127.33333333333333</ele><time>2026-04-26T09:21:57Z</time></trkpt><trkpt lat="41.06705155400184" lon="9.209148284563463"><ele>128.0</ele><time>2026-04-26T09:21:58Z</time></trkpt><trkpt lat="41.0669158241998" lon="9.20895810443304"><ele>128.0</ele><time>2026-04-26T09:21:59Z</time></trkpt><trkpt lat="41.06677460930565" lon="9.20876161673059"><ele>128.0</ele><time>2026-04-26T09:22:00Z</time></trkpt><trkpt lat="41.06665656781041" lon="9.208584081300073"><ele>128.0</ele><time>2026-04-26T09:22:01Z</time></trkpt><trkpt lat="41.0665903473615" lon="9.208418857961648"><ele>128.0</ele><time>2026-04-26T09:22:02Z</time></trkpt><trkpt lat="41.06657322515374" lon="9.208252331823878"><ele>128.0</ele><time>2026-04-26T09:22:03Z</time></trkpt><trkpt lat="41.066564519682316" lon="9.208082391525116"><ele>128.0</ele><time>2026-04-26T09:22:04Z</time></trkpt><trkpt lat="41.066535809910235" lon="9.207941857901524"><ele>128.0</ele><time>2026-04-26T09:22:05Z</time></trkpt><trkpt lat="41.06648329583097" lon="9.207811369992747"><ele>130.0</ele><time>2026-04-26T09:22:06Z</time></trkpt><trkpt lat="41.06637735007673" lon="9.20772602349839"><ele>132.0</ele><time>2026-04-26T09:22:07Z</time></trkpt><trkpt lat="41.06625201273348" lon="9.207691096763845"><ele>134.0</ele><time>2026-04-26T09:22:08Z</time></trkpt><trkpt lat="41.06611360682957" lon="9.207718573935502"><ele>136.0</ele><time>2026-04-26T09:22:09Z</time></trkpt><trkpt lat="41.06595127372532" lon="9.207773428685458"><ele>136.0</ele><time>2026-04-26T09:22:10Z</time></trkpt><trkpt lat="41.06577964550501" lon="9.207825860354214"><ele>136.0</ele><time>2026-04-26T09:22:11Z</time></trkpt><trkpt lat="41.06561883053416" lon="9.207858322373342"><ele>136.0</ele><time>2026-04-26T09:22:12Z</time></trkpt><trkpt lat="41.06548789841113" lon="9.207864061629731"><ele>135.75</ele><time>2026-04-26T09:22:13Z</time></trkpt><trkpt lat="41.06539557903041" lon="9.20777988439957"><ele>135.5</ele><time>2026-04-26T09:22:14Z</time></trkpt><trkpt lat="41.06532003395949" lon="9.207673622337406"><ele>135.25</ele><time>2026-04-26T09:22:15Z</time></trkpt><trkpt lat="41.06529146958043" lon="9.207527498113759"><ele>135.0</ele><time>2026-04-26T09:22:16Z</time></trkpt><trkpt lat="41.06521347804688" lon="9.207357271032604"><ele>137.66666666666666</ele><time>2026-04-26T09:22:17Z</time></trkpt><trkpt lat="41.065130899637595" lon="9.20717704370168"><ele>140.33333333333331</ele><time>2026-04-26T09:22:18Z</time></trkpt><trkpt lat="41.0650106698614" lon="9.20700784155761"><ele>143.0</ele><time>2026-04-26T09:22:19Z</time></trkpt><trkpt lat="41.064874308262056" lon="9.206840193972726"><ele>143.0</ele><time>2026-04-26T09:22:20Z</time></trkpt><trkpt lat="41.06475417993593" lon="9.20669334818321"><ele>143.0</ele><time>2026-04-26T09:22:21Z</time></trkpt><trkpt lat="41.06463672065511" lon="9.206576229791198"><ele>143.0</ele><time>2026-04-26T09:22:22Z</time></trkpt><trkpt lat="41.06450336168033" lon="9.206493850536752"><ele>145.0</ele><time>2026-04-26T09:22:23Z</time></trkpt><trkpt lat="41.064346567584984" lon="9.206456305131995"><ele>147.0</ele><time>2026-04-26T09:22:24Z</time></trkpt><trkpt lat="41.06418905611525" lon="9.206461017579375"><ele>149.0</ele><time>2026-04-26T09:22:25Z</time></trkpt><trkpt lat="41.0640488426727" lon="9.206453479645397"><ele>149.0</ele><time>2026-04-26T09:22:26Z</time></trkpt><trkpt lat="41.06394821336641" lon="9.206355330869329"><ele>149.0</ele><time>2026-04-26T09:22:27Z</time></trkpt><trkpt lat="41.06388386139415" lon="9.206226826576485"><ele>149.0</ele><time>2026-04-26T09:22:28Z</time></trkpt><trkpt lat="41.06385134639248" lon="9.206080903902983"><ele>149.0</ele><time>2026-04-26T09:22:29Z</time></trkpt><trkpt lat="41.063861247602766" lon="9.205922179633689"><ele>149.0</ele><time>2026-04-26T09:22:30Z</time></trkpt><trkpt lat="41.063886620865006" lon="9.20573817168184"><ele>149.0</ele><time>2026-04-26T09:22:31Z</time></trkpt><trkpt lat="41.063914015176394" lon="9.20552290740906"><ele>149.0</ele><time>2026-04-26T09:22:32Z</time></trkpt><trkpt lat="41.06392697280754" lon="9.205278323519682"><ele>151.66666666666666</ele><time>2026-04-26T09:22:33Z</time></trkpt><trkpt lat="41.06394817915805" lon="9.205045382955957"><ele>154.33333333333334</ele><time>2026-04-26T09:22:34Z</time></trkpt><trkpt lat="41.06395586491183" lon="9.204843402819147"><ele>157.0</ele><time>2026-04-26T09:22:35Z</time></trkpt><trkpt lat="41.06394562680057" lon="9.204656165797978"><ele>157.33333333333334</ele><time>2026-04-26T09:22:36Z</time></trkpt><trkpt lat="41.06389692421043" lon="9.204469696038112"><ele>157.66666666666666</ele><time>2026-04-26T09:22:37Z</time></trkpt><trkpt lat="41.063801805375874" lon="9.204274194521082"><ele>158.0</ele><time>2026-04-26T09:22:38Z</time></trkpt><trkpt lat="41.06368394023502" lon="9.204071519827913"><ele>159.0</ele><time>2026-04-26T09:22:39Z</time></trkpt><trkpt lat="41.06355207889448" lon="9.203870927970959"><ele>160.0</ele><time>2026-04-26T09:22:40Z</time></trkpt><trkpt lat="41.06343892449589" lon="9.203678504453086"><ele>161.0</ele><time>2026-04-26T09:22:41Z</time></trkpt><trkpt lat="41.063338115769255" lon="9.2035049094414"><ele>161.33333333333331</ele><time>2026-04-26T09:22:42Z</time></trkpt><trkpt lat="41.063245172730596" lon="9.203342578085305"><ele>161.66666666666666</ele><time>2026-04-26T09:22:43Z</time></trkpt><trkpt lat="41.063141699951956" lon="9.203183868658076"><ele>162.0</ele><time>2026-04-26T09:22:44Z</time></trkpt><trkpt lat="41.06302704582098" lon="9.2030356740912"><ele>162.0</ele><time>2026-04-26T09:22:45Z</time></trkpt><trkpt lat="41.06289638324071" lon="9.202895975017913"><ele>162.0</ele><time>2026-04-26T09:22:46Z</time></trkpt><trkpt lat="41.06276178056394" lon="9.202752562552249"><ele>162.0</ele><time>2026-04-26T09:22:47Z</time></trkpt><trkpt lat="41.0626219832827" lon="9.202600164951763"><ele>162.0</ele><time>2026-04-26T09:22:48Z</time></trkpt><trkpt lat="41.062478311259795" lon="9.20244215347777"><ele>162.0</ele><time>2026-04-26T09:22:49Z</time></trkpt><trkpt lat="41.06233799317908" lon="9.202289385103308"><ele>162.0</ele><time>2026-04-26T09:22:50Z</time></trkpt><trkpt lat="41.06219740733379" lon="9.202143601873734"><ele>162.0</ele><time>2026-04-26T09:22:51Z</time></trkpt><trkpt lat="41.062029733633445" lon="9.20200395868084"><ele>162.0</ele><time>2026-04-26T09:22:52Z</time></trkpt><trkpt lat="41.06185836972802" lon="9.201846603825201"><ele>162.0</ele><time>2026-04-26T09:22:53Z</time></trkpt><trkpt lat="41.061676772496284" lon="9.201689753611452"><ele>162.0</ele><time>2026-04-26T09:22:54Z</time></trkpt><trkpt lat="41.06150026630947" lon="9.201543032755033"><ele>162.0</ele><time>2026-04-26T09:22:55Z</time></trkpt><trkpt lat="41.061343597645504" lon="9.20140685247996"><ele>162.0</ele><time>2026-04-26T09:22:56Z</time></trkpt><trkpt lat="41.06119031898398" lon="9.201279623306824"><ele>162.0</ele><time>2026-04-26T09:22:57Z</time></trkpt><trkpt lat="41.06103324281639" lon="9.201153387010603"><ele>162.0</ele><time>2026-04-26T09:22:58Z</time></trkpt><trkpt lat="41.06087297488756" lon="9.201030375892367"><ele>162.0</ele><time>2026-04-26T09:22:59Z</time></trkpt><trkpt lat="41.06070712724783" lon="9.200923937766197"><ele>164.0</ele><time>2026-04-26T09:23:00Z</time></trkpt><trkpt lat="41.06052979327939" lon="9.200833896007023"><ele>166.0</ele><time>2026-04-26T09:23:01Z</time></trkpt><trkpt lat="41.06034496829448" lon="9.200771512399053"><ele>168.0</ele><time>2026-04-26T09:23:02Z</time></trkpt><trkpt lat="41.06015316426352" lon="9.200716488616417"><ele>170.0</ele><time>2026-04-26T09:23:03Z</time></trkpt><trkpt lat="41.0599429175913" lon="9.200690735694756"><ele>172.0</ele><time>2026-04-26T09:23:04Z</time></trkpt><trkpt lat="41.05975014582206" lon="9.200668898065"><ele>174.0</ele><time>2026-04-26T09:23:05Z</time></trkpt><trkpt lat="41.05957374867792" lon="9.200644916774898"><ele>171.66666666666666</ele><time>2026-04-26T09:23:06Z</time></trkpt><trkpt lat="41.05940815211545" lon="9.200621320025634"><ele>169.33333333333331</ele><time>2026-04-26T09:23:07Z</time></trkpt><trkpt lat="41.059248542826474" lon="9.200613443097271"><ele>167.0</ele><time>2026-04-26T09:23:08Z</time></trkpt><trkpt lat="41.05909339153324" lon="9.200630515784203"><ele>170.25</ele><time>2026-04-26T09:23:09Z</time></trkpt><trkpt lat="41.058934582544936" lon="9.20068132079976"><ele>173.5</ele><time>2026-04-26T09:23:10Z</time></trkpt><trkpt lat="41.058788569249394" lon="9.200729247322062"><ele>176.75</ele><time>2026-04-26T09:23:11Z</time></trkpt><trkpt lat="41.05866705263814" lon="9.200745911160032"><ele>180.0</ele><time>2026-04-26T09:23:12Z</time></trkpt><trkpt lat="41.05855907428562" lon="9.200718313789057"><ele>176.75</ele><time>2026-04-26T09:23:13Z</time></trkpt><trkpt lat="41.05846954156605" lon="9.200646362043617"><ele>173.5</ele><time>2026-04-26T09:23:14Z</time></trkpt><trkpt lat="41.05844766914718" lon="9.200508246897133"><ele>170.25</ele><time>2026-04-26T09:23:14.999Z</time></trkpt><trkpt lat="41.058376347951416" lon="9.200376699384925"><ele>167.0</ele><time>2026-04-26T09:23:15.999Z</time></trkpt><trkpt lat="41.05831178146912" lon="9.200238503555726"><ele>169.5</ele><time>2026-04-26T09:23:16.999Z</time></trkpt><trkpt lat="41.05820184554022" lon="9.200153201058923"><ele>172.0</ele><time>2026-04-26T09:23:17.999Z</time></trkpt><trkpt lat="41.058081916392524" lon="9.200130369483189"><ele>174.5</ele><time>2026-04-26T09:23:18.999Z</time></trkpt><trkpt lat="41.05794519610407" lon="9.20015147004905"><ele>177.0</ele><time>2026-04-26T09:23:19.999Z</time></trkpt><trkpt lat="41.05782946999543" lon="9.200171963922369"><ele>177.0</ele><time>2026-04-26T09:23:20.999Z</time></trkpt><trkpt lat="41.057748752201896" lon="9.20012704429579"><ele>177.0</ele><time>2026-04-26T09:23:21.999Z</time></trkpt><trkpt lat="41.05771957807852" lon="9.199985579209638"><ele>177.0</ele><time>2026-04-26T09:23:22.999Z</time></trkpt><trkpt lat="41.05764165474712" lon="9.199833483084824"><ele>177.0</ele><time>2026-04-26T09:23:23.999Z</time></trkpt><trkpt lat="41.0575241933117" lon="9.199670982954286"><ele>178.66666666666666</ele><time>2026-04-26T09:23:24.999Z</time></trkpt><trkpt lat="41.05738256479877" lon="9.199508660027513"><ele>180.33333333333331</ele><time>2026-04-26T09:23:25.999Z</time></trkpt><trkpt lat="41.0572291100167" lon="9.199331320739416"><ele>182.0</ele><time>2026-04-26T09:23:26.999Z</time></trkpt><trkpt lat="41.05707144518171" lon="9.199144903396531"><ele>179.0</ele><time>2026-04-26T09:23:27.999Z</time></trkpt><trkpt lat="41.056909272070484" lon="9.198977587234827"><ele>176.0</ele><time>2026-04-26T09:23:28.999Z</time></trkpt><trkpt lat="41.056751057158294" lon="9.198830099978792"><ele>173.0</ele><time>2026-04-26T09:23:29.999Z</time></trkpt><trkpt lat="41.056588540976456" lon="9.198706139838544"><ele>173.0</ele><time>2026-04-26T09:23:30.999Z</time></trkpt><trkpt lat="41.05643283290027" lon="9.198589899781355"><ele>173.0</ele><time>2026-04-26T09:23:31.999Z</time></trkpt><trkpt lat="41.056288700789594" lon="9.198480972250502"><ele>173.0</ele><time>2026-04-26T09:23:32.999Z</time></trkpt><trkpt lat="41.05615104326463" lon="9.198379355559613"><ele>173.0</ele><time>2026-04-26T09:23:33.999Z</time></trkpt><trkpt lat="41.056022240170115" lon="9.198307356948858"><ele>173.0</ele><time>2026-04-26T09:23:34.999Z</time></trkpt><trkpt lat="41.05587817962719" lon="9.198273087787145"><ele>173.0</ele><time>2026-04-26T09:23:35.999Z</time></trkpt><trkpt lat="41.05570503496472" lon="9.19827820421253"><ele>176.0</ele><time>2026-04-26T09:23:36.999Z</time></trkpt><trkpt lat="41.05553762576285" lon="9.198326182031437"><ele>179.0</ele><time>2026-04-26T09:23:37.999Z</time></trkpt><trkpt lat="41.05539292091364" lon="9.198374912196556"><ele>182.0</ele><time>2026-04-26T09:23:38.999Z</time></trkpt><trkpt lat="41.05528066456772" lon="9.198396749508843"><ele>185.0</ele><time>2026-04-26T09:23:39.999Z</time></trkpt><trkpt lat="41.055190710804744" lon="9.198375663416718"><ele>185.0</ele><time>2026-04-26T09:23:41Z</time></trkpt><trkpt lat="41.05512180989618" lon="9.198269468974164"><ele>185.0</ele><time>2026-04-26T09:23:42Z</time></trkpt><trkpt lat="41.055075656303835" lon="9.198136059586915"><ele>185.0</ele><time>2026-04-26T09:23:43Z</time></trkpt><trkpt lat="41.05503455585524" lon="9.197971372836982"><ele>185.0</ele><time>2026-04-26T09:23:44Z</time></trkpt><trkpt lat="41.05496218249801" lon="9.19784119040453"><ele>187.0</ele><time>2026-04-26T09:23:45Z</time></trkpt><trkpt lat="41.05486934404474" lon="9.19773441716313"><ele>189.0</ele><time>2026-04-26T09:23:46Z</time></trkpt><trkpt lat="41.05474111933203" lon="9.19765792618289"><ele>191.0</ele><time>2026-04-26T09:23:47Z</time></trkpt><trkpt lat="41.05462232384789" lon="9.197586574897063"><ele>193.0</ele><time>2026-04-26T09:23:48Z</time></trkpt><trkpt lat="41.05455209267001" lon="9.197445720395402"><ele>188.66666666666666</ele><time>2026-04-26T09:23:49Z</time></trkpt><trkpt lat="41.05450295525261" lon="9.197278239609108"><ele>184.33333333333331</ele><time>2026-04-26T09:23:50Z</time></trkpt><trkpt lat="41.054424155455216" lon="9.197069316241851"><ele>180.0</ele><time>2026-04-26T09:23:51Z</time></trkpt><trkpt lat="41.05435991483216" lon="9.196830890546837"><ele>180.0</ele><time>2026-04-26T09:23:52Z</time></trkpt><trkpt lat="41.05427859534699" lon="9.196572330646696"><ele>180.0</ele><time>2026-04-26T09:23:53Z</time></trkpt><trkpt lat="41.054202540938654" lon="9.196335142845403"><ele>180.0</ele><time>2026-04-26T09:23:54Z</time></trkpt><trkpt lat="41.05413578293434" lon="9.196117310203213"><ele>180.0</ele><time>2026-04-26T09:23:55Z</time></trkpt><trkpt lat="41.05407450542412" lon="9.19591039371494"><ele>180.0</ele><time>2026-04-26T09:23:56Z</time></trkpt><trkpt lat="41.05401770204277" lon="9.195713546275684"><ele>180.0</ele><time>2026-04-26T09:23:57Z</time></trkpt><trkpt lat="41.053963815403996" lon="9.195533052187642"><ele>180.0</ele><time>2026-04-26T09:23:58Z</time></trkpt><trkpt lat="41.05391197973936" lon="9.1953796777795"><ele>180.0</ele><time>2026-04-26T09:23:59Z</time></trkpt><trkpt lat="41.053846300340176" lon="9.195257758778796"><ele>180.0</ele><time>2026-04-26T09:24:00Z</time></trkpt><trkpt lat="41.05377396977464" lon="9.195165774526746"><ele>180.0</ele><time>2026-04-26T09:24:01Z</time></trkpt><trkpt lat="41.05369721899643" lon="9.19509766216011"><ele>180.0</ele><time>2026-04-26T09:24:02Z</time></trkpt><trkpt lat="41.05361747372972" lon="9.19504483575172"><ele>180.0</ele><time>2026-04-26T09:24:03Z</time></trkpt><trkpt lat="41.05350171153836" lon="9.194995929313215"><ele>180.0</ele><time>2026-04-26T09:24:04Z</time></trkpt><trkpt lat="41.05334073061675" lon="9.194956700360835"><ele>180.0</ele><time>2026-04-26T09:24:05Z</time></trkpt><trkpt lat="41.05315262852384" lon="9.194911390665476"><ele>180.0</ele><time>2026-04-26T09:24:06Z</time></trkpt><trkpt lat="41.052946220996404" lon="9.19485232994025"><ele>180.0</ele><time>2026-04-26T09:24:07Z</time></trkpt><trkpt lat="41.052721269557" lon="9.194787867309147"><ele>180.0</ele><time>2026-04-26T09:24:08Z</time></trkpt><trkpt lat="41.05250504844741" lon="9.194725645641117"><ele>176.66666666666666</ele><time>2026-04-26T09:24:09Z</time></trkpt><trkpt lat="41.05230078444124" lon="9.194668428615143"><ele>173.33333333333331</ele><time>2026-04-26T09:24:10Z</time></trkpt><trkpt lat="41.052112294329135" lon="9.194610225581062"><ele>170.0</ele><time>2026-04-26T09:24:11Z</time></trkpt><trkpt lat="41.05194347221095" lon="9.194569704827456"><ele>170.0</ele><time>2026-04-26T09:24:12Z</time></trkpt><trkpt lat="41.05181691540978" lon="9.194516668478949"><ele>170.0</ele><time>2026-04-26T09:24:13Z</time></trkpt><trkpt lat="41.05173152300031" lon="9.194452106422577"><ele>170.0</ele><time>2026-04-26T09:24:14Z</time></trkpt><trkpt lat="41.05168845526944" lon="9.19435309756571"><ele>170.0</ele><time>2026-04-26T09:24:15Z</time></trkpt><trkpt lat="41.05172672169501" lon="9.194221018679375"><ele>170.0</ele><time>2026-04-26T09:24:16Z</time></trkpt><trkpt lat="41.05171702637231" lon="9.194053338280279"><ele>171.33333333333331</ele><time>2026-04-26T09:24:17Z</time></trkpt><trkpt lat="41.05170459264318" lon="9.193842026389445"><ele>172.66666666666666</ele><time>2026-04-26T09:24:18Z</time></trkpt><trkpt lat="41.051675176058914" lon="9.1936027830523"><ele>174.0</ele><time>2026-04-26T09:24:19Z</time></trkpt><trkpt lat="41.05166590266991" lon="9.193348656166139"><ele>174.33333333333334</ele><time>2026-04-26T09:24:20Z</time></trkpt><trkpt lat="41.05165187059061" lon="9.193102815661023"><ele>174.66666666666669</ele><time>2026-04-26T09:24:21Z</time></trkpt><trkpt lat="41.051641380095965" lon="9.192864820087989"><ele>175.0</ele><time>2026-04-26T09:24:22Z</time></trkpt><trkpt lat="41.05163358824541" lon="9.192638139209976"><ele>175.0</ele><time>2026-04-26T09:24:23Z</time></trkpt><trkpt lat="41.051626656290686" lon="9.192428945150057"><ele>175.0</ele><time>2026-04-26T09:24:24Z</time></trkpt><trkpt lat="41.05160077609236" lon="9.192243683230888"><ele>175.0</ele><time>2026-04-26T09:24:25Z</time></trkpt><trkpt lat="41.05153809374364" lon="9.192092766306779"><ele>175.0</ele><time>2026-04-26T09:24:26Z</time></trkpt><trkpt lat="41.05146128004945" lon="9.191957613535104"><ele>174.6</ele><time>2026-04-26T09:24:27Z</time></trkpt><trkpt lat="41.0513725538666" lon="9.191846241123631"><ele>174.2</ele><time>2026-04-26T09:24:28Z</time></trkpt><trkpt lat="41.051280965728694" lon="9.191737590190803"><ele>173.8</ele><time>2026-04-26T09:24:29Z</time></trkpt><trkpt lat="41.05120459518367" lon="9.191632850517628"><ele>173.4</ele><time>2026-04-26T09:24:30Z</time></trkpt><trkpt lat="41.05115285121058" lon="9.191529419901755"><ele>173.0</ele><time>2026-04-26T09:24:31Z</time></trkpt><trkpt lat="41.051124209804534" lon="9.19140017388734"><ele>173.0</ele><time>2026-04-26T09:24:33Z</time></trkpt><trkpt lat="41.051141198878064" lon="9.191219031213546"><ele>173.0</ele><time>2026-04-26T09:24:35Z</time></trkpt><trkpt lat="41.05112902898546" lon="9.19108741819618"><ele>173.0</ele><time>2026-04-26T09:24:36Z</time></trkpt><trkpt lat="41.051231612514876" lon="9.190972873330768"><ele>173.0</ele><time>2026-04-26T09:24:37Z</time></trkpt><trkpt lat="41.05126712812641" lon="9.190892438763564"><ele>173.0</ele><time>2026-04-26T09:24:38Z</time></trkpt><trkpt lat="41.05129430252449" lon="9.190806863813009"><ele>173.0</ele><time>2026-04-26T09:24:40Z</time></trkpt><trkpt lat="41.05116081527888" lon="9.190835540845951"><ele>173.0</ele><time>2026-04-26T09:24:45Z</time></trkpt><trkpt lat="41.0510954075531" lon="9.190947329308383"><ele>173.0</ele><time>2026-04-26T09:24:46Z</time></trkpt><trkpt lat="41.05101171145641" lon="9.191072580370575"><ele>173.0</ele><time>2026-04-26T09:24:47Z</time></trkpt><trkpt lat="41.05093493571543" lon="9.191167852322167"><ele>173.0</ele><time>2026-04-26T09:24:48Z</time></trkpt><trkpt lat="41.05087255792284" lon="9.191228658906658"><ele>173.0</ele><time>2026-04-26T09:24:49Z</time></trkpt><trkpt lat="41.0508115727191" lon="9.19126731168476"><ele>173.0</ele><time>2026-04-26T09:24:50Z</time></trkpt><trkpt lat="41.05073963206006" lon="9.191288661479122"><ele>173.0</ele><time>2026-04-26T09:24:51Z</time></trkpt><trkpt lat="41.05066001165786" lon="9.191277141457395"><ele>173.0</ele><time>2026-04-26T09:24:52Z</time></trkpt><trkpt lat="41.05054823316275" lon="9.19124046578337"><ele>173.0</ele><time>2026-04-26T09:24:53Z</time></trkpt><trkpt lat="41.050404642468266" lon="9.191191813655946"><ele>174.33333333333331</ele><time>2026-04-26T09:24:54Z</time></trkpt><trkpt lat="41.05023789543295" lon="9.191130794457308"><ele>175.66666666666666</ele><time>2026-04-26T09:24:55Z</time></trkpt><trkpt lat="41.05006393213837" lon="9.191063049468884"><ele>177.0</ele><time>2026-04-26T09:24:56Z</time></trkpt><trkpt lat="41.049896931082564" lon="9.190996748312257"><ele>182.0</ele><time>2026-04-26T09:24:57Z</time></trkpt><trkpt lat="41.04973821768045" lon="9.19093116634981"><ele>187.0</ele><time>2026-04-26T09:24:58Z</time></trkpt><trkpt lat="41.04957497069909" lon="9.190850431364026"><ele>192.0</ele><time>2026-04-26T09:24:59Z</time></trkpt><trkpt lat="41.04941081272223" lon="9.190746640785592"><ele>192.33333333333331</ele><time>2026-04-26T09:25:00Z</time></trkpt><trkpt lat="41.049266116532756" lon="9.190600054508586"><ele>192.66666666666666</ele><time>2026-04-26T09:25:01Z</time></trkpt><trkpt lat="41.049107529821" lon="9.190449746443251"><ele>193.0</ele><time>2026-04-26T09:25:02Z</time></trkpt><trkpt lat="41.04894584097922" lon="9.190269500986778"><ele>193.0</ele><time>2026-04-26T09:25:03Z</time></trkpt><trkpt lat="41.04879170934096" lon="9.190112803397199"><ele>193.0</ele><time>2026-04-26T09:25:04Z</time></trkpt><trkpt lat="41.048639367506155" lon="9.189999048602328"><ele>193.0</ele><time>2026-04-26T09:25:05Z</time></trkpt><trkpt lat="41.048476693741264" lon="9.189903057143177"><ele>193.66666666666666</ele><time>2026-04-26T09:25:06Z</time></trkpt><trkpt lat="41.048340843427084" lon="9.18975223259542"><ele>194.33333333333331</ele><time>2026-04-26T09:25:07Z</time></trkpt><trkpt lat="41.04818853702729" lon="9.189578338522566"><ele>195.0</ele><time>2026-04-26T09:25:08Z</time></trkpt><trkpt lat="41.04800974532546" lon="9.189427605931206"><ele>195.0</ele><time>2026-04-26T09:25:09Z</time></trkpt><trkpt lat="41.04782970595642" lon="9.189250139088378"><ele>195.0</ele><time>2026-04-26T09:25:10Z</time></trkpt><trkpt lat="41.04764247504278" lon="9.189083750841435"><ele>193.66666666666666</ele><time>2026-04-26T09:25:11Z</time></trkpt><trkpt lat="41.04746663451547" lon="9.188943126542437"><ele>192.33333333333331</ele><time>2026-04-26T09:25:12Z</time></trkpt><trkpt lat="41.04728354489747" lon="9.188817490699385"><ele>191.0</ele><time>2026-04-26T09:25:12.999Z</time></trkpt><trkpt lat="41.04708986562851" lon="9.188695273725743"><ele>194.0</ele><time>2026-04-26T09:25:13.999Z</time></trkpt><trkpt lat="41.04689846840454" lon="9.188572467479322"><ele>197.0</ele><time>2026-04-26T09:25:14.999Z</time></trkpt><trkpt lat="41.04672391424765" lon="9.188446159196351"><ele>200.0</ele><time>2026-04-26T09:25:15.999Z</time></trkpt><trkpt lat="41.046574121650245" lon="9.188267120484948"><ele>199.66666666666669</ele><time>2026-04-26T09:25:16.999Z</time></trkpt><trkpt lat="41.046413556277024" lon="9.188090909965752"><ele>199.33333333333331</ele><time>2026-04-26T09:25:17.999Z</time></trkpt><trkpt lat="41.04624240681631" lon="9.18792355295366"><ele>199.0</ele><time>2026-04-26T09:25:18.999Z</time></trkpt><trkpt lat="41.04604287959441" lon="9.187793445908198"><ele>199.0</ele><time>2026-04-26T09:25:19.999Z</time></trkpt><trkpt lat="41.04584278631584" lon="9.187641275830806"><ele>199.0</ele><time>2026-04-26T09:25:20.999Z</time></trkpt><trkpt lat="41.04562708359399" lon="9.187497875077185"><ele>199.0</ele><time>2026-04-26T09:25:21.999Z</time></trkpt><trkpt lat="41.04540992532093" lon="9.187340811308799"><ele>199.0</ele><time>2026-04-26T09:25:22.999Z</time></trkpt><trkpt lat="41.04519746472645" lon="9.187182453846221"><ele>199.0</ele><time>2026-04-26T09:25:23.999Z</time></trkpt><trkpt lat="41.04498820553992" lon="9.187031347370258"><ele>199.0</ele><time>2026-04-26T09:25:24.999Z</time></trkpt><trkpt lat="41.04477437988707" lon="9.186877805420535"><ele>204.5</ele><time>2026-04-26T09:25:25.999Z</time></trkpt><trkpt lat="41.04455417605395" lon="9.186731787720667"><ele>210.0</ele><time>2026-04-26T09:25:26.999Z</time></trkpt><trkpt lat="41.04434408398051" lon="9.186599677491555"><ele>210.0</ele><time>2026-04-26T09:25:27.999Z</time></trkpt><trkpt lat="41.04415271031371" lon="9.186478881686574"><ele>210.0</ele><time>2026-04-26T09:25:28.999Z</time></trkpt><trkpt lat="41.0439756171618" lon="9.186365137075935"><ele>210.0</ele><time>2026-04-26T09:25:29.999Z</time></trkpt><trkpt lat="41.043805757124915" lon="9.186269339304515"><ele>210.0</ele><time>2026-04-26T09:25:30.999Z</time></trkpt><trkpt lat="41.04363309363558" lon="9.18621875040586"><ele>210.0</ele><time>2026-04-26T09:25:31.999Z</time></trkpt><trkpt lat="41.04345611748048" lon="9.186180438168345"><ele>210.0</ele><time>2026-04-26T09:25:32.999Z</time></trkpt><trkpt lat="41.04327533289951" lon="9.186152835200883"><ele>213.0</ele><time>2026-04-26T09:25:33.999Z</time></trkpt><trkpt lat="41.043099604215975" lon="9.18606943547196"><ele>216.0</ele><time>2026-04-26T09:25:34.999Z</time></trkpt><trkpt lat="41.04290486777222" lon="9.185992170160507"><ele>219.0</ele><time>2026-04-26T09:25:35.999Z</time></trkpt><trkpt lat="41.04269525456613" lon="9.1859273034292"><ele>219.0</ele><time>2026-04-26T09:25:36.999Z</time></trkpt><trkpt lat="41.04248647976991" lon="9.185861102630431"><ele>219.0</ele><time>2026-04-26T09:25:37.999Z</time></trkpt><trkpt lat="41.042274827156746" lon="9.185814825387448"><ele>219.0</ele><time>2026-04-26T09:25:38.999Z</time></trkpt><trkpt lat="41.04206328208205" lon="9.185721686957672"><ele>220.0</ele><time>2026-04-26T09:25:39.999Z</time></trkpt><trkpt lat="41.04183549103148" lon="9.185637438679368"><ele>221.0</ele><time>2026-04-26T09:25:40.999Z</time></trkpt><trkpt lat="41.04161090461128" lon="9.185522375479746"><ele>222.5</ele><time>2026-04-26T09:25:41.999Z</time></trkpt><trkpt lat="41.04137677365026" lon="9.185407954828282"><ele>224.0</ele><time>2026-04-26T09:25:42.999Z</time></trkpt><trkpt lat="41.04113696704988" lon="9.18529571595043"><ele>224.0</ele><time>2026-04-26T09:25:43.999Z</time></trkpt><trkpt lat="41.0409109304976" lon="9.18518917992493"><ele>224.0</ele><time>2026-04-26T09:25:44.999Z</time></trkpt><trkpt lat="41.040706321375794" lon="9.1850888689907"><ele>226.66666666666669</ele><time>2026-04-26T09:25:45.999Z</time></trkpt><trkpt lat="41.04051421158266" lon="9.184998402037705"><ele>229.33333333333331</ele><time>2026-04-26T09:25:47Z</time></trkpt><trkpt lat="41.04032768107583" lon="9.184934876518499"><ele>232.0</ele><time>2026-04-26T09:25:48Z</time></trkpt><trkpt lat="41.040130220841455" lon="9.184914529087559"><ele>233.33333333333331</ele><time>2026-04-26T09:25:49Z</time></trkpt><trkpt lat="41.03994218016335" lon="9.184916781262269"><ele>234.66666666666669</ele><time>2026-04-26T09:25:50Z</time></trkpt><trkpt lat="41.03978234626924" lon="9.184924868437832"><ele>236.0</ele><time>2026-04-26T09:25:51Z</time></trkpt><trkpt lat="41.039665766821614" lon="9.18493864669783"><ele>236.00000000000003</ele><time>2026-04-26T09:25:52Z</time></trkpt><trkpt lat="41.03958079718001" lon="9.184939047413573"><ele>236.0</ele><time>2026-04-26T09:25:53Z</time></trkpt><trkpt lat="41.03952164427344" lon="9.184882605205832"><ele>236.0</ele><time>2026-04-26T09:25:54Z</time></trkpt><trkpt lat="41.039489256453045" lon="9.184792267261596"><ele>236.0</ele><time>2026-04-26T09:25:55Z</time></trkpt><trkpt lat="41.039448194690664" lon="9.184698185580547"><ele>236.00000000000003</ele><time>2026-04-26T09:25:56Z</time></trkpt><trkpt lat="41.03946275719346" lon="9.184574357530959"><ele>236.0</ele><time>2026-04-26T09:25:57Z</time></trkpt><trkpt lat="41.039483879762805" lon="9.184488475388871"><ele>238.66666666666669</ele><time>2026-04-26T09:25:58Z</time></trkpt><trkpt lat="41.03964168720236" lon="9.184411917129129"><ele>241.33333333333331</ele><time>2026-04-26T09:25:59Z</time></trkpt><trkpt lat="41.03976714899965" lon="9.184369491091148"><ele>244.0</ele><time>2026-04-26T09:26:00Z</time></trkpt><trkpt lat="41.0399232514084" lon="9.184345083426319"><ele>241.66666666666666</ele><time>2026-04-26T09:26:01Z</time></trkpt><trkpt lat="41.04009525604306" lon="9.184317758951424"><ele>239.33333333333331</ele><time>2026-04-26T09:26:02Z</time></trkpt><trkpt lat="41.040264708701876" lon="9.18429460835559"><ele>237.0</ele><time>2026-04-26T09:26:03Z</time></trkpt><trkpt lat="41.04040984343402" lon="9.184267901974199"><ele>237.0</ele><time>2026-04-26T09:26:04Z</time></trkpt><trkpt lat="41.04051621628996" lon="9.184227876920412"><ele>237.0</ele><time>2026-04-26T09:26:05Z</time></trkpt><trkpt lat="41.04059312385353" lon="9.184145033771724"><ele>237.0</ele><time>2026-04-26T09:26:06Z</time></trkpt><trkpt lat="41.04064934605156" lon="9.184013462116257"><ele>237.0</ele><time>2026-04-26T09:26:07Z</time></trkpt><trkpt lat="41.040660959191165" lon="9.183861771334232"><ele>237.0</ele><time>2026-04-26T09:26:08Z</time></trkpt><trkpt lat="41.04065037805503" lon="9.1836742554223"><ele>238.0</ele><time>2026-04-26T09:26:09Z</time></trkpt><trkpt lat="41.040612011067886" lon="9.183466352755252"><ele>239.0</ele><time>2026-04-26T09:26:10Z</time></trkpt><trkpt lat="41.04056534930616" lon="9.183268048120675"><ele>240.0</ele><time>2026-04-26T09:26:11Z</time></trkpt><trkpt lat="41.04050966638584" lon="9.183099479842397"><ele>240.0</ele><time>2026-04-26T09:26:12Z</time></trkpt><trkpt lat="41.04042546523685" lon="9.18295211335295"><ele>240.0</ele><time>2026-04-26T09:26:13Z</time></trkpt><trkpt lat="41.04031390539858" lon="9.182826109730275"><ele>240.0</ele><time>2026-04-26T09:26:14Z</time></trkpt><trkpt lat="41.04015738188995" lon="9.182719788769898"><ele>240.0</ele><time>2026-04-26T09:26:15Z</time></trkpt><trkpt lat="41.039988077987346" lon="9.182634768254028"><ele>240.0</ele><time>2026-04-26T09:26:16Z</time></trkpt><trkpt lat="41.03980573899169" lon="9.182534254270841"><ele>240.0</ele><time>2026-04-26T09:26:17Z</time></trkpt><trkpt lat="41.039623399430944" lon="9.182432037636852"><ele>241.33333333333331</ele><time>2026-04-26T09:26:18Z</time></trkpt><trkpt lat="41.039458276930084" lon="9.18233240416388"><ele>242.66666666666666</ele><time>2026-04-26T09:26:19Z</time></trkpt><trkpt lat="41.03931415593818" lon="9.182207228412757"><ele>244.0</ele><time>2026-04-26T09:26:20Z</time></trkpt><trkpt lat="41.03919585269303" lon="9.18204746706488"><ele>247.0</ele><time>2026-04-26T09:26:21Z</time></trkpt><trkpt lat="41.03909536576592" lon="9.181863189011647"><ele>250.0</ele><time>2026-04-26T09:26:22Z</time></trkpt><trkpt lat="41.03900822045436" lon="9.18169086813695"><ele>253.0</ele><time>2026-04-26T09:26:23Z</time></trkpt><trkpt lat="41.03890963692249" lon="9.18157001760546"><ele>251.25</ele><time>2026-04-26T09:26:24Z</time></trkpt><trkpt lat="41.03879048197239" lon="9.181505731961122"><ele>249.5</ele><time>2026-04-26T09:26:25Z</time></trkpt><trkpt lat="41.03865512680331" lon="9.181491671477556"><ele>247.75</ele><time>2026-04-26T09:26:26Z</time></trkpt><trkpt lat="41.03849328507766" lon="9.181505400198839"><ele>246.0</ele><time>2026-04-26T09:26:27Z</time></trkpt><trkpt lat="41.03834087713649" lon="9.181495341698136"><ele>245.0</ele><time>2026-04-26T09:26:28Z</time></trkpt><trkpt lat="41.03817726774451" lon="9.181436893190826"><ele>244.0</ele><time>2026-04-26T09:26:29Z</time></trkpt><trkpt lat="41.038030554574746" lon="9.181327100930172"><ele>243.0</ele><time>2026-04-26T09:26:30Z</time></trkpt><trkpt lat="41.037893773628554" lon="9.181184207171588"><ele>243.0</ele><time>2026-04-26T09:26:31Z</time></trkpt><trkpt lat="41.037761501626534" lon="9.181064278113563"><ele>243.0</ele><time>2026-04-26T09:26:32Z</time></trkpt><trkpt lat="41.03762129226951" lon="9.181003928901255"><ele>243.0</ele><time>2026-04-26T09:26:33Z</time></trkpt><trkpt lat="41.03746561693705" lon="9.18097832318115"><ele>244.5</ele><time>2026-04-26T09:26:34Z</time></trkpt><trkpt lat="41.037320837577255" lon="9.18098939014399"><ele>246.0</ele><time>2026-04-26T09:26:35Z</time></trkpt><trkpt lat="41.037208649463764" lon="9.180970881907148"><ele>247.5</ele><time>2026-04-26T09:26:36Z</time></trkpt><trkpt lat="41.03712411640681" lon="9.180902865162935"><ele>249.0</ele><time>2026-04-26T09:26:37Z</time></trkpt><trkpt lat="41.037070109815375" lon="9.180775251584242"><ele>246.0</ele><time>2026-04-26T09:26:38Z</time></trkpt><trkpt lat="41.037042697486854" lon="9.18059645840998"><ele>243.0</ele><time>2026-04-26T09:26:39Z</time></trkpt><trkpt lat="41.037013765282786" lon="9.180395834621253"><ele>240.0</ele><time>2026-04-26T09:26:40Z</time></trkpt><trkpt lat="41.036962299260615" lon="9.18022726048293"><ele>237.0</ele><time>2026-04-26T09:26:41Z</time></trkpt><trkpt lat="41.036877744481295" lon="9.18009754140509"><ele>237.0</ele><time>2026-04-26T09:26:42Z</time></trkpt><trkpt lat="41.03676270399405" lon="9.180010097530163"><ele>237.0</ele><time>2026-04-26T09:26:43Z</time></trkpt><trkpt lat="41.03661087086497" lon="9.179993123281715"><ele>237.0</ele><time>2026-04-26T09:26:44Z</time></trkpt><trkpt lat="41.03643573495741" lon="9.17997615495172"><ele>237.0</ele><time>2026-04-26T09:26:45Z</time></trkpt><trkpt lat="41.03626956811409" lon="9.17996507217305"><ele>237.0</ele><time>2026-04-26T09:26:46Z</time></trkpt><trkpt lat="41.03611899935303" lon="9.17995810455929"><ele>237.0</ele><time>2026-04-26T09:26:47Z</time></trkpt><trkpt lat="41.03595675821442" lon="9.180012225508236"><ele>238.33333333333331</ele><time>2026-04-26T09:26:48Z</time></trkpt><trkpt lat="41.03578953103092" lon="9.180124866621831"><ele>239.66666666666666</ele><time>2026-04-26T09:26:49Z</time></trkpt><trkpt lat="41.035638495003504" lon="9.180238694712353"><ele>241.0</ele><time>2026-04-26T09:26:50Z</time></trkpt><trkpt lat="41.035494333915665" lon="9.180297183208273"><ele>241.0</ele><time>2026-04-26T09:26:51Z</time></trkpt><trkpt lat="41.035349104166556" lon="9.180287516134516"><ele>241.0</ele><time>2026-04-26T09:26:52Z</time></trkpt><trkpt lat="41.03520107715759" lon="9.180224020719622"><ele>241.0</ele><time>2026-04-26T09:26:53Z</time></trkpt><trkpt lat="41.035061977589855" lon="9.180135481507445"><ele>244.33333333333331</ele><time>2026-04-26T09:26:54Z</time></trkpt><trkpt lat="41.03492228020529" lon="9.180067420571001"><ele>247.66666666666669</ele><time>2026-04-26T09:26:55Z</time></trkpt><trkpt lat="41.034773588418645" lon="9.180050968790866"><ele>251.0</ele><time>2026-04-26T09:26:56Z</time></trkpt><trkpt lat="41.03460566427675" lon="9.180093360794302"><ele>251.0</ele><time>2026-04-26T09:26:57Z</time></trkpt><trkpt lat="41.03447341742099" lon="9.180161715796418"><ele>251.00000000000003</ele><time>2026-04-26T09:26:58Z</time></trkpt><trkpt lat="41.03437729263587" lon="9.180195534325547"><ele>251.00000000000003</ele><time>2026-04-26T09:26:59Z</time></trkpt><trkpt lat="41.03429591028878" lon="9.18017404668396"><ele>251.0</ele><time>2026-04-26T09:27:00Z</time></trkpt><trkpt lat="41.034240834316584" lon="9.180109599605947"><ele>251.0</ele><time>2026-04-26T09:27:01Z</time></trkpt><trkpt lat="41.034233306489796" lon="9.18000015685416"><ele>251.0</ele><time>2026-04-26T09:27:02Z</time></trkpt><trkpt lat="41.03426016296829" lon="9.17985376851211"><ele>251.0</ele><time>2026-04-26T09:27:03Z</time></trkpt><trkpt lat="41.03432746335486" lon="9.179675475600316"><ele>251.0</ele><time>2026-04-26T09:27:04Z</time></trkpt><trkpt lat="41.034356538830956" lon="9.179462064058209"><ele>251.0</ele><time>2026-04-26T09:27:05Z</time></trkpt><trkpt lat="41.03438585977191" lon="9.17924571918394"><ele>251.8</ele><time>2026-04-26T09:27:06Z</time></trkpt><trkpt lat="41.03441067506927" lon="9.179065639733265"><ele>252.60000000000002</ele><time>2026-04-26T09:27:07Z</time></trkpt><trkpt lat="41.03444445483401" lon="9.178918378502043"><ele>253.4</ele><time>2026-04-26T09:27:08Z</time></trkpt><trkpt lat="41.03450666425369" lon="9.178815559740949"><ele>254.2</ele><time>2026-04-26T09:27:09Z</time></trkpt><trkpt lat="41.0345982011705" lon="9.17878129880543"><ele>255.0</ele><time>2026-04-26T09:27:10Z</time></trkpt><trkpt lat="41.03471724292289" lon="9.178776199253212"><ele>254.25</ele><time>2026-04-26T09:27:11Z</time></trkpt><trkpt lat="41.03485848652849" lon="9.178761037563248"><ele>253.5</ele><time>2026-04-26T09:27:12Z</time></trkpt><trkpt lat="41.035005998589476" lon="9.178725188223536"><ele>252.75</ele><time>2026-04-26T09:27:13Z</time></trkpt><trkpt lat="41.035136801849426" lon="9.178649977534915"><ele>252.0</ele><time>2026-04-26T09:27:14Z</time></trkpt><trkpt lat="41.0352516955474" lon="9.178524354289905"><ele>252.0</ele><time>2026-04-26T09:27:15Z</time></trkpt><trkpt lat="41.03533609137659" lon="9.178384813158102"><ele>252.0</ele><time>2026-04-26T09:27:16Z</time></trkpt><trkpt lat="41.035385845192685" lon="9.178244224801103"><ele>252.0</ele><time>2026-04-26T09:27:17Z</time></trkpt><trkpt lat="41.03538694576699" lon="9.17810513864359"><ele>252.0</ele><time>2026-04-26T09:27:18Z</time></trkpt><trkpt lat="41.035345908381416" lon="9.177961992770523"><ele>252.0</ele><time>2026-04-26T09:27:19Z</time></trkpt><trkpt lat="41.03525817229763" lon="9.177813297234307"><ele>252.0</ele><time>2026-04-26T09:27:20Z</time></trkpt><trkpt lat="41.0351435292881" lon="9.177656304754688"><ele>252.0</ele><time>2026-04-26T09:27:21Z</time></trkpt><trkpt lat="41.03501303252386" lon="9.177472392230738"><ele>254.66666666666669</ele><time>2026-04-26T09:27:22Z</time></trkpt><trkpt lat="41.034882827441926" lon="9.177273609555726"><ele>257.33333333333337</ele><time>2026-04-26T09:27:23Z</time></trkpt><trkpt lat="41.034753024053344" lon="9.177069781611504"><ele>260.0</ele><time>2026-04-26T09:27:24Z</time></trkpt><trkpt lat="41.034649758358206" lon="9.176872242066295"><ele>260.0</ele><time>2026-04-26T09:27:25Z</time></trkpt><trkpt lat="41.03454583516171" lon="9.176705220357356"><ele>260.0</ele><time>2026-04-26T09:27:26Z</time></trkpt><trkpt lat="41.03443727366891" lon="9.176557622843541"><ele>260.0</ele><time>2026-04-26T09:27:27Z</time></trkpt><trkpt lat="41.03433998336791" lon="9.176413505514102"><ele>259.6666666666667</ele><time>2026-04-26T09:27:28Z</time></trkpt><trkpt lat="41.03421642553331" lon="9.176310605037017"><ele>259.3333333333333</ele><time>2026-04-26T09:27:29Z</time></trkpt><trkpt lat="41.034060812319936" lon="9.17625393495665"><ele>259.0</ele><time>2026-04-26T09:27:30Z</time></trkpt><trkpt lat="41.03391176156044" lon="9.176249995916907"><ele>259.0</ele><time>2026-04-26T09:27:31Z</time></trkpt><trkpt lat="41.03379578163594" lon="9.176191989825304"><ele>259.0</ele><time>2026-04-26T09:27:32Z</time></trkpt><trkpt lat="41.03373216361791" lon="9.17607859134893"><ele>259.0</ele><time>2026-04-26T09:27:33Z</time></trkpt><trkpt lat="41.03366097237127" lon="9.175931338120543"><ele>259.0</ele><time>2026-04-26T09:27:34Z</time></trkpt><trkpt lat="41.03356555232371" lon="9.175743355260058"><ele>258.0</ele><time>2026-04-26T09:27:35Z</time></trkpt><trkpt lat="41.03346037265898" lon="9.17553707523612"><ele>257.0</ele><time>2026-04-26T09:27:36Z</time></trkpt><trkpt lat="41.033369976724565" lon="9.175342475267229"><ele>256.0</ele><time>2026-04-26T09:27:36.999Z</time></trkpt><trkpt lat="41.03331259577692" lon="9.175155914438163"><ele>256.0</ele><time>2026-04-26T09:27:37.999Z</time></trkpt><trkpt lat="41.033260300255684" lon="9.174978889477716"><ele>256.0</ele><time>2026-04-26T09:27:38.999Z</time></trkpt><trkpt lat="41.0332008639408" lon="9.174820435627076"><ele>256.0</ele><time>2026-04-26T09:27:39.999Z</time></trkpt><trkpt lat="41.03312630180541" lon="9.174680848120683"><ele>256.0</ele><time>2026-04-26T09:27:40.999Z</time></trkpt><trkpt lat="41.033011300952325" lon="9.17459591726955"><ele>256.0</ele><time>2026-04-26T09:27:41.999Z</time></trkpt><trkpt lat="41.032879327040796" lon="9.17454700145936"><ele>256.0</ele><time>2026-04-26T09:27:42.999Z</time></trkpt><trkpt lat="41.03273816496469" lon="9.174513019846012"><ele>256.0</ele><time>2026-04-26T09:27:43.999Z</time></trkpt><trkpt lat="41.03261557228249" lon="9.174519622737067"><ele>256.0</ele><time>2026-04-26T09:27:44.999Z</time></trkpt><trkpt lat="41.032499706529116" lon="9.174588187258376"><ele>257.0</ele><time>2026-04-26T09:27:45.999Z</time></trkpt><trkpt lat="41.032403174009566" lon="9.174697811954587"><ele>258.0</ele><time>2026-04-26T09:27:46.999Z</time></trkpt><trkpt lat="41.032318476159006" lon="9.174764276650928"><ele>259.0</ele><time>2026-04-26T09:27:47.999Z</time></trkpt><trkpt lat="41.0322377867754" lon="9.174696408887966"><ele>260.0</ele><time>2026-04-26T09:27:48.999Z</time></trkpt><trkpt lat="41.032182525473324" lon="9.174590397874365"><ele>261.0</ele><time>2026-04-26T09:27:49.999Z</time></trkpt><trkpt lat="41.032095431826306" lon="9.174457537265358"><ele>261.0</ele><time>2026-04-26T09:27:50.999Z</time></trkpt><trkpt lat="41.03198270050337" lon="9.174323081661823"><ele>261.0</ele><time>2026-04-26T09:27:51.999Z</time></trkpt><trkpt lat="41.03188139664304" lon="9.174193671007593"><ele>261.0</ele><time>2026-04-26T09:27:53Z</time></trkpt><trkpt lat="41.03175456487831" lon="9.174099795784535"><ele>261.0</ele><time>2026-04-26T09:27:54Z</time></trkpt><trkpt lat="41.031599836389205" lon="9.174061675534585"><ele>261.3333333333333</ele><time>2026-04-26T09:27:55Z</time></trkpt><trkpt lat="41.0314404002145" lon="9.174054681592809"><ele>261.66666666666663</ele><time>2026-04-26T09:27:56Z</time></trkpt><trkpt lat="41.03126948397171" lon="9.174094040664366"><ele>262.0</ele><time>2026-04-26T09:27:57Z</time></trkpt><trkpt lat="41.03107776258948" lon="9.174158583248305"><ele>262.0</ele><time>2026-04-26T09:27:58Z</time></trkpt><trkpt lat="41.03087692231061" lon="9.17421857568973"><ele>262.0</ele><time>2026-04-26T09:27:59Z</time></trkpt><trkpt lat="41.03069415013222" lon="9.174266067228556"><ele>262.0</ele><time>2026-04-26T09:28:00Z</time></trkpt><trkpt lat="41.0305230405421" lon="9.174306906634675"><ele>264.5</ele><time>2026-04-26T09:28:01Z</time></trkpt><trkpt lat="41.030370839208196" lon="9.174341389222844"><ele>267.0</ele><time>2026-04-26T09:28:02Z</time></trkpt><trkpt lat="41.030247554023695" lon="9.17432920110076"><ele>269.5</ele><time>2026-04-26T09:28:03Z</time></trkpt><trkpt lat="41.03014980858291" lon="9.174302255489893"><ele>272.0</ele><time>2026-04-26T09:28:04Z</time></trkpt><trkpt lat="41.03007912079257" lon="9.174225514675852"><ele>272.0</ele><time>2026-04-26T09:28:05Z</time></trkpt><trkpt lat="41.03004438492817" lon="9.174110271984869"><ele>272.0</ele><time>2026-04-26T09:28:06Z</time></trkpt><trkpt lat="41.03000190382654" lon="9.173955856773995"><ele>272.0</ele><time>2026-04-26T09:28:07Z</time></trkpt><trkpt lat="41.02994345028073" lon="9.173759858277176"><ele>272.0</ele><time>2026-04-26T09:28:08Z</time></trkpt><trkpt lat="41.029877336496924" lon="9.173538175929327"><ele>273.33333333333337</ele><time>2026-04-26T09:28:09Z</time></trkpt><trkpt lat="41.02980860734366" lon="9.173306067556993"><ele>274.6666666666667</ele><time>2026-04-26T09:28:10Z</time></trkpt><trkpt lat="41.02974835573855" lon="9.173100954317324"><ele>276.0</ele><time>2026-04-26T09:28:11Z</time></trkpt><trkpt lat="41.029672595488876" lon="9.172924872897125"><ele>273.5</ele><time>2026-04-26T09:28:12Z</time></trkpt><trkpt lat="41.02960976802824" lon="9.172792774570139"><ele>271.0</ele><time>2026-04-26T09:28:13Z</time></trkpt><trkpt lat="41.02951366769832" lon="9.172710246255784"><ele>268.5</ele><time>2026-04-26T09:28:14Z</time></trkpt><trkpt lat="41.02939113053646" lon="9.172684905776855"><ele>266.0</ele><time>2026-04-26T09:28:15Z</time></trkpt><trkpt lat="41.02927183473551" lon="9.172716945677815"><ele>266.0</ele><time>2026-04-26T09:28:16Z</time></trkpt><trkpt lat="41.02916237922261" lon="9.17281094440948"><ele>266.0</ele><time>2026-04-26T09:28:17Z</time></trkpt><trkpt lat="41.02906802746328" lon="9.172934477465803"><ele>266.0</ele><time>2026-04-26T09:28:18Z</time></trkpt><trkpt lat="41.02898413751432" lon="9.173013397351571"><ele>266.0</ele><time>2026-04-26T09:28:19Z</time></trkpt><trkpt lat="41.02888697832799" lon="9.172971104111063"><ele>266.2</ele><time>2026-04-26T09:28:20Z</time></trkpt><trkpt lat="41.02882958429737" lon="9.172874799353853"><ele>266.40000000000003</ele><time>2026-04-26T09:28:21Z</time></trkpt><trkpt lat="41.02881313607688" lon="9.172757184756486"><ele>266.6</ele><time>2026-04-26T09:28:22Z</time></trkpt><trkpt lat="41.02880463935384" lon="9.172603383527628"><ele>266.8</ele><time>2026-04-26T09:28:23Z</time></trkpt><trkpt lat="41.0287816752926" lon="9.17240857627625"><ele>267.0</ele><time>2026-04-26T09:28:24Z</time></trkpt><trkpt lat="41.028753165348746" lon="9.172232179210521"><ele>267.0</ele><time>2026-04-26T09:28:25Z</time></trkpt><trkpt lat="41.028712985022956" lon="9.17208745588793"><ele>267.0</ele><time>2026-04-26T09:28:26Z</time></trkpt><trkpt lat="41.02860664808033" lon="9.17201125926164"><ele>267.0</ele><time>2026-04-26T09:28:27Z</time></trkpt><trkpt lat="41.02850024700734" lon="9.17196816619024"><ele>267.0</ele><time>2026-04-26T09:28:28Z</time></trkpt><trkpt lat="41.02836724428517" lon="9.171975302429798"><ele>270.75</ele><time>2026-04-26T09:28:29Z</time></trkpt><trkpt lat="41.028213734527746" lon="9.17201805389644"><ele>274.5</ele><time>2026-04-26T09:28:30Z</time></trkpt><trkpt lat="41.02810208753583" lon="9.171951088741837"><ele>278.25</ele><time>2026-04-26T09:28:31Z</time></trkpt><trkpt lat="41.028034225204415" lon="9.171841995614896"><ele>282.0</ele><time>2026-04-26T09:28:32Z</time></trkpt><trkpt lat="41.02795065968099" lon="9.171705051309829"><ele>282.0</ele><time>2026-04-26T09:28:33Z</time></trkpt><trkpt lat="41.027852303536136" lon="9.171587697762714"><ele>282.0</ele><time>2026-04-26T09:28:34Z</time></trkpt><trkpt lat="41.02774232048916" lon="9.17150101873674"><ele>282.0</ele><time>2026-04-26T09:28:35Z</time></trkpt><trkpt lat="41.02763218679289" lon="9.171412049526742"><ele>282.0</ele><time>2026-04-26T09:28:36Z</time></trkpt><trkpt lat="41.02751288801834" lon="9.171344424767963"><ele>283.0</ele><time>2026-04-26T09:28:37Z</time></trkpt><trkpt lat="41.02738185265352" lon="9.17132786386495"><ele>284.0</ele><time>2026-04-26T09:28:38Z</time></trkpt><trkpt lat="41.027243276960306" lon="9.171363827484129"><ele>285.0</ele><time>2026-04-26T09:28:39Z</time></trkpt><trkpt lat="41.02715030852929" lon="9.17129288557037"><ele>286.0</ele><time>2026-04-26T09:28:40Z</time></trkpt><trkpt lat="41.02709270088276" lon="9.171213560210587"><ele>286.0</ele><time>2026-04-26T09:28:41Z</time></trkpt><trkpt lat="41.027088402028916" lon="9.171094669735782"><ele>286.0</ele><time>2026-04-26T09:28:42Z</time></trkpt><trkpt lat="41.027094301205814" lon="9.170952034832592"><ele>286.0</ele><time>2026-04-26T09:28:43Z</time></trkpt><trkpt lat="41.027118278306794" lon="9.170769073000612"><ele>286.0</ele><time>2026-04-26T09:28:44Z</time></trkpt><trkpt lat="41.027112783117396" lon="9.170601635015577"><ele>282.0</ele><time>2026-04-26T09:28:45Z</time></trkpt><trkpt lat="41.02710848054207" lon="9.170463608875975"><ele>278.0</ele><time>2026-04-26T09:28:46Z</time></trkpt><trkpt lat="41.02700611681431" lon="9.170376157014735"><ele>274.0</ele><time>2026-04-26T09:28:47Z</time></trkpt><trkpt lat="41.02689882351438" lon="9.170331639595528"><ele>270.0</ele><time>2026-04-26T09:28:48Z</time></trkpt><trkpt lat="41.02676209364797" lon="9.170334595312113"><ele>272.3333333333333</ele><time>2026-04-26T09:28:49Z</time></trkpt><trkpt lat="41.02660211793444" lon="9.170381056277623"><ele>274.66666666666663</ele><time>2026-04-26T09:28:50Z</time></trkpt><trkpt lat="41.02642470235427" lon="9.170437540201622"><ele>277.0</ele><time>2026-04-26T09:28:51Z</time></trkpt><trkpt lat="41.02624861124101" lon="9.170472015613472"><ele>277.0</ele><time>2026-04-26T09:28:52Z</time></trkpt><trkpt lat="41.02609163327947" lon="9.170492275019807"><ele>277.0</ele><time>2026-04-26T09:28:53Z</time></trkpt><trkpt lat="41.02594659923522" lon="9.170512860625868"><ele>277.0</ele><time>2026-04-26T09:28:54Z</time></trkpt><trkpt lat="41.025830693549906" lon="9.170530557101056"><ele>277.0</ele><time>2026-04-26T09:28:55Z</time></trkpt><trkpt lat="41.02573974887648" lon="9.170507547578136"><ele>280.75</ele><time>2026-04-26T09:28:56Z</time></trkpt><trkpt lat="41.02567285109427" lon="9.17042118331507"><ele>284.5</ele><time>2026-04-26T09:28:57Z</time></trkpt><trkpt lat="41.02563291979654" lon="9.17028467549532"><ele>288.25</ele><time>2026-04-26T09:28:58Z</time></trkpt><trkpt lat="41.02560139357152" lon="9.170104005776272"><ele>292.0</ele><time>2026-04-26T09:28:59Z</time></trkpt><trkpt lat="41.02556979064936" lon="9.1699051531714"><ele>289.5</ele><time>2026-04-26T09:29:00Z</time></trkpt><trkpt lat="41.025528296108966" lon="9.169744416491273"><ele>287.0</ele><time>2026-04-26T09:29:01Z</time></trkpt><trkpt lat="41.025459938901655" lon="9.169617947990506"><ele>284.5</ele><time>2026-04-26T09:29:02Z</time></trkpt><trkpt lat="41.02535860282951" lon="9.169530207373898"><ele>282.0</ele><time>2026-04-26T09:29:03Z</time></trkpt><trkpt lat="41.0252439278686" lon="9.169495536105996"><ele>282.0</ele><time>2026-04-26T09:29:04Z</time></trkpt><trkpt lat="41.02514151305717" lon="9.169530693640978"><ele>282.0</ele><time>2026-04-26T09:29:05Z</time></trkpt><trkpt lat="41.025059610537106" lon="9.169619069870675"><ele>282.0</ele><time>2026-04-26T09:29:06Z</time></trkpt><trkpt lat="41.02498932977699" lon="9.169732740597711"><ele>282.0</ele><time>2026-04-26T09:29:07Z</time></trkpt><trkpt lat="41.02492306174296" lon="9.169806202664272"><ele>282.0</ele><time>2026-04-26T09:29:08Z</time></trkpt><trkpt lat="41.02483752562134" lon="9.169778285216784"><ele>287.4</ele><time>2026-04-26T09:29:09Z</time></trkpt><trkpt lat="41.02476487657646" lon="9.169704828338086"><ele>292.79999999999995</ele><time>2026-04-26T09:29:10Z</time></trkpt><trkpt lat="41.02472870285997" lon="9.169591475813045"><ele>298.2</ele><time>2026-04-26T09:29:11Z</time></trkpt><trkpt lat="41.024728028968866" lon="9.169441300912862"><ele>303.59999999999997</ele><time>2026-04-26T09:29:12Z</time></trkpt><trkpt lat="41.02470523566812" lon="9.169247769695314"><ele>309.0</ele><time>2026-04-26T09:29:13Z</time></trkpt><trkpt lat="41.02467891834077" lon="9.16903131733063"><ele>306.25</ele><time>2026-04-26T09:29:14Z</time></trkpt><trkpt lat="41.024634936048926" lon="9.168826214066332"><ele>303.5</ele><time>2026-04-26T09:29:15Z</time></trkpt><trkpt lat="41.02459212061945" lon="9.168648994598843"><ele>300.75</ele><time>2026-04-26T09:29:16Z</time></trkpt><trkpt lat="41.02452061263896" lon="9.168482240748158"><ele>298.0</ele><time>2026-04-26T09:29:17Z</time></trkpt><trkpt lat="41.024422041138244" lon="9.168326903062303"><ele>298.0</ele><time>2026-04-26T09:29:18Z</time></trkpt><trkpt lat="41.02429405743035" lon="9.168193283877015"><ele>298.0</ele><time>2026-04-26T09:29:19Z</time></trkpt><trkpt lat="41.02414806889493" lon="9.168061860550237"><ele>298.0</ele><time>2026-04-26T09:29:20Z</time></trkpt><trkpt lat="41.02399844576905" lon="9.167957189661536"><ele>296.3333333333333</ele><time>2026-04-26T09:29:21Z</time></trkpt><trkpt lat="41.02383059136756" lon="9.167874612123109"><ele>294.6666666666667</ele><time>2026-04-26T09:29:22Z</time></trkpt><trkpt lat="41.02364253327197" lon="9.16779612651983"><ele>293.0</ele><time>2026-04-26T09:29:23Z</time></trkpt><trkpt lat="41.02345444419435" lon="9.167700340009182"><ele>294.6666666666667</ele><time>2026-04-26T09:29:24Z</time></trkpt><trkpt lat="41.02327553207474" lon="9.167548572595239"><ele>296.3333333333333</ele><time>2026-04-26T09:29:25Z</time></trkpt><trkpt lat="41.023088732211406" lon="9.167434252401407"><ele>298.0</ele><time>2026-04-26T09:29:26Z</time></trkpt><trkpt lat="41.02293073750775" lon="9.167307194968544"><ele>298.0</ele><time>2026-04-26T09:29:27Z</time></trkpt><trkpt lat="41.02280515052457" lon="9.167155575803703"><ele>298.0</ele><time>2026-04-26T09:29:28Z</time></trkpt><trkpt lat="41.022673379307335" lon="9.167035604511506"><ele>298.0</ele><time>2026-04-26T09:29:29Z</time></trkpt><trkpt lat="41.022560562124454" lon="9.166923470612822"><ele>302.0</ele><time>2026-04-26T09:29:30Z</time></trkpt><trkpt lat="41.022426369977815" lon="9.166865459818899"><ele>306.0</ele><time>2026-04-26T09:29:31Z</time></trkpt><trkpt lat="41.02229580532432" lon="9.166856534172823"><ele>310.0</ele><time>2026-04-26T09:29:32Z</time></trkpt><trkpt lat="41.02216996288282" lon="9.166851490069906"><ele>314.0</ele><time>2026-04-26T09:29:33Z</time></trkpt><trkpt lat="41.02208007829412" lon="9.166728152458072"><ele>314.0</ele><time>2026-04-26T09:29:33.999Z</time></trkpt><trkpt lat="41.021953638168625" lon="9.166593622717247"><ele>314.0</ele><time>2026-04-26T09:29:34.999Z</time></trkpt><trkpt lat="41.02181366623371" lon="9.166455019039233"><ele>314.0</ele><time>2026-04-26T09:29:35.999Z</time></trkpt><trkpt lat="41.02168743822055" lon="9.16634415214134"><ele>315.5</ele><time>2026-04-26T09:29:36.999Z</time></trkpt><trkpt lat="41.02155873145919" lon="9.16627734221742"><ele>317.0</ele><time>2026-04-26T09:29:37.999Z</time></trkpt><trkpt lat="41.02143025745258" lon="9.166267256197319"><ele>318.5</ele><time>2026-04-26T09:29:38.999Z</time></trkpt><trkpt lat="41.02130188676948" lon="9.166302323081807"><ele>320.0</ele><time>2026-04-26T09:29:39.999Z</time></trkpt><trkpt lat="41.02119570033924" lon="9.166331619385543"><ele>320.0</ele><time>2026-04-26T09:29:40.999Z</time></trkpt><trkpt lat="41.021123278382255" lon="9.166264647856694"><ele>320.0</ele><time>2026-04-26T09:29:41.999Z</time></trkpt><trkpt lat="41.02107823568856" lon="9.166162893471062"><ele>320.0</ele><time>2026-04-26T09:29:42.999Z</time></trkpt><trkpt lat="41.02104410842918" lon="9.1660094421457"><ele>320.0</ele><time>2026-04-26T09:29:43.999Z</time></trkpt><trkpt lat="41.02095729886849" lon="9.165840666860314"><ele>322.33333333333337</ele><time>2026-04-26T09:29:44.999Z</time></trkpt><trkpt lat="41.02082442391045" lon="9.165685969491744"><ele>324.6666666666667</ele><time>2026-04-26T09:29:45.999Z</time></trkpt><trkpt lat="41.02067993759652" lon="9.165526190317923"><ele>327.0</ele><time>2026-04-26T09:29:46.999Z</time></trkpt><trkpt lat="41.02053109266096" lon="9.16536144689911"><ele>327.0</ele><time>2026-04-26T09:29:47.999Z</time></trkpt><trkpt lat="41.020370693683745" lon="9.16518960249462"><ele>327.0</ele><time>2026-04-26T09:29:48.999Z</time></trkpt><trkpt lat="41.0201992400443" lon="9.165020824399907"><ele>327.0</ele><time>2026-04-26T09:29:49.999Z</time></trkpt><trkpt lat="41.02001085237139" lon="9.164865838249261"><ele>323.6666666666667</ele><time>2026-04-26T09:29:50.999Z</time></trkpt><trkpt lat="41.01982455232254" lon="9.164739650972557"><ele>320.33333333333337</ele><time>2026-04-26T09:29:51.999Z</time></trkpt><trkpt lat="41.019637867390216" lon="9.164639899250309"><ele>317.0</ele><time>2026-04-26T09:29:52.999Z</time></trkpt><trkpt lat="41.01944884336478" lon="9.164557027733274"><ele>317.0</ele><time>2026-04-26T09:29:53.999Z</time></trkpt><trkpt lat="41.019268764029476" lon="9.164494949108827"><ele>317.0</ele><time>2026-04-26T09:29:54.999Z</time></trkpt><trkpt lat="41.019108435242444" lon="9.164397435093491"><ele>317.0</ele><time>2026-04-26T09:29:55.999Z</time></trkpt><trkpt lat="41.01895376518316" lon="9.164269191041104"><ele>319.0</ele><time>2026-04-26T09:29:56.999Z</time></trkpt><trkpt lat="41.0187846711115" lon="9.164119117752936"><ele>321.0</ele><time>2026-04-26T09:29:57.999Z</time></trkpt><trkpt lat="41.01859549056928" lon="9.163974582589871"><ele>323.0</ele><time>2026-04-26T09:29:59Z</time></trkpt><trkpt lat="41.018423908609826" lon="9.163777323157792"><ele>335.5</ele><time>2026-04-26T09:30:00Z</time></trkpt><trkpt lat="41.01824704148044" lon="9.163584510497728"><ele>348.0</ele><time>2026-04-26T09:30:01Z</time></trkpt><trkpt lat="41.01805682033008" lon="9.163399914946588"><ele>348.0</ele><time>2026-04-26T09:30:02Z</time></trkpt><trkpt lat="41.017878860614616" lon="9.163235412240853"><ele>348.0</ele><time>2026-04-26T09:30:03Z</time></trkpt><trkpt lat="41.01771042116644" lon="9.163089311130083"><ele>348.0</ele><time>2026-04-26T09:30:04Z</time></trkpt><trkpt lat="41.01755555048298" lon="9.162956981917324"><ele>353.0</ele><time>2026-04-26T09:30:05Z</time></trkpt><trkpt lat="41.01741290295072" lon="9.16282041665723"><ele>358.0</ele><time>2026-04-26T09:30:06Z</time></trkpt><trkpt lat="41.017269090545916" lon="9.162729903119155"><ele>363.0</ele><time>2026-04-26T09:30:07Z</time></trkpt><trkpt lat="41.017146407655375" lon="9.162660722008972"><ele>363.0</ele><time>2026-04-26T09:30:08Z</time></trkpt><trkpt lat="41.017049924449125" lon="9.162612860311793"><ele>363.0</ele><time>2026-04-26T09:30:09Z</time></trkpt><trkpt lat="41.017007288881295" lon="9.162512329018531"><ele>363.0</ele><time>2026-04-26T09:30:10Z</time></trkpt><trkpt lat="41.01697255104113" lon="9.162427040698123"><ele>363.0</ele><time>2026-04-26T09:30:11Z</time></trkpt><trkpt lat="41.01703176873043" lon="9.162317231137589"><ele>363.0</ele><time>2026-04-26T09:30:12Z</time></trkpt><trkpt lat="41.01704500484903" lon="9.162170336644609"><ele>359.0</ele><time>2026-04-26T09:30:13Z</time></trkpt><trkpt lat="41.01702032395361" lon="9.16200810827018"><ele>355.0</ele><time>2026-04-26T09:30:14Z</time></trkpt><trkpt lat="41.016930714618326" lon="9.161859577140644"><ele>351.0</ele><time>2026-04-26T09:30:15Z</time></trkpt><trkpt lat="41.0168236046095" lon="9.161743020627231"><ele>347.0</ele><time>2026-04-26T09:30:16Z</time></trkpt><trkpt lat="41.01668102449432" lon="9.161657617992468"><ele>344.6666666666667</ele><time>2026-04-26T09:30:17Z</time></trkpt><trkpt lat="41.016516044327645" lon="9.161581175381679"><ele>342.3333333333333</ele><time>2026-04-26T09:30:18Z</time></trkpt><trkpt lat="41.01634055504747" lon="9.161489782344036"><ele>340.0</ele><time>2026-04-26T09:30:19Z</time></trkpt><trkpt lat="41.01615739984799" lon="9.161385094979401"><ele>340.0</ele><time>2026-04-26T09:30:20Z</time></trkpt><trkpt lat="41.01596125366929" lon="9.161288993759937"><ele>340.0</ele><time>2026-04-26T09:30:21Z</time></trkpt><trkpt lat="41.015749320862255" lon="9.161225279763983"><ele>340.0</ele><time>2026-04-26T09:30:22Z</time></trkpt><trkpt lat="41.01552855881191" lon="9.161187840541228"><ele>345.3333333333333</ele><time>2026-04-26T09:30:23Z</time></trkpt><trkpt lat="41.01533023105436" lon="9.16116155618622"><ele>350.6666666666667</ele><time>2026-04-26T09:30:24Z</time></trkpt><trkpt lat="41.015148648489756" lon="9.161135494073699"><ele>356.0</ele><time>2026-04-26T09:30:25Z</time></trkpt><trkpt lat="41.014988290888404" lon="9.161112876344665"><ele>360.6</ele><time>2026-04-26T09:30:26Z</time></trkpt><trkpt lat="41.01485967052368" lon="9.16110027929304"><ele>365.20000000000005</ele><time>2026-04-26T09:30:27Z</time></trkpt><trkpt lat="41.0147614902076" lon="9.161073165916184"><ele>369.79999999999995</ele><time>2026-04-26T09:30:28Z</time></trkpt><trkpt lat="41.01469283520559" lon="9.161013737743406"><ele>374.4</ele><time>2026-04-26T09:30:29Z</time></trkpt><trkpt lat="41.01467887552955" lon="9.160894070889052"><ele>379.0</ele><time>2026-04-26T09:30:30Z</time></trkpt><trkpt lat="41.014711446503966" lon="9.160770627121055"><ele>375.0</ele><time>2026-04-26T09:30:31Z</time></trkpt><trkpt lat="41.014684925984284" lon="9.160648187843387"><ele>371.0</ele><time>2026-04-26T09:30:32Z</time></trkpt><trkpt lat="41.01462422533331" lon="9.160516025169454"><ele>367.0</ele><time>2026-04-26T09:30:33Z</time></trkpt><trkpt lat="41.01453863430315" lon="9.160387541995885"><ele>363.0</ele><time>2026-04-26T09:30:34Z</time></trkpt><trkpt lat="41.014407909385866" lon="9.160271462662546"><ele>363.0</ele><time>2026-04-26T09:30:35Z</time></trkpt><trkpt lat="41.01425711449042" lon="9.160154520314808"><ele>363.0</ele><time>2026-04-26T09:30:36Z</time></trkpt><trkpt lat="41.01410780219489" lon="9.160006533307794"><ele>363.0</ele><time>2026-04-26T09:30:37Z</time></trkpt><trkpt lat="41.01394949980892" lon="9.159848852687203"><ele>362.6666666666667</ele><time>2026-04-26T09:30:38Z</time></trkpt><trkpt lat="41.013778067491735" lon="9.15969632622473"><ele>362.33333333333337</ele><time>2026-04-26T09:30:39Z</time></trkpt><trkpt lat="41.01358949042701" lon="9.159559919461591"><ele>362.0</ele><time>2026-04-26T09:30:40Z</time></trkpt><trkpt lat="41.013386788281295" lon="9.159438027038515"><ele>368.6666666666667</ele><time>2026-04-26T09:30:41Z</time></trkpt><trkpt lat="41.01319869574292" lon="9.159337432918548"><ele>375.3333333333333</ele><time>2026-04-26T09:30:42Z</time></trkpt><trkpt lat="41.01303200017271" lon="9.159248670191571"><ele>382.0</ele><time>2026-04-26T09:30:43Z</time></trkpt><trkpt lat="41.01288530615745" lon="9.15916999236595"><ele>382.0</ele><time>2026-04-26T09:30:44Z</time></trkpt><trkpt lat="41.01274897582145" lon="9.15911766478049"><ele>382.0</ele><time>2026-04-26T09:30:45Z</time></trkpt><trkpt lat="41.012615666761484" lon="9.159121877003527"><ele>382.0</ele><time>2026-04-26T09:30:46Z</time></trkpt><trkpt lat="41.01250066477616" lon="9.159170803693526"><ele>382.0</ele><time>2026-04-26T09:30:47Z</time></trkpt><trkpt lat="41.01240987852347" lon="9.159186295745682"><ele>383.5</ele><time>2026-04-26T09:30:48Z</time></trkpt><trkpt lat="41.01232994392445" lon="9.159130296527088"><ele>385.0</ele><time>2026-04-26T09:30:49Z</time></trkpt><trkpt lat="41.012281146715004" lon="9.158986622861155"><ele>386.5</ele><time>2026-04-26T09:30:50Z</time></trkpt><trkpt lat="41.01221928827551" lon="9.15881619626038"><ele>388.0</ele><time>2026-04-26T09:30:51Z</time></trkpt><trkpt lat="41.01212504416855" lon="9.158638702414105"><ele>388.0</ele><time>2026-04-26T09:30:52Z</time></trkpt><trkpt lat="41.011999552468716" lon="9.158466896067031"><ele>388.0</ele><time>2026-04-26T09:30:53Z</time></trkpt><trkpt lat="41.01185304728559" lon="9.1582975094384"><ele>388.0</ele><time>2026-04-26T09:30:54Z</time></trkpt><trkpt lat="41.01168927832765" lon="9.158156472119568"><ele>385.6666666666667</ele><time>2026-04-26T09:30:55Z</time></trkpt><trkpt lat="41.01150579654542" lon="9.158051421040666"><ele>383.33333333333337</ele><time>2026-04-26T09:30:56Z</time></trkpt><trkpt lat="41.01130833715639" lon="9.157958638146933"><ele>381.0</ele><time>2026-04-26T09:30:57Z</time></trkpt><trkpt lat="41.01110674118345" lon="9.157859029641298"><ele>381.0</ele><time>2026-04-26T09:30:58Z</time></trkpt><trkpt lat="41.0109285120638" lon="9.157757969571662"><ele>381.0</ele><time>2026-04-26T09:30:59Z</time></trkpt><trkpt lat="41.01075558055727" lon="9.157648326237767"><ele>381.0</ele><time>2026-04-26T09:31:00Z</time></trkpt><trkpt lat="41.01058308789843" lon="9.157517301205859"><ele>380.0</ele><time>2026-04-26T09:31:01Z</time></trkpt><trkpt lat="41.01043258825104" lon="9.15736861776491"><ele>379.0</ele><time>2026-04-26T09:31:02Z</time></trkpt><trkpt lat="41.01029224974216" lon="9.157230567124886"><ele>378.0</ele><time>2026-04-26T09:31:03Z</time></trkpt><trkpt lat="41.01013613689968" lon="9.157124605647127"><ele>385.66666666666663</ele><time>2026-04-26T09:31:04Z</time></trkpt><trkpt lat="41.0099626734968" lon="9.157023679734598"><ele>393.3333333333333</ele><time>2026-04-26T09:31:05Z</time></trkpt><trkpt lat="41.00976551466265" lon="9.156941108466727"><ele>401.0</ele><time>2026-04-26T09:31:06Z</time></trkpt><trkpt lat="41.00956299995589" lon="9.156848896283618"><ele>401.0</ele><time>2026-04-26T09:31:07Z</time></trkpt><trkpt lat="41.009368307118436" lon="9.156744776390626"><ele>401.0</ele><time>2026-04-26T09:31:08Z</time></trkpt><trkpt lat="41.009175875283624" lon="9.15662176534401"><ele>401.0</ele><time>2026-04-26T09:31:09Z</time></trkpt><trkpt lat="41.00899219088485" lon="9.156462654354554"><ele>400.5</ele><time>2026-04-26T09:31:10Z</time></trkpt><trkpt lat="41.0087867559272" lon="9.156332422502185"><ele>400.0</ele><time>2026-04-26T09:31:11Z</time></trkpt><trkpt lat="41.00858645830013" lon="9.156191007986735"><ele>400.0</ele><time>2026-04-26T09:31:12Z</time></trkpt><trkpt lat="41.00838927186061" lon="9.15606201316463"><ele>400.0</ele><time>2026-04-26T09:31:13Z</time></trkpt><trkpt lat="41.00818581468463" lon="9.155933727930465"><ele>400.0</ele><time>2026-04-26T09:31:14Z</time></trkpt><trkpt lat="41.00798003817777" lon="9.155817106595528"><ele>398.6666666666667</ele><time>2026-04-26T09:31:15Z</time></trkpt><trkpt lat="41.007778797886616" lon="9.155724248837272"><ele>397.33333333333337</ele><time>2026-04-26T09:31:16Z</time></trkpt><trkpt lat="41.00758615477355" lon="9.155656498331279"><ele>396.0</ele><time>2026-04-26T09:31:17Z</time></trkpt><trkpt lat="41.00740825402604" lon="9.1556113122693"><ele>398.25</ele><time>2026-04-26T09:31:18Z</time></trkpt><trkpt lat="41.00725145276084" lon="9.15557623093417"><ele>400.5</ele><time>2026-04-26T09:31:19Z</time></trkpt><trkpt lat="41.00711921343928" lon="9.155562676661566"><ele>402.75</ele><time>2026-04-26T09:31:20Z</time></trkpt><trkpt lat="41.007015843017655" lon="9.155586965649274"><ele>405.0</ele><time>2026-04-26T09:31:21Z</time></trkpt><trkpt lat="41.00693970768201" lon="9.155664825924323"><ele>408.6</ele><time>2026-04-26T09:31:22Z</time></trkpt><trkpt lat="41.00689924870321" lon="9.155779398732827"><ele>412.2</ele><time>2026-04-26T09:31:23Z</time></trkpt><trkpt lat="41.00688368171935" lon="9.155912895460855"><ele>415.79999999999995</ele><time>2026-04-26T09:31:24Z</time></trkpt><trkpt lat="41.006840447169644" lon="9.15601265299786"><ele>419.4</ele><time>2026-04-26T09:31:25Z</time></trkpt><trkpt lat="41.0067600429367" lon="9.156058834217248"><ele>423.0</ele><time>2026-04-26T09:31:26Z</time></trkpt><trkpt lat="41.00665790516181" lon="9.156043777029703"><ele>425.75</ele><time>2026-04-26T09:31:27Z</time></trkpt><trkpt lat="41.00657274720584" lon="9.155966992756248"><ele>428.5</ele><time>2026-04-26T09:31:28Z</time></trkpt><trkpt lat="41.00656683253843" lon="9.1558170917428"><ele>431.25</ele><time>2026-04-26T09:31:29Z</time></trkpt><trkpt lat="41.00650668479706" lon="9.155661236052024"><ele>434.0</ele><time>2026-04-26T09:31:30Z</time></trkpt><trkpt lat="41.006429692955955" lon="9.155482380404262"><ele>434.0</ele><time>2026-04-26T09:31:31Z</time></trkpt><trkpt lat="41.0063222122963" lon="9.155317238075435"><ele>434.0</ele><time>2026-04-26T09:31:32Z</time></trkpt><trkpt lat="41.00618906196929" lon="9.155161479193742"><ele>434.0</ele><time>2026-04-26T09:31:33Z</time></trkpt><trkpt lat="41.006045881822125" lon="9.15501154141986"><ele>430.25</ele><time>2026-04-26T09:31:34Z</time></trkpt><trkpt lat="41.00596321910245" lon="9.154862994673238"><ele>426.5</ele><time>2026-04-26T09:31:35Z</time></trkpt><trkpt lat="41.005923047977106" lon="9.154698960326694"><ele>422.75</ele><time>2026-04-26T09:31:36Z</time></trkpt><trkpt lat="41.00586828029714" lon="9.15451458133805"><ele>419.0</ele><time>2026-04-26T09:31:37Z</time></trkpt><trkpt lat="41.00578209303988" lon="9.154380022549596"><ele>422.6</ele><time>2026-04-26T09:31:38Z</time></trkpt><trkpt lat="41.00568414598737" lon="9.154291740710352"><ele>426.2</ele><time>2026-04-26T09:31:39Z</time></trkpt><trkpt lat="41.00559613767541" lon="9.154195552009941"><ele>429.80000000000007</ele><time>2026-04-26T09:31:40Z</time></trkpt><trkpt lat="41.00555496423967" lon="9.154076654580702"><ele>433.40000000000003</ele><time>2026-04-26T09:31:41Z</time></trkpt><trkpt lat="41.00552556077098" lon="9.153945972965344"><ele>437.0</ele><time>2026-04-26T09:31:42Z</time></trkpt><trkpt lat="41.005495244356766" lon="9.15379210181072"><ele>437.0</ele><time>2026-04-26T09:31:43Z</time></trkpt><trkpt lat="41.00543359083858" lon="9.153642307712811"><ele>437.0</ele><time>2026-04-26T09:31:44Z</time></trkpt><trkpt lat="41.00534494110416" lon="9.153497915518075"><ele>437.0</ele><time>2026-04-26T09:31:45Z</time></trkpt><trkpt lat="41.005213028440565" lon="9.153366053403444"><ele>437.0</ele><time>2026-04-26T09:31:46Z</time></trkpt><trkpt lat="41.00505915857958" lon="9.153240206156912"><ele>437.3333333333333</ele><time>2026-04-26T09:31:47Z</time></trkpt><trkpt lat="41.004893675113436" lon="9.153104363403772"><ele>437.66666666666663</ele><time>2026-04-26T09:31:48Z</time></trkpt><trkpt lat="41.00474265579811" lon="9.1529401506713"><ele>438.0</ele><time>2026-04-26T09:31:49Z</time></trkpt><trkpt lat="41.004597572196566" lon="9.152807282825343"><ele>438.0</ele><time>2026-04-26T09:31:49.999Z</time></trkpt><trkpt lat="41.00445669386529" lon="9.152678266175144"><ele>438.0</ele><time>2026-04-26T09:31:50.999Z</time></trkpt><trkpt lat="41.00432135820065" lon="9.152554325510161"><ele>438.0</ele><time>2026-04-26T09:31:51.999Z</time></trkpt><trkpt lat="41.004131515504035" lon="9.15257800040012"><ele>441.2</ele><time>2026-04-26T09:31:52.999Z</time></trkpt><trkpt lat="41.003991395223316" lon="9.152546416859062"><ele>444.4</ele><time>2026-04-26T09:31:53.999Z</time></trkpt><trkpt lat="41.00387928243858" lon="9.152538260945663"><ele>447.59999999999997</ele><time>2026-04-26T09:31:54.999Z</time></trkpt><trkpt lat="41.00379455552491" lon="9.15251896478768"><ele>450.79999999999995</ele><time>2026-04-26T09:31:55.999Z</time></trkpt><trkpt lat="41.00373954322323" lon="9.15245946788778"><ele>454.0</ele><time>2026-04-26T09:31:56.999Z</time></trkpt><trkpt lat="41.003722834675685" lon="9.152360111637716"><ele>454.0</ele><time>2026-04-26T09:31:57.999Z</time></trkpt><trkpt lat="41.003736891312" lon="9.152227913921868"><ele>454.0</ele><time>2026-04-26T09:31:58.999Z</time></trkpt><trkpt lat="41.00374390505519" lon="9.152069269723565"><ele>454.0</ele><time>2026-04-26T09:31:59.999Z</time></trkpt><trkpt lat="41.003700061412545" lon="9.151887449895694"><ele>454.0</ele><time>2026-04-26T09:32:00.999Z</time></trkpt><trkpt lat="41.00362330085069" lon="9.151699207587901"><ele>453.75</ele><time>2026-04-26T09:32:01.999Z</time></trkpt><trkpt lat="41.00354617868456" lon="9.151505133062486"><ele>453.5</ele><time>2026-04-26T09:32:02.999Z</time></trkpt><trkpt lat="41.00345805398077" lon="9.151362290224949"><ele>453.25</ele><time>2026-04-26T09:32:03.999Z</time></trkpt><trkpt lat="41.003340495043744" lon="9.151256559377337"><ele>453.0</ele><time>2026-04-26T09:32:05Z</time></trkpt><trkpt lat="41.003194263554164" lon="9.151177964592264"><ele>453.0</ele><time>2026-04-26T09:32:06Z</time></trkpt><trkpt lat="41.003018766243216" lon="9.151103251924258"><ele>453.0</ele><time>2026-04-26T09:32:07Z</time></trkpt><trkpt lat="41.002836142352706" lon="9.151018538964482"><ele>453.0</ele><time>2026-04-26T09:32:08Z</time></trkpt><trkpt lat="41.002644770686004" lon="9.15091824685341"><ele>453.66666666666663</ele><time>2026-04-26T09:32:09Z</time></trkpt><trkpt lat="41.00244435967628" lon="9.150814050481296"><ele>454.3333333333333</ele><time>2026-04-26T09:32:10Z</time></trkpt><trkpt lat="41.002248060505835" lon="9.150704997684391"><ele>455.0</ele><time>2026-04-26T09:32:11Z</time></trkpt><trkpt lat="41.002068993758435" lon="9.150613199280485"><ele>455.0</ele><time>2026-04-26T09:32:12Z</time></trkpt><trkpt lat="41.001908896506635" lon="9.150538470183731"><ele>455.0</ele><time>2026-04-26T09:32:13Z</time></trkpt><trkpt lat="41.00177075366808" lon="9.150498417036832"><ele>455.0</ele><time>2026-04-26T09:32:14Z</time></trkpt><trkpt lat="41.001657021648015" lon="9.150510091486757"><ele>455.0</ele><time>2026-04-26T09:32:15Z</time></trkpt><trkpt lat="41.0015696861243" lon="9.150541893932363"><ele>457.2</ele><time>2026-04-26T09:32:16Z</time></trkpt><trkpt lat="41.001480207541746" lon="9.150527241250124"><ele>459.4</ele><time>2026-04-26T09:32:17Z</time></trkpt><trkpt lat="41.00139436771585" lon="9.15044851569137"><ele>461.6</ele><time>2026-04-26T09:32:18Z</time></trkpt><trkpt lat="41.00131063540658" lon="9.15033541619508"><ele>463.8</ele><time>2026-04-26T09:32:19Z</time></trkpt><trkpt lat="41.001261102516665" lon="9.150215287349377"><ele>466.0</ele><time>2026-04-26T09:32:20Z</time></trkpt><trkpt lat="41.001248417373716" lon="9.150070457513145"><ele>466.0</ele><time>2026-04-26T09:32:21Z</time></trkpt><trkpt lat="41.001260666998874" lon="9.149911853438848"><ele>466.0</ele><time>2026-04-26T09:32:22Z</time></trkpt><trkpt lat="41.001274210097066" lon="9.149755240175594"><ele>466.0</ele><time>2026-04-26T09:32:23Z</time></trkpt><trkpt lat="41.00125813277685" lon="9.149602699861974"><ele>466.0</ele><time>2026-04-26T09:32:24Z</time></trkpt><trkpt lat="41.001199402051746" lon="9.149455532633862"><ele>465.33333333333337</ele><time>2026-04-26T09:32:25Z</time></trkpt><trkpt lat="41.001109144933956" lon="9.149279407220279"><ele>464.66666666666663</ele><time>2026-04-26T09:32:26Z</time></trkpt><trkpt lat="41.000988204827664" lon="9.149093237734425"><ele>464.0</ele><time>2026-04-26T09:32:27Z</time></trkpt><trkpt lat="41.00087828866687" lon="9.148873033141898"><ele>462.66666666666663</ele><time>2026-04-26T09:32:28Z</time></trkpt><trkpt lat="41.00077894251236" lon="9.148631416758187"><ele>461.33333333333337</ele><time>2026-04-26T09:32:29Z</time></trkpt><trkpt lat="41.00067977531173" lon="9.148387926270292"><ele>460.0</ele><time>2026-04-26T09:32:30Z</time></trkpt><trkpt lat="41.000566040858075" lon="9.148139830807414"><ele>459.5</ele><time>2026-04-26T09:32:31Z</time></trkpt><trkpt lat="41.00041802301704" lon="9.1478979741001"><ele>459.0</ele><time>2026-04-26T09:32:32Z</time></trkpt><trkpt lat="41.00025516721744" lon="9.14766725936859"><ele>459.0</ele><time>2026-04-26T09:32:33Z</time></trkpt><trkpt lat="41.00011904291337" lon="9.14746206776558"><ele>459.0</ele><time>2026-04-26T09:32:34Z</time></trkpt><trkpt lat="40.99998471950582" lon="9.147272708230725"><ele>459.0</ele><time>2026-04-26T09:32:35Z</time></trkpt><trkpt lat="40.99982136106894" lon="9.147093705704759"><ele>460.66666666666663</ele><time>2026-04-26T09:32:36Z</time></trkpt><trkpt lat="40.999650539646666" lon="9.146903229999744"><ele>462.3333333333333</ele><time>2026-04-26T09:32:37Z</time></trkpt><trkpt lat="40.999504154199364" lon="9.146691876188513"><ele>464.0</ele><time>2026-04-26T09:32:38Z</time></trkpt><trkpt lat="40.99937685385766" lon="9.146488308184368"><ele>463.66666666666663</ele><time>2026-04-26T09:32:39Z</time></trkpt><trkpt lat="40.999224756660126" lon="9.146312741458086"><ele>463.33333333333337</ele><time>2026-04-26T09:32:40Z</time></trkpt><trkpt lat="40.99904332114872" lon="9.146129472560892"><ele>463.0</ele><time>2026-04-26T09:32:41Z</time></trkpt><trkpt lat="40.998881640558984" lon="9.145930271938855"><ele>463.0</ele><time>2026-04-26T09:32:42Z</time></trkpt><trkpt lat="40.99872052853327" lon="9.145760639760526"><ele>463.0</ele><time>2026-04-26T09:32:43Z</time></trkpt><trkpt lat="40.99853961768589" lon="9.145618506676206"><ele>463.0</ele><time>2026-04-26T09:32:44Z</time></trkpt><trkpt lat="40.99838079537794" lon="9.14546347437423"><ele>462.33333333333337</ele><time>2026-04-26T09:32:45Z</time></trkpt><trkpt lat="40.99823777993521" lon="9.145301543258855"><ele>461.66666666666663</ele><time>2026-04-26T09:32:46Z</time></trkpt><trkpt lat="40.998059879308066" lon="9.145162273906731"><ele>461.0</ele><time>2026-04-26T09:32:47Z</time></trkpt><trkpt lat="40.99785444846978" lon="9.14504291484504"><ele>461.0</ele><time>2026-04-26T09:32:48Z</time></trkpt><trkpt lat="40.99766525275384" lon="9.144936597409249"><ele>461.0</ele><time>2026-04-26T09:32:49Z</time></trkpt><trkpt lat="40.99748955101058" lon="9.14482466350461"><ele>461.0</ele><time>2026-04-26T09:32:50Z</time></trkpt><trkpt lat="40.9973330124003" lon="9.144694668887103"><ele>461.66666666666663</ele><time>2026-04-26T09:32:51Z</time></trkpt><trkpt lat="40.99718974086025" lon="9.144554814324591"><ele>462.33333333333337</ele><time>2026-04-26T09:32:52Z</time></trkpt><trkpt lat="40.997072950340176" lon="9.144398931123256"><ele>463.0</ele><time>2026-04-26T09:32:53Z</time></trkpt><trkpt lat="40.99699877966157" lon="9.144208329913557"><ele>465.0</ele><time>2026-04-26T09:32:54Z</time></trkpt><trkpt lat="40.99695504717166" lon="9.143986047245862"><ele>467.0</ele><time>2026-04-26T09:32:55Z</time></trkpt><trkpt lat="40.99686403922623" lon="9.143788005175075"><ele>469.0</ele><time>2026-04-26T09:32:56Z</time></trkpt><trkpt lat="40.99671361645721" lon="9.14359359873783"><ele>468.0</ele><time>2026-04-26T09:32:57Z</time></trkpt><trkpt lat="40.99656680024394" lon="9.143413336694115"><ele>467.0</ele><time>2026-04-26T09:32:58Z</time></trkpt><trkpt lat="40.996436201499066" lon="9.143251735731887"><ele>466.0</ele><time>2026-04-26T09:32:59Z</time></trkpt><trkpt lat="40.996292979619085" lon="9.143125730335079"><ele>466.0</ele><time>2026-04-26T09:33:00Z</time></trkpt><trkpt lat="40.99611643766841" lon="9.143031914132827"><ele>466.0</ele><time>2026-04-26T09:33:01Z</time></trkpt><trkpt lat="40.995934889488026" lon="9.142946319636787"><ele>466.0</ele><time>2026-04-26T09:33:02Z</time></trkpt><trkpt lat="40.99576872406233" lon="9.14281962957371"><ele>462.0</ele><time>2026-04-26T09:33:03Z</time></trkpt><trkpt lat="40.995596313387985" lon="9.142642016165563"><ele>458.0</ele><time>2026-04-26T09:33:04Z</time></trkpt><trkpt lat="40.99542086557338" lon="9.142442627802176"><ele>462.0</ele><time>2026-04-26T09:33:05Z</time></trkpt><trkpt lat="40.99523437754608" lon="9.142244839499295"><ele>466.0</ele><time>2026-04-26T09:33:06Z</time></trkpt><trkpt lat="40.995047749854656" lon="9.142047945908795"><ele>459.0</ele><time>2026-04-26T09:33:07Z</time></trkpt><trkpt lat="40.9948651994009" lon="9.141855290280835"><ele>452.0</ele><time>2026-04-26T09:33:08Z</time></trkpt><trkpt lat="40.994689567045114" lon="9.141663912452579"><ele>456.0</ele><time>2026-04-26T09:33:09Z</time></trkpt><trkpt lat="40.99450539748917" lon="9.141468941157939"><ele>460.0</ele><time>2026-04-26T09:33:10Z</time></trkpt><trkpt lat="40.99431935942796" lon="9.141252329022794"><ele>455.5</ele><time>2026-04-26T09:33:11Z</time></trkpt><trkpt lat="40.994108018117906" lon="9.141052314841543"><ele>451.0</ele><time>2026-04-26T09:33:12Z</time></trkpt><trkpt lat="40.993906041515075" lon="9.140815762427007"><ele>452.5</ele><time>2026-04-26T09:33:13Z</time></trkpt><trkpt lat="40.993677752452136" lon="9.140601548076827"><ele>454.0</ele><time>2026-04-26T09:33:14Z</time></trkpt><trkpt lat="40.99345408652894" lon="9.14036473093935"><ele>449.0</ele><time>2026-04-26T09:33:15Z</time></trkpt><trkpt lat="40.99322739501208" lon="9.140123569125981"><ele>444.0</ele><time>2026-04-26T09:33:16Z</time></trkpt><trkpt lat="40.992999261118094" lon="9.139885478062432"><ele>445.0</ele><time>2026-04-26T09:33:17Z</time></trkpt><trkpt lat="40.992780674340096" lon="9.139625819093537"><ele>446.0</ele><time>2026-04-26T09:33:18Z</time></trkpt><trkpt lat="40.9925413067956" lon="9.139398740871888"><ele>446.0</ele><time>2026-04-26T09:33:19Z</time></trkpt><trkpt lat="40.992316553292866" lon="9.139136216161765"><ele>446.0</ele><time>2026-04-26T09:33:20Z</time></trkpt><trkpt lat="40.99208319837647" lon="9.138890341580622"><ele>446.0</ele><time>2026-04-26T09:33:21Z</time></trkpt><trkpt lat="40.99184787049087" lon="9.138643914738791"><ele>446.0</ele><time>2026-04-26T09:33:22Z</time></trkpt><trkpt lat="40.99160666309981" lon="9.138417927307932"><ele>445.5</ele><time>2026-04-26T09:33:23Z</time></trkpt><trkpt lat="40.99138798009516" lon="9.13818748028178"><ele>445.0</ele><time>2026-04-26T09:33:24Z</time></trkpt><trkpt lat="40.99117697210141" lon="9.137965594079803"><ele>445.0</ele><time>2026-04-26T09:33:25Z</time></trkpt><trkpt lat="40.990970540760614" lon="9.137750132626364"><ele>445.0</ele><time>2026-04-26T09:33:26Z</time></trkpt><trkpt lat="40.990769943004004" lon="9.137540088876062"><ele>446.0</ele><time>2026-04-26T09:33:27Z</time></trkpt><trkpt lat="40.99057206216474" lon="9.137332631476351"><ele>447.0</ele><time>2026-04-26T09:33:28Z</time></trkpt><trkpt lat="40.990366578216644" lon="9.137116084891407"><ele>447.0</ele><time>2026-04-26T09:33:29Z</time></trkpt><trkpt lat="40.99015354258201" lon="9.13688934638933"><ele>447.0</ele><time>2026-04-26T09:33:30Z</time></trkpt><trkpt lat="40.98993393457637" lon="9.136661391652545"><ele>445.5</ele><time>2026-04-26T09:33:31Z</time></trkpt><trkpt lat="40.98972247518927" lon="9.13641169852541"><ele>444.0</ele><time>2026-04-26T09:33:32Z</time></trkpt><trkpt lat="40.989500466239676" lon="9.136206691131884"><ele>444.0</ele><time>2026-04-26T09:33:33Z</time></trkpt><trkpt lat="40.989305168626004" lon="9.135996161126636"><ele>444.0</ele><time>2026-04-26T09:33:34Z</time></trkpt><trkpt lat="40.98911275013226" lon="9.135793552900875"><ele>442.0</ele><time>2026-04-26T09:33:35Z</time></trkpt><trkpt lat="40.988920417357406" lon="9.135590194798084"><ele>440.0</ele><time>2026-04-26T09:33:36Z</time></trkpt><trkpt lat="40.988729548449754" lon="9.135389829140454"><ele>440.0</ele><time>2026-04-26T09:33:37Z</time></trkpt><trkpt lat="40.98853254013535" lon="9.135177360566464"><ele>440.0</ele><time>2026-04-26T09:33:38Z</time></trkpt><trkpt lat="40.98834133691662" lon="9.13497609015942"><ele>441.0</ele><time>2026-04-26T09:33:39Z</time></trkpt><trkpt lat="40.9881636041609" lon="9.134785978265795"><ele>442.0</ele><time>2026-04-26T09:33:40Z</time></trkpt><trkpt lat="40.98799284203108" lon="9.134609759009992"><ele>443.0</ele><time>2026-04-26T09:33:41Z</time></trkpt><trkpt lat="40.98782141707151" lon="9.13443302240596"><ele>443.0</ele><time>2026-04-26T09:33:42Z</time></trkpt><trkpt lat="40.9876456674194" lon="9.134247182543364"><ele>443.0</ele><time>2026-04-26T09:33:43Z</time></trkpt><trkpt lat="40.98745539917959" lon="9.13404676107696"><ele>442.0</ele><time>2026-04-26T09:33:44Z</time></trkpt><trkpt lat="40.987257862732534" lon="9.133834305598466"><ele>441.0</ele><time>2026-04-26T09:33:45Z</time></trkpt><trkpt lat="40.987055101739195" lon="9.133619271040436"><ele>441.0</ele><time>2026-04-26T09:33:46Z</time></trkpt><trkpt lat="40.98684473536663" lon="9.133399486113003"><ele>441.0</ele><time>2026-04-26T09:33:47Z</time></trkpt><trkpt lat="40.98662881321605" lon="9.133173659349364"><ele>441.5</ele><time>2026-04-26T09:33:48Z</time></trkpt><trkpt lat="40.9864108190974" lon="9.13294146162817"><ele>442.0</ele><time>2026-04-26T09:33:49Z</time></trkpt><trkpt lat="40.98618491562776" lon="9.13270346655856"><ele>442.0</ele><time>2026-04-26T09:33:50Z</time></trkpt><trkpt lat="40.98595666938615" lon="9.132464998533841"><ele>442.0</ele><time>2026-04-26T09:33:51Z</time></trkpt><trkpt lat="40.98572611056051" lon="9.132223528715722"><ele>440.0</ele><time>2026-04-26T09:33:52Z</time></trkpt><trkpt lat="40.98549494715364" lon="9.13198005938918"><ele>438.0</ele><time>2026-04-26T09:33:53Z</time></trkpt><trkpt lat="40.985265708969614" lon="9.131738745799275"><ele>438.5</ele><time>2026-04-26T09:33:54Z</time></trkpt><trkpt lat="40.985054268664754" lon="9.131514182364084"><ele>439.0</ele><time>2026-04-26T09:33:55Z</time></trkpt><trkpt lat="40.98487972119144" lon="9.131333006794112"><ele>437.6666666666667</ele><time>2026-04-26T09:33:56Z</time></trkpt><trkpt lat="40.98474262692731" lon="9.131186156292554"><ele>436.33333333333337</ele><time>2026-04-26T09:33:57Z</time></trkpt><trkpt lat="40.98462638878601" lon="9.131063026919696"><ele>435.0</ele><time>2026-04-26T09:33:58Z</time></trkpt><trkpt lat="40.98451636019643" lon="9.130949098459112"><ele>435.0</ele><time>2026-04-26T09:33:59Z</time></trkpt><trkpt lat="40.984402726295016" lon="9.13082555874851"><ele>435.0</ele><time>2026-04-26T09:34:00Z</time></trkpt><trkpt lat="40.98428933926354" lon="9.130706560706264"><ele>435.0</ele><time>2026-04-26T09:34:01Z</time></trkpt><trkpt lat="40.98416489661391" lon="9.13057718841616"><ele>436.33333333333337</ele><time>2026-04-26T09:34:02Z</time></trkpt><trkpt lat="40.9840262765207" lon="9.130435462072581"><ele>437.6666666666667</ele><time>2026-04-26T09:34:03Z</time></trkpt><trkpt lat="40.983873079291904" lon="9.13027911608541"><ele>439.0</ele><time>2026-04-26T09:34:04Z</time></trkpt><trkpt lat="40.98371061798066" lon="9.13010575566692"><ele>439.0</ele><time>2026-04-26T09:34:05Z</time></trkpt><trkpt lat="40.983545342098296" lon="9.129915107815888"><ele>439.0</ele><time>2026-04-26T09:34:06Z</time></trkpt><trkpt lat="40.983372134580755" lon="9.129690566504639"><ele>437.0</ele><time>2026-04-26T09:34:06.999Z</time></trkpt><trkpt lat="40.98319510410498" lon="9.129464455452029"><ele>435.0</ele><time>2026-04-26T09:34:07.999Z</time></trkpt><trkpt lat="40.98301402054278" lon="9.129226960227419"><ele>438.0</ele><time>2026-04-26T09:34:08.999Z</time></trkpt><trkpt lat="40.982828632140574" lon="9.128987828112967"><ele>441.0</ele><time>2026-04-26T09:34:09.999Z</time></trkpt><trkpt lat="40.982638532833036" lon="9.128743815871454"><ele>438.5</ele><time>2026-04-26T09:34:11Z</time></trkpt><trkpt lat="40.98244200311021" lon="9.12848687916064"><ele>436.0</ele><time>2026-04-26T09:34:12Z</time></trkpt><trkpt lat="40.98223919111946" lon="9.128226403855686"><ele>436.0</ele><time>2026-04-26T09:34:13Z</time></trkpt><trkpt lat="40.98203449158496" lon="9.127961010026736"><ele>436.0</ele><time>2026-04-26T09:34:14Z</time></trkpt><trkpt lat="40.98183942499684" lon="9.127702986660218"><ele>430.5</ele><time>2026-04-26T09:34:15Z</time></trkpt><trkpt lat="40.98165113982843" lon="9.127452308305998"><ele>425.0</ele><time>2026-04-26T09:34:16Z</time></trkpt><trkpt lat="40.981459265467855" lon="9.127206037940741"><ele>425.0</ele><time>2026-04-26T09:34:17Z</time></trkpt><trkpt lat="40.98127333633799" lon="9.126960804684877"><ele>425.0</ele><time>2026-04-26T09:34:18Z</time></trkpt><trkpt lat="40.9810876943408" lon="9.126718140526545"><ele>424.5</ele><time>2026-04-26T09:34:19Z</time></trkpt><trkpt lat="40.980907241212684" lon="9.126483916929935"><ele>424.0</ele><time>2026-04-26T09:34:20Z</time></trkpt><trkpt lat="40.98072921323881" lon="9.126250281385465"><ele>421.0</ele><time>2026-04-26T09:34:21Z</time></trkpt><trkpt lat="40.980548913638906" lon="9.12601261650177"><ele>418.0</ele><time>2026-04-26T09:34:22Z</time></trkpt><trkpt lat="40.98036311928023" lon="9.125767550976672"><ele>416.5</ele><time>2026-04-26T09:34:23Z</time></trkpt><trkpt lat="40.98017416603136" lon="9.125524923894854"><ele>415.0</ele><time>2026-04-26T09:34:24Z</time></trkpt><trkpt lat="40.97998353175268" lon="9.12527584403946"><ele>414.5</ele><time>2026-04-26T09:34:25Z</time></trkpt><trkpt lat="40.9797894885669" lon="9.125023227534257"><ele>414.0</ele><time>2026-04-26T09:34:26Z</time></trkpt><trkpt lat="40.979593103760756" lon="9.124768924834251"><ele>415.5</ele><time>2026-04-26T09:34:27Z</time></trkpt><trkpt lat="40.97939365237343" lon="9.124511784778436"><ele>417.0</ele><time>2026-04-26T09:34:28Z</time></trkpt><trkpt lat="40.979193429797505" lon="9.12424802830839"><ele>415.0</ele><time>2026-04-26T09:34:29Z</time></trkpt><trkpt lat="40.9789909860757" lon="9.123984462267163"><ele>413.0</ele><time>2026-04-26T09:34:30Z</time></trkpt><trkpt lat="40.9787912483822" lon="9.123719782879673"><ele>413.0</ele><time>2026-04-26T09:34:31Z</time></trkpt><trkpt lat="40.978589903835555" lon="9.123460447952352"><ele>413.0</ele><time>2026-04-26T09:34:32Z</time></trkpt><trkpt lat="40.97839443846424" lon="9.123204076874341"><ele>414.5</ele><time>2026-04-26T09:34:33Z</time></trkpt><trkpt lat="40.97821329186775" lon="9.122966863716945"><ele>416.0</ele><time>2026-04-26T09:34:34Z</time></trkpt><trkpt lat="40.97804164911984" lon="9.122743787690988"><ele>416.0</ele><time>2026-04-26T09:34:35Z</time></trkpt><trkpt lat="40.97787784299581" lon="9.12253355427437"><ele>416.0</ele><time>2026-04-26T09:34:36Z</time></trkpt><trkpt lat="40.97771646819511" lon="9.122317981086846"><ele>417.0</ele><time>2026-04-26T09:34:37Z</time></trkpt><trkpt lat="40.97754179146567" lon="9.122093535088348"><ele>418.0</ele><time>2026-04-26T09:34:38Z</time></trkpt><trkpt lat="40.97737210549057" lon="9.121870502176321"><ele>416.5</ele><time>2026-04-26T09:34:39Z</time></trkpt><trkpt lat="40.97720489566406" lon="9.1216524896417"><ele>415.0</ele><time>2026-04-26T09:34:40Z</time></trkpt><trkpt lat="40.97703292669716" lon="9.121434859398727"><ele>415.0</ele><time>2026-04-26T09:34:41Z</time></trkpt><trkpt lat="40.97686630108317" lon="9.12122121562933"><ele>415.0</ele><time>2026-04-26T09:34:42Z</time></trkpt><trkpt lat="40.976707051717746" lon="9.121024218115627"><ele>414.75</ele><time>2026-04-26T09:34:43Z</time></trkpt><trkpt lat="40.97658005236576" lon="9.120865638203439"><ele>414.5</ele><time>2026-04-26T09:34:44Z</time></trkpt><trkpt lat="40.976475042110074" lon="9.120737072379502"><ele>414.25</ele><time>2026-04-26T09:34:45Z</time></trkpt><trkpt lat="40.976388242761416" lon="9.120626137954696"><ele>414.0</ele><time>2026-04-26T09:34:46Z</time></trkpt><trkpt lat="40.976307645326195" lon="9.120531437238602"><ele>414.0</ele><time>2026-04-26T09:34:47Z</time></trkpt><trkpt lat="40.976224589208776" lon="9.120431258083778"><ele>414.0</ele><time>2026-04-26T09:34:48Z</time></trkpt><trkpt lat="40.97613613452414" lon="9.120303329320503"><ele>414.0</ele><time>2026-04-26T09:34:49Z</time></trkpt><trkpt lat="40.97603503590668" lon="9.120157954941886"><ele>414.0</ele><time>2026-04-26T09:34:50Z</time></trkpt><trkpt lat="40.975912708481445" lon="9.120003469325207"><ele>413.33333333333337</ele><time>2026-04-26T09:34:51Z</time></trkpt><trkpt lat="40.97577638876343" lon="9.119827712775185"><ele>412.6666666666667</ele><time>2026-04-26T09:34:52Z</time></trkpt><trkpt lat="40.97562751005572" lon="9.11963938373665"><ele>412.0</ele><time>2026-04-26T09:34:53Z</time></trkpt><trkpt lat="40.975473943971515" lon="9.119434260060721"><ele>412.0</ele><time>2026-04-26T09:34:54Z</time></trkpt><trkpt lat="40.975311082068814" lon="9.119226124540953"><ele>412.0</ele><time>2026-04-26T09:34:55Z</time></trkpt><trkpt lat="40.975140338820445" lon="9.119006249248217"><ele>412.0</ele><time>2026-04-26T09:34:56Z</time></trkpt><trkpt lat="40.97495563651998" lon="9.118786096553947"><ele>412.0</ele><time>2026-04-26T09:34:57Z</time></trkpt><trkpt lat="40.9747557057474" lon="9.118571547653957"><ele>412.0</ele><time>2026-04-26T09:34:58Z</time></trkpt><trkpt lat="40.974544109654325" lon="9.118356209081282"><ele>412.0</ele><time>2026-04-26T09:34:59Z</time></trkpt><trkpt lat="40.974346819733576" lon="9.118155489630587"><ele>409.0</ele><time>2026-04-26T09:35:00Z</time></trkpt><trkpt lat="40.97415655310642" lon="9.117973801002021"><ele>406.0</ele><time>2026-04-26T09:35:01Z</time></trkpt><trkpt lat="40.97398087068867" lon="9.117785099626621"><ele>406.0</ele><time>2026-04-26T09:35:02Z</time></trkpt><trkpt lat="40.97380618282042" lon="9.117605648719795"><ele>406.0</ele><time>2026-04-26T09:35:03Z</time></trkpt><trkpt lat="40.973627344838064" lon="9.11742555281193"><ele>406.0</ele><time>2026-04-26T09:35:04Z</time></trkpt><trkpt lat="40.97345294338741" lon="9.117246448592107"><ele>404.6666666666667</ele><time>2026-04-26T09:35:05Z</time></trkpt><trkpt lat="40.97327902414818" lon="9.117068788158036"><ele>403.33333333333337</ele><time>2026-04-26T09:35:06Z</time></trkpt><trkpt lat="40.973104139197766" lon="9.11689161865265"><ele>402.0</ele><time>2026-04-26T09:35:07Z</time></trkpt><trkpt lat="40.97293184793255" lon="9.11671246261217"><ele>402.5</ele><time>2026-04-26T09:35:08Z</time></trkpt><trkpt lat="40.97275074126521" lon="9.116530918083573"><ele>403.0</ele><time>2026-04-26T09:35:09Z</time></trkpt><trkpt lat="40.97256915895962" lon="9.116350635360345"><ele>403.0</ele><time>2026-04-26T09:35:10Z</time></trkpt><trkpt lat="40.97238604383252" lon="9.116166692733303"><ele>403.0</ele><time>2026-04-26T09:35:11Z</time></trkpt><trkpt lat="40.97220523344595" lon="9.115985159746215"><ele>403.0</ele><time>2026-04-26T09:35:12Z</time></trkpt><trkpt lat="40.97203054210929" lon="9.115809867990935"><ele>403.0</ele><time>2026-04-26T09:35:13Z</time></trkpt><trkpt lat="40.97186624711619" lon="9.115646089359753"><ele>403.0</ele><time>2026-04-26T09:35:14Z</time></trkpt><trkpt lat="40.97170780288521" lon="9.115490884999053"><ele>402.6666666666667</ele><time>2026-04-26T09:35:15Z</time></trkpt><trkpt lat="40.97155519229068" lon="9.115339859563472"><ele>402.33333333333337</ele><time>2026-04-26T09:35:16Z</time></trkpt><trkpt lat="40.97141746205632" lon="9.115175421532662"><ele>402.0</ele><time>2026-04-26T09:35:17Z</time></trkpt><trkpt lat="40.971272538757226" lon="9.11502853026994"><ele>403.0</ele><time>2026-04-26T09:35:18Z</time></trkpt><trkpt lat="40.971131948342254" lon="9.114886030737386"><ele>404.0</ele><time>2026-04-26T09:35:19Z</time></trkpt><trkpt lat="40.97099283743211" lon="9.11474503079088"><ele>405.0</ele><time>2026-04-26T09:35:20Z</time></trkpt><trkpt lat="40.970854041152045" lon="9.114604449563132"><ele>403.0</ele><time>2026-04-26T09:35:21Z</time></trkpt><trkpt lat="40.97072055836529" lon="9.114469316441049"><ele>401.0</ele><time>2026-04-26T09:35:22Z</time></trkpt><trkpt lat="40.970591801460294" lon="9.114338967634103"><ele>399.0</ele><time>2026-04-26T09:35:23Z</time></trkpt><trkpt lat="40.97045952531291" lon="9.114205056073093"><ele>399.66666666666663</ele><time>2026-04-26T09:35:24Z</time></trkpt><trkpt lat="40.97032018953093" lon="9.114063997594778"><ele>400.3333333333333</ele><time>2026-04-26T09:35:25Z</time></trkpt><trkpt lat="40.970173433773205" lon="9.113915427401675"><ele>401.0</ele><time>2026-04-26T09:35:26Z</time></trkpt><trkpt lat="40.97000779492648" lon="9.11376675128389"><ele>401.0</ele><time>2026-04-26T09:35:27Z</time></trkpt><trkpt lat="40.969836779622376" lon="9.113589152060595"><ele>401.0</ele><time>2026-04-26T09:35:28Z</time></trkpt><trkpt lat="40.96965457991783" lon="9.113402328295937"><ele>401.0</ele><time>2026-04-26T09:35:29Z</time></trkpt><trkpt lat="40.96946264814839" lon="9.113208869966602"><ele>401.5</ele><time>2026-04-26T09:35:30Z</time></trkpt><trkpt lat="40.969262046090314" lon="9.11300691004653"><ele>402.0</ele><time>2026-04-26T09:35:31Z</time></trkpt><trkpt lat="40.96905361098478" lon="9.112797725094817"><ele>402.0</ele><time>2026-04-26T09:35:32Z</time></trkpt><trkpt lat="40.96884114153316" lon="9.112582792897248"><ele>402.0</ele><time>2026-04-26T09:35:33Z</time></trkpt><trkpt lat="40.96862303483586" lon="9.112361929410019"><ele>402.0</ele><time>2026-04-26T09:35:34Z</time></trkpt><trkpt lat="40.968399566883996" lon="9.11213725658908"><ele>402.0</ele><time>2026-04-26T09:35:35Z</time></trkpt><trkpt lat="40.96817164959426" lon="9.111906481228475"><ele>401.0</ele><time>2026-04-26T09:35:36Z</time></trkpt><trkpt lat="40.96794129464525" lon="9.111674630762455"><ele>400.0</ele><time>2026-04-26T09:35:37Z</time></trkpt><trkpt lat="40.967720761431394" lon="9.111453661481802"><ele>401.0</ele><time>2026-04-26T09:35:38Z</time></trkpt><trkpt lat="40.967501065366356" lon="9.111234638373721"><ele>402.0</ele><time>2026-04-26T09:35:39Z</time></trkpt><trkpt lat="40.96727992794352" lon="9.11101155542656"><ele>402.0</ele><time>2026-04-26T09:35:40Z</time></trkpt><trkpt lat="40.96705330556022" lon="9.110782370439377"><ele>402.0</ele><time>2026-04-26T09:35:41Z</time></trkpt><trkpt lat="40.966822480573654" lon="9.110550548121095"><ele>402.0</ele><time>2026-04-26T09:35:42Z</time></trkpt><trkpt lat="40.96659725725663" lon="9.110322486472866"><ele>402.0</ele><time>2026-04-26T09:35:43Z</time></trkpt><trkpt lat="40.966388569152734" lon="9.110114496063643"><ele>402.0</ele><time>2026-04-26T09:35:44Z</time></trkpt><trkpt lat="40.96619041342635" lon="9.109915238733347"><ele>402.0</ele><time>2026-04-26T09:35:45Z</time></trkpt><trkpt lat="40.965995648550525" lon="9.109716038436643"><ele>403.0</ele><time>2026-04-26T09:35:46Z</time></trkpt><trkpt lat="40.9657925384463" lon="9.109506777414733"><ele>404.0</ele><time>2026-04-26T09:35:47Z</time></trkpt><trkpt lat="40.96558498400523" lon="9.109296579295611"><ele>404.0</ele><time>2026-04-26T09:35:48Z</time></trkpt><trkpt lat="40.965370112496316" lon="9.109081323223991"><ele>404.0</ele><time>2026-04-26T09:35:49Z</time></trkpt><trkpt lat="40.965152978498935" lon="9.108862006330819"><ele>403.0</ele><time>2026-04-26T09:35:50Z</time></trkpt><trkpt lat="40.96493570314326" lon="9.10864027127717"><ele>402.0</ele><time>2026-04-26T09:35:51Z</time></trkpt><trkpt lat="40.964718545448555" lon="9.108418741928023"><ele>400.5</ele><time>2026-04-26T09:35:52Z</time></trkpt><trkpt lat="40.964503334864915" lon="9.108201274065355"><ele>399.0</ele><time>2026-04-26T09:35:53Z</time></trkpt><trkpt lat="40.96429770204965" lon="9.107995965050417"><ele>399.5</ele><time>2026-04-26T09:35:54Z</time></trkpt><trkpt lat="40.964106145852355" lon="9.107805701308298"><ele>400.0</ele><time>2026-04-26T09:35:55Z</time></trkpt><trkpt lat="40.9639258798881" lon="9.107623425123595"><ele>400.0</ele><time>2026-04-26T09:35:56Z</time></trkpt><trkpt lat="40.96375908326032" lon="9.107443303722615"><ele>400.0</ele><time>2026-04-26T09:35:57Z</time></trkpt><trkpt lat="40.96360761470894" lon="9.107252700152287"><ele>400.0</ele><time>2026-04-26T09:35:57.999Z</time></trkpt><trkpt lat="40.96346581248784" lon="9.107027731767623"><ele>400.5</ele><time>2026-04-26T09:35:58.999Z</time></trkpt><trkpt lat="40.963322687000186" lon="9.10677098487002"><ele>401.0</ele><time>2026-04-26T09:35:59.999Z</time></trkpt><trkpt lat="40.963172214609266" lon="9.106506099342882"><ele>401.5</ele><time>2026-04-26T09:36:00.999Z</time></trkpt><trkpt lat="40.96301603660633" lon="9.106235842957087"><ele>402.0</ele><time>2026-04-26T09:36:01.999Z</time></trkpt><trkpt lat="40.96285312867309" lon="9.105959608204543"><ele>403.0</ele><time>2026-04-26T09:36:02.999Z</time></trkpt><trkpt lat="40.962694301581074" lon="9.105687355254204"><ele>404.0</ele><time>2026-04-26T09:36:03.999Z</time></trkpt><trkpt lat="40.962550015863464" lon="9.105439587756587"><ele>404.3333333333333</ele><time>2026-04-26T09:36:04.999Z</time></trkpt><trkpt lat="40.9624123622186" lon="9.105207418780944"><ele>404.66666666666663</ele><time>2026-04-26T09:36:05.999Z</time></trkpt><trkpt lat="40.96228187635191" lon="9.104987992296282"><ele>405.0</ele><time>2026-04-26T09:36:06.999Z</time></trkpt><trkpt lat="40.96215753416917" lon="9.10477782347117"><ele>406.0</ele><time>2026-04-26T09:36:07.999Z</time></trkpt><trkpt lat="40.96204078711765" lon="9.104577562070046"><ele>407.0</ele><time>2026-04-26T09:36:08.999Z</time></trkpt><trkpt lat="40.96193141606588" lon="9.104384651709939"><ele>408.0</ele><time>2026-04-26T09:36:09.999Z</time></trkpt><trkpt lat="40.96182532701972" lon="9.104205822262498"><ele>408.33333333333337</ele><time>2026-04-26T09:36:10.999Z</time></trkpt><trkpt lat="40.96171137215011" lon="9.104059186975446"><ele>408.6666666666667</ele><time>2026-04-26T09:36:11.999Z</time></trkpt><trkpt lat="40.96158573787681" lon="9.103951829918358"><ele>409.0</ele><time>2026-04-26T09:36:12.999Z</time></trkpt><trkpt lat="40.96143568531481" lon="9.103888165546852"><ele>409.0</ele><time>2026-04-26T09:36:13.999Z</time></trkpt><trkpt lat="40.96125729443813" lon="9.103852691069056"><ele>409.0</ele><time>2026-04-26T09:36:14.999Z</time></trkpt><trkpt lat="40.961059166613026" lon="9.103823157430408"><ele>409.0</ele><time>2026-04-26T09:36:15.999Z</time></trkpt><trkpt lat="40.960849498567335" lon="9.103781215011894"><ele>410.0</ele><time>2026-04-26T09:36:17Z</time></trkpt><trkpt lat="40.96064323531107" lon="9.10373511190929"><ele>411.0</ele><time>2026-04-26T09:36:18Z</time></trkpt><trkpt lat="40.960453978215284" lon="9.103690368167506"><ele>412.0</ele><time>2026-04-26T09:36:19Z</time></trkpt><trkpt lat="40.96027862972686" lon="9.103647344908117"><ele>412.0</ele><time>2026-04-26T09:36:20Z</time></trkpt><trkpt lat="40.96011212811015" lon="9.103594945454164"><ele>412.0</ele><time>2026-04-26T09:36:21Z</time></trkpt><trkpt lat="40.959952444128355" lon="9.103513857687814"><ele>412.0</ele><time>2026-04-26T09:36:22Z</time></trkpt><trkpt lat="40.95978426178604" lon="9.10340281118596"><ele>412.0</ele><time>2026-04-26T09:36:23Z</time></trkpt><trkpt lat="40.95960361101141" lon="9.103254783657613"><ele>412.0</ele><time>2026-04-26T09:36:24Z</time></trkpt><trkpt lat="40.95940956068929" lon="9.10310279508388"><ele>412.0</ele><time>2026-04-26T09:36:25Z</time></trkpt><trkpt lat="40.95920794093682" lon="9.102945770355234"><ele>411.0</ele><time>2026-04-26T09:36:26Z</time></trkpt><trkpt lat="40.95902078775827" lon="9.10280295522187"><ele>410.0</ele><time>2026-04-26T09:36:27Z</time></trkpt><trkpt lat="40.95884361642405" lon="9.102661677679007"><ele>409.0</ele><time>2026-04-26T09:36:28Z</time></trkpt><trkpt lat="40.9586653661722" lon="9.10252668778076"><ele>409.33333333333337</ele><time>2026-04-26T09:36:29Z</time></trkpt><trkpt lat="40.958489687577604" lon="9.102394571707254"><ele>409.66666666666663</ele><time>2026-04-26T09:36:30Z</time></trkpt><trkpt lat="40.958316850664794" lon="9.102264569716068"><ele>410.0</ele><time>2026-04-26T09:36:31Z</time></trkpt><trkpt lat="40.95814675064139" lon="9.102133153670861"><ele>409.3333333333333</ele><time>2026-04-26T09:36:32Z</time></trkpt><trkpt lat="40.95798005382147" lon="9.102001713455605"><ele>408.66666666666663</ele><time>2026-04-26T09:36:33Z</time></trkpt><trkpt lat="40.957806731512406" lon="9.101870564855613"><ele>408.0</ele><time>2026-04-26T09:36:34Z</time></trkpt><trkpt lat="40.957631508113096" lon="9.101737881014982"><ele>408.33333333333337</ele><time>2026-04-26T09:36:35Z</time></trkpt><trkpt lat="40.957452099765185" lon="9.101600053558098"><ele>408.6666666666667</ele><time>2026-04-26T09:36:36Z</time></trkpt><trkpt lat="40.957267055970725" lon="9.101457737284862"><ele>409.0</ele><time>2026-04-26T09:36:37Z</time></trkpt><trkpt lat="40.95707290618058" lon="9.101309902465706"><ele>409.0</ele><time>2026-04-26T09:36:38Z</time></trkpt><trkpt lat="40.95687890639451" lon="9.101163809158772"><ele>409.0</ele><time>2026-04-26T09:36:39Z</time></trkpt><trkpt lat="40.956684629477124" lon="9.10101702794477"><ele>409.0</ele><time>2026-04-26T09:36:40Z</time></trkpt><trkpt lat="40.956481246146126" lon="9.100861966551243"><ele>409.0</ele><time>2026-04-26T09:36:41Z</time></trkpt><trkpt lat="40.95627155061395" lon="9.1007021500944"><ele>409.0</ele><time>2026-04-26T09:36:42Z</time></trkpt><trkpt lat="40.956058520917104" lon="9.100544741483606"><ele>411.0</ele><time>2026-04-26T09:36:43Z</time></trkpt><trkpt lat="40.95585269569671" lon="9.100390322527913"><ele>413.0</ele><time>2026-04-26T09:36:44Z</time></trkpt><trkpt lat="40.95564004010001" lon="9.100226784857748"><ele>413.0</ele><time>2026-04-26T09:36:45Z</time></trkpt><trkpt lat="40.955420022755845" lon="9.10005775310689"><ele>413.0</ele><time>2026-04-26T09:36:46Z</time></trkpt><trkpt lat="40.955193498844494" lon="9.099883676560077"><ele>413.5</ele><time>2026-04-26T09:36:47Z</time></trkpt><trkpt lat="40.954961326237765" lon="9.099706129368505"><ele>414.0</ele><time>2026-04-26T09:36:48Z</time></trkpt><trkpt lat="40.95472833290577" lon="9.099527000502425"><ele>414.0</ele><time>2026-04-26T09:36:49Z</time></trkpt><trkpt lat="40.95449766308549" lon="9.099349116042294"><ele>414.0</ele><time>2026-04-26T09:36:50Z</time></trkpt><trkpt lat="40.95428487690931" lon="9.099186235520204"><ele>415.5</ele><time>2026-04-26T09:36:51Z</time></trkpt><trkpt lat="40.954083127368506" lon="9.099035412280195"><ele>417.0</ele><time>2026-04-26T09:36:52Z</time></trkpt><trkpt lat="40.95388653022486" lon="9.098886080736243"><ele>417.0</ele><time>2026-04-26T09:36:53Z</time></trkpt><trkpt lat="40.953693421840185" lon="9.098734651697631"><ele>417.0</ele><time>2026-04-26T09:36:54Z</time></trkpt><trkpt lat="40.95350994594207" lon="9.098589038760215"><ele>417.0</ele><time>2026-04-26T09:36:55Z</time></trkpt><trkpt lat="40.95333749139065" lon="9.098453200771448"><ele>417.66666666666663</ele><time>2026-04-26T09:36:56Z</time></trkpt><trkpt lat="40.95316437398805" lon="9.09832265199216"><ele>418.3333333333333</ele><time>2026-04-26T09:36:57Z</time></trkpt><trkpt lat="40.952993474377415" lon="9.098200031673663"><ele>419.0</ele><time>2026-04-26T09:36:58Z</time></trkpt><trkpt lat="40.95283598772627" lon="9.098078661080114"><ele>418.66666666666663</ele><time>2026-04-26T09:36:59Z</time></trkpt><trkpt lat="40.95270180055275" lon="9.097948764870395"><ele>418.33333333333337</ele><time>2026-04-26T09:37:00Z</time></trkpt><trkpt lat="40.95259459643268" lon="9.097788996440723"><ele>418.0</ele><time>2026-04-26T09:37:01Z</time></trkpt><trkpt lat="40.952519590050024" lon="9.097599408978782"><ele>418.33333333333337</ele><time>2026-04-26T09:37:02Z</time></trkpt><trkpt lat="40.95251442501514" lon="9.097367004070987"><ele>418.66666666666663</ele><time>2026-04-26T09:37:03Z</time></trkpt><trkpt lat="40.95247643635341" lon="9.097117213056258"><ele>419.0</ele><time>2026-04-26T09:37:04Z</time></trkpt><trkpt lat="40.95243690775239" lon="9.096845609011407"><ele>419.0</ele><time>2026-04-26T09:37:05Z</time></trkpt><trkpt lat="40.952384023789705" lon="9.096595824084039"><ele>419.0</ele><time>2026-04-26T09:37:06Z</time></trkpt><trkpt lat="40.95235988076299" lon="9.096389105341428"><ele>419.0</ele><time>2026-04-26T09:37:07Z</time></trkpt><trkpt lat="40.95232984712748" lon="9.096203441433074"><ele>419.6</ele><time>2026-04-26T09:37:08Z</time></trkpt><trkpt lat="40.952285928849456" lon="9.096064357855722"><ele>420.2</ele><time>2026-04-26T09:37:09Z</time></trkpt><trkpt lat="40.95220721789514" lon="9.095972137800434"><ele>420.8</ele><time>2026-04-26T09:37:10Z</time></trkpt><trkpt lat="40.95211365296937" lon="9.095936519884964"><ele>421.40000000000003</ele><time>2026-04-26T09:37:11Z</time></trkpt><trkpt lat="40.95200267504291" lon="9.095953096894144"><ele>422.0</ele><time>2026-04-26T09:37:12Z</time></trkpt><trkpt lat="40.95187255587294" lon="9.096020101145767"><ele>422.0</ele><time>2026-04-26T09:37:13Z</time></trkpt><trkpt lat="40.95172766585399" lon="9.09610839691042"><ele>422.0</ele><time>2026-04-26T09:37:14Z</time></trkpt><trkpt lat="40.95156108554684" lon="9.096199520026598"><ele>422.0</ele><time>2026-04-26T09:37:15Z</time></trkpt><trkpt lat="40.95138705458316" lon="9.096295362278203"><ele>422.0</ele><time>2026-04-26T09:37:16Z</time></trkpt><trkpt lat="40.95122397390224" lon="9.096384996590713"><ele>422.0</ele><time>2026-04-26T09:37:17Z</time></trkpt><trkpt lat="40.95107412508981" lon="9.09646018616383"><ele>422.0</ele><time>2026-04-26T09:37:18Z</time></trkpt><trkpt lat="40.95092958477838" lon="9.096501303049193"><ele>423.75</ele><time>2026-04-26T09:37:19Z</time></trkpt><trkpt lat="40.95080051111185" lon="9.096491366536897"><ele>425.5</ele><time>2026-04-26T09:37:20Z</time></trkpt><trkpt lat="40.95067167930919" lon="9.09643243494117"><ele>427.25</ele><time>2026-04-26T09:37:21Z</time></trkpt><trkpt lat="40.95055806558235" lon="9.096301171998027"><ele>429.0</ele><time>2026-04-26T09:37:22Z</time></trkpt><trkpt lat="40.950417847758324" lon="9.096164440111776"><ele>429.0</ele><time>2026-04-26T09:37:23Z</time></trkpt><trkpt lat="40.95026677200914" lon="9.096016387137405"><ele>429.0</ele><time>2026-04-26T09:37:24Z</time></trkpt><trkpt lat="40.95010239026495" lon="9.095852834646426"><ele>429.0</ele><time>2026-04-26T09:37:25Z</time></trkpt><trkpt lat="40.94992075526297" lon="9.095694045800071"><ele>429.5</ele><time>2026-04-26T09:37:26Z</time></trkpt><trkpt lat="40.94974562707573" lon="9.095506269638571"><ele>430.0</ele><time>2026-04-26T09:37:27Z</time></trkpt><trkpt lat="40.949556259327004" lon="9.095317882428024"><ele>430.0</ele><time>2026-04-26T09:37:28Z</time></trkpt><trkpt lat="40.94936923938162" lon="9.095132568006386"><ele>430.0</ele><time>2026-04-26T09:37:29Z</time></trkpt><trkpt lat="40.949196521951805" lon="9.094960464332022"><ele>430.6666666666667</ele><time>2026-04-26T09:37:30Z</time></trkpt><trkpt lat="40.949030908100355" lon="9.094797525669334"><ele>431.33333333333337</ele><time>2026-04-26T09:37:31Z</time></trkpt><trkpt lat="40.948874168216435" lon="9.094649563097235"><ele>432.0</ele><time>2026-04-26T09:37:32Z</time></trkpt><trkpt lat="40.94873131614889" lon="9.094506345520818"><ele>432.0</ele><time>2026-04-26T09:37:33Z</time></trkpt><trkpt lat="40.94863333808978" lon="9.094330358356402"><ele>432.0</ele><time>2026-04-26T09:37:34Z</time></trkpt><trkpt lat="40.94853613227665" lon="9.094138163951962"><ele>432.0</ele><time>2026-04-26T09:37:35Z</time></trkpt><trkpt lat="40.94842467823129" lon="9.093915701234549"><ele>430.66666666666663</ele><time>2026-04-26T09:37:36Z</time></trkpt><trkpt lat="40.94830156398029" lon="9.093705149756424"><ele>429.3333333333333</ele><time>2026-04-26T09:37:37Z</time></trkpt><trkpt lat="40.948215623098484" lon="9.093483748324177"><ele>428.0</ele><time>2026-04-26T09:37:38Z</time></trkpt><trkpt lat="40.94813699162685" lon="9.093273797542972"><ele>428.0</ele><time>2026-04-26T09:37:39Z</time></trkpt><trkpt lat="40.94807998107681" lon="9.093054610140278"><ele>428.0</ele><time>2026-04-26T09:37:40Z</time></trkpt><trkpt lat="40.94804715767714" lon="9.092832049466065"><ele>428.0</ele><time>2026-04-26T09:37:41Z</time></trkpt><trkpt lat="40.948012450200956" lon="9.092614123546442"><ele>427.5</ele><time>2026-04-26T09:37:42Z</time></trkpt><trkpt lat="40.948005842350504" lon="9.092398120911279"><ele>427.0</ele><time>2026-04-26T09:37:43Z</time></trkpt><trkpt lat="40.947992561002984" lon="9.092212567631"><ele>426.5</ele><time>2026-04-26T09:37:44Z</time></trkpt><trkpt lat="40.947951671126134" lon="9.092062767035927"><ele>426.0</ele><time>2026-04-26T09:37:45Z</time></trkpt><trkpt lat="40.94787711062104" lon="9.091932302950884"><ele>426.0</ele><time>2026-04-26T09:37:46Z</time></trkpt><trkpt lat="40.94780220959014" lon="9.091797647695078"><ele>426.0</ele><time>2026-04-26T09:37:47Z</time></trkpt><trkpt lat="40.94781426780935" lon="9.091634039015704"><ele>426.0</ele><time>2026-04-26T09:37:48Z</time></trkpt><trkpt lat="40.94783530539068" lon="9.091460488144262"><ele>426.0</ele><time>2026-04-26T09:37:49Z</time></trkpt><trkpt lat="40.947820956049945" lon="9.091308802936613"><ele>425.75</ele><time>2026-04-26T09:37:50Z</time></trkpt><trkpt lat="40.947756874910176" lon="9.091177124517255"><ele>425.5</ele><time>2026-04-26T09:37:51Z</time></trkpt><trkpt lat="40.94765169503998" lon="9.091080832987236"><ele>425.25</ele><time>2026-04-26T09:37:52Z</time></trkpt><trkpt lat="40.94753606036468" lon="9.090997488949887"><ele>425.0</ele><time>2026-04-26T09:37:53Z</time></trkpt><trkpt lat="40.947473761603256" lon="9.090849654360321"><ele>423.0</ele><time>2026-04-26T09:37:54Z</time></trkpt><trkpt lat="40.94744365558559" lon="9.090670094387551"><ele>421.0</ele><time>2026-04-26T09:37:55Z</time></trkpt><trkpt lat="40.94739857316888" lon="9.090494824155614"><ele>419.0</ele><time>2026-04-26T09:37:56Z</time></trkpt><trkpt lat="40.94737550167654" lon="9.090348831804194"><ele>417.0</ele><time>2026-04-26T09:37:57Z</time></trkpt><trkpt lat="40.94730405909932" lon="9.090248218026808"><ele>417.0</ele><time>2026-04-26T09:37:58Z</time></trkpt><trkpt lat="40.94720244481885" lon="9.09020189352326"><ele>417.0</ele><time>2026-04-26T09:37:59Z</time></trkpt><trkpt lat="40.94708774123261" lon="9.090207045227691"><ele>417.0</ele><time>2026-04-26T09:38:00Z</time></trkpt><trkpt lat="40.946996678261904" lon="9.090213584201985"><ele>417.0</ele><time>2026-04-26T09:38:01Z</time></trkpt><trkpt lat="40.94692584550716" lon="9.090173415480862"><ele>417.0</ele><time>2026-04-26T09:38:02Z</time></trkpt><trkpt lat="40.94689471779135" lon="9.090087557331373"><ele>417.0</ele><time>2026-04-26T09:38:03Z</time></trkpt><trkpt lat="40.94693223388094" lon="9.08998366477665"><ele>417.0</ele><time>2026-04-26T09:38:04Z</time></trkpt><trkpt lat="40.94694354051682" lon="9.089841441372029"><ele>417.0</ele><time>2026-04-26T09:38:05Z</time></trkpt><trkpt lat="40.94695561784698" lon="9.089664698921123"><ele>417.0</ele><time>2026-04-26T09:38:06Z</time></trkpt><trkpt lat="40.94694358756832" lon="9.0894618432397"><ele>417.25</ele><time>2026-04-26T09:38:07Z</time></trkpt><trkpt lat="40.94692432365852" lon="9.089266449292742"><ele>417.5</ele><time>2026-04-26T09:38:08Z</time></trkpt><trkpt lat="40.94687202023024" lon="9.08911287838588"><ele>417.75</ele><time>2026-04-26T09:38:09Z</time></trkpt><trkpt lat="40.946787394675226" lon="9.088981456087751"><ele>418.0</ele><time>2026-04-26T09:38:10Z</time></trkpt><trkpt lat="40.94667733279418" lon="9.088851515127557"><ele>420.0</ele><time>2026-04-26T09:38:11Z</time></trkpt><trkpt lat="40.94654690354291" lon="9.088710414582962"><ele>422.0</ele><time>2026-04-26T09:38:11.999Z</time></trkpt><trkpt lat="40.946406162876166" lon="9.088558492419303"><ele>424.0</ele><time>2026-04-26T09:38:12.999Z</time></trkpt><trkpt lat="40.94626200281081" lon="9.088394816046282"><ele>425.33333333333337</ele><time>2026-04-26T09:38:13.999Z</time></trkpt><trkpt lat="40.94612252233724" lon="9.088233144865711"><ele>426.66666666666663</ele><time>2026-04-26T09:38:14.999Z</time></trkpt><trkpt lat="40.94599900886975" lon="9.088089524778146"><ele>428.0</ele><time>2026-04-26T09:38:15.999Z</time></trkpt><trkpt lat="40.94588395737677" lon="9.0879662862282"><ele>429.0</ele><time>2026-04-26T09:38:16.999Z</time></trkpt><trkpt lat="40.945770996173536" lon="9.087865546883716"><ele>430.0</ele><time>2026-04-26T09:38:17.999Z</time></trkpt><trkpt lat="40.94564108778386" lon="9.08779747543539"><ele>431.0</ele><time>2026-04-26T09:38:18.999Z</time></trkpt><trkpt lat="40.94548306059701" lon="9.08774750216544"><ele>432.0</ele><time>2026-04-26T09:38:19.999Z</time></trkpt><trkpt lat="40.945307593165445" lon="9.087703841632115"><ele>432.0</ele><time>2026-04-26T09:38:20.999Z</time></trkpt><trkpt lat="40.94512058417482" lon="9.087654411197814"><ele>432.0</ele><time>2026-04-26T09:38:21.999Z</time></trkpt><trkpt lat="40.94492715734404" lon="9.08759392649747"><ele>432.0</ele><time>2026-04-26T09:38:23Z</time></trkpt><trkpt lat="40.94472240074536" lon="9.087529089931804"><ele>433.66666666666663</ele><time>2026-04-26T09:38:24Z</time></trkpt><trkpt lat="40.94451117863442" lon="9.087457213910207"><ele>435.3333333333333</ele><time>2026-04-26T09:38:25Z</time></trkpt><trkpt lat="40.944305976964515" lon="9.087389932112405"><ele>437.0</ele><time>2026-04-26T09:38:26Z</time></trkpt><trkpt lat="40.944106854823474" lon="9.087326898176773"><ele>439.66666666666663</ele><time>2026-04-26T09:38:27Z</time></trkpt><trkpt lat="40.943907201821084" lon="9.08726807563057"><ele>442.33333333333337</ele><time>2026-04-26T09:38:28Z</time></trkpt><trkpt lat="40.94371123480912" lon="9.087208215162626"><ele>445.0</ele><time>2026-04-26T09:38:29Z</time></trkpt><trkpt lat="40.94352970402976" lon="9.087154565352721"><ele>445.6666666666667</ele><time>2026-04-26T09:38:30Z</time></trkpt><trkpt lat="40.94335941664387" lon="9.087097967602096"><ele>446.33333333333337</ele><time>2026-04-26T09:38:31Z</time></trkpt><trkpt lat="40.94319324014701" lon="9.087031578236223"><ele>447.0</ele><time>2026-04-26T09:38:32Z</time></trkpt><trkpt lat="40.943039308538864" lon="9.086925832885193"><ele>447.0</ele><time>2026-04-26T09:38:33Z</time></trkpt><trkpt lat="40.942885780113926" lon="9.08682878404245"><ele>447.0</ele><time>2026-04-26T09:38:34Z</time></trkpt><trkpt lat="40.94274419937677" lon="9.086712164218099"><ele>447.0</ele><time>2026-04-26T09:38:35Z</time></trkpt><trkpt lat="40.94261518855965" lon="9.086595139969154"><ele>448.25</ele><time>2026-04-26T09:38:36Z</time></trkpt><trkpt lat="40.94250249736139" lon="9.086481071716442"><ele>449.5</ele><time>2026-04-26T09:38:37Z</time></trkpt><trkpt lat="40.942410991551405" lon="9.086357454327798"><ele>450.75</ele><time>2026-04-26T09:38:38Z</time></trkpt><trkpt lat="40.94234835917986" lon="9.086205588083757"><ele>452.0</ele><time>2026-04-26T09:38:39Z</time></trkpt><trkpt lat="40.94228057537529" lon="9.086024935166026"><ele>452.0</ele><time>2026-04-26T09:38:40Z</time></trkpt><trkpt lat="40.9422022439992" lon="9.085836063605731"><ele>452.0</ele><time>2026-04-26T09:38:41Z</time></trkpt><trkpt lat="40.94212254723229" lon="9.085611397322781"><ele>452.0</ele><time>2026-04-26T09:38:42Z</time></trkpt><trkpt lat="40.942037195005796" lon="9.085380320215837"><ele>453.66666666666663</ele><time>2026-04-26T09:38:43Z</time></trkpt><trkpt lat="40.94195590676993" lon="9.08513397547457"><ele>455.33333333333337</ele><time>2026-04-26T09:38:44Z</time></trkpt><trkpt lat="40.941874866904314" lon="9.08489391814087"><ele>457.0</ele><time>2026-04-26T09:38:45Z</time></trkpt><trkpt lat="40.941799864483606" lon="9.08467642329177"><ele>457.0</ele><time>2026-04-26T09:38:46Z</time></trkpt><trkpt lat="40.941728411471246" lon="9.084469426712515"><ele>457.0</ele><time>2026-04-26T09:38:47Z</time></trkpt><trkpt lat="40.94167740609429" lon="9.084267013880828"><ele>457.0</ele><time>2026-04-26T09:38:48Z</time></trkpt><trkpt lat="40.941618496646825" lon="9.084078233779627"><ele>458.25</ele><time>2026-04-26T09:38:49Z</time></trkpt><trkpt lat="40.94155880326385" lon="9.083913888587194"><ele>459.5</ele><time>2026-04-26T09:38:50Z</time></trkpt><trkpt lat="40.941553750757656" lon="9.083734632189161"><ele>460.75</ele><time>2026-04-26T09:38:51Z</time></trkpt><trkpt lat="40.941572060282944" lon="9.083553877520854"><ele>462.0</ele><time>2026-04-26T09:38:52Z</time></trkpt><trkpt lat="40.94157282542451" lon="9.083394790868697"><ele>463.5</ele><time>2026-04-26T09:38:53Z</time></trkpt><trkpt lat="40.94153484100797" lon="9.083253824032557"><ele>465.0</ele><time>2026-04-26T09:38:54Z</time></trkpt><trkpt lat="40.941461977234034" lon="9.083153362706986"><ele>466.5</ele><time>2026-04-26T09:38:55Z</time></trkpt><trkpt lat="40.94136441193834" lon="9.083095522501715"><ele>468.0</ele><time>2026-04-26T09:38:56Z</time></trkpt><trkpt lat="40.941234626215405" lon="9.083064755200109"><ele>468.0</ele><time>2026-04-26T09:38:57Z</time></trkpt><trkpt lat="40.94108264792318" lon="9.083047506473202"><ele>468.0</ele><time>2026-04-26T09:38:58Z</time></trkpt><trkpt lat="40.94094994310697" lon="9.083016520749766"><ele>468.0</ele><time>2026-04-26T09:38:59Z</time></trkpt><trkpt lat="40.9408446242731" lon="9.082922068154627"><ele>468.0</ele><time>2026-04-26T09:39:00Z</time></trkpt><trkpt lat="40.940766680047645" lon="9.08280995999056"><ele>467.33333333333337</ele><time>2026-04-26T09:39:01Z</time></trkpt><trkpt lat="40.94066693346808" lon="9.082666371887095"><ele>466.6666666666667</ele><time>2026-04-26T09:39:02Z</time></trkpt><trkpt lat="40.940581328703" lon="9.082471756603361"><ele>466.0</ele><time>2026-04-26T09:39:03Z</time></trkpt><trkpt lat="40.94050291215015" lon="9.082297849784888"><ele>467.75</ele><time>2026-04-26T09:39:04Z</time></trkpt><trkpt lat="40.940436783248906" lon="9.082148434528682"><ele>469.5</ele><time>2026-04-26T09:39:05Z</time></trkpt><trkpt lat="40.94037862987858" lon="9.082019964795778"><ele>471.25</ele><time>2026-04-26T09:39:06Z</time></trkpt><trkpt lat="40.94028121054899" lon="9.081942158376167"><ele>473.0</ele><time>2026-04-26T09:39:07Z</time></trkpt><trkpt lat="40.9401653840547" lon="9.081939189779662"><ele>473.0</ele><time>2026-04-26T09:39:08Z</time></trkpt><trkpt lat="40.94005499888735" lon="9.081964971367013"><ele>473.0</ele><time>2026-04-26T09:39:09Z</time></trkpt><trkpt lat="40.93994060455172" lon="9.082028833604364"><ele>473.0</ele><time>2026-04-26T09:39:10Z</time></trkpt><trkpt lat="40.93981335320295" lon="9.08211859955149"><ele>473.0</ele><time>2026-04-26T09:39:11Z</time></trkpt><trkpt lat="40.93969825499518" lon="9.082156046975244"><ele>473.5</ele><time>2026-04-26T09:39:12Z</time></trkpt><trkpt lat="40.93958987864825" lon="9.082179644208594"><ele>474.0</ele><time>2026-04-26T09:39:13Z</time></trkpt><trkpt lat="40.93950247622864" lon="9.082128167088857"><ele>474.5</ele><time>2026-04-26T09:39:14Z</time></trkpt><trkpt lat="40.93938273861944" lon="9.082067630763571"><ele>475.0</ele><time>2026-04-26T09:39:15Z</time></trkpt><trkpt lat="40.93924292934264" lon="9.08199045313719"><ele>475.6666666666667</ele><time>2026-04-26T09:39:16Z</time></trkpt><trkpt lat="40.93908302886113" lon="9.081909472929267"><ele>476.33333333333337</ele><time>2026-04-26T09:39:17Z</time></trkpt><trkpt lat="40.938929792131" lon="9.081833553596688"><ele>477.0</ele><time>2026-04-26T09:39:18Z</time></trkpt><trkpt lat="40.93881349644284" lon="9.081739468985104"><ele>477.0</ele><time>2026-04-26T09:39:19Z</time></trkpt><trkpt lat="40.938735766439436" lon="9.081647041020942"><ele>477.00000000000006</ele><time>2026-04-26T09:39:20Z</time></trkpt><trkpt lat="40.93869095707925" lon="9.081545180389593"><ele>477.00000000000006</ele><time>2026-04-26T09:39:21Z</time></trkpt><trkpt lat="40.9387023707171" lon="9.081420460469726"><ele>477.0</ele><time>2026-04-26T09:39:22Z</time></trkpt><trkpt lat="40.93869000465689" lon="9.081256125078477"><ele>477.0</ele><time>2026-04-26T09:39:23Z</time></trkpt><trkpt lat="40.93867746897747" lon="9.081043328125354"><ele>479.0</ele><time>2026-04-26T09:39:24Z</time></trkpt><trkpt lat="40.938657600320305" lon="9.08081587361041"><ele>481.0</ele><time>2026-04-26T09:39:25Z</time></trkpt><trkpt lat="40.93862596989692" lon="9.080610338247812"><ele>483.0</ele><time>2026-04-26T09:39:26Z</time></trkpt><trkpt lat="40.9386398599592" lon="9.080418134481924"><ele>484.33333333333337</ele><time>2026-04-26T09:39:27Z</time></trkpt><trkpt lat="40.93865952984691" lon="9.080245330604301"><ele>485.6666666666667</ele><time>2026-04-26T09:39:28Z</time></trkpt><trkpt lat="40.938702160638705" lon="9.080052122786464"><ele>487.0</ele><time>2026-04-26T09:39:29Z</time></trkpt><trkpt lat="40.93876110720542" lon="9.07982397734879"><ele>487.6666666666667</ele><time>2026-04-26T09:39:30Z</time></trkpt><trkpt lat="40.93880864357962" lon="9.07957399087038"><ele>488.33333333333337</ele><time>2026-04-26T09:39:31Z</time></trkpt><trkpt lat="40.938872408013125" lon="9.079317215998097"><ele>489.0</ele><time>2026-04-26T09:39:32Z</time></trkpt><trkpt lat="40.9389391611801" lon="9.079054592453055"><ele>489.66666666666663</ele><time>2026-04-26T09:39:33Z</time></trkpt><trkpt lat="40.9389897901741" lon="9.078803058923532"><ele>490.3333333333333</ele><time>2026-04-26T09:39:34Z</time></trkpt><trkpt lat="40.93903098475275" lon="9.078563300386456"><ele>491.0</ele><time>2026-04-26T09:39:35Z</time></trkpt><trkpt lat="40.93905104535637" lon="9.078325642484401"><ele>491.3333333333333</ele><time>2026-04-26T09:39:36Z</time></trkpt><trkpt lat="40.93905590579574" lon="9.078077633219314"><ele>491.66666666666663</ele><time>2026-04-26T09:39:37Z</time></trkpt><trkpt lat="40.939052736414254" lon="9.077813328715953"><ele>492.0</ele><time>2026-04-26T09:39:38Z</time></trkpt><trkpt lat="40.93906106583808" lon="9.077528785402743"><ele>492.33333333333337</ele><time>2026-04-26T09:39:39Z</time></trkpt><trkpt lat="40.93906943457" lon="9.077259676855014"><ele>492.6666666666667</ele><time>2026-04-26T09:39:40Z</time></trkpt><trkpt lat="40.939091393113166" lon="9.077014890887108"><ele>493.0</ele><time>2026-04-26T09:39:41Z</time></trkpt><trkpt lat="40.939098198262975" lon="9.076765531292892"><ele>493.33333333333337</ele><time>2026-04-26T09:39:42Z</time></trkpt><trkpt lat="40.93910499804568" lon="9.076514453287821"><ele>493.66666666666663</ele><time>2026-04-26T09:39:43Z</time></trkpt><trkpt lat="40.9390988493389" lon="9.076255272546573"><ele>494.0</ele><time>2026-04-26T09:39:44Z</time></trkpt><trkpt lat="40.939107750741535" lon="9.075999909928555"><ele>494.66666666666663</ele><time>2026-04-26T09:39:45Z</time></trkpt><trkpt lat="40.93911582077218" lon="9.075754164699111"><ele>495.33333333333337</ele><time>2026-04-26T09:39:46Z</time></trkpt><trkpt lat="40.93912282131648" lon="9.075522717926445"><ele>496.0</ele><time>2026-04-26T09:39:47Z</time></trkpt><trkpt lat="40.939116994225294" lon="9.075307024470728"><ele>496.0</ele><time>2026-04-26T09:39:48Z</time></trkpt><trkpt lat="40.93908932231352" lon="9.075103253910283"><ele>496.0</ele><time>2026-04-26T09:39:48.999Z</time></trkpt><trkpt lat="40.93902767401208" lon="9.074911479662237"><ele>496.0</ele><time>2026-04-26T09:39:49.999Z</time></trkpt><trkpt lat="40.93895571586194" lon="9.07471141437868"><ele>496.75</ele><time>2026-04-26T09:39:50.999Z</time></trkpt><trkpt lat="40.93889890365037" lon="9.074513534488736"><ele>497.5</ele><time>2026-04-26T09:39:51.999Z</time></trkpt><trkpt lat="40.93886955643384" lon="9.074335710061863"><ele>498.25</ele><time>2026-04-26T09:39:52.999Z</time></trkpt><trkpt lat="40.93885648734244" lon="9.074148090785519"><ele>499.0</ele><time>2026-04-26T09:39:53.999Z</time></trkpt><trkpt lat="40.93884594983342" lon="9.073963841342456"><ele>500.6666666666667</ele><time>2026-04-26T09:39:54.999Z</time></trkpt><trkpt lat="40.93881551938637" lon="9.073752080466187"><ele>502.33333333333337</ele><time>2026-04-26T09:39:55.999Z</time></trkpt><trkpt lat="40.938760762420934" lon="9.073537426024888"><ele>504.0</ele><time>2026-04-26T09:39:56.999Z</time></trkpt><trkpt lat="40.93870049043553" lon="9.07334757788736"><ele>504.5</ele><time>2026-04-26T09:39:57.999Z</time></trkpt><trkpt lat="40.93864787842739" lon="9.073171615672129"><ele>505.0</ele><time>2026-04-26T09:39:58.999Z</time></trkpt><trkpt lat="40.93860824883557" lon="9.073002097748065"><ele>505.5</ele><time>2026-04-26T09:39:59.999Z</time></trkpt><trkpt lat="40.938593516394974" lon="9.072857774641475"><ele>506.0</ele><time>2026-04-26T09:40:00.999Z</time></trkpt><trkpt lat="40.93860454017406" lon="9.072735989948303"><ele>506.0</ele><time>2026-04-26T09:40:01.999Z</time></trkpt><trkpt lat="40.93863079698121" lon="9.072630367822045"><ele>506.0</ele><time>2026-04-26T09:40:02.999Z</time></trkpt><trkpt lat="40.93867007902131" lon="9.072534814216665"><ele>506.0</ele><time>2026-04-26T09:40:03.999Z</time></trkpt><trkpt lat="40.93873998889371" lon="9.072433989821421"><ele>506.0</ele><time>2026-04-26T09:40:04.999Z</time></trkpt><trkpt lat="40.93882895115852" lon="9.07234623932094"><ele>506.0</ele><time>2026-04-26T09:40:05.999Z</time></trkpt><trkpt lat="40.93894951271547" lon="9.072269480261207"><ele>507.0</ele><time>2026-04-26T09:40:06.999Z</time></trkpt><trkpt lat="40.93911686894898" lon="9.072234275000648"><ele>508.0</ele><time>2026-04-26T09:40:07.999Z</time></trkpt><trkpt lat="40.93929022743793" lon="9.072165016762776"><ele>509.0</ele><time>2026-04-26T09:40:08.999Z</time></trkpt><trkpt lat="40.93946251784714" lon="9.07212596378725"><ele>507.0</ele><time>2026-04-26T09:40:09.999Z</time></trkpt><trkpt lat="40.93962941980394" lon="9.072130966291605"><ele>505.0</ele><time>2026-04-26T09:40:10.999Z</time></trkpt><trkpt lat="40.93980935042319" lon="9.072122667821402"><ele>503.0</ele><time>2026-04-26T09:40:11.999Z</time></trkpt><trkpt lat="40.94000753281251" lon="9.072151492128427"><ele>500.0</ele><time>2026-04-26T09:40:12.999Z</time></trkpt><trkpt lat="40.940203578748424" lon="9.072161512279761"><ele>497.0</ele><time>2026-04-26T09:40:13.999Z</time></trkpt><trkpt lat="40.940392002506265" lon="9.07217605152949"><ele>494.0</ele><time>2026-04-26T09:40:14.999Z</time></trkpt><trkpt lat="40.940573297667925" lon="9.07215892744192"><ele>494.0</ele><time>2026-04-26T09:40:15.999Z</time></trkpt><trkpt lat="40.940755943101586" lon="9.072120256080058"><ele>494.0</ele><time>2026-04-26T09:40:16.999Z</time></trkpt><trkpt lat="40.94093961819218" lon="9.07206540113764"><ele>494.0</ele><time>2026-04-26T09:40:17.999Z</time></trkpt><trkpt lat="40.94112821898314" lon="9.072010586191784"><ele>490.3333333333333</ele><time>2026-04-26T09:40:18.999Z</time></trkpt><trkpt lat="40.941319793586786" lon="9.071957292509591"><ele>486.66666666666663</ele><time>2026-04-26T09:40:19.999Z</time></trkpt><trkpt lat="40.94151413941607" lon="9.071911315794438"><ele>483.0</ele><time>2026-04-26T09:40:20.999Z</time></trkpt><trkpt lat="40.94169849873552" lon="9.071869609181887"><ele>482.66666666666663</ele><time>2026-04-26T09:40:21.999Z</time></trkpt><trkpt lat="40.941873541781206" lon="9.071846364825447"><ele>482.3333333333333</ele><time>2026-04-26T09:40:22.999Z</time></trkpt><trkpt lat="40.94204719443053" lon="9.07184855464083"><ele>482.0</ele><time>2026-04-26T09:40:23.999Z</time></trkpt><trkpt lat="40.942220226805865" lon="9.071859540473937"><ele>482.0</ele><time>2026-04-26T09:40:24.999Z</time></trkpt><trkpt lat="40.94238694832565" lon="9.071859828834535"><ele>482.0</ele><time>2026-04-26T09:40:25.999Z</time></trkpt><trkpt lat="40.94255124357879" lon="9.07184596123824"><ele>482.0</ele><time>2026-04-26T09:40:26.999Z</time></trkpt><trkpt lat="40.94271808216717" lon="9.071814236276781"><ele>478.66666666666663</ele><time>2026-04-26T09:40:27.999Z</time></trkpt><trkpt lat="40.94289189168482" lon="9.071762250302646"><ele>475.33333333333337</ele><time>2026-04-26T09:40:29Z</time></trkpt><trkpt lat="40.94307556941132" lon="9.071697367539759"><ele>472.0</ele><time>2026-04-26T09:40:30Z</time></trkpt><trkpt lat="40.94326919687327" lon="9.071633970232241"><ele>472.33333333333337</ele><time>2026-04-26T09:40:31Z</time></trkpt><trkpt lat="40.94345661047196" lon="9.071567632254698"><ele>472.66666666666663</ele><time>2026-04-26T09:40:32Z</time></trkpt><trkpt lat="40.94363501582699" lon="9.071504956575216"><ele>473.0</ele><time>2026-04-26T09:40:33Z</time></trkpt><trkpt lat="40.943800070475994" lon="9.071456021467919"><ele>473.0</ele><time>2026-04-26T09:40:34Z</time></trkpt><trkpt lat="40.94395088777375" lon="9.071406404024472"><ele>473.0</ele><time>2026-04-26T09:40:35Z</time></trkpt><trkpt lat="40.944097657433026" lon="9.071373648181355"><ele>473.0</ele><time>2026-04-26T09:40:36Z</time></trkpt><trkpt lat="40.94425125240039" lon="9.071381862807675"><ele>474.3333333333333</ele><time>2026-04-26T09:40:37Z</time></trkpt><trkpt lat="40.94440859618087" lon="9.07142393900234"><ele>475.66666666666663</ele><time>2026-04-26T09:40:38Z</time></trkpt><trkpt lat="40.94456668184496" lon="9.07148989699401"><ele>477.0</ele><time>2026-04-26T09:40:39Z</time></trkpt><trkpt lat="40.944720866322946" lon="9.071563037795928"><ele>475.5</ele><time>2026-04-26T09:40:40Z</time></trkpt><trkpt lat="40.94486692516458" lon="9.071631101655003"><ele>474.0</ele><time>2026-04-26T09:40:41Z</time></trkpt><trkpt lat="40.945008560352015" lon="9.071690002999272"><ele>472.5</ele><time>2026-04-26T09:40:42Z</time></trkpt><trkpt lat="40.945148221472294" lon="9.071740647639402"><ele>471.0</ele><time>2026-04-26T09:40:43Z</time></trkpt><trkpt lat="40.945284092542956" lon="9.071778095337496"><ele>470.25</ele><time>2026-04-26T09:40:44Z</time></trkpt><trkpt lat="40.94543099996264" lon="9.071797995152657"><ele>469.5</ele><time>2026-04-26T09:40:45Z</time></trkpt><trkpt lat="40.9455794736495" lon="9.07179448558925"><ele>468.75</ele><time>2026-04-26T09:40:46Z</time></trkpt><trkpt lat="40.94572928024446" lon="9.071761111731467"><ele>468.0</ele><time>2026-04-26T09:40:47Z</time></trkpt><trkpt lat="40.945870992016545" lon="9.071712173118668"><ele>467.5</ele><time>2026-04-26T09:40:48Z</time></trkpt><trkpt lat="40.94601349191051" lon="9.071675470797503"><ele>467.0</ele><time>2026-04-26T09:40:49Z</time></trkpt><trkpt lat="40.94615975660525" lon="9.0716370581368"><ele>466.5</ele><time>2026-04-26T09:40:50Z</time></trkpt><trkpt lat="40.94630203254691" lon="9.071598278828253"><ele>466.0</ele><time>2026-04-26T09:40:51Z</time></trkpt><trkpt lat="40.94644287926789" lon="9.07156603470026"><ele>466.0</ele><time>2026-04-26T09:40:52Z</time></trkpt><trkpt lat="40.94659065274692" lon="9.07153253836451"><ele>466.0</ele><time>2026-04-26T09:40:53Z</time></trkpt><trkpt lat="40.946735260603965" lon="9.071499074312772"><ele>466.0</ele><time>2026-04-26T09:40:54Z</time></trkpt><trkpt lat="40.94688150255418" lon="9.071460366431705"><ele>466.0</ele><time>2026-04-26T09:40:55Z</time></trkpt><trkpt lat="40.94703015094068" lon="9.071424890237092"><ele>465.33333333333337</ele><time>2026-04-26T09:40:56Z</time></trkpt><trkpt lat="40.947186935309865" lon="9.071384135495352"><ele>464.66666666666663</ele><time>2026-04-26T09:40:57Z</time></trkpt><trkpt lat="40.94735329080407" lon="9.071339626721052"><ele>464.0</ele><time>2026-04-26T09:40:58Z</time></trkpt><trkpt lat="40.947524912075146" lon="9.071300467386397"><ele>463.66666666666663</ele><time>2026-04-26T09:40:59Z</time></trkpt><trkpt lat="40.947701150197155" lon="9.071261941397305"><ele>463.33333333333337</ele><time>2026-04-26T09:41:00Z</time></trkpt><trkpt lat="40.947868809596145" lon="9.071255158622733"><ele>463.0</ele><time>2026-04-26T09:41:01Z</time></trkpt><trkpt lat="40.94802517711667" lon="9.071228735473753"><ele>463.0</ele><time>2026-04-26T09:41:02Z</time></trkpt><trkpt lat="40.94817565704719" lon="9.07118433065192"><ele>463.0</ele><time>2026-04-26T09:41:03Z</time></trkpt><trkpt lat="40.94831734966864" lon="9.071160284832306"><ele>463.0</ele><time>2026-04-26T09:41:04Z</time></trkpt><trkpt lat="40.948465910632486" lon="9.071141690641724"><ele>463.0</ele><time>2026-04-26T09:41:05Z</time></trkpt><trkpt lat="40.94860723386633" lon="9.071123805759528"><ele>462.0</ele><time>2026-04-26T09:41:06Z</time></trkpt><trkpt lat="40.94874919627762" lon="9.07110396385659"><ele>461.0</ele><time>2026-04-26T09:41:07Z</time></trkpt><trkpt lat="40.94889593979599" lon="9.071080475072208"><ele>460.0</ele><time>2026-04-26T09:41:08Z</time></trkpt><trkpt lat="40.9490415396368" lon="9.071055682325893"><ele>459.0</ele><time>2026-04-26T09:41:09Z</time></trkpt><trkpt lat="40.94918646920316" lon="9.071033025594854"><ele>458.0</ele><time>2026-04-26T09:41:10Z</time></trkpt><trkpt lat="40.94932492561621" lon="9.071008743948939"><ele>457.0</ele><time>2026-04-26T09:41:11Z</time></trkpt><trkpt lat="40.94945812006174" lon="9.070985627994975"><ele>456.0</ele><time>2026-04-26T09:41:12Z</time></trkpt><trkpt lat="40.94958531405979" lon="9.07095544299825"><ele>455.0</ele><time>2026-04-26T09:41:13Z</time></trkpt><trkpt lat="40.949699263612466" lon="9.070902533128846"><ele>455.0</ele><time>2026-04-26T09:41:14Z</time></trkpt><trkpt lat="40.949809860357114" lon="9.070817905837789"><ele>455.0</ele><time>2026-04-26T09:41:15Z</time></trkpt><trkpt lat="40.949907309747125" lon="9.070710204547973"><ele>455.0</ele><time>2026-04-26T09:41:16Z</time></trkpt><trkpt lat="40.94998318937958" lon="9.070581433230087"><ele>455.0</ele><time>2026-04-26T09:41:17Z</time></trkpt><trkpt lat="40.95004518841034" lon="9.070437047808028"><ele>456.5</ele><time>2026-04-26T09:41:18Z</time></trkpt><trkpt lat="40.950081003438626" lon="9.07027238782892"><ele>458.0</ele><time>2026-04-26T09:41:19Z</time></trkpt><trkpt lat="40.950089150779625" lon="9.070090750378226"><ele>459.5</ele><time>2026-04-26T09:41:20Z</time></trkpt><trkpt lat="40.95007396351927" lon="9.069891498142956"><ele>461.0</ele><time>2026-04-26T09:41:21Z</time></trkpt><trkpt lat="40.95006460895993" lon="9.069651692655773"><ele>461.3333333333333</ele><time>2026-04-26T09:41:22Z</time></trkpt><trkpt lat="40.95004564514177" lon="9.069387349303287"><ele>461.66666666666663</ele><time>2026-04-26T09:41:23Z</time></trkpt><trkpt lat="40.95002503261564" lon="9.06910002370253"><ele>462.0</ele><time>2026-04-26T09:41:24Z</time></trkpt><trkpt lat="40.95000343996432" lon="9.068799035997646"><ele>456.5</ele><time>2026-04-26T09:41:25Z</time></trkpt><trkpt lat="40.949975474912776" lon="9.068488919181721"><ele>451.0</ele><time>2026-04-26T09:41:26Z</time></trkpt><trkpt lat="40.949976380195785" lon="9.068196542011203"><ele>450.6666666666667</ele><time>2026-04-26T09:41:27Z</time></trkpt><trkpt lat="40.94998263335502" lon="9.067913860654139"><ele>450.33333333333337</ele><time>2026-04-26T09:41:28Z</time></trkpt><trkpt lat="40.95000261567463" lon="9.067633890545359"><ele>450.0</ele><time>2026-04-26T09:41:29Z</time></trkpt><trkpt lat="40.950030061459515" lon="9.0673375853613"><ele>452.0</ele><time>2026-04-26T09:41:30Z</time></trkpt><trkpt lat="40.950063069290316" lon="9.06702547530585"><ele>454.0</ele><time>2026-04-26T09:41:31Z</time></trkpt><trkpt lat="40.950099629898354" lon="9.066701065065157"><ele>453.0</ele><time>2026-04-26T09:41:32Z</time></trkpt><trkpt lat="40.950135775403844" lon="9.06636984018316"><ele>452.0</ele><time>2026-04-26T09:41:33Z</time></trkpt><trkpt lat="40.95017175743832" lon="9.066035886907757"><ele>449.5</ele><time>2026-04-26T09:41:34Z</time></trkpt><trkpt lat="40.950207105518224" lon="9.06569976147353"><ele>447.0</ele><time>2026-04-26T09:41:35Z</time></trkpt><trkpt lat="40.950244785447175" lon="9.065356662347636"><ele>447.0</ele><time>2026-04-26T09:41:36Z</time></trkpt><trkpt lat="40.950279423208016" lon="9.06501960541424"><ele>447.0</ele><time>2026-04-26T09:41:37Z</time></trkpt><trkpt lat="40.95031319939047" lon="9.064698260961942"><ele>444.0</ele><time>2026-04-26T09:41:38Z</time></trkpt><trkpt lat="40.95034544723836" lon="9.064388047674697"><ele>441.0</ele><time>2026-04-26T09:41:39Z</time></trkpt><trkpt lat="40.95037528794343" lon="9.064087748748321"><ele>440.0</ele><time>2026-04-26T09:41:40Z</time></trkpt><trkpt lat="40.95040510883959" lon="9.063797989222815"><ele>439.0</ele><time>2026-04-26T09:41:41Z</time></trkpt><trkpt lat="40.950433097661545" lon="9.063518830759662"><ele>438.0</ele><time>2026-04-26T09:41:42Z</time></trkpt><trkpt lat="40.950460858014324" lon="9.063248766500717"><ele>436.66666666666663</ele><time>2026-04-26T09:41:43Z</time></trkpt><trkpt lat="40.9504897029234" lon="9.062984454441398"><ele>435.3333333333333</ele><time>2026-04-26T09:41:44Z</time></trkpt><trkpt lat="40.95051778043896" lon="9.06271956851076"><ele>434.0</ele><time>2026-04-26T09:41:45Z</time></trkpt><trkpt lat="40.950546545209605" lon="9.062464251511663"><ele>433.66666666666663</ele><time>2026-04-26T09:41:46Z</time></trkpt><trkpt lat="40.95057587908908" lon="9.062224347299537"><ele>433.33333333333337</ele><time>2026-04-26T09:41:47Z</time></trkpt><trkpt lat="40.95059681413624" lon="9.061993944156283"><ele>433.0</ele><time>2026-04-26T09:41:48Z</time></trkpt><trkpt lat="40.95060227309985" lon="9.061772897882902"><ele>433.0</ele><time>2026-04-26T09:41:49Z</time></trkpt><trkpt lat="40.950587517267685" lon="9.061562974484236"><ele>433.0</ele><time>2026-04-26T09:41:50Z</time></trkpt><trkpt lat="40.95054630613425" lon="9.06137669671695"><ele>433.0</ele><time>2026-04-26T09:41:51Z</time></trkpt><trkpt lat="40.95047808889086" lon="9.061206463330217"><ele>433.0</ele><time>2026-04-26T09:41:52Z</time></trkpt><trkpt lat="40.950380775536665" lon="9.061062302579774"><ele>433.0</ele><time>2026-04-26T09:41:53Z</time></trkpt><trkpt lat="40.950261895266785" lon="9.060932459246725"><ele>433.0</ele><time>2026-04-26T09:41:54Z</time></trkpt><trkpt lat="40.95012103023663" lon="9.060810173271411"><ele>433.0</ele><time>2026-04-26T09:41:55Z</time></trkpt><trkpt lat="40.94995476834089" lon="9.060681403245622"><ele>433.0</ele><time>2026-04-26T09:41:56Z</time></trkpt><trkpt lat="40.94977573349702" lon="9.060543714759746"><ele>433.0</ele><time>2026-04-26T09:41:57Z</time></trkpt><trkpt lat="40.94958534994503" lon="9.060395670561318"><ele>433.0</ele><time>2026-04-26T09:41:58Z</time></trkpt><trkpt lat="40.94938959539219" lon="9.0602428922655"><ele>433.0</ele><time>2026-04-26T09:41:59Z</time></trkpt><trkpt lat="40.94920858356792" lon="9.060098284786065"><ele>433.0</ele><time>2026-04-26T09:42:00Z</time></trkpt><trkpt lat="40.9490466023361" lon="9.059959353676913"><ele>434.0</ele><time>2026-04-26T09:42:01Z</time></trkpt><trkpt lat="40.9488942367732" lon="9.059800581037848"><ele>435.0</ele><time>2026-04-26T09:42:02Z</time></trkpt><trkpt lat="40.9487571879019" lon="9.059585655579873"><ele>436.0</ele><time>2026-04-26T09:42:03Z</time></trkpt><trkpt lat="40.94858970767826" lon="9.059381263164793"><ele>436.0</ele><time>2026-04-26T09:42:04Z</time></trkpt><trkpt lat="40.9484479064011" lon="9.059167758540141"><ele>436.0</ele><time>2026-04-26T09:42:05Z</time></trkpt><trkpt lat="40.94831993138744" lon="9.058971610900075"><ele>436.0</ele><time>2026-04-26T09:42:06Z</time></trkpt><trkpt lat="40.94820204379067" lon="9.058768416897749"><ele>436.6666666666667</ele><time>2026-04-26T09:42:07Z</time></trkpt><trkpt lat="40.94808467644045" lon="9.058536401107668"><ele>437.33333333333337</ele><time>2026-04-26T09:42:08Z</time></trkpt><trkpt lat="40.94796797114304" lon="9.0582789525506"><ele>438.0</ele><time>2026-04-26T09:42:09Z</time></trkpt><trkpt lat="40.9478490439014" lon="9.058010095192337"><ele>438.0</ele><time>2026-04-26T09:42:10Z</time></trkpt><trkpt lat="40.947723511623686" lon="9.057738349589457"><ele>438.0</ele><time>2026-04-26T09:42:11Z</time></trkpt><trkpt lat="40.947597423292954" lon="9.05745463657047"><ele>443.0</ele><time>2026-04-26T09:42:12Z</time></trkpt><trkpt lat="40.94746631285252" lon="9.057164682995008"><ele>448.0</ele><time>2026-04-26T09:42:13Z</time></trkpt><trkpt lat="40.94733117583307" lon="9.056875227810455"><ele>447.5</ele><time>2026-04-26T09:42:14Z</time></trkpt><trkpt lat="40.94720309254083" lon="9.056597603724027"><ele>447.0</ele><time>2026-04-26T09:42:15Z</time></trkpt><trkpt lat="40.94708692922098" lon="9.056341343029276"><ele>447.0</ele><time>2026-04-26T09:42:16Z</time></trkpt><trkpt lat="40.94697885084685" lon="9.056101648340238"><ele>447.0</ele><time>2026-04-26T09:42:17Z</time></trkpt><trkpt lat="40.946888373490445" lon="9.055864806821871"><ele>447.0</ele><time>2026-04-26T09:42:17.999Z</time></trkpt><trkpt lat="40.946785644229955" lon="9.055660947059955"><ele>447.66666666666663</ele><time>2026-04-26T09:42:18.999Z</time></trkpt><trkpt lat="40.946724904231054" lon="9.055428932078696"><ele>448.3333333333333</ele><time>2026-04-26T09:42:19.999Z</time></trkpt><trkpt lat="40.946657218153874" lon="9.055179491070714"><ele>449.0</ele><time>2026-04-26T09:42:20.999Z</time></trkpt><trkpt lat="40.94659157209239" lon="9.054903663144835"><ele>453.0</ele><time>2026-04-26T09:42:21.999Z</time></trkpt><trkpt lat="40.946522845172126" lon="9.054612768015788"><ele>457.0</ele><time>2026-04-26T09:42:22.999Z</time></trkpt><trkpt lat="40.94645135601005" lon="9.054310181374037"><ele>458.0</ele><time>2026-04-26T09:42:23.999Z</time></trkpt><trkpt lat="40.94637812179354" lon="9.054004774002015"><ele>459.0</ele><time>2026-04-26T09:42:24.999Z</time></trkpt><trkpt lat="40.94630251115949" lon="9.053690954892803"><ele>459.0</ele><time>2026-04-26T09:42:25.999Z</time></trkpt><trkpt lat="40.94622576730805" lon="9.053372432588121"><ele>459.0</ele><time>2026-04-26T09:42:26.999Z</time></trkpt><trkpt lat="40.946147103922954" lon="9.053045943340182"><ele>459.5</ele><time>2026-04-26T09:42:27.999Z</time></trkpt><trkpt lat="40.94604146994315" lon="9.052729431949485"><ele>460.0</ele><time>2026-04-26T09:42:28.999Z</time></trkpt><trkpt lat="40.94596756977924" lon="9.052417521186628"><ele>460.33333333333337</ele><time>2026-04-26T09:42:29.999Z</time></trkpt><trkpt lat="40.945903270556634" lon="9.052129789076627"><ele>460.66666666666663</ele><time>2026-04-26T09:42:30.999Z</time></trkpt><trkpt lat="40.94583917302443" lon="9.05185135655173"><ele>461.0</ele><time>2026-04-26T09:42:31.999Z</time></trkpt><trkpt lat="40.945774067225194" lon="9.051581261644822"><ele>463.3333333333333</ele><time>2026-04-26T09:42:32.999Z</time></trkpt><trkpt lat="40.945710071789115" lon="9.05131422701652"><ele>465.66666666666663</ele><time>2026-04-26T09:42:33.999Z</time></trkpt><trkpt lat="40.945646237198204" lon="9.051044047426656"><ele>468.0</ele><time>2026-04-26T09:42:35Z</time></trkpt><trkpt lat="40.945582830127755" lon="9.050780927086018"><ele>469.0</ele><time>2026-04-26T09:42:36Z</time></trkpt><trkpt lat="40.945522949095064" lon="9.05051323997344"><ele>470.0</ele><time>2026-04-26T09:42:37Z</time></trkpt><trkpt lat="40.945456363436136" lon="9.050238233108415"><ele>471.0</ele><time>2026-04-26T09:42:38Z</time></trkpt><trkpt lat="40.945391782295516" lon="9.049958274101723"><ele>471.0</ele><time>2026-04-26T09:42:39Z</time></trkpt><trkpt lat="40.94532687476272" lon="9.0496744619431"><ele>471.0</ele><time>2026-04-26T09:42:40Z</time></trkpt><trkpt lat="40.945264861094" lon="9.049384179946093"><ele>472.33333333333337</ele><time>2026-04-26T09:42:41Z</time></trkpt><trkpt lat="40.945209787851866" lon="9.04908562913896"><ele>473.6666666666667</ele><time>2026-04-26T09:42:42Z</time></trkpt><trkpt lat="40.94516708668347" lon="9.048811388262912"><ele>475.0</ele><time>2026-04-26T09:42:43Z</time></trkpt><trkpt lat="40.94512831228144" lon="9.048546516370225"><ele>475.0</ele><time>2026-04-26T09:42:44Z</time></trkpt><trkpt lat="40.94509088639799" lon="9.048300562197895"><ele>475.0</ele><time>2026-04-26T09:42:45Z</time></trkpt><trkpt lat="40.945055805440255" lon="9.04807093669925"><ele>475.0</ele><time>2026-04-26T09:42:46Z</time></trkpt><trkpt lat="40.94502641452954" lon="9.047841013041417"><ele>477.0</ele><time>2026-04-26T09:42:47Z</time></trkpt><trkpt lat="40.94501236847352" lon="9.04761204703844"><ele>479.0</ele><time>2026-04-26T09:42:48Z</time></trkpt><trkpt lat="40.94501018685234" lon="9.047378442570704"><ele>481.0</ele><time>2026-04-26T09:42:49Z</time></trkpt><trkpt lat="40.94503026129845" lon="9.047137130747652"><ele>479.6666666666667</ele><time>2026-04-26T09:42:50Z</time></trkpt><trkpt lat="40.945061037774785" lon="9.04687726779862"><ele>478.33333333333337</ele><time>2026-04-26T09:42:51Z</time></trkpt><trkpt lat="40.945097167322565" lon="9.046624215726222"><ele>477.0</ele><time>2026-04-26T09:42:52Z</time></trkpt><trkpt lat="40.9451342747561" lon="9.046382614099658"><ele>476.33333333333337</ele><time>2026-04-26T09:42:53Z</time></trkpt><trkpt lat="40.9451821649984" lon="9.046147314925614"><ele>475.6666666666667</ele><time>2026-04-26T09:42:54Z</time></trkpt><trkpt lat="40.94523685622738" lon="9.045920519296423"><ele>475.0</ele><time>2026-04-26T09:42:55Z</time></trkpt><trkpt lat="40.945310484563116" lon="9.045710407934106"><ele>474.33333333333337</ele><time>2026-04-26T09:42:56Z</time></trkpt><trkpt lat="40.945411223242125" lon="9.045492699384965"><ele>473.66666666666663</ele><time>2026-04-26T09:42:57Z</time></trkpt><trkpt lat="40.94553527412318" lon="9.04525871650191"><ele>473.0</ele><time>2026-04-26T09:42:58Z</time></trkpt><trkpt lat="40.945672905840134" lon="9.045010645079516"><ele>473.5</ele><time>2026-04-26T09:42:59Z</time></trkpt><trkpt lat="40.945822969493456" lon="9.044751449966276"><ele>474.0</ele><time>2026-04-26T09:43:00Z</time></trkpt><trkpt lat="40.94595926805416" lon="9.044503640269873"><ele>473.33333333333337</ele><time>2026-04-26T09:43:01Z</time></trkpt><trkpt lat="40.946083098380704" lon="9.044269888663132"><ele>472.6666666666667</ele><time>2026-04-26T09:43:02Z</time></trkpt><trkpt lat="40.94620383277576" lon="9.044037403108792"><ele>472.0</ele><time>2026-04-26T09:43:03Z</time></trkpt><trkpt lat="40.94632222383078" lon="9.043815653813914"><ele>471.33333333333337</ele><time>2026-04-26T09:43:04Z</time></trkpt><trkpt lat="40.946435093212294" lon="9.043589848457195"><ele>470.66666666666663</ele><time>2026-04-26T09:43:05Z</time></trkpt><trkpt lat="40.94653646968438" lon="9.043345042226788"><ele>470.0</ele><time>2026-04-26T09:43:06Z</time></trkpt><trkpt lat="40.94662294609763" lon="9.043098531829248"><ele>469.66666666666663</ele><time>2026-04-26T09:43:07Z</time></trkpt><trkpt lat="40.94671057885118" lon="9.042847120278891"><ele>469.33333333333337</ele><time>2026-04-26T09:43:08Z</time></trkpt><trkpt lat="40.94680254998432" lon="9.042602721784233"><ele>469.0</ele><time>2026-04-26T09:43:09Z</time></trkpt><trkpt lat="40.94689502419407" lon="9.042362366273"><ele>467.6666666666667</ele><time>2026-04-26T09:43:10Z</time></trkpt><trkpt lat="40.94698838564314" lon="9.042121071985997"><ele>466.33333333333337</ele><time>2026-04-26T09:43:11Z</time></trkpt><trkpt lat="40.9470808212444" lon="9.041885056921934"><ele>465.0</ele><time>2026-04-26T09:43:12Z</time></trkpt><trkpt lat="40.947171810921255" lon="9.041656684832759"><ele>466.0</ele><time>2026-04-26T09:43:13Z</time></trkpt><trkpt lat="40.947264073123016" lon="9.041433148152734"><ele>467.0</ele><time>2026-04-26T09:43:14Z</time></trkpt><trkpt lat="40.947365207836526" lon="9.04120306327171"><ele>468.0</ele><time>2026-04-26T09:43:15Z</time></trkpt><trkpt lat="40.94747096771811" lon="9.040968581714504"><ele>467.33333333333337</ele><time>2026-04-26T09:43:16Z</time></trkpt><trkpt lat="40.9475806183454" lon="9.040727208358922"><ele>466.6666666666667</ele><time>2026-04-26T09:43:17Z</time></trkpt><trkpt lat="40.94768799904605" lon="9.040487922641834"><ele>466.0</ele><time>2026-04-26T09:43:18Z</time></trkpt><trkpt lat="40.947787418929195" lon="9.040270643998463"><ele>466.0</ele><time>2026-04-26T09:43:19Z</time></trkpt><trkpt lat="40.94788095498683" lon="9.04006564952539"><ele>466.0</ele><time>2026-04-26T09:43:20Z</time></trkpt><trkpt lat="40.947969206315584" lon="9.039870574741963"><ele>466.0</ele><time>2026-04-26T09:43:21Z</time></trkpt><trkpt lat="40.94804899166076" lon="9.039681170279689"><ele>467.0</ele><time>2026-04-26T09:43:22Z</time></trkpt><trkpt lat="40.9481326093837" lon="9.039497742728605"><ele>468.0</ele><time>2026-04-26T09:43:23Z</time></trkpt><trkpt lat="40.9482213312701" lon="9.039310039281524"><ele>469.0</ele><time>2026-04-26T09:43:24Z</time></trkpt><trkpt lat="40.94831559242613" lon="9.039117351251896"><ele>468.0</ele><time>2026-04-26T09:43:25Z</time></trkpt><trkpt lat="40.94841996635303" lon="9.038931549994155"><ele>467.0</ele><time>2026-04-26T09:43:26Z</time></trkpt><trkpt lat="40.94853094646713" lon="9.038751020590839"><ele>466.0</ele><time>2026-04-26T09:43:27Z</time></trkpt><trkpt lat="40.948641151924114" lon="9.03857347261257"><ele>466.0</ele><time>2026-04-26T09:43:28Z</time></trkpt><trkpt lat="40.94875381437916" lon="9.038401671112712"><ele>466.0</ele><time>2026-04-26T09:43:29Z</time></trkpt><trkpt lat="40.94886594347233" lon="9.038228463403373"><ele>466.0</ele><time>2026-04-26T09:43:30Z</time></trkpt><trkpt lat="40.94897645153363" lon="9.038060461017967"><ele>467.0</ele><time>2026-04-26T09:43:31Z</time></trkpt><trkpt lat="40.94908299892412" lon="9.037882084692617"><ele>468.0</ele><time>2026-04-26T09:43:32Z</time></trkpt><trkpt lat="40.94919292164702" lon="9.037688415691294"><ele>469.0</ele><time>2026-04-26T09:43:33Z</time></trkpt><trkpt lat="40.949295141205305" lon="9.037486486757212"><ele>469.33333333333337</ele><time>2026-04-26T09:43:34Z</time></trkpt><trkpt lat="40.94938884407563" lon="9.037296026977"><ele>469.66666666666663</ele><time>2026-04-26T09:43:35Z</time></trkpt><trkpt lat="40.94948091016334" lon="9.037122803180742"><ele>470.0</ele><time>2026-04-26T09:43:36Z</time></trkpt><trkpt lat="40.949566913121416" lon="9.036956087913653"><ele>470.0</ele><time>2026-04-26T09:43:37Z</time></trkpt><trkpt lat="40.94964982060157" lon="9.036786899698509"><ele>470.0</ele><time>2026-04-26T09:43:38Z</time></trkpt><trkpt lat="40.94973791029022" lon="9.03660493481208"><ele>470.0</ele><time>2026-04-26T09:43:39Z</time></trkpt><trkpt lat="40.94982930219539" lon="9.036420903715312"><ele>470.66666666666663</ele><time>2026-04-26T09:43:40Z</time></trkpt><trkpt lat="40.949918053617004" lon="9.03624229460669"><ele>471.33333333333337</ele><time>2026-04-26T09:43:41Z</time></trkpt><trkpt lat="40.95000775733193" lon="9.03606465616823"><ele>472.0</ele><time>2026-04-26T09:43:42Z</time></trkpt><trkpt lat="40.95010405898854" lon="9.035867906138845"><ele>471.0</ele><time>2026-04-26T09:43:43Z</time></trkpt><trkpt lat="40.95020367485868" lon="9.035671517173265"><ele>470.0</ele><time>2026-04-26T09:43:44Z</time></trkpt><trkpt lat="40.950297353828475" lon="9.035481961908342"><ele>469.0</ele><time>2026-04-26T09:43:45Z</time></trkpt><trkpt lat="40.950386642400304" lon="9.035302336694468"><ele>469.0</ele><time>2026-04-26T09:43:46Z</time></trkpt><trkpt lat="40.95047791637271" lon="9.035118136802236"><ele>469.0</ele><time>2026-04-26T09:43:47Z</time></trkpt><trkpt lat="40.95056919374304" lon="9.03492806243179"><ele>469.0</ele><time>2026-04-26T09:43:48Z</time></trkpt><trkpt lat="40.95066316172996" lon="9.034737861752138"><ele>469.0</ele><time>2026-04-26T09:43:49Z</time></trkpt><trkpt lat="40.95075721121615" lon="9.034551433141502"><ele>469.0</ele><time>2026-04-26T09:43:50Z</time></trkpt><trkpt lat="40.950860174522546" lon="9.034368145471253"><ele>469.0</ele><time>2026-04-26T09:43:51Z</time></trkpt><trkpt lat="40.950965636409265" lon="9.034188833680306"><ele>467.33333333333337</ele><time>2026-04-26T09:43:52Z</time></trkpt><trkpt lat="40.95107428517717" lon="9.034028962794398"><ele>465.66666666666663</ele><time>2026-04-26T09:43:53Z</time></trkpt><trkpt lat="40.951188859813605" lon="9.033877114665307"><ele>464.0</ele><time>2026-04-26T09:43:54Z</time></trkpt><trkpt lat="40.951295839441194" lon="9.033720329339367"><ele>464.0</ele><time>2026-04-26T09:43:55Z</time></trkpt><trkpt lat="40.951404830141875" lon="9.033557509828254"><ele>464.0</ele><time>2026-04-26T09:43:56Z</time></trkpt><trkpt lat="40.95151404747525" lon="9.033396910191863"><ele>464.0</ele><time>2026-04-26T09:43:57Z</time></trkpt><trkpt lat="40.951622251255245" lon="9.033237784688735"><ele>464.3333333333333</ele><time>2026-04-26T09:43:58Z</time></trkpt><trkpt lat="40.95172855961731" lon="9.033074867269503"><ele>464.66666666666663</ele><time>2026-04-26T09:43:59Z</time></trkpt><trkpt lat="40.95183097443989" lon="9.032912220784244"><ele>465.0</ele><time>2026-04-26T09:44:00Z</time></trkpt><trkpt lat="40.95192836652394" lon="9.032747483005206"><ele>465.0</ele><time>2026-04-26T09:44:01Z</time></trkpt><trkpt lat="40.95201029690465" lon="9.03257187503418"><ele>465.0</ele><time>2026-04-26T09:44:02Z</time></trkpt><trkpt lat="40.952085896908066" lon="9.0323842518493"><ele>465.0</ele><time>2026-04-26T09:44:03Z</time></trkpt><trkpt lat="40.952160202381954" lon="9.032191578030837"><ele>465.66666666666663</ele><time>2026-04-26T09:44:04Z</time></trkpt><trkpt lat="40.95223199411368" lon="9.031998574000605"><ele>466.3333333333333</ele><time>2026-04-26T09:44:05Z</time></trkpt><trkpt lat="40.952301116737594" lon="9.031817543489948"><ele>467.0</ele><time>2026-04-26T09:44:06Z</time></trkpt><trkpt lat="40.95236600713526" lon="9.0316464323549"><ele>466.66666666666663</ele><time>2026-04-26T09:44:07Z</time></trkpt><trkpt lat="40.952431853840714" lon="9.031468961160776"><ele>466.33333333333337</ele><time>2026-04-26T09:44:08Z</time></trkpt><trkpt lat="40.95250935257849" lon="9.031293609218295"><ele>466.0</ele><time>2026-04-26T09:44:09Z</time></trkpt><trkpt lat="40.95260033402264" lon="9.03113004546518"><ele>467.0</ele><time>2026-04-26T09:44:09.999Z</time></trkpt><trkpt lat="40.95270945109676" lon="9.03098793702898"><ele>468.0</ele><time>2026-04-26T09:44:10.999Z</time></trkpt><trkpt lat="40.95283521188596" lon="9.030863143182287"><ele>469.0</ele><time>2026-04-26T09:44:11.999Z</time></trkpt><trkpt lat="40.952973642580986" lon="9.030751959852926"><ele>469.33333333333337</ele><time>2026-04-26T09:44:12.999Z</time></trkpt><trkpt lat="40.95312723332755" lon="9.030637687049854"><ele>469.66666666666663</ele><time>2026-04-26T09:44:13.999Z</time></trkpt><trkpt lat="40.953288610866565" lon="9.030524475521416"><ele>470.0</ele><time>2026-04-26T09:44:14.999Z</time></trkpt><trkpt lat="40.95343899299989" lon="9.030419714305701"><ele>470.0</ele><time>2026-04-26T09:44:15.999Z</time></trkpt><trkpt lat="40.95357601371768" lon="9.03032296853286"><ele>470.0</ele><time>2026-04-26T09:44:16.999Z</time></trkpt><trkpt lat="40.95370901295544" lon="9.030228282208306"><ele>470.0</ele><time>2026-04-26T09:44:17.999Z</time></trkpt><trkpt lat="40.95383961792422" lon="9.030131949382493"><ele>470.0</ele><time>2026-04-26T09:44:18.999Z</time></trkpt><trkpt lat="40.95397207228752" lon="9.03003882061674"><ele>470.0</ele><time>2026-04-26T09:44:19.999Z</time></trkpt><trkpt lat="40.954106820519954" lon="9.029950254753295"><ele>470.0</ele><time>2026-04-26T09:44:20.999Z</time></trkpt><trkpt lat="40.954248317712484" lon="9.029872832583877"><ele>470.0</ele><time>2026-04-26T09:44:21.999Z</time></trkpt><trkpt lat="40.9543997539489" lon="9.029801996596115"><ele>470.0</ele><time>2026-04-26T09:44:22.999Z</time></trkpt><trkpt lat="40.95455748804893" lon="9.02973895451792"><ele>470.0</ele><time>2026-04-26T09:44:23.999Z</time></trkpt><trkpt lat="40.95471475611476" lon="9.029674009341912"><ele>470.0</ele><time>2026-04-26T09:44:24.999Z</time></trkpt><trkpt lat="40.95487427859499" lon="9.029607095994626"><ele>470.0</ele><time>2026-04-26T09:44:25.999Z</time></trkpt><trkpt lat="40.95503004796533" lon="9.029543162641177"><ele>470.0</ele><time>2026-04-26T09:44:26.999Z</time></trkpt><trkpt lat="40.95517386502261" lon="9.029480869373026"><ele>468.3333333333333</ele><time>2026-04-26T09:44:27.999Z</time></trkpt><trkpt lat="40.955314943756726" lon="9.029413678931599"><ele>466.66666666666663</ele><time>2026-04-26T09:44:28.999Z</time></trkpt><trkpt lat="40.955447802183436" lon="9.0293270888947"><ele>465.0</ele><time>2026-04-26T09:44:29.999Z</time></trkpt><trkpt lat="40.955573735518236" lon="9.02920787292401"><ele>465.33333333333337</ele><time>2026-04-26T09:44:30.999Z</time></trkpt><trkpt lat="40.955694170596615" lon="9.029054294712589"><ele>465.6666666666667</ele><time>2026-04-26T09:44:31.999Z</time></trkpt><trkpt lat="40.95581164980942" lon="9.028883297416444"><ele>466.0</ele><time>2026-04-26T09:44:32.999Z</time></trkpt><trkpt lat="40.955928677003435" lon="9.028704802833792"><ele>463.6666666666667</ele><time>2026-04-26T09:44:33.999Z</time></trkpt><trkpt lat="40.95607188913444" lon="9.028527839868742"><ele>461.33333333333337</ele><time>2026-04-26T09:44:34.999Z</time></trkpt><trkpt lat="40.9562191180632" lon="9.028321138009744"><ele>459.0</ele><time>2026-04-26T09:44:35.999Z</time></trkpt><trkpt lat="40.95637641216953" lon="9.028100305185863"><ele>459.0</ele><time>2026-04-26T09:44:36.999Z</time></trkpt><trkpt lat="40.95654212832114" lon="9.027867648135206"><ele>459.0</ele><time>2026-04-26T09:44:37.999Z</time></trkpt><trkpt lat="40.95671553269324" lon="9.02762318361341"><ele>459.0</ele><time>2026-04-26T09:44:38.999Z</time></trkpt><trkpt lat="40.95689610462867" lon="9.027368752111594"><ele>459.0</ele><time>2026-04-26T09:44:39.999Z</time></trkpt><trkpt lat="40.95707016946946" lon="9.027099434854717"><ele>459.0</ele><time>2026-04-26T09:44:41Z</time></trkpt><trkpt lat="40.95726029134312" lon="9.026840768516482"><ele>459.0</ele><time>2026-04-26T09:44:42Z</time></trkpt><trkpt lat="40.9574486689314" lon="9.026573236151988"><ele>460.5</ele><time>2026-04-26T09:44:43Z</time></trkpt><trkpt lat="40.95763759213206" lon="9.026304944962956"><ele>462.0</ele><time>2026-04-26T09:44:44Z</time></trkpt><trkpt lat="40.957831449365685" lon="9.02603406007833"><ele>463.0</ele><time>2026-04-26T09:44:45Z</time></trkpt><trkpt lat="40.95802640197263" lon="9.025756727241058"><ele>464.0</ele><time>2026-04-26T09:44:46Z</time></trkpt><trkpt lat="40.95822384857025" lon="9.025478522102285"><ele>464.0</ele><time>2026-04-26T09:44:47Z</time></trkpt><trkpt lat="40.95841997835311" lon="9.02519922779285"><ele>464.0</ele><time>2026-04-26T09:44:48Z</time></trkpt><trkpt lat="40.95863043624045" lon="9.024931713400294"><ele>464.0</ele><time>2026-04-26T09:44:49Z</time></trkpt><trkpt lat="40.95882010578204" lon="9.024633420784092"><ele>464.0</ele><time>2026-04-26T09:44:50Z</time></trkpt><trkpt lat="40.95901855020484" lon="9.024355053974281"><ele>467.5</ele><time>2026-04-26T09:44:51Z</time></trkpt><trkpt lat="40.95921929399799" lon="9.024075157484477"><ele>471.0</ele><time>2026-04-26T09:44:52Z</time></trkpt><trkpt lat="40.959419982299735" lon="9.023795386223172"><ele>471.0</ele><time>2026-04-26T09:44:53Z</time></trkpt><trkpt lat="40.95961813229415" lon="9.023522585965608"><ele>471.0</ele><time>2026-04-26T09:44:54Z</time></trkpt><trkpt lat="40.95981173280744" lon="9.023249747485064"><ele>472.5</ele><time>2026-04-26T09:44:55Z</time></trkpt><trkpt lat="40.960004400817695" lon="9.022977034626669"><ele>474.0</ele><time>2026-04-26T09:44:56Z</time></trkpt><trkpt lat="40.96018187576606" lon="9.022726064744928"><ele>477.0</ele><time>2026-04-26T09:44:57Z</time></trkpt><trkpt lat="40.960343443152226" lon="9.022497475421714"><ele>480.0</ele><time>2026-04-26T09:44:58Z</time></trkpt><trkpt lat="40.96050245424375" lon="9.022271608013813"><ele>480.0</ele><time>2026-04-26T09:44:59Z</time></trkpt><trkpt lat="40.96066893673764" lon="9.022033427787628"><ele>480.0</ele><time>2026-04-26T09:45:00Z</time></trkpt><trkpt lat="40.96083825401801" lon="9.021792940747849"><ele>481.66666666666663</ele><time>2026-04-26T09:45:01Z</time></trkpt><trkpt lat="40.9609970567072" lon="9.021568783397884"><ele>483.3333333333333</ele><time>2026-04-26T09:45:02Z</time></trkpt><trkpt lat="40.96114599060219" lon="9.021359223150125"><ele>485.0</ele><time>2026-04-26T09:45:03Z</time></trkpt><trkpt lat="40.96129897392787" lon="9.021158330098883"><ele>485.0</ele><time>2026-04-26T09:45:04Z</time></trkpt><trkpt lat="40.96146886262543" lon="9.020961764681518"><ele>485.0</ele><time>2026-04-26T09:45:05Z</time></trkpt><trkpt lat="40.96165610811734" lon="9.02076683869343"><ele>487.5</ele><time>2026-04-26T09:45:06Z</time></trkpt><trkpt lat="40.96184913192047" lon="9.020564764054404"><ele>490.0</ele><time>2026-04-26T09:45:07Z</time></trkpt><trkpt lat="40.96203997864557" lon="9.020356945807826"><ele>490.0</ele><time>2026-04-26T09:45:08Z</time></trkpt><trkpt lat="40.96221466478797" lon="9.02016725742829"><ele>490.0</ele><time>2026-04-26T09:45:09Z</time></trkpt><trkpt lat="40.96237393773626" lon="9.019991207907507"><ele>490.0</ele><time>2026-04-26T09:45:10Z</time></trkpt><trkpt lat="40.962531299962166" lon="9.019827308274047"><ele>494.0</ele><time>2026-04-26T09:45:11Z</time></trkpt><trkpt lat="40.96268484127122" lon="9.019667764684824"><ele>498.0</ele><time>2026-04-26T09:45:12Z</time></trkpt><trkpt lat="40.9628350240461" lon="9.019527952441285"><ele>502.0</ele><time>2026-04-26T09:45:13Z</time></trkpt><trkpt lat="40.96298824931646" lon="9.019424854364996"><ele>502.0</ele><time>2026-04-26T09:45:14Z</time></trkpt><trkpt lat="40.96315599837998" lon="9.0193536753945"><ele>502.0</ele><time>2026-04-26T09:45:15Z</time></trkpt><trkpt lat="40.9633323717913" lon="9.019330257827852"><ele>502.0</ele><time>2026-04-26T09:45:16Z</time></trkpt><trkpt lat="40.963512116036775" lon="9.019353910893962"><ele>505.0</ele><time>2026-04-26T09:45:17Z</time></trkpt><trkpt lat="40.96368344024787" lon="9.019441873399423"><ele>508.0</ele><time>2026-04-26T09:45:18Z</time></trkpt><trkpt lat="40.96384878863308" lon="9.019552449490032"><ele>511.0</ele><time>2026-04-26T09:45:19Z</time></trkpt><trkpt lat="40.96401933809981" lon="9.019685808190737"><ele>511.6666666666667</ele><time>2026-04-26T09:45:20Z</time></trkpt><trkpt lat="40.96420358161889" lon="9.019814418697836"><ele>512.3333333333334</ele><time>2026-04-26T09:45:21Z</time></trkpt><trkpt lat="40.96438557289003" lon="9.019967933786951"><ele>513.0</ele><time>2026-04-26T09:45:22Z</time></trkpt><trkpt lat="40.964576781576724" lon="9.020114878492123"><ele>513.0</ele><time>2026-04-26T09:45:23Z</time></trkpt><trkpt lat="40.96477511784639" lon="9.020265235233097"><ele>513.0</ele><time>2026-04-26T09:45:24Z</time></trkpt><trkpt lat="40.964978336928716" lon="9.020420438840084"><ele>527.5</ele><time>2026-04-26T09:45:25Z</time></trkpt><trkpt lat="40.96518552060754" lon="9.020582092849418"><ele>542.0</ele><time>2026-04-26T09:45:26Z</time></trkpt><trkpt lat="40.9653961959306" lon="9.020748038376476"><ele>533.0</ele><time>2026-04-26T09:45:27Z</time></trkpt><trkpt lat="40.96561256205479" lon="9.020914750860307"><ele>524.0</ele><time>2026-04-26T09:45:28Z</time></trkpt><trkpt lat="40.965830276249434" lon="9.021081486179218"><ele>536.5</ele><time>2026-04-26T09:45:29Z</time></trkpt><trkpt lat="40.9660460944188" lon="9.021252975908558"><ele>549.0</ele><time>2026-04-26T09:45:30Z</time></trkpt><trkpt lat="40.966243952959154" lon="9.021404762409016"><ele>549.0</ele><time>2026-04-26T09:45:31Z</time></trkpt><trkpt lat="40.9664332019658" lon="9.021552323450257"><ele>549.0</ele><time>2026-04-26T09:45:32Z</time></trkpt><trkpt lat="40.96661306630088" lon="9.021694048176636"><ele>549.0</ele><time>2026-04-26T09:45:33Z</time></trkpt><trkpt lat="40.96677850562479" lon="9.021821828155181"><ele>547.0</ele><time>2026-04-26T09:45:34Z</time></trkpt><trkpt lat="40.966943291845034" lon="9.021946364060932"><ele>545.0</ele><time>2026-04-26T09:45:35Z</time></trkpt><trkpt lat="40.96713580764833" lon="9.02206059703448"><ele>543.0</ele><time>2026-04-26T09:45:36Z</time></trkpt><trkpt lat="40.96734787029858" lon="9.02216903301076"><ele>543.3333333333334</ele><time>2026-04-26T09:45:37Z</time></trkpt><trkpt lat="40.967563576291795" lon="9.022275034443279"><ele>543.6666666666667</ele><time>2026-04-26T09:45:38Z</time></trkpt><trkpt lat="40.967762339377366" lon="9.022364567794726"><ele>544.0</ele><time>2026-04-26T09:45:39Z</time></trkpt><trkpt lat="40.96795358264116" lon="9.022426492947234"><ele>544.0</ele><time>2026-04-26T09:45:40Z</time></trkpt><trkpt lat="40.968132738536255" lon="9.022443562007878"><ele>544.0</ele><time>2026-04-26T09:45:41Z</time></trkpt><trkpt lat="40.96830786297415" lon="9.022414537765991"><ele>544.0</ele><time>2026-04-26T09:45:42Z</time></trkpt><trkpt lat="40.96849543169002" lon="9.022344353054606"><ele>538.3333333333334</ele><time>2026-04-26T09:45:43Z</time></trkpt><trkpt lat="40.96869797053066" lon="9.022244044367788"><ele>532.6666666666666</ele><time>2026-04-26T09:45:44Z</time></trkpt><trkpt lat="40.96891454164703" lon="9.022140028065438"><ele>527.0</ele><time>2026-04-26T09:45:45Z</time></trkpt><trkpt lat="40.969146005061795" lon="9.022034403362772"><ele>520.5</ele><time>2026-04-26T09:45:46Z</time></trkpt><trkpt lat="40.96938443225062" lon="9.021928205408587"><ele>514.0</ele><time>2026-04-26T09:45:47Z</time></trkpt><trkpt lat="40.96960816194575" lon="9.021828884884684"><ele>514.0</ele><time>2026-04-26T09:45:48Z</time></trkpt><trkpt lat="40.969820957897824" lon="9.021732155875066"><ele>514.0</ele><time>2026-04-26T09:45:49Z</time></trkpt><trkpt lat="40.97002688148682" lon="9.021643474978223"><ele>514.0</ele><time>2026-04-26T09:45:50Z</time></trkpt><trkpt lat="40.97023064682882" lon="9.021554127402176"><ele>510.6666666666667</ele><time>2026-04-26T09:45:51Z</time></trkpt><trkpt lat="40.97041325233821" lon="9.02146310414099"><ele>507.33333333333337</ele><time>2026-04-26T09:45:52Z</time></trkpt><trkpt lat="40.97056392405847" lon="9.021374834617166"><ele>504.0</ele><time>2026-04-26T09:45:53Z</time></trkpt><trkpt lat="40.970701808029276" lon="9.021262373486817"><ele>504.0</ele><time>2026-04-26T09:45:54Z</time></trkpt><trkpt lat="40.97082543442205" lon="9.021111408422941"><ele>504.0</ele><time>2026-04-26T09:45:55Z</time></trkpt><trkpt lat="40.97093916087977" lon="9.02092730029642"><ele>504.0</ele><time>2026-04-26T09:45:56Z</time></trkpt><trkpt lat="40.97103863957598" lon="9.020697577011715"><ele>499.33333333333337</ele><time>2026-04-26T09:45:57Z</time></trkpt><trkpt lat="40.971128856420485" lon="9.020432899336964"><ele>494.6666666666667</ele><time>2026-04-26T09:45:58Z</time></trkpt><trkpt lat="40.971213605604305" lon="9.02017100498711"><ele>490.0</ele><time>2026-04-26T09:45:59Z</time></trkpt><trkpt lat="40.971298198598575" lon="9.01993496366174"><ele>489.33333333333337</ele><time>2026-04-26T09:46:00Z</time></trkpt><trkpt lat="40.97137632527945" lon="9.019725381229625"><ele>488.66666666666663</ele><time>2026-04-26T09:46:01Z</time></trkpt><trkpt lat="40.971443462424084" lon="9.01954172629961"><ele>488.0</ele><time>2026-04-26T09:46:02Z</time></trkpt><trkpt lat="40.971495648924666" lon="9.01937954402393"><ele>488.0</ele><time>2026-04-26T09:46:03Z</time></trkpt><trkpt lat="40.971560948788294" lon="9.019241984777853"><ele>488.0</ele><time>2026-04-26T09:46:04Z</time></trkpt><trkpt lat="40.97153181800093" lon="9.019049950463994"><ele>488.0</ele><time>2026-04-26T09:46:05Z</time></trkpt><trkpt lat="40.97149142343993" lon="9.018857699769901"><ele>488.0</ele><time>2026-04-26T09:46:06Z</time></trkpt><trkpt lat="40.9714325878106" lon="9.018672224739296"><ele>489.0</ele><time>2026-04-26T09:46:07Z</time></trkpt><trkpt lat="40.97134575217279" lon="9.018511536926841"><ele>490.0</ele><time>2026-04-26T09:46:08Z</time></trkpt><trkpt lat="40.97122464755309" lon="9.018369679160976"><ele>491.0</ele><time>2026-04-26T09:46:09Z</time></trkpt><trkpt lat="40.971060349332085" lon="9.018236196457703"><ele>493.3333333333333</ele><time>2026-04-26T09:46:10Z</time></trkpt><trkpt lat="40.970867981172404" lon="9.018104664112126"><ele>495.66666666666663</ele><time>2026-04-26T09:46:11Z</time></trkpt><trkpt lat="40.970665763076084" lon="9.017977210512505"><ele>498.0</ele><time>2026-04-26T09:46:12Z</time></trkpt><trkpt lat="40.97047595552282" lon="9.017852459972499"><ele>489.0</ele><time>2026-04-26T09:46:13Z</time></trkpt><trkpt lat="40.97030003989763" lon="9.017721944530134"><ele>480.0</ele><time>2026-04-26T09:46:14Z</time></trkpt><trkpt lat="40.97014130244274" lon="9.017574816387826"><ele>471.0</ele><time>2026-04-26T09:46:15Z</time></trkpt><trkpt lat="40.97001104414072" lon="9.01739931876668"><ele>468.0</ele><time>2026-04-26T09:46:16Z</time></trkpt><trkpt lat="40.96989874606849" lon="9.017187950340652"><ele>465.0</ele><time>2026-04-26T09:46:17Z</time></trkpt><trkpt lat="40.96978274560943" lon="9.01694332512013"><ele>462.0</ele><time>2026-04-26T09:46:18Z</time></trkpt><trkpt lat="40.96965744543876" lon="9.016684659336894"><ele>458.66666666666663</ele><time>2026-04-26T09:46:19Z</time></trkpt><trkpt lat="40.969528876756875" lon="9.01643966045817"><ele>455.3333333333333</ele><time>2026-04-26T09:46:20Z</time></trkpt><trkpt lat="40.96940559172203" lon="9.016209939168252"><ele>452.0</ele><time>2026-04-26T09:46:21Z</time></trkpt><trkpt lat="40.96928936510212" lon="9.015983539499523"><ele>450.66666666666663</ele><time>2026-04-26T09:46:22Z</time></trkpt><trkpt lat="40.96918455958192" lon="9.015750623923054"><ele>449.33333333333337</ele><time>2026-04-26T09:46:22.999Z</time></trkpt><trkpt lat="40.969094281240054" lon="9.015500980107838"><ele>448.0</ele><time>2026-04-26T09:46:23.999Z</time></trkpt><trkpt lat="40.96901332036555" lon="9.015241822995957"><ele>444.6666666666667</ele><time>2026-04-26T09:46:24.999Z</time></trkpt><trkpt lat="40.9689370835355" lon="9.014973436150877"><ele>441.33333333333337</ele><time>2026-04-26T09:46:25.999Z</time></trkpt><trkpt lat="40.96886148381108" lon="9.014702096397267"><ele>438.0</ele><time>2026-04-26T09:46:26.999Z</time></trkpt><trkpt lat="40.96877996765585" lon="9.014435833826846"><ele>438.0</ele><time>2026-04-26T09:46:27.999Z</time></trkpt><trkpt lat="40.968675171908245" lon="9.014180835782756"><ele>438.0</ele><time>2026-04-26T09:46:28.999Z</time></trkpt><trkpt lat="40.96855272304586" lon="9.013934266391185"><ele>438.0</ele><time>2026-04-26T09:46:29.999Z</time></trkpt><trkpt lat="40.968423598807156" lon="9.013685468166484"><ele>439.0</ele><time>2026-04-26T09:46:30.999Z</time></trkpt><trkpt lat="40.96829035116909" lon="9.013418899742707"><ele>440.0</ele><time>2026-04-26T09:46:31.999Z</time></trkpt><trkpt lat="40.968154837860844" lon="9.013141545927096"><ele>437.0</ele><time>2026-04-26T09:46:32.999Z</time></trkpt><trkpt lat="40.968031348641155" lon="9.012875968762566"><ele>434.0</ele><time>2026-04-26T09:46:33.999Z</time></trkpt><trkpt lat="40.96791623478727" lon="9.01262690254815"><ele>430.3333333333333</ele><time>2026-04-26T09:46:34.999Z</time></trkpt><trkpt lat="40.967808741880724" lon="9.012392973047074"><ele>426.66666666666663</ele><time>2026-04-26T09:46:35.999Z</time></trkpt><trkpt lat="40.967701111190664" lon="9.012173194524252"><ele>423.0</ele><time>2026-04-26T09:46:36.999Z</time></trkpt><trkpt lat="40.967591440661934" lon="9.011954070820018"><ele>423.0</ele><time>2026-04-26T09:46:37.999Z</time></trkpt><trkpt lat="40.96749720629743" lon="9.011732380933156"><ele>423.0</ele><time>2026-04-26T09:46:38.999Z</time></trkpt><trkpt lat="40.96742211015985" lon="9.01148974201029"><ele>423.0</ele><time>2026-04-26T09:46:39.999Z</time></trkpt><trkpt lat="40.96736581669964" lon="9.011216870361846"><ele>423.0</ele><time>2026-04-26T09:46:40.999Z</time></trkpt><trkpt lat="40.967311165043306" lon="9.010911978176015"><ele>423.0</ele><time>2026-04-26T09:46:41.999Z</time></trkpt><trkpt lat="40.967259800335725" lon="9.010611127661504"><ele>420.66666666666663</ele><time>2026-04-26T09:46:42.999Z</time></trkpt><trkpt lat="40.96721210242955" lon="9.010333911488596"><ele>418.3333333333333</ele><time>2026-04-26T09:46:43.999Z</time></trkpt><trkpt lat="40.96716178237246" lon="9.010068453404335"><ele>416.0</ele><time>2026-04-26T09:46:44.999Z</time></trkpt><trkpt lat="40.967103447990695" lon="9.00980604714853"><ele>413.0</ele><time>2026-04-26T09:46:45.999Z</time></trkpt><trkpt lat="40.967029535122734" lon="9.009545925849288"><ele>410.0</ele><time>2026-04-26T09:46:47Z</time></trkpt><trkpt lat="40.966942500866615" lon="9.00928729781295"><ele>407.0</ele><time>2026-04-26T09:46:48Z</time></trkpt><trkpt lat="40.96685020162207" lon="9.0090296520015"><ele>408.0</ele><time>2026-04-26T09:46:49Z</time></trkpt><trkpt lat="40.96675170067757" lon="9.008769154752969"><ele>409.0</ele><time>2026-04-26T09:46:50Z</time></trkpt><trkpt lat="40.96665564718053" lon="9.008503785708694"><ele>410.0</ele><time>2026-04-26T09:46:51Z</time></trkpt><trkpt lat="40.966558930426956" lon="9.008233358165166"><ele>405.0</ele><time>2026-04-26T09:46:52Z</time></trkpt><trkpt lat="40.9664601643717" lon="9.007959940198354"><ele>400.0</ele><time>2026-04-26T09:46:53Z</time></trkpt><trkpt lat="40.966355304761436" lon="9.007669451415552"><ele>396.5</ele><time>2026-04-26T09:46:54Z</time></trkpt><trkpt lat="40.96625030349664" lon="9.007369385103505"><ele>393.0</ele><time>2026-04-26T09:46:55Z</time></trkpt><trkpt lat="40.96613697048533" lon="9.007062144730188"><ele>393.0</ele><time>2026-04-26T09:46:56Z</time></trkpt><trkpt lat="40.966037258883624" lon="9.006773460430784"><ele>393.0</ele><time>2026-04-26T09:46:57Z</time></trkpt><trkpt lat="40.96593735739474" lon="9.006493085264086"><ele>392.5</ele><time>2026-04-26T09:46:58Z</time></trkpt><trkpt lat="40.96583806618066" lon="9.006214592830426"><ele>392.0</ele><time>2026-04-26T09:46:59Z</time></trkpt><trkpt lat="40.965742560922436" lon="9.005940518251945"><ele>389.3333333333333</ele><time>2026-04-26T09:47:00Z</time></trkpt><trkpt lat="40.965644220613584" lon="9.005671219223876"><ele>386.66666666666663</ele><time>2026-04-26T09:47:01Z</time></trkpt><trkpt lat="40.96554603870615" lon="9.005407513206736"><ele>384.0</ele><time>2026-04-26T09:47:02Z</time></trkpt><trkpt lat="40.96545027704359" lon="9.005140525029972"><ele>381.6666666666667</ele><time>2026-04-26T09:47:03Z</time></trkpt><trkpt lat="40.96536868199135" lon="9.004873308166848"><ele>379.33333333333337</ele><time>2026-04-26T09:47:04Z</time></trkpt><trkpt lat="40.96529657901277" lon="9.004595223668518"><ele>377.0</ele><time>2026-04-26T09:47:05Z</time></trkpt><trkpt lat="40.96523396534175" lon="9.00429707177617"><ele>373.0</ele><time>2026-04-26T09:47:06Z</time></trkpt><trkpt lat="40.9651753347798" lon="9.003979325886567"><ele>369.0</ele><time>2026-04-26T09:47:07Z</time></trkpt><trkpt lat="40.96511517138976" lon="9.003667056054969"><ele>369.0</ele><time>2026-04-26T09:47:08Z</time></trkpt><trkpt lat="40.9650602665822" lon="9.003372163256248"><ele>369.0</ele><time>2026-04-26T09:47:09Z</time></trkpt><trkpt lat="40.96500324226022" lon="9.003077804554946"><ele>369.3333333333333</ele><time>2026-04-26T09:47:10Z</time></trkpt><trkpt lat="40.96494481103135" lon="9.002785463042223"><ele>369.66666666666663</ele><time>2026-04-26T09:47:11Z</time></trkpt><trkpt lat="40.96488990623324" lon="9.00250522040262"><ele>370.0</ele><time>2026-04-26T09:47:12Z</time></trkpt><trkpt lat="40.96483797950332" lon="9.002229310194378"><ele>370.0</ele><time>2026-04-26T09:47:13Z</time></trkpt><trkpt lat="40.964787854170176" lon="9.001963272378859"><ele>370.0</ele><time>2026-04-26T09:47:14Z</time></trkpt><trkpt lat="40.96474926643593" lon="9.001700289242137"><ele>370.0</ele><time>2026-04-26T09:47:15Z</time></trkpt><trkpt lat="40.96472718372674" lon="9.00143278845966"><ele>368.3333333333333</ele><time>2026-04-26T09:47:16Z</time></trkpt><trkpt lat="40.96471921267303" lon="9.001158091630428"><ele>366.6666666666667</ele><time>2026-04-26T09:47:17Z</time></trkpt><trkpt lat="40.964717089702965" lon="9.000881770946279"><ele>365.0</ele><time>2026-04-26T09:47:18Z</time></trkpt><trkpt lat="40.96470975345595" lon="9.000594475154529"><ele>364.33333333333337</ele><time>2026-04-26T09:47:19Z</time></trkpt><trkpt lat="40.96470350888213" lon="9.000308599310886"><ele>363.6666666666667</ele><time>2026-04-26T09:47:20Z</time></trkpt><trkpt lat="40.9646947690664" lon="9.000042312903874"><ele>363.0</ele><time>2026-04-26T09:47:21Z</time></trkpt><trkpt lat="40.96468836500937" lon="8.999813740733574"><ele>363.0</ele><time>2026-04-26T09:47:22Z</time></trkpt><trkpt lat="40.96468168138533" lon="8.999615045888115"><ele>363.0</ele><time>2026-04-26T09:47:23Z</time></trkpt><trkpt lat="40.96467893353754" lon="8.9994416625191"><ele>363.0</ele><time>2026-04-26T09:47:24Z</time></trkpt><trkpt lat="40.964674429554435" lon="8.999271929158771"><ele>363.0</ele><time>2026-04-26T09:47:25Z</time></trkpt><trkpt lat="40.964669448278535" lon="8.999093935623078"><ele>362.25</ele><time>2026-04-26T09:47:26Z</time></trkpt><trkpt lat="40.964664879458795" lon="8.998906945521446"><ele>361.5</ele><time>2026-04-26T09:47:27Z</time></trkpt><trkpt lat="40.96466270855495" lon="8.998709509510208"><ele>360.75</ele><time>2026-04-26T09:47:28Z</time></trkpt><trkpt lat="40.96466163419095" lon="8.998503002163597"><ele>360.0</ele><time>2026-04-26T09:47:29Z</time></trkpt><trkpt lat="40.964652976871555" lon="8.99829561409923"><ele>360.0</ele><time>2026-04-26T09:47:30Z</time></trkpt><trkpt lat="40.96464686926044" lon="8.998078668079721"><ele>360.0</ele><time>2026-04-26T09:47:31Z</time></trkpt><trkpt lat="40.96464488625699" lon="8.99784670034974"><ele>360.0</ele><time>2026-04-26T09:47:32Z</time></trkpt><trkpt lat="40.964641126456925" lon="8.997599583035822"><ele>359.6666666666667</ele><time>2026-04-26T09:47:33Z</time></trkpt><trkpt lat="40.964632565778906" lon="8.997362617923047"><ele>359.33333333333337</ele><time>2026-04-26T09:47:34Z</time></trkpt><trkpt lat="40.964605834305296" lon="8.997138015059063"><ele>359.0</ele><time>2026-04-26T09:47:35Z</time></trkpt><trkpt lat="40.96454984432686" lon="8.996925827351637"><ele>359.0</ele><time>2026-04-26T09:47:36Z</time></trkpt><trkpt lat="40.96446689263734" lon="8.996733788250475"><ele>359.0</ele><time>2026-04-26T09:47:37Z</time></trkpt><trkpt lat="40.96435766870106" lon="8.996564805366093"><ele>359.0</ele><time>2026-04-26T09:47:38Z</time></trkpt><trkpt lat="40.96422821840996" lon="8.996428195826853"><ele>357.33333333333337</ele><time>2026-04-26T09:47:39Z</time></trkpt><trkpt lat="40.964081829478765" lon="8.996308325574656"><ele>355.6666666666667</ele><time>2026-04-26T09:47:40Z</time></trkpt><trkpt lat="40.96391733982613" lon="8.996173639143802"><ele>354.0</ele><time>2026-04-26T09:47:41Z</time></trkpt><trkpt lat="40.96375588724035" lon="8.996028748657542"><ele>354.0</ele><time>2026-04-26T09:47:42Z</time></trkpt><trkpt lat="40.96359113029186" lon="8.995885795829732"><ele>354.0</ele><time>2026-04-26T09:47:43Z</time></trkpt><trkpt lat="40.963415883483115" lon="8.995720174037563"><ele>354.0</ele><time>2026-04-26T09:47:44Z</time></trkpt><trkpt lat="40.96322727222906" lon="8.995545521741295"><ele>350.0</ele><time>2026-04-26T09:47:45Z</time></trkpt><trkpt lat="40.9630300647933" lon="8.995363547950493"><ele>346.0</ele><time>2026-04-26T09:47:46Z</time></trkpt><trkpt lat="40.9628215239623" lon="8.995175122011862"><ele>347.0</ele><time>2026-04-26T09:47:47Z</time></trkpt><trkpt lat="40.96261393795678" lon="8.994982216337808"><ele>348.0</ele><time>2026-04-26T09:47:48Z</time></trkpt><trkpt lat="40.96241930818177" lon="8.994808627017187"><ele>348.6666666666667</ele><time>2026-04-26T09:47:49Z</time></trkpt><trkpt lat="40.96224452524152" lon="8.994649840715462"><ele>349.33333333333337</ele><time>2026-04-26T09:47:50Z</time></trkpt><trkpt lat="40.962092180248376" lon="8.994490775941683"><ele>350.0</ele><time>2026-04-26T09:47:51Z</time></trkpt><trkpt lat="40.961962507891165" lon="8.994320307505806"><ele>353.0</ele><time>2026-04-26T09:47:52Z</time></trkpt><trkpt lat="40.96185320601561" lon="8.99412142336385"><ele>356.0</ele><time>2026-04-26T09:47:53Z</time></trkpt><trkpt lat="40.96175667156088" lon="8.993883754937674"><ele>359.0</ele><time>2026-04-26T09:47:54Z</time></trkpt><trkpt lat="40.961662905343154" lon="8.993624604923966"><ele>359.5</ele><time>2026-04-26T09:47:55Z</time></trkpt><trkpt lat="40.96157128413004" lon="8.993353904402175"><ele>360.0</ele><time>2026-04-26T09:47:56Z</time></trkpt><trkpt lat="40.96146810391211" lon="8.99307998469319"><ele>361.0</ele><time>2026-04-26T09:47:57Z</time></trkpt><trkpt lat="40.961358064792435" lon="8.992799655052737"><ele>362.0</ele><time>2026-04-26T09:47:58Z</time></trkpt><trkpt lat="40.96124738692417" lon="8.992514791312948"><ele>364.0</ele><time>2026-04-26T09:47:59Z</time></trkpt><trkpt lat="40.96113928813579" lon="8.992225050544537"><ele>366.0</ele><time>2026-04-26T09:48:00Z</time></trkpt><trkpt lat="40.961028718703695" lon="8.991930970066806"><ele>367.5</ele><time>2026-04-26T09:48:01Z</time></trkpt><trkpt lat="40.960914843893754" lon="8.991630680462338"><ele>369.0</ele><time>2026-04-26T09:48:02Z</time></trkpt><trkpt lat="40.960799710121336" lon="8.991329205455441"><ele>369.0</ele><time>2026-04-26T09:48:03Z</time></trkpt><trkpt lat="40.96068597114605" lon="8.991037422201495"><ele>369.0</ele><time>2026-04-26T09:48:04Z</time></trkpt><trkpt lat="40.960589638376554" lon="8.990758272530549"><ele>371.0</ele><time>2026-04-26T09:48:05Z</time></trkpt><trkpt lat="40.96050212232195" lon="8.990464661467383"><ele>373.0</ele><time>2026-04-26T09:48:06Z</time></trkpt><trkpt lat="40.96042146151849" lon="8.990158449979699"><ele>374.0</ele><time>2026-04-26T09:48:07Z</time></trkpt><trkpt lat="40.96033814425015" lon="8.989845243552347"><ele>375.0</ele><time>2026-04-26T09:48:08Z</time></trkpt><trkpt lat="40.96025103136925" lon="8.989528567581988"><ele>375.0</ele><time>2026-04-26T09:48:09Z</time></trkpt><trkpt lat="40.96016303430702" lon="8.989211900902864"><ele>375.0</ele><time>2026-04-26T09:48:10Z</time></trkpt><trkpt lat="40.960074069748124" lon="8.988892543742882"><ele>380.5</ele><time>2026-04-26T09:48:11Z</time></trkpt><trkpt lat="40.95998390082354" lon="8.988568894521332"><ele>386.0</ele><time>2026-04-26T09:48:12Z</time></trkpt><trkpt lat="40.95990186454316" lon="8.988263449954523"><ele>387.66666666666663</ele><time>2026-04-26T09:48:13Z</time></trkpt><trkpt lat="40.95982699950554" lon="8.987985725921854"><ele>389.33333333333337</ele><time>2026-04-26T09:48:14Z</time></trkpt><trkpt lat="40.95975620989363" lon="8.987728044275586"><ele>391.0</ele><time>2026-04-26T09:48:15Z</time></trkpt><trkpt lat="40.95968882963192" lon="8.987482185672434"><ele>392.6666666666667</ele><time>2026-04-26T09:48:16Z</time></trkpt><trkpt lat="40.9596141118959" lon="8.987226253262552"><ele>394.33333333333337</ele><time>2026-04-26T09:48:17Z</time></trkpt><trkpt lat="40.959519533726144" lon="8.986957126790417"><ele>396.0</ele><time>2026-04-26T09:48:18Z</time></trkpt><trkpt lat="40.95940817643343" lon="8.986679128485552"><ele>395.5</ele><time>2026-04-26T09:48:19Z</time></trkpt><trkpt lat="40.95929267532176" lon="8.986402746754422"><ele>395.0</ele><time>2026-04-26T09:48:20Z</time></trkpt><trkpt lat="40.95918058193377" lon="8.986145974934105"><ele>395.0</ele><time>2026-04-26T09:48:21Z</time></trkpt><trkpt lat="40.959075979511546" lon="8.985909690011146"><ele>395.0</ele><time>2026-04-26T09:48:22Z</time></trkpt><trkpt lat="40.958976453758474" lon="8.985682192351318"><ele>395.0</ele><time>2026-04-26T09:48:23Z</time></trkpt><trkpt lat="40.95889006260529" lon="8.985482303430468"><ele>394.0</ele><time>2026-04-26T09:48:24Z</time></trkpt><trkpt lat="40.95881800202669" lon="8.98531366916899"><ele>393.0</ele><time>2026-04-26T09:48:25Z</time></trkpt><trkpt lat="40.95876218196862" lon="8.985161823161556"><ele>392.0</ele><time>2026-04-26T09:48:26Z</time></trkpt><trkpt lat="40.95872346995334" lon="8.985002923318552"><ele>391.0</ele><time>2026-04-26T09:48:27Z</time></trkpt><trkpt lat="40.95870396496858" lon="8.984846671983961"><ele>390.8</ele><time>2026-04-26T09:48:28Z</time></trkpt><trkpt lat="40.95869484840513" lon="8.984722429018877"><ele>390.6</ele><time>2026-04-26T09:48:29Z</time></trkpt><trkpt lat="40.958628406385166" lon="8.984615421055311"><ele>390.4</ele><time>2026-04-26T09:48:31Z</time></trkpt><trkpt lat="40.95855672200826" lon="8.98458717505434"><ele>390.2</ele><time>2026-04-26T09:48:32Z</time></trkpt><trkpt lat="40.958453597959156" lon="8.984538730303113"><ele>390.0</ele><time>2026-04-26T09:48:33Z</time></trkpt><trkpt lat="40.95832194688831" lon="8.984461611900427"><ele>390.0</ele><time>2026-04-26T09:48:34Z</time></trkpt><trkpt lat="40.95819504081494" lon="8.984336368901264"><ele>390.0</ele><time>2026-04-26T09:48:35Z</time></trkpt><trkpt lat="40.95806688191771" lon="8.984171486972212"><ele>390.0</ele><time>2026-04-26T09:48:36Z</time></trkpt><trkpt lat="40.95793008566445" lon="8.983977152084613"><ele>389.0</ele><time>2026-04-26T09:48:37Z</time></trkpt><trkpt lat="40.95778110355032" lon="8.983766794293954"><ele>388.0</ele><time>2026-04-26T09:48:38Z</time></trkpt><trkpt lat="40.95762219682517" lon="8.983544251825371"><ele>387.0</ele><time>2026-04-26T09:48:39Z</time></trkpt><trkpt lat="40.957465753868895" lon="8.9833286140711"><ele>385.0</ele><time>2026-04-26T09:48:40Z</time></trkpt><trkpt lat="40.957318045042335" lon="8.983127680026758"><ele>383.0</ele><time>2026-04-26T09:48:41Z</time></trkpt><trkpt lat="40.957176484333424" lon="8.982937544975316"><ele>381.0</ele><time>2026-04-26T09:48:42Z</time></trkpt><trkpt lat="40.95705373575282" lon="8.982769649866702"><ele>381.0</ele><time>2026-04-26T09:48:43Z</time></trkpt><trkpt lat="40.956946215310154" lon="8.982602596861636"><ele>381.0</ele><time>2026-04-26T09:48:44Z</time></trkpt><trkpt lat="40.956846982210955" lon="8.982422756491049"><ele>381.0</ele><time>2026-04-26T09:48:45Z</time></trkpt><trkpt lat="40.95677579735584" lon="8.98222820979893"><ele>381.0</ele><time>2026-04-26T09:48:46Z</time></trkpt><trkpt lat="40.95672732565113" lon="8.982020204494669"><ele>381.0</ele><time>2026-04-26T09:48:47Z</time></trkpt><trkpt lat="40.956688379616104" lon="8.98180881194237"><ele>381.0</ele><time>2026-04-26T09:48:48Z</time></trkpt><trkpt lat="40.956626854350574" lon="8.981590482799634"><ele>378.6666666666667</ele><time>2026-04-26T09:48:48.999Z</time></trkpt><trkpt lat="40.95655099048106" lon="8.981370676893578"><ele>376.33333333333337</ele><time>2026-04-26T09:48:49.999Z</time></trkpt><trkpt lat="40.956463919514306" lon="8.981143451063204"><ele>374.0</ele><time>2026-04-26T09:48:50.999Z</time></trkpt><trkpt lat="40.95636741661303" lon="8.980926969852622"><ele>371.6666666666667</ele><time>2026-04-26T09:48:51.999Z</time></trkpt><trkpt lat="40.95626280315061" lon="8.98073656118186"><ele>369.3333333333333</ele><time>2026-04-26T09:48:53Z</time></trkpt><trkpt lat="40.95614272838087" lon="8.980545999742947"><ele>367.0</ele><time>2026-04-26T09:48:54Z</time></trkpt><trkpt lat="40.95600874707553" lon="8.980359652677949"><ele>366.66666666666663</ele><time>2026-04-26T09:48:55Z</time></trkpt><trkpt lat="40.95586762987481" lon="8.980163800477797"><ele>366.3333333333333</ele><time>2026-04-26T09:48:56Z</time></trkpt><trkpt lat="40.95572611023814" lon="8.979960414021788"><ele>366.0</ele><time>2026-04-26T09:48:57Z</time></trkpt><trkpt lat="40.95557743204946" lon="8.979752982040349"><ele>366.0</ele><time>2026-04-26T09:48:58Z</time></trkpt><trkpt lat="40.955424158936644" lon="8.97952758854568"><ele>366.0</ele><time>2026-04-26T09:48:59Z</time></trkpt><trkpt lat="40.95527599787427" lon="8.979304849996861"><ele>368.3333333333333</ele><time>2026-04-26T09:49:00Z</time></trkpt><trkpt lat="40.955151293876185" lon="8.979109138093994"><ele>370.66666666666663</ele><time>2026-04-26T09:49:01Z</time></trkpt><trkpt lat="40.95503497715807" lon="8.978927538162646"><ele>373.0</ele><time>2026-04-26T09:49:02Z</time></trkpt><trkpt lat="40.95491622606384" lon="8.978766384584933"><ele>373.0</ele><time>2026-04-26T09:49:03Z</time></trkpt><trkpt lat="40.954784229426835" lon="8.978614740504867"><ele>373.0</ele><time>2026-04-26T09:49:04Z</time></trkpt><trkpt lat="40.954643848264276" lon="8.978479090793497"><ele>373.0</ele><time>2026-04-26T09:49:05Z</time></trkpt><trkpt lat="40.95450270430776" lon="8.978345957121316"><ele>374.25</ele><time>2026-04-26T09:49:06Z</time></trkpt><trkpt lat="40.95436906137542" lon="8.978221363602868"><ele>375.5</ele><time>2026-04-26T09:49:07Z</time></trkpt><trkpt lat="40.9542559048617" lon="8.978098395433687"><ele>376.75</ele><time>2026-04-26T09:49:08Z</time></trkpt><trkpt lat="40.9541615051639" lon="8.977964300126466"><ele>378.0</ele><time>2026-04-26T09:49:09Z</time></trkpt><trkpt lat="40.95408013145634" lon="8.977815736384041"><ele>378.0</ele><time>2026-04-26T09:49:10Z</time></trkpt><trkpt lat="40.954006275016056" lon="8.977647445326019"><ele>378.0</ele><time>2026-04-26T09:49:11Z</time></trkpt><trkpt lat="40.953937443577544" lon="8.9774368016924"><ele>378.0</ele><time>2026-04-26T09:49:12Z</time></trkpt><trkpt lat="40.9538728796376" lon="8.977202400199182"><ele>372.3333333333333</ele><time>2026-04-26T09:49:13Z</time></trkpt><trkpt lat="40.95379767586194" lon="8.976995730322695"><ele>366.66666666666663</ele><time>2026-04-26T09:49:14Z</time></trkpt><trkpt lat="40.95369217629369" lon="8.976802106583042"><ele>361.0</ele><time>2026-04-26T09:49:15Z</time></trkpt><trkpt lat="40.953562235376104" lon="8.976630345767939"><ele>364.0</ele><time>2026-04-26T09:49:16Z</time></trkpt><trkpt lat="40.95341577695396" lon="8.976481877944119"><ele>367.0</ele><time>2026-04-26T09:49:17Z</time></trkpt><trkpt lat="40.953269475103" lon="8.976326710096814"><ele>370.0</ele><time>2026-04-26T09:49:18Z</time></trkpt><trkpt lat="40.95314910644629" lon="8.976147388687275"><ele>370.0</ele><time>2026-04-26T09:49:19Z</time></trkpt><trkpt lat="40.95305588894071" lon="8.975946289052356"><ele>370.0</ele><time>2026-04-26T09:49:20Z</time></trkpt><trkpt lat="40.95296812553858" lon="8.975740022671694"><ele>370.0</ele><time>2026-04-26T09:49:21Z</time></trkpt><trkpt lat="40.9528704998828" lon="8.975519104092326"><ele>366.0</ele><time>2026-04-26T09:49:22Z</time></trkpt><trkpt lat="40.95275948550853" lon="8.975295551144775"><ele>362.0</ele><time>2026-04-26T09:49:23Z</time></trkpt><trkpt lat="40.952636400730285" lon="8.975095652378078"><ele>358.0</ele><time>2026-04-26T09:49:24Z</time></trkpt><trkpt lat="40.95249964548175" lon="8.97491818428797"><ele>358.0</ele><time>2026-04-26T09:49:25Z</time></trkpt><trkpt lat="40.9523553844817" lon="8.974746527670385"><ele>358.0</ele><time>2026-04-26T09:49:26Z</time></trkpt><trkpt lat="40.95220887668529" lon="8.974572348564132"><ele>358.0</ele><time>2026-04-26T09:49:27Z</time></trkpt><trkpt lat="40.95207217547011" lon="8.974401804038784"><ele>358.0</ele><time>2026-04-26T09:49:28Z</time></trkpt><trkpt lat="40.95194470407345" lon="8.974228941115252"><ele>358.0</ele><time>2026-04-26T09:49:29Z</time></trkpt><trkpt lat="40.95181831012924" lon="8.974050172420348"><ele>358.0</ele><time>2026-04-26T09:49:30Z</time></trkpt><trkpt lat="40.95168510632599" lon="8.973880100370431"><ele>356.3333333333333</ele><time>2026-04-26T09:49:31Z</time></trkpt><trkpt lat="40.95154455339713" lon="8.973695117568425"><ele>354.6666666666667</ele><time>2026-04-26T09:49:32Z</time></trkpt><trkpt lat="40.951405507025115" lon="8.973503671055598"><ele>353.0</ele><time>2026-04-26T09:49:33Z</time></trkpt><trkpt lat="40.95127345288845" lon="8.973306173915429"><ele>350.33333333333337</ele><time>2026-04-26T09:49:34Z</time></trkpt><trkpt lat="40.95114660203394" lon="8.97311001659941"><ele>347.6666666666667</ele><time>2026-04-26T09:49:35Z</time></trkpt><trkpt lat="40.95102410283705" lon="8.972914516770915"><ele>345.0</ele><time>2026-04-26T09:49:36Z</time></trkpt><trkpt lat="40.95090459783803" lon="8.97272150379838"><ele>345.0</ele><time>2026-04-26T09:49:37Z</time></trkpt><trkpt lat="40.95078879222454" lon="8.972527140193808"><ele>345.0</ele><time>2026-04-26T09:49:38Z</time></trkpt><trkpt lat="40.95068397370485" lon="8.972340724644905"><ele>345.0</ele><time>2026-04-26T09:49:39Z</time></trkpt><trkpt lat="40.95059893930552" lon="8.972169784947642"><ele>342.5</ele><time>2026-04-26T09:49:40Z</time></trkpt><trkpt lat="40.95054235023371" lon="8.972004139597427"><ele>340.0</ele><time>2026-04-26T09:49:41Z</time></trkpt><trkpt lat="40.950516480667375" lon="8.97181520889288"><ele>337.5</ele><time>2026-04-26T09:49:42Z</time></trkpt><trkpt lat="40.95052150366365" lon="8.971617793181695"><ele>335.0</ele><time>2026-04-26T09:49:43Z</time></trkpt><trkpt lat="40.950564375830446" lon="8.971414916770335"><ele>333.0</ele><time>2026-04-26T09:49:44Z</time></trkpt><trkpt lat="40.950615463031376" lon="8.971190216203746"><ele>331.0</ele><time>2026-04-26T09:49:45Z</time></trkpt><trkpt lat="40.95067825464232" lon="8.970931105824903"><ele>329.0</ele><time>2026-04-26T09:49:46Z</time></trkpt><trkpt lat="40.950728449720906" lon="8.970667917799663"><ele>328.0</ele><time>2026-04-26T09:49:47Z</time></trkpt><trkpt lat="40.950766479234964" lon="8.970419443807248"><ele>327.0</ele><time>2026-04-26T09:49:48Z</time></trkpt><trkpt lat="40.950787162013896" lon="8.97015867198723"><ele>326.0</ele><time>2026-04-26T09:49:49Z</time></trkpt><trkpt lat="40.95078696388938" lon="8.96987342109226"><ele>326.0</ele><time>2026-04-26T09:49:50Z</time></trkpt><trkpt lat="40.95077685130348" lon="8.969567960101886"><ele>326.0</ele><time>2026-04-26T09:49:51Z</time></trkpt><trkpt lat="40.950763204099886" lon="8.969271026593827"><ele>327.33333333333337</ele><time>2026-04-26T09:49:52Z</time></trkpt><trkpt lat="40.95075216488069" lon="8.969001739502056"><ele>328.6666666666667</ele><time>2026-04-26T09:49:53Z</time></trkpt><trkpt lat="40.95073324470741" lon="8.968748389892992"><ele>330.0</ele><time>2026-04-26T09:49:54Z</time></trkpt><trkpt lat="40.9506946366289" lon="8.968494056940896"><ele>328.6666666666667</ele><time>2026-04-26T09:49:55Z</time></trkpt><trkpt lat="40.95063331936972" lon="8.968241656688988"><ele>327.33333333333337</ele><time>2026-04-26T09:49:56Z</time></trkpt><trkpt lat="40.95055747079104" lon="8.967988745233965"><ele>326.0</ele><time>2026-04-26T09:49:57Z</time></trkpt><trkpt lat="40.95048973855901" lon="8.967750405194378"><ele>326.33333333333337</ele><time>2026-04-26T09:49:58Z</time></trkpt><trkpt lat="40.950427133618646" lon="8.967525986725013"><ele>326.6666666666667</ele><time>2026-04-26T09:49:59Z</time></trkpt><trkpt lat="40.95035860942679" lon="8.96731762592576"><ele>327.0</ele><time>2026-04-26T09:50:00Z</time></trkpt><trkpt lat="40.95027674776218" lon="8.967122104701197"><ele>327.0</ele><time>2026-04-26T09:50:01Z</time></trkpt><trkpt lat="40.95017822659735" lon="8.96692841997458"><ele>327.0</ele><time>2026-04-26T09:50:02Z</time></trkpt><trkpt lat="40.95007105354135" lon="8.966730084010067"><ele>327.0</ele><time>2026-04-26T09:50:03Z</time></trkpt><trkpt lat="40.9499610660532" lon="8.966520977383803"><ele>327.3333333333333</ele><time>2026-04-26T09:50:04Z</time></trkpt><trkpt lat="40.94984687443579" lon="8.966306139681139"><ele>327.66666666666663</ele><time>2026-04-26T09:50:05Z</time></trkpt><trkpt lat="40.94972509250396" lon="8.966079748005543"><ele>328.0</ele><time>2026-04-26T09:50:06Z</time></trkpt><trkpt lat="40.949597587906226" lon="8.965841633903574"><ele>328.0</ele><time>2026-04-26T09:50:07Z</time></trkpt><trkpt lat="40.94946321761916" lon="8.965601979030845"><ele>328.0</ele><time>2026-04-26T09:50:08Z</time></trkpt><trkpt lat="40.94932929010462" lon="8.965375686493683"><ele>328.0</ele><time>2026-04-26T09:50:09Z</time></trkpt><trkpt lat="40.94919817551226" lon="8.965156043441366"><ele>325.0</ele><time>2026-04-26T09:50:10Z</time></trkpt><trkpt lat="40.949075139365284" lon="8.9649490305979"><ele>322.0</ele><time>2026-04-26T09:50:11Z</time></trkpt><trkpt lat="40.948960751933285" lon="8.964754229756345"><ele>319.0</ele><time>2026-04-26T09:50:12Z</time></trkpt><trkpt lat="40.94885349499446" lon="8.964560074048743"><ele>319.0</ele><time>2026-04-26T09:50:13Z</time></trkpt><trkpt lat="40.94875399423717" lon="8.964358068562172"><ele>319.0</ele><time>2026-04-26T09:50:14Z</time></trkpt><trkpt lat="40.94869690504371" lon="8.96413626792879"><ele>319.0</ele><time>2026-04-26T09:50:15Z</time></trkpt><trkpt lat="40.948654049310576" lon="8.96390692586187"><ele>317.0</ele><time>2026-04-26T09:50:16Z</time></trkpt><trkpt lat="40.948603359294474" lon="8.963672526709232"><ele>315.0</ele><time>2026-04-26T09:50:17Z</time></trkpt><trkpt lat="40.948546761776896" lon="8.963428289601856"><ele>313.0</ele><time>2026-04-26T09:50:18Z</time></trkpt><trkpt lat="40.948473940546116" lon="8.963168721226097"><ele>310.0</ele><time>2026-04-26T09:50:19Z</time></trkpt><trkpt lat="40.948379368429386" lon="8.962935507971842"><ele>307.0</ele><time>2026-04-26T09:50:20Z</time></trkpt><trkpt lat="40.948300441927636" lon="8.962703241010123"><ele>304.0</ele><time>2026-04-26T09:50:21Z</time></trkpt><trkpt lat="40.94822072603872" lon="8.962475333257418"><ele>298.66666666666663</ele><time>2026-04-26T09:50:22Z</time></trkpt><trkpt lat="40.94813620422404" lon="8.962252933432834"><ele>293.3333333333333</ele><time>2026-04-26T09:50:23Z</time></trkpt><trkpt lat="40.948035435950686" lon="8.962023879884523"><ele>288.0</ele><time>2026-04-26T09:50:24Z</time></trkpt><trkpt lat="40.94791121269289" lon="8.961780566065102"><ele>283.5</ele><time>2026-04-26T09:50:25Z</time></trkpt><trkpt lat="40.94777530650287" lon="8.961525636814397"><ele>279.0</ele><time>2026-04-26T09:50:26Z</time></trkpt><trkpt lat="40.94764359339568" lon="8.961272025548626"><ele>279.3333333333333</ele><time>2026-04-26T09:50:27Z</time></trkpt><trkpt lat="40.94752075745016" lon="8.961032488331103"><ele>279.66666666666663</ele><time>2026-04-26T09:50:28Z</time></trkpt><trkpt lat="40.947403121071474" lon="8.960803521780873"><ele>280.0</ele><time>2026-04-26T09:50:29Z</time></trkpt><trkpt lat="40.94729637328427" lon="8.96059817117822"><ele>280.0</ele><time>2026-04-26T09:50:30Z</time></trkpt><trkpt lat="40.947196700021436" lon="8.960409373174986"><ele>280.0</ele><time>2026-04-26T09:50:31Z</time></trkpt><trkpt lat="40.94709651959938" lon="8.960233492067973"><ele>280.0</ele><time>2026-04-26T09:50:32Z</time></trkpt><trkpt lat="40.946982084775456" lon="8.960069469836377"><ele>280.0</ele><time>2026-04-26T09:50:33Z</time></trkpt><trkpt lat="40.946840268544115" lon="8.959912818944288"><ele>280.0</ele><time>2026-04-26T09:50:34Z</time></trkpt><trkpt lat="40.94666928446588" lon="8.959757613469492"><ele>280.0</ele><time>2026-04-26T09:50:35Z</time></trkpt><trkpt lat="40.94648105057566" lon="8.959603693575152"><ele>280.0</ele><time>2026-04-26T09:50:36Z</time></trkpt><trkpt lat="40.94629797347313" lon="8.959445280456967"><ele>280.0</ele><time>2026-04-26T09:50:37Z</time></trkpt><trkpt lat="40.946126730319776" lon="8.95927363719576"><ele>280.0</ele><time>2026-04-26T09:50:38Z</time></trkpt><trkpt lat="40.94595470073905" lon="8.959078277659925"><ele>276.0</ele><time>2026-04-26T09:50:39Z</time></trkpt><trkpt lat="40.94577035941569" lon="8.958858557680582"><ele>272.0</ele><time>2026-04-26T09:50:40Z</time></trkpt><trkpt lat="40.945579837977576" lon="8.958627766612274"><ele>272.0</ele><time>2026-04-26T09:50:41Z</time></trkpt><trkpt lat="40.945378158713304" lon="8.95839508813686"><ele>272.0</ele><time>2026-04-26T09:50:42Z</time></trkpt><trkpt lat="40.9451741150743" lon="8.958153716338085"><ele>272.0</ele><time>2026-04-26T09:50:43Z</time></trkpt><trkpt lat="40.944984654501056" lon="8.957935132823414"><ele>272.0</ele><time>2026-04-26T09:50:44Z</time></trkpt><trkpt lat="40.94480707423007" lon="8.957728885854772"><ele>268.6666666666667</ele><time>2026-04-26T09:50:45Z</time></trkpt><trkpt lat="40.94463771353575" lon="8.957528425492661"><ele>265.3333333333333</ele><time>2026-04-26T09:50:46Z</time></trkpt><trkpt lat="40.94447818198923" lon="8.957332517011634"><ele>262.0</ele><time>2026-04-26T09:50:47Z</time></trkpt><trkpt lat="40.944335676384014" lon="8.957136561830348"><ele>262.0</ele><time>2026-04-26T09:50:47.999Z</time></trkpt><trkpt lat="40.944216355408294" lon="8.956924115064215"><ele>262.0</ele><time>2026-04-26T09:50:48.999Z</time></trkpt><trkpt lat="40.94408922024261" lon="8.956713325373572"><ele>262.0</ele><time>2026-04-26T09:50:49.999Z</time></trkpt><trkpt lat="40.94394642559358" lon="8.956509532633211"><ele>261.5</ele><time>2026-04-26T09:50:50.999Z</time></trkpt><trkpt lat="40.9438093625601" lon="8.956275569300097"><ele>261.0</ele><time>2026-04-26T09:50:51.999Z</time></trkpt><trkpt lat="40.94366650368085" lon="8.95602787991638"><ele>259.6666666666667</ele><time>2026-04-26T09:50:52.999Z</time></trkpt><trkpt lat="40.943538116688856" lon="8.955791754607933"><ele>258.33333333333337</ele><time>2026-04-26T09:50:53.999Z</time></trkpt><trkpt lat="40.94342986487634" lon="8.955556286109408"><ele>257.0</ele><time>2026-04-26T09:50:54.999Z</time></trkpt><trkpt lat="40.94332099441031" lon="8.955307399945207"><ele>258.5</ele><time>2026-04-26T09:50:55.999Z</time></trkpt><trkpt lat="40.94320342228857" lon="8.955043574255178"><ele>260.0</ele><time>2026-04-26T09:50:56.999Z</time></trkpt><trkpt lat="40.94307641507116" lon="8.954767722462542"><ele>260.0</ele><time>2026-04-26T09:50:57.999Z</time></trkpt><trkpt lat="40.94294990435009" lon="8.95449327074866"><ele>260.0</ele><time>2026-04-26T09:50:59Z</time></trkpt><trkpt lat="40.942832366897115" lon="8.954237784887003"><ele>259.0</ele><time>2026-04-26T09:51:00Z</time></trkpt><trkpt lat="40.94272289725994" lon="8.954013184458937"><ele>258.0</ele><time>2026-04-26T09:51:01Z</time></trkpt><trkpt lat="40.942607793385655" lon="8.953817638705218"><ele>257.0</ele><time>2026-04-26T09:51:02Z</time></trkpt><trkpt lat="40.942467097377154" lon="8.953643442567834"><ele>260.0</ele><time>2026-04-26T09:51:03Z</time></trkpt><trkpt lat="40.94234535165768" lon="8.95344298179596"><ele>263.0</ele><time>2026-04-26T09:51:04Z</time></trkpt><trkpt lat="40.942126467819065" lon="8.953347251336949"><ele>266.0</ele><time>2026-04-26T09:51:05Z</time></trkpt><trkpt lat="40.94194780686252" lon="8.953214280629432"><ele>266.0</ele><time>2026-04-26T09:51:06Z</time></trkpt><trkpt lat="40.94178384488296" lon="8.953094109028099"><ele>266.0</ele><time>2026-04-26T09:51:07Z</time></trkpt><trkpt lat="40.941635823302356" lon="8.952972678048665"><ele>266.0</ele><time>2026-04-26T09:51:08Z</time></trkpt><trkpt lat="40.941500092046326" lon="8.952836355639082"><ele>268.33333333333337</ele><time>2026-04-26T09:51:09Z</time></trkpt><trkpt lat="40.9413785604688" lon="8.952667356621612"><ele>270.6666666666667</ele><time>2026-04-26T09:51:10Z</time></trkpt><trkpt lat="40.94126002867673" lon="8.952461355384578"><ele>273.0</ele><time>2026-04-26T09:51:11Z</time></trkpt><trkpt lat="40.941139387143814" lon="8.952221903781322"><ele>273.0</ele><time>2026-04-26T09:51:12Z</time></trkpt><trkpt lat="40.94102026050113" lon="8.951968337226235"><ele>273.0</ele><time>2026-04-26T09:51:13Z</time></trkpt><trkpt lat="40.940913832881286" lon="8.951708640854196"><ele>273.0</ele><time>2026-04-26T09:51:14Z</time></trkpt><trkpt lat="40.940807872370215" lon="8.95142823834184"><ele>267.0</ele><time>2026-04-26T09:51:15Z</time></trkpt><trkpt lat="40.94070933916805" lon="8.951118773356693"><ele>261.0</ele><time>2026-04-26T09:51:16Z</time></trkpt><trkpt lat="40.940616889714356" lon="8.950838844800373"><ele>259.0</ele><time>2026-04-26T09:51:17Z</time></trkpt><trkpt lat="40.94054580588627" lon="8.950633105312535"><ele>257.0</ele><time>2026-04-26T09:51:18Z</time></trkpt><trkpt lat="40.94047914563254" lon="8.950460226614505"><ele>255.0</ele><time>2026-04-26T09:51:19Z</time></trkpt><trkpt lat="40.940395938170134" lon="8.950292192259283"><ele>255.0</ele><time>2026-04-26T09:51:20Z</time></trkpt><trkpt lat="40.940297692632136" lon="8.950135112696616"><ele>255.0</ele><time>2026-04-26T09:51:21Z</time></trkpt><trkpt lat="40.940189240730554" lon="8.949982878221428"><ele>255.0</ele><time>2026-04-26T09:51:22Z</time></trkpt><trkpt lat="40.94008141147715" lon="8.94984228266265"><ele>256.5</ele><time>2026-04-26T09:51:23Z</time></trkpt><trkpt lat="40.93997982925178" lon="8.949729943918108"><ele>258.0</ele><time>2026-04-26T09:51:24Z</time></trkpt><trkpt lat="40.93986325213463" lon="8.949641401589739"><ele>259.5</ele><time>2026-04-26T09:51:25Z</time></trkpt><trkpt lat="40.939719368963296" lon="8.949593413742662"><ele>261.0</ele><time>2026-04-26T09:51:26Z</time></trkpt><trkpt lat="40.93956102763628" lon="8.949593881511678"><ele>261.0</ele><time>2026-04-26T09:51:27Z</time></trkpt><trkpt lat="40.93939852962339" lon="8.949645052915855"><ele>261.0</ele><time>2026-04-26T09:51:28Z</time></trkpt><trkpt lat="40.93923548329428" lon="8.949740235066473"><ele>261.0</ele><time>2026-04-26T09:51:29Z</time></trkpt><trkpt lat="40.9390751877599" lon="8.949875318224171"><ele>264.3333333333333</ele><time>2026-04-26T09:51:30Z</time></trkpt><trkpt lat="40.9389086884468" lon="8.950023575301708"><ele>267.66666666666663</ele><time>2026-04-26T09:51:31Z</time></trkpt><trkpt lat="40.9387365848069" lon="8.950147542500842"><ele>271.0</ele><time>2026-04-26T09:51:32Z</time></trkpt><trkpt lat="40.93857022467733" lon="8.950214824692756"><ele>273.0</ele><time>2026-04-26T09:51:33Z</time></trkpt><trkpt lat="40.938400889046214" lon="8.950227000798936"><ele>275.0</ele><time>2026-04-26T09:51:34Z</time></trkpt><trkpt lat="40.93822422403455" lon="8.950191755767896"><ele>277.0</ele><time>2026-04-26T09:51:35Z</time></trkpt><trkpt lat="40.93803783085809" lon="8.950127705386961"><ele>276.66666666666663</ele><time>2026-04-26T09:51:36Z</time></trkpt><trkpt lat="40.937841249527054" lon="8.950048087938724"><ele>276.3333333333333</ele><time>2026-04-26T09:51:37Z</time></trkpt><trkpt lat="40.93765045524687" lon="8.949985147212875"><ele>276.0</ele><time>2026-04-26T09:51:38Z</time></trkpt><trkpt lat="40.937481963943604" lon="8.949923849135658"><ele>278.25</ele><time>2026-04-26T09:51:39Z</time></trkpt><trkpt lat="40.93733558048245" lon="8.949826769510882"><ele>280.5</ele><time>2026-04-26T09:51:40Z</time></trkpt><trkpt lat="40.937224565947005" lon="8.949721751167385"><ele>282.75</ele><time>2026-04-26T09:51:41Z</time></trkpt><trkpt lat="40.93713857021015" lon="8.949614460742904"><ele>285.0</ele><time>2026-04-26T09:51:42Z</time></trkpt><trkpt lat="40.937072598973195" lon="8.949487400994222"><ele>285.0</ele><time>2026-04-26T09:51:43Z</time></trkpt><trkpt lat="40.937025191405844" lon="8.949331346332496"><ele>285.0</ele><time>2026-04-26T09:51:44Z</time></trkpt><trkpt lat="40.93698663084682" lon="8.94915166114749"><ele>285.0</ele><time>2026-04-26T09:51:45Z</time></trkpt><trkpt lat="40.93693436730708" lon="8.948945287663623"><ele>285.0</ele><time>2026-04-26T09:51:46Z</time></trkpt><trkpt lat="40.93687409378073" lon="8.948719569316156"><ele>286.3333333333333</ele><time>2026-04-26T09:51:47Z</time></trkpt><trkpt lat="40.9368097454595" lon="8.948476843437884"><ele>287.66666666666663</ele><time>2026-04-26T09:51:48Z</time></trkpt><trkpt lat="40.93673731042746" lon="8.948215795041486"><ele>289.0</ele><time>2026-04-26T09:51:49Z</time></trkpt><trkpt lat="40.936664147257126" lon="8.947949553993732"><ele>289.0</ele><time>2026-04-26T09:51:50Z</time></trkpt><trkpt lat="40.93658631806696" lon="8.947687201360488"><ele>289.0</ele><time>2026-04-26T09:51:51Z</time></trkpt><trkpt lat="40.93649619729834" lon="8.947420603700099"><ele>289.0</ele><time>2026-04-26T09:51:52Z</time></trkpt><trkpt lat="40.936403081883974" lon="8.94716864522587"><ele>287.66666666666663</ele><time>2026-04-26T09:51:53Z</time></trkpt><trkpt lat="40.936314110870065" lon="8.946945233688943"><ele>286.3333333333333</ele><time>2026-04-26T09:51:54Z</time></trkpt><trkpt lat="40.93623761573366" lon="8.94675256769809"><ele>285.0</ele><time>2026-04-26T09:51:55Z</time></trkpt><trkpt lat="40.93616205319959" lon="8.946581962449935"><ele>284.0</ele><time>2026-04-26T09:51:56Z</time></trkpt><trkpt lat="40.93606937637542" lon="8.946441269226854"><ele>283.0</ele><time>2026-04-26T09:51:57Z</time></trkpt><trkpt lat="40.935946907091434" lon="8.946332032170904"><ele>282.0</ele><time>2026-04-26T09:51:58Z</time></trkpt><trkpt lat="40.93580610097039" lon="8.946258573099263"><ele>281.0</ele><time>2026-04-26T09:51:59Z</time></trkpt><trkpt lat="40.93565134799825" lon="8.94622164277232"><ele>274.33333333333337</ele><time>2026-04-26T09:52:00Z</time></trkpt><trkpt lat="40.935474778513935" lon="8.946194220973407"><ele>267.6666666666667</ele><time>2026-04-26T09:52:01Z</time></trkpt><trkpt lat="40.935274747825574" lon="8.946161187681554"><ele>261.0</ele><time>2026-04-26T09:52:02Z</time></trkpt><trkpt lat="40.93507685104585" lon="8.946130611323948"><ele>260.6666666666667</ele><time>2026-04-26T09:52:03Z</time></trkpt><trkpt lat="40.93489520573796" lon="8.946102901237346"><ele>260.33333333333337</ele><time>2026-04-26T09:52:04Z</time></trkpt><trkpt lat="40.93472691478136" lon="8.94606648831618"><ele>260.0</ele><time>2026-04-26T09:52:05Z</time></trkpt><trkpt lat="40.934569800695826" lon="8.945999351865373"><ele>260.0</ele><time>2026-04-26T09:52:06Z</time></trkpt><trkpt lat="40.934426003761715" lon="8.945887139098733"><ele>260.0</ele><time>2026-04-26T09:52:07Z</time></trkpt><trkpt lat="40.934301159355726" lon="8.945743612941792"><ele>260.0</ele><time>2026-04-26T09:52:08Z</time></trkpt><trkpt lat="40.93419611909463" lon="8.945569254320365"><ele>256.0</ele><time>2026-04-26T09:52:09Z</time></trkpt><trkpt lat="40.934121296041845" lon="8.945345725141298"><ele>252.0</ele><time>2026-04-26T09:52:10Z</time></trkpt><trkpt lat="40.93402635129977" lon="8.945097763941906"><ele>248.0</ele><time>2026-04-26T09:52:11Z</time></trkpt><trkpt lat="40.933936588736636" lon="8.944846843690529"><ele>245.33333333333334</ele><time>2026-04-26T09:52:12Z</time></trkpt><trkpt lat="40.93384752472469" lon="8.944618037147956"><ele>242.66666666666669</ele><time>2026-04-26T09:52:13Z</time></trkpt><trkpt lat="40.933748061315825" lon="8.944399048479593"><ele>240.0</ele><time>2026-04-26T09:52:14Z</time></trkpt><trkpt lat="40.9336411032189" lon="8.944184305348246"><ele>239.0</ele><time>2026-04-26T09:52:15Z</time></trkpt><trkpt lat="40.933521723474584" lon="8.94397241141096"><ele>238.0</ele><time>2026-04-26T09:52:16Z</time></trkpt><trkpt lat="40.93339017775184" lon="8.943768057536088"><ele>237.0</ele><time>2026-04-26T09:52:17Z</time></trkpt><trkpt lat="40.93324671872141" lon="8.943569884020327"><ele>233.66666666666669</ele><time>2026-04-26T09:52:18Z</time></trkpt><trkpt lat="40.93309752206299" lon="8.943374993506435"><ele>230.33333333333334</ele><time>2026-04-26T09:52:19Z</time></trkpt><trkpt lat="40.9329438244517" lon="8.943178109637723"><ele>227.0</ele><time>2026-04-26T09:52:20Z</time></trkpt><trkpt lat="40.932792334797306" lon="8.942978053439587"><ele>227.0</ele><time>2026-04-26T09:52:21Z</time></trkpt><trkpt lat="40.93264541701469" lon="8.942774266317903"><ele>227.0</ele><time>2026-04-26T09:52:22Z</time></trkpt><trkpt lat="40.9325034946659" lon="8.942566683599088"><ele>227.0</ele><time>2026-04-26T09:52:23Z</time></trkpt><trkpt lat="40.93236895588243" lon="8.942352217883139"><ele>226.0</ele><time>2026-04-26T09:52:24Z</time></trkpt><trkpt lat="40.93224318460054" lon="8.942129356949627"><ele>225.0</ele><time>2026-04-26T09:52:25Z</time></trkpt><trkpt lat="40.93212401313408" lon="8.94190038994256"><ele>224.0</ele><time>2026-04-26T09:52:26Z</time></trkpt><trkpt lat="40.932003642301716" lon="8.941677616138652"><ele>224.0</ele><time>2026-04-26T09:52:27Z</time></trkpt><trkpt lat="40.931866320280584" lon="8.941463984574066"><ele>224.0</ele><time>2026-04-26T09:52:28Z</time></trkpt><trkpt lat="40.931720384745475" lon="8.941253642993003"><ele>224.0</ele><time>2026-04-26T09:52:29Z</time></trkpt><trkpt lat="40.931572609844174" lon="8.94104386039053"><ele>220.0</ele><time>2026-04-26T09:52:30Z</time></trkpt><trkpt lat="40.93142228216405" lon="8.940828437480619"><ele>216.0</ele><time>2026-04-26T09:52:31Z</time></trkpt><trkpt lat="40.93127848400222" lon="8.94061400070736"><ele>212.0</ele><time>2026-04-26T09:52:32Z</time></trkpt><trkpt lat="40.9311495998357" lon="8.940404215723332"><ele>212.0</ele><time>2026-04-26T09:52:33Z</time></trkpt><trkpt lat="40.93104271819264" lon="8.940204187550448"><ele>212.0</ele><time>2026-04-26T09:52:34Z</time></trkpt><trkpt lat="40.93094588381789" lon="8.939996831981356"><ele>212.0</ele><time>2026-04-26T09:52:35Z</time></trkpt><trkpt lat="40.93084800752338" lon="8.939803981093544"><ele>212.0</ele><time>2026-04-26T09:52:36Z</time></trkpt><trkpt lat="40.930734159045784" lon="8.9396365887739"><ele>212.0</ele><time>2026-04-26T09:52:37Z</time></trkpt><trkpt lat="40.930595240028545" lon="8.939492994741812"><ele>212.0</ele><time>2026-04-26T09:52:38Z</time></trkpt><trkpt lat="40.930438231639656" lon="8.939352796648198"><ele>211.0</ele><time>2026-04-26T09:52:39Z</time></trkpt><trkpt lat="40.93027553815768" lon="8.939195826948492"><ele>210.0</ele><time>2026-04-26T09:52:40Z</time></trkpt><trkpt lat="40.93011138614645" lon="8.939034630680881"><ele>209.0</ele><time>2026-04-26T09:52:41Z</time></trkpt><trkpt lat="40.9299501295483" lon="8.938873146677432"><ele>207.0</ele><time>2026-04-26T09:52:42Z</time></trkpt><trkpt lat="40.92979496906193" lon="8.938720855642531"><ele>205.0</ele><time>2026-04-26T09:52:43Z</time></trkpt><trkpt lat="40.92965050391688" lon="8.938575496619402"><ele>203.0</ele><time>2026-04-26T09:52:44Z</time></trkpt><trkpt lat="40.929528267499045" lon="8.938437537782397"><ele>200.33333333333334</ele><time>2026-04-26T09:52:45Z</time></trkpt><trkpt lat="40.92943107828321" lon="8.938282919598551"><ele>197.66666666666669</ele><time>2026-04-26T09:52:46Z</time></trkpt><trkpt lat="40.92937049038853" lon="8.93809896304236"><ele>195.0</ele><time>2026-04-26T09:52:47Z</time></trkpt><trkpt lat="40.92932456262264" lon="8.937907671651098"><ele>195.0</ele><time>2026-04-26T09:52:48Z</time></trkpt><trkpt lat="40.92927129931845" lon="8.937687711407053"><ele>195.0</ele><time>2026-04-26T09:52:49Z</time></trkpt><trkpt lat="40.9292461758431" lon="8.937448811960724"><ele>195.0</ele><time>2026-04-26T09:52:50Z</time></trkpt><trkpt lat="40.92920724690485" lon="8.937231208642576"><ele>193.0</ele><time>2026-04-26T09:52:51Z</time></trkpt><trkpt lat="40.929138643525945" lon="8.937045395964512"><ele>191.0</ele><time>2026-04-26T09:52:52Z</time></trkpt><trkpt lat="40.92904048867533" lon="8.936893008404699"><ele>189.0</ele><time>2026-04-26T09:52:53Z</time></trkpt><trkpt lat="40.92891797386593" lon="8.936775333111731"><ele>188.33333333333334</ele><time>2026-04-26T09:52:54Z</time></trkpt><trkpt lat="40.928773301280046" lon="8.936682215089833"><ele>187.66666666666669</ele><time>2026-04-26T09:52:55Z</time></trkpt><trkpt lat="40.928625884372615" lon="8.936578782896792"><ele>187.0</ele><time>2026-04-26T09:52:56Z</time></trkpt><trkpt lat="40.92847884145203" lon="8.936458122734008"><ele>186.66666666666669</ele><time>2026-04-26T09:52:57Z</time></trkpt><trkpt lat="40.928330159557284" lon="8.936325117771487"><ele>186.33333333333334</ele><time>2026-04-26T09:52:58Z</time></trkpt><trkpt lat="40.92818040119281" lon="8.936180142385059"><ele>186.0</ele><time>2026-04-26T09:52:59Z</time></trkpt><trkpt lat="40.928029561973986" lon="8.93601548140088"><ele>182.33333333333334</ele><time>2026-04-26T09:53:00Z</time></trkpt><trkpt lat="40.92788972828339" lon="8.935828720451177"><ele>178.66666666666669</ele><time>2026-04-26T09:53:01Z</time></trkpt><trkpt lat="40.927750533062536" lon="8.935606572023884"><ele>175.0</ele><time>2026-04-26T09:53:02Z</time></trkpt><trkpt lat="40.927597797272256" lon="8.935360245663002"><ele>177.0</ele><time>2026-04-26T09:53:03Z</time></trkpt><trkpt lat="40.92743033550036" lon="8.935105634628025"><ele>179.0</ele><time>2026-04-26T09:53:04Z</time></trkpt><trkpt lat="40.92725287011567" lon="8.934847221583764"><ele>174.5</ele><time>2026-04-26T09:53:05Z</time></trkpt><trkpt lat="40.92709072522002" lon="8.934604976559473"><ele>170.0</ele><time>2026-04-26T09:53:06Z</time></trkpt><trkpt lat="40.926936130460795" lon="8.934373479493125"><ele>168.5</ele><time>2026-04-26T09:53:07Z</time></trkpt><trkpt lat="40.92678365894288" lon="8.934147374685702"><ele>167.0</ele><time>2026-04-26T09:53:08Z</time></trkpt><trkpt lat="40.92663270427371" lon="8.933923075747806"><ele>166.33333333333331</ele><time>2026-04-26T09:53:09Z</time></trkpt><trkpt lat="40.926484329633496" lon="8.933699549758064"><ele>165.66666666666666</ele><time>2026-04-26T09:53:10Z</time></trkpt><trkpt lat="40.926339592041025" lon="8.933484283708243"><ele>165.0</ele><time>2026-04-26T09:53:11Z</time></trkpt><trkpt lat="40.92619608916131" lon="8.933272514558434"><ele>164.33333333333334</ele><time>2026-04-26T09:53:12Z</time></trkpt><trkpt lat="40.9260593739121" lon="8.933055359775802"><ele>163.66666666666669</ele><time>2026-04-26T09:53:13Z</time></trkpt><trkpt lat="40.92592882099388" lon="8.932831276881034"><ele>163.0</ele><time>2026-04-26T09:53:14Z</time></trkpt><trkpt lat="40.9258034915159" lon="8.93260372633578"><ele>160.33333333333334</ele><time>2026-04-26T09:53:15Z</time></trkpt><trkpt lat="40.92568046697151" lon="8.932380092805674"><ele>157.66666666666666</ele><time>2026-04-26T09:53:16Z</time></trkpt><trkpt lat="40.92556180982245" lon="8.932168541471368"><ele>155.0</ele><time>2026-04-26T09:53:17Z</time></trkpt><trkpt lat="40.925446646074185" lon="8.931952790266518"><ele>155.0</ele><time>2026-04-26T09:53:18Z</time></trkpt><trkpt lat="40.92534234119649" lon="8.93172724840921"><ele>155.0</ele><time>2026-04-26T09:53:19Z</time></trkpt><trkpt lat="40.925244775219475" lon="8.931494685085138"><ele>155.0</ele><time>2026-04-26T09:53:20Z</time></trkpt><trkpt lat="40.92514741187052" lon="8.931238905263008"><ele>155.5</ele><time>2026-04-26T09:53:21Z</time></trkpt><trkpt lat="40.925043336447494" lon="8.930965211538277"><ele>156.0</ele><time>2026-04-26T09:53:22Z</time></trkpt><trkpt lat="40.924935935113766" lon="8.930679566714117"><ele>156.0</ele><time>2026-04-26T09:53:23Z</time></trkpt><trkpt lat="40.92482254895003" lon="8.93038109800532"><ele>156.0</ele><time>2026-04-26T09:53:24Z</time></trkpt><trkpt lat="40.92471728260694" lon="8.930086582385456"><ele>154.33333333333334</ele><time>2026-04-26T09:53:25Z</time></trkpt><trkpt lat="40.92462895213971" lon="8.929810588063548"><ele>152.66666666666669</ele><time>2026-04-26T09:53:26Z</time></trkpt><trkpt lat="40.92454957761834" lon="8.929546700839568"><ele>151.0</ele><time>2026-04-26T09:53:27Z</time></trkpt><trkpt lat="40.924472112214595" lon="8.929289646264877"><ele>148.66666666666669</ele><time>2026-04-26T09:53:28Z</time></trkpt><trkpt lat="40.92439261546566" lon="8.929051665303723"><ele>146.33333333333334</ele><time>2026-04-26T09:53:29Z</time></trkpt><trkpt lat="40.924317323760135" lon="8.928813509973125"><ele>144.0</ele><time>2026-04-26T09:53:30Z</time></trkpt><trkpt lat="40.92424197856102" lon="8.928580471514815"><ele>145.66666666666666</ele><time>2026-04-26T09:53:31Z</time></trkpt><trkpt lat="40.92416525161237" lon="8.928340628031977"><ele>147.33333333333331</ele><time>2026-04-26T09:53:32Z</time></trkpt><trkpt lat="40.92408516919293" lon="8.928100759547531"><ele>149.0</ele><time>2026-04-26T09:53:33Z</time></trkpt><trkpt lat="40.924001143066825" lon="8.927874542832118"><ele>149.0</ele><time>2026-04-26T09:53:34Z</time></trkpt><trkpt lat="40.923908609613946" lon="8.927665916606992"><ele>149.0</ele><time>2026-04-26T09:53:35Z</time></trkpt><trkpt lat="40.92379453595146" lon="8.92747367748265"><ele>149.0</ele><time>2026-04-26T09:53:36Z</time></trkpt><trkpt lat="40.92364596550104" lon="8.927290842505275"><ele>145.0</ele><time>2026-04-26T09:53:37Z</time></trkpt><trkpt lat="40.92346317391238" lon="8.927109208520665"><ele>141.0</ele><time>2026-04-26T09:53:38Z</time></trkpt><trkpt lat="40.92326216240629" lon="8.926922396208928"><ele>137.5</ele><time>2026-04-26T09:53:39Z</time></trkpt><trkpt lat="40.92305900906083" lon="8.926727776768482"><ele>134.0</ele><time>2026-04-26T09:53:40Z</time></trkpt><trkpt lat="40.92287410929405" lon="8.92654451249938"><ele>134.0</ele><time>2026-04-26T09:53:41Z</time></trkpt><trkpt lat="40.92270973805841" lon="8.92636593948016"><ele>134.0</ele><time>2026-04-26T09:53:42Z</time></trkpt><trkpt lat="40.92256191647124" lon="8.926171346935206"><ele>134.0</ele><time>2026-04-26T09:53:43Z</time></trkpt><trkpt lat="40.92240525121089" lon="8.925947976894086"><ele>133.0</ele><time>2026-04-26T09:53:44Z</time></trkpt><trkpt lat="40.92224270863418" lon="8.925705517531581"><ele>132.0</ele><time>2026-04-26T09:53:45Z</time></trkpt><trkpt lat="40.922075207332455" lon="8.925455613144948"><ele>132.0</ele><time>2026-04-26T09:53:46Z</time></trkpt><trkpt lat="40.9219029685926" lon="8.9251962661349"><ele>132.0</ele><time>2026-04-26T09:53:47Z</time></trkpt><trkpt lat="40.9217260757376" lon="8.924932704893676"><ele>137.0</ele><time>2026-04-26T09:53:48Z</time></trkpt><trkpt lat="40.92154911176421" lon="8.924664406417985"><ele>142.0</ele><time>2026-04-26T09:53:49Z</time></trkpt><trkpt lat="40.92137226893224" lon="8.92439429449561"><ele>142.0</ele><time>2026-04-26T09:53:50Z</time></trkpt><trkpt lat="40.92120977418517" lon="8.924137878919925"><ele>142.0</ele><time>2026-04-26T09:53:51Z</time></trkpt><trkpt lat="40.921055604167115" lon="8.923901537096503"><ele>142.0</ele><time>2026-04-26T09:53:52Z</time></trkpt><trkpt lat="40.92091177358629" lon="8.923677431537739"><ele>142.0</ele><time>2026-04-26T09:53:53Z</time></trkpt><trkpt lat="40.920775256505465" lon="8.923454014321646"><ele>142.0</ele><time>2026-04-26T09:53:54Z</time></trkpt><trkpt lat="40.9206380115768" lon="8.923222280238097"><ele>145.0</ele><time>2026-04-26T09:53:55Z</time></trkpt><trkpt lat="40.920503169821934" lon="8.922983591085272"><ele>148.0</ele><time>2026-04-26T09:53:56Z</time></trkpt><trkpt lat="40.920365973227966" lon="8.922739608021445"><ele>151.5</ele><time>2026-04-26T09:53:57Z</time></trkpt><trkpt lat="40.9202294632659" lon="8.922492690197059"><ele>155.0</ele><time>2026-04-26T09:53:58Z</time></trkpt><trkpt lat="40.92009694916656" lon="8.92225646450052"><ele>149.33333333333331</ele><time>2026-04-26T09:53:59Z</time></trkpt><trkpt lat="40.919971729416254" lon="8.922034192875532"><ele>143.66666666666666</ele><time>2026-04-26T09:54:00Z</time></trkpt><trkpt lat="40.91985453451105" lon="8.921808854223856"><ele>138.0</ele><time>2026-04-26T09:54:01Z</time></trkpt><trkpt lat="40.91975462096541" lon="8.921574967808741"><ele>138.0</ele><time>2026-04-26T09:54:02Z</time></trkpt><trkpt lat="40.91966450721457" lon="8.921317704347834"><ele>138.0</ele><time>2026-04-26T09:54:03Z</time></trkpt><trkpt lat="40.919580069304494" lon="8.92102704519515"><ele>138.0</ele><time>2026-04-26T09:54:04Z</time></trkpt><trkpt lat="40.919501142832516" lon="8.920704312315417"><ele>138.0</ele><time>2026-04-26T09:54:05Z</time></trkpt><trkpt lat="40.91942435165366" lon="8.92037632302827"><ele>138.0</ele><time>2026-04-26T09:54:06Z</time></trkpt><trkpt lat="40.91935140353653" lon="8.9200696077043"><ele>138.0</ele><time>2026-04-26T09:54:07Z</time></trkpt><trkpt lat="40.919277138450695" lon="8.919775783755021"><ele>131.0</ele><time>2026-04-26T09:54:08Z</time></trkpt><trkpt lat="40.91920657350487" lon="8.919491109122832"><ele>124.0</ele><time>2026-04-26T09:54:09Z</time></trkpt><trkpt lat="40.91913967475618" lon="8.919225590718417"><ele>117.0</ele><time>2026-04-26T09:54:10Z</time></trkpt><trkpt lat="40.919073746539624" lon="8.918987953317552"><ele>115.66666666666666</ele><time>2026-04-26T09:54:11Z</time></trkpt><trkpt lat="40.91899329858294" lon="8.91877771761385"><ele>114.33333333333333</ele><time>2026-04-26T09:54:12Z</time></trkpt><trkpt lat="40.91889099703274" lon="8.91858660652365"><ele>113.0</ele><time>2026-04-26T09:54:13Z</time></trkpt><trkpt lat="40.91875328205337" lon="8.918404473005658"><ele>112.33333333333333</ele><time>2026-04-26T09:54:14Z</time></trkpt><trkpt lat="40.91858393947095" lon="8.918225268228904"><ele>111.66666666666666</ele><time>2026-04-26T09:54:15Z</time></trkpt><trkpt lat="40.9184116059196" lon="8.918052478011953"><ele>111.0</ele><time>2026-04-26T09:54:16Z</time></trkpt><trkpt lat="40.91825982141152" lon="8.91789418427043"><ele>113.33333333333334</ele><time>2026-04-26T09:54:17Z</time></trkpt><trkpt lat="40.91813702351841" lon="8.917717636477477"><ele>115.66666666666667</ele><time>2026-04-26T09:54:18Z</time></trkpt><trkpt lat="40.91804568808149" lon="8.917512759808234"><ele>118.0</ele><time>2026-04-26T09:54:19Z</time></trkpt><trkpt lat="40.91798106619229" lon="8.917279596556009"><ele>119.33333333333334</ele><time>2026-04-26T09:54:20Z</time></trkpt><trkpt lat="40.91794401924929" lon="8.917054025394894"><ele>120.66666666666666</ele><time>2026-04-26T09:54:21Z</time></trkpt><trkpt lat="40.91792001839549" lon="8.916846856831539"><ele>122.0</ele><time>2026-04-26T09:54:22Z</time></trkpt><trkpt lat="40.91789225011042" lon="8.916643194665465"><ele>123.33333333333333</ele><time>2026-04-26T09:54:23Z</time></trkpt><trkpt lat="40.917857426350565" lon="8.916422897210516"><ele>124.66666666666666</ele><time>2026-04-26T09:54:24Z</time></trkpt><trkpt lat="40.91782444343085" lon="8.916187459555077"><ele>126.0</ele><time>2026-04-26T09:54:25Z</time></trkpt><trkpt lat="40.91777475106829" lon="8.91593249183595"><ele>125.66666666666666</ele><time>2026-04-26T09:54:26Z</time></trkpt><trkpt lat="40.917695040593124" lon="8.915681131416921"><ele>125.33333333333333</ele><time>2026-04-26T09:54:27Z</time></trkpt><trkpt lat="40.91761948077477" lon="8.91546522872919"><ele>125.0</ele><time>2026-04-26T09:54:28Z</time></trkpt><trkpt lat="40.91753361365558" lon="8.915244642944733"><ele>119.0</ele><time>2026-04-26T09:54:29Z</time></trkpt><trkpt lat="40.917450155173725" lon="8.91503844489264"><ele>113.0</ele><time>2026-04-26T09:54:30Z</time></trkpt><trkpt lat="40.91735572651433" lon="8.914851970496606"><ele>107.0</ele><time>2026-04-26T09:54:31Z</time></trkpt><trkpt lat="40.91723650670889" lon="8.914682074056435"><ele>107.0</ele><time>2026-04-26T09:54:32Z</time></trkpt><trkpt lat="40.91709646377277" lon="8.914520914082141"><ele>107.0</ele><time>2026-04-26T09:54:33Z</time></trkpt><trkpt lat="40.91693633524832" lon="8.914371594223761"><ele>107.0</ele><time>2026-04-26T09:54:34Z</time></trkpt><trkpt lat="40.9167716419297" lon="8.914237793976689"><ele>107.33333333333333</ele><time>2026-04-26T09:54:35Z</time></trkpt><trkpt lat="40.91661359675754" lon="8.91410432299453"><ele>107.66666666666666</ele><time>2026-04-26T09:54:36Z</time></trkpt><trkpt lat="40.91647536353273" lon="8.913961685407031"><ele>108.0</ele><time>2026-04-26T09:54:37Z</time></trkpt><trkpt lat="40.91639377237251" lon="8.913776478280784"><ele>108.0</ele><time>2026-04-26T09:54:38Z</time></trkpt><trkpt lat="40.916301772972204" lon="8.913585391196426"><ele>108.0</ele><time>2026-04-26T09:54:39Z</time></trkpt><trkpt lat="40.916234455336784" lon="8.91334178985097"><ele>108.0</ele><time>2026-04-26T09:54:40Z</time></trkpt><trkpt lat="40.91616893532525" lon="8.913066481332445"><ele>104.0</ele><time>2026-04-26T09:54:41Z</time></trkpt><trkpt lat="40.91609671686166" lon="8.912771076104118"><ele>100.0</ele><time>2026-04-26T09:54:42Z</time></trkpt><trkpt lat="40.91601691566937" lon="8.912463590281035"><ele>101.0</ele><time>2026-04-26T09:54:43Z</time></trkpt><trkpt lat="40.91593810346239" lon="8.91215831984794"><ele>102.0</ele><time>2026-04-26T09:54:44Z</time></trkpt><trkpt lat="40.915861673078034" lon="8.911869624232061"><ele>100.0</ele><time>2026-04-26T09:54:45Z</time></trkpt><trkpt lat="40.915785598268144" lon="8.911590150320826"><ele>98.0</ele><time>2026-04-26T09:54:46Z</time></trkpt><trkpt lat="40.915702966517486" lon="8.911295411600703"><ele>98.0</ele><time>2026-04-26T09:54:46.999Z</time></trkpt><trkpt lat="40.91561264249381" lon="8.910980158745971"><ele>98.0</ele><time>2026-04-26T09:54:47.999Z</time></trkpt><trkpt lat="40.915518991038866" lon="8.910659488697332"><ele>95.0</ele><time>2026-04-26T09:54:48.999Z</time></trkpt><trkpt lat="40.91542845652116" lon="8.910359410292589"><ele>92.0</ele><time>2026-04-26T09:54:49.999Z</time></trkpt><trkpt lat="40.915344799071775" lon="8.9100762863619"><ele>90.33333333333334</ele><time>2026-04-26T09:54:50.999Z</time></trkpt><trkpt lat="40.915265640622245" lon="8.909805211891868"><ele>88.66666666666667</ele><time>2026-04-26T09:54:51.999Z</time></trkpt><trkpt lat="40.91518806055012" lon="8.909542537454874"><ele>87.0</ele><time>2026-04-26T09:54:52.999Z</time></trkpt><trkpt lat="40.915114629298174" lon="8.90929137592793"><ele>87.66666666666667</ele><time>2026-04-26T09:54:53.999Z</time></trkpt><trkpt lat="40.91504400512277" lon="8.909043985222265"><ele>88.33333333333334</ele><time>2026-04-26T09:54:54.999Z</time></trkpt><trkpt lat="40.91497531936161" lon="8.908792130814232"><ele>89.0</ele><time>2026-04-26T09:54:55.999Z</time></trkpt><trkpt lat="40.91490184942555" lon="8.90853624919362"><ele>88.66666666666667</ele><time>2026-04-26T09:54:56.999Z</time></trkpt><trkpt lat="40.91482847867023" lon="8.908277739179104"><ele>88.33333333333333</ele><time>2026-04-26T09:54:57.999Z</time></trkpt><trkpt lat="40.91475541912623" lon="8.90801683673766"><ele>88.0</ele><time>2026-04-26T09:54:58.999Z</time></trkpt><trkpt lat="40.91467952194468" lon="8.907753720760947"><ele>89.33333333333333</ele><time>2026-04-26T09:54:59.999Z</time></trkpt><trkpt lat="40.914605296896696" lon="8.907493923209262"><ele>90.66666666666667</ele><time>2026-04-26T09:55:00.999Z</time></trkpt><trkpt lat="40.91453273160394" lon="8.907247371693249"><ele>92.0</ele><time>2026-04-26T09:55:01.999Z</time></trkpt><trkpt lat="40.914459895824585" lon="8.907008747691387"><ele>92.0</ele><time>2026-04-26T09:55:02.999Z</time></trkpt><trkpt lat="40.91439196600244" lon="8.906773752193953"><ele>92.0</ele><time>2026-04-26T09:55:03.999Z</time></trkpt><trkpt lat="40.91434268204367" lon="8.906535085557955"><ele>92.0</ele><time>2026-04-26T09:55:04.999Z</time></trkpt><trkpt lat="40.914347059455686" lon="8.906293465143438"><ele>91.66666666666667</ele><time>2026-04-26T09:55:05.999Z</time></trkpt><trkpt lat="40.914378487763884" lon="8.906070314642564"><ele>91.33333333333333</ele><time>2026-04-26T09:55:06.999Z</time></trkpt><trkpt lat="40.914447261427185" lon="8.905874951862044"><ele>91.0</ele><time>2026-04-26T09:55:07.999Z</time></trkpt><trkpt lat="40.91453174904936" lon="8.905684803870713"><ele>87.0</ele><time>2026-04-26T09:55:08.999Z</time></trkpt><trkpt lat="40.91462604716166" lon="8.90547312537816"><ele>83.0</ele><time>2026-04-26T09:55:09.999Z</time></trkpt><trkpt lat="40.914727653215664" lon="8.905238621994428"><ele>79.0</ele><time>2026-04-26T09:55:11Z</time></trkpt><trkpt lat="40.91480222999337" lon="8.904995264395644"><ele>75.66666666666666</ele><time>2026-04-26T09:55:12Z</time></trkpt><trkpt lat="40.91485715455953" lon="8.904754537794991"><ele>72.33333333333333</ele><time>2026-04-26T09:55:13Z</time></trkpt><trkpt lat="40.91490770521467" lon="8.904521986689192"><ele>69.0</ele><time>2026-04-26T09:55:14Z</time></trkpt><trkpt lat="40.91496266204828" lon="8.904317814546705"><ele>68.0</ele><time>2026-04-26T09:55:15Z</time></trkpt><trkpt lat="40.91503134790093" lon="8.904151010929542"><ele>67.0</ele><time>2026-04-26T09:55:16Z</time></trkpt><trkpt lat="40.91515163854774" lon="8.90404103672842"><ele>66.0</ele><time>2026-04-26T09:55:17Z</time></trkpt><trkpt lat="40.91529458632576" lon="8.903943450221034"><ele>62.0</ele><time>2026-04-26T09:55:18Z</time></trkpt><trkpt lat="40.915473487633086" lon="8.903830542897982"><ele>58.0</ele><time>2026-04-26T09:55:19Z</time></trkpt><trkpt lat="40.915650180949825" lon="8.90371400594897"><ele>54.0</ele><time>2026-04-26T09:55:20Z</time></trkpt><trkpt lat="40.91581248451221" lon="8.903617347334126"><ele>53.33333333333333</ele><time>2026-04-26T09:55:21Z</time></trkpt><trkpt lat="40.91594466773024" lon="8.903502841247064"><ele>52.666666666666664</ele><time>2026-04-26T09:55:22Z</time></trkpt><trkpt lat="40.916049244887574" lon="8.903350888640125"><ele>52.0</ele><time>2026-04-26T09:55:23Z</time></trkpt><trkpt lat="40.91612497035267" lon="8.903162460076702"><ele>51.33333333333333</ele><time>2026-04-26T09:55:24Z</time></trkpt><trkpt lat="40.916185458782934" lon="8.902934966194001"><ele>50.66666666666667</ele><time>2026-04-26T09:55:25Z</time></trkpt><trkpt lat="40.916241233134585" lon="8.902717648728672"><ele>50.0</ele><time>2026-04-26T09:55:26Z</time></trkpt><trkpt lat="40.91634642959909" lon="8.902544887583298"><ele>46.333333333333336</ele><time>2026-04-26T09:55:27Z</time></trkpt><trkpt lat="40.916484872933815" lon="8.902394082267435"><ele>42.66666666666667</ele><time>2026-04-26T09:55:28Z</time></trkpt><trkpt lat="40.916654236179184" lon="8.902231198923365"><ele>39.0</ele><time>2026-04-26T09:55:29Z</time></trkpt><trkpt lat="40.9168338988137" lon="8.902058001821135"><ele>38.333333333333336</ele><time>2026-04-26T09:55:30Z</time></trkpt><trkpt lat="40.91699465054452" lon="8.90188077962469"><ele>37.66666666666667</ele><time>2026-04-26T09:55:31Z</time></trkpt><trkpt lat="40.91715111909309" lon="8.901732984049112"><ele>37.0</ele><time>2026-04-26T09:55:32Z</time></trkpt><trkpt lat="40.917297782742466" lon="8.901608399666108"><ele>36.0</ele><time>2026-04-26T09:55:33Z</time></trkpt><trkpt lat="40.91743966775141" lon="8.901522069070069"><ele>35.0</ele><time>2026-04-26T09:55:34Z</time></trkpt><trkpt lat="40.91759970897065" lon="8.901518338044859"><ele>34.0</ele><time>2026-04-26T09:55:35Z</time></trkpt><trkpt lat="40.91775222867565" lon="8.901492386242143"><ele>34.0</ele><time>2026-04-26T09:55:36Z</time></trkpt><trkpt lat="40.91790376098372" lon="8.901456814530517"><ele>34.0</ele><time>2026-04-26T09:55:37Z</time></trkpt><trkpt lat="40.91804883401751" lon="8.901439304322905"><ele>34.0</ele><time>2026-04-26T09:55:38Z</time></trkpt><trkpt lat="40.918193303466516" lon="8.901428737526711"><ele>34.0</ele><time>2026-04-26T09:55:39Z</time></trkpt><trkpt lat="40.918330463052385" lon="8.90141283509135"><ele>35.5</ele><time>2026-04-26T09:55:40Z</time></trkpt><trkpt lat="40.91846532722977" lon="8.901383147120326"><ele>37.0</ele><time>2026-04-26T09:55:41Z</time></trkpt><trkpt lat="40.91859626245299" lon="8.901328862738154"><ele>38.5</ele><time>2026-04-26T09:55:42Z</time></trkpt><trkpt lat="40.91871822787075" lon="8.901245129442179"><ele>40.0</ele><time>2026-04-26T09:55:43Z</time></trkpt><trkpt lat="40.91883049027587" lon="8.901136291562752"><ele>40.0</ele><time>2026-04-26T09:55:44Z</time></trkpt><trkpt lat="40.91893476927876" lon="8.901004507425842"><ele>40.0</ele><time>2026-04-26T09:55:45Z</time></trkpt><trkpt lat="40.919024418670446" lon="8.900848793417996"><ele>40.0</ele><time>2026-04-26T09:55:46Z</time></trkpt><trkpt lat="40.919103651797805" lon="8.9006800996703"><ele>40.0</ele><time>2026-04-26T09:55:47Z</time></trkpt><trkpt lat="40.919156852668515" lon="8.900509927251857"><ele>38.5</ele><time>2026-04-26T09:55:48Z</time></trkpt><trkpt lat="40.91918736391778" lon="8.900326027836128"><ele>37.0</ele><time>2026-04-26T09:55:49Z</time></trkpt><trkpt lat="40.91919222862954" lon="8.900132778769606"><ele>35.5</ele><time>2026-04-26T09:55:50Z</time></trkpt><trkpt lat="40.91917653178427" lon="8.89992449851521"><ele>34.0</ele><time>2026-04-26T09:55:51Z</time></trkpt><trkpt lat="40.91915092565424" lon="8.899699695303156"><ele>33.66666666666667</ele><time>2026-04-26T09:55:52Z</time></trkpt><trkpt lat="40.919128507065714" lon="8.899452711181171"><ele>33.333333333333336</ele><time>2026-04-26T09:55:53Z</time></trkpt><trkpt lat="40.919106400985804" lon="8.899198541319967"><ele>33.0</ele><time>2026-04-26T09:55:54Z</time></trkpt><trkpt lat="40.91908496806465" lon="8.898950947620536"><ele>32.333333333333336</ele><time>2026-04-26T09:55:55Z</time></trkpt><trkpt lat="40.91906616033006" lon="8.898717709470617"><ele>31.666666666666668</ele><time>2026-04-26T09:55:56Z</time></trkpt><trkpt lat="40.91904855426837" lon="8.898477372883171"><ele>31.0</ele><time>2026-04-26T09:55:57Z</time></trkpt><trkpt lat="40.91903213543508" lon="8.898231973272804"><ele>32.333333333333336</ele><time>2026-04-26T09:55:58Z</time></trkpt><trkpt lat="40.91901850405774" lon="8.897991283858543"><ele>33.666666666666664</ele><time>2026-04-26T09:55:59Z</time></trkpt><trkpt lat="40.91900106211804" lon="8.897764091963182"><ele>35.0</ele><time>2026-04-26T09:56:00Z</time></trkpt><trkpt lat="40.91897717114059" lon="8.897537842415993"><ele>36.33333333333333</ele><time>2026-04-26T09:56:01Z</time></trkpt><trkpt lat="40.91893719402334" lon="8.897319531133098"><ele>37.666666666666664</ele><time>2026-04-26T09:56:02Z</time></trkpt><trkpt lat="40.9188797342718" lon="8.89710880021899"><ele>39.0</ele><time>2026-04-26T09:56:03Z</time></trkpt><trkpt lat="40.91880768697083" lon="8.896899738865914"><ele>39.0</ele><time>2026-04-26T09:56:04Z</time></trkpt><trkpt lat="40.918721428587105" lon="8.896682052364854"><ele>39.0</ele><time>2026-04-26T09:56:05Z</time></trkpt><trkpt lat="40.91862867604087" lon="8.896450213272557"><ele>39.0</ele><time>2026-04-26T09:56:06Z</time></trkpt><trkpt lat="40.9185435252927" lon="8.89623409918934"><ele>39.0</ele><time>2026-04-26T09:56:07Z</time></trkpt><trkpt lat="40.91846491826304" lon="8.89603642485387"><ele>39.0</ele><time>2026-04-26T09:56:08Z</time></trkpt><trkpt lat="40.9183918227038" lon="8.895847030679823"><ele>39.0</ele><time>2026-04-26T09:56:09Z</time></trkpt><trkpt lat="40.9183228190414" lon="8.895671048452973"><ele>38.666666666666664</ele><time>2026-04-26T09:56:10Z</time></trkpt><trkpt lat="40.91825373500625" lon="8.895492947339608"><ele>38.33333333333333</ele><time>2026-04-26T09:56:11Z</time></trkpt><trkpt lat="40.918179678072875" lon="8.895308414844244"><ele>38.0</ele><time>2026-04-26T09:56:12Z</time></trkpt><trkpt lat="40.91810015392942" lon="8.895110800740122"><ele>37.5</ele><time>2026-04-26T09:56:13Z</time></trkpt><trkpt lat="40.91802644178162" lon="8.89492179876298"><ele>37.0</ele><time>2026-04-26T09:56:14Z</time></trkpt><trkpt lat="40.91795788869594" lon="8.894748772152983"><ele>36.5</ele><time>2026-04-26T09:56:15Z</time></trkpt><trkpt lat="40.91789318535765" lon="8.894584200927824"><ele>36.0</ele><time>2026-04-26T09:56:16Z</time></trkpt><trkpt lat="40.91783014655968" lon="8.894426139532113"><ele>36.0</ele><time>2026-04-26T09:56:17Z</time></trkpt><trkpt lat="40.91777029702501" lon="8.894278964863853"><ele>36.0</ele><time>2026-04-26T09:56:18Z</time></trkpt><trkpt lat="40.917725510366836" lon="8.894155433165988"><ele>36.0</ele><time>2026-04-26T09:56:19Z</time></trkpt><trkpt lat="40.91769913058872" lon="8.894050254707032"><ele>36.0</ele><time>2026-04-26T09:56:20Z</time></trkpt><trkpt lat="40.91769931537702" lon="8.893950150147376"><ele>36.0</ele><time>2026-04-26T09:56:21Z</time></trkpt><trkpt lat="40.917725854041635" lon="8.89385117041479"><ele>36.0</ele><time>2026-04-26T09:56:22Z</time></trkpt><trkpt lat="40.91778391671216" lon="8.893747058059377"><ele>36.0</ele><time>2026-04-26T09:56:23Z</time></trkpt><trkpt lat="40.91783463235801" lon="8.893621470337804"><ele>36.0</ele><time>2026-04-26T09:56:24Z</time></trkpt><trkpt lat="40.91785780630457" lon="8.893440829946163"><ele>36.0</ele><time>2026-04-26T09:56:25Z</time></trkpt><trkpt lat="40.91787038304624" lon="8.893220814447384"><ele>36.333333333333336</ele><time>2026-04-26T09:56:26Z</time></trkpt><trkpt lat="40.91791534485656" lon="8.892994185520244"><ele>36.66666666666667</ele><time>2026-04-26T09:56:27Z</time></trkpt><trkpt lat="40.91798620398928" lon="8.892758574294428"><ele>37.0</ele><time>2026-04-26T09:56:28Z</time></trkpt><trkpt lat="40.91806713346297" lon="8.892508169226637"><ele>37.0</ele><time>2026-04-26T09:56:29Z</time></trkpt><trkpt lat="40.91814369241508" lon="8.892280927290054"><ele>37.0</ele><time>2026-04-26T09:56:30Z</time></trkpt><trkpt lat="40.91821187032305" lon="8.892073628771628"><ele>37.0</ele><time>2026-04-26T09:56:31Z</time></trkpt><trkpt lat="40.91827289424686" lon="8.891882760895143"><ele>37.0</ele><time>2026-04-26T09:56:32Z</time></trkpt><trkpt lat="40.91832536559512" lon="8.891711002786748"><ele>37.0</ele><time>2026-04-26T09:56:33Z</time></trkpt><trkpt lat="40.918374980957296" lon="8.891573410160328"><ele>37.0</ele><time>2026-04-26T09:56:34Z</time></trkpt><trkpt lat="40.918418314145846" lon="8.891442596962056"><ele>37.0</ele><time>2026-04-26T09:56:35Z</time></trkpt><trkpt lat="40.918366514681544" lon="8.891268467768338"><ele>37.0</ele><time>2026-04-26T09:56:36Z</time></trkpt><trkpt lat="40.9183464240117" lon="8.891131536276689"><ele>37.0</ele><time>2026-04-26T09:56:37Z</time></trkpt><trkpt lat="40.918331003317554" lon="8.891027241039247"><ele>37.0</ele><time>2026-04-26T09:56:38Z</time></trkpt><trkpt lat="40.9182927828678" lon="8.890836342825512"><ele>37.0</ele><time>2026-04-26T09:56:40Z</time></trkpt><trkpt lat="40.918264312092724" lon="8.890705172846063"><ele>37.0</ele><time>2026-04-26T09:56:41Z</time></trkpt><trkpt lat="40.9182373677236" lon="8.890556265092043"><ele>37.0</ele><time>2026-04-26T09:56:42Z</time></trkpt><trkpt lat="40.91821018475845" lon="8.890394904962255"><ele>37.0</ele><time>2026-04-26T09:56:43Z</time></trkpt><trkpt lat="40.9181826470779" lon="8.890225522956788"><ele>37.0</ele><time>2026-04-26T09:56:44Z</time></trkpt><trkpt lat="40.91815222489195" lon="8.890055522271675"><ele>37.0</ele><time>2026-04-26T09:56:45Z</time></trkpt><trkpt lat="40.91812164902149" lon="8.889891267038143"><ele>37.0</ele><time>2026-04-26T09:56:46Z</time></trkpt><trkpt lat="40.918095738652404" lon="8.889724502564292"><ele>37.0</ele><time>2026-04-26T09:56:47Z</time></trkpt><trkpt lat="40.918067605406755" lon="8.889553129546405"><ele>37.0</ele><time>2026-04-26T09:56:48Z</time></trkpt><trkpt lat="40.91803385072583" lon="8.889375772475622"><ele>37.0</ele><time>2026-04-26T09:56:49Z</time></trkpt><trkpt lat="40.91800080104041" lon="8.889191665480322"><ele>35.333333333333336</ele><time>2026-04-26T09:56:50Z</time></trkpt><trkpt lat="40.91796651365309" lon="8.888997290992714"><ele>33.666666666666664</ele><time>2026-04-26T09:56:51Z</time></trkpt><trkpt lat="40.91793049238023" lon="8.888777514678528"><ele>32.0</ele><time>2026-04-26T09:56:51.999Z</time></trkpt><trkpt lat="40.91788683451243" lon="8.888538343444926"><ele>31.333333333333332</ele><time>2026-04-26T09:56:52.999Z</time></trkpt><trkpt lat="40.917844069192796" lon="8.888292773098149"><ele>30.666666666666664</ele><time>2026-04-26T09:56:53.999Z</time></trkpt><trkpt lat="40.917796857026595" lon="8.88804573481149"><ele>30.0</ele><time>2026-04-26T09:56:54.999Z</time></trkpt><trkpt lat="40.91775350015707" lon="8.887807193408525"><ele>31.333333333333336</ele><time>2026-04-26T09:56:55.999Z</time></trkpt><trkpt lat="40.917713053330615" lon="8.887575426544375"><ele>32.66666666666667</ele><time>2026-04-26T09:56:56.999Z</time></trkpt><trkpt lat="40.91767676383392" lon="8.887343524702688"><ele>34.0</ele><time>2026-04-26T09:56:57.999Z</time></trkpt><trkpt lat="40.917650791322764" lon="8.887113199216524"><ele>34.0</ele><time>2026-04-26T09:56:58.999Z</time></trkpt><trkpt lat="40.917638757208074" lon="8.886881606835482"><ele>34.0</ele><time>2026-04-26T09:56:59.999Z</time></trkpt><trkpt lat="40.917627551529904" lon="8.886642814801043"><ele>34.0</ele><time>2026-04-26T09:57:00.999Z</time></trkpt><trkpt lat="40.91761590578407" lon="8.886387950311688"><ele>36.66666666666667</ele><time>2026-04-26T09:57:01.999Z</time></trkpt><trkpt lat="40.91760466516893" lon="8.886125456319125"><ele>39.333333333333336</ele><time>2026-04-26T09:57:02.999Z</time></trkpt><trkpt lat="40.91759294436351" lon="8.88586188575684"><ele>42.0</ele><time>2026-04-26T09:57:03.999Z</time></trkpt><trkpt lat="40.91758137538201" lon="8.8855995104561"><ele>40.666666666666664</ele><time>2026-04-26T09:57:04.999Z</time></trkpt><trkpt lat="40.91756807891187" lon="8.885329925521479"><ele>39.33333333333333</ele><time>2026-04-26T09:57:05.999Z</time></trkpt><trkpt lat="40.91755577129807" lon="8.885074537839138"><ele>38.0</ele><time>2026-04-26T09:57:06.999Z</time></trkpt><trkpt lat="40.91754342822109" lon="8.884834800572884"><ele>38.0</ele><time>2026-04-26T09:57:07.999Z</time></trkpt><trkpt lat="40.91753396557575" lon="8.884608336683403"><ele>38.0</ele><time>2026-04-26T09:57:08.999Z</time></trkpt><trkpt lat="40.91753122421193" lon="8.884395679020887"><ele>38.0</ele><time>2026-04-26T09:57:09.999Z</time></trkpt><trkpt lat="40.91754515647545" lon="8.884202326927179"><ele>40.5</ele><time>2026-04-26T09:57:10.999Z</time></trkpt><trkpt lat="40.91758912877788" lon="8.884040700484931"><ele>43.0</ele><time>2026-04-26T09:57:11.999Z</time></trkpt><trkpt lat="40.917651747677176" lon="8.883906322394134"><ele>45.5</ele><time>2026-04-26T09:57:12.999Z</time></trkpt><trkpt lat="40.91773555908787" lon="8.883783490398642"><ele>48.0</ele><time>2026-04-26T09:57:13.999Z</time></trkpt><trkpt lat="40.917843602328105" lon="8.883668112216998"><ele>48.0</ele><time>2026-04-26T09:57:14.999Z</time></trkpt><trkpt lat="40.91797717825902" lon="8.883565421582084"><ele>48.0</ele><time>2026-04-26T09:57:15.999Z</time></trkpt><trkpt lat="40.91813598390339" lon="8.883473574456655"><ele>48.0</ele><time>2026-04-26T09:57:17Z</time></trkpt><trkpt lat="40.918309859448534" lon="8.883390733376148"><ele>50.33333333333333</ele><time>2026-04-26T09:57:18Z</time></trkpt><trkpt lat="40.9184662710102" lon="8.883319184884106"><ele>52.666666666666664</ele><time>2026-04-26T09:57:19Z</time></trkpt><trkpt lat="40.918612830759315" lon="8.883252366686667"><ele>55.0</ele><time>2026-04-26T09:57:20Z</time></trkpt><trkpt lat="40.91875274967034" lon="8.883193930346406"><ele>55.0</ele><time>2026-04-26T09:57:21Z</time></trkpt><trkpt lat="40.91888765549726" lon="8.88313721208038"><ele>55.0</ele><time>2026-04-26T09:57:22Z</time></trkpt><trkpt lat="40.919005261775936" lon="8.883083961404038"><ele>55.0</ele><time>2026-04-26T09:57:23Z</time></trkpt><trkpt lat="40.919110527836494" lon="8.883020728112884"><ele>55.0</ele><time>2026-04-26T09:57:24Z</time></trkpt><trkpt lat="40.919210693820126" lon="8.882936564336642"><ele>55.5</ele><time>2026-04-26T09:57:25Z</time></trkpt><trkpt lat="40.91930390153862" lon="8.882831269400427"><ele>56.0</ele><time>2026-04-26T09:57:26Z</time></trkpt><trkpt lat="40.91938606047987" lon="8.882709888022855"><ele>56.5</ele><time>2026-04-26T09:57:27Z</time></trkpt><trkpt lat="40.919465289631766" lon="8.882578759959555"><ele>57.0</ele><time>2026-04-26T09:57:28Z</time></trkpt><trkpt lat="40.91954719926016" lon="8.882441995476682"><ele>57.0</ele><time>2026-04-26T09:57:29Z</time></trkpt><trkpt lat="40.91963915599118" lon="8.882293502534107"><ele>57.0</ele><time>2026-04-26T09:57:30Z</time></trkpt><trkpt lat="40.91972817355171" lon="8.88215438098683"><ele>57.0</ele><time>2026-04-26T09:57:31Z</time></trkpt><trkpt lat="40.919816727937594" lon="8.882024365821529"><ele>57.0</ele><time>2026-04-26T09:57:32Z</time></trkpt><trkpt lat="40.919916468590266" lon="8.881898985834038"><ele>57.0</ele><time>2026-04-26T09:57:33Z</time></trkpt><trkpt lat="40.92002777205952" lon="8.881784094606493"><ele>57.0</ele><time>2026-04-26T09:57:34Z</time></trkpt><trkpt lat="40.920150952540496" lon="8.88168240678817"><ele>57.0</ele><time>2026-04-26T09:57:35Z</time></trkpt><trkpt lat="40.92029653638432" lon="8.881590419303315"><ele>57.0</ele><time>2026-04-26T09:57:36Z</time></trkpt><trkpt lat="40.9204466231287" lon="8.881512900683967"><ele>56.66666666666667</ele><time>2026-04-26T09:57:37Z</time></trkpt><trkpt lat="40.92059007242093" lon="8.8814540810445"><ele>56.333333333333336</ele><time>2026-04-26T09:57:38Z</time></trkpt><trkpt lat="40.92073923570387" lon="8.881405712026302"><ele>56.0</ele><time>2026-04-26T09:57:39Z</time></trkpt><trkpt lat="40.920889705035165" lon="8.88136479201503"><ele>55.66666666666667</ele><time>2026-04-26T09:57:40Z</time></trkpt><trkpt lat="40.921042863542645" lon="8.881328449543489"><ele>55.33333333333333</ele><time>2026-04-26T09:57:41Z</time></trkpt><trkpt lat="40.92120335839513" lon="8.881286626878042"><ele>55.0</ele><time>2026-04-26T09:57:42Z</time></trkpt><trkpt lat="40.9213667979608" lon="8.881240777278114"><ele>55.0</ele><time>2026-04-26T09:57:43Z</time></trkpt><trkpt lat="40.92153106809474" lon="8.881194763959542"><ele>55.0</ele><time>2026-04-26T09:57:44Z</time></trkpt><trkpt lat="40.9216952122745" lon="8.881149142719782"><ele>55.0</ele><time>2026-04-26T09:57:45Z</time></trkpt><trkpt lat="40.921871861183654" lon="8.881102421976985"><ele>52.33333333333333</ele><time>2026-04-26T09:57:46Z</time></trkpt><trkpt lat="40.92204855216337" lon="8.881055743754253"><ele>49.666666666666664</ele><time>2026-04-26T09:57:47Z</time></trkpt><trkpt lat="40.92221785009711" lon="8.881012196234696"><ele>47.0</ele><time>2026-04-26T09:57:48Z</time></trkpt><trkpt lat="40.92238204234047" lon="8.880969988898158"><ele>47.33333333333333</ele><time>2026-04-26T09:57:49Z</time></trkpt><trkpt lat="40.92254186215929" lon="8.880926773556368"><ele>47.666666666666664</ele><time>2026-04-26T09:57:50Z</time></trkpt><trkpt lat="40.92270343716718" lon="8.880885151146162"><ele>48.0</ele><time>2026-04-26T09:57:51Z</time></trkpt><trkpt lat="40.922854787370824" lon="8.8808461303388"><ele>48.0</ele><time>2026-04-26T09:57:52Z</time></trkpt><trkpt lat="40.92298202807378" lon="8.880813872988611"><ele>48.0</ele><time>2026-04-26T09:57:53Z</time></trkpt><trkpt lat="40.92309038185208" lon="8.880786905915304"><ele>48.0</ele><time>2026-04-26T09:57:54Z</time></trkpt><trkpt lat="40.92317635323202" lon="8.880763953063166"><ele>48.0</ele><time>2026-04-26T09:57:55Z</time></trkpt><trkpt lat="40.92326430164355" lon="8.880748602103532"><ele>48.0</ele><time>2026-04-26T09:57:57Z</time></trkpt><trkpt lat="40.923341031164966" lon="8.880715695590974"><ele>49.5</ele><time>2026-04-26T09:58:46Z</time></trkpt><trkpt lat="40.923454918279006" lon="8.880686050755333"><ele>51.0</ele><time>2026-04-26T09:58:47Z</time></trkpt><trkpt lat="40.92359280496645" lon="8.880649306598281"><ele>52.5</ele><time>2026-04-26T09:58:48Z</time></trkpt><trkpt lat="40.92375316048925" lon="8.880606838827125"><ele>54.0</ele><time>2026-04-26T09:58:49Z</time></trkpt><trkpt lat="40.92392954541974" lon="8.880560375768551"><ele>54.0</ele><time>2026-04-26T09:58:50Z</time></trkpt><trkpt lat="40.9241042020581" lon="8.880515224948018"><ele>54.0</ele><time>2026-04-26T09:58:51Z</time></trkpt><trkpt lat="40.924269855372565" lon="8.88046187402629"><ele>54.0</ele><time>2026-04-26T09:58:52Z</time></trkpt><trkpt lat="40.92444497327765" lon="8.880383348400326"><ele>52.0</ele><time>2026-04-26T09:58:53Z</time></trkpt><trkpt lat="40.92462650850127" lon="8.880279478951586"><ele>50.0</ele><time>2026-04-26T09:58:54Z</time></trkpt><trkpt lat="40.92481645638946" lon="8.880151057997617"><ele>48.0</ele><time>2026-04-26T09:58:55Z</time></trkpt><trkpt lat="40.92501820791267" lon="8.880001185615663"><ele>44.5</ele><time>2026-04-26T09:58:56Z</time></trkpt><trkpt lat="40.92523082636981" lon="8.879839741418843"><ele>41.0</ele><time>2026-04-26T09:58:56.999Z</time></trkpt><trkpt lat="40.92544565117809" lon="8.87966654589237"><ele>41.0</ele><time>2026-04-26T09:58:57.999Z</time></trkpt><trkpt lat="40.92565170252475" lon="8.879499848066196"><ele>41.0</ele><time>2026-04-26T09:58:58.999Z</time></trkpt><trkpt lat="40.9258490187019" lon="8.879338632083266"><ele>38.33333333333333</ele><time>2026-04-26T09:58:59.999Z</time></trkpt><trkpt lat="40.926035507320854" lon="8.879186023757626"><ele>35.666666666666664</ele><time>2026-04-26T09:59:00.999Z</time></trkpt><trkpt lat="40.9262203813705" lon="8.879039976178824"><ele>33.0</ele><time>2026-04-26T09:59:01.999Z</time></trkpt><trkpt lat="40.926400069784535" lon="8.878898159363905"><ele>33.0</ele><time>2026-04-26T09:59:02.999Z</time></trkpt><trkpt lat="40.92657216215145" lon="8.878760736437231"><ele>33.0</ele><time>2026-04-26T09:59:03.999Z</time></trkpt><trkpt lat="40.92674928816199" lon="8.878616508843464"><ele>33.0</ele><time>2026-04-26T09:59:04.999Z</time></trkpt><trkpt lat="40.92692739979958" lon="8.878472685589662"><ele>29.333333333333332</ele><time>2026-04-26T09:59:05.999Z</time></trkpt><trkpt lat="40.927096590595475" lon="8.878336556546197"><ele>25.666666666666664</ele><time>2026-04-26T09:59:06.999Z</time></trkpt><trkpt lat="40.927260556856574" lon="8.878204683169747"><ele>22.0</ele><time>2026-04-26T09:59:07.999Z</time></trkpt><trkpt lat="40.927425335882326" lon="8.878072165034503"><ele>22.333333333333332</ele><time>2026-04-26T09:59:08.999Z</time></trkpt><trkpt lat="40.92758650556799" lon="8.877939220159044"><ele>22.666666666666668</ele><time>2026-04-26T09:59:09.999Z</time></trkpt><trkpt lat="40.927750579104305" lon="8.877808363648104"><ele>23.0</ele><time>2026-04-26T09:59:10.999Z</time></trkpt><trkpt lat="40.92791550790832" lon="8.87767786685424"><ele>21.666666666666668</ele><time>2026-04-26T09:59:11.999Z</time></trkpt><trkpt lat="40.9280885294451" lon="8.877542227842293"><ele>20.333333333333332</ele><time>2026-04-26T09:59:12.999Z</time></trkpt><trkpt lat="40.92826880509686" lon="8.877399741413532"><ele>19.0</ele><time>2026-04-26T09:59:13.999Z</time></trkpt><trkpt lat="40.92846567976457" lon="8.877243549372194"><ele>19.0</ele><time>2026-04-26T09:59:14.999Z</time></trkpt><trkpt lat="40.92866745858343" lon="8.877077783729073"><ele>19.0</ele><time>2026-04-26T09:59:15.999Z</time></trkpt><trkpt lat="40.928876351251894" lon="8.876910322150033"><ele>19.0</ele><time>2026-04-26T09:59:16.999Z</time></trkpt><trkpt lat="40.929092991220394" lon="8.876775419749736"><ele>19.0</ele><time>2026-04-26T09:59:17.999Z</time></trkpt><trkpt lat="40.929283872856516" lon="8.876611428874398"><ele>17.666666666666664</ele><time>2026-04-26T09:59:18.999Z</time></trkpt><trkpt lat="40.92947230842545" lon="8.876489868039993"><ele>16.333333333333332</ele><time>2026-04-26T09:59:19.999Z</time></trkpt><trkpt lat="40.92964478685778" lon="8.876391494687935"><ele>15.0</ele><time>2026-04-26T09:59:20.999Z</time></trkpt><trkpt lat="40.92981857352114" lon="8.876309528392015"><ele>15.0</ele><time>2026-04-26T09:59:21.999Z</time></trkpt><trkpt lat="40.92998814635087" lon="8.876247748296473"><ele>15.0</ele><time>2026-04-26T09:59:23Z</time></trkpt><trkpt lat="40.93015695497011" lon="8.876209605918365"><ele>15.0</ele><time>2026-04-26T09:59:24Z</time></trkpt><trkpt lat="40.93030745040518" lon="8.876196780966131"><ele>14.75</ele><time>2026-04-26T09:59:25Z</time></trkpt><trkpt lat="40.93043248974176" lon="8.87622772756264"><ele>14.5</ele><time>2026-04-26T09:59:26Z</time></trkpt><trkpt lat="40.9305434945408" lon="8.876252982197094"><ele>14.25</ele><time>2026-04-26T09:59:27Z</time></trkpt><trkpt lat="40.93065878292118" lon="8.876275961697326"><ele>14.0</ele><time>2026-04-26T09:59:28Z</time></trkpt><trkpt lat="40.93078678332875" lon="8.876349360005245"><ele>12.333333333333334</ele><time>2026-04-26T09:59:29Z</time></trkpt><trkpt lat="40.930932911111704" lon="8.876465986740255"><ele>10.666666666666668</ele><time>2026-04-26T09:59:30Z</time></trkpt><trkpt lat="40.93108878861962" lon="8.876613607201028"><ele>9.0</ele><time>2026-04-26T09:59:31Z</time></trkpt><trkpt lat="40.93125615978236" lon="8.876748015517038"><ele>9.333333333333334</ele><time>2026-04-26T09:59:32Z</time></trkpt><trkpt lat="40.93141875520207" lon="8.876837425603645"><ele>9.666666666666668</ele><time>2026-04-26T09:59:33Z</time></trkpt><trkpt lat="40.93157045655593" lon="8.876904637350371"><ele>10.0</ele><time>2026-04-26T09:59:34Z</time></trkpt><trkpt lat="40.9317167365116" lon="8.876959383329629"><ele>9.75</ele><time>2026-04-26T09:59:35Z</time></trkpt><trkpt lat="40.93186168606989" lon="8.876994407560268"><ele>9.5</ele><time>2026-04-26T09:59:36Z</time></trkpt><trkpt lat="40.93200100363039" lon="8.87700542260082"><ele>9.25</ele><time>2026-04-26T09:59:37Z</time></trkpt><trkpt lat="40.93215264722149" lon="8.87699959002897"><ele>9.0</ele><time>2026-04-26T09:59:38Z</time></trkpt><trkpt lat="40.93233233825692" lon="8.876972492651689"><ele>9.0</ele><time>2026-04-26T09:59:39Z</time></trkpt><trkpt lat="40.932506796946875" lon="8.876931944270478"><ele>9.0</ele><time>2026-04-26T09:59:40Z</time></trkpt><trkpt lat="40.93266945534788" lon="8.876902931812479"><ele>9.0</ele><time>2026-04-26T09:59:41Z</time></trkpt><trkpt lat="40.93284523196621" lon="8.87689049573573"><ele>9.666666666666666</ele><time>2026-04-26T09:59:42Z</time></trkpt><trkpt lat="40.93302936392211" lon="8.876887142244456"><ele>10.333333333333332</ele><time>2026-04-26T09:59:43Z</time></trkpt><trkpt lat="40.933197702734795" lon="8.876878633087792"><ele>11.0</ele><time>2026-04-26T09:59:44Z</time></trkpt><trkpt lat="40.93334714477861" lon="8.876865193664742"><ele>11.0</ele><time>2026-04-26T09:59:45Z</time></trkpt><trkpt lat="40.93346037934352" lon="8.876840086578905"><ele>11.0</ele><time>2026-04-26T09:59:46Z</time></trkpt><trkpt lat="40.93356296525057" lon="8.876783653446173"><ele>11.0</ele><time>2026-04-26T09:59:47Z</time></trkpt><trkpt lat="40.93365745992824" lon="8.876685729835781"><ele>11.0</ele><time>2026-04-26T09:59:48Z</time></trkpt><trkpt lat="40.93374189567288" lon="8.876557744159014"><ele>10.0</ele><time>2026-04-26T09:59:49Z</time></trkpt><trkpt lat="40.93381472510909" lon="8.876407606260981"><ele>9.0</ele><time>2026-04-26T09:59:50Z</time></trkpt><trkpt lat="40.93387821547494" lon="8.876229700598582"><ele>8.0</ele><time>2026-04-26T09:59:51Z</time></trkpt><trkpt lat="40.933936603245776" lon="8.876006054552073"><ele>7.666666666666666</ele><time>2026-04-26T09:59:52Z</time></trkpt><trkpt lat="40.934031720938606" lon="8.875769842011218"><ele>7.333333333333334</ele><time>2026-04-26T09:59:53Z</time></trkpt><trkpt lat="40.93412549207982" lon="8.875511482826287"><ele>7.0</ele><time>2026-04-26T09:59:54Z</time></trkpt><trkpt lat="40.93422728468308" lon="8.875239873945766"><ele>6.333333333333334</ele><time>2026-04-26T09:59:55Z</time></trkpt><trkpt lat="40.93433154581594" lon="8.874977030178718"><ele>5.666666666666667</ele><time>2026-04-26T09:59:56Z</time></trkpt><trkpt lat="40.93443131669765" lon="8.874738075956138"><ele>5.0</ele><time>2026-04-26T09:59:57Z</time></trkpt><trkpt lat="40.9345311603323" lon="8.874512733352066"><ele>5.0</ele><time>2026-04-26T09:59:58Z</time></trkpt><trkpt lat="40.93462784858767" lon="8.874303127244955"><ele>5.0</ele><time>2026-04-26T09:59:59Z</time></trkpt><trkpt lat="40.93472989935065" lon="8.874099545582908"><ele>5.0</ele><time>2026-04-26T10:00:00Z</time></trkpt><trkpt lat="40.93484159982555" lon="8.873889407065782"><ele>4.333333333333334</ele><time>2026-04-26T10:00:01Z</time></trkpt><trkpt lat="40.93496094540132" lon="8.873676283458847"><ele>3.666666666666667</ele><time>2026-04-26T10:00:02Z</time></trkpt><trkpt lat="40.93508374580791" lon="8.873464461004808"><ele>3.0</ele><time>2026-04-26T10:00:03Z</time></trkpt><trkpt lat="40.9352155400981" lon="8.87325834775171"><ele>3.0</ele><time>2026-04-26T10:00:04Z</time></trkpt><trkpt lat="40.93534796337308" lon="8.873045579397658"><ele>3.0</ele><time>2026-04-26T10:00:05Z</time></trkpt><trkpt lat="40.93546591249904" lon="8.872821934725776"><ele>3.0</ele><time>2026-04-26T10:00:06Z</time></trkpt><trkpt lat="40.9355992047882" lon="8.872609482349205"><ele>3.0</ele><time>2026-04-26T10:00:07Z</time></trkpt><trkpt lat="40.935733445812176" lon="8.872393646076873"><ele>3.0</ele><time>2026-04-26T10:00:08Z</time></trkpt><trkpt lat="40.93586729385861" lon="8.87218123684952"><ele>3.0</ele><time>2026-04-26T10:00:09Z</time></trkpt><trkpt lat="40.93600236914291" lon="8.871965378254353"><ele>3.0</ele><time>2026-04-26T10:00:10Z</time></trkpt><trkpt lat="40.936137116150626" lon="8.871750638597499"><ele>3.0</ele><time>2026-04-26T10:00:11Z</time></trkpt><trkpt lat="40.93627231645114" lon="8.871537040291477"><ele>3.0</ele><time>2026-04-26T10:00:12Z</time></trkpt><trkpt lat="40.93640968050514" lon="8.871327315512954"><ele>3.0</ele><time>2026-04-26T10:00:13Z</time></trkpt><trkpt lat="40.93655022742884" lon="8.871113808279228"><ele>3.0</ele><time>2026-04-26T10:00:14Z</time></trkpt><trkpt lat="40.93668806538307" lon="8.870900466586914"><ele>3.0</ele><time>2026-04-26T10:00:15Z</time></trkpt><trkpt lat="40.93681371851569" lon="8.87070454395957"><ele>2.6666666666666665</ele><time>2026-04-26T10:00:16Z</time></trkpt><trkpt lat="40.93692932273279" lon="8.870524236185592"><ele>2.333333333333333</ele><time>2026-04-26T10:00:17Z</time></trkpt><trkpt lat="40.9370382408511" lon="8.870351297015487"><ele>2.0</ele><time>2026-04-26T10:00:18Z</time></trkpt><trkpt lat="40.93714250320638" lon="8.87018863850486"><ele>2.25</ele><time>2026-04-26T10:00:19Z</time></trkpt><trkpt lat="40.937239946427425" lon="8.870035276957315"><ele>2.5</ele><time>2026-04-26T10:00:20Z</time></trkpt><trkpt lat="40.9373358725127" lon="8.8698850213533"><ele>2.75</ele><time>2026-04-26T10:00:21Z</time></trkpt><trkpt lat="40.93742974662429" lon="8.869743082330942"><ele>3.0</ele><time>2026-04-26T10:00:22Z</time></trkpt><trkpt lat="40.93751559223262" lon="8.869610001386294"><ele>2.75</ele><time>2026-04-26T10:00:23Z</time></trkpt><trkpt lat="40.937602541465566" lon="8.869481684895911"><ele>2.5</ele><time>2026-04-26T10:00:24Z</time></trkpt><trkpt lat="40.93768901651315" lon="8.869351520872222"><ele>2.25</ele><time>2026-04-26T10:00:25Z</time></trkpt><trkpt lat="40.93778461456052" lon="8.869206241591835"><ele>2.0</ele><time>2026-04-26T10:00:26Z</time></trkpt><trkpt lat="40.93787187072854" lon="8.869071087032012"><ele>2.0</ele><time>2026-04-26T10:00:27Z</time></trkpt><trkpt lat="40.93795974894335" lon="8.868943404494681"><ele>2.0</ele><time>2026-04-26T10:00:28Z</time></trkpt><trkpt lat="40.9380464565126" lon="8.868789870879782"><ele>2.0</ele><time>2026-04-26T10:00:29Z</time></trkpt><trkpt lat="40.93814351316302" lon="8.868623513852496"><ele>2.0</ele><time>2026-04-26T10:00:30Z</time></trkpt><trkpt lat="40.938238916966355" lon="8.868459846810186"><ele>2.0</ele><time>2026-04-26T10:00:31Z</time></trkpt><trkpt lat="40.93833402119324" lon="8.86829878077087"><ele>2.0</ele><time>2026-04-26T10:00:32Z</time></trkpt><trkpt lat="40.93842917357039" lon="8.868135629931915"><ele>2.0</ele><time>2026-04-26T10:00:33Z</time></trkpt><trkpt lat="40.93851686726298" lon="8.867966151239466"><ele>2.0</ele><time>2026-04-26T10:00:34Z</time></trkpt><trkpt lat="40.938606782431584" lon="8.867794359241081"><ele>2.0</ele><time>2026-04-26T10:00:35Z</time></trkpt><trkpt lat="40.93870481473727" lon="8.867601951607178"><ele>2.0</ele><time>2026-04-26T10:00:36Z</time></trkpt><trkpt lat="40.93879763481878" lon="8.867419889039883"><ele>2.0</ele><time>2026-04-26T10:00:37Z</time></trkpt><trkpt lat="40.938875506553835" lon="8.867257823669657"><ele>2.0</ele><time>2026-04-26T10:00:38Z</time></trkpt><trkpt lat="40.93895045863445" lon="8.867103632955011"><ele>2.0</ele><time>2026-04-26T10:00:39Z</time></trkpt><trkpt lat="40.939023185961574" lon="8.866956705515284"><ele>2.0</ele><time>2026-04-26T10:00:40Z</time></trkpt><trkpt lat="40.939092061326484" lon="8.866818053379836"><ele>1.9999999999999998</ele><time>2026-04-26T10:00:41Z</time></trkpt><trkpt lat="40.9391576081932" lon="8.866692713049767"><ele>2.0</ele><time>2026-04-26T10:00:42Z</time></trkpt><trkpt lat="40.93920850659269" lon="8.866585972121241"><ele>2.0</ele><time>2026-04-26T10:00:43Z</time></trkpt><trkpt lat="40.939249041663665" lon="8.866496005346244"><ele>2.0</ele><time>2026-04-26T10:00:44Z</time></trkpt><trkpt lat="40.93928925206223" lon="8.866421663791748"><ele>1.9999999999999998</ele><time>2026-04-26T10:00:45Z</time></trkpt><trkpt lat="40.93934640698464" lon="8.866357351008324"><ele>2.0</ele><time>2026-04-26T10:00:45.999Z</time></trkpt><trkpt lat="40.93940039698787" lon="8.866296574577902"><ele>2.0</ele><time>2026-04-26T10:00:46.999Z</time></trkpt><trkpt lat="40.93949626665568" lon="8.866293142103645"><ele>2.0</ele><time>2026-04-26T10:00:47.999Z</time></trkpt><trkpt lat="40.9395752089111" lon="8.866308199029321"><ele>2.0</ele><time>2026-04-26T10:00:48.999Z</time></trkpt><trkpt lat="40.93965982393196" lon="8.866340209519809"><ele>2.0</ele><time>2026-04-26T10:00:49.999Z</time></trkpt><trkpt lat="40.93976226306286" lon="8.866363648963736"><ele>2.0</ele><time>2026-04-26T10:00:50.999Z</time></trkpt><trkpt lat="40.93984763022503" lon="8.866351581654888"><ele>2.0</ele><time>2026-04-26T10:00:51.999Z</time></trkpt><trkpt lat="40.939921209466604" lon="8.866287738579082"><ele>2.0</ele><time>2026-04-26T10:00:52.999Z</time></trkpt><trkpt lat="40.94001275268979" lon="8.866165019335295"><ele>2.0</ele><time>2026-04-26T10:00:53.999Z</time></trkpt><trkpt lat="40.9400974014882" lon="8.866043826602533"><ele>2.0</ele><time>2026-04-26T10:00:54.999Z</time></trkpt><trkpt lat="40.940168358338944" lon="8.86596176030695"><ele>2.0</ele><time>2026-04-26T10:00:55.999Z</time></trkpt><trkpt lat="40.94023729639405" lon="8.86592848398086"><ele>1.9999999999999998</ele><time>2026-04-26T10:00:56.999Z</time></trkpt><trkpt lat="40.9403267027024" lon="8.865919106752072"><ele>2.0</ele><time>2026-04-26T10:00:57.999Z</time></trkpt><trkpt lat="40.9404262223564" lon="8.865899939625411"><ele>2.0</ele><time>2026-04-26T10:00:58.999Z</time></trkpt><trkpt lat="40.94050740150921" lon="8.86584696923121"><ele>2.0</ele><time>2026-04-26T10:00:59.999Z</time></trkpt><trkpt lat="40.94055633567062" lon="8.86576320657787"><ele>1.9999999999999998</ele><time>2026-04-26T10:01:00.999Z</time></trkpt><trkpt lat="40.94057753397245" lon="8.865662289957855"><ele>2.0</ele><time>2026-04-26T10:01:01.999Z</time></trkpt><trkpt lat="40.94056290687533" lon="8.865554665529851"><ele>2.0</ele><time>2026-04-26T10:01:02.999Z</time></trkpt><trkpt lat="40.94051761752964" lon="8.865458603847252"><ele>2.0</ele><time>2026-04-26T10:01:03.999Z</time></trkpt><trkpt lat="40.94044639815376" lon="8.865392571028877"><ele>2.0</ele><time>2026-04-26T10:01:04.999Z</time></trkpt><trkpt lat="40.940364203124886" lon="8.865366231625698"><ele>2.0</ele><time>2026-04-26T10:01:05.999Z</time></trkpt><trkpt lat="40.9402678694263" lon="8.865377024930922"><ele>2.0</ele><time>2026-04-26T10:01:06.999Z</time></trkpt><trkpt lat="40.940165941692996" lon="8.865411149621256"><ele>2.0</ele><time>2026-04-26T10:01:07.999Z</time></trkpt><trkpt lat="40.940059021333" lon="8.865422255894822"><ele>2.0</ele><time>2026-04-26T10:01:08.999Z</time></trkpt><trkpt lat="40.939939224044295" lon="8.865371126851105"><ele>2.0</ele><time>2026-04-26T10:01:09.999Z</time></trkpt><trkpt lat="40.93979858417471" lon="8.86527220062969"><ele>2.0</ele><time>2026-04-26T10:01:10.999Z</time></trkpt><trkpt lat="40.939639621200314" lon="8.865155134457122"><ele>2.333333333333333</ele><time>2026-04-26T10:01:11.999Z</time></trkpt><trkpt lat="40.93946555964315" lon="8.865032133473882"><ele>2.6666666666666665</ele><time>2026-04-26T10:01:12.999Z</time></trkpt><trkpt lat="40.9392767874255" lon="8.864904129086824"><ele>3.0</ele><time>2026-04-26T10:01:13.999Z</time></trkpt><trkpt lat="40.939080785686244" lon="8.864775018420964"><ele>3.0</ele><time>2026-04-26T10:01:14.999Z</time></trkpt><trkpt lat="40.93889669955552" lon="8.864652202954664"><ele>3.0</ele><time>2026-04-26T10:01:15.999Z</time></trkpt><trkpt lat="40.93871270074621" lon="8.86452845498386"><ele>3.0</ele><time>2026-04-26T10:01:16.999Z</time></trkpt><trkpt lat="40.938518034835795" lon="8.864400251552345"><ele>2.0</ele><time>2026-04-26T10:01:17.999Z</time></trkpt><trkpt lat="40.93830355155805" lon="8.864263070359206"><ele>1.0</ele><time>2026-04-26T10:01:18.999Z</time></trkpt><trkpt lat="40.93807890828182" lon="8.864122440000493"><ele>1.0</ele><time>2026-04-26T10:01:19.999Z</time></trkpt><trkpt lat="40.93784940713665" lon="8.863968616775074"><ele>1.0</ele><time>2026-04-26T10:01:20.999Z</time></trkpt><trkpt lat="40.93762128106098" lon="8.863800915856977"><ele>3.0</ele><time>2026-04-26T10:01:21.999Z</time></trkpt><trkpt lat="40.93739395241171" lon="8.863631064263522"><ele>5.0</ele><time>2026-04-26T10:01:22.999Z</time></trkpt><trkpt lat="40.93717535713651" lon="8.863477594419795"><ele>4.5</ele><time>2026-04-26T10:01:23.999Z</time></trkpt><trkpt lat="40.9369622505242" lon="8.8633345341005"><ele>4.0</ele><time>2026-04-26T10:01:24.999Z</time></trkpt><trkpt lat="40.93675528534539" lon="8.863195941516796"><ele>8.5</ele><time>2026-04-26T10:01:25.999Z</time></trkpt><trkpt lat="40.936548148620005" lon="8.863053207790939"><ele>13.0</ele><time>2026-04-26T10:01:26.999Z</time></trkpt><trkpt lat="40.936347653500185" lon="8.862912895807284"><ele>13.0</ele><time>2026-04-26T10:01:27.999Z</time></trkpt><trkpt lat="40.936144176670616" lon="8.862771906656606"><ele>13.0</ele><time>2026-04-26T10:01:29Z</time></trkpt><trkpt lat="40.935937284727245" lon="8.862629937558282"><ele>13.0</ele><time>2026-04-26T10:01:30Z</time></trkpt><trkpt lat="40.93573126724802" lon="8.862486992923051"><ele>13.0</ele><time>2026-04-26T10:01:31Z</time></trkpt><trkpt lat="40.93552251644933" lon="8.862341432548236"><ele>13.0</ele><time>2026-04-26T10:01:32Z</time></trkpt><trkpt lat="40.935311602708865" lon="8.862195837923357"><ele>13.0</ele><time>2026-04-26T10:01:33Z</time></trkpt><trkpt lat="40.935097691245396" lon="8.862050495885804"><ele>15.0</ele><time>2026-04-26T10:01:34Z</time></trkpt><trkpt lat="40.934883138698105" lon="8.861907093949968"><ele>17.0</ele><time>2026-04-26T10:01:35Z</time></trkpt><trkpt lat="40.93466790265434" lon="8.861763474017385"><ele>13.0</ele><time>2026-04-26T10:01:36Z</time></trkpt><trkpt lat="40.93445196129735" lon="8.861618371362907"><ele>9.0</ele><time>2026-04-26T10:01:37Z</time></trkpt><trkpt lat="40.934234842690195" lon="8.861472910614616"><ele>11.0</ele><time>2026-04-26T10:01:38Z</time></trkpt><trkpt lat="40.93401819483819" lon="8.861327216473812"><ele>13.0</ele><time>2026-04-26T10:01:39Z</time></trkpt><trkpt lat="40.93380413937235" lon="8.861184418432144"><ele>13.0</ele><time>2026-04-26T10:01:40Z</time></trkpt><trkpt lat="40.93358612899878" lon="8.8610486799833"><ele>13.0</ele><time>2026-04-26T10:01:41Z</time></trkpt><trkpt lat="40.93336283576846" lon="8.860924400205198"><ele>11.0</ele><time>2026-04-26T10:01:42Z</time></trkpt><trkpt lat="40.93312651061832" lon="8.860805146872169"><ele>9.0</ele><time>2026-04-26T10:01:43Z</time></trkpt><trkpt lat="40.932880648077536" lon="8.860691084931048"><ele>9.0</ele><time>2026-04-26T10:01:44Z</time></trkpt><trkpt lat="40.93263040362585" lon="8.860576278610173"><ele>9.0</ele><time>2026-04-26T10:01:45Z</time></trkpt><trkpt lat="40.93238319879168" lon="8.860460258026055"><ele>12.0</ele><time>2026-04-26T10:01:46Z</time></trkpt><trkpt lat="40.932153972666455" lon="8.860353034937852"><ele>15.0</ele><time>2026-04-26T10:01:47Z</time></trkpt><trkpt lat="40.931938762225194" lon="8.860251018876662"><ele>15.0</ele><time>2026-04-26T10:01:48Z</time></trkpt><trkpt lat="40.93173257574395" lon="8.86014696872537"><ele>15.0</ele><time>2026-04-26T10:01:49Z</time></trkpt><trkpt lat="40.93152684389517" lon="8.860036951294813"><ele>15.0</ele><time>2026-04-26T10:01:50Z</time></trkpt><trkpt lat="40.931335481623144" lon="8.859895209109313"><ele>9.5</ele><time>2026-04-26T10:01:51Z</time></trkpt><trkpt lat="40.93113510902148" lon="8.859757881293481"><ele>4.0</ele><time>2026-04-26T10:01:52Z</time></trkpt><trkpt lat="40.930932719648915" lon="8.859611166008358"><ele>3.5</ele><time>2026-04-26T10:01:53Z</time></trkpt><trkpt lat="40.93072527282003" lon="8.859467311158676"><ele>3.0</ele><time>2026-04-26T10:01:54Z</time></trkpt><trkpt lat="40.93053099979416" lon="8.859296015819048"><ele>3.0</ele><time>2026-04-26T10:01:55Z</time></trkpt><trkpt lat="40.93025240129374" lon="8.859597713236772"><ele>3.0</ele><time>2026-04-26T10:01:56Z</time></trkpt><trkpt lat="40.92998836004531" lon="8.85932484850466"><ele>2.5</ele><time>2026-04-26T10:01:57Z</time></trkpt><trkpt lat="40.92978261782083" lon="8.859180378605862"><ele>2.0</ele><time>2026-04-26T10:01:58Z</time></trkpt><trkpt lat="40.929589611481404" lon="8.8590083600379"><ele>2.0</ele><time>2026-04-26T10:01:59Z</time></trkpt><trkpt lat="40.92964047900811" lon="8.858229070595655"><ele>2.0</ele><time>2026-04-26T10:02:00Z</time></trkpt><trkpt lat="40.929477556701116" lon="8.857980359974068"><ele>2.0</ele><time>2026-04-26T10:02:01Z</time></trkpt><trkpt lat="40.92932008945826" lon="8.857730580098302"><ele>3.0</ele><time>2026-04-26T10:02:02Z</time></trkpt><trkpt lat="40.92916175473411" lon="8.857479141453544"><ele>4.0</ele><time>2026-04-26T10:02:03Z</time></trkpt><trkpt lat="40.92900157015369" lon="8.85722875538605"><ele>4.0</ele><time>2026-04-26T10:02:04Z</time></trkpt><trkpt lat="40.928843562555045" lon="8.856979095880419"><ele>4.0</ele><time>2026-04-26T10:02:05Z</time></trkpt><trkpt lat="40.928684126617576" lon="8.856731275762302"><ele>4.0</ele><time>2026-04-26T10:02:06Z</time></trkpt><trkpt lat="40.928528078856544" lon="8.85648701930549"><ele>4.0</ele><time>2026-04-26T10:02:07Z</time></trkpt><trkpt lat="40.92837144376862" lon="8.856244088974966"><ele>4.0</ele><time>2026-04-26T10:02:08Z</time></trkpt><trkpt lat="40.92822002930492" lon="8.856006691642495"><ele>4.0</ele><time>2026-04-26T10:02:09Z</time></trkpt><trkpt lat="40.928068600020026" lon="8.855771672810608"><ele>4.0</ele><time>2026-04-26T10:02:10Z</time></trkpt><trkpt lat="40.927921340544806" lon="8.855538955452957"><ele>4.0</ele><time>2026-04-26T10:02:11Z</time></trkpt><trkpt lat="40.92777205728144" lon="8.855305704021932"><ele>4.0</ele><time>2026-04-26T10:02:12Z</time></trkpt><trkpt lat="40.92762202955078" lon="8.855071867854717"><ele>4.0</ele><time>2026-04-26T10:02:13Z</time></trkpt><trkpt lat="40.92747355114382" lon="8.85483643496408"><ele>4.0</ele><time>2026-04-26T10:02:14Z</time></trkpt><trkpt lat="40.92732047319834" lon="8.854598190465552"><ele>4.0</ele><time>2026-04-26T10:02:15Z</time></trkpt><trkpt lat="40.92716435813163" lon="8.854361960699192"><ele>3.5</ele><time>2026-04-26T10:02:16Z</time></trkpt><trkpt lat="40.92701099414644" lon="8.854126829763693"><ele>3.0</ele><time>2026-04-26T10:02:17Z</time></trkpt><trkpt lat="40.92685843184935" lon="8.853890452320679"><ele>3.0</ele><time>2026-04-26T10:02:18Z</time></trkpt><trkpt lat="40.92670431302602" lon="8.853652480087574"><ele>3.0</ele><time>2026-04-26T10:02:19Z</time></trkpt><trkpt lat="40.926553520455364" lon="8.853416387895695"><ele>3.0</ele><time>2026-04-26T10:02:20Z</time></trkpt><trkpt lat="40.926403090722296" lon="8.853180596723787"><ele>3.0</ele><time>2026-04-26T10:02:21Z</time></trkpt><trkpt lat="40.92625347070801" lon="8.852948264233207"><ele>3.0</ele><time>2026-04-26T10:02:22Z</time></trkpt><trkpt lat="40.92610509366294" lon="8.852719045174721"><ele>3.0</ele><time>2026-04-26T10:02:23Z</time></trkpt><trkpt lat="40.9259569849684" lon="8.85248604654557"><ele>4.0</ele><time>2026-04-26T10:02:24Z</time></trkpt><trkpt lat="40.925810227403446" lon="8.852258460038625"><ele>5.0</ele><time>2026-04-26T10:02:25Z</time></trkpt><trkpt lat="40.925664747383784" lon="8.852030258242552"><ele>5.0</ele><time>2026-04-26T10:02:26Z</time></trkpt><trkpt lat="40.925519912103866" lon="8.851803250621638"><ele>5.0</ele><time>2026-04-26T10:02:27Z</time></trkpt><trkpt lat="40.92537599536803" lon="8.851577989587936"><ele>5.0</ele><time>2026-04-26T10:02:28Z</time></trkpt><trkpt lat="40.92523233665116" lon="8.851356021027062"><ele>4.666666666666667</ele><time>2026-04-26T10:02:29Z</time></trkpt><trkpt lat="40.92508796469118" lon="8.851134532456452"><ele>4.333333333333333</ele><time>2026-04-26T10:02:30Z</time></trkpt><trkpt lat="40.92494721378015" lon="8.85091568366379"><ele>4.0</ele><time>2026-04-26T10:02:31Z</time></trkpt><trkpt lat="40.924803158277435" lon="8.850694324913116"><ele>4.0</ele><time>2026-04-26T10:02:32Z</time></trkpt><trkpt lat="40.924657024378476" lon="8.850470829481527"><ele>4.0</ele><time>2026-04-26T10:02:33Z</time></trkpt><trkpt lat="40.924503328538194" lon="8.850235533042897"><ele>4.0</ele><time>2026-04-26T10:02:34Z</time></trkpt><trkpt lat="40.924341770785134" lon="8.849984427790682"><ele>4.0</ele><time>2026-04-26T10:02:35Z</time></trkpt><trkpt lat="40.924175380539396" lon="8.849722336887332"><ele>4.5</ele><time>2026-04-26T10:02:36Z</time></trkpt><trkpt lat="40.92401091240274" lon="8.849464122371051"><ele>5.0</ele><time>2026-04-26T10:02:37Z</time></trkpt><trkpt lat="40.92385520747224" lon="8.84921689732264"><ele>4.0</ele><time>2026-04-26T10:02:38Z</time></trkpt><trkpt lat="40.92369934714484" lon="8.84897035275701"><ele>3.0</ele><time>2026-04-26T10:02:39Z</time></trkpt><trkpt lat="40.923545966603825" lon="8.848731116805249"><ele>3.0</ele><time>2026-04-26T10:02:40Z</time></trkpt><trkpt lat="40.92338956614809" lon="8.848486506861445"><ele>3.0</ele><time>2026-04-26T10:02:41Z</time></trkpt><trkpt lat="40.92322986824594" lon="8.84823947991884"><ele>3.0</ele><time>2026-04-26T10:02:42Z</time></trkpt><trkpt lat="40.92306872088699" lon="8.847992963888181"><ele>3.0</ele><time>2026-04-26T10:02:43Z</time></trkpt><trkpt lat="40.92290862379505" lon="8.847742485872152"><ele>3.0</ele><time>2026-04-26T10:02:44Z</time></trkpt><trkpt lat="40.92274926212831" lon="8.847489611501715"><ele>3.0</ele><time>2026-04-26T10:02:45Z</time></trkpt><trkpt lat="40.92259133765526" lon="8.847241439841953"><ele>3.0</ele><time>2026-04-26T10:02:46Z</time></trkpt><trkpt lat="40.922432248914404" lon="8.846993985372531"><ele>3.0</ele><time>2026-04-26T10:02:47Z</time></trkpt><trkpt lat="40.92227712338312" lon="8.84674931299878"><ele>3.0</ele><time>2026-04-26T10:02:48Z</time></trkpt><trkpt lat="40.92211904772594" lon="8.84650384346091"><ele>3.0</ele><time>2026-04-26T10:02:49Z</time></trkpt><trkpt lat="40.921962548830926" lon="8.846262386659838"><ele>3.0</ele><time>2026-04-26T10:02:50Z</time></trkpt><trkpt lat="40.9218090499123" lon="8.846026130159073"><ele>3.0</ele><time>2026-04-26T10:02:51Z</time></trkpt><trkpt lat="40.92165676260319" lon="8.845789667032905"><ele>4.5</ele><time>2026-04-26T10:02:52Z</time></trkpt><trkpt lat="40.921507400746805" lon="8.845550590976213"><ele>6.0</ele><time>2026-04-26T10:02:53Z</time></trkpt><trkpt lat="40.92136022195249" lon="8.845315320768579"><ele>4.5</ele><time>2026-04-26T10:02:54Z</time></trkpt><trkpt lat="40.92120931822676" lon="8.845077767912779"><ele>3.0</ele><time>2026-04-26T10:02:55Z</time></trkpt><trkpt lat="40.92105991662305" lon="8.844842630811137"><ele>3.0</ele><time>2026-04-26T10:02:56Z</time></trkpt><trkpt lat="40.920907306841514" lon="8.844607176084203"><ele>3.0</ele><time>2026-04-26T10:02:57Z</time></trkpt><trkpt lat="40.92075452720187" lon="8.844370370344047"><ele>3.5</ele><time>2026-04-26T10:02:58Z</time></trkpt><trkpt lat="40.92060808076907" lon="8.844135401109636"><ele>4.0</ele><time>2026-04-26T10:02:59Z</time></trkpt><trkpt lat="40.92046710622471" lon="8.843901497732716"><ele>4.0</ele><time>2026-04-26T10:03:00Z</time></trkpt><trkpt lat="40.92033927426632" lon="8.843678567882533"><ele>4.0</ele><time>2026-04-26T10:03:01Z</time></trkpt><trkpt lat="40.92021619620271" lon="8.843447535550919"><ele>4.0</ele><time>2026-04-26T10:03:02Z</time></trkpt><trkpt lat="40.92010362843625" lon="8.843210956561176"><ele>4.0</ele><time>2026-04-26T10:03:03Z</time></trkpt><trkpt lat="40.91999511253451" lon="8.842964349875672"><ele>4.0</ele><time>2026-04-26T10:03:04Z</time></trkpt><trkpt lat="40.919923295341285" lon="8.842701550461795"><ele>4.0</ele><time>2026-04-26T10:03:05Z</time></trkpt><trkpt lat="40.9198330295258" lon="8.84246635045069"><ele>4.0</ele><time>2026-04-26T10:03:06Z</time></trkpt><trkpt lat="40.91975169243747" lon="8.842241164575807"><ele>4.0</ele><time>2026-04-26T10:03:07Z</time></trkpt><trkpt lat="40.91967586977255" lon="8.842022368208895"><ele>4.0</ele><time>2026-04-26T10:03:08Z</time></trkpt><trkpt lat="40.91960232138483" lon="8.841809520651372"><ele>4.666666666666666</ele><time>2026-04-26T10:03:08.999Z</time></trkpt><trkpt lat="40.91953134210921" lon="8.841601889339627"><ele>5.333333333333333</ele><time>2026-04-26T10:03:09.999Z</time></trkpt><trkpt lat="40.919460349189954" lon="8.841396822895156"><ele>6.0</ele><time>2026-04-26T10:03:10.999Z</time></trkpt><trkpt lat="40.919392005050724" lon="8.841197197274798"><ele>6.0</ele><time>2026-04-26T10:03:11.999Z</time></trkpt><trkpt lat="40.91932020910713" lon="8.840988848806768"><ele>6.0</ele><time>2026-04-26T10:03:12.999Z</time></trkpt><trkpt lat="40.919245387064414" lon="8.840770033056371"><ele>6.0</ele><time>2026-04-26T10:03:13.999Z</time></trkpt><trkpt lat="40.91916314085015" lon="8.840530787959635"><ele>9.0</ele><time>2026-04-26T10:03:14.999Z</time></trkpt><trkpt lat="40.91907439456489" lon="8.84027231311614"><ele>12.0</ele><time>2026-04-26T10:03:15.999Z</time></trkpt><trkpt lat="40.91898179097841" lon="8.840002603800887"><ele>15.0</ele><time>2026-04-26T10:03:16.999Z</time></trkpt><trkpt lat="40.91888494271838" lon="8.839720531857791"><ele>16.0</ele><time>2026-04-26T10:03:17.999Z</time></trkpt><trkpt lat="40.91878507369227" lon="8.839429661855359"><ele>17.0</ele><time>2026-04-26T10:03:18.999Z</time></trkpt><trkpt lat="40.91868246264994" lon="8.839130144245717"><ele>17.0</ele><time>2026-04-26T10:03:19.999Z</time></trkpt><trkpt lat="40.91857508301412" lon="8.838817618607784"><ele>17.0</ele><time>2026-04-26T10:03:20.999Z</time></trkpt><trkpt lat="40.91846933678463" lon="8.838507771818794"><ele>22.0</ele><time>2026-04-26T10:03:21.999Z</time></trkpt><trkpt lat="40.91836156097777" lon="8.8381907012614"><ele>27.0</ele><time>2026-04-26T10:03:22.999Z</time></trkpt><trkpt lat="40.918258732476886" lon="8.837888185384795"><ele>27.333333333333336</ele><time>2026-04-26T10:03:23.999Z</time></trkpt><trkpt lat="40.918166215611095" lon="8.837616005791062"><ele>27.666666666666668</ele><time>2026-04-26T10:03:24.999Z</time></trkpt><trkpt lat="40.91807481647814" lon="8.837347114517291"><ele>28.0</ele><time>2026-04-26T10:03:25.999Z</time></trkpt><trkpt lat="40.91798589235851" lon="8.837086166393425"><ele>28.0</ele><time>2026-04-26T10:03:26.999Z</time></trkpt><trkpt lat="40.917812358035206" lon="8.836577925359359"><ele>28.0</ele><time>2026-04-26T10:03:28.999Z</time></trkpt><trkpt lat="40.917726803037944" lon="8.83632735499205"><ele>28.0</ele><time>2026-04-26T10:03:29.999Z</time></trkpt><trkpt lat="40.917642339757" lon="8.836079982001714"><ele>28.0</ele><time>2026-04-26T10:03:30.999Z</time></trkpt><trkpt lat="40.91755862278569" lon="8.83583653486552"><ele>28.0</ele><time>2026-04-26T10:03:31.999Z</time></trkpt><trkpt lat="40.917475267582866" lon="8.835594510581428"><ele>30.666666666666668</ele><time>2026-04-26T10:03:32.999Z</time></trkpt><trkpt lat="40.91739063033629" lon="8.83534876386185"><ele>33.333333333333336</ele><time>2026-04-26T10:03:33.999Z</time></trkpt><trkpt lat="40.91730431817026" lon="8.835098153962107"><ele>36.0</ele><time>2026-04-26T10:03:35Z</time></trkpt><trkpt lat="40.917217871804255" lon="8.834847154398936"><ele>37.0</ele><time>2026-04-26T10:03:36Z</time></trkpt><trkpt lat="40.91713031174013" lon="8.834592921186564"><ele>38.0</ele><time>2026-04-26T10:03:37Z</time></trkpt><trkpt lat="40.91704171688859" lon="8.834335683430677"><ele>39.0</ele><time>2026-04-26T10:03:38Z</time></trkpt><trkpt lat="40.91695251304677" lon="8.834076677457764"><ele>39.0</ele><time>2026-04-26T10:03:39Z</time></trkpt><trkpt lat="40.91686236540934" lon="8.83381405661701"><ele>39.0</ele><time>2026-04-26T10:03:40Z</time></trkpt><trkpt lat="40.91677135684778" lon="8.833547990017678"><ele>39.0</ele><time>2026-04-26T10:03:41Z</time></trkpt><trkpt lat="40.9166772279693" lon="8.833271046349376"><ele>42.5</ele><time>2026-04-26T10:03:42Z</time></trkpt><trkpt lat="40.91657715405885" lon="8.832976692023903"><ele>46.0</ele><time>2026-04-26T10:03:43Z</time></trkpt><trkpt lat="40.91647231157858" lon="8.832669347914825"><ele>45.0</ele><time>2026-04-26T10:03:44Z</time></trkpt><trkpt lat="40.916369714587" lon="8.832372571937805"><ele>44.0</ele><time>2026-04-26T10:03:45Z</time></trkpt><trkpt lat="40.91627479171328" lon="8.832098403097117"><ele>44.0</ele><time>2026-04-26T10:03:46Z</time></trkpt><trkpt lat="40.91618705780014" lon="8.831842221429568"><ele>44.0</ele><time>2026-04-26T10:03:47Z</time></trkpt><trkpt lat="40.91610444654916" lon="8.831600566684974"><ele>44.0</ele><time>2026-04-26T10:03:48Z</time></trkpt><trkpt lat="40.916024124107416" lon="8.831368113536978"><ele>44.0</ele><time>2026-04-26T10:03:49Z</time></trkpt><trkpt lat="40.91594650962235" lon="8.831143533145971"><ele>44.0</ele><time>2026-04-26T10:03:50Z</time></trkpt><trkpt lat="40.915865736964825" lon="8.83090981444372"><ele>44.0</ele><time>2026-04-26T10:03:51Z</time></trkpt><trkpt lat="40.915784757184284" lon="8.830675496427713"><ele>45.666666666666664</ele><time>2026-04-26T10:03:52Z</time></trkpt><trkpt lat="40.915703055086574" lon="8.830437695116075"><ele>47.33333333333333</ele><time>2026-04-26T10:03:53Z</time></trkpt><trkpt lat="40.915619656823345" lon="8.830194925100553"><ele>49.0</ele><time>2026-04-26T10:03:54Z</time></trkpt><trkpt lat="40.91553579263979" lon="8.82995031854377"><ele>49.0</ele><time>2026-04-26T10:03:55Z</time></trkpt><trkpt lat="40.91545073171624" lon="8.829702514203804"><ele>49.0</ele><time>2026-04-26T10:03:56Z</time></trkpt><trkpt lat="40.91535133226813" lon="8.829464509886714"><ele>49.0</ele><time>2026-04-26T10:03:57Z</time></trkpt><trkpt lat="40.91527931077554" lon="8.82920546929284"><ele>50.0</ele><time>2026-04-26T10:03:58Z</time></trkpt><trkpt lat="40.915192071023945" lon="8.828952607221282"><ele>51.0</ele><time>2026-04-26T10:03:59Z</time></trkpt><trkpt lat="40.915104970632356" lon="8.828700149217767"><ele>52.0</ele><time>2026-04-26T10:04:00Z</time></trkpt><trkpt lat="40.915002879766796" lon="8.828456412677072"><ele>53.0</ele><time>2026-04-26T10:04:01Z</time></trkpt><trkpt lat="40.91491673260515" lon="8.828201543139674"><ele>54.0</ele><time>2026-04-26T10:04:02Z</time></trkpt><trkpt lat="40.91483098744701" lon="8.827948506019846"><ele>55.0</ele><time>2026-04-26T10:04:03Z</time></trkpt><trkpt lat="40.91474543045082" lon="8.827694955372461"><ele>54.0</ele><time>2026-04-26T10:04:04Z</time></trkpt><trkpt lat="40.914659653723696" lon="8.827446611118793"><ele>53.0</ele><time>2026-04-26T10:04:05Z</time></trkpt><trkpt lat="40.91457718721488" lon="8.827208736701998"><ele>52.0</ele><time>2026-04-26T10:04:06Z</time></trkpt><trkpt lat="40.91449836365205" lon="8.826978876289381"><ele>47.666666666666664</ele><time>2026-04-26T10:04:07Z</time></trkpt><trkpt lat="40.91441891678108" lon="8.826747937789374"><ele>43.33333333333333</ele><time>2026-04-26T10:04:08Z</time></trkpt><trkpt lat="40.91435159175172" lon="8.826498009941195"><ele>39.0</ele><time>2026-04-26T10:04:09Z</time></trkpt><trkpt lat="40.91424613559048" lon="8.826253327729932"><ele>35.666666666666664</ele><time>2026-04-26T10:04:10Z</time></trkpt><trkpt lat="40.914150844399195" lon="8.825990316122907"><ele>32.33333333333333</ele><time>2026-04-26T10:04:11Z</time></trkpt><trkpt lat="40.914054612281774" lon="8.825716584954492"><ele>29.0</ele><time>2026-04-26T10:04:12Z</time></trkpt><trkpt lat="40.91394789912083" lon="8.82542479713549"><ele>24.5</ele><time>2026-04-26T10:04:13Z</time></trkpt><trkpt lat="40.91383684562137" lon="8.82512768742991"><ele>20.0</ele><time>2026-04-26T10:04:14Z</time></trkpt><trkpt lat="40.913727287221654" lon="8.824820658252824"><ele>20.0</ele><time>2026-04-26T10:04:15Z</time></trkpt><trkpt lat="40.91362077335899" lon="8.824504081001123"><ele>20.0</ele><time>2026-04-26T10:04:16Z</time></trkpt><trkpt lat="40.913512819757166" lon="8.824177949026451"><ele>22.0</ele><time>2026-04-26T10:04:17Z</time></trkpt><trkpt lat="40.913404986509235" lon="8.823850123427137"><ele>24.0</ele><time>2026-04-26T10:04:18Z</time></trkpt><trkpt lat="40.91329962524886" lon="8.823530477577616"><ele>24.5</ele><time>2026-04-26T10:04:19Z</time></trkpt><trkpt lat="40.9131963204183" lon="8.823223175510762"><ele>25.0</ele><time>2026-04-26T10:04:20Z</time></trkpt><trkpt lat="40.913096266847596" lon="8.822929080715928"><ele>25.0</ele><time>2026-04-26T10:04:21Z</time></trkpt><trkpt lat="40.91300055024893" lon="8.822647719781592"><ele>25.0</ele><time>2026-04-26T10:04:22Z</time></trkpt><trkpt lat="40.91290725113432" lon="8.822376009601559"><ele>25.0</ele><time>2026-04-26T10:04:23Z</time></trkpt><trkpt lat="40.91281294611106" lon="8.822104860753567"><ele>25.0</ele><time>2026-04-26T10:04:24Z</time></trkpt><trkpt lat="40.91271980773271" lon="8.821832341308623"><ele>26.5</ele><time>2026-04-26T10:04:25Z</time></trkpt><trkpt lat="40.91262395520191" lon="8.821555748564165"><ele>28.0</ele><time>2026-04-26T10:04:26Z</time></trkpt><trkpt lat="40.91253040547761" lon="8.821283559881376"><ele>33.0</ele><time>2026-04-26T10:04:27Z</time></trkpt><trkpt lat="40.912436683249105" lon="8.82100363418924"><ele>38.0</ele><time>2026-04-26T10:04:28Z</time></trkpt><trkpt lat="40.912340309075134" lon="8.820723608196671"><ele>40.5</ele><time>2026-04-26T10:04:29Z</time></trkpt><trkpt lat="40.912244923445876" lon="8.820453869566427"><ele>43.0</ele><time>2026-04-26T10:04:30Z</time></trkpt><trkpt lat="40.91215236943297" lon="8.820179829028465"><ele>43.5</ele><time>2026-04-26T10:04:31Z</time></trkpt><trkpt lat="40.912061633205624" lon="8.819909520511349"><ele>44.0</ele><time>2026-04-26T10:04:32Z</time></trkpt><trkpt lat="40.91196577631415" lon="8.819629929956387"><ele>44.0</ele><time>2026-04-26T10:04:33Z</time></trkpt><trkpt lat="40.911864165819644" lon="8.819332306063648"><ele>44.0</ele><time>2026-04-26T10:04:34Z</time></trkpt><trkpt lat="40.91175972236504" lon="8.819022909585982"><ele>46.5</ele><time>2026-04-26T10:04:35Z</time></trkpt><trkpt lat="40.91165133913615" lon="8.818702701691802"><ele>49.0</ele><time>2026-04-26T10:04:36Z</time></trkpt><trkpt lat="40.91154132374308" lon="8.818379422308908"><ele>49.0</ele><time>2026-04-26T10:04:37Z</time></trkpt><trkpt lat="40.911428550260595" lon="8.818067593903455"><ele>49.0</ele><time>2026-04-26T10:04:38Z</time></trkpt><trkpt lat="40.91130886360644" lon="8.817768457405407"><ele>49.0</ele><time>2026-04-26T10:04:39Z</time></trkpt><trkpt lat="40.911182516764775" lon="8.81747517228489"><ele>49.0</ele><time>2026-04-26T10:04:40Z</time></trkpt><trkpt lat="40.91104908294404" lon="8.817183725843021"><ele>49.0</ele><time>2026-04-26T10:04:41Z</time></trkpt><trkpt lat="40.91090841431293" lon="8.816890185972149"><ele>49.0</ele><time>2026-04-26T10:04:42Z</time></trkpt><trkpt lat="40.910769035297214" lon="8.816605401837831"><ele>48.5</ele><time>2026-04-26T10:04:43Z</time></trkpt><trkpt lat="40.910628287575214" lon="8.816318913472035"><ele>48.0</ele><time>2026-04-26T10:04:44Z</time></trkpt><trkpt lat="40.91048794971301" lon="8.816033768645696"><ele>50.5</ele><time>2026-04-26T10:04:45Z</time></trkpt><trkpt lat="40.91034973913975" lon="8.815749767863762"><ele>53.0</ele><time>2026-04-26T10:04:46Z</time></trkpt><trkpt lat="40.9102127297106" lon="8.815466882846943"><ele>53.0</ele><time>2026-04-26T10:04:47Z</time></trkpt><trkpt lat="40.91007986363275" lon="8.815188414719241"><ele>53.0</ele><time>2026-04-26T10:04:48Z</time></trkpt><trkpt lat="40.90994436715281" lon="8.81490995540204"><ele>55.0</ele><time>2026-04-26T10:04:49Z</time></trkpt><trkpt lat="40.909806675637704" lon="8.814629969990136"><ele>57.0</ele><time>2026-04-26T10:04:50Z</time></trkpt><trkpt lat="40.90967197090102" lon="8.814352670222112"><ele>57.5</ele><time>2026-04-26T10:04:51Z</time></trkpt><trkpt lat="40.9095404059234" lon="8.814076492541512"><ele>58.0</ele><time>2026-04-26T10:04:52Z</time></trkpt><trkpt lat="40.90940866293184" lon="8.813806177506537"><ele>58.0</ele><time>2026-04-26T10:04:53Z</time></trkpt><trkpt lat="40.909278133143665" lon="8.81353816179993"><ele>58.0</ele><time>2026-04-26T10:04:54Z</time></trkpt><trkpt lat="40.90914698902995" lon="8.813268905382078"><ele>61.0</ele><time>2026-04-26T10:04:55Z</time></trkpt><trkpt lat="40.909019364253375" lon="8.813001884178716"><ele>64.0</ele><time>2026-04-26T10:04:56Z</time></trkpt><trkpt lat="40.90888964299756" lon="8.812732323448985"><ele>65.5</ele><time>2026-04-26T10:04:57Z</time></trkpt><trkpt lat="40.90876088357008" lon="8.812466506510479"><ele>67.0</ele><time>2026-04-26T10:04:58Z</time></trkpt><trkpt lat="40.9086311326603" lon="8.81220209870229"><ele>67.0</ele><time>2026-04-26T10:04:59Z</time></trkpt><trkpt lat="40.908500323399444" lon="8.811935019303593"><ele>67.0</ele><time>2026-04-26T10:05:00Z</time></trkpt><trkpt lat="40.90836683081319" lon="8.81165895143418"><ele>66.5</ele><time>2026-04-26T10:05:01Z</time></trkpt><trkpt lat="40.908229347329836" lon="8.81137787400426"><ele>66.0</ele><time>2026-04-26T10:05:02Z</time></trkpt><trkpt lat="40.90809757239717" lon="8.811109872935472"><ele>67.0</ele><time>2026-04-26T10:05:03Z</time></trkpt><trkpt lat="40.907971020467514" lon="8.810849937851762"><ele>68.0</ele><time>2026-04-26T10:05:04Z</time></trkpt><trkpt lat="40.907838570873885" lon="8.810594546218413"><ele>68.0</ele><time>2026-04-26T10:05:05Z</time></trkpt><trkpt lat="40.90770916232423" lon="8.810311276464706"><ele>68.0</ele><time>2026-04-26T10:05:06Z</time></trkpt><trkpt lat="40.90757261379002" lon="8.810031608840111"><ele>64.5</ele><time>2026-04-26T10:05:07Z</time></trkpt><trkpt lat="40.907437806754274" lon="8.809756713832813"><ele>61.0</ele><time>2026-04-26T10:05:08Z</time></trkpt><trkpt lat="40.90730232429154" lon="8.809485581475748"><ele>61.0</ele><time>2026-04-26T10:05:09Z</time></trkpt><trkpt lat="40.90717240206506" lon="8.809220029220018"><ele>61.0</ele><time>2026-04-26T10:05:10Z</time></trkpt><trkpt lat="40.907050775179535" lon="8.808963217197867"><ele>61.0</ele><time>2026-04-26T10:05:11Z</time></trkpt><trkpt lat="40.90692735161094" lon="8.808709727166248"><ele>61.0</ele><time>2026-04-26T10:05:12Z</time></trkpt><trkpt lat="40.90680468293454" lon="8.80844921318942"><ele>59.0</ele><time>2026-04-26T10:05:13Z</time></trkpt><trkpt lat="40.90671926712245" lon="8.808167351471306"><ele>57.0</ele><time>2026-04-26T10:05:14Z</time></trkpt><trkpt lat="40.90662388004119" lon="8.807899183873493"><ele>56.33333333333333</ele><time>2026-04-26T10:05:15Z</time></trkpt><trkpt lat="40.90654236212131" lon="8.807641995604417"><ele>55.666666666666664</ele><time>2026-04-26T10:05:16Z</time></trkpt><trkpt lat="40.90647099122145" lon="8.80738216938366"><ele>55.0</ele><time>2026-04-26T10:05:17Z</time></trkpt><trkpt lat="40.90640657745528" lon="8.807114304358283"><ele>55.0</ele><time>2026-04-26T10:05:18Z</time></trkpt><trkpt lat="40.90634802109799" lon="8.806836206201186"><ele>55.0</ele><time>2026-04-26T10:05:19Z</time></trkpt><trkpt lat="40.90630017791551" lon="8.806548075328818"><ele>55.0</ele><time>2026-04-26T10:05:20Z</time></trkpt><trkpt lat="40.9062602009088" lon="8.80625535933732"><ele>57.5</ele><time>2026-04-26T10:05:21Z</time></trkpt><trkpt lat="40.90622409904545" lon="8.805955447604319"><ele>60.0</ele><time>2026-04-26T10:05:22Z</time></trkpt><trkpt lat="40.90619148374606" lon="8.805647316818726"><ele>60.0</ele><time>2026-04-26T10:05:23Z</time></trkpt><trkpt lat="40.906160452431266" lon="8.80533504997858"><ele>60.0</ele><time>2026-04-26T10:05:24Z</time></trkpt><trkpt lat="40.90612456661287" lon="8.805003529713554"><ele>61.5</ele><time>2026-04-26T10:05:25Z</time></trkpt><trkpt lat="40.90608975568566" lon="8.804661459189836"><ele>63.0</ele><time>2026-04-26T10:05:26Z</time></trkpt><trkpt lat="40.90605354354884" lon="8.804312990581868"><ele>64.0</ele><time>2026-04-26T10:05:27Z</time></trkpt><trkpt lat="40.90601596734696" lon="8.803958881997106"><ele>65.0</ele><time>2026-04-26T10:05:28Z</time></trkpt><trkpt lat="40.90597832005816" lon="8.803598175529356"><ele>63.5</ele><time>2026-04-26T10:05:29Z</time></trkpt><trkpt lat="40.905940567930934" lon="8.803234039531924"><ele>62.0</ele><time>2026-04-26T10:05:30Z</time></trkpt><trkpt lat="40.905901271241255" lon="8.802860796892721"><ele>63.5</ele><time>2026-04-26T10:05:31Z</time></trkpt><trkpt lat="40.90586311208444" lon="8.802502631647808"><ele>65.0</ele><time>2026-04-26T10:05:32Z</time></trkpt><trkpt lat="40.90582776016621" lon="8.802170815394817"><ele>65.0</ele><time>2026-04-26T10:05:33Z</time></trkpt><trkpt lat="40.905795041060365" lon="8.801863710903257"><ele>65.0</ele><time>2026-04-26T10:05:34Z</time></trkpt><trkpt lat="40.90576171276679" lon="8.801555425325445"><ele>65.5</ele><time>2026-04-26T10:05:35Z</time></trkpt><trkpt lat="40.90572930805956" lon="8.801258278992437"><ele>66.0</ele><time>2026-04-26T10:05:36Z</time></trkpt><trkpt lat="40.90569749625464" lon="8.800966569470413"><ele>68.0</ele><time>2026-04-26T10:05:37Z</time></trkpt><trkpt lat="40.90564705814515" lon="8.800665669341019"><ele>70.0</ele><time>2026-04-26T10:05:38Z</time></trkpt><trkpt lat="40.90561278356397" lon="8.800356229806805"><ele>71.5</ele><time>2026-04-26T10:05:39Z</time></trkpt><trkpt lat="40.90557577857598" lon="8.800037763763935"><ele>73.0</ele><time>2026-04-26T10:05:40Z</time></trkpt><trkpt lat="40.90554046896205" lon="8.799710270805228"><ele>73.0</ele><time>2026-04-26T10:05:41Z</time></trkpt><trkpt lat="40.905525905413576" lon="8.799368499124462"><ele>73.0</ele><time>2026-04-26T10:05:42Z</time></trkpt><trkpt lat="40.90547881455479" lon="8.799031232100571"><ele>75.0</ele><time>2026-04-26T10:05:43Z</time></trkpt><trkpt lat="40.90544364432619" lon="8.798692062188799"><ele>77.0</ele><time>2026-04-26T10:05:44Z</time></trkpt><trkpt lat="40.90540931426041" lon="8.798350375431296"><ele>79.0</ele><time>2026-04-26T10:05:45Z</time></trkpt><trkpt lat="40.90536535055193" lon="8.798024960159012"><ele>81.0</ele><time>2026-04-26T10:05:46Z</time></trkpt><trkpt lat="40.90531515432333" lon="8.797712838821734"><ele>84.0</ele><time>2026-04-26T10:05:47Z</time></trkpt><trkpt lat="40.90525498202975" lon="8.797411692295592"><ele>87.0</ele><time>2026-04-26T10:05:48Z</time></trkpt><trkpt lat="40.90518268878131" lon="8.79712287532187"><ele>87.0</ele><time>2026-04-26T10:05:49Z</time></trkpt><trkpt lat="40.90510543331197" lon="8.796844206188807"><ele>87.0</ele><time>2026-04-26T10:05:50Z</time></trkpt><trkpt lat="40.90502409788136" lon="8.796585101535666"><ele>87.0</ele><time>2026-04-26T10:05:51Z</time></trkpt><trkpt lat="40.90492829689044" lon="8.796329502753629"><ele>85.0</ele><time>2026-04-26T10:05:52Z</time></trkpt><trkpt lat="40.9048174580836" lon="8.796051705876339"><ele>83.0</ele><time>2026-04-26T10:05:53Z</time></trkpt><trkpt lat="40.90469955593372" lon="8.7957640523355"><ele>83.0</ele><time>2026-04-26T10:05:54Z</time></trkpt><trkpt lat="40.904580673600975" lon="8.795469551733513"><ele>83.0</ele><time>2026-04-26T10:05:55Z</time></trkpt><trkpt lat="40.90445885724811" lon="8.795165425422741"><ele>83.0</ele><time>2026-04-26T10:05:56Z</time></trkpt><trkpt lat="40.90434065814501" lon="8.79486742011071"><ele>83.0</ele><time>2026-04-26T10:05:57Z</time></trkpt><trkpt lat="40.90422859260119" lon="8.79458796747208"><ele>79.0</ele><time>2026-04-26T10:05:58Z</time></trkpt><trkpt lat="40.904122893435705" lon="8.794316850290274"><ele>75.0</ele><time>2026-04-26T10:05:59Z</time></trkpt><trkpt lat="40.90402497186881" lon="8.79406240799626"><ele>71.0</ele><time>2026-04-26T10:06:00Z</time></trkpt><trkpt lat="40.903927792106835" lon="8.793819766583285"><ele>71.0</ele><time>2026-04-26T10:06:01Z</time></trkpt><trkpt lat="40.90383568273385" lon="8.793592575840206"><ele>71.0</ele><time>2026-04-26T10:06:02Z</time></trkpt><trkpt lat="40.90374680072142" lon="8.793370596122584"><ele>71.0</ele><time>2026-04-26T10:06:03Z</time></trkpt><trkpt lat="40.90365801941831" lon="8.793146879662391"><ele>71.0</ele><time>2026-04-26T10:06:04Z</time></trkpt><trkpt lat="40.90356522284429" lon="8.79291085929204"><ele>71.0</ele><time>2026-04-26T10:06:05Z</time></trkpt><trkpt lat="40.90346516132913" lon="8.79265459428617"><ele>71.0</ele><time>2026-04-26T10:06:06Z</time></trkpt><trkpt lat="40.903355375066624" lon="8.792379010840587"><ele>71.0</ele><time>2026-04-26T10:06:07Z</time></trkpt><trkpt lat="40.90325663194412" lon="8.792079291538865"><ele>71.0</ele><time>2026-04-26T10:06:08Z</time></trkpt><trkpt lat="40.90312166232615" lon="8.791790641530302"><ele>70.5</ele><time>2026-04-26T10:06:09Z</time></trkpt><trkpt lat="40.9030162810945" lon="8.791472045084761"><ele>70.0</ele><time>2026-04-26T10:06:10Z</time></trkpt><trkpt lat="40.90289569184048" lon="8.791160078900147"><ele>69.0</ele><time>2026-04-26T10:06:11Z</time></trkpt><trkpt lat="40.90277784955227" lon="8.790856914142994"><ele>68.0</ele><time>2026-04-26T10:06:12Z</time></trkpt><trkpt lat="40.902670026534004" lon="8.790579525275037"><ele>69.5</ele><time>2026-04-26T10:06:13Z</time></trkpt><trkpt lat="40.90256384658381" lon="8.790309713753844"><ele>71.0</ele><time>2026-04-26T10:06:14Z</time></trkpt><trkpt lat="40.902442893215024" lon="8.790051011206604"><ele>71.0</ele><time>2026-04-26T10:06:15Z</time></trkpt><trkpt lat="40.902349285112294" lon="8.789770087260633"><ele>71.0</ele><time>2026-04-26T10:06:16Z</time></trkpt><trkpt lat="40.902265861118494" lon="8.789481335851585"><ele>71.5</ele><time>2026-04-26T10:06:17Z</time></trkpt><trkpt lat="40.90219418738653" lon="8.789180824457826"><ele>72.0</ele><time>2026-04-26T10:06:18Z</time></trkpt><trkpt lat="40.90213179526193" lon="8.788863405022305"><ele>72.0</ele><time>2026-04-26T10:06:19Z</time></trkpt><trkpt lat="40.90208040248172" lon="8.78853932323387"><ele>72.0</ele><time>2026-04-26T10:06:20Z</time></trkpt><trkpt lat="40.902045729063545" lon="8.788220309471377"><ele>73.0</ele><time>2026-04-26T10:06:21Z</time></trkpt><trkpt lat="40.90202724774198" lon="8.7879025196003"><ele>74.0</ele><time>2026-04-26T10:06:22Z</time></trkpt><trkpt lat="40.902022283724534" lon="8.78757977948732"><ele>75.5</ele><time>2026-04-26T10:06:23Z</time></trkpt><trkpt lat="40.90203536526984" lon="8.787246300378719"><ele>77.0</ele><time>2026-04-26T10:06:24Z</time></trkpt><trkpt lat="40.9020607025482" lon="8.786901773532634"><ele>78.5</ele><time>2026-04-26T10:06:25Z</time></trkpt><trkpt lat="40.902088131553086" lon="8.786548505156567"><ele>80.0</ele><time>2026-04-26T10:06:26Z</time></trkpt><trkpt lat="40.90211572889816" lon="8.786185327340839"><ele>80.0</ele><time>2026-04-26T10:06:27Z</time></trkpt><trkpt lat="40.90214060556265" lon="8.785822310459746"><ele>80.0</ele><time>2026-04-26T10:06:28Z</time></trkpt><trkpt lat="40.90216791211878" lon="8.785450191024964"><ele>81.5</ele><time>2026-04-26T10:06:29Z</time></trkpt><trkpt lat="40.9021947906587" lon="8.785070397953497"><ele>83.0</ele><time>2026-04-26T10:06:30Z</time></trkpt><trkpt lat="40.90221984455451" lon="8.784694073058644"><ele>85.5</ele><time>2026-04-26T10:06:31Z</time></trkpt><trkpt lat="40.90224520696986" lon="8.784323372860667"><ele>88.0</ele><time>2026-04-26T10:06:32Z</time></trkpt><trkpt lat="40.90227044783932" lon="8.783979210709822"><ele>88.0</ele><time>2026-04-26T10:06:33Z</time></trkpt><trkpt lat="40.902295199181175" lon="8.783661371197995"><ele>88.0</ele><time>2026-04-26T10:06:34Z</time></trkpt><trkpt lat="40.902320663467236" lon="8.783351728671532"><ele>88.0</ele><time>2026-04-26T10:06:35Z</time></trkpt><trkpt lat="40.90234244411895" lon="8.783049823430398"><ele>88.0</ele><time>2026-04-26T10:06:36Z</time></trkpt><trkpt lat="40.90236116230876" lon="8.782750290356297"><ele>87.0</ele><time>2026-04-26T10:06:37Z</time></trkpt><trkpt lat="40.90238299076244" lon="8.782442537641378"><ele>86.0</ele><time>2026-04-26T10:06:38Z</time></trkpt><trkpt lat="40.90240699510604" lon="8.782116899177767"><ele>86.5</ele><time>2026-04-26T10:06:39Z</time></trkpt><trkpt lat="40.90243156123597" lon="8.781778086294608"><ele>87.0</ele><time>2026-04-26T10:06:40Z</time></trkpt><trkpt lat="40.90245838242883" lon="8.78143465865144"><ele>87.0</ele><time>2026-04-26T10:06:41Z</time></trkpt><trkpt lat="40.902485161291786" lon="8.781083797198669"><ele>87.0</ele><time>2026-04-26T10:06:42Z</time></trkpt><trkpt lat="40.902512449909324" lon="8.780731125867955"><ele>89.0</ele><time>2026-04-26T10:06:43Z</time></trkpt><trkpt lat="40.902537370010144" lon="8.780400504797232"><ele>91.0</ele><time>2026-04-26T10:06:44Z</time></trkpt><trkpt lat="40.90255972234513" lon="8.78009835226508"><ele>91.33333333333333</ele><time>2026-04-26T10:06:45Z</time></trkpt><trkpt lat="40.902580141607494" lon="8.779812740032996"><ele>91.66666666666667</ele><time>2026-04-26T10:06:46Z</time></trkpt><trkpt lat="40.90259877880161" lon="8.77954493271237"><ele>92.0</ele><time>2026-04-26T10:06:47Z</time></trkpt><trkpt lat="40.902614542866715" lon="8.779291302113466"><ele>96.66666666666667</ele><time>2026-04-26T10:06:48Z</time></trkpt><trkpt lat="40.902626915685985" lon="8.7790521677719"><ele>101.33333333333334</ele><time>2026-04-26T10:06:49Z</time></trkpt><trkpt lat="40.902638780331934" lon="8.778829080834191"><ele>106.0</ele><time>2026-04-26T10:06:50Z</time></trkpt><trkpt lat="40.90264709284952" lon="8.77861866620094"><ele>103.66666666666667</ele><time>2026-04-26T10:06:51Z</time></trkpt><trkpt lat="40.90265848355887" lon="8.778409833335303"><ele>101.33333333333334</ele><time>2026-04-26T10:06:52Z</time></trkpt><trkpt lat="40.902676766249705" lon="8.7781906516577"><ele>99.0</ele><time>2026-04-26T10:06:53Z</time></trkpt><trkpt lat="40.90269605464461" lon="8.777966988568592"><ele>99.0</ele><time>2026-04-26T10:06:54Z</time></trkpt><trkpt lat="40.90271492196075" lon="8.777735086763697"><ele>99.0</ele><time>2026-04-26T10:06:55Z</time></trkpt><trkpt lat="40.90273221960256" lon="8.777496551706184"><ele>99.0</ele><time>2026-04-26T10:06:56Z</time></trkpt><trkpt lat="40.90275019488541" lon="8.77725889514534"><ele>98.33333333333334</ele><time>2026-04-26T10:06:57Z</time></trkpt><trkpt lat="40.90276693424936" lon="8.777030699730599"><ele>97.66666666666667</ele><time>2026-04-26T10:06:58Z</time></trkpt><trkpt lat="40.90278260420172" lon="8.776807727251274"><ele>97.0</ele><time>2026-04-26T10:06:59Z</time></trkpt><trkpt lat="40.90279624993459" lon="8.776584864590365"><ele>97.0</ele><time>2026-04-26T10:07:00Z</time></trkpt><trkpt lat="40.902812685303466" lon="8.776364758317248"><ele>97.0</ele><time>2026-04-26T10:07:01Z</time></trkpt><trkpt lat="40.90282579505393" lon="8.776141466177345"><ele>97.0</ele><time>2026-04-26T10:07:02Z</time></trkpt><trkpt lat="40.90284026697717" lon="8.775909738266884"><ele>97.66666666666667</ele><time>2026-04-26T10:07:03Z</time></trkpt><trkpt lat="40.902858969005564" lon="8.775655917120567"><ele>98.33333333333334</ele><time>2026-04-26T10:07:04Z</time></trkpt><trkpt lat="40.902872543665254" lon="8.775392355863753"><ele>99.0</ele><time>2026-04-26T10:07:05Z</time></trkpt><trkpt lat="40.90287617981087" lon="8.775114387789275"><ele>99.66666666666666</ele><time>2026-04-26T10:07:06Z</time></trkpt><trkpt lat="40.90286950080811" lon="8.774842331116417"><ele>100.33333333333333</ele><time>2026-04-26T10:07:07Z</time></trkpt><trkpt lat="40.90285814403808" lon="8.774584566776296"><ele>101.0</ele><time>2026-04-26T10:07:08Z</time></trkpt><trkpt lat="40.90283420878508" lon="8.774333777764857"><ele>102.0</ele><time>2026-04-26T10:07:09Z</time></trkpt><trkpt lat="40.902805379105956" lon="8.77407755697659"><ele>103.0</ele><time>2026-04-26T10:07:10Z</time></trkpt><trkpt lat="40.90277032885904" lon="8.773817221038469"><ele>104.0</ele><time>2026-04-26T10:07:11Z</time></trkpt><trkpt lat="40.9027240811982" lon="8.773559377906588"><ele>102.66666666666666</ele><time>2026-04-26T10:07:12Z</time></trkpt><trkpt lat="40.902670271167494" lon="8.773321548856016"><ele>101.33333333333334</ele><time>2026-04-26T10:07:13Z</time></trkpt><trkpt lat="40.90261078439534" lon="8.773103765448475"><ele>100.0</ele><time>2026-04-26T10:07:14Z</time></trkpt><trkpt lat="40.902548854894754" lon="8.772893118043061"><ele>102.33333333333334</ele><time>2026-04-26T10:07:15Z</time></trkpt><trkpt lat="40.90247974837959" lon="8.772681158093762"><ele>104.66666666666666</ele><time>2026-04-26T10:07:16Z</time></trkpt><trkpt lat="40.90240287200449" lon="8.772467019882473"><ele>107.0</ele><time>2026-04-26T10:07:17Z</time></trkpt><trkpt lat="40.902317378279655" lon="8.772248230236489"><ele>107.0</ele><time>2026-04-26T10:07:18Z</time></trkpt><trkpt lat="40.90222225984329" lon="8.77203026483963"><ele>107.0</ele><time>2026-04-26T10:07:19Z</time></trkpt><trkpt lat="40.9021140440453" lon="8.77180983861648"><ele>107.0</ele><time>2026-04-26T10:07:20Z</time></trkpt><trkpt lat="40.90200891004275" lon="8.771577754612213"><ele>108.0</ele><time>2026-04-26T10:07:21Z</time></trkpt><trkpt lat="40.901885594875615" lon="8.771370483030076"><ele>109.0</ele><time>2026-04-26T10:07:22Z</time></trkpt><trkpt lat="40.90174952725264" lon="8.771188096159534"><ele>110.0</ele><time>2026-04-26T10:07:23Z</time></trkpt><trkpt lat="40.901640314788985" lon="8.770985403925858"><ele>110.66666666666666</ele><time>2026-04-26T10:07:24Z</time></trkpt><trkpt lat="40.90152072156496" lon="8.770798310456877"><ele>111.33333333333334</ele><time>2026-04-26T10:07:25Z</time></trkpt><trkpt lat="40.90140104746373" lon="8.77061109046148"><ele>112.0</ele><time>2026-04-26T10:07:26Z</time></trkpt><trkpt lat="40.90127888401786" lon="8.770419976100554"><ele>112.0</ele><time>2026-04-26T10:07:27Z</time></trkpt><trkpt lat="40.90115320570942" lon="8.770223363110945"><ele>112.0</ele><time>2026-04-26T10:07:28Z</time></trkpt><trkpt lat="40.90101196628506" lon="8.770031459907232"><ele>112.0</ele><time>2026-04-26T10:07:29Z</time></trkpt><trkpt lat="40.90087154846894" lon="8.769813910573772"><ele>116.5</ele><time>2026-04-26T10:07:30Z</time></trkpt><trkpt lat="40.90072170132893" lon="8.769584051482374"><ele>121.0</ele><time>2026-04-26T10:07:31Z</time></trkpt><trkpt lat="40.900570060948766" lon="8.769347460928945"><ele>122.5</ele><time>2026-04-26T10:07:32Z</time></trkpt><trkpt lat="40.90041704671803" lon="8.769106586237536"><ele>124.0</ele><time>2026-04-26T10:07:33Z</time></trkpt><trkpt lat="40.90026634841615" lon="8.768868783123885"><ele>124.0</ele><time>2026-04-26T10:07:34Z</time></trkpt><trkpt lat="40.90012372634481" lon="8.768643004664565"><ele>124.0</ele><time>2026-04-26T10:07:35Z</time></trkpt><trkpt lat="40.89998034122738" lon="8.768419601596003"><ele>124.0</ele><time>2026-04-26T10:07:36Z</time></trkpt><trkpt lat="40.89983636088517" lon="8.768201135076612"><ele>122.33333333333334</ele><time>2026-04-26T10:07:37Z</time></trkpt><trkpt lat="40.899697710873134" lon="8.767990154875305"><ele>120.66666666666666</ele><time>2026-04-26T10:07:38Z</time></trkpt><trkpt lat="40.899570160425085" lon="8.767761116202331"><ele>119.0</ele><time>2026-04-26T10:07:39Z</time></trkpt><trkpt lat="40.89943345761592" lon="8.767549364031806"><ele>119.0</ele><time>2026-04-26T10:07:40Z</time></trkpt><trkpt lat="40.89931139466217" lon="8.767360288947764"><ele>119.0</ele><time>2026-04-26T10:07:41Z</time></trkpt><trkpt lat="40.89919665099643" lon="8.767182551413757"><ele>119.0</ele><time>2026-04-26T10:07:42Z</time></trkpt><trkpt lat="40.89908294527999" lon="8.767007393391117"><ele>117.33333333333333</ele><time>2026-04-26T10:07:43Z</time></trkpt><trkpt lat="40.89897146949745" lon="8.7668360578676"><ele>115.66666666666666</ele><time>2026-04-26T10:07:44Z</time></trkpt><trkpt lat="40.898852383719436" lon="8.7666839114041"><ele>114.0</ele><time>2026-04-26T10:07:45Z</time></trkpt><trkpt lat="40.898748923479275" lon="8.76652385937527"><ele>114.0</ele><time>2026-04-26T10:07:46Z</time></trkpt><trkpt lat="40.89864724904615" lon="8.766370559989499"><ele>114.0</ele><time>2026-04-26T10:07:47Z</time></trkpt><trkpt lat="40.89856313776334" lon="8.766207879389693"><ele>114.0</ele><time>2026-04-26T10:07:48Z</time></trkpt><trkpt lat="40.89846006866885" lon="8.766073932634926"><ele>114.0</ele><time>2026-04-26T10:07:49Z</time></trkpt><trkpt lat="40.8983674423726" lon="8.765923539840056"><ele>113.5</ele><time>2026-04-26T10:07:50Z</time></trkpt><trkpt lat="40.898272520318905" lon="8.76577861837834"><ele>113.0</ele><time>2026-04-26T10:07:51Z</time></trkpt><trkpt lat="40.898175783727204" lon="8.765634434949732"><ele>112.5</ele><time>2026-04-26T10:07:52Z</time></trkpt><trkpt lat="40.89808044727716" lon="8.765484262248673"><ele>112.0</ele><time>2026-04-26T10:07:53Z</time></trkpt><trkpt lat="40.897980862246776" lon="8.76532768269808"><ele>112.0</ele><time>2026-04-26T10:07:54Z</time></trkpt><trkpt lat="40.897876944711584" lon="8.765167612396132"><ele>112.0</ele><time>2026-04-26T10:07:55Z</time></trkpt><trkpt lat="40.89777494898041" lon="8.765011297850362"><ele>112.0</ele><time>2026-04-26T10:07:56Z</time></trkpt><trkpt lat="40.89767886878385" lon="8.76486367499966"><ele>112.0</ele><time>2026-04-26T10:07:57Z</time></trkpt><trkpt lat="40.89758635305037" lon="8.76472071273008"><ele>112.0</ele><time>2026-04-26T10:07:58Z</time></trkpt><trkpt lat="40.89748985864442" lon="8.764573518793918"><ele>112.0</ele><time>2026-04-26T10:07:59Z</time></trkpt><trkpt lat="40.89738080659735" lon="8.764409066167241"><ele>110.33333333333334</ele><time>2026-04-26T10:08:00Z</time></trkpt><trkpt lat="40.89726479225496" lon="8.76423281376483"><ele>108.66666666666666</ele><time>2026-04-26T10:08:01Z</time></trkpt><trkpt lat="40.89714238486675" lon="8.764048603189842"><ele>107.0</ele><time>2026-04-26T10:08:02Z</time></trkpt><trkpt lat="40.89701366176795" lon="8.76385044496194"><ele>107.0</ele><time>2026-04-26T10:08:03Z</time></trkpt><trkpt lat="40.89687093183094" lon="8.763632826928252"><ele>107.0</ele><time>2026-04-26T10:08:04Z</time></trkpt><trkpt lat="40.89671852362324" lon="8.763399404500067"><ele>107.5</ele><time>2026-04-26T10:08:05Z</time></trkpt><trkpt lat="40.896557454994756" lon="8.763152825967566"><ele>108.0</ele><time>2026-04-26T10:08:06Z</time></trkpt><trkpt lat="40.89639235554797" lon="8.76290331234647"><ele>108.0</ele><time>2026-04-26T10:08:07Z</time></trkpt><trkpt lat="40.89624901469594" lon="8.7626490727359"><ele>108.0</ele><time>2026-04-26T10:08:08Z</time></trkpt><trkpt lat="40.89610192232452" lon="8.762420351958013"><ele>108.0</ele><time>2026-04-26T10:08:09Z</time></trkpt><trkpt lat="40.89595349743072" lon="8.76219985428306"><ele>108.0</ele><time>2026-04-26T10:08:10Z</time></trkpt><trkpt lat="40.8958083992042" lon="8.761979691476832"><ele>108.0</ele><time>2026-04-26T10:08:11Z</time></trkpt><trkpt lat="40.895652662085915" lon="8.761780090578306"><ele>107.66666666666666</ele><time>2026-04-26T10:08:12Z</time></trkpt><trkpt lat="40.89551619006372" lon="8.76156227484702"><ele>107.33333333333333</ele><time>2026-04-26T10:08:13Z</time></trkpt><trkpt lat="40.895377481274345" lon="8.761344390816447"><ele>107.0</ele><time>2026-04-26T10:08:14Z</time></trkpt><trkpt lat="40.89523868550309" lon="8.761129376666611"><ele>107.0</ele><time>2026-04-26T10:08:15Z</time></trkpt><trkpt lat="40.895111959429656" lon="8.760897464175013"><ele>107.0</ele><time>2026-04-26T10:08:16Z</time></trkpt><trkpt lat="40.894972263440756" lon="8.760682651423632"><ele>107.0</ele><time>2026-04-26T10:08:17Z</time></trkpt><trkpt lat="40.894832358548236" lon="8.760467517099508"><ele>107.0</ele><time>2026-04-26T10:08:18Z</time></trkpt><trkpt lat="40.89469318456748" lon="8.760253635189782"><ele>107.0</ele><time>2026-04-26T10:08:19Z</time></trkpt><trkpt lat="40.89455329722285" lon="8.760038489525758"><ele>107.0</ele><time>2026-04-26T10:08:20Z</time></trkpt><trkpt lat="40.89441288221786" lon="8.759822532325414"><ele>107.33333333333333</ele><time>2026-04-26T10:08:21Z</time></trkpt><trkpt lat="40.894272824535506" lon="8.759607124686777"><ele>107.66666666666666</ele><time>2026-04-26T10:08:22Z</time></trkpt><trkpt lat="40.89413334496801" lon="8.759392593815583"><ele>108.0</ele><time>2026-04-26T10:08:23Z</time></trkpt><trkpt lat="40.893991414428214" lon="8.759174172800016"><ele>109.0</ele><time>2026-04-26T10:08:24Z</time></trkpt><trkpt lat="40.893838902495446" lon="8.758972188590745"><ele>110.0</ele><time>2026-04-26T10:08:25Z</time></trkpt><trkpt lat="40.89370952122597" lon="8.758740359208929"><ele>111.0</ele><time>2026-04-26T10:08:26Z</time></trkpt><trkpt lat="40.89355729867384" lon="8.75853945689939"><ele>111.0</ele><time>2026-04-26T10:08:27Z</time></trkpt><trkpt lat="40.89343172955029" lon="8.758312751023322"><ele>111.0</ele><time>2026-04-26T10:08:28Z</time></trkpt><trkpt lat="40.89329436152821" lon="8.75809930407278"><ele>111.0</ele><time>2026-04-26T10:08:29Z</time></trkpt><trkpt lat="40.89315956007243" lon="8.757890538492516"><ele>111.66666666666666</ele><time>2026-04-26T10:08:30Z</time></trkpt><trkpt lat="40.893030513507235" lon="8.757691920590439"><ele>112.33333333333333</ele><time>2026-04-26T10:08:31Z</time></trkpt><trkpt lat="40.89291027691751" lon="8.757498076440854"><ele>113.0</ele><time>2026-04-26T10:08:32Z</time></trkpt><trkpt lat="40.89280549541206" lon="8.757300825001337"><ele>113.0</ele><time>2026-04-26T10:08:33Z</time></trkpt><trkpt lat="40.89271055319866" lon="8.757104717845527"><ele>113.0</ele><time>2026-04-26T10:08:34Z</time></trkpt><trkpt lat="40.89261922039338" lon="8.756908640739493"><ele>113.0</ele><time>2026-04-26T10:08:35Z</time></trkpt><trkpt lat="40.89253248531065" lon="8.756707002569451"><ele>112.66666666666666</ele><time>2026-04-26T10:08:36Z</time></trkpt><trkpt lat="40.89245170628366" lon="8.756510566216622"><ele>112.33333333333334</ele><time>2026-04-26T10:08:37Z</time></trkpt><trkpt lat="40.89237523854511" lon="8.756311937703327"><ele>112.0</ele><time>2026-04-26T10:08:38Z</time></trkpt><trkpt lat="40.892305799101564" lon="8.756114653264014"><ele>114.0</ele><time>2026-04-26T10:08:39Z</time></trkpt><trkpt lat="40.892241273415884" lon="8.755917408839855"><ele>116.0</ele><time>2026-04-26T10:08:40Z</time></trkpt><trkpt lat="40.892184390858844" lon="8.75572149647323"><ele>118.0</ele><time>2026-04-26T10:08:41Z</time></trkpt><trkpt lat="40.892131594251126" lon="8.755520897485926"><ele>118.0</ele><time>2026-04-26T10:08:42Z</time></trkpt><trkpt lat="40.892082443966096" lon="8.755320534014112"><ele>118.0</ele><time>2026-04-26T10:08:43Z</time></trkpt><trkpt lat="40.89203810495538" lon="8.755118983210993"><ele>118.0</ele><time>2026-04-26T10:08:44Z</time></trkpt><trkpt lat="40.89199903586749" lon="8.754913841538658"><ele>120.0</ele><time>2026-04-26T10:08:45Z</time></trkpt><trkpt lat="40.89196367923464" lon="8.754703198504496"><ele>122.0</ele><time>2026-04-26T10:08:46Z</time></trkpt><trkpt lat="40.8919314680952" lon="8.754482016027628"><ele>124.0</ele><time>2026-04-26T10:08:47Z</time></trkpt><trkpt lat="40.891903807420846" lon="8.754258792731852"><ele>124.33333333333334</ele><time>2026-04-26T10:08:48Z</time></trkpt><trkpt lat="40.89188376136681" lon="8.754030829758596"><ele>124.66666666666666</ele><time>2026-04-26T10:08:49Z</time></trkpt><trkpt lat="40.89186511965005" lon="8.753799781254001"><ele>125.0</ele><time>2026-04-26T10:08:50Z</time></trkpt><trkpt lat="40.891847137987156" lon="8.753569714050593"><ele>127.0</ele><time>2026-04-26T10:08:51Z</time></trkpt><trkpt lat="40.89182894150789" lon="8.753336898249282"><ele>129.0</ele><time>2026-04-26T10:08:52Z</time></trkpt><trkpt lat="40.8918108201926" lon="8.753105234288654"><ele>131.0</ele><time>2026-04-26T10:08:53Z</time></trkpt><trkpt lat="40.891792662637684" lon="8.7528731006089"><ele>132.33333333333331</ele><time>2026-04-26T10:08:54Z</time></trkpt><trkpt lat="40.89175908506791" lon="8.752645705488284"><ele>133.66666666666666</ele><time>2026-04-26T10:08:55Z</time></trkpt><trkpt lat="40.891756691993976" lon="8.752419676385722"><ele>135.0</ele><time>2026-04-26T10:08:56Z</time></trkpt><trkpt lat="40.89173927200467" lon="8.752197524794658"><ele>135.0</ele><time>2026-04-26T10:08:57Z</time></trkpt><trkpt lat="40.89170846693448" lon="8.75198880948106"><ele>135.0</ele><time>2026-04-26T10:08:58Z</time></trkpt><trkpt lat="40.89169317212822" lon="8.75177994121108"><ele>135.0</ele><time>2026-04-26T10:08:59Z</time></trkpt><trkpt lat="40.891675358640725" lon="8.751565132472996"><ele>135.0</ele><time>2026-04-26T10:09:00Z</time></trkpt><trkpt lat="40.89165917039531" lon="8.751351234693637"><ele>135.0</ele><time>2026-04-26T10:09:01Z</time></trkpt><trkpt lat="40.89164296819117" lon="8.751148655996907"><ele>135.0</ele><time>2026-04-26T10:09:02Z</time></trkpt><trkpt lat="40.891627830987915" lon="8.75095193093914"><ele>136.0</ele><time>2026-04-26T10:09:03Z</time></trkpt><trkpt lat="40.89162778636252" lon="8.750751753936958"><ele>137.0</ele><time>2026-04-26T10:09:04Z</time></trkpt><trkpt lat="40.891597677530825" lon="8.750558156711099"><ele>138.0</ele><time>2026-04-26T10:09:05Z</time></trkpt><trkpt lat="40.89158685999242" lon="8.750359955045093"><ele>137.66666666666666</ele><time>2026-04-26T10:09:06Z</time></trkpt><trkpt lat="40.89157502893317" lon="8.750158095661211"><ele>137.33333333333331</ele><time>2026-04-26T10:09:07Z</time></trkpt><trkpt lat="40.89155630437523" lon="8.749952621996227"><ele>137.0</ele><time>2026-04-26T10:09:08Z</time></trkpt><trkpt lat="40.8915367613502" lon="8.749740290127605"><ele>137.0</ele><time>2026-04-26T10:09:09Z</time></trkpt><trkpt lat="40.89151521884668" lon="8.749517009561904"><ele>137.0</ele><time>2026-04-26T10:09:10Z</time></trkpt><trkpt lat="40.891488904696935" lon="8.749274471992491"><ele>137.0</ele><time>2026-04-26T10:09:11Z</time></trkpt><trkpt lat="40.891449537284636" lon="8.749009729686696"><ele>137.33333333333331</ele><time>2026-04-26T10:09:12Z</time></trkpt><trkpt lat="40.89141441018528" lon="8.74873006300149"><ele>137.66666666666666</ele><time>2026-04-26T10:09:13Z</time></trkpt><trkpt lat="40.8913551146427" lon="8.74845297503804"><ele>138.0</ele><time>2026-04-26T10:09:14Z</time></trkpt><trkpt lat="40.89129020851276" lon="8.74819789499097"><ele>138.33333333333334</ele><time>2026-04-26T10:09:15Z</time></trkpt><trkpt lat="40.89122058418104" lon="8.747960961702455"><ele>138.66666666666669</ele><time>2026-04-26T10:09:16Z</time></trkpt><trkpt lat="40.89113059372917" lon="8.747741348907914"><ele>139.0</ele><time>2026-04-26T10:09:17Z</time></trkpt><trkpt lat="40.89106855657538" lon="8.747508728000634"><ele>140.0</ele><time>2026-04-26T10:09:18Z</time></trkpt><trkpt lat="40.89098554583784" lon="8.747288878171386"><ele>141.0</ele><time>2026-04-26T10:09:19Z</time></trkpt><trkpt lat="40.890893757486026" lon="8.747076157184491"><ele>142.0</ele><time>2026-04-26T10:09:20Z</time></trkpt><trkpt lat="40.89078011331256" lon="8.7468700245046"><ele>144.66666666666669</ele><time>2026-04-26T10:09:21Z</time></trkpt><trkpt lat="40.89067248947861" lon="8.746649853087515"><ele>147.33333333333334</ele><time>2026-04-26T10:09:22Z</time></trkpt><trkpt lat="40.890572567218925" lon="8.74646200516119"><ele>150.0</ele><time>2026-04-26T10:09:23Z</time></trkpt><trkpt lat="40.89048320120366" lon="8.746312173443128"><ele>150.0</ele><time>2026-04-26T10:09:24Z</time></trkpt><trkpt lat="40.89040800934698" lon="8.74618522185294"><ele>150.0</ele><time>2026-04-26T10:09:25Z</time></trkpt><trkpt lat="40.89033537184527" lon="8.746068492692133"><ele>150.0</ele><time>2026-04-26T10:09:26Z</time></trkpt><trkpt lat="40.890264194352646" lon="8.745963060479939"><ele>150.0</ele><time>2026-04-26T10:09:27Z</time></trkpt><trkpt lat="40.89019097786201" lon="8.745863333602442"><ele>150.0</ele><time>2026-04-26T10:09:28Z</time></trkpt><trkpt lat="40.89012452171345" lon="8.745747957662688"><ele>155.2</ele><time>2026-04-26T10:09:29Z</time></trkpt><trkpt lat="40.89005466396935" lon="8.745634463236499"><ele>160.4</ele><time>2026-04-26T10:09:30Z</time></trkpt><trkpt lat="40.8899821345773" lon="8.745516863581374"><ele>165.60000000000002</ele><time>2026-04-26T10:09:31.021Z</time></trkpt><trkpt lat="40.88991140513551" lon="8.74540289320022"><ele>170.8</ele><time>2026-04-26T10:09:32.022Z</time></trkpt><trkpt lat="40.889843235756395" lon="8.745291339585668"><ele>176.0</ele><time>2026-04-26T10:09:33.022Z</time></trkpt><trkpt lat="40.889776022091525" lon="8.74518530937464"><ele>176.4</ele><time>2026-04-26T10:09:34.022Z</time></trkpt><trkpt lat="40.889708726967335" lon="8.7450884819537"><ele>176.8</ele><time>2026-04-26T10:09:35.018Z</time></trkpt><trkpt lat="40.88963683442865" lon="8.744979327084566"><ele>177.20000000000002</ele><time>2026-04-26T10:09:36.017Z</time></trkpt><trkpt lat="40.88955728990674" lon="8.74485848652898"><ele>177.60000000000002</ele><time>2026-04-26T10:09:37.021Z</time></trkpt><trkpt lat="40.88947618824286" lon="8.74474282091085"><ele>178.0</ele><time>2026-04-26T10:09:38.019Z</time></trkpt><trkpt lat="40.888184309043815" lon="8.742859186612762"><ele>175.33333333333334</ele><time>2026-04-26T10:09:49Z</time></trkpt><trkpt lat="40.88807367761389" lon="8.742690189155722"><ele>172.66666666666666</ele><time>2026-04-26T10:09:50Z</time></trkpt><trkpt lat="40.887953765969414" lon="8.742474086363128"><ele>170.0</ele><time>2026-04-26T10:09:51Z</time></trkpt><trkpt lat="40.88783721401409" lon="8.742296560017712"><ele>170.0</ele><time>2026-04-26T10:09:52Z</time></trkpt><trkpt lat="40.8877338820672" lon="8.742119825974388"><ele>170.0</ele><time>2026-04-26T10:09:53Z</time></trkpt><trkpt lat="40.8876440214141" lon="8.74194931593901"><ele>170.0</ele><time>2026-04-26T10:09:54Z</time></trkpt><trkpt lat="40.88755944489176" lon="8.74176494895737"><ele>165.33333333333331</ele><time>2026-04-26T10:09:55Z</time></trkpt><trkpt lat="40.887463121478234" lon="8.741591845126344"><ele>160.66666666666666</ele><time>2026-04-26T10:09:56Z</time></trkpt><trkpt lat="40.88737780564923" lon="8.741397653265738"><ele>156.0</ele><time>2026-04-26T10:09:57Z</time></trkpt><trkpt lat="40.8873087503916" lon="8.741185597420769"><ele>154.66666666666666</ele><time>2026-04-26T10:09:58Z</time></trkpt><trkpt lat="40.88722734061598" lon="8.740975652378925"><ele>153.33333333333331</ele><time>2026-04-26T10:09:59Z</time></trkpt><trkpt lat="40.887152237451275" lon="8.740753621908713"><ele>152.0</ele><time>2026-04-26T10:10:00Z</time></trkpt><trkpt lat="40.88708218961592" lon="8.740523657660981"><ele>152.0</ele><time>2026-04-26T10:10:01Z</time></trkpt><trkpt lat="40.88701675137807" lon="8.74028534161446"><ele>152.0</ele><time>2026-04-26T10:10:02Z</time></trkpt><trkpt lat="40.88695552516868" lon="8.74003902500311"><ele>152.0</ele><time>2026-04-26T10:10:03Z</time></trkpt><trkpt lat="40.88690154959646" lon="8.739785955138611"><ele>152.33333333333331</ele><time>2026-04-26T10:10:04Z</time></trkpt><trkpt lat="40.88685218321673" lon="8.7395236758039"><ele>152.66666666666666</ele><time>2026-04-26T10:10:05Z</time></trkpt><trkpt lat="40.88680335128614" lon="8.73925306652218"><ele>153.0</ele><time>2026-04-26T10:10:06Z</time></trkpt><trkpt lat="40.88674113742664" lon="8.73898340580692"><ele>149.66666666666666</ele><time>2026-04-26T10:10:07Z</time></trkpt><trkpt lat="40.88669521874801" lon="8.738705022243067"><ele>146.33333333333331</ele><time>2026-04-26T10:10:08Z</time></trkpt><trkpt lat="40.88664953278016" lon="8.738425729290622"><ele>143.0</ele><time>2026-04-26T10:10:09Z</time></trkpt><trkpt lat="40.88660103956873" lon="8.738140276534608"><ele>143.0</ele><time>2026-04-26T10:10:10Z</time></trkpt><trkpt lat="40.88655478637189" lon="8.737856803475768"><ele>143.0</ele><time>2026-04-26T10:10:11Z</time></trkpt><trkpt lat="40.886530324446404" lon="8.737574700116504"><ele>143.0</ele><time>2026-04-26T10:10:12Z</time></trkpt><trkpt lat="40.88650761895906" lon="8.737302741162459"><ele>141.66666666666666</ele><time>2026-04-26T10:10:13Z</time></trkpt><trkpt lat="40.886505749288226" lon="8.737024126000568"><ele>140.33333333333334</ele><time>2026-04-26T10:10:14Z</time></trkpt><trkpt lat="40.88652251918655" lon="8.736745787317744"><ele>139.0</ele><time>2026-04-26T10:10:15Z</time></trkpt><trkpt lat="40.88655492289873" lon="8.736470871404356"><ele>137.33333333333334</ele><time>2026-04-26T10:10:16Z</time></trkpt><trkpt lat="40.88660697176446" lon="8.736190654677227"><ele>135.66666666666666</ele><time>2026-04-26T10:10:17Z</time></trkpt><trkpt lat="40.88666065148084" lon="8.73589447618541"><ele>134.0</ele><time>2026-04-26T10:10:18Z</time></trkpt><trkpt lat="40.886765808497785" lon="8.735609402171276"><ele>130.5</ele><time>2026-04-26T10:10:19Z</time></trkpt><trkpt lat="40.88685761131014" lon="8.735323124412822"><ele>127.0</ele><time>2026-04-26T10:10:20Z</time></trkpt><trkpt lat="40.886935311378956" lon="8.735037553652905"><ele>126.5</ele><time>2026-04-26T10:10:21Z</time></trkpt><trkpt lat="40.887028035589125" lon="8.73475577183439"><ele>126.0</ele><time>2026-04-26T10:10:22Z</time></trkpt><trkpt lat="40.887115858872825" lon="8.734478300021634"><ele>121.5</ele><time>2026-04-26T10:10:23Z</time></trkpt><trkpt lat="40.887205134443995" lon="8.734194201893365"><ele>117.0</ele><time>2026-04-26T10:10:24Z</time></trkpt><trkpt lat="40.88729294061621" lon="8.733913894792007"><ele>117.0</ele><time>2026-04-26T10:10:25Z</time></trkpt><trkpt lat="40.887378692327665" lon="8.733639125217467"><ele>117.0</ele><time>2026-04-26T10:10:26Z</time></trkpt><trkpt lat="40.88747694160714" lon="8.733385621693708"><ele>117.0</ele><time>2026-04-26T10:10:27Z</time></trkpt><trkpt lat="40.88755291146517" lon="8.733147423037446"><ele>115.0</ele><time>2026-04-26T10:10:28Z</time></trkpt><trkpt lat="40.887627046401" lon="8.732912779674036"><ele>113.0</ele><time>2026-04-26T10:10:29Z</time></trkpt><trkpt lat="40.88769907359992" lon="8.732686072782053"><ele>111.0</ele><time>2026-04-26T10:10:30Z</time></trkpt><trkpt lat="40.88775676604903" lon="8.732448603589017"><ele>109.33333333333334</ele><time>2026-04-26T10:10:31Z</time></trkpt><trkpt lat="40.88783526869576" lon="8.732209672258804"><ele>107.66666666666667</ele><time>2026-04-26T10:10:32Z</time></trkpt><trkpt lat="40.887911976574266" lon="8.731958127411563"><ele>106.0</ele><time>2026-04-26T10:10:33Z</time></trkpt><trkpt lat="40.887977618168144" lon="8.731696774669206"><ele>106.0</ele><time>2026-04-26T10:10:34Z</time></trkpt><trkpt lat="40.888028518914936" lon="8.731430314715338"><ele>106.0</ele><time>2026-04-26T10:10:35Z</time></trkpt><trkpt lat="40.8880620856146" lon="8.731147804061344"><ele>106.0</ele><time>2026-04-26T10:10:36Z</time></trkpt><trkpt lat="40.888075206510024" lon="8.730858294569904"><ele>105.5</ele><time>2026-04-26T10:10:37Z</time></trkpt><trkpt lat="40.888069921831395" lon="8.730557128082308"><ele>105.0</ele><time>2026-04-26T10:10:38Z</time></trkpt><trkpt lat="40.88804645919165" lon="8.730255737903201"><ele>103.0</ele><time>2026-04-26T10:10:39Z</time></trkpt><trkpt lat="40.888007254557884" lon="8.729959429623921"><ele>101.0</ele><time>2026-04-26T10:10:40Z</time></trkpt><trkpt lat="40.88795169244285" lon="8.729686172335832"><ele>99.0</ele><time>2026-04-26T10:10:41Z</time></trkpt><trkpt lat="40.887880038404695" lon="8.729427103017708"><ele>97.33333333333333</ele><time>2026-04-26T10:10:42Z</time></trkpt><trkpt lat="40.88778960523188" lon="8.729171104201567"><ele>95.66666666666666</ele><time>2026-04-26T10:10:43Z</time></trkpt><trkpt lat="40.88767783341372" lon="8.728910158920275"><ele>94.0</ele><time>2026-04-26T10:10:44Z</time></trkpt><trkpt lat="40.88755144000846" lon="8.728638130540046"><ele>97.0</ele><time>2026-04-26T10:10:45Z</time></trkpt><trkpt lat="40.887424474983725" lon="8.728358476885948"><ele>100.0</ele><time>2026-04-26T10:10:46Z</time></trkpt><trkpt lat="40.887303904255745" lon="8.728082899636272"><ele>100.0</ele><time>2026-04-26T10:10:47Z</time></trkpt><trkpt lat="40.88720142622984" lon="8.727819108635131"><ele>100.0</ele><time>2026-04-26T10:10:48Z</time></trkpt><trkpt lat="40.887112670271016" lon="8.727543811888978"><ele>97.5</ele><time>2026-04-26T10:10:49Z</time></trkpt><trkpt lat="40.887045613726684" lon="8.727254016892328"><ele>95.0</ele><time>2026-04-26T10:10:50Z</time></trkpt><trkpt lat="40.886978351117364" lon="8.726966942559859"><ele>93.0</ele><time>2026-04-26T10:10:51Z</time></trkpt><trkpt lat="40.88692282078289" lon="8.726664617975434"><ele>91.0</ele><time>2026-04-26T10:10:52Z</time></trkpt><trkpt lat="40.886876833555505" lon="8.726367631236618"><ele>91.0</ele><time>2026-04-26T10:10:53Z</time></trkpt><trkpt lat="40.88684205645939" lon="8.726084721155619"><ele>91.0</ele><time>2026-04-26T10:10:54Z</time></trkpt><trkpt lat="40.88681810883587" lon="8.72578665406886"><ele>91.0</ele><time>2026-04-26T10:10:55Z</time></trkpt><trkpt lat="40.88680470130168" lon="8.725484939844735"><ele>87.0</ele><time>2026-04-26T10:10:56Z</time></trkpt><trkpt lat="40.88680030354856" lon="8.725180705680295"><ele>83.0</ele><time>2026-04-26T10:10:57Z</time></trkpt><trkpt lat="40.886805252318425" lon="8.724873298695309"><ele>83.0</ele><time>2026-04-26T10:10:58Z</time></trkpt><trkpt lat="40.88680704354618" lon="8.724571918067003"><ele>83.0</ele><time>2026-04-26T10:10:59Z</time></trkpt><trkpt lat="40.886837472170356" lon="8.724285624925058"><ele>83.0</ele><time>2026-04-26T10:11:00Z</time></trkpt><trkpt lat="40.8868789814423" lon="8.724006973179723"><ele>82.0</ele><time>2026-04-26T10:11:01Z</time></trkpt><trkpt lat="40.88693373104713" lon="8.72372089481312"><ele>81.0</ele><time>2026-04-26T10:11:02Z</time></trkpt><trkpt lat="40.88700120026986" lon="8.723423342831074"><ele>83.0</ele><time>2026-04-26T10:11:03Z</time></trkpt><trkpt lat="40.88708243359606" lon="8.723127733598192"><ele>85.0</ele><time>2026-04-26T10:11:04Z</time></trkpt><trkpt lat="40.8871854026609" lon="8.722833577917237"><ele>88.5</ele><time>2026-04-26T10:11:05Z</time></trkpt><trkpt lat="40.88729625244032" lon="8.72254509121104"><ele>92.0</ele><time>2026-04-26T10:11:06Z</time></trkpt><trkpt lat="40.887417692562074" lon="8.722254098881436"><ele>92.0</ele><time>2026-04-26T10:11:07Z</time></trkpt><trkpt lat="40.887548476466286" lon="8.7219622991401"><ele>92.0</ele><time>2026-04-26T10:11:08Z</time></trkpt><trkpt lat="40.88768744628143" lon="8.721669821267561"><ele>93.0</ele><time>2026-04-26T10:11:09Z</time></trkpt><trkpt lat="40.887829202909366" lon="8.721366188596837"><ele>94.0</ele><time>2026-04-26T10:11:10Z</time></trkpt><trkpt lat="40.887970374040655" lon="8.721058708255438"><ele>94.0</ele><time>2026-04-26T10:11:11Z</time></trkpt><trkpt lat="40.88810744805102" lon="8.720760593430487"><ele>94.0</ele><time>2026-04-26T10:11:12Z</time></trkpt><trkpt lat="40.8882349212525" lon="8.720480666697853"><ele>93.0</ele><time>2026-04-26T10:11:13Z</time></trkpt><trkpt lat="40.88835465399749" lon="8.72021529462322"><ele>92.0</ele><time>2026-04-26T10:11:14Z</time></trkpt><trkpt lat="40.88846960656533" lon="8.71996039255123"><ele>87.33333333333334</ele><time>2026-04-26T10:11:15Z</time></trkpt><trkpt lat="40.88858363868121" lon="8.719709821799148"><ele>82.66666666666667</ele><time>2026-04-26T10:11:16Z</time></trkpt><trkpt lat="40.88869935932304" lon="8.719457924853064"><ele>78.0</ele><time>2026-04-26T10:11:17Z</time></trkpt><trkpt lat="40.88882075328253" lon="8.71920914864017"><ele>78.0</ele><time>2026-04-26T10:11:18Z</time></trkpt><trkpt lat="40.88894518032347" lon="8.718972766907257"><ele>78.0</ele><time>2026-04-26T10:11:19Z</time></trkpt><trkpt lat="40.88906800273935" lon="8.71875039750058"><ele>78.0</ele><time>2026-04-26T10:11:20Z</time></trkpt><trkpt lat="40.8891937437932" lon="8.718533238151947"><ele>75.0</ele><time>2026-04-26T10:11:21Z</time></trkpt><trkpt lat="40.88932694040824" lon="8.718318131127303"><ele>72.0</ele><time>2026-04-26T10:11:22Z</time></trkpt><trkpt lat="40.889465565852355" lon="8.71810789143559"><ele>69.0</ele><time>2026-04-26T10:11:23Z</time></trkpt><trkpt lat="40.88960579861078" lon="8.717902191518132"><ele>72.66666666666667</ele><time>2026-04-26T10:11:24Z</time></trkpt><trkpt lat="40.8897456894082" lon="8.717698007227142"><ele>76.33333333333334</ele><time>2026-04-26T10:11:25Z</time></trkpt><trkpt lat="40.88988834723634" lon="8.71748699123092"><ele>80.0</ele><time>2026-04-26T10:11:26Z</time></trkpt><trkpt lat="40.89003270913097" lon="8.717269320702687"><ele>73.0</ele><time>2026-04-26T10:11:27Z</time></trkpt><trkpt lat="40.890177923935134" lon="8.717046849623662"><ele>66.0</ele><time>2026-04-26T10:11:28Z</time></trkpt><trkpt lat="40.89033264250311" lon="8.716813862200256"><ele>66.0</ele><time>2026-04-26T10:11:29Z</time></trkpt><trkpt lat="40.89049400171752" lon="8.716574347508612"><ele>66.0</ele><time>2026-04-26T10:11:30Z</time></trkpt><trkpt lat="40.89065254617926" lon="8.716341656785547"><ele>66.0</ele><time>2026-04-26T10:11:31Z</time></trkpt><trkpt lat="40.890800015200085" lon="8.716127082358394"><ele>66.0</ele><time>2026-04-26T10:11:32Z</time></trkpt><trkpt lat="40.89094013314742" lon="8.715924387762035"><ele>66.0</ele><time>2026-04-26T10:11:33Z</time></trkpt><trkpt lat="40.89107412014811" lon="8.715732781239732"><ele>67.0</ele><time>2026-04-26T10:11:34Z</time></trkpt><trkpt lat="40.89120155965901" lon="8.715545223822053"><ele>68.0</ele><time>2026-04-26T10:11:35Z</time></trkpt><trkpt lat="40.891324194190354" lon="8.715357182608797"><ele>69.0</ele><time>2026-04-26T10:11:36Z</time></trkpt><trkpt lat="40.89145333848617" lon="8.715165497453615"><ele>69.0</ele><time>2026-04-26T10:11:37Z</time></trkpt><trkpt lat="40.89158639977757" lon="8.71497004467639"><ele>69.0</ele><time>2026-04-26T10:11:38Z</time></trkpt><trkpt lat="40.89171761509787" lon="8.714767088901636"><ele>69.0</ele><time>2026-04-26T10:11:39Z</time></trkpt><trkpt lat="40.89184090579158" lon="8.714564338870348"><ele>66.33333333333333</ele><time>2026-04-26T10:11:40Z</time></trkpt><trkpt lat="40.891950893609874" lon="8.714356062234833"><ele>63.666666666666664</ele><time>2026-04-26T10:11:41Z</time></trkpt><trkpt lat="40.892053331727425" lon="8.714133600168378"><ele>61.0</ele><time>2026-04-26T10:11:42Z</time></trkpt><trkpt lat="40.89214149148852" lon="8.713900781308315"><ele>61.0</ele><time>2026-04-26T10:11:43Z</time></trkpt><trkpt lat="40.89221619311647" lon="8.713655659405626"><ele>61.0</ele><time>2026-04-26T10:11:44Z</time></trkpt><trkpt lat="40.8922746709527" lon="8.713407406593866"><ele>61.0</ele><time>2026-04-26T10:11:45Z</time></trkpt><trkpt lat="40.892320906091165" lon="8.713146502902697"><ele>62.33333333333333</ele><time>2026-04-26T10:11:46Z</time></trkpt><trkpt lat="40.89235085087935" lon="8.71287559157893"><ele>63.66666666666667</ele><time>2026-04-26T10:11:47Z</time></trkpt><trkpt lat="40.89237087659172" lon="8.712589043914598"><ele>65.0</ele><time>2026-04-26T10:11:48Z</time></trkpt><trkpt lat="40.89238086913273" lon="8.712308779718555"><ele>65.0</ele><time>2026-04-26T10:11:49Z</time></trkpt><trkpt lat="40.89239048996301" lon="8.712029752112299"><ele>65.0</ele><time>2026-04-26T10:11:50Z</time></trkpt><trkpt lat="40.89239982564911" lon="8.711746786602502"><ele>65.0</ele><time>2026-04-26T10:11:51Z</time></trkpt><trkpt lat="40.89241177271483" lon="8.711456363681203"><ele>63.333333333333336</ele><time>2026-04-26T10:11:52Z</time></trkpt><trkpt lat="40.892422762592986" lon="8.711169750977668"><ele>61.66666666666667</ele><time>2026-04-26T10:11:53Z</time></trkpt><trkpt lat="40.892435670921664" lon="8.71089944018967"><ele>60.0</ele><time>2026-04-26T10:11:54Z</time></trkpt><trkpt lat="40.89244821415764" lon="8.710642548551672"><ele>60.0</ele><time>2026-04-26T10:11:55Z</time></trkpt><trkpt lat="40.8924623363159" lon="8.710396732883783"><ele>60.0</ele><time>2026-04-26T10:11:56Z</time></trkpt><trkpt lat="40.89248044503084" lon="8.710159442935005"><ele>60.0</ele><time>2026-04-26T10:11:57Z</time></trkpt><trkpt lat="40.89249993954248" lon="8.709932381211306"><ele>59.0</ele><time>2026-04-26T10:11:58Z</time></trkpt><trkpt lat="40.89252131690459" lon="8.709713807297916"><ele>58.0</ele><time>2026-04-26T10:11:59Z</time></trkpt><trkpt lat="40.892538615210356" lon="8.709507053320827"><ele>57.0</ele><time>2026-04-26T10:12:00Z</time></trkpt><trkpt lat="40.89254675059953" lon="8.709307673698799"><ele>56.0</ele><time>2026-04-26T10:12:01Z</time></trkpt><trkpt lat="40.892561585661376" lon="8.709105086441483"><ele>55.0</ele><time>2026-04-26T10:12:02Z</time></trkpt><trkpt lat="40.89259413595353" lon="8.708911966133657"><ele>54.0</ele><time>2026-04-26T10:12:03Z</time></trkpt><trkpt lat="40.89264907805464" lon="8.708722526738711"><ele>56.33333333333333</ele><time>2026-04-26T10:12:04Z</time></trkpt><trkpt lat="40.89272799980449" lon="8.708555345351028"><ele>58.666666666666664</ele><time>2026-04-26T10:12:05Z</time></trkpt><trkpt lat="40.89283376650548" lon="8.708409751242854"><ele>61.0</ele><time>2026-04-26T10:12:06Z</time></trkpt><trkpt lat="40.89296744850504" lon="8.70826355367564"><ele>61.0</ele><time>2026-04-26T10:12:07Z</time></trkpt><trkpt lat="40.893100798762795" lon="8.708138132799512"><ele>61.0</ele><time>2026-04-26T10:12:08Z</time></trkpt><trkpt lat="40.8932291105818" lon="8.708052463341513"><ele>61.0</ele><time>2026-04-26T10:12:09Z</time></trkpt><trkpt lat="40.893366781879365" lon="8.708035356402009"><ele>61.0</ele><time>2026-04-26T10:12:10Z</time></trkpt><trkpt lat="40.89349803881096" lon="8.708035574732872"><ele>62.599999999999994</ele><time>2026-04-26T10:12:11Z</time></trkpt><trkpt lat="40.89362055086636" lon="8.708049218201284"><ele>64.19999999999999</ele><time>2026-04-26T10:12:12Z</time></trkpt><trkpt lat="40.893715207112436" lon="8.708108201564773"><ele>65.80000000000001</ele><time>2026-04-26T10:12:13Z</time></trkpt><trkpt lat="40.8937961950283" lon="8.708186892251081"><ele>67.4</ele><time>2026-04-26T10:12:14Z</time></trkpt><trkpt lat="40.89390116176699" lon="8.70825879572539"><ele>69.0</ele><time>2026-04-26T10:12:15Z</time></trkpt><trkpt lat="40.893974323880606" lon="8.70844970606988"><ele>67.33333333333333</ele><time>2026-04-26T10:12:16Z</time></trkpt><trkpt lat="40.89404437941173" lon="8.70863886853109"><ele>65.66666666666666</ele><time>2026-04-26T10:12:17Z</time></trkpt><trkpt lat="40.894108012938226" lon="8.708872429339197"><ele>64.0</ele><time>2026-04-26T10:12:18Z</time></trkpt><trkpt lat="40.89419034078682" lon="8.70910907012902"><ele>65.0</ele><time>2026-04-26T10:12:19Z</time></trkpt><trkpt lat="40.89429548618085" lon="8.70932441133972"><ele>66.0</ele><time>2026-04-26T10:12:20Z</time></trkpt><trkpt lat="40.894424625461724" lon="8.709530613059066"><ele>67.0</ele><time>2026-04-26T10:12:21Z</time></trkpt><trkpt lat="40.89457134283129" lon="8.709701577335704"><ele>67.0</ele><time>2026-04-26T10:12:22Z</time></trkpt><trkpt lat="40.89473143471857" lon="8.709844489077453"><ele>67.0</ele><time>2026-04-26T10:12:23Z</time></trkpt><trkpt lat="40.894902083569804" lon="8.709962157641458"><ele>67.0</ele><time>2026-04-26T10:12:24Z</time></trkpt><trkpt lat="40.89508800537078" lon="8.710048900927676"><ele>67.66666666666666</ele><time>2026-04-26T10:12:25Z</time></trkpt><trkpt lat="40.89528778008321" lon="8.710106370110271"><ele>68.33333333333333</ele><time>2026-04-26T10:12:26Z</time></trkpt><trkpt lat="40.895490431395636" lon="8.710132806305461"><ele>69.0</ele><time>2026-04-26T10:12:27Z</time></trkpt><trkpt lat="40.89568611670933" lon="8.71012232941886"><ele>69.0</ele><time>2026-04-26T10:12:28Z</time></trkpt><trkpt lat="40.89587704483611" lon="8.710075044503586"><ele>69.0</ele><time>2026-04-26T10:12:29Z</time></trkpt><trkpt lat="40.896069867301456" lon="8.709991513453119"><ele>69.0</ele><time>2026-04-26T10:12:30Z</time></trkpt><trkpt lat="40.896266580725865" lon="8.70987184489203"><ele>67.0</ele><time>2026-04-26T10:12:31Z</time></trkpt><trkpt lat="40.89645353798634" lon="8.709743363380118"><ele>65.0</ele><time>2026-04-26T10:12:32Z</time></trkpt><trkpt lat="40.89662999364299" lon="8.709644555067728"><ele>63.0</ele><time>2026-04-26T10:12:33Z</time></trkpt><trkpt lat="40.896816830515235" lon="8.70958794210463"><ele>61.33333333333333</ele><time>2026-04-26T10:12:34Z</time></trkpt><trkpt lat="40.89700231560321" lon="8.70957215164681"><ele>59.666666666666664</ele><time>2026-04-26T10:12:35Z</time></trkpt><trkpt lat="40.89719021286353" lon="8.70959039263531"><ele>58.0</ele><time>2026-04-26T10:12:36Z</time></trkpt><trkpt lat="40.89737519337782" lon="8.709646417030028"><ele>58.0</ele><time>2026-04-26T10:12:37Z</time></trkpt><trkpt lat="40.897541704392125" lon="8.709728685268724"><ele>58.0</ele><time>2026-04-26T10:12:38Z</time></trkpt><trkpt lat="40.89769755609466" lon="8.709811215592355"><ele>58.0</ele><time>2026-04-26T10:12:39Z</time></trkpt><trkpt lat="40.897863798175486" lon="8.709870358483402"><ele>57.666666666666664</ele><time>2026-04-26T10:12:40Z</time></trkpt><trkpt lat="40.898043390397014" lon="8.709891663045973"><ele>57.33333333333333</ele><time>2026-04-26T10:12:41Z</time></trkpt><trkpt lat="40.898229449805314" lon="8.70988828178149"><ele>57.0</ele><time>2026-04-26T10:12:42Z</time></trkpt><trkpt lat="40.89840635990643" lon="8.709858553373229"><ele>54.33333333333333</ele><time>2026-04-26T10:12:43Z</time></trkpt><trkpt lat="40.898571230283196" lon="8.709801853192609"><ele>51.666666666666664</ele><time>2026-04-26T10:12:44Z</time></trkpt><trkpt lat="40.898731561500014" lon="8.709719872088778"><ele>49.0</ele><time>2026-04-26T10:12:45Z</time></trkpt><trkpt lat="40.89888535143635" lon="8.709618677970688"><ele>49.0</ele><time>2026-04-26T10:12:46Z</time></trkpt><trkpt lat="40.899030472680955" lon="8.709503346259252"><ele>49.0</ele><time>2026-04-26T10:12:47Z</time></trkpt><trkpt lat="40.89917239280212" lon="8.709391656142662"><ele>49.0</ele><time>2026-04-26T10:12:48Z</time></trkpt><trkpt lat="40.899312492092804" lon="8.70928973396117"><ele>53.0</ele><time>2026-04-26T10:12:49Z</time></trkpt><trkpt lat="40.899455901708585" lon="8.709200192162436"><ele>57.0</ele><time>2026-04-26T10:12:50Z</time></trkpt><trkpt lat="40.89960996810547" lon="8.709136510556979"><ele>61.0</ele><time>2026-04-26T10:12:51Z</time></trkpt><trkpt lat="40.89977379819791" lon="8.70910716747276"><ele>61.0</ele><time>2026-04-26T10:12:52Z</time></trkpt><trkpt lat="40.89993647511265" lon="8.709097263374508"><ele>61.0</ele><time>2026-04-26T10:12:53Z</time></trkpt><trkpt lat="40.900097627150906" lon="8.709109017743481"><ele>61.0</ele><time>2026-04-26T10:12:54Z</time></trkpt><trkpt lat="40.90024836092595" lon="8.709132465002854"><ele>59.666666666666664</ele><time>2026-04-26T10:12:55Z</time></trkpt><trkpt lat="40.900396763958916" lon="8.709163142105197"><ele>58.33333333333333</ele><time>2026-04-26T10:12:56Z</time></trkpt><trkpt lat="40.90054480811929" lon="8.709195842403131"><ele>57.0</ele><time>2026-04-26T10:12:57Z</time></trkpt><trkpt lat="40.90069521848761" lon="8.709223426091594"><ele>57.0</ele><time>2026-04-26T10:12:58Z</time></trkpt><trkpt lat="40.900850443418484" lon="8.709224033883856"><ele>57.0</ele><time>2026-04-26T10:12:59Z</time></trkpt><trkpt lat="40.901009821762905" lon="8.709186475102092"><ele>57.0</ele><time>2026-04-26T10:13:00Z</time></trkpt><trkpt lat="40.90116339872204" lon="8.70910889440553"><ele>52.0</ele><time>2026-04-26T10:13:01Z</time></trkpt><trkpt lat="40.90130518469236" lon="8.708995121526252"><ele>47.0</ele><time>2026-04-26T10:13:02Z</time></trkpt><trkpt lat="40.90143404218363" lon="8.708853466429206"><ele>42.0</ele><time>2026-04-26T10:13:03Z</time></trkpt><trkpt lat="40.90154485314902" lon="8.708688786048613"><ele>46.0</ele><time>2026-04-26T10:13:04Z</time></trkpt><trkpt lat="40.9016321093553" lon="8.708510645950986"><ele>50.0</ele><time>2026-04-26T10:13:05Z</time></trkpt><trkpt lat="40.90169465975789" lon="8.708314746426295"><ele>54.0</ele><time>2026-04-26T10:13:06Z</time></trkpt><trkpt lat="40.9017403794217" lon="8.70810836963837"><ele>46.666666666666664</ele><time>2026-04-26T10:13:07Z</time></trkpt><trkpt lat="40.90178527681489" lon="8.707905988963812"><ele>39.33333333333333</ele><time>2026-04-26T10:13:08Z</time></trkpt><trkpt lat="40.901838815592555" lon="8.707711701519763"><ele>32.0</ele><time>2026-04-26T10:13:09Z</time></trkpt><trkpt lat="40.90190507165453" lon="8.70752581517803"><ele>32.0</ele><time>2026-04-26T10:13:10Z</time></trkpt><trkpt lat="40.90198449063677" lon="8.707342317607937"><ele>32.0</ele><time>2026-04-26T10:13:11Z</time></trkpt><trkpt lat="40.90207767030594" lon="8.707165730986846"><ele>32.0</ele><time>2026-04-26T10:13:12Z</time></trkpt><trkpt lat="40.902183973785185" lon="8.707003586056157"><ele>36.33333333333333</ele><time>2026-04-26T10:13:13Z</time></trkpt><trkpt lat="40.90230030751976" lon="8.706849512693259"><ele>40.666666666666664</ele><time>2026-04-26T10:13:14Z</time></trkpt><trkpt lat="40.90243467709593" lon="8.706727987920404"><ele>45.0</ele><time>2026-04-26T10:13:15Z</time></trkpt><trkpt lat="40.90256940093314" lon="8.706608476996157"><ele>40.0</ele><time>2026-04-26T10:13:16Z</time></trkpt><trkpt lat="40.90271120990447" lon="8.706498564286173"><ele>35.0</ele><time>2026-04-26T10:13:17Z</time></trkpt><trkpt lat="40.90284688508097" lon="8.706378990054175"><ele>30.0</ele><time>2026-04-26T10:13:18Z</time></trkpt><trkpt lat="40.90299690127848" lon="8.706277165233217"><ele>30.0</ele><time>2026-04-26T10:13:19Z</time></trkpt><trkpt lat="40.9031501149342" lon="8.706175306213993"><ele>30.0</ele><time>2026-04-26T10:13:20Z</time></trkpt><trkpt lat="40.90330625884563" lon="8.706068564530032"><ele>30.0</ele><time>2026-04-26T10:13:21Z</time></trkpt><trkpt lat="40.90346455727518" lon="8.705959300869681"><ele>30.0</ele><time>2026-04-26T10:13:22Z</time></trkpt><trkpt lat="40.90361761428954" lon="8.705853049236344"><ele>30.0</ele><time>2026-04-26T10:13:23Z</time></trkpt><trkpt lat="40.90376829499246" lon="8.705744326251432"><ele>30.0</ele><time>2026-04-26T10:13:24Z</time></trkpt><trkpt lat="40.903921099909816" lon="8.70563460078443"><ele>30.0</ele><time>2026-04-26T10:13:25Z</time></trkpt><trkpt lat="40.90406961333725" lon="8.705530650803645"><ele>30.0</ele><time>2026-04-26T10:13:26Z</time></trkpt><trkpt lat="40.90421207746791" lon="8.70543129108957"><ele>30.0</ele><time>2026-04-26T10:13:27Z</time></trkpt><trkpt lat="40.90433459560889" lon="8.705344296233433"><ele>30.0</ele><time>2026-04-26T10:13:28Z</time></trkpt><trkpt lat="40.90443218625785" lon="8.705275535021944"><ele>30.0</ele><time>2026-04-26T10:13:29Z</time></trkpt><trkpt lat="40.904514643044095" lon="8.705215727690572"><ele>30.0</ele><time>2026-04-26T10:13:30Z</time></trkpt><trkpt lat="40.904586747454815" lon="8.705162595287147"><ele>30.0</ele><time>2026-04-26T10:13:31Z</time></trkpt><trkpt lat="40.904663626954985" lon="8.705108337895494"><ele>30.0</ele><time>2026-04-26T10:13:32Z</time></trkpt><trkpt lat="40.904759961264666" lon="8.70504242105362"><ele>30.0</ele><time>2026-04-26T10:13:33Z</time></trkpt><trkpt lat="40.90488224334193" lon="8.704955240735098"><ele>30.0</ele><time>2026-04-26T10:13:34Z</time></trkpt><trkpt lat="40.90501341091714" lon="8.704866514054237"><ele>30.0</ele><time>2026-04-26T10:13:35Z</time></trkpt><trkpt lat="40.905136098450896" lon="8.70478819452384"><ele>30.0</ele><time>2026-04-26T10:13:36Z</time></trkpt><trkpt lat="40.90525754281193" lon="8.70472770944837"><ele>30.0</ele><time>2026-04-26T10:13:37Z</time></trkpt><trkpt lat="40.90538211815584" lon="8.704686206697417"><ele>30.0</ele><time>2026-04-26T10:13:38Z</time></trkpt><trkpt lat="40.905508343446584" lon="8.704668249140433"><ele>30.0</ele><time>2026-04-26T10:13:39Z</time></trkpt><trkpt lat="40.905640456805564" lon="8.704679904083957"><ele>30.0</ele><time>2026-04-26T10:13:40Z</time></trkpt><trkpt lat="40.90578076650841" lon="8.704722194718839"><ele>30.0</ele><time>2026-04-26T10:13:41Z</time></trkpt><trkpt lat="40.90591010971602" lon="8.704797440620007"><ele>30.0</ele><time>2026-04-26T10:13:42Z</time></trkpt><trkpt lat="40.90603589366721" lon="8.7048995859114"><ele>30.0</ele><time>2026-04-26T10:13:43Z</time></trkpt><trkpt lat="40.90616474248577" lon="8.705040445613305"><ele>29.666666666666664</ele><time>2026-04-26T10:13:44Z</time></trkpt><trkpt lat="40.906296114736165" lon="8.70521358669581"><ele>29.333333333333332</ele><time>2026-04-26T10:13:45Z</time></trkpt><trkpt lat="40.906413475254865" lon="8.70537905728725"><ele>29.0</ele><time>2026-04-26T10:13:46Z</time></trkpt><trkpt lat="40.906526738911865" lon="8.70553264775001"><ele>25.0</ele><time>2026-04-26T10:13:47Z</time></trkpt><trkpt lat="40.90663883993532" lon="8.705679737639265"><ele>21.0</ele><time>2026-04-26T10:13:48Z</time></trkpt><trkpt lat="40.90675094945534" lon="8.705824086127762"><ele>17.0</ele><time>2026-04-26T10:13:49Z</time></trkpt><trkpt lat="40.906862288601076" lon="8.705964311618382"><ele>14.333333333333334</ele><time>2026-04-26T10:13:50Z</time></trkpt><trkpt lat="40.9069766773325" lon="8.706095088847354"><ele>11.666666666666668</ele><time>2026-04-26T10:13:51Z</time></trkpt><trkpt lat="40.90710569274321" lon="8.706217880172767"><ele>9.0</ele><time>2026-04-26T10:13:52Z</time></trkpt><trkpt lat="40.907253589557094" lon="8.70633238139436"><ele>9.0</ele><time>2026-04-26T10:13:53Z</time></trkpt><trkpt lat="40.90741108392092" lon="8.706424735085779"><ele>9.0</ele><time>2026-04-26T10:13:54Z</time></trkpt><trkpt lat="40.90758269745067" lon="8.706499252757492"><ele>9.0</ele><time>2026-04-26T10:13:55Z</time></trkpt><trkpt lat="40.90774893812846" lon="8.706547527184016"><ele>8.666666666666666</ele><time>2026-04-26T10:13:56Z</time></trkpt><trkpt lat="40.90791751205402" lon="8.706570054469642"><ele>8.333333333333332</ele><time>2026-04-26T10:13:57Z</time></trkpt><trkpt lat="40.9080808239196" lon="8.706573571785007"><ele>8.0</ele><time>2026-04-26T10:13:58Z</time></trkpt><trkpt lat="40.908239216929246" lon="8.706555249791636"><ele>8.0</ele><time>2026-04-26T10:13:59Z</time></trkpt><trkpt lat="40.908393521283394" lon="8.706516714737692"><ele>8.0</ele><time>2026-04-26T10:14:00Z</time></trkpt><trkpt lat="40.908555405049995" lon="8.706461628745636"><ele>8.0</ele><time>2026-04-26T10:14:01Z</time></trkpt><trkpt lat="40.90871783088563" lon="8.706391126444798"><ele>8.666666666666666</ele><time>2026-04-26T10:14:02Z</time></trkpt><trkpt lat="40.90888232738824" lon="8.70632252246524"><ele>9.333333333333334</ele><time>2026-04-26T10:14:03Z</time></trkpt><trkpt lat="40.909041459269375" lon="8.70627342536276"><ele>10.0</ele><time>2026-04-26T10:14:04Z</time></trkpt><trkpt lat="40.90919414576081" lon="8.706242810938518"><ele>11.0</ele><time>2026-04-26T10:14:05Z</time></trkpt><trkpt lat="40.90933880679959" lon="8.70623274039864"><ele>12.0</ele><time>2026-04-26T10:14:06Z</time></trkpt><trkpt lat="40.90945892759667" lon="8.706244117564758"><ele>13.0</ele><time>2026-04-26T10:14:07Z</time></trkpt><trkpt lat="40.90957158903106" lon="8.706257836370638"><ele>14.0</ele><time>2026-04-26T10:14:08Z</time></trkpt><trkpt lat="40.909675468121904" lon="8.70624397047336"><ele>14.0</ele><time>2026-04-26T10:14:09Z</time></trkpt><trkpt lat="40.909772038889614" lon="8.706177064776949"><ele>13.999999999999998</ele><time>2026-04-26T10:14:10Z</time></trkpt><trkpt lat="40.90985729334575" lon="8.706082156981095"><ele>13.999999999999998</ele><time>2026-04-26T10:14:11Z</time></trkpt><trkpt lat="40.909911927573" lon="8.705976936167575"><ele>14.0</ele><time>2026-04-26T10:14:12Z</time></trkpt><trkpt lat="40.909961223478525" lon="8.705886716762837"><ele>14.0</ele><time>2026-04-26T10:14:13Z</time></trkpt><trkpt lat="40.9100143339396" lon="8.705813440980986"><ele>12.500000000000002</ele><time>2026-04-26T10:14:14Z</time></trkpt><trkpt lat="40.910073533447196" lon="8.70577090168776"><ele>11.0</ele><time>2026-04-26T10:14:15Z</time></trkpt><trkpt lat="40.91013790222167" lon="8.705767701103198"><ele>9.5</ele><time>2026-04-26T10:14:16Z</time></trkpt><trkpt lat="40.91021371967087" lon="8.705762519075586"><ele>8.0</ele><time>2026-04-26T10:14:18Z</time></trkpt><trkpt lat="40.91029532436329" lon="8.705787895594788"><ele>6.5</ele><time>2026-04-26T10:14:37Z</time></trkpt><trkpt lat="40.910381080225946" lon="8.705853462488227"><ele>5.0</ele><time>2026-04-26T10:14:39Z</time></trkpt><trkpt lat="40.91044239679995" lon="8.705880633739078"><ele>4.6</ele><time>2026-04-26T10:14:41Z</time></trkpt><trkpt lat="40.910537959581625" lon="8.70563277383849"><ele>4.2</ele><time>2026-04-26T10:14:43Z</time></trkpt><trkpt lat="40.910555179570544" lon="8.705530766378134"><ele>3.8</ele><time>2026-04-26T10:14:44Z</time></trkpt><trkpt lat="40.91056971371106" lon="8.705424634634378"><ele>3.4</ele><time>2026-04-26T10:14:45Z</time></trkpt><trkpt lat="40.910583933657115" lon="8.705328411058153"><ele>3.0</ele><time>2026-04-26T10:14:46Z</time></trkpt><trkpt lat="40.910600705732236" lon="8.70522615225742"><ele>3.0</ele><time>2026-04-26T10:14:47Z</time></trkpt><trkpt lat="40.91063134099731" lon="8.705116459479255"><ele>3.0</ele><time>2026-04-26T10:14:48Z</time></trkpt><trkpt lat="40.91068004425508" lon="8.705008227977183"><ele>3.0</ele><time>2026-04-26T10:14:49Z</time></trkpt><trkpt lat="40.910731244834345" lon="8.704901875143745"><ele>3.0</ele><time>2026-04-26T10:14:50Z</time></trkpt><trkpt lat="40.910783949303976" lon="8.704796479240665"><ele>3.0</ele><time>2026-04-26T10:14:51Z</time></trkpt><trkpt lat="40.9108394838361" lon="8.704680958720765"><ele>3.0</ele><time>2026-04-26T10:14:52Z</time></trkpt><trkpt lat="40.91090494455278" lon="8.704546005663968"><ele>3.0</ele><time>2026-04-26T10:14:53Z</time></trkpt><trkpt lat="40.91097596167177" lon="8.704402468785416"><ele>3.0</ele><time>2026-04-26T10:14:54Z</time></trkpt><trkpt lat="40.91104767297072" lon="8.704250856004666"><ele>3.0</ele><time>2026-04-26T10:14:55Z</time></trkpt><trkpt lat="40.911116758553305" lon="8.704092072585143"><ele>3.0</ele><time>2026-04-26T10:14:56Z</time></trkpt><trkpt lat="40.91118165295229" lon="8.703938652470779"><ele>3.0</ele><time>2026-04-26T10:14:57Z</time></trkpt><trkpt lat="40.91124166189664" lon="8.703792819055794"><ele>3.0</ele><time>2026-04-26T10:14:58Z</time></trkpt><trkpt lat="40.91130056450513" lon="8.70364134267653"><ele>3.0</ele><time>2026-04-26T10:14:59Z</time></trkpt><trkpt lat="40.91136200282287" lon="8.703489364413928"><ele>3.0</ele><time>2026-04-26T10:15:00Z</time></trkpt><trkpt lat="40.91142917441204" lon="8.703333080708282"><ele>3.0</ele><time>2026-04-26T10:15:01Z</time></trkpt><trkpt lat="40.9114958079494" lon="8.703172554615614"><ele>3.0</ele><time>2026-04-26T10:15:02Z</time></trkpt><trkpt lat="40.91156012735088" lon="8.70300744167489"><ele>3.0</ele><time>2026-04-26T10:15:03Z</time></trkpt><trkpt lat="40.9116197837539" lon="8.702844111285208"><ele>4.75</ele><time>2026-04-26T10:15:04Z</time></trkpt><trkpt lat="40.911675845659474" lon="8.70267688280999"><ele>6.5</ele><time>2026-04-26T10:15:05Z</time></trkpt><trkpt lat="40.911709682294166" lon="8.702495822572958"><ele>8.25</ele><time>2026-04-26T10:15:06Z</time></trkpt><trkpt lat="40.911725173891575" lon="8.702298865190782"><ele>10.0</ele><time>2026-04-26T10:15:07Z</time></trkpt><trkpt lat="40.91171772541534" lon="8.70207396365013"><ele>10.5</ele><time>2026-04-26T10:15:08Z</time></trkpt><trkpt lat="40.91170356254608" lon="8.701856703369488"><ele>11.0</ele><time>2026-04-26T10:15:09Z</time></trkpt><trkpt lat="40.911693743624404" lon="8.701668652882079"><ele>11.5</ele><time>2026-04-26T10:15:10Z</time></trkpt><trkpt lat="40.911690334761325" lon="8.70149378737507"><ele>12.0</ele><time>2026-04-26T10:15:11Z</time></trkpt><trkpt lat="40.91168625340117" lon="8.701322532370325"><ele>12.0</ele><time>2026-04-26T10:15:12Z</time></trkpt><trkpt lat="40.91168099448177" lon="8.701157068650145"><ele>12.0</ele><time>2026-04-26T10:15:13Z</time></trkpt><trkpt lat="40.911681276818314" lon="8.700995337185017"><ele>12.0</ele><time>2026-04-26T10:15:14Z</time></trkpt><trkpt lat="40.9116836173693" lon="8.700830553199445"><ele>12.0</ele><time>2026-04-26T10:15:15Z</time></trkpt><trkpt lat="40.911682432170615" lon="8.700660289982682"><ele>14.25</ele><time>2026-04-26T10:15:16Z</time></trkpt><trkpt lat="40.9116866977473" lon="8.700486968044627"><ele>16.5</ele><time>2026-04-26T10:15:17Z</time></trkpt><trkpt lat="40.91169356527305" lon="8.700310829620802"><ele>18.75</ele><time>2026-04-26T10:15:18Z</time></trkpt><trkpt lat="40.9117008710962" lon="8.700132842408097"><ele>21.0</ele><time>2026-04-26T10:15:19Z</time></trkpt><trkpt lat="40.91171017010405" lon="8.699933412460254"><ele>22.333333333333336</ele><time>2026-04-26T10:15:20Z</time></trkpt><trkpt lat="40.911740056152446" lon="8.699706550884756"><ele>23.666666666666668</ele><time>2026-04-26T10:15:21Z</time></trkpt><trkpt lat="40.911753464308084" lon="8.699498571131917"><ele>25.0</ele><time>2026-04-26T10:15:22Z</time></trkpt><trkpt lat="40.911758648525776" lon="8.699312085611115"><ele>19.75</ele><time>2026-04-26T10:15:23Z</time></trkpt><trkpt lat="40.91178542226218" lon="8.69914296301844"><ele>14.5</ele><time>2026-04-26T10:15:24Z</time></trkpt><trkpt lat="40.9118140297983" lon="8.698975869503585"><ele>9.25</ele><time>2026-04-26T10:15:25Z</time></trkpt><trkpt lat="40.91184950683662" lon="8.698814172593114"><ele>4.0</ele><time>2026-04-26T10:15:26Z</time></trkpt><trkpt lat="40.911883075738494" lon="8.69864985441132"><ele>5.5</ele><time>2026-04-26T10:15:27Z</time></trkpt><trkpt lat="40.91191892958971" lon="8.698479036786267"><ele>7.0</ele><time>2026-04-26T10:15:28Z</time></trkpt><trkpt lat="40.911960141088755" lon="8.698295745218976"><ele>8.5</ele><time>2026-04-26T10:15:29Z</time></trkpt><trkpt lat="40.91200173882579" lon="8.698101213702948"><ele>10.0</ele><time>2026-04-26T10:15:30Z</time></trkpt><trkpt lat="40.91203896825669" lon="8.697919070017516"><ele>11.0</ele><time>2026-04-26T10:15:31Z</time></trkpt><trkpt lat="40.91207459665838" lon="8.697749019221254"><ele>12.0</ele><time>2026-04-26T10:15:32Z</time></trkpt><trkpt lat="40.91211118614624" lon="8.697592058341552"><ele>13.0</ele><time>2026-04-26T10:15:33Z</time></trkpt><trkpt lat="40.91215365807655" lon="8.697448951812204"><ele>14.0</ele><time>2026-04-26T10:15:34Z</time></trkpt><trkpt lat="40.9121985943432" lon="8.697315686050278"><ele>14.0</ele><time>2026-04-26T10:15:35Z</time></trkpt><trkpt lat="40.91224568666727" lon="8.697175191126696"><ele>14.0</ele><time>2026-04-26T10:15:36Z</time></trkpt><trkpt lat="40.91229686798782" lon="8.697032317916875"><ele>14.0</ele><time>2026-04-26T10:15:37Z</time></trkpt><trkpt lat="40.91234014341439" lon="8.696893948758765"><ele>14.0</ele><time>2026-04-26T10:15:38Z</time></trkpt><trkpt lat="40.91237834375883" lon="8.696763807824212"><ele>15.399999999999999</ele><time>2026-04-26T10:15:39Z</time></trkpt><trkpt lat="40.91240533524044" lon="8.696627298024334"><ele>16.799999999999997</ele><time>2026-04-26T10:15:40Z</time></trkpt><trkpt lat="40.91241062682063" lon="8.696488600775227"><ele>18.200000000000003</ele><time>2026-04-26T10:15:41Z</time></trkpt><trkpt lat="40.91237568690139" lon="8.696352384800983"><ele>19.6</ele><time>2026-04-26T10:15:42Z</time></trkpt><trkpt lat="40.91231286612553" lon="8.696222325215807"><ele>21.0</ele><time>2026-04-26T10:15:43Z</time></trkpt><trkpt lat="40.91223711165182" lon="8.6960953283693"><ele>19.5</ele><time>2026-04-26T10:15:44Z</time></trkpt><trkpt lat="40.91215550038398" lon="8.695970702297057"><ele>18.0</ele><time>2026-04-26T10:15:45Z</time></trkpt><trkpt lat="40.91207040384758" lon="8.695839766130206"><ele>16.5</ele><time>2026-04-26T10:15:46Z</time></trkpt><trkpt lat="40.911981876718905" lon="8.695701957026175"><ele>15.0</ele><time>2026-04-26T10:15:47Z</time></trkpt><trkpt lat="40.91189351643036" lon="8.695561296099626"><ele>15.0</ele><time>2026-04-26T10:15:48Z</time></trkpt><trkpt lat="40.91180629008427" lon="8.695426991102751"><ele>15.0</ele><time>2026-04-26T10:15:49Z</time></trkpt><trkpt lat="40.91172186203895" lon="8.695298927374795"><ele>15.0</ele><time>2026-04-26T10:15:50Z</time></trkpt><trkpt lat="40.911636455159744" lon="8.69517271515803"><ele>15.0</ele><time>2026-04-26T10:15:51Z</time></trkpt><trkpt lat="40.91153594685312" lon="8.695061904902587"><ele>17.333333333333332</ele><time>2026-04-26T10:15:52Z</time></trkpt><trkpt lat="40.91141229958826" lon="8.694954122295357"><ele>19.666666666666664</ele><time>2026-04-26T10:15:53Z</time></trkpt><trkpt lat="40.91126116107933" lon="8.694845085499885"><ele>22.0</ele><time>2026-04-26T10:15:54Z</time></trkpt><trkpt lat="40.91110879295592" lon="8.69474633555451"><ele>22.0</ele><time>2026-04-26T10:15:55Z</time></trkpt><trkpt lat="40.910963911267594" lon="8.694653461156767"><ele>22.0</ele><time>2026-04-26T10:15:56Z</time></trkpt><trkpt lat="40.9108203388668" lon="8.69456276628441"><ele>22.0</ele><time>2026-04-26T10:15:57Z</time></trkpt><trkpt lat="40.9106818248391" lon="8.694474023911383"><ele>21.666666666666664</ele><time>2026-04-26T10:15:58Z</time></trkpt><trkpt lat="40.91054359648924" lon="8.694386109353406"><ele>21.333333333333332</ele><time>2026-04-26T10:15:59Z</time></trkpt><trkpt lat="40.910405420785445" lon="8.694299935909802"><ele>21.0</ele><time>2026-04-26T10:16:00Z</time></trkpt><trkpt lat="40.910270292054385" lon="8.69421398142924"><ele>21.0</ele><time>2026-04-26T10:16:01Z</time></trkpt><trkpt lat="40.9101421936171" lon="8.694117029272869"><ele>21.0</ele><time>2026-04-26T10:16:02Z</time></trkpt><trkpt lat="40.91002644970564" lon="8.693998033991267"><ele>21.0</ele><time>2026-04-26T10:16:03Z</time></trkpt><trkpt lat="40.90994817992704" lon="8.693842179624918"><ele>21.0</ele><time>2026-04-26T10:16:04Z</time></trkpt><trkpt lat="40.9098837825277" lon="8.693691543870335"><ele>21.25</ele><time>2026-04-26T10:16:05Z</time></trkpt><trkpt lat="40.909841322028306" lon="8.693528433090107"><ele>21.5</ele><time>2026-04-26T10:16:06Z</time></trkpt><trkpt lat="40.90980654029977" lon="8.693337732743155"><ele>21.75</ele><time>2026-04-26T10:16:07Z</time></trkpt><trkpt lat="40.9097563454625" lon="8.693138390390912"><ele>22.0</ele><time>2026-04-26T10:16:08Z</time></trkpt><trkpt lat="40.90972106447157" lon="8.692950934329968"><ele>22.0</ele><time>2026-04-26T10:16:09Z</time></trkpt><trkpt lat="40.90967277591805" lon="8.692779912838965"><ele>22.0</ele><time>2026-04-26T10:16:10Z</time></trkpt><trkpt lat="40.90960489181416" lon="8.692620550394528"><ele>22.0</ele><time>2026-04-26T10:16:11Z</time></trkpt><trkpt lat="40.90951276400709" lon="8.69246957711008"><ele>22.0</ele><time>2026-04-26T10:16:12Z</time></trkpt><trkpt lat="40.9094105385754" lon="8.692331394102782"><ele>25.666666666666664</ele><time>2026-04-26T10:16:13Z</time></trkpt><trkpt lat="40.909294240405664" lon="8.692206644470605"><ele>29.333333333333332</ele><time>2026-04-26T10:16:14Z</time></trkpt><trkpt lat="40.909169714930094" lon="8.692104778489242"><ele>33.0</ele><time>2026-04-26T10:16:15Z</time></trkpt><trkpt lat="40.909017736883335" lon="8.69201688957522"><ele>33.0</ele><time>2026-04-26T10:16:16Z</time></trkpt><trkpt lat="40.90885869943774" lon="8.691943975596674"><ele>33.0</ele><time>2026-04-26T10:16:17Z</time></trkpt><trkpt lat="40.90871162984551" lon="8.69189066207177"><ele>33.0</ele><time>2026-04-26T10:16:18Z</time></trkpt><trkpt lat="40.9085685068783" lon="8.69185454509062"><ele>29.25</ele><time>2026-04-26T10:16:19Z</time></trkpt><trkpt lat="40.908429719154825" lon="8.691833950109732"><ele>25.5</ele><time>2026-04-26T10:16:20Z</time></trkpt><trkpt lat="40.908292619091526" lon="8.691823819239659"><ele>21.75</ele><time>2026-04-26T10:16:21Z</time></trkpt><trkpt lat="40.90814864776323" lon="8.691817928420285"><ele>18.0</ele><time>2026-04-26T10:16:22Z</time></trkpt><trkpt lat="40.90799540476449" lon="8.691812661435948"><ele>18.0</ele><time>2026-04-26T10:16:23Z</time></trkpt><trkpt lat="40.90784570062025" lon="8.691809369893551"><ele>18.0</ele><time>2026-04-26T10:16:24Z</time></trkpt><trkpt lat="40.90770908791638" lon="8.691801968128438"><ele>18.0</ele><time>2026-04-26T10:16:25Z</time></trkpt><trkpt lat="40.90757832496069" lon="8.69179194760205"><ele>18.0</ele><time>2026-04-26T10:16:26Z</time></trkpt><trkpt lat="40.90745475264153" lon="8.691777328433702"><ele>18.75</ele><time>2026-04-26T10:16:27Z</time></trkpt><trkpt lat="40.90733097358639" lon="8.691753745843352"><ele>19.5</ele><time>2026-04-26T10:16:28Z</time></trkpt><trkpt lat="40.9072075742746" lon="8.691714701539492"><ele>20.25</ele><time>2026-04-26T10:16:29Z</time></trkpt><trkpt lat="40.90709655538605" lon="8.691637557223595"><ele>21.0</ele><time>2026-04-26T10:16:30Z</time></trkpt><trkpt lat="40.90699092646297" lon="8.691574972721918"><ele>21.0</ele><time>2026-04-26T10:16:31Z</time></trkpt><trkpt lat="40.906895539174286" lon="8.691533897016651"><ele>21.0</ele><time>2026-04-26T10:16:32Z</time></trkpt><trkpt lat="40.90681933033609" lon="8.691477781750331"><ele>21.0</ele><time>2026-04-26T10:16:33Z</time></trkpt><trkpt lat="40.90675268378144" lon="8.69142655371912"><ele>21.0</ele><time>2026-04-26T10:16:34Z</time></trkpt><trkpt lat="40.90669770540456" lon="8.691376884031007"><ele>21.0</ele><time>2026-04-26T10:16:35Z</time></trkpt><trkpt lat="40.906658285320844" lon="8.691251608456708"><ele>21.0</ele><time>2026-04-26T10:16:37Z</time></trkpt><trkpt lat="40.9066212959096" lon="8.691147030536118"><ele>20.2</ele><time>2026-04-26T10:16:39Z</time></trkpt><trkpt lat="40.90652347935959" lon="8.691041759811739"><ele>19.400000000000002</ele><time>2026-04-26T10:16:41Z</time></trkpt><trkpt lat="40.90646157659623" lon="8.690962353302623"><ele>18.6</ele><time>2026-04-26T10:16:42Z</time></trkpt><trkpt lat="40.906396711471125" lon="8.690874269585533"><ele>17.8</ele><time>2026-04-26T10:16:43Z</time></trkpt><trkpt lat="40.906325253988996" lon="8.690777509936366"><ele>17.0</ele><time>2026-04-26T10:16:44Z</time></trkpt><trkpt lat="40.906255027297405" lon="8.690682405583933"><ele>17.0</ele><time>2026-04-26T10:16:45Z</time></trkpt><trkpt lat="40.90619204980816" lon="8.690596350567295"><ele>17.0</ele><time>2026-04-26T10:16:46Z</time></trkpt><trkpt lat="40.90613398948024" lon="8.690516219922113"><ele>17.0</ele><time>2026-04-26T10:16:47Z</time></trkpt><trkpt lat="40.90608100313089" lon="8.690438089042459"><ele>17.0</ele><time>2026-04-26T10:16:48Z</time></trkpt><trkpt lat="40.906036651930876" lon="8.690370817035118"><ele>17.0</ele><time>2026-04-26T10:16:49Z</time></trkpt><trkpt lat="40.905966604113665" lon="8.69028099685673"><ele>17.0</ele><time>2026-04-26T10:16:51Z</time></trkpt><trkpt lat="40.90589904536992" lon="8.690280877966249"><ele>22.0</ele><time>2026-04-26T10:16:54Z</time></trkpt></trkseg><trkseg><trkpt lat="40.905954557077656" lon="8.69042440743346"><ele>17.0</ele><time>2026-04-26T12:54:13.035Z</time></trkpt><trkpt lat="40.905955515632016" lon="8.690339283989816"><ele>17.0</ele><time>2026-04-26T12:54:15.003Z</time></trkpt><trkpt lat="40.905923040946384" lon="8.690250981505834"><ele>17.0</ele><time>2026-04-26T12:56:55Z</time></trkpt><trkpt lat="40.905847396537425" lon="8.690100022449533"><ele>17.0</ele><time>2026-04-26T12:56:57Z</time></trkpt><trkpt lat="40.90576319797416" lon="8.68998940853195"><ele>17.0</ele><time>2026-04-26T12:56:59Z</time></trkpt><trkpt lat="40.90568679048522" lon="8.689952177933256"><ele>17.0</ele><time>2026-04-26T12:57:01Z</time></trkpt><trkpt lat="40.90562546087672" lon="8.689975432925213"><ele>17.0</ele><time>2026-04-26T12:57:10Z</time></trkpt><trkpt lat="40.90555217531152" lon="8.689924039864128"><ele>17.0</ele><time>2026-04-26T12:57:12Z</time></trkpt><trkpt lat="40.90549817401849" lon="8.689846202662604"><ele>17.0</ele><time>2026-04-26T12:57:13Z</time></trkpt><trkpt lat="40.90544138333743" lon="8.689756320721937"><ele>17.0</ele><time>2026-04-26T12:57:14Z</time></trkpt><trkpt lat="40.905377056032556" lon="8.689663769687087"><ele>17.0</ele><time>2026-04-26T12:57:15Z</time></trkpt><trkpt lat="40.90530658837489" lon="8.68957327013134"><ele>17.0</ele><time>2026-04-26T12:57:16Z</time></trkpt><trkpt lat="40.90523767083734" lon="8.689478239331661"><ele>17.0</ele><time>2026-04-26T12:57:17Z</time></trkpt><trkpt lat="40.90516725625844" lon="8.68937859828748"><ele>17.0</ele><time>2026-04-26T12:57:18Z</time></trkpt><trkpt lat="40.90509277849064" lon="8.689278408267942"><ele>17.0</ele><time>2026-04-26T12:57:19Z</time></trkpt><trkpt lat="40.9050400053132" lon="8.689138141638491"><ele>17.0</ele><time>2026-04-26T12:57:20Z</time></trkpt><trkpt lat="40.904957821452825" lon="8.689022736111175"><ele>17.0</ele><time>2026-04-26T12:57:21Z</time></trkpt><trkpt lat="40.904875504549494" lon="8.68890714373223"><ele>17.0</ele><time>2026-04-26T12:57:22Z</time></trkpt><trkpt lat="40.90480129151871" lon="8.688802931133068"><ele>17.0</ele><time>2026-04-26T12:57:23Z</time></trkpt><trkpt lat="40.90472856664289" lon="8.688700974770528"><ele>17.0</ele><time>2026-04-26T12:57:24Z</time></trkpt><trkpt lat="40.90465285555939" lon="8.688595008074548"><ele>17.0</ele><time>2026-04-26T12:57:25Z</time></trkpt><trkpt lat="40.904580258337226" lon="8.688493399575266"><ele>16.2</ele><time>2026-04-26T12:57:26Z</time></trkpt><trkpt lat="40.904510450252495" lon="8.688395694858619"><ele>15.399999999999999</ele><time>2026-04-26T12:57:27Z</time></trkpt><trkpt lat="40.904437910180704" lon="8.688294166609431"><ele>14.600000000000001</ele><time>2026-04-26T12:57:28Z</time></trkpt><trkpt lat="40.904360349923934" lon="8.688183788407175"><ele>13.8</ele><time>2026-04-26T12:57:29Z</time></trkpt><trkpt lat="40.90427467322891" lon="8.6880655180848"><ele>13.0</ele><time>2026-04-26T12:57:30Z</time></trkpt><trkpt lat="40.90418684890756" lon="8.687943888182417"><ele>13.0</ele><time>2026-04-26T12:57:31Z</time></trkpt><trkpt lat="40.90409784281911" lon="8.687819283245823"><ele>13.0</ele><time>2026-04-26T12:57:32Z</time></trkpt><trkpt lat="40.90401635083149" lon="8.687704843571177"><ele>13.0</ele><time>2026-04-26T12:57:33Z</time></trkpt><trkpt lat="40.90392961808218" lon="8.687583013837655"><ele>13.0</ele><time>2026-04-26T12:57:34Z</time></trkpt><trkpt lat="40.903841603436376" lon="8.687459416505948"><ele>12.5</ele><time>2026-04-26T12:57:35Z</time></trkpt><trkpt lat="40.903748376390446" lon="8.687328771373233"><ele>12.0</ele><time>2026-04-26T12:57:36Z</time></trkpt><trkpt lat="40.903657431540566" lon="8.687200716349421"><ele>11.5</ele><time>2026-04-26T12:57:37Z</time></trkpt><trkpt lat="40.90356574636931" lon="8.687071635993451"><ele>11.0</ele><time>2026-04-26T12:57:38Z</time></trkpt><trkpt lat="40.9034711420159" lon="8.686938445688327"><ele>10.5</ele><time>2026-04-26T12:57:39Z</time></trkpt><trkpt lat="40.90337891210153" lon="8.686808650761135"><ele>10.0</ele><time>2026-04-26T12:57:40Z</time></trkpt><trkpt lat="40.90328511625448" lon="8.686676684283736"><ele>9.5</ele><time>2026-04-26T12:57:41Z</time></trkpt><trkpt lat="40.903189949552825" lon="8.686542539728118"><ele>9.0</ele><time>2026-04-26T12:57:42Z</time></trkpt><trkpt lat="40.90309969424803" lon="8.686414929106999"><ele>9.0</ele><time>2026-04-26T12:57:43Z</time></trkpt><trkpt lat="40.9030086134285" lon="8.686287670100466"><ele>9.0</ele><time>2026-04-26T12:57:44Z</time></trkpt><trkpt lat="40.90291483278262" lon="8.686158529077"><ele>9.0</ele><time>2026-04-26T12:57:45Z</time></trkpt><trkpt lat="40.90282263533944" lon="8.686030196118693"><ele>9.0</ele><time>2026-04-26T12:57:46Z</time></trkpt><trkpt lat="40.90271331628593" lon="8.685925312486587"><ele>8.5</ele><time>2026-04-26T12:57:47Z</time></trkpt><trkpt lat="40.90262111226223" lon="8.68579814923763"><ele>8.0</ele><time>2026-04-26T12:57:48Z</time></trkpt><trkpt lat="40.90252857185228" lon="8.68566858789628"><ele>7.5</ele><time>2026-04-26T12:57:49Z</time></trkpt><trkpt lat="40.902434164242" lon="8.685536926207945"><ele>7.0</ele><time>2026-04-26T12:57:50Z</time></trkpt><trkpt lat="40.902356518236594" lon="8.685374371065022"><ele>8.25</ele><time>2026-04-26T12:57:51Z</time></trkpt><trkpt lat="40.90225527620917" lon="8.685229731999577"><ele>9.5</ele><time>2026-04-26T12:57:52Z</time></trkpt><trkpt lat="40.90215335301214" lon="8.685086694547449"><ele>10.75</ele><time>2026-04-26T12:57:53Z</time></trkpt><trkpt lat="40.902051762757445" lon="8.684945415035111"><ele>12.0</ele><time>2026-04-26T12:57:54Z</time></trkpt><trkpt lat="40.90194998616798" lon="8.684803876683945"><ele>12.0</ele><time>2026-04-26T12:57:55Z</time></trkpt><trkpt lat="40.9018489578239" lon="8.684663687420962"><ele>12.0</ele><time>2026-04-26T12:57:56Z</time></trkpt><trkpt lat="40.9017456333063" lon="8.684518214553046"><ele>12.0</ele><time>2026-04-26T12:57:57Z</time></trkpt><trkpt lat="40.90164670175974" lon="8.684374407967784"><ele>12.0</ele><time>2026-04-26T12:57:58Z</time></trkpt><trkpt lat="40.9015569924031" lon="8.68423656008805"><ele>12.75</ele><time>2026-04-26T12:57:59Z</time></trkpt><trkpt lat="40.90147071427528" lon="8.684098377002801"><ele>13.5</ele><time>2026-04-26T12:58:00Z</time></trkpt><trkpt lat="40.90139467735382" lon="8.683956554409363"><ele>14.25</ele><time>2026-04-26T12:58:01Z</time></trkpt><trkpt lat="40.901315934522856" lon="8.68380781897812"><ele>15.0</ele><time>2026-04-26T12:58:02Z</time></trkpt><trkpt lat="40.90125496149931" lon="8.683646589521448"><ele>15.0</ele><time>2026-04-26T12:58:03Z</time></trkpt><trkpt lat="40.901165305653684" lon="8.683499385560534"><ele>15.0</ele><time>2026-04-26T12:58:04Z</time></trkpt><trkpt lat="40.901103694840025" lon="8.683334867614228"><ele>15.0</ele><time>2026-04-26T12:58:05Z</time></trkpt><trkpt lat="40.90104084240287" lon="8.683165697273616"><ele>15.0</ele><time>2026-04-26T12:58:06Z</time></trkpt><trkpt lat="40.90097739534623" lon="8.682998034405081"><ele>15.25</ele><time>2026-04-26T12:58:07Z</time></trkpt><trkpt lat="40.90091266413474" lon="8.682828968496333"><ele>15.5</ele><time>2026-04-26T12:58:08Z</time></trkpt><trkpt lat="40.90084851544582" lon="8.68265840286264"><ele>15.75</ele><time>2026-04-26T12:58:09Z</time></trkpt><trkpt lat="40.90078460175535" lon="8.682492007050929"><ele>16.0</ele><time>2026-04-26T12:58:10Z</time></trkpt><trkpt lat="40.90072139175882" lon="8.68232712123306"><ele>16.0</ele><time>2026-04-26T12:58:11Z</time></trkpt><trkpt lat="40.900678297870215" lon="8.682140716480573"><ele>16.0</ele><time>2026-04-26T12:58:12Z</time></trkpt><trkpt lat="40.90061103387841" lon="8.68196542342527"><ele>16.0</ele><time>2026-04-26T12:58:13Z</time></trkpt><trkpt lat="40.90054180813139" lon="8.68178666171573"><ele>16.0</ele><time>2026-04-26T12:58:14Z</time></trkpt><trkpt lat="40.90047267469677" lon="8.681612202055328"><ele>16.25</ele><time>2026-04-26T12:58:15Z</time></trkpt><trkpt lat="40.90040910744075" lon="8.681446392342233"><ele>16.5</ele><time>2026-04-26T12:58:16Z</time></trkpt><trkpt lat="40.90034872580568" lon="8.681275054043724"><ele>16.75</ele><time>2026-04-26T12:58:17Z</time></trkpt><trkpt lat="40.90029122572214" lon="8.68110835240646"><ele>17.0</ele><time>2026-04-26T12:58:18Z</time></trkpt><trkpt lat="40.90023937278849" lon="8.680943124469877"><ele>16.25</ele><time>2026-04-26T12:58:19Z</time></trkpt><trkpt lat="40.9001882111626" lon="8.680782355358371"><ele>15.5</ele><time>2026-04-26T12:58:20Z</time></trkpt><trkpt lat="40.90014291056218" lon="8.680638387373785"><ele>14.75</ele><time>2026-04-26T12:58:21Z</time></trkpt><trkpt lat="40.90010176070517" lon="8.680507043130937"><ele>14.0</ele><time>2026-04-26T12:58:22Z</time></trkpt><trkpt lat="40.900065692028484" lon="8.680388081668474"><ele>14.833333333333334</ele><time>2026-04-26T12:58:23Z</time></trkpt><trkpt lat="40.9000329382727" lon="8.680276005948649"><ele>15.666666666666668</ele><time>2026-04-26T12:58:24Z</time></trkpt><trkpt lat="40.90000476368171" lon="8.680179599013732"><ele>16.5</ele><time>2026-04-26T12:58:25Z</time></trkpt><trkpt lat="40.899976143679204" lon="8.680081668038385"><ele>17.333333333333332</ele><time>2026-04-26T12:58:26Z</time></trkpt><trkpt lat="40.899945943379386" lon="8.679978330343866"><ele>18.166666666666664</ele><time>2026-04-26T12:58:27Z</time></trkpt><trkpt lat="40.89991752865369" lon="8.6798874664374"><ele>19.0</ele><time>2026-04-26T12:58:28Z</time></trkpt><trkpt lat="40.89989282022738" lon="8.67980624678589"><ele>19.0</ele><time>2026-04-26T12:58:29Z</time></trkpt><trkpt lat="40.89985138375653" lon="8.679670039936422"><ele>19.0</ele><time>2026-04-26T12:58:30.999Z</time></trkpt><trkpt lat="40.89977836025797" lon="8.679711280220605"><ele>19.0</ele><time>2026-04-26T12:58:35.999Z</time></trkpt><trkpt lat="40.89979539590595" lon="8.679901697518964"><ele>19.0</ele><time>2026-04-26T12:58:37.999Z</time></trkpt><trkpt lat="40.89978983772429" lon="8.680007508368703"><ele>19.0</ele><time>2026-04-26T12:58:38.999Z</time></trkpt><trkpt lat="40.899810468960915" lon="8.680115267961778"><ele>19.0</ele><time>2026-04-26T12:58:39.999Z</time></trkpt><trkpt lat="40.899818250310254" lon="8.680225520826053"><ele>19.0</ele><time>2026-04-26T12:58:40.999Z</time></trkpt><trkpt lat="40.89976653626368" lon="8.680347224668221"><ele>19.0</ele><time>2026-04-26T12:58:41.999Z</time></trkpt><trkpt lat="40.89975650281778" lon="8.680474376873418"><ele>19.0</ele><time>2026-04-26T12:58:42.999Z</time></trkpt><trkpt lat="40.89974656028327" lon="8.680612508443875"><ele>19.0</ele><time>2026-04-26T12:58:44Z</time></trkpt><trkpt lat="40.89973533773075" lon="8.68077105869706"><ele>19.25</ele><time>2026-04-26T12:58:45Z</time></trkpt><trkpt lat="40.899724185064954" lon="8.680926801766487"><ele>19.5</ele><time>2026-04-26T12:58:46Z</time></trkpt><trkpt lat="40.89971383953788" lon="8.6810967581525"><ele>19.75</ele><time>2026-04-26T12:58:47Z</time></trkpt><trkpt lat="40.89970247859163" lon="8.68128774951137"><ele>20.0</ele><time>2026-04-26T12:58:48Z</time></trkpt><trkpt lat="40.89969254239158" lon="8.681493394044926"><ele>21.0</ele><time>2026-04-26T12:58:49Z</time></trkpt><trkpt lat="40.89968931840474" lon="8.68170351519546"><ele>22.0</ele><time>2026-04-26T12:58:50Z</time></trkpt><trkpt lat="40.8996938805136" lon="8.681903498433938"><ele>23.0</ele><time>2026-04-26T12:58:51Z</time></trkpt><trkpt lat="40.89970610378734" lon="8.682072944507391"><ele>24.0</ele><time>2026-04-26T12:58:52Z</time></trkpt><trkpt lat="40.8997190371136" lon="8.682221560609342"><ele>24.5</ele><time>2026-04-26T12:58:53Z</time></trkpt><trkpt lat="40.899729458960564" lon="8.6823665327911"><ele>25.0</ele><time>2026-04-26T12:58:54Z</time></trkpt><trkpt lat="40.89972144938494" lon="8.682521483041997"><ele>25.5</ele><time>2026-04-26T12:58:55Z</time></trkpt><trkpt lat="40.89967804517077" lon="8.68268591992316"><ele>26.0</ele><time>2026-04-26T12:58:56Z</time></trkpt><trkpt lat="40.89961284697122" lon="8.682850047132177"><ele>26.25</ele><time>2026-04-26T12:58:57Z</time></trkpt><trkpt lat="40.89953371396371" lon="8.683005368106905"><ele>26.5</ele><time>2026-04-26T12:58:58Z</time></trkpt><trkpt lat="40.89943546231792" lon="8.683142686700275"><ele>26.75</ele><time>2026-04-26T12:58:59Z</time></trkpt><trkpt lat="40.89931554747914" lon="8.68327475804479"><ele>27.0</ele><time>2026-04-26T12:59:00Z</time></trkpt><trkpt lat="40.89917095480362" lon="8.683407780660133"><ele>29.666666666666664</ele><time>2026-04-26T12:59:01Z</time></trkpt><trkpt lat="40.89901360878075" lon="8.683547128976913"><ele>32.33333333333333</ele><time>2026-04-26T12:59:02Z</time></trkpt><trkpt lat="40.89887191428276" lon="8.683671050289725"><ele>35.0</ele><time>2026-04-26T12:59:03Z</time></trkpt><trkpt lat="40.89873936707582" lon="8.683790567035784"><ele>35.0</ele><time>2026-04-26T12:59:04Z</time></trkpt><trkpt lat="40.898615452273496" lon="8.683911615373233"><ele>35.0</ele><time>2026-04-26T12:59:05Z</time></trkpt><trkpt lat="40.89847987999058" lon="8.684033538084195"><ele>35.0</ele><time>2026-04-26T12:59:06Z</time></trkpt><trkpt lat="40.89834663798111" lon="8.68415787777354"><ele>36.5</ele><time>2026-04-26T12:59:07Z</time></trkpt><trkpt lat="40.89821566825352" lon="8.684280562043362"><ele>38.0</ele><time>2026-04-26T12:59:08Z</time></trkpt><trkpt lat="40.898097096347755" lon="8.684398334153194"><ele>39.5</ele><time>2026-04-26T12:59:09Z</time></trkpt><trkpt lat="40.89799704884205" lon="8.684512275062833"><ele>41.0</ele><time>2026-04-26T12:59:10Z</time></trkpt><trkpt lat="40.89791626322858" lon="8.684632608804925"><ele>41.0</ele><time>2026-04-26T12:59:11Z</time></trkpt><trkpt lat="40.89785059236366" lon="8.684767392038854"><ele>41.0</ele><time>2026-04-26T12:59:12Z</time></trkpt><trkpt lat="40.89778184803267" lon="8.684916155059804"><ele>41.0</ele><time>2026-04-26T12:59:13Z</time></trkpt><trkpt lat="40.8977125706453" lon="8.685076913503286"><ele>41.0</ele><time>2026-04-26T12:59:14Z</time></trkpt><trkpt lat="40.89764469848006" lon="8.68524565794583"><ele>45.0</ele><time>2026-04-26T12:59:15Z</time></trkpt><trkpt lat="40.897572214494986" lon="8.685415498465321"><ele>49.0</ele><time>2026-04-26T12:59:16Z</time></trkpt><trkpt lat="40.89749679031834" lon="8.685594749077893"><ele>53.0</ele><time>2026-04-26T12:59:17Z</time></trkpt><trkpt lat="40.89741656673919" lon="8.685774793621276"><ele>53.0</ele><time>2026-04-26T12:59:18Z</time></trkpt><trkpt lat="40.89733903089559" lon="8.685955019124952"><ele>53.0</ele><time>2026-04-26T12:59:19Z</time></trkpt><trkpt lat="40.89726585190955" lon="8.686135206946926"><ele>53.0</ele><time>2026-04-26T12:59:20Z</time></trkpt><trkpt lat="40.89719102563441" lon="8.68630756459688"><ele>52.25</ele><time>2026-04-26T12:59:21Z</time></trkpt><trkpt lat="40.89710991651897" lon="8.686473740024427"><ele>51.5</ele><time>2026-04-26T12:59:22Z</time></trkpt><trkpt lat="40.89704230935929" lon="8.686624354264252"><ele>50.75</ele><time>2026-04-26T12:59:23Z</time></trkpt><trkpt lat="40.89697703491344" lon="8.686791720127864"><ele>50.0</ele><time>2026-04-26T12:59:24Z</time></trkpt><trkpt lat="40.89690440101646" lon="8.68696320995221"><ele>49.66666666666667</ele><time>2026-04-26T12:59:25Z</time></trkpt><trkpt lat="40.89682703047397" lon="8.687145835266183"><ele>49.33333333333333</ele><time>2026-04-26T12:59:26Z</time></trkpt><trkpt lat="40.89674557367639" lon="8.687338370038598"><ele>49.0</ele><time>2026-04-26T12:59:27Z</time></trkpt><trkpt lat="40.89667014201553" lon="8.687515106575907"><ele>51.25</ele><time>2026-04-26T12:59:28Z</time></trkpt><trkpt lat="40.896600395482054" lon="8.68767578347333"><ele>53.5</ele><time>2026-04-26T12:59:29Z</time></trkpt><trkpt lat="40.89653053441648" lon="8.687820689989296"><ele>55.75</ele><time>2026-04-26T12:59:30Z</time></trkpt><trkpt lat="40.89645071679767" lon="8.687944278204228"><ele>58.0</ele><time>2026-04-26T12:59:31Z</time></trkpt><trkpt lat="40.896358623321774" lon="8.688035183121094"><ele>58.5</ele><time>2026-04-26T12:59:32Z</time></trkpt><trkpt lat="40.8962580546181" lon="8.688100112309396"><ele>59.0</ele><time>2026-04-26T12:59:33Z</time></trkpt><trkpt lat="40.89614220556303" lon="8.688139885720249"><ele>59.5</ele><time>2026-04-26T12:59:34Z</time></trkpt><trkpt lat="40.896005282745016" lon="8.688161977080624"><ele>60.0</ele><time>2026-04-26T12:59:35Z</time></trkpt><trkpt lat="40.89584679386952" lon="8.688119232654547"><ele>60.66666666666667</ele><time>2026-04-26T12:59:36Z</time></trkpt><trkpt lat="40.895663741778044" lon="8.688099892832687"><ele>61.333333333333336</ele><time>2026-04-26T12:59:37Z</time></trkpt><trkpt lat="40.89545877894451" lon="8.688078238096342"><ele>62.0</ele><time>2026-04-26T12:59:38Z</time></trkpt><trkpt lat="40.89527314556378" lon="8.688058625555495"><ele>62.0</ele><time>2026-04-26T12:59:39Z</time></trkpt><trkpt lat="40.895102990111305" lon="8.688040648283398"><ele>62.0</ele><time>2026-04-26T12:59:40Z</time></trkpt><trkpt lat="40.894942705977996" lon="8.688024630158086"><ele>62.0</ele><time>2026-04-26T12:59:41Z</time></trkpt><trkpt lat="40.89478673937646" lon="8.688027143437585"><ele>61.75</ele><time>2026-04-26T12:59:42Z</time></trkpt><trkpt lat="40.894639976580955" lon="8.688017626578981"><ele>61.5</ele><time>2026-04-26T12:59:43Z</time></trkpt><trkpt lat="40.89449728462219" lon="8.688010086335971"><ele>61.25</ele><time>2026-04-26T12:59:44Z</time></trkpt><trkpt lat="40.894361734829374" lon="8.688012159548595"><ele>61.0</ele><time>2026-04-26T12:59:45Z</time></trkpt><trkpt lat="40.89423176992619" lon="8.688047627291834"><ele>59.33333333333333</ele><time>2026-04-26T12:59:46Z</time></trkpt><trkpt lat="40.894100239639414" lon="8.688122630993204"><ele>57.66666666666667</ele><time>2026-04-26T12:59:47Z</time></trkpt><trkpt lat="40.89396033879453" lon="8.688227892462224"><ele>56.0</ele><time>2026-04-26T12:59:48Z</time></trkpt><trkpt lat="40.89381809149052" lon="8.68836006309363"><ele>56.0</ele><time>2026-04-26T12:59:49Z</time></trkpt><trkpt lat="40.893686707906646" lon="8.688474369501218"><ele>56.0</ele><time>2026-04-26T12:59:50Z</time></trkpt><trkpt lat="40.89354501142063" lon="8.688525672039777"><ele>56.0</ele><time>2026-04-26T12:59:51Z</time></trkpt><trkpt lat="40.893411668866165" lon="8.688549766325742"><ele>56.0</ele><time>2026-04-26T12:59:52Z</time></trkpt><trkpt lat="40.89327916660365" lon="8.688536420581721"><ele>56.25</ele><time>2026-04-26T12:59:53Z</time></trkpt><trkpt lat="40.89315437275666" lon="8.688517065598656"><ele>56.5</ele><time>2026-04-26T12:59:54Z</time></trkpt><trkpt lat="40.89303239214071" lon="8.688497549989938"><ele>56.75</ele><time>2026-04-26T12:59:55Z</time></trkpt><trkpt lat="40.89290896853009" lon="8.688477676446253"><ele>57.0</ele><time>2026-04-26T12:59:56Z</time></trkpt><trkpt lat="40.89278470034611" lon="8.68847732010795"><ele>57.0</ele><time>2026-04-26T12:59:57Z</time></trkpt><trkpt lat="40.89266787622389" lon="8.688448533814153"><ele>57.0</ele><time>2026-04-26T12:59:58Z</time></trkpt><trkpt lat="40.89256314125193" lon="8.688414461418862"><ele>57.0</ele><time>2026-04-26T12:59:59Z</time></trkpt><trkpt lat="40.892475259156015" lon="8.688357991250733"><ele>57.0</ele><time>2026-04-26T13:00:00Z</time></trkpt><trkpt lat="40.892407715134446" lon="8.688272417642048"><ele>57.0</ele><time>2026-04-26T13:00:01Z</time></trkpt><trkpt lat="40.89234583633212" lon="8.688184549304863"><ele>57.0</ele><time>2026-04-26T13:00:02Z</time></trkpt><trkpt lat="40.89230253239386" lon="8.688073191043431"><ele>57.0</ele><time>2026-04-26T13:00:03Z</time></trkpt><trkpt lat="40.89224793485227" lon="8.687927652547458"><ele>57.0</ele><time>2026-04-26T13:00:04Z</time></trkpt><trkpt lat="40.89220995058602" lon="8.687730251300215"><ele>57.0</ele><time>2026-04-26T13:00:05Z</time></trkpt><trkpt lat="40.89219554275334" lon="8.687505760579416"><ele>59.66666666666667</ele><time>2026-04-26T13:00:06Z</time></trkpt><trkpt lat="40.89214918212949" lon="8.6872680944609"><ele>62.333333333333336</ele><time>2026-04-26T13:00:07Z</time></trkpt><trkpt lat="40.892079299814704" lon="8.687023610107781"><ele>65.0</ele><time>2026-04-26T13:00:08Z</time></trkpt><trkpt lat="40.89203153674579" lon="8.68677897388238"><ele>67.0</ele><time>2026-04-26T13:00:09Z</time></trkpt><trkpt lat="40.89198803712486" lon="8.686570721936794"><ele>69.0</ele><time>2026-04-26T13:00:10Z</time></trkpt><trkpt lat="40.8919587408741" lon="8.686374411307936"><ele>71.0</ele><time>2026-04-26T13:00:11Z</time></trkpt><trkpt lat="40.89190114127424" lon="8.68620100965155"><ele>72.25</ele><time>2026-04-26T13:00:12Z</time></trkpt><trkpt lat="40.89181060925841" lon="8.686069765382902"><ele>73.5</ele><time>2026-04-26T13:00:13Z</time></trkpt><trkpt lat="40.89171384485543" lon="8.685962645843958"><ele>74.75</ele><time>2026-04-26T13:00:14Z</time></trkpt><trkpt lat="40.891596523215505" lon="8.685888630639235"><ele>76.0</ele><time>2026-04-26T13:00:15Z</time></trkpt><trkpt lat="40.891462532752044" lon="8.685853386658993"><ele>76.33333333333333</ele><time>2026-04-26T13:00:16Z</time></trkpt><trkpt lat="40.891329294998435" lon="8.685860215937101"><ele>76.66666666666667</ele><time>2026-04-26T13:00:17Z</time></trkpt><trkpt lat="40.89118814783978" lon="8.685917567306065"><ele>77.0</ele><time>2026-04-26T13:00:18Z</time></trkpt><trkpt lat="40.89102980895432" lon="8.686004642004617"><ele>81.66666666666667</ele><time>2026-04-26T13:00:19Z</time></trkpt><trkpt lat="40.890858235817376" lon="8.6860948896088"><ele>86.33333333333333</ele><time>2026-04-26T13:00:20Z</time></trkpt><trkpt lat="40.89067533051389" lon="8.686183022509553"><ele>91.0</ele><time>2026-04-26T13:00:21Z</time></trkpt><trkpt lat="40.890488413238636" lon="8.686271234896978"><ele>91.0</ele><time>2026-04-26T13:00:22Z</time></trkpt><trkpt lat="40.89030167167373" lon="8.686360687622804"><ele>91.0</ele><time>2026-04-26T13:00:23Z</time></trkpt><trkpt lat="40.890132462424376" lon="8.686441728552369"><ele>91.0</ele><time>2026-04-26T13:00:24Z</time></trkpt><trkpt lat="40.889990628201154" lon="8.686508047208193"><ele>92.0</ele><time>2026-04-26T13:00:25Z</time></trkpt><trkpt lat="40.889866161057654" lon="8.686563234167002"><ele>93.0</ele><time>2026-04-26T13:00:26Z</time></trkpt><trkpt lat="40.88974476631179" lon="8.686611945422568"><ele>94.0</ele><time>2026-04-26T13:00:27Z</time></trkpt><trkpt lat="40.889636276905534" lon="8.686664184625505"><ele>95.0</ele><time>2026-04-26T13:00:28Z</time></trkpt><trkpt lat="40.889530252525965" lon="8.686729602743169"><ele>95.0</ele><time>2026-04-26T13:00:29Z</time></trkpt><trkpt lat="40.88942850484965" lon="8.68681600456268"><ele>95.0</ele><time>2026-04-26T13:00:30Z</time></trkpt><trkpt lat="40.889337767971085" lon="8.686934031233866"><ele>95.0</ele><time>2026-04-26T13:00:31Z</time></trkpt><trkpt lat="40.88924688849503" lon="8.68708220458468"><ele>95.0</ele><time>2026-04-26T13:00:32Z</time></trkpt><trkpt lat="40.88914690424055" lon="8.68724275272003"><ele>93.5</ele><time>2026-04-26T13:00:33Z</time></trkpt><trkpt lat="40.88904186215299" lon="8.687397527385073"><ele>92.0</ele><time>2026-04-26T13:00:34Z</time></trkpt><trkpt lat="40.88894642232293" lon="8.687536811175733"><ele>90.5</ele><time>2026-04-26T13:00:35Z</time></trkpt><trkpt lat="40.888852309002914" lon="8.687656072172512"><ele>89.0</ele><time>2026-04-26T13:00:36Z</time></trkpt><trkpt lat="40.88875825677425" lon="8.687733787725488"><ele>89.0</ele><time>2026-04-26T13:00:37Z</time></trkpt><trkpt lat="40.88866118341168" lon="8.687725283934814"><ele>89.0</ele><time>2026-04-26T13:00:38Z</time></trkpt><trkpt lat="40.88857762868965" lon="8.687672571935117"><ele>89.0</ele><time>2026-04-26T13:00:39Z</time></trkpt><trkpt lat="40.88848820566406" lon="8.68758829499595"><ele>89.0</ele><time>2026-04-26T13:00:40Z</time></trkpt><trkpt lat="40.88842294328068" lon="8.687433352799607"><ele>89.0</ele><time>2026-04-26T13:00:41Z</time></trkpt><trkpt lat="40.88833316049414" lon="8.687283043800187"><ele>89.6</ele><time>2026-04-26T13:00:42Z</time></trkpt><trkpt lat="40.88824806992871" lon="8.687165084561931"><ele>90.2</ele><time>2026-04-26T13:00:43Z</time></trkpt><trkpt lat="40.88822846247274" lon="8.687036312880725"><ele>90.8</ele><time>2026-04-26T13:00:44Z</time></trkpt><trkpt lat="40.888269042434885" lon="8.686919199809411"><ele>91.39999999999999</ele><time>2026-04-26T13:00:45Z</time></trkpt><trkpt lat="40.888306887528515" lon="8.68680035025946"><ele>92.0</ele><time>2026-04-26T13:00:46Z</time></trkpt><trkpt lat="40.88838959711496" lon="8.686708431394237"><ele>92.6</ele><time>2026-04-26T13:00:47Z</time></trkpt><trkpt lat="40.88848731303316" lon="8.68666527817458"><ele>93.19999999999999</ele><time>2026-04-26T13:00:48Z</time></trkpt><trkpt lat="40.88858065629217" lon="8.686676167826853"><ele>93.8</ele><time>2026-04-26T13:00:49Z</time></trkpt><trkpt lat="40.88866544966881" lon="8.68673151823114"><ele>94.4</ele><time>2026-04-26T13:00:50Z</time></trkpt><trkpt lat="40.888740731015304" lon="8.686822038991947"><ele>95.0</ele><time>2026-04-26T13:00:51Z</time></trkpt><trkpt lat="40.88882793089746" lon="8.686909841505134"><ele>93.0</ele><time>2026-04-26T13:00:52Z</time></trkpt><trkpt lat="40.888913617960206" lon="8.687073193053486"><ele>91.0</ele><time>2026-04-26T13:00:53Z</time></trkpt><trkpt lat="40.889037699698704" lon="8.6872160847971"><ele>89.0</ele><time>2026-04-26T13:00:54Z</time></trkpt><trkpt lat="40.889179190845624" lon="8.687370770854589"><ele>88.66666666666667</ele><time>2026-04-26T13:00:55Z</time></trkpt><trkpt lat="40.889324336414816" lon="8.687540354718912"><ele>88.33333333333333</ele><time>2026-04-26T13:00:56Z</time></trkpt><trkpt lat="40.88947974158078" lon="8.687718450233888"><ele>88.0</ele><time>2026-04-26T13:00:57Z</time></trkpt><trkpt lat="40.88963744677075" lon="8.687900784964912"><ele>85.66666666666666</ele><time>2026-04-26T13:00:58Z</time></trkpt><trkpt lat="40.88980123343967" lon="8.68808755701207"><ele>83.33333333333333</ele><time>2026-04-26T13:00:59Z</time></trkpt><trkpt lat="40.88996673901808" lon="8.688276818226516"><ele>81.0</ele><time>2026-04-26T13:01:00Z</time></trkpt><trkpt lat="40.89013053062204" lon="8.688467346604492"><ele>74.33333333333333</ele><time>2026-04-26T13:01:01Z</time></trkpt><trkpt lat="40.89029498352737" lon="8.688655195264104"><ele>67.66666666666666</ele><time>2026-04-26T13:01:02Z</time></trkpt><trkpt lat="40.89045658229844" lon="8.68884168730414"><ele>61.0</ele><time>2026-04-26T13:01:03Z</time></trkpt><trkpt lat="40.890616881249365" lon="8.689025039936993"><ele>61.0</ele><time>2026-04-26T13:01:04Z</time></trkpt><trkpt lat="40.890775158577355" lon="8.68920834419054"><ele>61.0</ele><time>2026-04-26T13:01:05Z</time></trkpt><trkpt lat="40.89093075357111" lon="8.689390362731546"><ele>61.0</ele><time>2026-04-26T13:01:06Z</time></trkpt><trkpt lat="40.89108417028508" lon="8.689569367516075"><ele>62.33333333333333</ele><time>2026-04-26T13:01:07Z</time></trkpt><trkpt lat="40.8912365864184" lon="8.689747146652273"><ele>63.66666666666667</ele><time>2026-04-26T13:01:08Z</time></trkpt><trkpt lat="40.891386053687" lon="8.689923411759867"><ele>65.0</ele><time>2026-04-26T13:01:09Z</time></trkpt><trkpt lat="40.89153582837817" lon="8.690098049707503"><ele>66.33333333333334</ele><time>2026-04-26T13:01:10Z</time></trkpt><trkpt lat="40.89168539758116" lon="8.690269180051509"><ele>67.66666666666667</ele><time>2026-04-26T13:01:11Z</time></trkpt><trkpt lat="40.8918335492288" lon="8.6904391942352"><ele>69.0</ele><time>2026-04-26T13:01:12Z</time></trkpt><trkpt lat="40.89198226695154" lon="8.690612179050188"><ele>69.0</ele><time>2026-04-26T13:01:13Z</time></trkpt><trkpt lat="40.89212767840587" lon="8.69078007911153"><ele>69.0</ele><time>2026-04-26T13:01:14Z</time></trkpt><trkpt lat="40.892277037542016" lon="8.690954076754748"><ele>69.0</ele><time>2026-04-26T13:01:15Z</time></trkpt><trkpt lat="40.89243180620942" lon="8.691131426622881"><ele>65.66666666666667</ele><time>2026-04-26T13:01:16Z</time></trkpt><trkpt lat="40.89258568994773" lon="8.691321742004543"><ele>62.333333333333336</ele><time>2026-04-26T13:01:17Z</time></trkpt><trkpt lat="40.89273332083048" lon="8.691527545607165"><ele>59.0</ele><time>2026-04-26T13:01:18Z</time></trkpt><trkpt lat="40.89287536871556" lon="8.69175037470536"><ele>62.333333333333336</ele><time>2026-04-26T13:01:19Z</time></trkpt><trkpt lat="40.893000531227116" lon="8.691973835528747"><ele>65.66666666666667</ele><time>2026-04-26T13:01:20Z</time></trkpt><trkpt lat="40.89310995529214" lon="8.692208899131112"><ele>69.0</ele><time>2026-04-26T13:01:21Z</time></trkpt><trkpt lat="40.89320597075712" lon="8.692453370910137"><ele>69.0</ele><time>2026-04-26T13:01:22Z</time></trkpt><trkpt lat="40.893293171591736" lon="8.692709197343593"><ele>69.0</ele><time>2026-04-26T13:01:23Z</time></trkpt><trkpt lat="40.89337022257347" lon="8.692974155429768"><ele>69.0</ele><time>2026-04-26T13:01:24Z</time></trkpt><trkpt lat="40.89343467055402" lon="8.6932424095185"><ele>63.66666666666667</ele><time>2026-04-26T13:01:25Z</time></trkpt><trkpt lat="40.8934835941382" lon="8.69351392193824"><ele>58.333333333333336</ele><time>2026-04-26T13:01:26Z</time></trkpt><trkpt lat="40.893512563368404" lon="8.693784044645128"><ele>53.0</ele><time>2026-04-26T13:01:27Z</time></trkpt><trkpt lat="40.893526355614405" lon="8.694063147682181"><ele>50.66666666666667</ele><time>2026-04-26T13:01:28Z</time></trkpt><trkpt lat="40.89352815153679" lon="8.694341713314792"><ele>48.333333333333336</ele><time>2026-04-26T13:01:29Z</time></trkpt><trkpt lat="40.89352768004819" lon="8.694622266873631"><ele>46.0</ele><time>2026-04-26T13:01:30Z</time></trkpt><trkpt lat="40.89352499966299" lon="8.694903609429254"><ele>46.0</ele><time>2026-04-26T13:01:31Z</time></trkpt><trkpt lat="40.893519528729776" lon="8.695185393720816"><ele>46.0</ele><time>2026-04-26T13:01:32Z</time></trkpt><trkpt lat="40.89351913666768" lon="8.695466302140376"><ele>46.0</ele><time>2026-04-26T13:01:33Z</time></trkpt><trkpt lat="40.893522770391804" lon="8.695748628963665"><ele>46.0</ele><time>2026-04-26T13:01:34Z</time></trkpt><trkpt lat="40.89352373234518" lon="8.69603060119746"><ele>46.0</ele><time>2026-04-26T13:01:35Z</time></trkpt><trkpt lat="40.89352027054841" lon="8.696313339319683"><ele>46.0</ele><time>2026-04-26T13:01:36Z</time></trkpt><trkpt lat="40.89351717519553" lon="8.696590648226401"><ele>49.333333333333336</ele><time>2026-04-26T13:01:37Z</time></trkpt><trkpt lat="40.893518968399796" lon="8.69686774293059"><ele>52.66666666666667</ele><time>2026-04-26T13:01:38Z</time></trkpt><trkpt lat="40.89352170200949" lon="8.69714639459432"><ele>56.0</ele><time>2026-04-26T13:01:39Z</time></trkpt><trkpt lat="40.89352247642761" lon="8.697422767075867"><ele>57.0</ele><time>2026-04-26T13:01:40Z</time></trkpt><trkpt lat="40.89352269661812" lon="8.697704131728997"><ele>58.0</ele><time>2026-04-26T13:01:41Z</time></trkpt><trkpt lat="40.89352299029886" lon="8.697985244105318"><ele>59.0</ele><time>2026-04-26T13:01:42Z</time></trkpt><trkpt lat="40.89352199709325" lon="8.698265684895416"><ele>59.0</ele><time>2026-04-26T13:01:43Z</time></trkpt><trkpt lat="40.89352101443526" lon="8.698548504747444"><ele>59.0</ele><time>2026-04-26T13:01:44Z</time></trkpt><trkpt lat="40.89351804545552" lon="8.69883767490439"><ele>59.0</ele><time>2026-04-26T13:01:45Z</time></trkpt><trkpt lat="40.89351404931884" lon="8.699133106583565"><ele>61.5</ele><time>2026-04-26T13:01:46Z</time></trkpt><trkpt lat="40.893513175328074" lon="8.699430946041259"><ele>64.0</ele><time>2026-04-26T13:01:47Z</time></trkpt><trkpt lat="40.89351423867482" lon="8.69973186418871"><ele>64.0</ele><time>2026-04-26T13:01:48Z</time></trkpt><trkpt lat="40.89351573756568" lon="8.70003616181993"><ele>64.0</ele><time>2026-04-26T13:01:49Z</time></trkpt><trkpt lat="40.8935173564564" lon="8.700351780336609"><ele>64.0</ele><time>2026-04-26T13:01:50Z</time></trkpt><trkpt lat="40.893518123824556" lon="8.700677872325567"><ele>64.0</ele><time>2026-04-26T13:01:51Z</time></trkpt><trkpt lat="40.89351747398852" lon="8.70101842786828"><ele>65.5</ele><time>2026-04-26T13:01:52Z</time></trkpt><trkpt lat="40.893516196046996" lon="8.701351018705566"><ele>67.0</ele><time>2026-04-26T13:01:53Z</time></trkpt><trkpt lat="40.893513015922196" lon="8.701655633348487"><ele>68.5</ele><time>2026-04-26T13:01:54Z</time></trkpt><trkpt lat="40.89351101695426" lon="8.701955676850089"><ele>70.0</ele><time>2026-04-26T13:01:55Z</time></trkpt><trkpt lat="40.89350713509258" lon="8.7022537596726"><ele>70.0</ele><time>2026-04-26T13:01:56Z</time></trkpt><trkpt lat="40.89349989939931" lon="8.70255003481808"><ele>70.0</ele><time>2026-04-26T13:01:57Z</time></trkpt><trkpt lat="40.89348343363277" lon="8.702846380720349"><ele>70.0</ele><time>2026-04-26T13:01:58Z</time></trkpt><trkpt lat="40.89344903925654" lon="8.703148431023429"><ele>69.5</ele><time>2026-04-26T13:01:59Z</time></trkpt><trkpt lat="40.89340448542537" lon="8.703460457761453"><ele>69.0</ele><time>2026-04-26T13:02:00Z</time></trkpt><trkpt lat="40.89334624889367" lon="8.70378667591484"><ele>69.0</ele><time>2026-04-26T13:02:01Z</time></trkpt><trkpt lat="40.89327668713259" lon="8.704104903842646"><ele>69.0</ele><time>2026-04-26T13:02:02Z</time></trkpt><trkpt lat="40.89320628427148" lon="8.704395406698305"><ele>70.33333333333333</ele><time>2026-04-26T13:02:03Z</time></trkpt><trkpt lat="40.893138568803224" lon="8.704669362526817"><ele>71.66666666666666</ele><time>2026-04-26T13:02:04Z</time></trkpt><trkpt lat="40.89307482991215" lon="8.704928747617512"><ele>73.0</ele><time>2026-04-26T13:02:05Z</time></trkpt><trkpt lat="40.89301290071446" lon="8.705184456666526"><ele>73.66666666666666</ele><time>2026-04-26T13:02:06Z</time></trkpt><trkpt lat="40.892950245402524" lon="8.705440356156096"><ele>74.33333333333333</ele><time>2026-04-26T13:02:07Z</time></trkpt><trkpt lat="40.892891265392734" lon="8.705697482865281"><ele>75.0</ele><time>2026-04-26T13:02:08Z</time></trkpt><trkpt lat="40.89283586541381" lon="8.705957278037744"><ele>74.33333333333333</ele><time>2026-04-26T13:02:09Z</time></trkpt><trkpt lat="40.89278228934323" lon="8.706217099161764"><ele>73.66666666666666</ele><time>2026-04-26T13:02:10Z</time></trkpt><trkpt lat="40.89273012633347" lon="8.706482892260736"><ele>73.0</ele><time>2026-04-26T13:02:11Z</time></trkpt><trkpt lat="40.892681448086" lon="8.706761595907995"><ele>70.5</ele><time>2026-04-26T13:02:12Z</time></trkpt><trkpt lat="40.892639745037506" lon="8.707054640642165"><ele>68.0</ele><time>2026-04-26T13:02:13Z</time></trkpt><trkpt lat="40.89260351516137" lon="8.70736385919784"><ele>66.5</ele><time>2026-04-26T13:02:14Z</time></trkpt><trkpt lat="40.89257194850872" lon="8.707679112631912"><ele>65.0</ele><time>2026-04-26T13:02:15Z</time></trkpt><trkpt lat="40.89254618083209" lon="8.708009915139408"><ele>61.5</ele><time>2026-04-26T13:02:16Z</time></trkpt><trkpt lat="40.89251230991779" lon="8.708346818781044"><ele>58.0</ele><time>2026-04-26T13:02:17Z</time></trkpt><trkpt lat="40.892500242819956" lon="8.708686244168938"><ele>56.0</ele><time>2026-04-26T13:02:18Z</time></trkpt><trkpt lat="40.89248311241264" lon="8.709026157559986"><ele>54.0</ele><time>2026-04-26T13:02:19.001Z</time></trkpt><trkpt lat="40.89246364063725" lon="8.709364987643466"><ele>55.5</ele><time>2026-04-26T13:02:20.001Z</time></trkpt><trkpt lat="40.89244591140458" lon="8.709699121942911"><ele>57.0</ele><time>2026-04-26T13:02:21.001Z</time></trkpt><trkpt lat="40.89243160572447" lon="8.710032128345059"><ele>58.5</ele><time>2026-04-26T13:02:22.001Z</time></trkpt><trkpt lat="40.89241715165247" lon="8.710358603919346"><ele>60.0</ele><time>2026-04-26T13:02:23.001Z</time></trkpt><trkpt lat="40.89240105107432" lon="8.710695423406284"><ele>60.0</ele><time>2026-04-26T13:02:24.001Z</time></trkpt><trkpt lat="40.8923850973478" lon="8.711040262951812"><ele>60.0</ele><time>2026-04-26T13:02:25.001Z</time></trkpt><trkpt lat="40.89236980076319" lon="8.711377547092873"><ele>58.5</ele><time>2026-04-26T13:02:26.001Z</time></trkpt><trkpt lat="40.89235596056772" lon="8.711714998362524"><ele>57.0</ele><time>2026-04-26T13:02:27.001Z</time></trkpt><trkpt lat="40.89234154382288" lon="8.712038429569763"><ele>61.0</ele><time>2026-04-26T13:02:28.001Z</time></trkpt><trkpt lat="40.89232598400287" lon="8.712353124536472"><ele>65.0</ele><time>2026-04-26T13:02:29.001Z</time></trkpt><trkpt lat="40.892310042522006" lon="8.71266255593403"><ele>65.0</ele><time>2026-04-26T13:02:30.001Z</time></trkpt><trkpt lat="40.89228928924973" lon="8.712969796503575"><ele>65.0</ele><time>2026-04-26T13:02:31.001Z</time></trkpt><trkpt lat="40.8922534347994" lon="8.713270123888716"><ele>65.0</ele><time>2026-04-26T13:02:32.001Z</time></trkpt><trkpt lat="40.892191110595995" lon="8.713559685039748"><ele>65.0</ele><time>2026-04-26T13:02:33.001Z</time></trkpt><trkpt lat="40.89210425454375" lon="8.713845081017297"><ele>63.0</ele><time>2026-04-26T13:02:34.001Z</time></trkpt><trkpt lat="40.89199895432863" lon="8.714134039461415"><ele>61.0</ele><time>2026-04-26T13:02:35.001Z</time></trkpt><trkpt lat="40.891869820333255" lon="8.71441537525704"><ele>65.0</ele><time>2026-04-26T13:02:36.001Z</time></trkpt><trkpt lat="40.891719111606065" lon="8.714687973859649"><ele>69.0</ele><time>2026-04-26T13:02:37.001Z</time></trkpt><trkpt lat="40.891554199972546" lon="8.714947822477171"><ele>69.0</ele><time>2026-04-26T13:02:38.001Z</time></trkpt><trkpt lat="40.89137593526322" lon="8.715210350758516"><ele>69.0</ele><time>2026-04-26T13:02:39.001Z</time></trkpt><trkpt lat="40.89119534012051" lon="8.71546795965695"><ele>74.0</ele><time>2026-04-26T13:02:40.001Z</time></trkpt><trkpt lat="40.89101231603348" lon="8.715735037492372"><ele>79.0</ele><time>2026-04-26T13:02:41.001Z</time></trkpt><trkpt lat="40.89082889202056" lon="8.716005565243265"><ele>72.5</ele><time>2026-04-26T13:02:42.001Z</time></trkpt><trkpt lat="40.89064756082587" lon="8.71627910002682"><ele>66.0</ele><time>2026-04-26T13:02:43.001Z</time></trkpt><trkpt lat="40.89046427393733" lon="8.716554833486729"><ele>66.0</ele><time>2026-04-26T13:02:44.001Z</time></trkpt><trkpt lat="40.890280289278905" lon="8.716834114458152"><ele>66.0</ele><time>2026-04-26T13:02:45.001Z</time></trkpt><trkpt lat="40.8900907508017" lon="8.717115202511568"><ele>73.0</ele><time>2026-04-26T13:02:46.001Z</time></trkpt><trkpt lat="40.88990169705765" lon="8.717398429192366"><ele>80.0</ele><time>2026-04-26T13:02:47.001Z</time></trkpt><trkpt lat="40.88971095978733" lon="8.717683623716532"><ele>74.5</ele><time>2026-04-26T13:02:48.001Z</time></trkpt><trkpt lat="40.889520725328836" lon="8.717970523928438"><ele>69.0</ele><time>2026-04-26T13:02:49.001Z</time></trkpt><trkpt lat="40.889332964697964" lon="8.718259209811986"><ele>73.5</ele><time>2026-04-26T13:02:50.001Z</time></trkpt><trkpt lat="40.88915450413911" lon="8.718552354511946"><ele>78.0</ele><time>2026-04-26T13:02:51.001Z</time></trkpt><trkpt lat="40.88897831009312" lon="8.718862355958935"><ele>78.0</ele><time>2026-04-26T13:02:52.001Z</time></trkpt><trkpt lat="40.88880886743053" lon="8.719181054118636"><ele>78.0</ele><time>2026-04-26T13:02:53.001Z</time></trkpt><trkpt lat="40.888649139369846" lon="8.719510172398564"><ele>77.0</ele><time>2026-04-26T13:02:54.001Z</time></trkpt><trkpt lat="40.8884911249487" lon="8.71984531907614"><ele>76.0</ele><time>2026-04-26T13:02:55.001Z</time></trkpt><trkpt lat="40.888335401546655" lon="8.720184984824401"><ele>85.0</ele><time>2026-04-26T13:02:56.001Z</time></trkpt><trkpt lat="40.88818249640774" lon="8.720529322268813"><ele>94.0</ele><time>2026-04-26T13:02:57.001Z</time></trkpt><trkpt lat="40.88802901863254" lon="8.720876775402086"><ele>94.0</ele><time>2026-04-26T13:02:58.001Z</time></trkpt><trkpt lat="40.887873083499166" lon="8.721225591477861"><ele>94.0</ele><time>2026-04-26T13:02:59.001Z</time></trkpt><trkpt lat="40.88771469283056" lon="8.721570105454928"><ele>93.0</ele><time>2026-04-26T13:03:00.001Z</time></trkpt><trkpt lat="40.88756143929521" lon="8.721908245067826"><ele>92.0</ele><time>2026-04-26T13:03:01.001Z</time></trkpt><trkpt lat="40.88741891219445" lon="8.722227285523433"><ele>92.0</ele><time>2026-04-26T13:03:02.001Z</time></trkpt><trkpt lat="40.887288634931046" lon="8.722518031681668"><ele>92.0</ele><time>2026-04-26T13:03:03.001Z</time></trkpt><trkpt lat="40.88717065840187" lon="8.722805223352518"><ele>88.5</ele><time>2026-04-26T13:03:04.001Z</time></trkpt><trkpt lat="40.88706928212181" lon="8.72311179969846"><ele>85.0</ele><time>2026-04-26T13:03:05.001Z</time></trkpt><trkpt lat="40.886982797005516" lon="8.723435198746719"><ele>83.0</ele><time>2026-04-26T13:03:06.001Z</time></trkpt><trkpt lat="40.88690478253931" lon="8.72378173366466"><ele>81.0</ele><time>2026-04-26T13:03:07Z</time></trkpt><trkpt lat="40.886841673328846" lon="8.724136187757383"><ele>82.0</ele><time>2026-04-26T13:03:08Z</time></trkpt><trkpt lat="40.88679691392342" lon="8.724493112125392"><ele>83.0</ele><time>2026-04-26T13:03:09Z</time></trkpt><trkpt lat="40.886766272695056" lon="8.724836598242556"><ele>84.5</ele><time>2026-04-26T13:03:10Z</time></trkpt><trkpt lat="40.88675518778346" lon="8.7251713228718"><ele>86.0</ele><time>2026-04-26T13:03:11Z</time></trkpt><trkpt lat="40.886761387787125" lon="8.725511840483119"><ele>86.0</ele><time>2026-04-26T13:03:12Z</time></trkpt><trkpt lat="40.88678229411968" lon="8.725870509455964"><ele>86.0</ele><time>2026-04-26T13:03:13Z</time></trkpt><trkpt lat="40.886812800600275" lon="8.726228057689248"><ele>88.5</ele><time>2026-04-26T13:03:14Z</time></trkpt><trkpt lat="40.886853785834816" lon="8.726559145493008"><ele>91.0</ele><time>2026-04-26T13:03:15Z</time></trkpt><trkpt lat="40.886908621001034" lon="8.726866247126788"><ele>93.0</ele><time>2026-04-26T13:03:16Z</time></trkpt><trkpt lat="40.88697659466335" lon="8.727168413125987"><ele>95.0</ele><time>2026-04-26T13:03:17Z</time></trkpt><trkpt lat="40.88705337282187" lon="8.727458671502003"><ele>95.0</ele><time>2026-04-26T13:03:18Z</time></trkpt><trkpt lat="40.88713906895396" lon="8.727722335285302"><ele>95.0</ele><time>2026-04-26T13:03:19Z</time></trkpt><trkpt lat="40.8872272862439" lon="8.72796802275579"><ele>95.0</ele><time>2026-04-26T13:03:20Z</time></trkpt><trkpt lat="40.88731787669825" lon="8.728200807847237"><ele>94.66666666666667</ele><time>2026-04-26T13:03:21Z</time></trkpt><trkpt lat="40.88741234424176" lon="8.728428200187217"><ele>94.33333333333333</ele><time>2026-04-26T13:03:22Z</time></trkpt><trkpt lat="40.88751100699789" lon="8.728652892966092"><ele>94.0</ele><time>2026-04-26T13:03:23Z</time></trkpt><trkpt lat="40.88761404926008" lon="8.728876895799775"><ele>94.0</ele><time>2026-04-26T13:03:24Z</time></trkpt><trkpt lat="40.88771429796187" lon="8.7291076579458"><ele>94.0</ele><time>2026-04-26T13:03:25Z</time></trkpt><trkpt lat="40.887811265793246" lon="8.729350681519552"><ele>94.0</ele><time>2026-04-26T13:03:26Z</time></trkpt><trkpt lat="40.887894371368176" lon="8.729604465351294"><ele>95.66666666666666</ele><time>2026-04-26T13:03:27Z</time></trkpt><trkpt lat="40.88795815474926" lon="8.729865839189827"><ele>97.33333333333333</ele><time>2026-04-26T13:03:28Z</time></trkpt><trkpt lat="40.88800149785808" lon="8.730134399431414"><ele>99.0</ele><time>2026-04-26T13:03:29Z</time></trkpt><trkpt lat="40.88803008084055" lon="8.73040346054726"><ele>101.0</ele><time>2026-04-26T13:03:30Z</time></trkpt><trkpt lat="40.88804677108429" lon="8.730658895595813"><ele>103.0</ele><time>2026-04-26T13:03:31Z</time></trkpt><trkpt lat="40.888051528882585" lon="8.730913187180988"><ele>105.0</ele><time>2026-04-26T13:03:32Z</time></trkpt><trkpt lat="40.888037586452604" lon="8.731167186022157"><ele>105.0</ele><time>2026-04-26T13:03:33Z</time></trkpt><trkpt lat="40.8880093946693" lon="8.731422197988074"><ele>105.0</ele><time>2026-04-26T13:03:34Z</time></trkpt><trkpt lat="40.88796581213448" lon="8.731677274675418"><ele>105.0</ele><time>2026-04-26T13:03:35Z</time></trkpt><trkpt lat="40.88790602766628" lon="8.73192490653206"><ele>105.0</ele><time>2026-04-26T13:03:36Z</time></trkpt><trkpt lat="40.88783519353362" lon="8.73216901439637"><ele>105.0</ele><time>2026-04-26T13:03:37Z</time></trkpt><trkpt lat="40.887761752682756" lon="8.73240397139415"><ele>105.0</ele><time>2026-04-26T13:03:38Z</time></trkpt><trkpt lat="40.88769040153689" lon="8.732634381864958"><ele>106.33333333333334</ele><time>2026-04-26T13:03:39Z</time></trkpt><trkpt lat="40.88761976535759" lon="8.73285639963047"><ele>107.66666666666667</ele><time>2026-04-26T13:03:40Z</time></trkpt><trkpt lat="40.88754927644095" lon="8.733070195789951"><ele>109.0</ele><time>2026-04-26T13:03:41Z</time></trkpt><trkpt lat="40.887480761312965" lon="8.733277835991604"><ele>109.0</ele><time>2026-04-26T13:03:42Z</time></trkpt><trkpt lat="40.88741320698377" lon="8.733483990985128"><ele>109.0</ele><time>2026-04-26T13:03:43Z</time></trkpt><trkpt lat="40.88734957573946" lon="8.733683499660568"><ele>109.0</ele><time>2026-04-26T13:03:44Z</time></trkpt><trkpt lat="40.887276931161956" lon="8.733903475176435"><ele>111.66666666666667</ele><time>2026-04-26T13:03:45Z</time></trkpt><trkpt lat="40.8872081702266" lon="8.73412607974766"><ele>114.33333333333334</ele><time>2026-04-26T13:03:46Z</time></trkpt><trkpt lat="40.88714369973224" lon="8.734347233428169"><ele>117.0</ele><time>2026-04-26T13:03:47Z</time></trkpt><trkpt lat="40.88707135608132" lon="8.734570852706785"><ele>120.0</ele><time>2026-04-26T13:03:48Z</time></trkpt><trkpt lat="40.88699370774405" lon="8.734803891960038"><ele>123.0</ele><time>2026-04-26T13:03:49Z</time></trkpt><trkpt lat="40.886921383884584" lon="8.735032859328335"><ele>126.0</ele><time>2026-04-26T13:03:50Z</time></trkpt><trkpt lat="40.8868485976756" lon="8.73525597071166"><ele>126.33333333333334</ele><time>2026-04-26T13:03:51Z</time></trkpt><trkpt lat="40.8867748169735" lon="8.73547595068783"><ele>126.66666666666667</ele><time>2026-04-26T13:03:52Z</time></trkpt><trkpt lat="40.88670207394715" lon="8.735693023012027"><ele>127.0</ele><time>2026-04-26T13:03:53Z</time></trkpt><trkpt lat="40.88663682494929" lon="8.735914367922302"><ele>129.33333333333334</ele><time>2026-04-26T13:03:54Z</time></trkpt><trkpt lat="40.88658083560744" lon="8.736142680506989"><ele>131.66666666666666</ele><time>2026-04-26T13:03:55Z</time></trkpt><trkpt lat="40.886534236878404" lon="8.736391431908125"><ele>134.0</ele><time>2026-04-26T13:03:56Z</time></trkpt><trkpt lat="40.88649607348057" lon="8.736632313122895"><ele>134.0</ele><time>2026-04-26T13:03:57Z</time></trkpt><trkpt lat="40.886474473313825" lon="8.73685481468733"><ele>134.0</ele><time>2026-04-26T13:03:58Z</time></trkpt><trkpt lat="40.88646413139719" lon="8.737078079336186"><ele>134.0</ele><time>2026-04-26T13:03:59Z</time></trkpt><trkpt lat="40.886467912109126" lon="8.737296654677001"><ele>135.66666666666666</ele><time>2026-04-26T13:04:00Z</time></trkpt><trkpt lat="40.8864809819233" lon="8.737503287364325"><ele>137.33333333333334</ele><time>2026-04-26T13:04:01Z</time></trkpt><trkpt lat="40.88650415072921" lon="8.737700917111903"><ele>139.0</ele><time>2026-04-26T13:04:02Z</time></trkpt><trkpt lat="40.88653452061563" lon="8.737901495322212"><ele>140.33333333333334</ele><time>2026-04-26T13:04:03Z</time></trkpt><trkpt lat="40.886568095236875" lon="8.738097865874163"><ele>141.66666666666666</ele><time>2026-04-26T13:04:04Z</time></trkpt><trkpt lat="40.88660032485093" lon="8.73829697212937"><ele>143.0</ele><time>2026-04-26T13:04:05Z</time></trkpt><trkpt lat="40.886633633765996" lon="8.738502460985124"><ele>142.66666666666666</ele><time>2026-04-26T13:04:06Z</time></trkpt><trkpt lat="40.88666778267159" lon="8.738715903718502"><ele>142.33333333333334</ele><time>2026-04-26T13:04:07Z</time></trkpt><trkpt lat="40.88670569683631" lon="8.738935223982784"><ele>142.0</ele><time>2026-04-26T13:04:08.001Z</time></trkpt><trkpt lat="40.88674602486146" lon="8.73916252389699"><ele>146.66666666666669</ele><time>2026-04-26T13:04:09.001Z</time></trkpt><trkpt lat="40.8867839843657" lon="8.739393438249209"><ele>151.33333333333334</ele><time>2026-04-26T13:04:10.001Z</time></trkpt><trkpt lat="40.88682074360058" lon="8.73960767386481"><ele>156.0</ele><time>2026-04-26T13:04:11.001Z</time></trkpt><trkpt lat="40.88685802813364" lon="8.739810260548147"><ele>156.0</ele><time>2026-04-26T13:04:12.001Z</time></trkpt><trkpt lat="40.886902426433586" lon="8.740011444898773"><ele>156.0</ele><time>2026-04-26T13:04:13.001Z</time></trkpt><trkpt lat="40.88695019199994" lon="8.740207954196002"><ele>156.0</ele><time>2026-04-26T13:04:14.001Z</time></trkpt><trkpt lat="40.88700239622405" lon="8.740405630070475"><ele>155.0</ele><time>2026-04-26T13:04:15.001Z</time></trkpt><trkpt lat="40.887059038721866" lon="8.740604788450469"><ele>154.0</ele><time>2026-04-26T13:04:16.001Z</time></trkpt><trkpt lat="40.88711563089802" lon="8.740794674930186"><ele>153.0</ele><time>2026-04-26T13:04:17.001Z</time></trkpt><trkpt lat="40.88715576398759" lon="8.74093775640507"><ele>152.0</ele><time>2026-04-26T13:04:18.001Z</time></trkpt><trkpt lat="40.88717514138273" lon="8.74102384995876"><ele>152.66666666666666</ele><time>2026-04-26T13:04:19.001Z</time></trkpt><trkpt lat="40.887196101278484" lon="8.741108139962552"><ele>153.33333333333331</ele><time>2026-04-26T13:04:48.001Z</time></trkpt><trkpt lat="40.88723891100213" lon="8.741174372465723"><ele>154.0</ele><time>2026-04-26T13:04:49.001Z</time></trkpt><trkpt lat="40.88728097685549" lon="8.741280006345148"><ele>154.66666666666666</ele><time>2026-04-26T13:04:50.001Z</time></trkpt><trkpt lat="40.88733441112855" lon="8.741398591238928"><ele>155.33333333333334</ele><time>2026-04-26T13:04:51.001Z</time></trkpt><trkpt lat="40.88739420898245" lon="8.741534810110318"><ele>156.0</ele><time>2026-04-26T13:04:52.001Z</time></trkpt><trkpt lat="40.887468397814764" lon="8.741708739073072"><ele>159.66666666666666</ele><time>2026-04-26T13:04:53.001Z</time></trkpt><trkpt lat="40.88755520812057" lon="8.741898646755768"><ele>163.33333333333331</ele><time>2026-04-26T13:04:54.001Z</time></trkpt><trkpt lat="40.88765313440821" lon="8.742095334085977"><ele>167.0</ele><time>2026-04-26T13:04:55.001Z</time></trkpt><trkpt lat="40.88776013428568" lon="8.742293199646038"><ele>168.0</ele><time>2026-04-26T13:04:56.001Z</time></trkpt><trkpt lat="40.8878738117817" lon="8.742484525179584"><ele>169.0</ele><time>2026-04-26T13:04:57.001Z</time></trkpt><trkpt lat="40.8879922542448" lon="8.742664640617399"><ele>170.0</ele><time>2026-04-26T13:04:58.001Z</time></trkpt><trkpt lat="40.88810818717095" lon="8.74283493144832"><ele>172.66666666666666</ele><time>2026-04-26T13:04:59.001Z</time></trkpt><trkpt lat="40.88821671307897" lon="8.74299488945069"><ele>175.33333333333334</ele><time>2026-04-26T13:05:00.001Z</time></trkpt><trkpt lat="40.888319397206295" lon="8.743147924633673"><ele>178.0</ele><time>2026-04-26T13:05:01.001Z</time></trkpt><trkpt lat="40.88841424754194" lon="8.743288836878364"><ele>178.0</ele><time>2026-04-26T13:05:02.001Z</time></trkpt><trkpt lat="40.88851241717751" lon="8.743432560225276"><ele>178.0</ele><time>2026-04-26T13:05:03.001Z</time></trkpt><trkpt lat="40.88861204259518" lon="8.743580956519082"><ele>178.0</ele><time>2026-04-26T13:05:04.001Z</time></trkpt><trkpt lat="40.88871504051486" lon="8.74373369532124"><ele>179.5</ele><time>2026-04-26T13:05:05.023Z</time></trkpt><trkpt lat="40.888816887074455" lon="8.743884222285963"><ele>181.0</ele><time>2026-04-26T13:05:06.023Z</time></trkpt><trkpt lat="40.8888878115984" lon="8.744002176326827"><ele>182.5</ele><time>2026-04-26T13:05:07.015Z</time></trkpt><trkpt lat="40.88898362101232" lon="8.744146355289331"><ele>184.0</ele><time>2026-04-26T13:05:08.022Z</time></trkpt><trkpt lat="40.88908101794453" lon="8.744293705491557"><ele>183.0</ele><time>2026-04-26T13:05:09.025Z</time></trkpt><trkpt lat="40.88917648529083" lon="8.744438744933852"><ele>182.0</ele><time>2026-04-26T13:05:10.016Z</time></trkpt><trkpt lat="40.88927029300814" lon="8.744580210408158"><ele>181.0</ele><time>2026-04-26T13:05:11.016Z</time></trkpt><trkpt lat="40.88936414550656" lon="8.744722391244359"><ele>180.0</ele><time>2026-04-26T13:05:12.025Z</time></trkpt><trkpt lat="40.89045186530881" lon="8.746336167686382"><ele>170.0</ele><time>2026-04-26T13:05:21Z</time></trkpt><trkpt lat="40.890578072435616" lon="8.74653629891926"><ele>160.0</ele><time>2026-04-26T13:05:22Z</time></trkpt><trkpt lat="40.8906927329612" lon="8.746740814741798"><ele>150.0</ele><time>2026-04-26T13:05:23Z</time></trkpt><trkpt lat="40.89080576701706" lon="8.746970891537995"><ele>148.0</ele><time>2026-04-26T13:05:24Z</time></trkpt><trkpt lat="40.89091561269981" lon="8.747211778940121"><ele>146.0</ele><time>2026-04-26T13:05:25Z</time></trkpt><trkpt lat="40.8910259271311" lon="8.747469425447203"><ele>144.0</ele><time>2026-04-26T13:05:26Z</time></trkpt><trkpt lat="40.89109552036027" lon="8.747738779502921"><ele>141.5</ele><time>2026-04-26T13:05:27Z</time></trkpt><trkpt lat="40.8911835584636" lon="8.748011703335754"><ele>139.0</ele><time>2026-04-26T13:05:28Z</time></trkpt><trkpt lat="40.89126658413483" lon="8.748295477223676"><ele>138.5</ele><time>2026-04-26T13:05:29Z</time></trkpt><trkpt lat="40.89133632920029" lon="8.748590450198714"><ele>138.0</ele><time>2026-04-26T13:05:30Z</time></trkpt><trkpt lat="40.89139642785949" lon="8.748904066782089"><ele>138.0</ele><time>2026-04-26T13:05:31Z</time></trkpt><trkpt lat="40.89144789436307" lon="8.749218123672726"><ele>138.0</ele><time>2026-04-26T13:05:32Z</time></trkpt><trkpt lat="40.89148514138597" lon="8.749542198494977"><ele>137.5</ele><time>2026-04-26T13:05:33Z</time></trkpt><trkpt lat="40.89151478227717" lon="8.749872978328998"><ele>137.0</ele><time>2026-04-26T13:05:34Z</time></trkpt><trkpt lat="40.89153723630936" lon="8.750203356574392"><ele>137.5</ele><time>2026-04-26T13:05:35Z</time></trkpt><trkpt lat="40.89156115519246" lon="8.750535405164188"><ele>138.0</ele><time>2026-04-26T13:05:36Z</time></trkpt><trkpt lat="40.891586276618334" lon="8.750871537405459"><ele>136.5</ele><time>2026-04-26T13:05:37Z</time></trkpt><trkpt lat="40.891615812068174" lon="8.751210869809283"><ele>135.0</ele><time>2026-04-26T13:05:38Z</time></trkpt><trkpt lat="40.89164493187732" lon="8.751549703426496"><ele>135.0</ele><time>2026-04-26T13:05:39Z</time></trkpt><trkpt lat="40.89167237992478" lon="8.75188843323634"><ele>135.0</ele><time>2026-04-26T13:05:40Z</time></trkpt><trkpt lat="40.891697224337335" lon="8.752225595370072"><ele>135.0</ele><time>2026-04-26T13:05:41Z</time></trkpt><trkpt lat="40.89172421743068" lon="8.752564208331956"><ele>135.0</ele><time>2026-04-26T13:05:42Z</time></trkpt><trkpt lat="40.89175120555711" lon="8.752903773147583"><ele>133.0</ele><time>2026-04-26T13:05:43Z</time></trkpt><trkpt lat="40.89176928015559" lon="8.753242582791204"><ele>131.0</ele><time>2026-04-26T13:05:44Z</time></trkpt><trkpt lat="40.891799969855526" lon="8.753584591460122"><ele>128.0</ele><time>2026-04-26T13:05:45Z</time></trkpt><trkpt lat="40.89182260791871" lon="8.753916335311803"><ele>125.0</ele><time>2026-04-26T13:05:46Z</time></trkpt><trkpt lat="40.891848868581356" lon="8.754242215283602"><ele>124.5</ele><time>2026-04-26T13:05:47Z</time></trkpt><trkpt lat="40.89188691320305" lon="8.754558488348056"><ele>124.0</ele><time>2026-04-26T13:05:48Z</time></trkpt><trkpt lat="40.891934537652034" lon="8.754870365274048"><ele>124.0</ele><time>2026-04-26T13:05:49Z</time></trkpt><trkpt lat="40.89199304764466" lon="8.755179927255076"><ele>124.0</ele><time>2026-04-26T13:05:50Z</time></trkpt><trkpt lat="40.89206123923016" lon="8.755480865382758"><ele>121.0</ele><time>2026-04-26T13:05:51Z</time></trkpt><trkpt lat="40.89213922370987" lon="8.75577508222277"><ele>118.0</ele><time>2026-04-26T13:05:52Z</time></trkpt><trkpt lat="40.892221970812244" lon="8.756058852151106"><ele>115.0</ele><time>2026-04-26T13:05:53Z</time></trkpt><trkpt lat="40.892316312118844" lon="8.756334004894542"><ele>112.0</ele><time>2026-04-26T13:05:54Z</time></trkpt><trkpt lat="40.8924201404597" lon="8.756602300089044"><ele>112.0</ele><time>2026-04-26T13:05:55Z</time></trkpt><trkpt lat="40.89253265075865" lon="8.756864786979074"><ele>112.0</ele><time>2026-04-26T13:05:56Z</time></trkpt><trkpt lat="40.8926532827199" lon="8.757121736379744"><ele>112.5</ele><time>2026-04-26T13:05:57Z</time></trkpt><trkpt lat="40.89278131905921" lon="8.757370914801317"><ele>113.0</ele><time>2026-04-26T13:05:58Z</time></trkpt><trkpt lat="40.89292018301176" lon="8.757620777985652"><ele>112.0</ele><time>2026-04-26T13:05:59Z</time></trkpt><trkpt lat="40.8930708088387" lon="8.757870290638758"><ele>111.0</ele><time>2026-04-26T13:06:00Z</time></trkpt><trkpt lat="40.89323295115772" lon="8.758124161352704"><ele>111.0</ele><time>2026-04-26T13:06:01Z</time></trkpt><trkpt lat="40.89340116819068" lon="8.7583809689489"><ele>111.0</ele><time>2026-04-26T13:06:02Z</time></trkpt><trkpt lat="40.89356857139849" lon="8.758638513207659"><ele>111.0</ele><time>2026-04-26T13:06:03Z</time></trkpt><trkpt lat="40.8937306494486" lon="8.758890441344416"><ele>111.0</ele><time>2026-04-26T13:06:04Z</time></trkpt><trkpt lat="40.89389545997135" lon="8.759139265801654"><ele>109.5</ele><time>2026-04-26T13:06:05Z</time></trkpt><trkpt lat="40.894050910372734" lon="8.759368876528379"><ele>108.0</ele><time>2026-04-26T13:06:06Z</time></trkpt><trkpt lat="40.89420149167034" lon="8.759587118238676"><ele>109.5</ele><time>2026-04-26T13:06:07Z</time></trkpt><trkpt lat="40.894346584611114" lon="8.759812164265135"><ele>111.0</ele><time>2026-04-26T13:06:08Z</time></trkpt><trkpt lat="40.894492083032965" lon="8.760049800436622"><ele>109.0</ele><time>2026-04-26T13:06:09Z</time></trkpt><trkpt lat="40.89465480258942" lon="8.760290973381478"><ele>107.0</ele><time>2026-04-26T13:06:10Z</time></trkpt><trkpt lat="40.89482077096592" lon="8.760544524035339"><ele>107.0</ele><time>2026-04-26T13:06:11Z</time></trkpt><trkpt lat="40.89499070670846" lon="8.76081348410655"><ele>107.0</ele><time>2026-04-26T13:06:12Z</time></trkpt><trkpt lat="40.89516411999533" lon="8.761085160847207"><ele>107.0</ele><time>2026-04-26T13:06:13Z</time></trkpt><trkpt lat="40.89534653340683" lon="8.761362680610462"><ele>107.0</ele><time>2026-04-26T13:06:14Z</time></trkpt><trkpt lat="40.895529619530826" lon="8.761644175015585"><ele>106.5</ele><time>2026-04-26T13:06:15Z</time></trkpt><trkpt lat="40.89570631670713" lon="8.761920366871403"><ele>106.0</ele><time>2026-04-26T13:06:16Z</time></trkpt><trkpt lat="40.89587467036316" lon="8.762182987213595"><ele>107.0</ele><time>2026-04-26T13:06:17Z</time></trkpt><trkpt lat="40.896046348237206" lon="8.762449473902313"><ele>108.0</ele><time>2026-04-26T13:06:18Z</time></trkpt><trkpt lat="40.89622345765574" lon="8.762722887905118"><ele>108.0</ele><time>2026-04-26T13:06:19Z</time></trkpt><trkpt lat="40.89640468352482" lon="8.76299624144302"><ele>108.0</ele><time>2026-04-26T13:06:20Z</time></trkpt><trkpt lat="40.89658752701509" lon="8.763272929676358"><ele>107.5</ele><time>2026-04-26T13:06:21Z</time></trkpt><trkpt lat="40.89677045402771" lon="8.763555087974186"><ele>107.0</ele><time>2026-04-26T13:06:22Z</time></trkpt><trkpt lat="40.896953351325116" lon="8.763843147177239"><ele>107.0</ele><time>2026-04-26T13:06:23Z</time></trkpt><trkpt lat="40.89713926148894" lon="8.764131909752004"><ele>107.0</ele><time>2026-04-26T13:06:24Z</time></trkpt><trkpt lat="40.89732740293949" lon="8.764420288132532"><ele>106.5</ele><time>2026-04-26T13:06:25Z</time></trkpt><trkpt lat="40.89751662643089" lon="8.764710534513336"><ele>106.0</ele><time>2026-04-26T13:06:26Z</time></trkpt><trkpt lat="40.897705438972714" lon="8.765000705725823"><ele>109.0</ele><time>2026-04-26T13:06:27Z</time></trkpt><trkpt lat="40.897895495663434" lon="8.76529192897156"><ele>112.0</ele><time>2026-04-26T13:06:28Z</time></trkpt><trkpt lat="40.898087218617725" lon="8.765584679810631"><ele>112.0</ele><time>2026-04-26T13:06:29Z</time></trkpt><trkpt lat="40.89827805106346" lon="8.765880650458524"><ele>112.0</ele><time>2026-04-26T13:06:30Z</time></trkpt><trkpt lat="40.89846907221544" lon="8.766176374141319"><ele>113.0</ele><time>2026-04-26T13:06:31Z</time></trkpt><trkpt lat="40.89866361386831" lon="8.76647361910839"><ele>114.0</ele><time>2026-04-26T13:06:32Z</time></trkpt><trkpt lat="40.898858368611364" lon="8.766770105450407"><ele>114.0</ele><time>2026-04-26T13:06:33Z</time></trkpt><trkpt lat="40.89905305789928" lon="8.767069368148386"><ele>114.0</ele><time>2026-04-26T13:06:34Z</time></trkpt><trkpt lat="40.89924355903992" lon="8.767366072587311"><ele>116.5</ele><time>2026-04-26T13:06:35Z</time></trkpt><trkpt lat="40.89943276017959" lon="8.767657047837979"><ele>119.0</ele><time>2026-04-26T13:06:36Z</time></trkpt><trkpt lat="40.89962152883383" lon="8.767947802674058"><ele>119.0</ele><time>2026-04-26T13:06:37Z</time></trkpt><trkpt lat="40.89981140347303" lon="8.768242490214226"><ele>119.0</ele><time>2026-04-26T13:06:38Z</time></trkpt><trkpt lat="40.90000198162811" lon="8.768538257746433"><ele>121.5</ele><time>2026-04-26T13:06:39Z</time></trkpt><trkpt lat="40.900193266869316" lon="8.768835421615995"><ele>124.0</ele><time>2026-04-26T13:06:40Z</time></trkpt><trkpt lat="40.90038557207094" lon="8.769133516690525"><ele>122.5</ele><time>2026-04-26T13:06:41Z</time></trkpt><trkpt lat="40.90057907928502" lon="8.769432921021806"><ele>121.0</ele><time>2026-04-26T13:06:42Z</time></trkpt><trkpt lat="40.90077434297766" lon="8.769732852686909"><ele>121.5</ele><time>2026-04-26T13:06:43Z</time></trkpt><trkpt lat="40.900959128892794" lon="8.770020331576735"><ele>122.0</ele><time>2026-04-26T13:06:44Z</time></trkpt><trkpt lat="40.90113292908327" lon="8.770285570042276"><ele>117.0</ele><time>2026-04-26T13:06:45Z</time></trkpt><trkpt lat="40.901298133832064" lon="8.770540797774242"><ele>112.0</ele><time>2026-04-26T13:06:46Z</time></trkpt><trkpt lat="40.901459410840914" lon="8.770793234112746"><ele>111.0</ele><time>2026-04-26T13:06:47Z</time></trkpt><trkpt lat="40.9016166893829" lon="8.771044226938049"><ele>110.0</ele><time>2026-04-26T13:06:48Z</time></trkpt><trkpt lat="40.90177223523038" lon="8.771295776706813"><ele>110.0</ele><time>2026-04-26T13:06:49Z</time></trkpt><trkpt lat="40.90192432940569" lon="8.771547500302448"><ele>110.0</ele><time>2026-04-26T13:06:50Z</time></trkpt><trkpt lat="40.90207049808368" lon="8.771802462484594"><ele>108.5</ele><time>2026-04-26T13:06:51Z</time></trkpt><trkpt lat="40.90220502474917" lon="8.772067991316673"><ele>107.0</ele><time>2026-04-26T13:06:52Z</time></trkpt><trkpt lat="40.9023245534077" lon="8.772348621471723"><ele>107.0</ele><time>2026-04-26T13:06:53Z</time></trkpt><trkpt lat="40.902432558680076" lon="8.772642780538538"><ele>107.0</ele><time>2026-04-26T13:06:54.001Z</time></trkpt><trkpt lat="40.902527947471256" lon="8.772940571131855"><ele>108.5</ele><time>2026-04-26T13:06:55.001Z</time></trkpt><trkpt lat="40.90261536325987" lon="8.773245567690203"><ele>110.0</ele><time>2026-04-26T13:06:56.001Z</time></trkpt><trkpt lat="40.90269046345527" lon="8.773555792056321"><ele>107.0</ele><time>2026-04-26T13:06:57.001Z</time></trkpt><trkpt lat="40.902749338078955" lon="8.773871400758525"><ele>104.0</ele><time>2026-04-26T13:06:58.001Z</time></trkpt><trkpt lat="40.90279359775922" lon="8.774190973482725"><ele>102.5</ele><time>2026-04-26T13:06:59.001Z</time></trkpt><trkpt lat="40.90282446831501" lon="8.774513228949775"><ele>101.0</ele><time>2026-04-26T13:07:00.001Z</time></trkpt><trkpt lat="40.90284100390875" lon="8.774838559204204"><ele>101.0</ele><time>2026-04-26T13:07:01.001Z</time></trkpt><trkpt lat="40.90284398964592" lon="8.775167571546277"><ele>101.0</ele><time>2026-04-26T13:07:02.001Z</time></trkpt><trkpt lat="40.902833646386455" lon="8.775498134715138"><ele>100.0</ele><time>2026-04-26T13:07:03.001Z</time></trkpt><trkpt lat="40.90281353578081" lon="8.7758405808335"><ele>99.0</ele><time>2026-04-26T13:07:04.001Z</time></trkpt><trkpt lat="40.90279010843897" lon="8.776185849380745"><ele>98.0</ele><time>2026-04-26T13:07:05.001Z</time></trkpt><trkpt lat="40.90276502894045" lon="8.776516960337668"><ele>97.0</ele><time>2026-04-26T13:07:06.001Z</time></trkpt><trkpt lat="40.90274198366058" lon="8.776844543982994"><ele>97.0</ele><time>2026-04-26T13:07:07.001Z</time></trkpt><trkpt lat="40.90271918546158" lon="8.777170645464906"><ele>97.0</ele><time>2026-04-26T13:07:08.001Z</time></trkpt><trkpt lat="40.90269822434836" lon="8.777486148103982"><ele>98.0</ele><time>2026-04-26T13:07:09.001Z</time></trkpt><trkpt lat="40.90267853925642" lon="8.77779367697907"><ele>99.0</ele><time>2026-04-26T13:07:10Z</time></trkpt><trkpt lat="40.90265618687553" lon="8.778093976075203"><ele>99.0</ele><time>2026-04-26T13:07:11Z</time></trkpt><trkpt lat="40.90263319928522" lon="8.778389684665441"><ele>99.0</ele><time>2026-04-26T13:07:12Z</time></trkpt><trkpt lat="40.90261234737087" lon="8.77868210974575"><ele>99.0</ele><time>2026-04-26T13:07:13Z</time></trkpt><trkpt lat="40.90259180011615" lon="8.778973935029756"><ele>96.66666666666667</ele><time>2026-04-26T13:07:14Z</time></trkpt><trkpt lat="40.90257311851182" lon="8.779264555814148"><ele>94.33333333333334</ele><time>2026-04-26T13:07:15Z</time></trkpt><trkpt lat="40.90255464806526" lon="8.779553930248559"><ele>92.0</ele><time>2026-04-26T13:07:16Z</time></trkpt><trkpt lat="40.9025373933294" lon="8.779843993064027"><ele>92.0</ele><time>2026-04-26T13:07:17Z</time></trkpt><trkpt lat="40.90251981935933" lon="8.78013654359686"><ele>92.0</ele><time>2026-04-26T13:07:18Z</time></trkpt><trkpt lat="40.90249997263236" lon="8.780434122801475"><ele>92.0</ele><time>2026-04-26T13:07:19Z</time></trkpt><trkpt lat="40.902479818688015" lon="8.780734758424572"><ele>90.33333333333334</ele><time>2026-04-26T13:07:20Z</time></trkpt><trkpt lat="40.90245848617143" lon="8.781029231920945"><ele>88.66666666666667</ele><time>2026-04-26T13:07:21Z</time></trkpt><trkpt lat="40.902435806103774" lon="8.781318238146481"><ele>87.0</ele><time>2026-04-26T13:07:22Z</time></trkpt><trkpt lat="40.90241426661964" lon="8.781610140592589"><ele>86.66666666666667</ele><time>2026-04-26T13:07:23Z</time></trkpt><trkpt lat="40.9023928996568" lon="8.781900057408677"><ele>86.33333333333334</ele><time>2026-04-26T13:07:24Z</time></trkpt><trkpt lat="40.90237257186883" lon="8.782174235852368"><ele>86.0</ele><time>2026-04-26T13:07:25Z</time></trkpt><trkpt lat="40.90235430252544" lon="8.782445839130018"><ele>86.66666666666667</ele><time>2026-04-26T13:07:26Z</time></trkpt><trkpt lat="40.902335108619" lon="8.782714593747643"><ele>87.33333333333333</ele><time>2026-04-26T13:07:27Z</time></trkpt><trkpt lat="40.90231729415294" lon="8.782981560592328"><ele>88.0</ele><time>2026-04-26T13:07:28Z</time></trkpt><trkpt lat="40.9022977802631" lon="8.783248341058615"><ele>88.0</ele><time>2026-04-26T13:07:29Z</time></trkpt><trkpt lat="40.90227662919666" lon="8.78351617191506"><ele>88.0</ele><time>2026-04-26T13:07:30Z</time></trkpt><trkpt lat="40.90225496086621" lon="8.783785382475013"><ele>88.0</ele><time>2026-04-26T13:07:31Z</time></trkpt><trkpt lat="40.90223482239986" lon="8.784060075262085"><ele>88.0</ele><time>2026-04-26T13:07:32Z</time></trkpt><trkpt lat="40.90221474664263" lon="8.78434332058281"><ele>88.0</ele><time>2026-04-26T13:07:33Z</time></trkpt><trkpt lat="40.90219673320053" lon="8.784648088723573"><ele>88.0</ele><time>2026-04-26T13:07:34Z</time></trkpt><trkpt lat="40.90217558440701" lon="8.784963699594803"><ele>84.0</ele><time>2026-04-26T13:07:35Z</time></trkpt><trkpt lat="40.90214806204433" lon="8.785301586288051"><ele>80.0</ele><time>2026-04-26T13:07:36Z</time></trkpt><trkpt lat="40.90212361138131" lon="8.785640339985543"><ele>80.0</ele><time>2026-04-26T13:07:37Z</time></trkpt><trkpt lat="40.90209928158009" lon="8.785969255998602"><ele>80.0</ele><time>2026-04-26T13:07:38Z</time></trkpt><trkpt lat="40.9020742293405" lon="8.786293295857185"><ele>80.0</ele><time>2026-04-26T13:07:39Z</time></trkpt><trkpt lat="40.902052771012585" lon="8.786615714228844"><ele>80.0</ele><time>2026-04-26T13:07:40Z</time></trkpt><trkpt lat="40.90203130883375" lon="8.786926507408428"><ele>79.0</ele><time>2026-04-26T13:07:41Z</time></trkpt><trkpt lat="40.90201154229923" lon="8.78722053025562"><ele>78.0</ele><time>2026-04-26T13:07:42Z</time></trkpt><trkpt lat="40.9019953638769" lon="8.787502021419128"><ele>77.0</ele><time>2026-04-26T13:07:43Z</time></trkpt><trkpt lat="40.90199274546178" lon="8.787774814356041"><ele>76.0</ele><time>2026-04-26T13:07:44Z</time></trkpt><trkpt lat="40.90200478561731" lon="8.788041857317507"><ele>75.0</ele><time>2026-04-26T13:07:45Z</time></trkpt><trkpt lat="40.90202442051472" lon="8.78831076366756"><ele>74.0</ele><time>2026-04-26T13:07:46Z</time></trkpt><trkpt lat="40.902053922589296" lon="8.788580981074112"><ele>73.33333333333334</ele><time>2026-04-26T13:07:47Z</time></trkpt><trkpt lat="40.902096270404" lon="8.788853488060004"><ele>72.66666666666667</ele><time>2026-04-26T13:07:48Z</time></trkpt><trkpt lat="40.90214695845143" lon="8.789122829189857"><ele>72.0</ele><time>2026-04-26T13:07:49Z</time></trkpt><trkpt lat="40.90221084846509" lon="8.789392472093034"><ele>71.5</ele><time>2026-04-26T13:07:50Z</time></trkpt><trkpt lat="40.902288925391666" lon="8.789679356135109"><ele>71.0</ele><time>2026-04-26T13:07:51Z</time></trkpt><trkpt lat="40.90237722045075" lon="8.789969868241725"><ele>71.5</ele><time>2026-04-26T13:07:52Z</time></trkpt><trkpt lat="40.902485628674825" lon="8.79026337252863"><ele>72.0</ele><time>2026-04-26T13:07:53Z</time></trkpt><trkpt lat="40.90259552229393" lon="8.790540301129228"><ele>71.33333333333333</ele><time>2026-04-26T13:07:54Z</time></trkpt><trkpt lat="40.90269440888663" lon="8.790781651679126"><ele>70.66666666666666</ele><time>2026-04-26T13:07:55Z</time></trkpt><trkpt lat="40.902783210090575" lon="8.791001907316472"><ele>70.0</ele><time>2026-04-26T13:07:56Z</time></trkpt><trkpt lat="40.90286922506434" lon="8.791222068990276"><ele>70.0</ele><time>2026-04-26T13:07:57Z</time></trkpt><trkpt lat="40.902958048506804" lon="8.79144968799922"><ele>70.0</ele><time>2026-04-26T13:07:58Z</time></trkpt><trkpt lat="40.90304781789829" lon="8.791684276653442"><ele>70.0</ele><time>2026-04-26T13:07:59Z</time></trkpt><trkpt lat="40.90313950041691" lon="8.791921857868568"><ele>70.33333333333333</ele><time>2026-04-26T13:08:00Z</time></trkpt><trkpt lat="40.9032354877957" lon="8.792168394098287"><ele>70.66666666666667</ele><time>2026-04-26T13:08:01Z</time></trkpt><trkpt lat="40.903332326027765" lon="8.79241788877704"><ele>71.0</ele><time>2026-04-26T13:08:02Z</time></trkpt><trkpt lat="40.90342925967318" lon="8.792671630294164"><ele>71.0</ele><time>2026-04-26T13:08:03Z</time></trkpt><trkpt lat="40.903528153322824" lon="8.792924430332823"><ele>71.0</ele><time>2026-04-26T13:08:04Z</time></trkpt><trkpt lat="40.903626311840206" lon="8.793170507410004"><ele>71.0</ele><time>2026-04-26T13:08:05Z</time></trkpt><trkpt lat="40.90372361869193" lon="8.793414505532349"><ele>71.0</ele><time>2026-04-26T13:08:06Z</time></trkpt><trkpt lat="40.90382103100906" lon="8.793654185161687"><ele>71.0</ele><time>2026-04-26T13:08:07Z</time></trkpt><trkpt lat="40.90391695904609" lon="8.793892411726128"><ele>71.0</ele><time>2026-04-26T13:08:08Z</time></trkpt><trkpt lat="40.90400997819398" lon="8.794124592259863"><ele>71.0</ele><time>2026-04-26T13:08:09Z</time></trkpt><trkpt lat="40.904102361125624" lon="8.794358440557758"><ele>71.0</ele><time>2026-04-26T13:08:10Z</time></trkpt><trkpt lat="40.90419447406433" lon="8.794593666021226"><ele>71.0</ele><time>2026-04-26T13:08:11Z</time></trkpt><trkpt lat="40.90428584905629" lon="8.794827244166695"><ele>75.0</ele><time>2026-04-26T13:08:12Z</time></trkpt><trkpt lat="40.904379373738664" lon="8.79506607309865"><ele>79.0</ele><time>2026-04-26T13:08:13Z</time></trkpt><trkpt lat="40.90447630544433" lon="8.795307492764184"><ele>83.0</ele><time>2026-04-26T13:08:14Z</time></trkpt><trkpt lat="40.904573562317935" lon="8.795553518922231"><ele>83.0</ele><time>2026-04-26T13:08:15Z</time></trkpt><trkpt lat="40.904671408374796" lon="8.795798254641216"><ele>83.0</ele><time>2026-04-26T13:08:16Z</time></trkpt><trkpt lat="40.90476756824025" lon="8.796041797040873"><ele>83.0</ele><time>2026-04-26T13:08:17Z</time></trkpt><trkpt lat="40.904864604353776" lon="8.796289326575323"><ele>82.0</ele><time>2026-04-26T13:08:18Z</time></trkpt><trkpt lat="40.904956915087524" lon="8.796535104720029"><ele>81.0</ele><time>2026-04-26T13:08:19Z</time></trkpt><trkpt lat="40.905041480774536" lon="8.796776953766498"><ele>80.0</ele><time>2026-04-26T13:08:20Z</time></trkpt><trkpt lat="40.905116368129335" lon="8.797017649145406"><ele>80.33333333333334</ele><time>2026-04-26T13:08:21Z</time></trkpt><trkpt lat="40.905176426552934" lon="8.79726487335962"><ele>80.66666666666667</ele><time>2026-04-26T13:08:22Z</time></trkpt><trkpt lat="40.9052352268424" lon="8.797518255779721"><ele>81.0</ele><time>2026-04-26T13:08:23Z</time></trkpt><trkpt lat="40.9052898436738" lon="8.797779932152919"><ele>81.0</ele><time>2026-04-26T13:08:24Z</time></trkpt><trkpt lat="40.905335802312464" lon="8.798043647932317"><ele>81.0</ele><time>2026-04-26T13:08:25Z</time></trkpt><trkpt lat="40.9053792732611" lon="8.798328431714845"><ele>81.0</ele><time>2026-04-26T13:08:26Z</time></trkpt><trkpt lat="40.905408930793044" lon="8.798592455122588"><ele>79.66666666666667</ele><time>2026-04-26T13:08:27Z</time></trkpt><trkpt lat="40.905437715080325" lon="8.79888376875018"><ele>78.33333333333334</ele><time>2026-04-26T13:08:28Z</time></trkpt><trkpt lat="40.90546686414961" lon="8.799178886013802"><ele>77.0</ele><time>2026-04-26T13:08:29Z</time></trkpt><trkpt lat="40.90549688586208" lon="8.79945859213737"><ele>75.66666666666667</ele><time>2026-04-26T13:08:30Z</time></trkpt><trkpt lat="40.905526513185684" lon="8.799738638380845"><ele>74.33333333333333</ele><time>2026-04-26T13:08:31Z</time></trkpt><trkpt lat="40.905554853534056" lon="8.800016787534974"><ele>73.0</ele><time>2026-04-26T13:08:32Z</time></trkpt><trkpt lat="40.90558453151523" lon="8.80028747401605"><ele>72.0</ele><time>2026-04-26T13:08:33Z</time></trkpt><trkpt lat="40.90561399986669" lon="8.8005579959908"><ele>71.0</ele><time>2026-04-26T13:08:34Z</time></trkpt><trkpt lat="40.905640420112256" lon="8.800822983175046"><ele>70.0</ele><time>2026-04-26T13:08:35Z</time></trkpt><trkpt lat="40.90566708538281" lon="8.801087171015068"><ele>68.66666666666666</ele><time>2026-04-26T13:08:36Z</time></trkpt><trkpt lat="40.905693996957666" lon="8.801347914251924"><ele>67.33333333333333</ele><time>2026-04-26T13:08:37Z</time></trkpt><trkpt lat="40.90572006660729" lon="8.801596994522248"><ele>66.0</ele><time>2026-04-26T13:08:38Z</time></trkpt><trkpt lat="40.90574721904095" lon="8.80184546997884"><ele>65.66666666666667</ele><time>2026-04-26T13:08:39Z</time></trkpt><trkpt lat="40.905775564391696" lon="8.802102938087435"><ele>65.33333333333334</ele><time>2026-04-26T13:08:40Z</time></trkpt><trkpt lat="40.90580122528387" lon="8.80235542759119"><ele>65.0</ele><time>2026-04-26T13:08:41Z</time></trkpt><trkpt lat="40.905827929766936" lon="8.802604372328016"><ele>64.0</ele><time>2026-04-26T13:08:42Z</time></trkpt><trkpt lat="40.9058539608176" lon="8.802849155679235"><ele>63.0</ele><time>2026-04-26T13:08:43Z</time></trkpt><trkpt lat="40.905879210706644" lon="8.803089616341966"><ele>62.0</ele><time>2026-04-26T13:08:44Z</time></trkpt><trkpt lat="40.90590517632571" lon="8.80332861967312"><ele>63.0</ele><time>2026-04-26T13:08:45Z</time></trkpt><trkpt lat="40.90593104425571" lon="8.803564467617475"><ele>64.0</ele><time>2026-04-26T13:08:46Z</time></trkpt><trkpt lat="40.90595535369232" lon="8.803792837059252"><ele>65.0</ele><time>2026-04-26T13:08:47Z</time></trkpt><trkpt lat="40.905980298305735" lon="8.804021338244366"><ele>65.0</ele><time>2026-04-26T13:08:48Z</time></trkpt><trkpt lat="40.90600382347234" lon="8.804249057877202"><ele>65.0</ele><time>2026-04-26T13:08:49Z</time></trkpt><trkpt lat="40.9060253916601" lon="8.80447483351822"><ele>65.0</ele><time>2026-04-26T13:08:50Z</time></trkpt><trkpt lat="40.90604848688335" lon="8.804702245073184"><ele>64.33333333333334</ele><time>2026-04-26T13:08:51Z</time></trkpt><trkpt lat="40.906072393458786" lon="8.804929873744054"><ele>63.66666666666667</ele><time>2026-04-26T13:08:52Z</time></trkpt><trkpt lat="40.9060963584019" lon="8.805162674069555"><ele>63.0</ele><time>2026-04-26T13:08:53Z</time></trkpt><trkpt lat="40.90612008029918" lon="8.805396624436293"><ele>62.0</ele><time>2026-04-26T13:08:54Z</time></trkpt><trkpt lat="40.90614416448595" lon="8.805632826168651"><ele>61.0</ele><time>2026-04-26T13:08:55Z</time></trkpt><trkpt lat="40.90616838301414" lon="8.805870772296267"><ele>60.0</ele><time>2026-04-26T13:08:56Z</time></trkpt><trkpt lat="40.906192276133375" lon="8.806112322496341"><ele>58.66666666666667</ele><time>2026-04-26T13:08:57Z</time></trkpt><trkpt lat="40.906222341300705" lon="8.806354947078455"><ele>57.333333333333336</ele><time>2026-04-26T13:08:58Z</time></trkpt><trkpt lat="40.90625999436344" lon="8.806596821231455"><ele>56.0</ele><time>2026-04-26T13:08:59Z</time></trkpt><trkpt lat="40.90630096003" lon="8.80683745943965"><ele>55.66666666666667</ele><time>2026-04-26T13:09:00.001Z</time></trkpt><trkpt lat="40.90634962926336" lon="8.807080062456345"><ele>55.33333333333333</ele><time>2026-04-26T13:09:01.001Z</time></trkpt><trkpt lat="40.906405147332705" lon="8.807316535541167"><ele>55.0</ele><time>2026-04-26T13:09:02.001Z</time></trkpt><trkpt lat="40.906471586506576" lon="8.807553121850505"><ele>55.666666666666664</ele><time>2026-04-26T13:09:03.001Z</time></trkpt><trkpt lat="40.90654120804074" lon="8.807791531316404"><ele>56.33333333333333</ele><time>2026-04-26T13:09:04.001Z</time></trkpt><trkpt lat="40.90661708602201" lon="8.808025694070084"><ele>57.0</ele><time>2026-04-26T13:09:05.001Z</time></trkpt><trkpt lat="40.906699766583266" lon="8.808254678136944"><ele>58.33333333333333</ele><time>2026-04-26T13:09:06.001Z</time></trkpt><trkpt lat="40.9067901349112" lon="8.808481927090892"><ele>59.666666666666664</ele><time>2026-04-26T13:09:07.001Z</time></trkpt><trkpt lat="40.906888821790254" lon="8.808704894648443"><ele>61.0</ele><time>2026-04-26T13:09:08Z</time></trkpt><trkpt lat="40.90699100606851" lon="8.808923367858077"><ele>61.0</ele><time>2026-04-26T13:09:09Z</time></trkpt><trkpt lat="40.907098694747994" lon="8.809140309161382"><ele>61.0</ele><time>2026-04-26T13:09:10Z</time></trkpt><trkpt lat="40.90720751726897" lon="8.809360107550466"><ele>61.0</ele><time>2026-04-26T13:09:11Z</time></trkpt><trkpt lat="40.907315315373296" lon="8.809578193161355"><ele>61.0</ele><time>2026-04-26T13:09:12Z</time></trkpt><trkpt lat="40.90742318410914" lon="8.809798268729455"><ele>61.0</ele><time>2026-04-26T13:09:13Z</time></trkpt><trkpt lat="40.9075299505047" lon="8.81001663827793"><ele>61.0</ele><time>2026-04-26T13:09:14Z</time></trkpt><trkpt lat="40.90763289905962" lon="8.8102277159926"><ele>63.33333333333333</ele><time>2026-04-26T13:09:15Z</time></trkpt><trkpt lat="40.907737887818215" lon="8.810441517404625"><ele>65.66666666666667</ele><time>2026-04-26T13:09:16Z</time></trkpt><trkpt lat="40.90784525188858" lon="8.810653823575944"><ele>68.0</ele><time>2026-04-26T13:09:17Z</time></trkpt><trkpt lat="40.90795608529341" lon="8.810864333876228"><ele>67.33333333333334</ele><time>2026-04-26T13:09:18Z</time></trkpt><trkpt lat="40.90806467654345" lon="8.811076533914388"><ele>66.66666666666667</ele><time>2026-04-26T13:09:19Z</time></trkpt><trkpt lat="40.908179878541226" lon="8.811309277316388"><ele>66.0</ele><time>2026-04-26T13:09:20Z</time></trkpt><trkpt lat="40.90827241797167" lon="8.811511253396569"><ele>66.0</ele><time>2026-04-26T13:09:21Z</time></trkpt><trkpt lat="40.90837969593967" lon="8.811727037164154"><ele>66.0</ele><time>2026-04-26T13:09:22Z</time></trkpt><trkpt lat="40.90847356291517" lon="8.811936280293711"><ele>66.0</ele><time>2026-04-26T13:09:23Z</time></trkpt><trkpt lat="40.90858028434928" lon="8.812153946396462"><ele>66.33333333333333</ele><time>2026-04-26T13:09:24Z</time></trkpt><trkpt lat="40.90868303917044" lon="8.81236712933592"><ele>66.66666666666666</ele><time>2026-04-26T13:09:25Z</time></trkpt><trkpt lat="40.9087867710059" lon="8.812580513062256"><ele>67.0</ele><time>2026-04-26T13:09:26Z</time></trkpt><trkpt lat="40.90889264717414" lon="8.812794781651517"><ele>66.0</ele><time>2026-04-26T13:09:27Z</time></trkpt><trkpt lat="40.90899633786439" lon="8.813010034733786"><ele>65.0</ele><time>2026-04-26T13:09:28Z</time></trkpt><trkpt lat="40.90910029211228" lon="8.813229296246213"><ele>64.0</ele><time>2026-04-26T13:09:29Z</time></trkpt><trkpt lat="40.90920510143853" lon="8.813449481216136"><ele>62.0</ele><time>2026-04-26T13:09:30Z</time></trkpt><trkpt lat="40.909311763891544" lon="8.813672074397918"><ele>60.0</ele><time>2026-04-26T13:09:31Z</time></trkpt><trkpt lat="40.909421639743684" lon="8.813895288076349"><ele>58.0</ele><time>2026-04-26T13:09:32Z</time></trkpt><trkpt lat="40.909529926499886" lon="8.814120867155006"><ele>57.666666666666664</ele><time>2026-04-26T13:09:33Z</time></trkpt><trkpt lat="40.909639386573716" lon="8.81434840398877"><ele>57.33333333333333</ele><time>2026-04-26T13:09:34Z</time></trkpt><trkpt lat="40.90975280079143" lon="8.814578966591782"><ele>57.0</ele><time>2026-04-26T13:09:35Z</time></trkpt><trkpt lat="40.90986496020615" lon="8.814810025995147"><ele>57.0</ele><time>2026-04-26T13:09:36Z</time></trkpt><trkpt lat="40.909974898505446" lon="8.815042116803992"><ele>57.0</ele><time>2026-04-26T13:09:37Z</time></trkpt><trkpt lat="40.910088590698585" lon="8.815275098915883"><ele>57.0</ele><time>2026-04-26T13:09:38Z</time></trkpt><trkpt lat="40.91020207648395" lon="8.815508914711927"><ele>55.66666666666667</ele><time>2026-04-26T13:09:39Z</time></trkpt><trkpt lat="40.910316206499054" lon="8.815744011539174"><ele>54.333333333333336</ele><time>2026-04-26T13:09:40Z</time></trkpt><trkpt lat="40.91042876331632" lon="8.815978201521682"><ele>53.0</ele><time>2026-04-26T13:09:41Z</time></trkpt><trkpt lat="40.91054346585571" lon="8.816211498053946"><ele>51.333333333333336</ele><time>2026-04-26T13:09:42Z</time></trkpt><trkpt lat="40.91065931906848" lon="8.816446474565405"><ele>49.66666666666667</ele><time>2026-04-26T13:09:43Z</time></trkpt><trkpt lat="40.9107729994703" lon="8.816677945245239"><ele>48.0</ele><time>2026-04-26T13:09:44Z</time></trkpt><trkpt lat="40.91088699481358" lon="8.816907643201583"><ele>48.33333333333333</ele><time>2026-04-26T13:09:45Z</time></trkpt><trkpt lat="40.9110029087511" lon="8.817135580697977"><ele>48.666666666666664</ele><time>2026-04-26T13:09:46Z</time></trkpt><trkpt lat="40.91111692204785" lon="8.81736929067503"><ele>49.0</ele><time>2026-04-26T13:09:47Z</time></trkpt><trkpt lat="40.91122061512643" lon="8.817600915141334"><ele>49.0</ele><time>2026-04-26T13:09:48Z</time></trkpt><trkpt lat="40.91131862428237" lon="8.817840343312376"><ele>49.0</ele><time>2026-04-26T13:09:49Z</time></trkpt><trkpt lat="40.91141108153724" lon="8.818085532356989"><ele>49.0</ele><time>2026-04-26T13:09:50Z</time></trkpt><trkpt lat="40.911498659999545" lon="8.818330178658432"><ele>49.0</ele><time>2026-04-26T13:09:51Z</time></trkpt><trkpt lat="40.9115818540493" lon="8.818573192849469"><ele>49.0</ele><time>2026-04-26T13:09:52Z</time></trkpt><trkpt lat="40.911664018826734" lon="8.818814632673456"><ele>49.0</ele><time>2026-04-26T13:09:53Z</time></trkpt><trkpt lat="40.91174876403715" lon="8.819056310847246"><ele>47.666666666666664</ele><time>2026-04-26T13:09:54Z</time></trkpt><trkpt lat="40.91183320497274" lon="8.819295454178105"><ele>46.33333333333333</ele><time>2026-04-26T13:09:55Z</time></trkpt><trkpt lat="40.91191442891624" lon="8.819531691368116"><ele>45.0</ele><time>2026-04-26T13:09:56Z</time></trkpt><trkpt lat="40.911993590651186" lon="8.819763776095737"><ele>44.666666666666664</ele><time>2026-04-26T13:09:57Z</time></trkpt><trkpt lat="40.91207308000246" lon="8.819993403298051"><ele>44.33333333333333</ele><time>2026-04-26T13:09:58Z</time></trkpt><trkpt lat="40.91214936220469" lon="8.820217614529302"><ele>44.0</ele><time>2026-04-26T13:09:59Z</time></trkpt><trkpt lat="40.91222228423655" lon="8.820429369209004"><ele>43.666666666666664</ele><time>2026-04-26T13:10:00Z</time></trkpt><trkpt lat="40.91229422766193" lon="8.820634456458299"><ele>43.333333333333336</ele><time>2026-04-26T13:10:01Z</time></trkpt><trkpt lat="40.9123615569115" lon="8.820833345042974"><ele>43.0</ele><time>2026-04-26T13:10:02Z</time></trkpt><trkpt lat="40.91242954855379" lon="8.821038632593803"><ele>41.333333333333336</ele><time>2026-04-26T13:10:03Z</time></trkpt><trkpt lat="40.91249870999612" lon="8.821240805424159"><ele>39.666666666666664</ele><time>2026-04-26T13:10:04Z</time></trkpt><trkpt lat="40.91257068138978" lon="8.821446113269488"><ele>38.0</ele><time>2026-04-26T13:10:05Z</time></trkpt><trkpt lat="40.91264203890593" lon="8.821653048420306"><ele>33.666666666666664</ele><time>2026-04-26T13:10:06Z</time></trkpt><trkpt lat="40.91271586966974" lon="8.821866465634253"><ele>29.333333333333336</ele><time>2026-04-26T13:10:07Z</time></trkpt><trkpt lat="40.912790438451516" lon="8.822083229373682"><ele>25.0</ele><time>2026-04-26T13:10:08Z</time></trkpt><trkpt lat="40.912869110219816" lon="8.822308532927869"><ele>25.0</ele><time>2026-04-26T13:10:09Z</time></trkpt><trkpt lat="40.91294647528665" lon="8.822536163546241"><ele>25.0</ele><time>2026-04-26T13:10:10Z</time></trkpt><trkpt lat="40.91302483743606" lon="8.82276993800805"><ele>25.0</ele><time>2026-04-26T13:10:11Z</time></trkpt><trkpt lat="40.91310391257685" lon="8.823006851163278"><ele>25.0</ele><time>2026-04-26T13:10:12Z</time></trkpt><trkpt lat="40.91318413970993" lon="8.823242483551189"><ele>25.0</ele><time>2026-04-26T13:10:13Z</time></trkpt><trkpt lat="40.91326640515291" lon="8.823481086755725"><ele>25.0</ele><time>2026-04-26T13:10:14Z</time></trkpt><trkpt lat="40.913349623699496" lon="8.823720479011042"><ele>23.333333333333336</ele><time>2026-04-26T13:10:15Z</time></trkpt><trkpt lat="40.91343590211122" lon="8.823964983400412"><ele>21.666666666666668</ele><time>2026-04-26T13:10:16Z</time></trkpt><trkpt lat="40.91352320495783" lon="8.824218225646483"><ele>20.0</ele><time>2026-04-26T13:10:17Z</time></trkpt><trkpt lat="40.913614827583814" lon="8.824489199775893"><ele>20.0</ele><time>2026-04-26T13:10:18Z</time></trkpt><trkpt lat="40.91370858459294" lon="8.824767341151462"><ele>20.0</ele><time>2026-04-26T13:10:19Z</time></trkpt><trkpt lat="40.91380823769954" lon="8.82505960643227"><ele>21.0</ele><time>2026-04-26T13:10:20Z</time></trkpt><trkpt lat="40.913912412093175" lon="8.82535803139201"><ele>22.0</ele><time>2026-04-26T13:10:21Z</time></trkpt><trkpt lat="40.91401647778345" lon="8.825658848288947"><ele>22.0</ele><time>2026-04-26T13:10:22Z</time></trkpt><trkpt lat="40.91411426668049" lon="8.825942996370422"><ele>22.0</ele><time>2026-04-26T13:10:23Z</time></trkpt><trkpt lat="40.914207237589174" lon="8.826216012782085"><ele>27.666666666666664</ele><time>2026-04-26T13:10:24Z</time></trkpt><trkpt lat="40.91429570051367" lon="8.826474548835172"><ele>33.333333333333336</ele><time>2026-04-26T13:10:25Z</time></trkpt><trkpt lat="40.9143807738535" lon="8.826724054514285"><ele>39.0</ele><time>2026-04-26T13:10:26Z</time></trkpt><trkpt lat="40.91446443904314" lon="8.82697083752659"><ele>43.33333333333333</ele><time>2026-04-26T13:10:27Z</time></trkpt><trkpt lat="40.91454686518735" lon="8.82721257259396"><ele>47.666666666666664</ele><time>2026-04-26T13:10:28Z</time></trkpt><trkpt lat="40.9146272944875" lon="8.827450234372371"><ele>52.0</ele><time>2026-04-26T13:10:29Z</time></trkpt><trkpt lat="40.91471296342919" lon="8.827690364906141"><ele>53.0</ele><time>2026-04-26T13:10:30Z</time></trkpt><trkpt lat="40.91480230343562" lon="8.82794186508898"><ele>54.0</ele><time>2026-04-26T13:10:31Z</time></trkpt><trkpt lat="40.914899098366185" lon="8.82820894321312"><ele>55.0</ele><time>2026-04-26T13:10:32Z</time></trkpt><trkpt lat="40.91500749013476" lon="8.828500567293718"><ele>53.5</ele><time>2026-04-26T13:10:33Z</time></trkpt><trkpt lat="40.91512049019651" lon="8.828806679101394"><ele>52.0</ele><time>2026-04-26T13:10:34Z</time></trkpt><trkpt lat="40.91522775133241" lon="8.829120534826133"><ele>50.5</ele><time>2026-04-26T13:10:35Z</time></trkpt><trkpt lat="40.915337312266544" lon="8.829452396743548"><ele>49.0</ele><time>2026-04-26T13:10:36Z</time></trkpt><trkpt lat="40.91544678868666" lon="8.82979286643022"><ele>49.0</ele><time>2026-04-26T13:10:37Z</time></trkpt><trkpt lat="40.91555852799769" lon="8.830135913432585"><ele>49.0</ele><time>2026-04-26T13:10:38Z</time></trkpt><trkpt lat="40.915675979034134" lon="8.830485089831814"><ele>49.0</ele><time>2026-04-26T13:10:39Z</time></trkpt><trkpt lat="40.91579452744801" lon="8.830835444936616"><ele>49.0</ele><time>2026-04-26T13:10:40Z</time></trkpt><trkpt lat="40.91591191433495" lon="8.831182770423014"><ele>46.5</ele><time>2026-04-26T13:10:41Z</time></trkpt><trkpt lat="40.91602298874406" lon="8.831516960922425"><ele>44.0</ele><time>2026-04-26T13:10:42Z</time></trkpt><trkpt lat="40.91613064990302" lon="8.831833181421155"><ele>44.0</ele><time>2026-04-26T13:10:43Z</time></trkpt><trkpt lat="40.916236794984755" lon="8.832144547407452"><ele>44.0</ele><time>2026-04-26T13:10:44Z</time></trkpt><trkpt lat="40.916338722238194" lon="8.832446542283709"><ele>45.0</ele><time>2026-04-26T13:10:45Z</time></trkpt><trkpt lat="40.916438001302" lon="8.832743479940815"><ele>46.0</ele><time>2026-04-26T13:10:46Z</time></trkpt><trkpt lat="40.916538303714376" lon="8.833040194012248"><ele>46.0</ele><time>2026-04-26T13:10:47Z</time></trkpt><trkpt lat="40.91663862355666" lon="8.833330909553785"><ele>46.0</ele><time>2026-04-26T13:10:48Z</time></trkpt><trkpt lat="40.91673930284804" lon="8.83362166881446"><ele>42.5</ele><time>2026-04-26T13:10:49Z</time></trkpt><trkpt lat="40.91683903469417" lon="8.833912084632324"><ele>39.0</ele><time>2026-04-26T13:10:50Z</time></trkpt><trkpt lat="40.916940415622605" lon="8.83420221517226"><ele>39.0</ele><time>2026-04-26T13:10:51Z</time></trkpt><trkpt lat="40.91702839575251" lon="8.834494386204598"><ele>39.0</ele><time>2026-04-26T13:10:52Z</time></trkpt><trkpt lat="40.91713859318733" lon="8.834789274149607"><ele>39.0</ele><time>2026-04-26T13:10:53Z</time></trkpt><trkpt lat="40.91724230715276" lon="8.835082943861408"><ele>39.0</ele><time>2026-04-26T13:10:54Z</time></trkpt><trkpt lat="40.91734363036706" lon="8.835375046138555"><ele>37.5</ele><time>2026-04-26T13:10:55Z</time></trkpt><trkpt lat="40.91744565645951" lon="8.835669820787547"><ele>36.0</ele><time>2026-04-26T13:10:56Z</time></trkpt><trkpt lat="40.91754695329642" lon="8.83596715049097"><ele>32.0</ele><time>2026-04-26T13:10:57Z</time></trkpt><trkpt lat="40.91764978454945" lon="8.836265702832291"><ele>28.0</ele><time>2026-04-26T13:10:58Z</time></trkpt><trkpt lat="40.9177545187735" lon="8.836562773530575"><ele>28.0</ele><time>2026-04-26T13:10:59Z</time></trkpt><trkpt lat="40.917857464376624" lon="8.836862165865194"><ele>28.0</ele><time>2026-04-26T13:11:00Z</time></trkpt><trkpt lat="40.91796227369907" lon="8.837169547480842"><ele>28.0</ele><time>2026-04-26T13:11:01Z</time></trkpt><trkpt lat="40.918069749616066" lon="8.837483689084717"><ele>28.0</ele><time>2026-04-26T13:11:02Z</time></trkpt><trkpt lat="40.918177705312814" lon="8.837796981085525"><ele>27.5</ele><time>2026-04-26T13:11:03Z</time></trkpt><trkpt lat="40.91828486751311" lon="8.838110547088627"><ele>27.0</ele><time>2026-04-26T13:11:04Z</time></trkpt><trkpt lat="40.918383725738735" lon="8.838406199957243"><ele>22.0</ele><time>2026-04-26T13:11:05Z</time></trkpt><trkpt lat="40.9184835381478" lon="8.838702653575004"><ele>17.0</ele><time>2026-04-26T13:11:06Z</time></trkpt><trkpt lat="40.91858129506595" lon="8.838997105316006"><ele>17.0</ele><time>2026-04-26T13:11:07Z</time></trkpt><trkpt lat="40.918678316288045" lon="8.839284988299065"><ele>17.0</ele><time>2026-04-26T13:11:08Z</time></trkpt><trkpt lat="40.91877380660454" lon="8.83956863898606"><ele>17.0</ele><time>2026-04-26T13:11:09Z</time></trkpt><trkpt lat="40.9188721721604" lon="8.839853064921243"><ele>17.0</ele><time>2026-04-26T13:11:10Z</time></trkpt><trkpt lat="40.91897334806298" lon="8.840138304770251"><ele>16.0</ele><time>2026-04-26T13:11:11Z</time></trkpt><trkpt lat="40.91907215275409" lon="8.840427544023049"><ele>15.0</ele><time>2026-04-26T13:11:12Z</time></trkpt><trkpt lat="40.91917349965974" lon="8.840729944936111"><ele>10.5</ele><time>2026-04-26T13:11:13Z</time></trkpt><trkpt lat="40.91927583760458" lon="8.841026542853617"><ele>6.0</ele><time>2026-04-26T13:11:14Z</time></trkpt><trkpt lat="40.91937518915075" lon="8.84132045310964"><ele>6.0</ele><time>2026-04-26T13:11:15Z</time></trkpt><trkpt lat="40.919473965267585" lon="8.841615831389687"><ele>6.0</ele><time>2026-04-26T13:11:16Z</time></trkpt><trkpt lat="40.919569855246756" lon="8.84190035208209"><ele>5.0</ele><time>2026-04-26T13:11:17Z</time></trkpt><trkpt lat="40.91967035442527" lon="8.842187836512323"><ele>4.0</ele><time>2026-04-26T13:11:18Z</time></trkpt><trkpt lat="40.919773167874716" lon="8.842470714950233"><ele>4.0</ele><time>2026-04-26T13:11:19Z</time></trkpt><trkpt lat="40.91988307364149" lon="8.842747876886001"><ele>4.0</ele><time>2026-04-26T13:11:20Z</time></trkpt><trkpt lat="40.920000797895376" lon="8.843026011619083"><ele>4.0</ele><time>2026-04-26T13:11:21Z</time></trkpt><trkpt lat="40.920124899350085" lon="8.843298738277113"><ele>4.0</ele><time>2026-04-26T13:11:22Z</time></trkpt><trkpt lat="40.92025765243556" lon="8.843566009917947"><ele>4.0</ele><time>2026-04-26T13:11:23Z</time></trkpt><trkpt lat="40.92039672476538" lon="8.843828873056175"><ele>4.0</ele><time>2026-04-26T13:11:24Z</time></trkpt><trkpt lat="40.920538395683714" lon="8.844084298742072"><ele>3.5</ele><time>2026-04-26T13:11:25Z</time></trkpt><trkpt lat="40.92068539695778" lon="8.844329475855522"><ele>3.0</ele><time>2026-04-26T13:11:26Z</time></trkpt><trkpt lat="40.92084078321571" lon="8.844571235084109"><ele>3.0</ele><time>2026-04-26T13:11:27Z</time></trkpt><trkpt lat="40.92099736808417" lon="8.844810479958062"><ele>3.0</ele><time>2026-04-26T13:11:28Z</time></trkpt><trkpt lat="40.92115598911187" lon="8.845051045391653"><ele>4.5</ele><time>2026-04-26T13:11:29Z</time></trkpt><trkpt lat="40.92131769544961" lon="8.84530065220288"><ele>6.0</ele><time>2026-04-26T13:11:30Z</time></trkpt><trkpt lat="40.92148680971346" lon="8.845563721706819"><ele>6.0</ele><time>2026-04-26T13:11:31Z</time></trkpt><trkpt lat="40.92165884001503" lon="8.845828434607728"><ele>6.0</ele><time>2026-04-26T13:11:32Z</time></trkpt><trkpt lat="40.92181747787214" lon="8.846083484410324"><ele>4.5</ele><time>2026-04-26T13:11:33Z</time></trkpt><trkpt lat="40.92197387646809" lon="8.8463390022582"><ele>3.0</ele><time>2026-04-26T13:11:34Z</time></trkpt><trkpt lat="40.92213319343658" lon="8.84659293303519"><ele>3.0</ele><time>2026-04-26T13:11:35Z</time></trkpt><trkpt lat="40.92230469701397" lon="8.846856089350196"><ele>3.0</ele><time>2026-04-26T13:11:36Z</time></trkpt><trkpt lat="40.922478402777365" lon="8.847122762073978"><ele>3.0</ele><time>2026-04-26T13:11:37Z</time></trkpt><trkpt lat="40.92265473564323" lon="8.847396881082927"><ele>3.0</ele><time>2026-04-26T13:11:38Z</time></trkpt><trkpt lat="40.92283423064122" lon="8.847677921253199"><ele>3.0</ele><time>2026-04-26T13:11:39Z</time></trkpt><trkpt lat="40.92301372959819" lon="8.847960771584317"><ele>3.0</ele><time>2026-04-26T13:11:40Z</time></trkpt><trkpt lat="40.923197651781706" lon="8.848250026765381"><ele>3.0</ele><time>2026-04-26T13:11:41Z</time></trkpt><trkpt lat="40.92338479410753" lon="8.848542355993962"><ele>3.0</ele><time>2026-04-26T13:11:42Z</time></trkpt><trkpt lat="40.92357706133652" lon="8.848836879068152"><ele>3.0</ele><time>2026-04-26T13:11:43Z</time></trkpt><trkpt lat="40.92376543467675" lon="8.849127135524977"><ele>3.0</ele><time>2026-04-26T13:11:44Z</time></trkpt><trkpt lat="40.923941115503105" lon="8.849402058667419"><ele>3.5</ele><time>2026-04-26T13:11:45Z</time></trkpt><trkpt lat="40.92411476091571" lon="8.849673664918733"><ele>4.0</ele><time>2026-04-26T13:11:46Z</time></trkpt><trkpt lat="40.92428095863555" lon="8.849932951576637"><ele>4.0</ele><time>2026-04-26T13:11:47Z</time></trkpt><trkpt lat="40.92444915046589" lon="8.850194897045467"><ele>4.0</ele><time>2026-04-26T13:11:48Z</time></trkpt><trkpt lat="40.92461112920352" lon="8.850448241327925"><ele>4.0</ele><time>2026-04-26T13:11:49Z</time></trkpt><trkpt lat="40.92477336635548" lon="8.850696341517036"><ele>4.0</ele><time>2026-04-26T13:11:50Z</time></trkpt><trkpt lat="40.924931869396396" lon="8.85094267504571"><ele>3.5</ele><time>2026-04-26T13:11:51Z</time></trkpt><trkpt lat="40.92509119097867" lon="8.851190400976947"><ele>3.0</ele><time>2026-04-26T13:11:52Z</time></trkpt><trkpt lat="40.925247126063034" lon="8.851431863662766"><ele>3.0</ele><time>2026-04-26T13:11:53Z</time></trkpt><trkpt lat="40.925403716307706" lon="8.85167274229684"><ele>3.0</ele><time>2026-04-26T13:11:54Z</time></trkpt><trkpt lat="40.92556045906332" lon="8.851916215041765"><ele>4.0</ele><time>2026-04-26T13:11:55Z</time></trkpt><trkpt lat="40.92572006025966" lon="8.852163491233242"><ele>5.0</ele><time>2026-04-26T13:11:56Z</time></trkpt><trkpt lat="40.92588056589746" lon="8.85241112226931"><ele>4.0</ele><time>2026-04-26T13:11:57Z</time></trkpt><trkpt lat="40.926039545934614" lon="8.852659874882997"><ele>3.0</ele><time>2026-04-26T13:11:58Z</time></trkpt><trkpt lat="40.92620043952691" lon="8.852909283973016"><ele>3.0</ele><time>2026-04-26T13:11:59Z</time></trkpt><trkpt lat="40.92636262839854" lon="8.853163371195123"><ele>3.0</ele><time>2026-04-26T13:12:00Z</time></trkpt><trkpt lat="40.926525066364064" lon="8.853420529482529"><ele>3.0</ele><time>2026-04-26T13:12:01Z</time></trkpt><trkpt lat="40.92669210117379" lon="8.853682213346088"><ele>3.0</ele><time>2026-04-26T13:12:02Z</time></trkpt><trkpt lat="40.92686220556346" lon="8.853944350681283"><ele>3.0</ele><time>2026-04-26T13:12:03Z</time></trkpt><trkpt lat="40.92703636567529" lon="8.854213095637794"><ele>3.0</ele><time>2026-04-26T13:12:04Z</time></trkpt><trkpt lat="40.92721786129004" lon="8.854492208384134"><ele>3.0</ele><time>2026-04-26T13:12:05Z</time></trkpt><trkpt lat="40.927395998835294" lon="8.854769870908308"><ele>3.0</ele><time>2026-04-26T13:12:06Z</time></trkpt><trkpt lat="40.92757748966698" lon="8.8550576164633"><ele>3.5</ele><time>2026-04-26T13:12:07Z</time></trkpt><trkpt lat="40.927760477543146" lon="8.855342400055164"><ele>4.0</ele><time>2026-04-26T13:12:08Z</time></trkpt><trkpt lat="40.92794559540278" lon="8.855631496676997"><ele>4.0</ele><time>2026-04-26T13:12:09Z</time></trkpt><trkpt lat="40.92813352143351" lon="8.85592515560865"><ele>4.0</ele><time>2026-04-26T13:12:10Z</time></trkpt><trkpt lat="40.92832934505124" lon="8.856228215864958"><ele>4.0</ele><time>2026-04-26T13:12:11Z</time></trkpt><trkpt lat="40.92852285748612" lon="8.856527530153064"><ele>4.0</ele><time>2026-04-26T13:12:12Z</time></trkpt><trkpt lat="40.9287165688225" lon="8.856829364954418"><ele>4.0</ele><time>2026-04-26T13:12:13Z</time></trkpt><trkpt lat="40.9289132712062" lon="8.857136972362321"><ele>4.0</ele><time>2026-04-26T13:12:14Z</time></trkpt><trkpt lat="40.9291060081625" lon="8.857441692453246"><ele>3.0</ele><time>2026-04-26T13:12:15Z</time></trkpt><trkpt lat="40.92928862162267" lon="8.857730492715797"><ele>2.0</ele><time>2026-04-26T13:12:16Z</time></trkpt><trkpt lat="40.92946628126675" lon="8.858009745276972"><ele>2.0</ele><time>2026-04-26T13:12:17Z</time></trkpt><trkpt lat="40.9296469532308" lon="8.858281395229751"><ele>2.0</ele><time>2026-04-26T13:12:18Z</time></trkpt><trkpt lat="40.929829249990135" lon="8.858536651148654"><ele>2.0</ele><time>2026-04-26T13:12:19Z</time></trkpt><trkpt lat="40.9300165238319" lon="8.858778951500144"><ele>2.0</ele><time>2026-04-26T13:12:20Z</time></trkpt><trkpt lat="40.93021593131558" lon="8.859012168794985"><ele>2.0</ele><time>2026-04-26T13:12:21Z</time></trkpt><trkpt lat="40.93042254335215" lon="8.859224882643389"><ele>2.0</ele><time>2026-04-26T13:12:22Z</time></trkpt><trkpt lat="40.93063761147089" lon="8.859425109191557"><ele>2.5</ele><time>2026-04-26T13:12:23Z</time></trkpt><trkpt lat="40.93086653991375" lon="8.859619379416015"><ele>3.0</ele><time>2026-04-26T13:12:24Z</time></trkpt><trkpt lat="40.93110479752601" lon="8.859800012275178"><ele>3.5</ele><time>2026-04-26T13:12:25Z</time></trkpt><trkpt lat="40.931353790497454" lon="8.859971573533475"><ele>4.0</ele><time>2026-04-26T13:12:26Z</time></trkpt><trkpt lat="40.931614303016794" lon="8.86012600482483"><ele>9.5</ele><time>2026-04-26T13:12:27Z</time></trkpt><trkpt lat="40.931886732816025" lon="8.860264756536166"><ele>15.0</ele><time>2026-04-26T13:12:28Z</time></trkpt><trkpt lat="40.93216052390522" lon="8.860398225828476"><ele>15.0</ele><time>2026-04-26T13:12:29Z</time></trkpt><trkpt lat="40.93243934627106" lon="8.860525192677233"><ele>15.0</ele><time>2026-04-26T13:12:30Z</time></trkpt><trkpt lat="40.93270930938322" lon="8.860646463735241"><ele>12.0</ele><time>2026-04-26T13:12:31Z</time></trkpt><trkpt lat="40.932965526407095" lon="8.860766072396318"><ele>9.0</ele><time>2026-04-26T13:12:32Z</time></trkpt><trkpt lat="40.93321476894381" lon="8.860887400279696"><ele>11.0</ele><time>2026-04-26T13:12:33Z</time></trkpt><trkpt lat="40.93345705978067" lon="8.861012767821908"><ele>13.0</ele><time>2026-04-26T13:12:34Z</time></trkpt><trkpt lat="40.9336893903808" lon="8.86114364460891"><ele>13.0</ele><time>2026-04-26T13:12:35Z</time></trkpt><trkpt lat="40.93390347606229" lon="8.861280454922268"><ele>13.0</ele><time>2026-04-26T13:12:36Z</time></trkpt><trkpt lat="40.93410441705367" lon="8.861416648433506"><ele>11.666666666666666</ele><time>2026-04-26T13:12:37Z</time></trkpt><trkpt lat="40.934292101856656" lon="8.86154664477813"><ele>10.333333333333332</ele><time>2026-04-26T13:12:38Z</time></trkpt><trkpt lat="40.9344609114863" lon="8.861660839031838"><ele>9.0</ele><time>2026-04-26T13:12:39Z</time></trkpt><trkpt lat="40.9346312937011" lon="8.861771812808431"><ele>10.333333333333332</ele><time>2026-04-26T13:12:40Z</time></trkpt><trkpt lat="40.93481113815045" lon="8.861884741128199"><ele>11.666666666666666</ele><time>2026-04-26T13:12:41Z</time></trkpt><trkpt lat="40.93500304723288" lon="8.862028484680222"><ele>13.0</ele><time>2026-04-26T13:12:42Z</time></trkpt><trkpt lat="40.93521631572519" lon="8.862173460420951"><ele>13.0</ele><time>2026-04-26T13:12:43Z</time></trkpt><trkpt lat="40.93543369091373" lon="8.862321653066838"><ele>13.0</ele><time>2026-04-26T13:12:44Z</time></trkpt><trkpt lat="40.93565781159641" lon="8.862475594043604"><ele>13.0</ele><time>2026-04-26T13:12:45Z</time></trkpt><trkpt lat="40.935892397818506" lon="8.862617843479947"><ele>13.0</ele><time>2026-04-26T13:12:46Z</time></trkpt><trkpt lat="40.93612852919444" lon="8.862783095355088"><ele>13.0</ele><time>2026-04-26T13:12:47Z</time></trkpt><trkpt lat="40.93636451541215" lon="8.8629541019678"><ele>13.0</ele><time>2026-04-26T13:12:48Z</time></trkpt><trkpt lat="40.936595107016664" lon="8.863115727653286"><ele>8.5</ele><time>2026-04-26T13:12:49Z</time></trkpt><trkpt lat="40.93681243535853" lon="8.863267369626119"><ele>4.0</ele><time>2026-04-26T13:12:50Z</time></trkpt><trkpt lat="40.9370168040513" lon="8.863405398144364"><ele>4.5</ele><time>2026-04-26T13:12:51Z</time></trkpt><trkpt lat="40.937218721175554" lon="8.86354353339315"><ele>5.0</ele><time>2026-04-26T13:12:52Z</time></trkpt><trkpt lat="40.937418303909055" lon="8.863679380611865"><ele>3.666666666666667</ele><time>2026-04-26T13:12:53Z</time></trkpt><trkpt lat="40.93761291480395" lon="8.863812818463328"><ele>2.3333333333333335</ele><time>2026-04-26T13:12:54Z</time></trkpt><trkpt lat="40.93780041001755" lon="8.863941069129652"><ele>1.0</ele><time>2026-04-26T13:12:55Z</time></trkpt><trkpt lat="40.937992693731076" lon="8.864072548623444"><ele>1.0</ele><time>2026-04-26T13:12:56Z</time></trkpt><trkpt lat="40.93819082819188" lon="8.864206108752636"><ele>1.0</ele><time>2026-04-26T13:12:57Z</time></trkpt><trkpt lat="40.938399693873315" lon="8.864344249870111"><ele>2.0</ele><time>2026-04-26T13:12:58Z</time></trkpt><trkpt lat="40.938610920536995" lon="8.864488204360335"><ele>3.0</ele><time>2026-04-26T13:12:59Z</time></trkpt><trkpt lat="40.93881414590469" lon="8.864626900496189"><ele>3.0</ele><time>2026-04-26T13:13:00Z</time></trkpt><trkpt lat="40.93900573387486" lon="8.864756517259462"><ele>3.0</ele><time>2026-04-26T13:13:01Z</time></trkpt><trkpt lat="40.93918591884866" lon="8.864879953258182"><ele>3.0</ele><time>2026-04-26T13:13:02Z</time></trkpt><trkpt lat="40.93935639053298" lon="8.864994309435772"><ele>3.0</ele><time>2026-04-26T13:13:03Z</time></trkpt><trkpt lat="40.93951171003815" lon="8.865096973151822"><ele>3.0</ele><time>2026-04-26T13:13:04Z</time></trkpt><trkpt lat="40.93964537268962" lon="8.865184050544883"><ele>3.0</ele><time>2026-04-26T13:13:05Z</time></trkpt><trkpt lat="40.939763996964295" lon="8.865261855651603"><ele>2.8</ele><time>2026-04-26T13:13:06Z</time></trkpt><trkpt lat="40.93987395617158" lon="8.865335340516804"><ele>2.5999999999999996</ele><time>2026-04-26T13:13:07Z</time></trkpt><trkpt lat="40.93996993340304" lon="8.86540358475648"><ele>2.4000000000000004</ele><time>2026-04-26T13:13:08Z</time></trkpt><trkpt lat="40.94004088695744" lon="8.865465445640867"><ele>2.2</ele><time>2026-04-26T13:13:09Z</time></trkpt><trkpt lat="40.94011351394706" lon="8.865576882743506"><ele>2.0</ele><time>2026-04-26T13:13:11Z</time></trkpt><trkpt lat="40.94014236048606" lon="8.8656634585785"><ele>1.9999999999999998</ele><time>2026-04-26T13:13:12Z</time></trkpt><trkpt lat="40.940187990749955" lon="8.865775461535495"><ele>2.0</ele><time>2026-04-26T13:13:13Z</time></trkpt><trkpt lat="40.940246450608996" lon="8.86586538959488"><ele>2.0</ele><time>2026-04-26T13:13:14Z</time></trkpt><trkpt lat="40.94031454719587" lon="8.865909683625194"><ele>2.0</ele><time>2026-04-26T13:13:15Z</time></trkpt><trkpt lat="40.9403894925273" lon="8.865907594488528"><ele>1.9999999999999998</ele><time>2026-04-26T13:13:16Z</time></trkpt><trkpt lat="40.94047753736133" lon="8.865869422893159"><ele>2.0</ele><time>2026-04-26T13:13:17Z</time></trkpt><trkpt lat="40.94056968212257" lon="8.865803060221124"><ele>2.0</ele><time>2026-04-26T13:13:18Z</time></trkpt><trkpt lat="40.940660412471814" lon="8.865746090086366"><ele>2.0</ele><time>2026-04-26T13:13:19Z</time></trkpt><trkpt lat="40.94076361876308" lon="8.865734990371225"><ele>2.0</ele><time>2026-04-26T13:13:20Z</time></trkpt><trkpt lat="40.940880147449306" lon="8.86578623364106"><ele>2.0</ele><time>2026-04-26T13:13:21Z</time></trkpt><trkpt lat="40.94101622131" lon="8.865887722985427"><ele>2.0</ele><time>2026-04-26T13:13:22Z</time></trkpt><trkpt lat="40.941176382833355" lon="8.866008689449869"><ele>2.0</ele><time>2026-04-26T13:13:23Z</time></trkpt><trkpt lat="40.94135820305557" lon="8.866136012890504"><ele>2.0</ele><time>2026-04-26T13:13:24Z</time></trkpt><trkpt lat="40.94155269810753" lon="8.866270591484845"><ele>2.5</ele><time>2026-04-26T13:13:25Z</time></trkpt><trkpt lat="40.94176070700332" lon="8.866410169853683"><ele>3.0</ele><time>2026-04-26T13:13:26Z</time></trkpt><trkpt lat="40.94196883673144" lon="8.866552186531719"><ele>3.0</ele><time>2026-04-26T13:13:27Z</time></trkpt><trkpt lat="40.94216203549139" lon="8.866689416341181"><ele>3.0</ele><time>2026-04-26T13:13:28Z</time></trkpt><trkpt lat="40.94233873289674" lon="8.866816887276224"><ele>3.0</ele><time>2026-04-26T13:13:29Z</time></trkpt><trkpt lat="40.94250898497504" lon="8.866935071057911"><ele>3.666666666666667</ele><time>2026-04-26T13:13:30Z</time></trkpt><trkpt lat="40.94267594527948" lon="8.867051220568435"><ele>4.333333333333334</ele><time>2026-04-26T13:13:31Z</time></trkpt><trkpt lat="40.94284377697074" lon="8.867169587903808"><ele>5.0</ele><time>2026-04-26T13:13:32Z</time></trkpt><trkpt lat="40.943009007500784" lon="8.867286108871244"><ele>5.0</ele><time>2026-04-26T13:13:33Z</time></trkpt><trkpt lat="40.94317082286718" lon="8.86739926668844"><ele>5.0</ele><time>2026-04-26T13:13:34Z</time></trkpt><trkpt lat="40.94333495961736" lon="8.86749882550719"><ele>5.0</ele><time>2026-04-26T13:13:35Z</time></trkpt><trkpt lat="40.94350060866386" lon="8.867583901026272"><ele>6.666666666666667</ele><time>2026-04-26T13:13:36Z</time></trkpt><trkpt lat="40.943681747720134" lon="8.86764331693954"><ele>8.333333333333334</ele><time>2026-04-26T13:13:37Z</time></trkpt><trkpt lat="40.943888232117864" lon="8.86767613552118"><ele>10.0</ele><time>2026-04-26T13:13:38Z</time></trkpt><trkpt lat="40.94411318620031" lon="8.8676796363361"><ele>9.0</ele><time>2026-04-26T13:13:39Z</time></trkpt><trkpt lat="40.94434699964158" lon="8.867659935984765"><ele>8.0</ele><time>2026-04-26T13:13:40Z</time></trkpt><trkpt lat="40.944578553871224" lon="8.86763830560427"><ele>8.0</ele><time>2026-04-26T13:13:41Z</time></trkpt><trkpt lat="40.94478834076032" lon="8.867629973533198"><ele>8.0</ele><time>2026-04-26T13:13:42Z</time></trkpt><trkpt lat="40.944992089468144" lon="8.867638433315179"><ele>8.0</ele><time>2026-04-26T13:13:43Z</time></trkpt><trkpt lat="40.94519429991827" lon="8.867669109477522"><ele>8.333333333333332</ele><time>2026-04-26T13:13:44Z</time></trkpt><trkpt lat="40.945398120477776" lon="8.86772391722402"><ele>8.666666666666666</ele><time>2026-04-26T13:13:45Z</time></trkpt><trkpt lat="40.94560734756658" lon="8.867804741524669"><ele>9.0</ele><time>2026-04-26T13:13:46Z</time></trkpt><trkpt lat="40.945822326143215" lon="8.867907875268902"><ele>9.0</ele><time>2026-04-26T13:13:47Z</time></trkpt><trkpt lat="40.94604628628382" lon="8.868023053640616"><ele>9.0</ele><time>2026-04-26T13:13:48Z</time></trkpt><trkpt lat="40.946271811294594" lon="8.868144975347098"><ele>9.0</ele><time>2026-04-26T13:13:49Z</time></trkpt><trkpt lat="40.94650604566162" lon="8.868268664432735"><ele>9.0</ele><time>2026-04-26T13:13:50Z</time></trkpt><trkpt lat="40.94674895773765" lon="8.868390161957429"><ele>10.0</ele><time>2026-04-26T13:13:51Z</time></trkpt><trkpt lat="40.94699723896604" lon="8.868512477241625"><ele>11.0</ele><time>2026-04-26T13:13:52Z</time></trkpt><trkpt lat="40.94723609642083" lon="8.868631020259413"><ele>11.0</ele><time>2026-04-26T13:13:53Z</time></trkpt><trkpt lat="40.94746026308717" lon="8.86874335285698"><ele>11.0</ele><time>2026-04-26T13:13:54Z</time></trkpt><trkpt lat="40.94767859431367" lon="8.868855538740569"><ele>12.5</ele><time>2026-04-26T13:13:55Z</time></trkpt><trkpt lat="40.94789992253557" lon="8.868967184998153"><ele>14.0</ele><time>2026-04-26T13:13:56Z</time></trkpt><trkpt lat="40.94813639930012" lon="8.869082568430478"><ele>14.5</ele><time>2026-04-26T13:13:57Z</time></trkpt><trkpt lat="40.948376540831966" lon="8.86920227417891"><ele>15.0</ele><time>2026-04-26T13:13:58Z</time></trkpt><trkpt lat="40.9486228372672" lon="8.869325618783073"><ele>16.0</ele><time>2026-04-26T13:13:59Z</time></trkpt><trkpt lat="40.94886747348791" lon="8.869452483122853"><ele>17.0</ele><time>2026-04-26T13:14:00Z</time></trkpt><trkpt lat="40.9491097219049" lon="8.869571196947156"><ele>17.5</ele><time>2026-04-26T13:14:01Z</time></trkpt><trkpt lat="40.949330630664114" lon="8.869684777556984"><ele>18.0</ele><time>2026-04-26T13:14:02Z</time></trkpt><trkpt lat="40.949537103838104" lon="8.869790347136124"><ele>18.0</ele><time>2026-04-26T13:14:03Z</time></trkpt><trkpt lat="40.94972830651895" lon="8.869887878503427"><ele>18.0</ele><time>2026-04-26T13:14:04Z</time></trkpt><trkpt lat="40.94991107823626" lon="8.869981289036577"><ele>18.0</ele><time>2026-04-26T13:14:05Z</time></trkpt><trkpt lat="40.95009759263189" lon="8.87008371484476"><ele>18.5</ele><time>2026-04-26T13:14:06Z</time></trkpt><trkpt lat="40.950300212550836" lon="8.870212977893907"><ele>19.0</ele><time>2026-04-26T13:14:07Z</time></trkpt><trkpt lat="40.95050701102999" lon="8.870357905633874"><ele>19.0</ele><time>2026-04-26T13:14:08Z</time></trkpt><trkpt lat="40.950721966693116" lon="8.870514775309278"><ele>19.0</ele><time>2026-04-26T13:14:09Z</time></trkpt><trkpt lat="40.95093948554096" lon="8.870677158851558"><ele>18.5</ele><time>2026-04-26T13:14:10Z</time></trkpt><trkpt lat="40.95116558079981" lon="8.870846737150154"><ele>18.0</ele><time>2026-04-26T13:14:11Z</time></trkpt><trkpt lat="40.9513925596868" lon="8.87101291384834"><ele>20.0</ele><time>2026-04-26T13:14:12Z</time></trkpt><trkpt lat="40.95162217841163" lon="8.871183332915496"><ele>22.0</ele><time>2026-04-26T13:14:13Z</time></trkpt><trkpt lat="40.9518586634562" lon="8.871357641181445"><ele>23.5</ele><time>2026-04-26T13:14:14Z</time></trkpt><trkpt lat="40.95210163740542" lon="8.871533479175046"><ele>25.0</ele><time>2026-04-26T13:14:15Z</time></trkpt><trkpt lat="40.95234332596" lon="8.87171107550053"><ele>25.5</ele><time>2026-04-26T13:14:16Z</time></trkpt><trkpt lat="40.952584979913176" lon="8.871889226325276"><ele>26.0</ele><time>2026-04-26T13:14:17Z</time></trkpt><trkpt lat="40.95283541121646" lon="8.872070099664567"><ele>26.0</ele><time>2026-04-26T13:14:18Z</time></trkpt><trkpt lat="40.95308388763085" lon="8.872254630194274"><ele>26.0</ele><time>2026-04-26T13:14:19Z</time></trkpt><trkpt lat="40.953336051444815" lon="8.872444353295053"><ele>25.5</ele><time>2026-04-26T13:14:20Z</time></trkpt><trkpt lat="40.95358841071331" lon="8.872633198174867"><ele>25.0</ele><time>2026-04-26T13:14:21Z</time></trkpt><trkpt lat="40.953846422536294" lon="8.872823083312962"><ele>25.0</ele><time>2026-04-26T13:14:22Z</time></trkpt><trkpt lat="40.95410776193475" lon="8.873016351534016"><ele>25.0</ele><time>2026-04-26T13:14:23Z</time></trkpt><trkpt lat="40.9543708242557" lon="8.873211914419878"><ele>25.0</ele><time>2026-04-26T13:14:24Z</time></trkpt><trkpt lat="40.95463554534376" lon="8.873408013040098"><ele>25.0</ele><time>2026-04-26T13:14:25Z</time></trkpt><trkpt lat="40.954904643118496" lon="8.873605598708915"><ele>28.5</ele><time>2026-04-26T13:14:26Z</time></trkpt><trkpt lat="40.95517052427216" lon="8.873798534314723"><ele>32.0</ele><time>2026-04-26T13:14:27Z</time></trkpt><trkpt lat="40.95543449821789" lon="8.873990601613471"><ele>32.0</ele><time>2026-04-26T13:14:28Z</time></trkpt><trkpt lat="40.955684122338596" lon="8.874176758905874"><ele>32.0</ele><time>2026-04-26T13:14:29Z</time></trkpt><trkpt lat="40.95590907714714" lon="8.874341788483052"><ele>37.0</ele><time>2026-04-26T13:14:30Z</time></trkpt><trkpt lat="40.95611688400804" lon="8.874492481929813"><ele>42.0</ele><time>2026-04-26T13:14:31Z</time></trkpt><trkpt lat="40.95631173871062" lon="8.874637227257908"><ele>42.0</ele><time>2026-04-26T13:14:32Z</time></trkpt><trkpt lat="40.95649025111303" lon="8.874778659600265"><ele>42.0</ele><time>2026-04-26T13:14:33Z</time></trkpt><trkpt lat="40.95664987993532" lon="8.874932393515687"><ele>42.0</ele><time>2026-04-26T13:14:34Z</time></trkpt><trkpt lat="40.95679279311025" lon="8.875120367747598"><ele>42.333333333333336</ele><time>2026-04-26T13:14:35Z</time></trkpt><trkpt lat="40.95692196078771" lon="8.875349559506862"><ele>42.66666666666667</ele><time>2026-04-26T13:14:36Z</time></trkpt><trkpt lat="40.957039562274616" lon="8.87561288378694"><ele>43.0</ele><time>2026-04-26T13:14:37Z</time></trkpt><trkpt lat="40.957145209729624" lon="8.875893411684087"><ele>43.5</ele><time>2026-04-26T13:14:38Z</time></trkpt><trkpt lat="40.95724409160997" lon="8.876200106358143"><ele>44.0</ele><time>2026-04-26T13:14:39Z</time></trkpt><trkpt lat="40.957350252096894" lon="8.876507046934835"><ele>43.0</ele><time>2026-04-26T13:14:40Z</time></trkpt><trkpt lat="40.95746047270335" lon="8.876822256868188"><ele>42.0</ele><time>2026-04-26T13:14:41Z</time></trkpt><trkpt lat="40.957564097025816" lon="8.877119553064684"><ele>41.333333333333336</ele><time>2026-04-26T13:14:42Z</time></trkpt><trkpt lat="40.95765803526516" lon="8.877396068342025"><ele>40.66666666666667</ele><time>2026-04-26T13:14:43Z</time></trkpt><trkpt lat="40.95774768302183" lon="8.877656283624317"><ele>40.0</ele><time>2026-04-26T13:14:44Z</time></trkpt><trkpt lat="40.95783664416892" lon="8.87790516292211"><ele>40.0</ele><time>2026-04-26T13:14:45Z</time></trkpt><trkpt lat="40.95791984604198" lon="8.878141045714314"><ele>40.0</ele><time>2026-04-26T13:14:46Z</time></trkpt><trkpt lat="40.95800118574062" lon="8.878369527376774"><ele>40.0</ele><time>2026-04-26T13:14:47Z</time></trkpt><trkpt lat="40.958084724695226" lon="8.878572405895495"><ele>40.66666666666667</ele><time>2026-04-26T13:14:48Z</time></trkpt><trkpt lat="40.958185167953935" lon="8.878754760435209"><ele>41.333333333333336</ele><time>2026-04-26T13:14:49Z</time></trkpt><trkpt lat="40.958302381061905" lon="8.878914677808417"><ele>42.0</ele><time>2026-04-26T13:14:50Z</time></trkpt><trkpt lat="40.958437783339946" lon="8.879045585474366"><ele>42.0</ele><time>2026-04-26T13:14:51Z</time></trkpt><trkpt lat="40.95859215152066" lon="8.879137595719877"><ele>42.0</ele><time>2026-04-26T13:14:52Z</time></trkpt><trkpt lat="40.95876290093477" lon="8.879193666972316"><ele>42.0</ele><time>2026-04-26T13:14:53Z</time></trkpt><trkpt lat="40.9589483058356" lon="8.879218023666885"><ele>42.0</ele><time>2026-04-26T13:14:54Z</time></trkpt><trkpt lat="40.95913470161453" lon="8.879201809171697"><ele>42.0</ele><time>2026-04-26T13:14:55Z</time></trkpt><trkpt lat="40.95931476059687" lon="8.87913615699514"><ele>42.0</ele><time>2026-04-26T13:14:56Z</time></trkpt><trkpt lat="40.95950846998239" lon="8.879042131741206"><ele>43.0</ele><time>2026-04-26T13:14:57Z</time></trkpt><trkpt lat="40.95971544306766" lon="8.878934732656303"><ele>44.0</ele><time>2026-04-26T13:14:58Z</time></trkpt><trkpt lat="40.95993440216561" lon="8.878831609026888"><ele>46.5</ele><time>2026-04-26T13:14:59Z</time></trkpt><trkpt lat="40.9601621288711" lon="8.878727355737732"><ele>49.0</ele><time>2026-04-26T13:15:00Z</time></trkpt><trkpt lat="40.96039720118002" lon="8.878620455726072"><ele>49.0</ele><time>2026-04-26T13:15:01Z</time></trkpt><trkpt lat="40.960638524110585" lon="8.878514544445663"><ele>49.0</ele><time>2026-04-26T13:15:02Z</time></trkpt><trkpt lat="40.96086728334838" lon="8.87841732979055"><ele>49.33333333333333</ele><time>2026-04-26T13:15:03Z</time></trkpt><trkpt lat="40.9610730199761" lon="8.878327376531512"><ele>49.66666666666667</ele><time>2026-04-26T13:15:04Z</time></trkpt><trkpt lat="40.9612794795991" lon="8.87823415652199"><ele>50.0</ele><time>2026-04-26T13:15:05Z</time></trkpt><trkpt lat="40.96148561350445" lon="8.878144541573658"><ele>50.0</ele><time>2026-04-26T13:15:06Z</time></trkpt><trkpt lat="40.96169695176915" lon="8.878055948870111"><ele>50.0</ele><time>2026-04-26T13:15:07Z</time></trkpt><trkpt lat="40.961919395852064" lon="8.877970277790194"><ele>51.0</ele><time>2026-04-26T13:15:08Z</time></trkpt><trkpt lat="40.96215675554889" lon="8.877900372071288"><ele>52.0</ele><time>2026-04-26T13:15:09Z</time></trkpt><trkpt lat="40.9624025663345" lon="8.877840357549571"><ele>54.0</ele><time>2026-04-26T13:15:10Z</time></trkpt><trkpt lat="40.96265301895764" lon="8.877783720174028"><ele>56.0</ele><time>2026-04-26T13:15:11Z</time></trkpt><trkpt lat="40.96288339929574" lon="8.877733121884042"><ele>56.0</ele><time>2026-04-26T13:15:12Z</time></trkpt><trkpt lat="40.963096361268185" lon="8.877686068298539"><ele>56.0</ele><time>2026-04-26T13:15:13Z</time></trkpt><trkpt lat="40.96329472861168" lon="8.87764310796275"><ele>56.0</ele><time>2026-04-26T13:15:14Z</time></trkpt><trkpt lat="40.963484298886044" lon="8.877603857061752"><ele>55.66666666666667</ele><time>2026-04-26T13:15:15Z</time></trkpt><trkpt lat="40.9636610681388" lon="8.87756469637914"><ele>55.33333333333333</ele><time>2026-04-26T13:15:16Z</time></trkpt><trkpt lat="40.96382572477191" lon="8.877517786250468"><ele>55.0</ele><time>2026-04-26T13:15:17Z</time></trkpt><trkpt lat="40.96398257335771" lon="8.87745084652727"><ele>55.0</ele><time>2026-04-26T13:15:18Z</time></trkpt><trkpt lat="40.9641357403125" lon="8.877355865726395"><ele>55.0</ele><time>2026-04-26T13:15:19Z</time></trkpt><trkpt lat="40.9642975581104" lon="8.877216109173439"><ele>55.0</ele><time>2026-04-26T13:15:20Z</time></trkpt><trkpt lat="40.96445742789472" lon="8.87703801824933"><ele>57.0</ele><time>2026-04-26T13:15:21Z</time></trkpt><trkpt lat="40.96461514150704" lon="8.876832977089926"><ele>59.0</ele><time>2026-04-26T13:15:22Z</time></trkpt><trkpt lat="40.96477927024576" lon="8.876624377230973"><ele>61.0</ele><time>2026-04-26T13:15:23Z</time></trkpt><trkpt lat="40.964952202247346" lon="8.876407287880197"><ele>69.0</ele><time>2026-04-26T13:15:24Z</time></trkpt><trkpt lat="40.965127127867525" lon="8.876189137642774"><ele>77.0</ele><time>2026-04-26T13:15:25Z</time></trkpt><trkpt lat="40.96530952443184" lon="8.87596473733527"><ele>73.5</ele><time>2026-04-26T13:15:26Z</time></trkpt><trkpt lat="40.96548523226778" lon="8.875748742494354"><ele>70.0</ele><time>2026-04-26T13:15:27Z</time></trkpt><trkpt lat="40.965644982634906" lon="8.8755457661537"><ele>70.0</ele><time>2026-04-26T13:15:28Z</time></trkpt><trkpt lat="40.96580623341056" lon="8.875354537633266"><ele>70.0</ele><time>2026-04-26T13:15:29Z</time></trkpt><trkpt lat="40.965965614997444" lon="8.875198198399232"><ele>70.0</ele><time>2026-04-26T13:15:30Z</time></trkpt><trkpt lat="40.966128955477544" lon="8.875079326909798"><ele>69.66666666666666</ele><time>2026-04-26T13:15:31Z</time></trkpt><trkpt lat="40.96628877119318" lon="8.874990360598495"><ele>69.33333333333333</ele><time>2026-04-26T13:15:32Z</time></trkpt><trkpt lat="40.966444558927535" lon="8.874933044951428"><ele>69.0</ele><time>2026-04-26T13:15:33Z</time></trkpt><trkpt lat="40.966598560344224" lon="8.874903635876874"><ele>70.0</ele><time>2026-04-26T13:15:34Z</time></trkpt><trkpt lat="40.966769257242554" lon="8.874892449299997"><ele>71.0</ele><time>2026-04-26T13:15:35Z</time></trkpt><trkpt lat="40.96695962617844" lon="8.87489837036932"><ele>72.0</ele><time>2026-04-26T13:15:36Z</time></trkpt><trkpt lat="40.967162594648876" lon="8.874921354299678"><ele>72.0</ele><time>2026-04-26T13:15:37Z</time></trkpt><trkpt lat="40.96737596553703" lon="8.87496073694807"><ele>72.0</ele><time>2026-04-26T13:15:38Z</time></trkpt><trkpt lat="40.96759536994171" lon="8.875000365173447"><ele>72.0</ele><time>2026-04-26T13:15:39Z</time></trkpt><trkpt lat="40.96781883236329" lon="8.875029339640655"><ele>74.0</ele><time>2026-04-26T13:15:40Z</time></trkpt><trkpt lat="40.968022028966224" lon="8.875046305728434"><ele>76.0</ele><time>2026-04-26T13:15:41Z</time></trkpt><trkpt lat="40.96820264234583" lon="8.875069943662666"><ele>78.0</ele><time>2026-04-26T13:15:42Z</time></trkpt><trkpt lat="40.968357375548386" lon="8.875137546961849"><ele>79.25</ele><time>2026-04-26T13:15:43Z</time></trkpt><trkpt lat="40.968489193768114" lon="8.875242993243386"><ele>80.5</ele><time>2026-04-26T13:15:44Z</time></trkpt><trkpt lat="40.96860036667729" lon="8.875371514225728"><ele>81.75</ele><time>2026-04-26T13:15:45Z</time></trkpt><trkpt lat="40.96869524153271" lon="8.875506655038722"><ele>83.0</ele><time>2026-04-26T13:15:46Z</time></trkpt><trkpt lat="40.968800405692974" lon="8.87563961122407"><ele>83.0</ele><time>2026-04-26T13:15:47Z</time></trkpt><trkpt lat="40.96890767450234" lon="8.875747424476035"><ele>83.0</ele><time>2026-04-26T13:15:48Z</time></trkpt><trkpt lat="40.969028440272716" lon="8.875822086665861"><ele>83.0</ele><time>2026-04-26T13:15:49Z</time></trkpt><trkpt lat="40.96918160097646" lon="8.875860718080121"><ele>83.0</ele><time>2026-04-26T13:15:50Z</time></trkpt><trkpt lat="40.969355870353" lon="8.875865795411169"><ele>83.75</ele><time>2026-04-26T13:15:51Z</time></trkpt><trkpt lat="40.969506847780416" lon="8.875849054244462"><ele>84.5</ele><time>2026-04-26T13:15:52Z</time></trkpt><trkpt lat="40.969621906571625" lon="8.8758270047451"><ele>85.25</ele><time>2026-04-26T13:15:53Z</time></trkpt><trkpt lat="40.969714099551354" lon="8.87580270876166"><ele>86.0</ele><time>2026-04-26T13:15:54Z</time></trkpt><trkpt lat="40.96979903346105" lon="8.875773315492678"><ele>86.0</ele><time>2026-04-26T13:15:55Z</time></trkpt><trkpt lat="40.96988242887939" lon="8.875741320235342"><ele>86.0</ele><time>2026-04-26T13:15:56Z</time></trkpt><trkpt lat="40.96996247999191" lon="8.875722900821618"><ele>86.0</ele><time>2026-04-26T13:15:57Z</time></trkpt><trkpt lat="40.97004849452655" lon="8.875709190001121"><ele>86.0</ele><time>2026-04-26T13:15:58Z</time></trkpt><trkpt lat="40.97014511075407" lon="8.875681398696385"><ele>86.0</ele><time>2026-04-26T13:15:59Z</time></trkpt><trkpt lat="40.97024361155401" lon="8.875616969203781"><ele>87.25</ele><time>2026-04-26T13:16:00Z</time></trkpt><trkpt lat="40.97037223892244" lon="8.875514137287817"><ele>88.5</ele><time>2026-04-26T13:16:01Z</time></trkpt><trkpt lat="40.970496070492246" lon="8.875403774678498"><ele>89.75</ele><time>2026-04-26T13:16:02Z</time></trkpt><trkpt lat="40.97060169997232" lon="8.875320746348807"><ele>91.0</ele><time>2026-04-26T13:16:03Z</time></trkpt><trkpt lat="40.97069120028805" lon="8.87528097930543"><ele>91.0</ele><time>2026-04-26T13:16:04Z</time></trkpt><trkpt lat="40.97079500092706" lon="8.875279341522242"><ele>91.0</ele><time>2026-04-26T13:16:05Z</time></trkpt><trkpt lat="40.97091459001807" lon="8.875309410726024"><ele>91.0</ele><time>2026-04-26T13:16:06Z</time></trkpt><trkpt lat="40.97103574794451" lon="8.875363443069084"><ele>91.0</ele><time>2026-04-26T13:16:07Z</time></trkpt><trkpt lat="40.97115073765602" lon="8.875470875659438"><ele>89.33333333333333</ele><time>2026-04-26T13:16:08Z</time></trkpt><trkpt lat="40.97126944690497" lon="8.87560536188567"><ele>87.66666666666667</ele><time>2026-04-26T13:16:09Z</time></trkpt><trkpt lat="40.97137683095018" lon="8.875773896855545"><ele>86.0</ele><time>2026-04-26T13:16:10Z</time></trkpt><trkpt lat="40.97147248762266" lon="8.875978722306995"><ele>86.0</ele><time>2026-04-26T13:16:11Z</time></trkpt><trkpt lat="40.97156613613341" lon="8.876201257448189"><ele>86.0</ele><time>2026-04-26T13:16:12Z</time></trkpt><trkpt lat="40.971641967555556" lon="8.87641624984816"><ele>86.0</ele><time>2026-04-26T13:16:13Z</time></trkpt><trkpt lat="40.97168755556661" lon="8.876617181020572"><ele>82.25</ele><time>2026-04-26T13:16:14Z</time></trkpt><trkpt lat="40.97171851152317" lon="8.87680894851573"><ele>78.5</ele><time>2026-04-26T13:16:15Z</time></trkpt><trkpt lat="40.971729230583456" lon="8.877002925804828"><ele>74.75</ele><time>2026-04-26T13:16:16Z</time></trkpt><trkpt lat="40.97173085273527" lon="8.877186956379411"><ele>71.0</ele><time>2026-04-26T13:16:17Z</time></trkpt><trkpt lat="40.97172477264523" lon="8.877362046901657"><ele>71.0</ele><time>2026-04-26T13:16:18Z</time></trkpt><trkpt lat="40.971710125140405" lon="8.877547814273218"><ele>71.0</ele><time>2026-04-26T13:16:19Z</time></trkpt><trkpt lat="40.971684384404455" lon="8.87772822415533"><ele>71.0</ele><time>2026-04-26T13:16:20Z</time></trkpt><trkpt lat="40.971652259749355" lon="8.877887253684083"><ele>71.0</ele><time>2026-04-26T13:16:21Z</time></trkpt><trkpt lat="40.9716158142061" lon="8.878044030510337"><ele>75.0</ele><time>2026-04-26T13:16:22Z</time></trkpt><trkpt lat="40.9715837311292" lon="8.878201202652134"><ele>79.0</ele><time>2026-04-26T13:16:23Z</time></trkpt><trkpt lat="40.97155918247212" lon="8.878351691791735"><ele>83.0</ele><time>2026-04-26T13:16:24Z</time></trkpt><trkpt lat="40.97153714869424" lon="8.878494171485706"><ele>87.0</ele><time>2026-04-26T13:16:25Z</time></trkpt><trkpt lat="40.9715175291802" lon="8.878635685069701"><ele>87.19999999999999</ele><time>2026-04-26T13:16:26Z</time></trkpt><trkpt lat="40.97150036652728" lon="8.87877816346252"><ele>87.4</ele><time>2026-04-26T13:16:27Z</time></trkpt><trkpt lat="40.971481867835486" lon="8.878911466198439"><ele>87.6</ele><time>2026-04-26T13:16:28Z</time></trkpt><trkpt lat="40.971466090633" lon="8.879054376640175"><ele>87.80000000000001</ele><time>2026-04-26T13:16:29Z</time></trkpt><trkpt lat="40.97146190996676" lon="8.879193592915334"><ele>88.0</ele><time>2026-04-26T13:16:30Z</time></trkpt><trkpt lat="40.97146708076839" lon="8.879331496685298"><ele>88.80000000000001</ele><time>2026-04-26T13:16:31Z</time></trkpt><trkpt lat="40.97149565328348" lon="8.879460368707951"><ele>89.6</ele><time>2026-04-26T13:16:32Z</time></trkpt><trkpt lat="40.971548600715664" lon="8.879581872321873"><ele>90.4</ele><time>2026-04-26T13:16:33Z</time></trkpt><trkpt lat="40.9716170022927" lon="8.87969022538489"><ele>91.19999999999999</ele><time>2026-04-26T13:16:34Z</time></trkpt><trkpt lat="40.97170364212863" lon="8.879779860485423"><ele>92.0</ele><time>2026-04-26T13:16:35Z</time></trkpt><trkpt lat="40.971815881822465" lon="8.879824768489259"><ele>93.75</ele><time>2026-04-26T13:16:36Z</time></trkpt><trkpt lat="40.97192858253945" lon="8.879840491896292"><ele>95.5</ele><time>2026-04-26T13:16:37Z</time></trkpt><trkpt lat="40.972037202164074" lon="8.879821137487259"><ele>97.25</ele><time>2026-04-26T13:16:38Z</time></trkpt><trkpt lat="40.97214290820198" lon="8.879765873316963"><ele>99.0</ele><time>2026-04-26T13:16:39Z</time></trkpt><trkpt lat="40.9722376833315" lon="8.879670435224362"><ele>99.0</ele><time>2026-04-26T13:16:40Z</time></trkpt><trkpt lat="40.97230928264721" lon="8.8795585014584"><ele>99.0</ele><time>2026-04-26T13:16:41Z</time></trkpt><trkpt lat="40.97236361740679" lon="8.879429669561276"><ele>99.0</ele><time>2026-04-26T13:16:42Z</time></trkpt><trkpt lat="40.972408259263844" lon="8.879298883005807"><ele>99.0</ele><time>2026-04-26T13:16:43Z</time></trkpt><trkpt lat="40.97246873279847" lon="8.879162580374409"><ele>97.2</ele><time>2026-04-26T13:16:44Z</time></trkpt><trkpt lat="40.972545480516956" lon="8.879038734594742"><ele>95.4</ele><time>2026-04-26T13:16:45Z</time></trkpt><trkpt lat="40.972624314745566" lon="8.878938107997378"><ele>93.6</ele><time>2026-04-26T13:16:46Z</time></trkpt><trkpt lat="40.972709867993096" lon="8.878848620514304"><ele>91.8</ele><time>2026-04-26T13:16:47Z</time></trkpt><trkpt lat="40.97279613446001" lon="8.878758632579771"><ele>90.0</ele><time>2026-04-26T13:16:48Z</time></trkpt><trkpt lat="40.97289386386441" lon="8.878683673547846"><ele>90.0</ele><time>2026-04-26T13:16:49Z</time></trkpt><trkpt lat="40.97299960278504" lon="8.87862931584107"><ele>90.0</ele><time>2026-04-26T13:16:50Z</time></trkpt><trkpt lat="40.97310881500256" lon="8.87860989195757"><ele>90.0</ele><time>2026-04-26T13:16:51Z</time></trkpt><trkpt lat="40.97320965349396" lon="8.878606143752924"><ele>90.0</ele><time>2026-04-26T13:16:52Z</time></trkpt><trkpt lat="40.97331047791998" lon="8.878641288546124"><ele>90.0</ele><time>2026-04-26T13:16:53Z</time></trkpt><trkpt lat="40.973404806217424" lon="8.878711317585076"><ele>87.6</ele><time>2026-04-26T13:16:54Z</time></trkpt><trkpt lat="40.973483809661744" lon="8.878802610648863"><ele>85.2</ele><time>2026-04-26T13:16:55Z</time></trkpt><trkpt lat="40.973547488328094" lon="8.878912514738193"><ele>82.8</ele><time>2026-04-26T13:16:56Z</time></trkpt><trkpt lat="40.973592090657704" lon="8.879048476657003"><ele>80.4</ele><time>2026-04-26T13:16:57Z</time></trkpt><trkpt lat="40.97362783351095" lon="8.879209500224567"><ele>78.0</ele><time>2026-04-26T13:16:58Z</time></trkpt><trkpt lat="40.97366032263198" lon="8.879386575310464"><ele>78.0</ele><time>2026-04-26T13:16:59Z</time></trkpt><trkpt lat="40.97367740543689" lon="8.87960342569864"><ele>78.0</ele><time>2026-04-26T13:17:00Z</time></trkpt><trkpt lat="40.973716862938076" lon="8.879841962856124"><ele>78.0</ele><time>2026-04-26T13:17:01Z</time></trkpt><trkpt lat="40.973770828521985" lon="8.880095641808612"><ele>80.66666666666667</ele><time>2026-04-26T13:17:02Z</time></trkpt><trkpt lat="40.97379696846122" lon="8.880342396160723"><ele>83.33333333333334</ele><time>2026-04-26T13:17:03Z</time></trkpt><trkpt lat="40.97380546075078" lon="8.880569635644594"><ele>86.0</ele><time>2026-04-26T13:17:03.999Z</time></trkpt><trkpt lat="40.973790128026565" lon="8.880783778866698"><ele>88.33333333333334</ele><time>2026-04-26T13:17:04.999Z</time></trkpt><trkpt lat="40.97374666898985" lon="8.881000569823968"><ele>90.66666666666667</ele><time>2026-04-26T13:17:05.999Z</time></trkpt><trkpt lat="40.9736726543773" lon="8.881233675100196"><ele>93.0</ele><time>2026-04-26T13:17:06.999Z</time></trkpt><trkpt lat="40.97360711103601" lon="8.881449710347066"><ele>93.0</ele><time>2026-04-26T13:17:07.999Z</time></trkpt><trkpt lat="40.97357829627247" lon="8.881659567484437"><ele>93.0</ele><time>2026-04-26T13:17:08.999Z</time></trkpt><trkpt lat="40.97357844332789" lon="8.88185980214537"><ele>93.0</ele><time>2026-04-26T13:17:09.999Z</time></trkpt><trkpt lat="40.973601929412354" lon="8.882032659912486"><ele>93.0</ele><time>2026-04-26T13:17:10.999Z</time></trkpt><trkpt lat="40.97365578581777" lon="8.882163234202926"><ele>94.75</ele><time>2026-04-26T13:17:11.999Z</time></trkpt><trkpt lat="40.97374281865135" lon="8.882263051905934"><ele>96.5</ele><time>2026-04-26T13:17:12.999Z</time></trkpt><trkpt lat="40.97385114431854" lon="8.882327634414354"><ele>98.25</ele><time>2026-04-26T13:17:13.999Z</time></trkpt><trkpt lat="40.97396345132554" lon="8.882340482410314"><ele>100.0</ele><time>2026-04-26T13:17:14.999Z</time></trkpt><trkpt lat="40.97408506157167" lon="8.882310296535097"><ele>100.25</ele><time>2026-04-26T13:17:15.999Z</time></trkpt><trkpt lat="40.974192020089156" lon="8.882225272348272"><ele>100.5</ele><time>2026-04-26T13:17:16.999Z</time></trkpt><trkpt lat="40.9742803337017" lon="8.88209543214702"><ele>100.75</ele><time>2026-04-26T13:17:17.999Z</time></trkpt><trkpt lat="40.97434139979939" lon="8.881927671934234"><ele>101.0</ele><time>2026-04-26T13:17:18.999Z</time></trkpt><trkpt lat="40.97440907610913" lon="8.881760413390381"><ele>101.0</ele><time>2026-04-26T13:17:19.999Z</time></trkpt><trkpt lat="40.9745207775305" lon="8.88161690866211"><ele>101.0</ele><time>2026-04-26T13:17:20.999Z</time></trkpt><trkpt lat="40.9746568750371" lon="8.881485114870785"><ele>101.0</ele><time>2026-04-26T13:17:21.999Z</time></trkpt><trkpt lat="40.97478132344982" lon="8.881378227641926"><ele>101.0</ele><time>2026-04-26T13:17:22.999Z</time></trkpt><trkpt lat="40.974895417364685" lon="8.881302619913601"><ele>101.0</ele><time>2026-04-26T13:17:24Z</time></trkpt><trkpt lat="40.97501845536339" lon="8.881277615172994"><ele>101.0</ele><time>2026-04-26T13:17:25Z</time></trkpt><trkpt lat="40.975138117279904" lon="8.881291582920811"><ele>101.0</ele><time>2026-04-26T13:17:26Z</time></trkpt><trkpt lat="40.975253558640716" lon="8.881354859621911"><ele>99.0</ele><time>2026-04-26T13:17:27Z</time></trkpt><trkpt lat="40.97535743641876" lon="8.881464962170439"><ele>97.0</ele><time>2026-04-26T13:17:28Z</time></trkpt><trkpt lat="40.97543850088093" lon="8.881622346032598"><ele>95.0</ele><time>2026-04-26T13:17:29Z</time></trkpt><trkpt lat="40.975477672110195" lon="8.881790239355228"><ele>93.0</ele><time>2026-04-26T13:17:30Z</time></trkpt><trkpt lat="40.97545065965831" lon="8.88196479297291"><ele>93.0</ele><time>2026-04-26T13:17:31Z</time></trkpt><trkpt lat="40.97539996080426" lon="8.882148077672746"><ele>93.0</ele><time>2026-04-26T13:17:32Z</time></trkpt><trkpt lat="40.975319780290214" lon="8.882360419902078"><ele>93.0</ele><time>2026-04-26T13:17:33Z</time></trkpt><trkpt lat="40.97522594365772" lon="8.882587181177236"><ele>94.33333333333334</ele><time>2026-04-26T13:17:34Z</time></trkpt><trkpt lat="40.975133417969126" lon="8.882827416504329"><ele>95.66666666666667</ele><time>2026-04-26T13:17:35Z</time></trkpt><trkpt lat="40.97503849209791" lon="8.883046342580654"><ele>97.0</ele><time>2026-04-26T13:17:36Z</time></trkpt><trkpt lat="40.97499060716131" lon="8.883276503528911"><ele>99.33333333333334</ele><time>2026-04-26T13:17:37Z</time></trkpt><trkpt lat="40.97501353811081" lon="8.883519009513696"><ele>101.66666666666666</ele><time>2026-04-26T13:17:38Z</time></trkpt><trkpt lat="40.9750452444003" lon="8.883779714519694"><ele>104.0</ele><time>2026-04-26T13:17:39Z</time></trkpt><trkpt lat="40.97509209971514" lon="8.884053164213523"><ele>107.33333333333333</ele><time>2026-04-26T13:17:40Z</time></trkpt><trkpt lat="40.975143084905575" lon="8.884342452722926"><ele>110.66666666666666</ele><time>2026-04-26T13:17:41Z</time></trkpt><trkpt lat="40.97518811716464" lon="8.884621141883784"><ele>114.0</ele><time>2026-04-26T13:17:42Z</time></trkpt><trkpt lat="40.975228329549466" lon="8.884877119850781"><ele>117.0</ele><time>2026-04-26T13:17:43Z</time></trkpt><trkpt lat="40.97526422678459" lon="8.885107805116013"><ele>120.0</ele><time>2026-04-26T13:17:44Z</time></trkpt><trkpt lat="40.97530517617389" lon="8.885311474466729"><ele>123.0</ele><time>2026-04-26T13:17:45Z</time></trkpt><trkpt lat="40.97537352027197" lon="8.885473912682645"><ele>123.0</ele><time>2026-04-26T13:17:46Z</time></trkpt><trkpt lat="40.97547332684125" lon="8.885607878129338"><ele>123.0</ele><time>2026-04-26T13:17:47Z</time></trkpt><trkpt lat="40.97560291086346" lon="8.885713916484272"><ele>123.0</ele><time>2026-04-26T13:17:48Z</time></trkpt><trkpt lat="40.975755980271984" lon="8.885798889998378"><ele>124.0</ele><time>2026-04-26T13:17:49Z</time></trkpt><trkpt lat="40.97590533577458" lon="8.885859752594358"><ele>125.0</ele><time>2026-04-26T13:17:50Z</time></trkpt><trkpt lat="40.976045764723075" lon="8.885884439632818"><ele>126.0</ele><time>2026-04-26T13:17:51Z</time></trkpt><trkpt lat="40.97618916839487" lon="8.885844511546177"><ele>127.0</ele><time>2026-04-26T13:17:52Z</time></trkpt><trkpt lat="40.976346577406225" lon="8.885758292302159"><ele>127.0</ele><time>2026-04-26T13:17:53Z</time></trkpt><trkpt lat="40.97652044080456" lon="8.885669373470996"><ele>127.0</ele><time>2026-04-26T13:17:54Z</time></trkpt><trkpt lat="40.97672003296085" lon="8.885617930036869"><ele>127.0</ele><time>2026-04-26T13:17:55Z</time></trkpt><trkpt lat="40.97692269083995" lon="8.885581017359454"><ele>131.33333333333334</ele><time>2026-04-26T13:17:56Z</time></trkpt><trkpt lat="40.9771080526148" lon="8.885554691137077"><ele>135.66666666666666</ele><time>2026-04-26T13:17:57Z</time></trkpt><trkpt lat="40.97727526807645" lon="8.885517994858743"><ele>140.0</ele><time>2026-04-26T13:17:58Z</time></trkpt><trkpt lat="40.97741263432765" lon="8.885433459399923"><ele>142.5</ele><time>2026-04-26T13:17:59Z</time></trkpt><trkpt lat="40.97752358214401" lon="8.88530806066582"><ele>145.0</ele><time>2026-04-26T13:18:00Z</time></trkpt><trkpt lat="40.9775974635104" lon="8.885150812775013"><ele>147.5</ele><time>2026-04-26T13:18:01Z</time></trkpt><trkpt lat="40.97765324893421" lon="8.88498921172239"><ele>150.0</ele><time>2026-04-26T13:18:02Z</time></trkpt><trkpt lat="40.97773759560936" lon="8.88485014969468"><ele>143.0</ele><time>2026-04-26T13:18:03Z</time></trkpt><trkpt lat="40.97789302463879" lon="8.884764029381218"><ele>136.0</ele><time>2026-04-26T13:18:04Z</time></trkpt><trkpt lat="40.97806627442517" lon="8.884658961990532"><ele>129.0</ele><time>2026-04-26T13:18:05Z</time></trkpt><trkpt lat="40.97824179440144" lon="8.884538572643448"><ele>128.66666666666666</ele><time>2026-04-26T13:18:06Z</time></trkpt><trkpt lat="40.9784055149614" lon="8.884447643571747"><ele>128.33333333333331</ele><time>2026-04-26T13:18:07Z</time></trkpt><trkpt lat="40.9785640150219" lon="8.884372631445911"><ele>128.0</ele><time>2026-04-26T13:18:08Z</time></trkpt><trkpt lat="40.97872379001723" lon="8.884335265553558"><ele>128.0</ele><time>2026-04-26T13:18:09Z</time></trkpt><trkpt lat="40.9788798172401" lon="8.884339151462635"><ele>128.0</ele><time>2026-04-26T13:18:10Z</time></trkpt><trkpt lat="40.97903017094022" lon="8.884398526847995"><ele>128.0</ele><time>2026-04-26T13:18:11Z</time></trkpt><trkpt lat="40.97918271712441" lon="8.88447331378351"><ele>120.33333333333333</ele><time>2026-04-26T13:18:12Z</time></trkpt><trkpt lat="40.97933519976324" lon="8.884569975477772"><ele>112.66666666666666</ele><time>2026-04-26T13:18:13Z</time></trkpt><trkpt lat="40.979456119756755" lon="8.884688820201019"><ele>105.0</ele><time>2026-04-26T13:18:14Z</time></trkpt><trkpt lat="40.97954711096182" lon="8.884837720661702"><ele>105.0</ele><time>2026-04-26T13:18:15Z</time></trkpt><trkpt lat="40.97967125729499" lon="8.885005893534213"><ele>105.0</ele><time>2026-04-26T13:18:16Z</time></trkpt><trkpt lat="40.979787189895134" lon="8.885197654927316"><ele>105.0</ele><time>2026-04-26T13:18:17Z</time></trkpt><trkpt lat="40.97989141192766" lon="8.88537374788851"><ele>106.0</ele><time>2026-04-26T13:18:18Z</time></trkpt><trkpt lat="40.97997133869891" lon="8.885551515021133"><ele>107.0</ele><time>2026-04-26T13:18:19Z</time></trkpt><trkpt lat="40.9800075958041" lon="8.88577855223698"><ele>108.0</ele><time>2026-04-26T13:18:20Z</time></trkpt><trkpt lat="40.98007014638124" lon="8.88602666245017"><ele>108.0</ele><time>2026-04-26T13:18:21Z</time></trkpt><trkpt lat="40.98010466673667" lon="8.886267421673416"><ele>108.0</ele><time>2026-04-26T13:18:22Z</time></trkpt><trkpt lat="40.98014766908914" lon="8.886485523012734"><ele>108.0</ele><time>2026-04-26T13:18:23Z</time></trkpt><trkpt lat="40.980195760945584" lon="8.88668446031686"><ele>114.25</ele><time>2026-04-26T13:18:24Z</time></trkpt><trkpt lat="40.9802532810177" lon="8.886855613211607"><ele>120.5</ele><time>2026-04-26T13:18:25Z</time></trkpt><trkpt lat="40.98034261060103" lon="8.886999294675956"><ele>126.75</ele><time>2026-04-26T13:18:26Z</time></trkpt><trkpt lat="40.98046045325683" lon="8.887098344540556"><ele>133.0</ele><time>2026-04-26T13:18:27Z</time></trkpt><trkpt lat="40.98059933123318" lon="8.88715205845407"><ele>133.0</ele><time>2026-04-26T13:18:28Z</time></trkpt><trkpt lat="40.98076281766466" lon="8.887173832811769"><ele>133.0</ele><time>2026-04-26T13:18:29Z</time></trkpt><trkpt lat="40.980952103482416" lon="8.887179206381068"><ele>133.0</ele><time>2026-04-26T13:18:30Z</time></trkpt><trkpt lat="40.981133597035395" lon="8.887208253858786"><ele>128.0</ele><time>2026-04-26T13:18:31Z</time></trkpt><trkpt lat="40.981307948659456" lon="8.887318850384844"><ele>123.0</ele><time>2026-04-26T13:18:32Z</time></trkpt><trkpt lat="40.98147720368049" lon="8.887434313283812"><ele>118.0</ele><time>2026-04-26T13:18:33Z</time></trkpt><trkpt lat="40.981630070941705" lon="8.88756549945375"><ele>115.66666666666667</ele><time>2026-04-26T13:18:34Z</time></trkpt><trkpt lat="40.98178996512259" lon="8.887714610005268"><ele>113.33333333333334</ele><time>2026-04-26T13:18:35Z</time></trkpt><trkpt lat="40.9819358552725" lon="8.887910136133266"><ele>111.0</ele><time>2026-04-26T13:18:36Z</time></trkpt><trkpt lat="40.98207004312665" lon="8.888107900719467"><ele>111.0</ele><time>2026-04-26T13:18:37Z</time></trkpt><trkpt lat="40.98218626825082" lon="8.8882876637106"><ele>111.0</ele><time>2026-04-26T13:18:38Z</time></trkpt><trkpt lat="40.982278894983175" lon="8.888447299814688"><ele>111.0</ele><time>2026-04-26T13:18:39Z</time></trkpt><trkpt lat="40.98231081171409" lon="8.888600442888203"><ele>113.25</ele><time>2026-04-26T13:18:40Z</time></trkpt><trkpt lat="40.98233431914233" lon="8.888749795386063"><ele>115.5</ele><time>2026-04-26T13:18:41Z</time></trkpt><trkpt lat="40.9823019019492" lon="8.888928469120279"><ele>117.75</ele><time>2026-04-26T13:18:42Z</time></trkpt><trkpt lat="40.982253831757376" lon="8.889137133634625"><ele>120.0</ele><time>2026-04-26T13:18:43Z</time></trkpt><trkpt lat="40.98222525355318" lon="8.889332129522188"><ele>124.75</ele><time>2026-04-26T13:18:44Z</time></trkpt><trkpt lat="40.982240471959805" lon="8.889513863844446"><ele>129.5</ele><time>2026-04-26T13:18:45Z</time></trkpt><trkpt lat="40.982283886433926" lon="8.889680416392967"><ele>134.25</ele><time>2026-04-26T13:18:46Z</time></trkpt><trkpt lat="40.982347106213986" lon="8.889824128953789"><ele>139.0</ele><time>2026-04-26T13:18:47Z</time></trkpt><trkpt lat="40.982441691280926" lon="8.889928214939115"><ele>140.5</ele><time>2026-04-26T13:18:48Z</time></trkpt><trkpt lat="40.98256742093386" lon="8.889995018535814"><ele>142.0</ele><time>2026-04-26T13:18:49Z</time></trkpt><trkpt lat="40.98272393380574" lon="8.890029050766195"><ele>143.5</ele><time>2026-04-26T13:18:50Z</time></trkpt><trkpt lat="40.98287742354152" lon="8.89001247559124"><ele>145.0</ele><time>2026-04-26T13:18:51Z</time></trkpt><trkpt lat="40.98300419996866" lon="8.889936860305333"><ele>145.0</ele><time>2026-04-26T13:18:52Z</time></trkpt><trkpt lat="40.9831250640491" lon="8.889812085015791"><ele>145.0</ele><time>2026-04-26T13:18:53Z</time></trkpt><trkpt lat="40.983249427964374" lon="8.889643855804486"><ele>145.0</ele><time>2026-04-26T13:18:54Z</time></trkpt><trkpt lat="40.98337257919964" lon="8.889491642272402"><ele>143.0</ele><time>2026-04-26T13:18:55Z</time></trkpt><trkpt lat="40.98350133546733" lon="8.889415998904925"><ele>141.0</ele><time>2026-04-26T13:18:56Z</time></trkpt><trkpt lat="40.983618096498816" lon="8.889387640311035"><ele>139.0</ele><time>2026-04-26T13:18:57Z</time></trkpt><trkpt lat="40.98374636029062" lon="8.88939441960607"><ele>137.0</ele><time>2026-04-26T13:18:58Z</time></trkpt><trkpt lat="40.98388821692904" lon="8.889418915865928"><ele>137.0</ele><time>2026-04-26T13:18:59Z</time></trkpt><trkpt lat="40.98401197706828" lon="8.889529477005564"><ele>137.0</ele><time>2026-04-26T13:19:00Z</time></trkpt><trkpt lat="40.98415689826265" lon="8.889659363775605"><ele>137.0</ele><time>2026-04-26T13:19:01Z</time></trkpt><trkpt lat="40.98432450721055" lon="8.889788778489645"><ele>137.66666666666666</ele><time>2026-04-26T13:19:02Z</time></trkpt><trkpt lat="40.984489486980586" lon="8.88995240371348"><ele>138.33333333333334</ele><time>2026-04-26T13:19:03Z</time></trkpt><trkpt lat="40.98466016776536" lon="8.89011777154381"><ele>139.0</ele><time>2026-04-26T13:19:04Z</time></trkpt><trkpt lat="40.984815354659084" lon="8.890270121882665"><ele>139.0</ele><time>2026-04-26T13:19:05Z</time></trkpt><trkpt lat="40.98494986970123" lon="8.890412879856012"><ele>139.0</ele><time>2026-04-26T13:19:06Z</time></trkpt><trkpt lat="40.985048231386926" lon="8.890564627584846"><ele>139.0</ele><time>2026-04-26T13:19:07Z</time></trkpt><trkpt lat="40.98511159548392" lon="8.890763989593653"><ele>140.33333333333334</ele><time>2026-04-26T13:19:08Z</time></trkpt><trkpt lat="40.9851901416426" lon="8.890985597340453"><ele>141.66666666666666</ele><time>2026-04-26T13:19:09Z</time></trkpt><trkpt lat="40.98524399893789" lon="8.891207407418564"><ele>143.0</ele><time>2026-04-26T13:19:10Z</time></trkpt><trkpt lat="40.98531904077808" lon="8.891381194816635"><ele>143.0</ele><time>2026-04-26T13:19:11Z</time></trkpt><trkpt lat="40.985421728698014" lon="8.891499675091518"><ele>143.0</ele><time>2026-04-26T13:19:12Z</time></trkpt><trkpt lat="40.98554471999639" lon="8.891564524439808"><ele>143.0</ele><time>2026-04-26T13:19:13Z</time></trkpt><trkpt lat="40.98569122952961" lon="8.89159054647248"><ele>143.0</ele><time>2026-04-26T13:19:14Z</time></trkpt><trkpt lat="40.98585731868605" lon="8.891618142299686"><ele>143.66666666666666</ele><time>2026-04-26T13:19:15Z</time></trkpt><trkpt lat="40.98600412626331" lon="8.891700837894637"><ele>144.33333333333334</ele><time>2026-04-26T13:19:16Z</time></trkpt><trkpt lat="40.98614861642217" lon="8.891844980397673"><ele>145.0</ele><time>2026-04-26T13:19:17Z</time></trkpt><trkpt lat="40.98629654451668" lon="8.892006012745032"><ele>145.0</ele><time>2026-04-26T13:19:18Z</time></trkpt><trkpt lat="40.986430737596876" lon="8.892160923696492"><ele>145.0</ele><time>2026-04-26T13:19:19Z</time></trkpt><trkpt lat="40.98654613993364" lon="8.892347330417563"><ele>145.0</ele><time>2026-04-26T13:19:20Z</time></trkpt><trkpt lat="40.986657500972306" lon="8.892572130534665"><ele>140.66666666666669</ele><time>2026-04-26T13:19:20.999Z</time></trkpt><trkpt lat="40.98676805290483" lon="8.89281362060098"><ele>136.33333333333334</ele><time>2026-04-26T13:19:21.999Z</time></trkpt><trkpt lat="40.98687819533417" lon="8.8930722150753"><ele>132.0</ele><time>2026-04-26T13:19:22.999Z</time></trkpt><trkpt lat="40.98697901459741" lon="8.893341081921625"><ele>136.0</ele><time>2026-04-26T13:19:23.999Z</time></trkpt><trkpt lat="40.98707607228435" lon="8.893609389222028"><ele>140.0</ele><time>2026-04-26T13:19:24.999Z</time></trkpt><trkpt lat="40.98715776485231" lon="8.893850551187914"><ele>144.0</ele><time>2026-04-26T13:19:25.999Z</time></trkpt><trkpt lat="40.987229701078824" lon="8.894078895787958"><ele>149.33333333333334</ele><time>2026-04-26T13:19:26.999Z</time></trkpt><trkpt lat="40.987269611851346" lon="8.894292584093197"><ele>154.66666666666669</ele><time>2026-04-26T13:19:27.999Z</time></trkpt><trkpt lat="40.9872797273537" lon="8.894493337509921"><ele>160.0</ele><time>2026-04-26T13:19:28.999Z</time></trkpt><trkpt lat="40.987312886760726" lon="8.894672697479143"><ele>160.0</ele><time>2026-04-26T13:19:30Z</time></trkpt><trkpt lat="40.98738513959154" lon="8.89481702507387"><ele>160.0</ele><time>2026-04-26T13:19:31Z</time></trkpt><trkpt lat="40.987492068559604" lon="8.894926279219165"><ele>160.0</ele><time>2026-04-26T13:19:32Z</time></trkpt><trkpt lat="40.98764523760198" lon="8.89500699061255"><ele>160.0</ele><time>2026-04-26T13:19:33Z</time></trkpt><trkpt lat="40.987804608863456" lon="8.89509278723194"><ele>159.33333333333334</ele><time>2026-04-26T13:19:34Z</time></trkpt><trkpt lat="40.987925732521255" lon="8.895225385766814"><ele>158.66666666666666</ele><time>2026-04-26T13:19:35Z</time></trkpt><trkpt lat="40.98798447914558" lon="8.895442126532828"><ele>158.0</ele><time>2026-04-26T13:19:36Z</time></trkpt><trkpt lat="40.98808574013762" lon="8.895637440117197"><ele>158.0</ele><time>2026-04-26T13:19:37Z</time></trkpt><trkpt lat="40.98818374669534" lon="8.895801384102981"><ele>158.0</ele><time>2026-04-26T13:19:38Z</time></trkpt><trkpt lat="40.98832405821004" lon="8.895932394838344"><ele>158.0</ele><time>2026-04-26T13:19:39Z</time></trkpt><trkpt lat="40.98848164367672" lon="8.896024367549183"><ele>164.0</ele><time>2026-04-26T13:19:40Z</time></trkpt><trkpt lat="40.98863619329318" lon="8.896090046155877"><ele>170.0</ele><time>2026-04-26T13:19:41Z</time></trkpt><trkpt lat="40.98879526103924" lon="8.896128901870775"><ele>176.0</ele><time>2026-04-26T13:19:42Z</time></trkpt><trkpt lat="40.98894155851487" lon="8.896146455573383"><ele>176.0</ele><time>2026-04-26T13:19:43Z</time></trkpt><trkpt lat="40.98907752812683" lon="8.896190656427477"><ele>176.0</ele><time>2026-04-26T13:19:44Z</time></trkpt><trkpt lat="40.98920841944584" lon="8.896260175358487"><ele>176.0</ele><time>2026-04-26T13:19:45Z</time></trkpt><trkpt lat="40.9893311218632" lon="8.896348725544044"><ele>176.0</ele><time>2026-04-26T13:19:46Z</time></trkpt><trkpt lat="40.98944970440513" lon="8.896453125424973"><ele>176.66666666666666</ele><time>2026-04-26T13:19:47Z</time></trkpt><trkpt lat="40.98956152772542" lon="8.896604019342265"><ele>177.33333333333334</ele><time>2026-04-26T13:19:48Z</time></trkpt><trkpt lat="40.98966234167361" lon="8.896778187117734"><ele>178.0</ele><time>2026-04-26T13:19:49Z</time></trkpt><trkpt lat="40.989732429475815" lon="8.896948016564924"><ele>178.0</ele><time>2026-04-26T13:19:50Z</time></trkpt><trkpt lat="40.98978667343961" lon="8.897105375188055"><ele>178.0</ele><time>2026-04-26T13:19:51Z</time></trkpt><trkpt lat="40.98985290485244" lon="8.897226507632496"><ele>178.0</ele><time>2026-04-26T13:19:52Z</time></trkpt><trkpt lat="40.9899300361328" lon="8.897315560369185"><ele>178.0</ele><time>2026-04-26T13:19:53Z</time></trkpt><trkpt lat="40.990009808474994" lon="8.89737922758146"><ele>178.0</ele><time>2026-04-26T13:19:54Z</time></trkpt><trkpt lat="40.99009659542668" lon="8.897437900118058"><ele>177.8</ele><time>2026-04-26T13:19:55Z</time></trkpt><trkpt lat="40.990190953099614" lon="8.89747724084234"><ele>177.60000000000002</ele><time>2026-04-26T13:19:56Z</time></trkpt><trkpt lat="40.99029522847248" lon="8.897484225864492"><ele>177.39999999999998</ele><time>2026-04-26T13:19:57Z</time></trkpt><trkpt lat="40.99039492679299" lon="8.89748022689847"><ele>177.2</ele><time>2026-04-26T13:19:58Z</time></trkpt><trkpt lat="40.990490286054275" lon="8.897500621542635"><ele>177.0</ele><time>2026-04-26T13:19:59Z</time></trkpt><trkpt lat="40.99056266015434" lon="8.897590509499441"><ele>177.0</ele><time>2026-04-26T13:20:00Z</time></trkpt><trkpt lat="40.9906183646617" lon="8.897696066727432"><ele>177.0</ele><time>2026-04-26T13:20:01Z</time></trkpt><trkpt lat="40.990653952703795" lon="8.897822232856587"><ele>177.0</ele><time>2026-04-26T13:20:02Z</time></trkpt><trkpt lat="40.99068003781229" lon="8.897953656648513"><ele>177.0</ele><time>2026-04-26T13:20:03Z</time></trkpt><trkpt lat="40.990692609415404" lon="8.898087274845764"><ele>177.0</ele><time>2026-04-26T13:20:04Z</time></trkpt><trkpt lat="40.990708826738306" lon="8.898216001975243"><ele>177.0</ele><time>2026-04-26T13:20:05Z</time></trkpt><trkpt lat="40.9907427088679" lon="8.898339449555843"><ele>177.0</ele><time>2026-04-26T13:20:06Z</time></trkpt><trkpt lat="40.99079075367962" lon="8.898455644877926"><ele>177.0</ele><time>2026-04-26T13:20:07Z</time></trkpt><trkpt lat="40.990846370336726" lon="8.898557210237156"><ele>177.0</ele><time>2026-04-26T13:20:08Z</time></trkpt><trkpt lat="40.99089981003441" lon="8.898647197221385"><ele>177.0</ele><time>2026-04-26T13:20:09Z</time></trkpt><trkpt lat="40.99095474869252" lon="8.898732407772686"><ele>177.2</ele><time>2026-04-26T13:20:10Z</time></trkpt><trkpt lat="40.991017408359646" lon="8.898809532303442"><ele>177.39999999999998</ele><time>2026-04-26T13:20:11Z</time></trkpt><trkpt lat="40.991088189215276" lon="8.898871155425534"><ele>177.60000000000002</ele><time>2026-04-26T13:20:12Z</time></trkpt><trkpt lat="40.99117112854599" lon="8.898930173996334"><ele>177.8</ele><time>2026-04-26T13:20:13Z</time></trkpt><trkpt lat="40.991261690252976" lon="8.89899130508646"><ele>178.0</ele><time>2026-04-26T13:20:14Z</time></trkpt><trkpt lat="40.991352335889275" lon="8.899059887028153"><ele>178.0</ele><time>2026-04-26T13:20:15Z</time></trkpt><trkpt lat="40.991434389923214" lon="8.899147352273294"><ele>178.0</ele><time>2026-04-26T13:20:16Z</time></trkpt><trkpt lat="40.9915057124976" lon="8.89926438640083"><ele>178.0</ele><time>2026-04-26T13:20:17Z</time></trkpt><trkpt lat="40.991575846762196" lon="8.899382843291997"><ele>178.0</ele><time>2026-04-26T13:20:18Z</time></trkpt><trkpt lat="40.99164256213051" lon="8.899492913666377"><ele>178.0</ele><time>2026-04-26T13:20:19Z</time></trkpt><trkpt lat="40.9917044315024" lon="8.899597149230198"><ele>178.2</ele><time>2026-04-26T13:20:20Z</time></trkpt><trkpt lat="40.991761297441364" lon="8.899696732918336"><ele>178.4</ele><time>2026-04-26T13:20:21Z</time></trkpt><trkpt lat="40.991815720486834" lon="8.899796325474371"><ele>178.6</ele><time>2026-04-26T13:20:22Z</time></trkpt><trkpt lat="40.99186190177643" lon="8.899908860477343"><ele>178.79999999999998</ele><time>2026-04-26T13:20:23Z</time></trkpt><trkpt lat="40.991887860715586" lon="8.900034876742406"><ele>179.0</ele><time>2026-04-26T13:20:24Z</time></trkpt><trkpt lat="40.99188992741368" lon="8.900171697241026"><ele>179.0</ele><time>2026-04-26T13:20:25Z</time></trkpt><trkpt lat="40.99186494283824" lon="8.900302425470427"><ele>179.0</ele><time>2026-04-26T13:20:26Z</time></trkpt><trkpt lat="40.99179608940577" lon="8.900413073243836"><ele>179.0</ele><time>2026-04-26T13:20:26.999Z</time></trkpt><trkpt lat="40.99173067960743" lon="8.900545657826104"><ele>179.0</ele><time>2026-04-26T13:20:27.999Z</time></trkpt><trkpt lat="40.99166123662847" lon="8.900630297066254"><ele>179.0</ele><time>2026-04-26T13:20:28.999Z</time></trkpt><trkpt lat="40.991606737469766" lon="8.900719085867502"><ele>182.6</ele><time>2026-04-26T13:20:29.999Z</time></trkpt><trkpt lat="40.991569876799545" lon="8.90082241560319"><ele>186.2</ele><time>2026-04-26T13:20:30.999Z</time></trkpt><trkpt lat="40.99155001769646" lon="8.900943041315706"><ele>189.79999999999998</ele><time>2026-04-26T13:20:31.999Z</time></trkpt><trkpt lat="40.99154811290619" lon="8.901078164296452"><ele>193.39999999999998</ele><time>2026-04-26T13:20:32.999Z</time></trkpt><trkpt lat="40.991571784625485" lon="8.901216497270793"><ele>197.0</ele><time>2026-04-26T13:20:33.999Z</time></trkpt><trkpt lat="40.991614068310064" lon="8.901337853703682"><ele>197.39999999999998</ele><time>2026-04-26T13:20:34.999Z</time></trkpt><trkpt lat="40.991669821563576" lon="8.901434901412054"><ele>197.79999999999998</ele><time>2026-04-26T13:20:35.999Z</time></trkpt><trkpt lat="40.99174320088235" lon="8.901518371476577"><ele>198.2</ele><time>2026-04-26T13:20:36.999Z</time></trkpt><trkpt lat="40.991834408134814" lon="8.90158181455445"><ele>198.6</ele><time>2026-04-26T13:20:37.999Z</time></trkpt><trkpt lat="40.99194039003415" lon="8.901617181626323"><ele>199.0</ele><time>2026-04-26T13:20:38.999Z</time></trkpt><trkpt lat="40.992033374656835" lon="8.90162488642533"><ele>198.99999999999997</ele><time>2026-04-26T13:20:39.999Z</time></trkpt><trkpt lat="40.992115765792185" lon="8.901620269558757"><ele>199.0</ele><time>2026-04-26T13:20:40.999Z</time></trkpt><trkpt lat="40.99220339983723" lon="8.901603353169948"><ele>199.0</ele><time>2026-04-26T13:20:41.999Z</time></trkpt><trkpt lat="40.99229438596968" lon="8.901584514111223"><ele>199.0</ele><time>2026-04-26T13:20:42.999Z</time></trkpt><trkpt lat="40.99238330989367" lon="8.901583701546594"><ele>198.99999999999997</ele><time>2026-04-26T13:20:43.999Z</time></trkpt><trkpt lat="40.99247611883031" lon="8.901604260959862"><ele>199.0</ele><time>2026-04-26T13:20:44.999Z</time></trkpt><trkpt lat="40.992569358182976" lon="8.90165948124763"><ele>200.0</ele><time>2026-04-26T13:20:45.999Z</time></trkpt><trkpt lat="40.992661761353624" lon="8.901768805160282"><ele>201.0</ele><time>2026-04-26T13:20:46.999Z</time></trkpt><trkpt lat="40.9927386589501" lon="8.901887327159452"><ele>202.0</ele><time>2026-04-26T13:20:47.999Z</time></trkpt><trkpt lat="40.992828338756915" lon="8.901987187490578"><ele>203.0</ele><time>2026-04-26T13:20:48.999Z</time></trkpt><trkpt lat="40.99295945817579" lon="8.902058664498083"><ele>203.0</ele><time>2026-04-26T13:20:49.999Z</time></trkpt><trkpt lat="40.993088553190574" lon="8.902089251763684"><ele>203.0</ele><time>2026-04-26T13:20:50.999Z</time></trkpt><trkpt lat="40.993198488738514" lon="8.902110959636383"><ele>203.0</ele><time>2026-04-26T13:20:51.999Z</time></trkpt><trkpt lat="40.99329591326464" lon="8.902148371054981"><ele>203.0</ele><time>2026-04-26T13:20:52.999Z</time></trkpt><trkpt lat="40.99337991668847" lon="8.902214402052538"><ele>203.0</ele><time>2026-04-26T13:20:53.999Z</time></trkpt><trkpt lat="40.99343987798926" lon="8.902305839037876"><ele>198.60000000000002</ele><time>2026-04-26T13:20:54.999Z</time></trkpt><trkpt lat="40.99348420722926" lon="8.902412091847347"><ele>194.20000000000002</ele><time>2026-04-26T13:20:55.999Z</time></trkpt><trkpt lat="40.9935218036453" lon="8.90252785405062"><ele>189.8</ele><time>2026-04-26T13:20:56.999Z</time></trkpt><trkpt lat="40.99354889523806" lon="8.902654654065055"><ele>185.4</ele><time>2026-04-26T13:20:57.999Z</time></trkpt><trkpt lat="40.99356418018537" lon="8.902781891932294"><ele>181.0</ele><time>2026-04-26T13:20:58.999Z</time></trkpt><trkpt lat="40.99357533048303" lon="8.902902838863003"><ele>181.0</ele><time>2026-04-26T13:20:59.999Z</time></trkpt><trkpt lat="40.99358678524749" lon="8.903020491745453"><ele>181.0</ele><time>2026-04-26T13:21:00.999Z</time></trkpt><trkpt lat="40.99359786656735" lon="8.90313602950136"><ele>181.0</ele><time>2026-04-26T13:21:01.999Z</time></trkpt><trkpt lat="40.99360944038011" lon="8.9032505403421"><ele>181.0</ele><time>2026-04-26T13:21:02.999Z</time></trkpt><trkpt lat="40.99361642543642" lon="8.903373491399424"><ele>181.0</ele><time>2026-04-26T13:21:03.999Z</time></trkpt><trkpt lat="40.99361366401229" lon="8.903512388606305"><ele>182.8</ele><time>2026-04-26T13:21:04.999Z</time></trkpt><trkpt lat="40.99359789623785" lon="8.903671366252533"><ele>184.60000000000002</ele><time>2026-04-26T13:21:05.999Z</time></trkpt><trkpt lat="40.99357686501136" lon="8.90380628324423"><ele>186.4</ele><time>2026-04-26T13:21:06.999Z</time></trkpt><trkpt lat="40.99355940122679" lon="8.90393277971352"><ele>188.2</ele><time>2026-04-26T13:21:07.999Z</time></trkpt><trkpt lat="40.99353960882925" lon="8.904053187754776"><ele>190.0</ele><time>2026-04-26T13:21:08.999Z</time></trkpt><trkpt lat="40.99351821516072" lon="8.904163315568022"><ele>191.6</ele><time>2026-04-26T13:21:09.999Z</time></trkpt><trkpt lat="40.99348733598998" lon="8.904281930193424"><ele>193.2</ele><time>2026-04-26T13:21:10.999Z</time></trkpt><trkpt lat="40.993431672233044" lon="8.90440789273361"><ele>194.8</ele><time>2026-04-26T13:21:11.999Z</time></trkpt><trkpt lat="40.99335378898076" lon="8.904495165355101"><ele>196.4</ele><time>2026-04-26T13:21:12.999Z</time></trkpt><trkpt lat="40.99330580202552" lon="8.90459246418194"><ele>198.0</ele><time>2026-04-26T13:21:13.999Z</time></trkpt><trkpt lat="40.993251194954055" lon="8.904672489411118"><ele>201.4</ele><time>2026-04-26T13:21:14.999Z</time></trkpt><trkpt lat="40.99320508326616" lon="8.90476593287958"><ele>204.8</ele><time>2026-04-26T13:21:15.999Z</time></trkpt><trkpt lat="40.99317589942921" lon="8.904876878594939"><ele>208.2</ele><time>2026-04-26T13:21:16.999Z</time></trkpt><trkpt lat="40.99316379938687" lon="8.905000160673938"><ele>211.6</ele><time>2026-04-26T13:21:17.999Z</time></trkpt><trkpt lat="40.993167356190106" lon="8.90512454972759"><ele>215.0</ele><time>2026-04-26T13:21:18.999Z</time></trkpt><trkpt lat="40.99319179020742" lon="8.905240227487436"><ele>215.4</ele><time>2026-04-26T13:21:19.999Z</time></trkpt><trkpt lat="40.993233325777325" lon="8.905345193687129"><ele>215.8</ele><time>2026-04-26T13:21:20.999Z</time></trkpt><trkpt lat="40.993290231131034" lon="8.905438008173844"><ele>216.2</ele><time>2026-04-26T13:21:21.999Z</time></trkpt><trkpt lat="40.99336375195794" lon="8.90552466718369"><ele>216.6</ele><time>2026-04-26T13:21:22.999Z</time></trkpt><trkpt lat="40.99346658136052" lon="8.905595618502812"><ele>217.0</ele><time>2026-04-26T13:21:23.999Z</time></trkpt><trkpt lat="40.993578271343424" lon="8.905638820406757"><ele>217.0</ele><time>2026-04-26T13:21:24.999Z</time></trkpt><trkpt lat="40.99368738182867" lon="8.905666488537769"><ele>217.0</ele><time>2026-04-26T13:21:25.999Z</time></trkpt><trkpt lat="40.99380850792738" lon="8.90568178619646"><ele>217.0</ele><time>2026-04-26T13:21:26.999Z</time></trkpt><trkpt lat="40.99393728779453" lon="8.905688390699439"><ele>217.0</ele><time>2026-04-26T13:21:27.999Z</time></trkpt><trkpt lat="40.994067689065055" lon="8.905690646793465"><ele>220.25</ele><time>2026-04-26T13:21:28.999Z</time></trkpt><trkpt lat="40.99419447963692" lon="8.90568441541955"><ele>223.5</ele><time>2026-04-26T13:21:29.999Z</time></trkpt><trkpt lat="40.99431498639694" lon="8.905648674217748"><ele>226.75</ele><time>2026-04-26T13:21:30.999Z</time></trkpt><trkpt lat="40.994427964286984" lon="8.905582258475793"><ele>230.0</ele><time>2026-04-26T13:21:31.999Z</time></trkpt><trkpt lat="40.99452870423532" lon="8.905479247099024"><ele>230.0</ele><time>2026-04-26T13:21:32.999Z</time></trkpt><trkpt lat="40.99462062370716" lon="8.905363065947556"><ele>230.0</ele><time>2026-04-26T13:21:33.999Z</time></trkpt><trkpt lat="40.994705456933715" lon="8.905252419901036"><ele>230.0</ele><time>2026-04-26T13:21:34.999Z</time></trkpt><trkpt lat="40.994793769907176" lon="8.905157622182417"><ele>230.0</ele><time>2026-04-26T13:21:36Z</time></trkpt><trkpt lat="40.99488745368047" lon="8.905079943171717"><ele>226.2</ele><time>2026-04-26T13:21:37Z</time></trkpt><trkpt lat="40.99498230381125" lon="8.905019668974486"><ele>222.4</ele><time>2026-04-26T13:21:38Z</time></trkpt><trkpt lat="40.99507937363267" lon="8.904964299947517"><ele>218.60000000000002</ele><time>2026-04-26T13:21:39Z</time></trkpt><trkpt lat="40.99518441068101" lon="8.904905028033907"><ele>214.8</ele><time>2026-04-26T13:21:40Z</time></trkpt><trkpt lat="40.995293532018415" lon="8.904847433176961"><ele>211.0</ele><time>2026-04-26T13:21:41Z</time></trkpt><trkpt lat="40.9954088477164" lon="8.90478365328031"><ele>211.0</ele><time>2026-04-26T13:21:42Z</time></trkpt><trkpt lat="40.995519751719435" lon="8.904724759969845"><ele>211.0</ele><time>2026-04-26T13:21:43Z</time></trkpt><trkpt lat="40.99562834389875" lon="8.904687598245674"><ele>211.0</ele><time>2026-04-26T13:21:44Z</time></trkpt><trkpt lat="40.99573868129125" lon="8.904677250736817"><ele>211.0</ele><time>2026-04-26T13:21:45Z</time></trkpt><trkpt lat="40.995844138267785" lon="8.904703325883116"><ele>212.8</ele><time>2026-04-26T13:21:46Z</time></trkpt><trkpt lat="40.99593968472012" lon="8.904757227788348"><ele>214.60000000000002</ele><time>2026-04-26T13:21:47Z</time></trkpt><trkpt lat="40.99602850247159" lon="8.904837399263595"><ele>216.4</ele><time>2026-04-26T13:21:48Z</time></trkpt><trkpt lat="40.996114790032784" lon="8.904930336455822"><ele>218.2</ele><time>2026-04-26T13:21:49Z</time></trkpt><trkpt lat="40.99619667422554" lon="8.905026352048266"><ele>220.0</ele><time>2026-04-26T13:21:50Z</time></trkpt><trkpt lat="40.99627701748601" lon="8.905117854766218"><ele>220.0</ele><time>2026-04-26T13:21:51Z</time></trkpt><trkpt lat="40.99636421888401" lon="8.905214407984245"><ele>220.0</ele><time>2026-04-26T13:21:52Z</time></trkpt><trkpt lat="40.99646001311918" lon="8.905326574204823"><ele>220.0</ele><time>2026-04-26T13:21:53Z</time></trkpt><trkpt lat="40.99654667177047" lon="8.905421945034377"><ele>220.0</ele><time>2026-04-26T13:21:54Z</time></trkpt><trkpt lat="40.99662836627353" lon="8.905494908181357"><ele>217.49999999999997</ele><time>2026-04-26T13:21:55Z</time></trkpt><trkpt lat="40.996710545920706" lon="8.90554399646658"><ele>215.0</ele><time>2026-04-26T13:21:56Z</time></trkpt><trkpt lat="40.99679147656931" lon="8.905572901733493"><ele>212.5</ele><time>2026-04-26T13:21:57Z</time></trkpt><trkpt lat="40.9968591845473" lon="8.905585042842674"><ele>210.0</ele><time>2026-04-26T13:21:58Z</time></trkpt><trkpt lat="40.99693747915755" lon="8.905598467474961"><ele>207.49999999999997</ele><time>2026-04-26T13:22:00Z</time></trkpt><trkpt lat="40.99700820733393" lon="8.90562362643957"><ele>205.0</ele><time>2026-04-26T13:22:04Z</time></trkpt><trkpt lat="40.99708215861997" lon="8.905658397732486"><ele>205.0</ele><time>2026-04-26T13:22:06Z</time></trkpt><trkpt lat="40.99716379031257" lon="8.905744569351697"><ele>205.0</ele><time>2026-04-26T13:22:08Z</time></trkpt><trkpt lat="40.99724325942596" lon="8.9058514224881"><ele>205.0</ele><time>2026-04-26T13:22:10Z</time></trkpt><trkpt lat="40.997351282546795" lon="8.905905085194803"><ele>205.0</ele><time>2026-04-26T13:22:12Z</time></trkpt><trkpt lat="40.99745666357577" lon="8.905867462627327"><ele>205.0</ele><time>2026-04-26T13:22:14Z</time></trkpt><trkpt lat="40.99750853267262" lon="8.905817497458173"><ele>203.2</ele><time>2026-04-26T13:22:15Z</time></trkpt><trkpt lat="40.99755778171746" lon="8.90574409685416"><ele>201.4</ele><time>2026-04-26T13:22:16Z</time></trkpt><trkpt lat="40.99761531875192" lon="8.905663213441493"><ele>199.60000000000002</ele><time>2026-04-26T13:22:17Z</time></trkpt><trkpt lat="40.99768787108726" lon="8.905593235838165"><ele>197.8</ele><time>2026-04-26T13:22:18Z</time></trkpt><trkpt lat="40.997796123307026" lon="8.905536552093139"><ele>196.0</ele><time>2026-04-26T13:22:19Z</time></trkpt><trkpt lat="40.99792750371872" lon="8.905488647332147"><ele>196.0</ele><time>2026-04-26T13:22:20Z</time></trkpt><trkpt lat="40.9980932398461" lon="8.90542762511937"><ele>196.0</ele><time>2026-04-26T13:22:21Z</time></trkpt><trkpt lat="40.998254313445614" lon="8.905342306418799"><ele>196.0</ele><time>2026-04-26T13:22:22Z</time></trkpt><trkpt lat="40.99841571877002" lon="8.905236729180604"><ele>195.0</ele><time>2026-04-26T13:22:23Z</time></trkpt><trkpt lat="40.99856531760254" lon="8.905129457237019"><ele>194.0</ele><time>2026-04-26T13:22:24Z</time></trkpt><trkpt lat="40.99869587060551" lon="8.905034277685628"><ele>193.0</ele><time>2026-04-26T13:22:25Z</time></trkpt><trkpt lat="40.99881437993978" lon="8.904951262813062"><ele>194.25</ele><time>2026-04-26T13:22:26Z</time></trkpt><trkpt lat="40.99893393550554" lon="8.904871062409628"><ele>195.5</ele><time>2026-04-26T13:22:27Z</time></trkpt><trkpt lat="40.99904770073728" lon="8.904790751685333"><ele>196.75</ele><time>2026-04-26T13:22:28Z</time></trkpt><trkpt lat="40.99915695833879" lon="8.904710638082955"><ele>198.0</ele><time>2026-04-26T13:22:29Z</time></trkpt><trkpt lat="40.999261532768436" lon="8.904636791849757"><ele>198.0</ele><time>2026-04-26T13:22:30Z</time></trkpt><trkpt lat="40.999358696777875" lon="8.904560833273322"><ele>198.0</ele><time>2026-04-26T13:22:31Z</time></trkpt><trkpt lat="40.999445918034276" lon="8.90447493771244"><ele>198.0</ele><time>2026-04-26T13:22:32Z</time></trkpt><trkpt lat="40.99953099890261" lon="8.904367389082234"><ele>198.0</ele><time>2026-04-26T13:22:33Z</time></trkpt><trkpt lat="40.999621498804224" lon="8.904226911500974"><ele>198.0</ele><time>2026-04-26T13:22:34Z</time></trkpt><trkpt lat="40.99971125417146" lon="8.904077664723683"><ele>198.0</ele><time>2026-04-26T13:22:35Z</time></trkpt><trkpt lat="40.99979642942562" lon="8.903932913358663"><ele>198.0</ele><time>2026-04-26T13:22:36Z</time></trkpt><trkpt lat="40.99987528845522" lon="8.903796508790693"><ele>198.0</ele><time>2026-04-26T13:22:37Z</time></trkpt><trkpt lat="40.999951389953324" lon="8.903665627609874"><ele>198.0</ele><time>2026-04-26T13:22:38Z</time></trkpt><trkpt lat="41.00002070246658" lon="8.9035411578146"><ele>198.0</ele><time>2026-04-26T13:22:39Z</time></trkpt><trkpt lat="41.00008056781178" lon="8.903411106219911"><ele>198.0</ele><time>2026-04-26T13:22:40Z</time></trkpt><trkpt lat="41.00012002122796" lon="8.903269125637241"><ele>198.0</ele><time>2026-04-26T13:22:41Z</time></trkpt><trkpt lat="41.00013823762203" lon="8.903114402076657"><ele>197.75</ele><time>2026-04-26T13:22:42Z</time></trkpt><trkpt lat="41.00014488038633" lon="8.90294459720978"><ele>197.5</ele><time>2026-04-26T13:22:43Z</time></trkpt><trkpt lat="41.00014705009275" lon="8.902772250684752"><ele>197.25</ele><time>2026-04-26T13:22:44Z</time></trkpt><trkpt lat="41.000171529425586" lon="8.902609812406952"><ele>197.0</ele><time>2026-04-26T13:22:45Z</time></trkpt><trkpt lat="41.000189336410514" lon="8.902455683355042"><ele>197.0</ele><time>2026-04-26T13:22:46Z</time></trkpt><trkpt lat="41.00021918614751" lon="8.902306558541428"><ele>197.0</ele><time>2026-04-26T13:22:47Z</time></trkpt><trkpt lat="41.00024859783202" lon="8.902158946017234"><ele>197.0</ele><time>2026-04-26T13:22:48Z</time></trkpt><trkpt lat="41.000332284255414" lon="8.902044004922113"><ele>197.0</ele><time>2026-04-26T13:22:49Z</time></trkpt><trkpt lat="41.00042056962875" lon="8.901936655880611"><ele>197.0</ele><time>2026-04-26T13:22:50Z</time></trkpt><trkpt lat="41.00052205826997" lon="8.9018467450751"><ele>197.0</ele><time>2026-04-26T13:22:51Z</time></trkpt><trkpt lat="41.00064332362983" lon="8.901800692143508"><ele>197.0</ele><time>2026-04-26T13:22:52Z</time></trkpt><trkpt lat="41.0007780691671" lon="8.90175814884913"><ele>197.0</ele><time>2026-04-26T13:22:53Z</time></trkpt><trkpt lat="41.00091935851605" lon="8.901720653454902"><ele>193.75</ele><time>2026-04-26T13:22:54Z</time></trkpt><trkpt lat="41.00105180319145" lon="8.901686248772016"><ele>190.5</ele><time>2026-04-26T13:22:55Z</time></trkpt><trkpt lat="41.00118273895529" lon="8.901646146687208"><ele>187.25</ele><time>2026-04-26T13:22:56Z</time></trkpt><trkpt lat="41.001311554164374" lon="8.901599728789545"><ele>184.0</ele><time>2026-04-26T13:22:57Z</time></trkpt><trkpt lat="41.001439811980106" lon="8.901557775090646"><ele>184.0</ele><time>2026-04-26T13:22:58Z</time></trkpt><trkpt lat="41.00156278803555" lon="8.901512074082511"><ele>184.0</ele><time>2026-04-26T13:22:59Z</time></trkpt><trkpt lat="41.00168170438164" lon="8.901475563867837"><ele>184.0</ele><time>2026-04-26T13:23:00Z</time></trkpt><trkpt lat="41.001794476870714" lon="8.901457624332462"><ele>184.0</ele><time>2026-04-26T13:23:01Z</time></trkpt><trkpt lat="41.001905317034975" lon="8.9014661818455"><ele>183.25</ele><time>2026-04-26T13:23:02Z</time></trkpt><trkpt lat="41.00201170666963" lon="8.901507657797577"><ele>182.5</ele><time>2026-04-26T13:23:03Z</time></trkpt><trkpt lat="41.002112125454" lon="8.901582506019544"><ele>181.75</ele><time>2026-04-26T13:23:04Z</time></trkpt><trkpt lat="41.00220703734109" lon="8.901685277479714"><ele>181.0</ele><time>2026-04-26T13:23:05Z</time></trkpt><trkpt lat="41.0022947814664" lon="8.90180935749838"><ele>179.25</ele><time>2026-04-26T13:23:06Z</time></trkpt><trkpt lat="41.002382664318496" lon="8.901944321944372"><ele>177.5</ele><time>2026-04-26T13:23:07Z</time></trkpt><trkpt lat="41.002470110782696" lon="8.902066148583717"><ele>175.75</ele><time>2026-04-26T13:23:08Z</time></trkpt><trkpt lat="41.002553609873495" lon="8.902187954845415"><ele>174.0</ele><time>2026-04-26T13:23:09Z</time></trkpt><trkpt lat="41.00262865099597" lon="8.902314378607654"><ele>174.0</ele><time>2026-04-26T13:23:10Z</time></trkpt><trkpt lat="41.00268819221957" lon="8.902451474291107"><ele>174.0</ele><time>2026-04-26T13:23:11Z</time></trkpt><trkpt lat="41.00272596467833" lon="8.90259766753878"><ele>174.0</ele><time>2026-04-26T13:23:12Z</time></trkpt><trkpt lat="41.00274822398804" lon="8.902744314963627"><ele>174.0</ele><time>2026-04-26T13:23:13Z</time></trkpt><trkpt lat="41.002758430315644" lon="8.90289176525089"><ele>173.5</ele><time>2026-04-26T13:23:14Z</time></trkpt><trkpt lat="41.00275687999516" lon="8.903021528276144"><ele>173.0</ele><time>2026-04-26T13:23:15Z</time></trkpt><trkpt lat="41.00274819349252" lon="8.903131458478933"><ele>172.5</ele><time>2026-04-26T13:23:16Z</time></trkpt><trkpt lat="41.002719697747" lon="8.903237150586744"><ele>172.0</ele><time>2026-04-26T13:23:17Z</time></trkpt><trkpt lat="41.0026747355688" lon="8.903323818040372"><ele>171.5</ele><time>2026-04-26T13:23:18Z</time></trkpt><trkpt lat="41.0026181043638" lon="8.903399809324998"><ele>171.0</ele><time>2026-04-26T13:23:19Z</time></trkpt><trkpt lat="41.00256210683116" lon="8.903468866529883"><ele>172.20000000000002</ele><time>2026-04-26T13:23:20Z</time></trkpt><trkpt lat="41.002499267154285" lon="8.903542342094351"><ele>173.4</ele><time>2026-04-26T13:23:21Z</time></trkpt><trkpt lat="41.00243267207798" lon="8.903624194790353"><ele>174.6</ele><time>2026-04-26T13:23:22Z</time></trkpt><trkpt lat="41.00238205625592" lon="8.90373105323803"><ele>175.8</ele><time>2026-04-26T13:23:23Z</time></trkpt><trkpt lat="41.00235350010103" lon="8.903857851211951"><ele>177.0</ele><time>2026-04-26T13:23:24Z</time></trkpt><trkpt lat="41.002352634561355" lon="8.903988863682498"><ele>177.0</ele><time>2026-04-26T13:23:25Z</time></trkpt><trkpt lat="41.0023729764796" lon="8.904122407614823"><ele>177.0</ele><time>2026-04-26T13:23:26Z</time></trkpt><trkpt lat="41.002409396346515" lon="8.904252535206407"><ele>177.0</ele><time>2026-04-26T13:23:27Z</time></trkpt><trkpt lat="41.00246880527645" lon="8.904377046254922"><ele>177.0</ele><time>2026-04-26T13:23:28Z</time></trkpt><trkpt lat="41.00253948137252" lon="8.904486071022731"><ele>177.0</ele><time>2026-04-26T13:23:29Z</time></trkpt><trkpt lat="41.002611782650284" lon="8.904577041744691"><ele>175.16666666666666</ele><time>2026-04-26T13:23:30Z</time></trkpt><trkpt lat="41.00266976621353" lon="8.904666453510684"><ele>173.33333333333334</ele><time>2026-04-26T13:23:31Z</time></trkpt><trkpt lat="41.002709697831236" lon="8.904772500050052"><ele>171.5</ele><time>2026-04-26T13:23:32Z</time></trkpt><trkpt lat="41.00272638997017" lon="8.904885889928703"><ele>169.66666666666669</ele><time>2026-04-26T13:23:33Z</time></trkpt><trkpt lat="41.00272588631981" lon="8.90500699034406"><ele>167.83333333333334</ele><time>2026-04-26T13:23:34Z</time></trkpt><trkpt lat="41.002706706102806" lon="8.905120043232362"><ele>166.0</ele><time>2026-04-26T13:23:35Z</time></trkpt><trkpt lat="41.002661530413995" lon="8.905223094816616"><ele>167.20000000000002</ele><time>2026-04-26T13:23:36Z</time></trkpt><trkpt lat="41.002600976184766" lon="8.90530991836472"><ele>168.4</ele><time>2026-04-26T13:23:37Z</time></trkpt><trkpt lat="41.00253235034995" lon="8.905379370455705"><ele>169.6</ele><time>2026-04-26T13:23:38Z</time></trkpt><trkpt lat="41.002453661612044" lon="8.905448567435936"><ele>170.8</ele><time>2026-04-26T13:23:39Z</time></trkpt><trkpt lat="41.00237677045536" lon="8.905520558012427"><ele>172.0</ele><time>2026-04-26T13:23:40Z</time></trkpt><trkpt lat="41.00230778097992" lon="8.905620019786827"><ele>172.0</ele><time>2026-04-26T13:23:41Z</time></trkpt><trkpt lat="41.00225921664764" lon="8.905754467378665"><ele>172.0</ele><time>2026-04-26T13:23:42Z</time></trkpt><trkpt lat="41.00223976257103" lon="8.905891932505465"><ele>172.0</ele><time>2026-04-26T13:23:43Z</time></trkpt><trkpt lat="41.002241690401256" lon="8.906024947580251"><ele>172.0</ele><time>2026-04-26T13:23:44Z</time></trkpt><trkpt lat="41.002255049353465" lon="8.906154040990659"><ele>172.0</ele><time>2026-04-26T13:23:45Z</time></trkpt><trkpt lat="41.0022707850628" lon="8.906280664523868"><ele>171.0</ele><time>2026-04-26T13:23:46Z</time></trkpt><trkpt lat="41.002288506764984" lon="8.906413585637859"><ele>170.0</ele><time>2026-04-26T13:23:47Z</time></trkpt><trkpt lat="41.002311077490106" lon="8.906547524885779"><ele>169.0</ele><time>2026-04-26T13:23:48Z</time></trkpt><trkpt lat="41.00233570838474" lon="8.906692598851672"><ele>168.0</ele><time>2026-04-26T13:23:49Z</time></trkpt><trkpt lat="41.00235749561682" lon="8.90685609667159"><ele>167.0</ele><time>2026-04-26T13:23:50Z</time></trkpt><trkpt lat="41.002359310911764" lon="8.907014510853974"><ele>165.75</ele><time>2026-04-26T13:23:51Z</time></trkpt><trkpt lat="41.00233877100844" lon="8.90716998764288"><ele>164.5</ele><time>2026-04-26T13:23:52Z</time></trkpt><trkpt lat="41.00229852739717" lon="8.907318566679898"><ele>163.25</ele><time>2026-04-26T13:23:53Z</time></trkpt><trkpt lat="41.0022473886387" lon="8.90745531979088"><ele>162.0</ele><time>2026-04-26T13:23:54Z</time></trkpt><trkpt lat="41.00217977029735" lon="8.90757535345085"><ele>158.0</ele><time>2026-04-26T13:23:55Z</time></trkpt><trkpt lat="41.002089656525904" lon="8.907676884823964"><ele>154.0</ele><time>2026-04-26T13:23:56Z</time></trkpt><trkpt lat="41.00198889992178" lon="8.907765124877765"><ele>150.0</ele><time>2026-04-26T13:23:57Z</time></trkpt><trkpt lat="41.00188922056645" lon="8.907846466944905"><ele>146.0</ele><time>2026-04-26T13:23:58Z</time></trkpt><trkpt lat="41.00179098178992" lon="8.90792118640924"><ele>146.0</ele><time>2026-04-26T13:23:59Z</time></trkpt><trkpt lat="41.001701122364885" lon="8.907991922569389"><ele>146.0</ele><time>2026-04-26T13:24:00Z</time></trkpt><trkpt lat="41.00162644362582" lon="8.908074906071562"><ele>146.0</ele><time>2026-04-26T13:24:01Z</time></trkpt><trkpt lat="41.00156756336049" lon="8.90817866763539"><ele>146.0</ele><time>2026-04-26T13:24:02Z</time></trkpt><trkpt lat="41.001527668771466" lon="8.9082950026826"><ele>146.0</ele><time>2026-04-26T13:24:03Z</time></trkpt><trkpt lat="41.00151342288605" lon="8.908415948382855"><ele>147.4</ele><time>2026-04-26T13:24:04Z</time></trkpt><trkpt lat="41.00152670278551" lon="8.908539884164659"><ele>148.8</ele><time>2026-04-26T13:24:05Z</time></trkpt><trkpt lat="41.00155978445013" lon="8.90865455858021"><ele>150.20000000000002</ele><time>2026-04-26T13:24:06Z</time></trkpt><trkpt lat="41.00161326245125" lon="8.908751832609909"><ele>151.6</ele><time>2026-04-26T13:24:07Z</time></trkpt><trkpt lat="41.00168315073501" lon="8.908827060671529"><ele>153.0</ele><time>2026-04-26T13:24:08Z</time></trkpt><trkpt lat="41.00177092133588" lon="8.908879229166905"><ele>153.0</ele><time>2026-04-26T13:24:09Z</time></trkpt><trkpt lat="41.00188741778796" lon="8.90890336428575"><ele>153.0</ele><time>2026-04-26T13:24:10Z</time></trkpt><trkpt lat="41.00202269227215" lon="8.908893555625754"><ele>153.0</ele><time>2026-04-26T13:24:11Z</time></trkpt><trkpt lat="41.002156074060885" lon="8.908857234293654"><ele>153.0</ele><time>2026-04-26T13:24:12Z</time></trkpt><trkpt lat="41.0022802675634" lon="8.908820611179085"><ele>153.0</ele><time>2026-04-26T13:24:13Z</time></trkpt><trkpt lat="41.002401772837054" lon="8.908794191075204"><ele>153.0</ele><time>2026-04-26T13:24:14Z</time></trkpt><trkpt lat="41.002518001406486" lon="8.908766678530965"><ele>153.0</ele><time>2026-04-26T13:24:15Z</time></trkpt><trkpt lat="41.00263488204181" lon="8.90873686318999"><ele>153.0</ele><time>2026-04-26T13:24:16Z</time></trkpt><trkpt lat="41.002748859735526" lon="8.908705151057573"><ele>152.5</ele><time>2026-04-26T13:24:17Z</time></trkpt><trkpt lat="41.00287119001664" lon="8.908682103371039"><ele>152.0</ele><time>2026-04-26T13:24:18Z</time></trkpt><trkpt lat="41.00301479098483" lon="8.90868695298415"><ele>151.5</ele><time>2026-04-26T13:24:19Z</time></trkpt><trkpt lat="41.003152602093195" lon="8.908728131563251"><ele>151.0</ele><time>2026-04-26T13:24:20Z</time></trkpt><trkpt lat="41.00328301245185" lon="8.90878236929021"><ele>149.25</ele><time>2026-04-26T13:24:21Z</time></trkpt><trkpt lat="41.00341171581567" lon="8.908841400873868"><ele>147.5</ele><time>2026-04-26T13:24:22Z</time></trkpt><trkpt lat="41.00353973460578" lon="8.908902073188374"><ele>145.75</ele><time>2026-04-26T13:24:23Z</time></trkpt><trkpt lat="41.003671670435246" lon="8.90896808066445"><ele>144.0</ele><time>2026-04-26T13:24:24Z</time></trkpt><trkpt lat="41.00381026564788" lon="8.909034670774737"><ele>144.0</ele><time>2026-04-26T13:24:25Z</time></trkpt><trkpt lat="41.0039450025644" lon="8.909095878904917"><ele>144.0</ele><time>2026-04-26T13:24:26Z</time></trkpt><trkpt lat="41.004076896345346" lon="8.909153321374014"><ele>144.0</ele><time>2026-04-26T13:24:27Z</time></trkpt><trkpt lat="41.004207490782605" lon="8.90920921545222"><ele>144.0</ele><time>2026-04-26T13:24:28Z</time></trkpt><trkpt lat="41.00432717878262" lon="8.909265253203618"><ele>142.75</ele><time>2026-04-26T13:24:29Z</time></trkpt><trkpt lat="41.00443626347364" lon="8.909327875148461"><ele>141.5</ele><time>2026-04-26T13:24:30Z</time></trkpt><trkpt lat="41.004538271437625" lon="8.909410145621086"><ele>140.25</ele><time>2026-04-26T13:24:31Z</time></trkpt><trkpt lat="41.004624203805236" lon="8.909516349244337"><ele>139.0</ele><time>2026-04-26T13:24:32Z</time></trkpt><trkpt lat="41.00469484044028" lon="8.909644104091484"><ele>139.0</ele><time>2026-04-26T13:24:33Z</time></trkpt><trkpt lat="41.00475745680922" lon="8.909785126141037"><ele>139.0</ele><time>2026-04-26T13:24:34Z</time></trkpt><trkpt lat="41.00482049594129" lon="8.909937830805982"><ele>139.0</ele><time>2026-04-26T13:24:35Z</time></trkpt><trkpt lat="41.004880681982655" lon="8.91009210771342"><ele>139.0</ele><time>2026-04-26T13:24:36Z</time></trkpt><trkpt lat="41.00493874367197" lon="8.910238598269478"><ele>136.25</ele><time>2026-04-26T13:24:37Z</time></trkpt><trkpt lat="41.00500063517092" lon="8.910392793256008"><ele>133.5</ele><time>2026-04-26T13:24:38Z</time></trkpt><trkpt lat="41.00506959769816" lon="8.910561694206068"><ele>130.75</ele><time>2026-04-26T13:24:39Z</time></trkpt><trkpt lat="41.005138008286096" lon="8.910728515351765"><ele>128.0</ele><time>2026-04-26T13:24:40Z</time></trkpt><trkpt lat="41.005205568625556" lon="8.910891515116868"><ele>127.75</ele><time>2026-04-26T13:24:41Z</time></trkpt><trkpt lat="41.00527155464538" lon="8.911048104821283"><ele>127.5</ele><time>2026-04-26T13:24:42Z</time></trkpt><trkpt lat="41.005338052674304" lon="8.911203709090994"><ele>127.25</ele><time>2026-04-26T13:24:43Z</time></trkpt><trkpt lat="41.00540116995447" lon="8.911357875699842"><ele>127.0</ele><time>2026-04-26T13:24:44Z</time></trkpt><trkpt lat="41.005460422563075" lon="8.911510852152409"><ele>127.0</ele><time>2026-04-26T13:24:45Z</time></trkpt><trkpt lat="41.00551894019512" lon="8.911660505599455"><ele>126.99999999999999</ele><time>2026-04-26T13:24:46Z</time></trkpt><trkpt lat="41.005575221699864" lon="8.911795340730048"><ele>126.99999999999999</ele><time>2026-04-26T13:24:47Z</time></trkpt><trkpt lat="41.005625821107685" lon="8.91191341959544"><ele>127.0</ele><time>2026-04-26T13:24:48Z</time></trkpt><trkpt lat="41.005673674186305" lon="8.912021013574648"><ele>127.0</ele><time>2026-04-26T13:24:49Z</time></trkpt><trkpt lat="41.00572379688287" lon="8.912129315751066"><ele>127.0</ele><time>2026-04-26T13:24:50Z</time></trkpt><trkpt lat="41.005792923350704" lon="8.912233642042937"><ele>127.0</ele><time>2026-04-26T13:24:51Z</time></trkpt><trkpt lat="41.00588594541643" lon="8.912324001583832"><ele>127.0</ele><time>2026-04-26T13:24:52Z</time></trkpt><trkpt lat="41.00599305413662" lon="8.912390711588294"><ele>127.0</ele><time>2026-04-26T13:24:53Z</time></trkpt><trkpt lat="41.00612523924807" lon="8.91240960122805"><ele>124.66666666666667</ele><time>2026-04-26T13:24:54Z</time></trkpt><trkpt lat="41.00626339948797" lon="8.912390332029002"><ele>122.33333333333334</ele><time>2026-04-26T13:24:55Z</time></trkpt><trkpt lat="41.00641573933805" lon="8.912322387614212"><ele>120.0</ele><time>2026-04-26T13:24:56Z</time></trkpt><trkpt lat="41.006566853662996" lon="8.912242799552246"><ele>119.25</ele><time>2026-04-26T13:24:57Z</time></trkpt><trkpt lat="41.006707830603716" lon="8.912173640425282"><ele>118.5</ele><time>2026-04-26T13:24:58Z</time></trkpt><trkpt lat="41.00684663225652" lon="8.912112384572643"><ele>117.75</ele><time>2026-04-26T13:24:59Z</time></trkpt><trkpt lat="41.00698086090114" lon="8.912049889383457"><ele>117.0</ele><time>2026-04-26T13:25:00Z</time></trkpt><trkpt lat="41.00711408746478" lon="8.911986097475104"><ele>117.0</ele><time>2026-04-26T13:25:01Z</time></trkpt><trkpt lat="41.007247226108674" lon="8.911924693315987"><ele>117.0</ele><time>2026-04-26T13:25:02Z</time></trkpt><trkpt lat="41.00738639017139" lon="8.911861358459037"><ele>117.0</ele><time>2026-04-26T13:25:03Z</time></trkpt><trkpt lat="41.00752018770065" lon="8.91179886273833"><ele>117.0</ele><time>2026-04-26T13:25:04Z</time></trkpt><trkpt lat="41.0076528714609" lon="8.911733054396933"><ele>116.0</ele><time>2026-04-26T13:25:05Z</time></trkpt><trkpt lat="41.007789813018306" lon="8.911660870728179"><ele>115.0</ele><time>2026-04-26T13:25:06Z</time></trkpt><trkpt lat="41.0079294543725" lon="8.911613056893971"><ele>114.0</ele><time>2026-04-26T13:25:07Z</time></trkpt><trkpt lat="41.00807124596672" lon="8.911593257345316"><ele>113.0</ele><time>2026-04-26T13:25:08Z</time></trkpt><trkpt lat="41.00820711636368" lon="8.911586052109959"><ele>112.25</ele><time>2026-04-26T13:25:09Z</time></trkpt><trkpt lat="41.00834079546268" lon="8.91158059372768"><ele>111.5</ele><time>2026-04-26T13:25:10Z</time></trkpt><trkpt lat="41.0084707413379" lon="8.911580791123006"><ele>110.75</ele><time>2026-04-26T13:25:11Z</time></trkpt><trkpt lat="41.00859435485709" lon="8.91159599755324"><ele>110.0</ele><time>2026-04-26T13:25:12Z</time></trkpt><trkpt lat="41.00871049016791" lon="8.9116447257378"><ele>110.25</ele><time>2026-04-26T13:25:13Z</time></trkpt><trkpt lat="41.008805488880114" lon="8.911741463934712"><ele>110.5</ele><time>2026-04-26T13:25:14Z</time></trkpt><trkpt lat="41.00888121218017" lon="8.911860257924268"><ele>110.75</ele><time>2026-04-26T13:25:15Z</time></trkpt><trkpt lat="41.00893892248636" lon="8.911993237922564"><ele>111.0</ele><time>2026-04-26T13:25:16Z</time></trkpt><trkpt lat="41.00897866615091" lon="8.912134529031162"><ele>111.0</ele><time>2026-04-26T13:25:17Z</time></trkpt><trkpt lat="41.00900888263869" lon="8.912283404203027"><ele>111.0</ele><time>2026-04-26T13:25:18Z</time></trkpt><trkpt lat="41.009037929527054" lon="8.91243389825223"><ele>111.0</ele><time>2026-04-26T13:25:19Z</time></trkpt><trkpt lat="41.00906668113651" lon="8.912586360247158"><ele>111.0</ele><time>2026-04-26T13:25:20Z</time></trkpt><trkpt lat="41.00909452672458" lon="8.912740057935524"><ele>111.75</ele><time>2026-04-26T13:25:21Z</time></trkpt><trkpt lat="41.009123142440025" lon="8.912898568135788"><ele>112.5</ele><time>2026-04-26T13:25:22Z</time></trkpt><trkpt lat="41.009152142192086" lon="8.913056004769631"><ele>113.25</ele><time>2026-04-26T13:25:23Z</time></trkpt><trkpt lat="41.00918202831135" lon="8.913213829057701"><ele>114.0</ele><time>2026-04-26T13:25:24Z</time></trkpt><trkpt lat="41.009209208917575" lon="8.913374094096083"><ele>112.25</ele><time>2026-04-26T13:25:25Z</time></trkpt><trkpt lat="41.00922909834551" lon="8.913540716052257"><ele>110.5</ele><time>2026-04-26T13:25:26Z</time></trkpt><trkpt lat="41.00923780096882" lon="8.913706721447603"><ele>108.75</ele><time>2026-04-26T13:25:27Z</time></trkpt><trkpt lat="41.00923704866535" lon="8.913871408517165"><ele>107.0</ele><time>2026-04-26T13:25:28Z</time></trkpt><trkpt lat="41.00922547299396" lon="8.91403938988163"><ele>107.0</ele><time>2026-04-26T13:25:29Z</time></trkpt><trkpt lat="41.009202591766304" lon="8.914210767053657"><ele>107.0</ele><time>2026-04-26T13:25:30Z</time></trkpt><trkpt lat="41.00917769186978" lon="8.914382813704222"><ele>107.0</ele><time>2026-04-26T13:25:31Z</time></trkpt><trkpt lat="41.00915452899861" lon="8.91454525707376"><ele>107.0</ele><time>2026-04-26T13:25:32Z</time></trkpt><trkpt lat="41.00913145252632" lon="8.91470507737846"><ele>107.5</ele><time>2026-04-26T13:25:33Z</time></trkpt><trkpt lat="41.00910838852922" lon="8.91486364629188"><ele>108.0</ele><time>2026-04-26T13:25:34Z</time></trkpt><trkpt lat="41.00908568818813" lon="8.915031009923478"><ele>108.5</ele><time>2026-04-26T13:25:35Z</time></trkpt><trkpt lat="41.009063201338584" lon="8.915209325729599"><ele>109.0</ele><time>2026-04-26T13:25:36Z</time></trkpt><trkpt lat="41.00904193300393" lon="8.9153914033502"><ele>109.0</ele><time>2026-04-26T13:25:37Z</time></trkpt><trkpt lat="41.0090198438368" lon="8.915577372493699"><ele>109.0</ele><time>2026-04-26T13:25:38Z</time></trkpt><trkpt lat="41.0090054672165" lon="8.915782600219341"><ele>109.0</ele><time>2026-04-26T13:25:39Z</time></trkpt><trkpt lat="41.00902059248879" lon="8.91601332457447"><ele>107.66666666666667</ele><time>2026-04-26T13:25:40Z</time></trkpt><trkpt lat="41.00906138968097" lon="8.916273136427202"><ele>106.33333333333334</ele><time>2026-04-26T13:25:41Z</time></trkpt><trkpt lat="41.009104000900976" lon="8.91655214485183"><ele>105.0</ele><time>2026-04-26T13:25:42Z</time></trkpt><trkpt lat="41.009132748478095" lon="8.916807293400423"><ele>104.0</ele><time>2026-04-26T13:25:43Z</time></trkpt><trkpt lat="41.00915486216118" lon="8.917028391910726"><ele>103.0</ele><time>2026-04-26T13:25:44Z</time></trkpt><trkpt lat="41.009172434516394" lon="8.917218418913595"><ele>102.0</ele><time>2026-04-26T13:25:45Z</time></trkpt><trkpt lat="41.009184804147345" lon="8.917385101042552"><ele>101.0</ele><time>2026-04-26T13:25:46Z</time></trkpt><trkpt lat="41.009197907355066" lon="8.917545214822134"><ele>98.4</ele><time>2026-04-26T13:25:47Z</time></trkpt><trkpt lat="41.00920990545492" lon="8.91768398424345"><ele>95.8</ele><time>2026-04-26T13:25:48Z</time></trkpt><trkpt lat="41.00922026506848" lon="8.917824014318837"><ele>93.2</ele><time>2026-04-26T13:25:49Z</time></trkpt><trkpt lat="41.00922410932576" lon="8.91796655479031"><ele>90.60000000000001</ele><time>2026-04-26T13:25:50Z</time></trkpt><trkpt lat="41.009217811681374" lon="8.918109711316454"><ele>88.0</ele><time>2026-04-26T13:25:51Z</time></trkpt><trkpt lat="41.00918881019451" lon="8.918263804793835"><ele>87.25</ele><time>2026-04-26T13:25:52Z</time></trkpt><trkpt lat="41.009145160856164" lon="8.918434597308568"><ele>86.5</ele><time>2026-04-26T13:25:53Z</time></trkpt><trkpt lat="41.00909918723278" lon="8.91859045101237"><ele>85.75</ele><time>2026-04-26T13:25:54Z</time></trkpt><trkpt lat="41.00905108191466" lon="8.918740803212012"><ele>85.0</ele><time>2026-04-26T13:25:55Z</time></trkpt><trkpt lat="41.00900228050672" lon="8.918885664134336"><ele>85.0</ele><time>2026-04-26T13:25:56Z</time></trkpt><trkpt lat="41.008953701531624" lon="8.919017183535427"><ele>85.0</ele><time>2026-04-26T13:25:57Z</time></trkpt><trkpt lat="41.00889124036086" lon="8.91913321256641"><ele>85.0</ele><time>2026-04-26T13:25:58Z</time></trkpt><trkpt lat="41.00880832022155" lon="8.91924264647982"><ele>85.0</ele><time>2026-04-26T13:25:59Z</time></trkpt><trkpt lat="41.008702678826374" lon="8.91933477509776"><ele>82.75</ele><time>2026-04-26T13:26:00Z</time></trkpt><trkpt lat="41.0085847814354" lon="8.919405230498644"><ele>80.5</ele><time>2026-04-26T13:26:01Z</time></trkpt><trkpt lat="41.00845928891658" lon="8.919445857029139"><ele>78.25</ele><time>2026-04-26T13:26:02Z</time></trkpt><trkpt lat="41.00833910840681" lon="8.919524600119836"><ele>76.0</ele><time>2026-04-26T13:26:03Z</time></trkpt><trkpt lat="41.008207648764774" lon="8.919572690340475"><ele>76.0</ele><time>2026-04-26T13:26:04Z</time></trkpt><trkpt lat="41.00806209518436" lon="8.919604110640943"><ele>76.0</ele><time>2026-04-26T13:26:05Z</time></trkpt><trkpt lat="41.00792450659091" lon="8.91962502502967"><ele>76.0</ele><time>2026-04-26T13:26:06Z</time></trkpt><trkpt lat="41.0077896178372" lon="8.919645754920206"><ele>76.0</ele><time>2026-04-26T13:26:07Z</time></trkpt><trkpt lat="41.0076650595074" lon="8.919666198058378"><ele>76.0</ele><time>2026-04-26T13:26:08Z</time></trkpt><trkpt lat="41.00754712297715" lon="8.919685950006741"><ele>76.0</ele><time>2026-04-26T13:26:09Z</time></trkpt><trkpt lat="41.00743708804799" lon="8.919711828606657"><ele>76.0</ele><time>2026-04-26T13:26:10Z</time></trkpt><trkpt lat="41.00733772669869" lon="8.919759618489547"><ele>76.0</ele><time>2026-04-26T13:26:11Z</time></trkpt><trkpt lat="41.00724766941253" lon="8.919830078506584"><ele>76.0</ele><time>2026-04-26T13:26:12Z</time></trkpt><trkpt lat="41.007165425832795" lon="8.919935985646426"><ele>77.0</ele><time>2026-04-26T13:26:13Z</time></trkpt><trkpt lat="41.00709182350411" lon="8.920062954382384"><ele>78.0</ele><time>2026-04-26T13:26:14Z</time></trkpt><trkpt lat="41.00703502679319" lon="8.92019078432451"><ele>79.0</ele><time>2026-04-26T13:26:15Z</time></trkpt><trkpt lat="41.00699393305924" lon="8.920316459864432"><ele>80.0</ele><time>2026-04-26T13:26:16Z</time></trkpt><trkpt lat="41.00697777522916" lon="8.920449769816543"><ele>81.0</ele><time>2026-04-26T13:26:17Z</time></trkpt><trkpt lat="41.006988631613304" lon="8.920586465564833"><ele>81.0</ele><time>2026-04-26T13:26:18Z</time></trkpt><trkpt lat="41.00702797624756" lon="8.920729860517374"><ele>81.0</ele><time>2026-04-26T13:26:19Z</time></trkpt><trkpt lat="41.007090773335904" lon="8.920882896804343"><ele>81.0</ele><time>2026-04-26T13:26:20Z</time></trkpt><trkpt lat="41.00718044400976" lon="8.921059154786795"><ele>81.0</ele><time>2026-04-26T13:26:21Z</time></trkpt><trkpt lat="41.00726039915447" lon="8.921277682543487"><ele>81.66666666666667</ele><time>2026-04-26T13:26:22Z</time></trkpt><trkpt lat="41.00737094068238" lon="8.92149778149262"><ele>82.33333333333334</ele><time>2026-04-26T13:26:23Z</time></trkpt><trkpt lat="41.007459919607356" lon="8.921735746347013"><ele>83.0</ele><time>2026-04-26T13:26:24Z</time></trkpt><trkpt lat="41.007546198340194" lon="8.921972798204475"><ele>83.0</ele><time>2026-04-26T13:26:25Z</time></trkpt><trkpt lat="41.00762988693478" lon="8.922217721152304"><ele>83.0</ele><time>2026-04-26T13:26:26Z</time></trkpt><trkpt lat="41.00769319452563" lon="8.922448194954384"><ele>83.0</ele><time>2026-04-26T13:26:27Z</time></trkpt><trkpt lat="41.007737224433015" lon="8.922660026326586"><ele>83.25</ele><time>2026-04-26T13:26:28Z</time></trkpt><trkpt lat="41.00774571417625" lon="8.922843240649206"><ele>83.5</ele><time>2026-04-26T13:26:29Z</time></trkpt><trkpt lat="41.00769281342234" lon="8.923017345132234"><ele>83.75</ele><time>2026-04-26T13:26:30Z</time></trkpt><trkpt lat="41.00762056827918" lon="8.923213430604838"><ele>84.0</ele><time>2026-04-26T13:26:31Z</time></trkpt><trkpt lat="41.007550487333184" lon="8.923411271579754"><ele>82.0</ele><time>2026-04-26T13:26:32Z</time></trkpt><trkpt lat="41.00750404852321" lon="8.923584692619125"><ele>80.0</ele><time>2026-04-26T13:26:33Z</time></trkpt><trkpt lat="41.00750930969436" lon="8.923758543042505"><ele>78.0</ele><time>2026-04-26T13:26:34Z</time></trkpt><trkpt lat="41.00755965547824" lon="8.923940191448326"><ele>76.0</ele><time>2026-04-26T13:26:35Z</time></trkpt><trkpt lat="41.00764416779501" lon="8.924142391662933"><ele>75.66666666666666</ele><time>2026-04-26T13:26:36Z</time></trkpt><trkpt lat="41.007731585233465" lon="8.92436327431782"><ele>75.33333333333333</ele><time>2026-04-26T13:26:37Z</time></trkpt><trkpt lat="41.00781489549837" lon="8.92455884036985"><ele>75.0</ele><time>2026-04-26T13:26:38Z</time></trkpt><trkpt lat="41.00791768400536" lon="8.924695089247992"><ele>75.0</ele><time>2026-04-26T13:26:39Z</time></trkpt><trkpt lat="41.00804364207363" lon="8.924772949870727"><ele>75.0</ele><time>2026-04-26T13:26:40Z</time></trkpt><trkpt lat="41.008187100943644" lon="8.92482630923462"><ele>75.0</ele><time>2026-04-26T13:26:41Z</time></trkpt><trkpt lat="41.00834003604939" lon="8.924897380686103"><ele>77.0</ele><time>2026-04-26T13:26:42Z</time></trkpt><trkpt lat="41.008458816964904" lon="8.925011984023595"><ele>79.0</ele><time>2026-04-26T13:26:43Z</time></trkpt><trkpt lat="41.008543683811666" lon="8.925188823962616"><ele>81.0</ele><time>2026-04-26T13:26:44Z</time></trkpt><trkpt lat="41.008622740937504" lon="8.925404460119546"><ele>82.0</ele><time>2026-04-26T13:26:45Z</time></trkpt><trkpt lat="41.008709361201696" lon="8.925634390215226"><ele>83.0</ele><time>2026-04-26T13:26:46Z</time></trkpt><trkpt lat="41.00880609460699" lon="8.925877094607245"><ele>84.0</ele><time>2026-04-26T13:26:47Z</time></trkpt><trkpt lat="41.00890935975246" lon="8.926131654739812"><ele>84.66666666666667</ele><time>2026-04-26T13:26:48Z</time></trkpt><trkpt lat="41.00901592343944" lon="8.926382727746944"><ele>85.33333333333334</ele><time>2026-04-26T13:26:49Z</time></trkpt><trkpt lat="41.0091271880598" lon="8.926612827998662"><ele>86.0</ele><time>2026-04-26T13:26:50Z</time></trkpt><trkpt lat="41.00925224781086" lon="8.926829816458762"><ele>92.66666666666667</ele><time>2026-04-26T13:26:51Z</time></trkpt><trkpt lat="41.00937879707503" lon="8.927013369339901"><ele>99.33333333333334</ele><time>2026-04-26T13:26:52Z</time></trkpt><trkpt lat="41.009526825835955" lon="8.927163135936489"><ele>106.0</ele><time>2026-04-26T13:26:53Z</time></trkpt><trkpt lat="41.009707658681876" lon="8.927286648246753"><ele>106.0</ele><time>2026-04-26T13:26:54Z</time></trkpt><trkpt lat="41.00990479494571" lon="8.927410995131286"><ele>106.0</ele><time>2026-04-26T13:26:55Z</time></trkpt><trkpt lat="41.01009225437229" lon="8.927569649021176"><ele>106.0</ele><time>2026-04-26T13:26:56Z</time></trkpt><trkpt lat="41.01027092342567" lon="8.927765080872588"><ele>109.5</ele><time>2026-04-26T13:26:57Z</time></trkpt><trkpt lat="41.01045212995682" lon="8.927979390877269"><ele>113.0</ele><time>2026-04-26T13:26:58Z</time></trkpt><trkpt lat="41.01062434811532" lon="8.928187611748239"><ele>113.0</ele><time>2026-04-26T13:26:59Z</time></trkpt><trkpt lat="41.010774772885064" lon="8.928388831184579"><ele>113.0</ele><time>2026-04-26T13:27:00Z</time></trkpt><trkpt lat="41.01091561255228" lon="8.928619024186213"><ele>113.0</ele><time>2026-04-26T13:27:01Z</time></trkpt><trkpt lat="41.01105363697969" lon="8.928877600635097"><ele>114.0</ele><time>2026-04-26T13:27:02Z</time></trkpt><trkpt lat="41.011200019133696" lon="8.929150661515267"><ele>115.0</ele><time>2026-04-26T13:27:03Z</time></trkpt><trkpt lat="41.0113533653278" lon="8.929425645746683"><ele>115.0</ele><time>2026-04-26T13:27:04Z</time></trkpt><trkpt lat="41.0115128926622" lon="8.929711186475183"><ele>115.0</ele><time>2026-04-26T13:27:05Z</time></trkpt><trkpt lat="41.011673754688154" lon="8.930000016500696"><ele>110.0</ele><time>2026-04-26T13:27:06Z</time></trkpt><trkpt lat="41.011835861904856" lon="8.930292377952398"><ele>105.0</ele><time>2026-04-26T13:27:07Z</time></trkpt><trkpt lat="41.01200410232925" lon="8.930592460361979"><ele>111.0</ele><time>2026-04-26T13:27:08Z</time></trkpt><trkpt lat="41.01217449116342" lon="8.930894095783568"><ele>117.0</ele><time>2026-04-26T13:27:09Z</time></trkpt><trkpt lat="41.01234134308513" lon="8.931192995708079"><ele>114.5</ele><time>2026-04-26T13:27:10Z</time></trkpt><trkpt lat="41.01251028816814" lon="8.931491338500406"><ele>112.0</ele><time>2026-04-26T13:27:11Z</time></trkpt><trkpt lat="41.01268160058204" lon="8.93179022358877"><ele>117.0</ele><time>2026-04-26T13:27:12Z</time></trkpt><trkpt lat="41.01285300221632" lon="8.932089606939824"><ele>122.0</ele><time>2026-04-26T13:27:13Z</time></trkpt><trkpt lat="41.01302514803712" lon="8.932391746290966"><ele>119.0</ele><time>2026-04-26T13:27:14Z</time></trkpt><trkpt lat="41.01318615684701" lon="8.932684210590809"><ele>116.0</ele><time>2026-04-26T13:27:15Z</time></trkpt><trkpt lat="41.01332453597086" lon="8.932955121478471"><ele>116.0</ele><time>2026-04-26T13:27:16Z</time></trkpt><trkpt lat="41.01346206184227" lon="8.933229158394825"><ele>116.0</ele><time>2026-04-26T13:27:17Z</time></trkpt><trkpt lat="41.013605359752205" lon="8.933516343168431"><ele>120.5</ele><time>2026-04-26T13:27:18Z</time></trkpt><trkpt lat="41.013751016876476" lon="8.933816626023035"><ele>125.0</ele><time>2026-04-26T13:27:19Z</time></trkpt><trkpt lat="41.013896591038375" lon="8.934116318286469"><ele>126.5</ele><time>2026-04-26T13:27:20Z</time></trkpt><trkpt lat="41.01404638217727" lon="8.934417284623336"><ele>128.0</ele><time>2026-04-26T13:27:21Z</time></trkpt><trkpt lat="41.014192958680766" lon="8.934714002926961"><ele>128.5</ele><time>2026-04-26T13:27:22Z</time></trkpt><trkpt lat="41.01432668475077" lon="8.934988385315826"><ele>129.0</ele><time>2026-04-26T13:27:23Z</time></trkpt><trkpt lat="41.014440086297604" lon="8.935242471055588"><ele>129.0</ele><time>2026-04-26T13:27:24Z</time></trkpt><trkpt lat="41.01453442326936" lon="8.935495109186471"><ele>129.0</ele><time>2026-04-26T13:27:25Z</time></trkpt><trkpt lat="41.014611405419075" lon="8.93577129351995"><ele>129.0</ele><time>2026-04-26T13:27:26Z</time></trkpt><trkpt lat="41.0146927660125" lon="8.936066042607383"><ele>131.5</ele><time>2026-04-26T13:27:27Z</time></trkpt><trkpt lat="41.01477828237761" lon="8.936369091345759"><ele>134.0</ele><time>2026-04-26T13:27:28Z</time></trkpt><trkpt lat="41.014862790298736" lon="8.936678167935879"><ele>134.66666666666666</ele><time>2026-04-26T13:27:29Z</time></trkpt><trkpt lat="41.01492662807959" lon="8.936968009228318"><ele>135.33333333333334</ele><time>2026-04-26T13:27:30Z</time></trkpt><trkpt lat="41.01496796022451" lon="8.93723974068675"><ele>136.0</ele><time>2026-04-26T13:27:31Z</time></trkpt><trkpt lat="41.01500737160372" lon="8.9375269149132"><ele>135.0</ele><time>2026-04-26T13:27:32Z</time></trkpt><trkpt lat="41.015055542920436" lon="8.937804450361941"><ele>134.0</ele><time>2026-04-26T13:27:33Z</time></trkpt><trkpt lat="41.01511724412013" lon="8.938049990562712"><ele>133.0</ele><time>2026-04-26T13:27:34Z</time></trkpt><trkpt lat="41.01519339141169" lon="8.938287401699284"><ele>133.0</ele><time>2026-04-26T13:27:35Z</time></trkpt><trkpt lat="41.01528347554657" lon="8.938540460144678"><ele>133.0</ele><time>2026-04-26T13:27:36Z</time></trkpt><trkpt lat="41.01538522584431" lon="8.938818952313996"><ele>133.0</ele><time>2026-04-26T13:27:37Z</time></trkpt><trkpt lat="41.01548984350963" lon="8.93911616690156"><ele>133.5</ele><time>2026-04-26T13:27:38Z</time></trkpt><trkpt lat="41.01559656745231" lon="8.939428810643118"><ele>134.0</ele><time>2026-04-26T13:27:39Z</time></trkpt><trkpt lat="41.015707716573715" lon="8.93974862610776"><ele>131.0</ele><time>2026-04-26T13:27:40Z</time></trkpt><trkpt lat="41.01582052020921" lon="8.940072070245272"><ele>128.0</ele><time>2026-04-26T13:27:41Z</time></trkpt><trkpt lat="41.01592511989145" lon="8.94038050592997"><ele>128.0</ele><time>2026-04-26T13:27:42Z</time></trkpt><trkpt lat="41.01602197125209" lon="8.94066672455069"><ele>128.0</ele><time>2026-04-26T13:27:43Z</time></trkpt><trkpt lat="41.016112192547936" lon="8.940936296439322"><ele>127.66666666666666</ele><time>2026-04-26T13:27:44Z</time></trkpt><trkpt lat="41.01619535025407" lon="8.941190537888932"><ele>127.33333333333334</ele><time>2026-04-26T13:27:45Z</time></trkpt><trkpt lat="41.016274988198" lon="8.941431871162823"><ele>127.0</ele><time>2026-04-26T13:27:46Z</time></trkpt><trkpt lat="41.016348320281445" lon="8.941655971403003"><ele>128.33333333333334</ele><time>2026-04-26T13:27:47Z</time></trkpt><trkpt lat="41.01641989485072" lon="8.94185851428467"><ele>129.66666666666666</ele><time>2026-04-26T13:27:48Z</time></trkpt><trkpt lat="41.01650704574557" lon="8.942033656634985"><ele>131.0</ele><time>2026-04-26T13:27:49Z</time></trkpt><trkpt lat="41.01661872476273" lon="8.942186613750572"><ele>131.0</ele><time>2026-04-26T13:27:50Z</time></trkpt><trkpt lat="41.01674188658921" lon="8.942329958676401"><ele>131.0</ele><time>2026-04-26T13:27:51Z</time></trkpt><trkpt lat="41.01686313449481" lon="8.942471633594932"><ele>131.0</ele><time>2026-04-26T13:27:52Z</time></trkpt><trkpt lat="41.016975977836765" lon="8.942603921981492"><ele>131.0</ele><time>2026-04-26T13:27:53Z</time></trkpt><trkpt lat="41.01708172619461" lon="8.94272622057295"><ele>131.0</ele><time>2026-04-26T13:27:54Z</time></trkpt><trkpt lat="41.017227030385946" lon="8.942774651866147"><ele>131.0</ele><time>2026-04-26T13:27:55Z</time></trkpt><trkpt lat="41.01738164453758" lon="8.94280508874908"><ele>131.0</ele><time>2026-04-26T13:27:56Z</time></trkpt><trkpt lat="41.01756573015232" lon="8.94281378200106"><ele>129.0</ele><time>2026-04-26T13:27:57Z</time></trkpt><trkpt lat="41.01777117954792" lon="8.942812256561671"><ele>127.0</ele><time>2026-04-26T13:27:58Z</time></trkpt><trkpt lat="41.017994110633396" lon="8.942825073431518"><ele>125.0</ele><time>2026-04-26T13:27:59Z</time></trkpt><trkpt lat="41.018229964051045" lon="8.94284025160471"><ele>124.5</ele><time>2026-04-26T13:28:00Z</time></trkpt><trkpt lat="41.018469709077024" lon="8.942856722185775"><ele>124.0</ele><time>2026-04-26T13:28:01Z</time></trkpt><trkpt lat="41.01871602151585" lon="8.942872638824344"><ele>124.0</ele><time>2026-04-26T13:28:02Z</time></trkpt><trkpt lat="41.018968681359546" lon="8.94288751062015"><ele>124.0</ele><time>2026-04-26T13:28:03Z</time></trkpt><trkpt lat="41.01922528849312" lon="8.94290157991653"><ele>125.5</ele><time>2026-04-26T13:28:04Z</time></trkpt><trkpt lat="41.019489671769904" lon="8.94291695039876"><ele>127.0</ele><time>2026-04-26T13:28:05Z</time></trkpt><trkpt lat="41.019754659689085" lon="8.942933172779616"><ele>128.0</ele><time>2026-04-26T13:28:06Z</time></trkpt><trkpt lat="41.02001185220298" lon="8.942952792180307"><ele>129.0</ele><time>2026-04-26T13:28:07Z</time></trkpt><trkpt lat="41.02027498863096" lon="8.942971400912718"><ele>129.0</ele><time>2026-04-26T13:28:08Z</time></trkpt><trkpt lat="41.02053743243048" lon="8.942987620222988"><ele>129.0</ele><time>2026-04-26T13:28:09Z</time></trkpt><trkpt lat="41.02080656262423" lon="8.943014254930699"><ele>130.5</ele><time>2026-04-26T13:28:10Z</time></trkpt><trkpt lat="41.02108160244672" lon="8.94304397272469"><ele>132.0</ele><time>2026-04-26T13:28:11Z</time></trkpt><trkpt lat="41.0213560427101" lon="8.94307909628848"><ele>132.0</ele><time>2026-04-26T13:28:12Z</time></trkpt><trkpt lat="41.02163483469318" lon="8.943114824009038"><ele>132.0</ele><time>2026-04-26T13:28:13Z</time></trkpt><trkpt lat="41.02191438436546" lon="8.943150241348757"><ele>133.5</ele><time>2026-04-26T13:28:14Z</time></trkpt><trkpt lat="41.02219803963525" lon="8.94318608849297"><ele>135.0</ele><time>2026-04-26T13:28:15Z</time></trkpt><trkpt lat="41.02248096085691" lon="8.943217685685983"><ele>138.5</ele><time>2026-04-26T13:28:16Z</time></trkpt><trkpt lat="41.02276417008199" lon="8.943245413463297"><ele>142.0</ele><time>2026-04-26T13:28:17Z</time></trkpt><trkpt lat="41.02304537648631" lon="8.943269843520875"><ele>146.5</ele><time>2026-04-26T13:28:18Z</time></trkpt><trkpt lat="41.02332469174786" lon="8.943282723428363"><ele>151.0</ele><time>2026-04-26T13:28:19Z</time></trkpt><trkpt lat="41.02358652835071" lon="8.943285253836162"><ele>151.0</ele><time>2026-04-26T13:28:20Z</time></trkpt><trkpt lat="41.02382389901314" lon="8.943294816085972"><ele>151.0</ele><time>2026-04-26T13:28:21Z</time></trkpt><trkpt lat="41.024044538142" lon="8.943328673796838"><ele>149.0</ele><time>2026-04-26T13:28:22Z</time></trkpt><trkpt lat="41.02426197400646" lon="8.94339695508824"><ele>147.0</ele><time>2026-04-26T13:28:23Z</time></trkpt><trkpt lat="41.02449143495274" lon="8.943487347985227"><ele>147.0</ele><time>2026-04-26T13:28:24Z</time></trkpt><trkpt lat="41.02472745611343" lon="8.943581928254083"><ele>147.0</ele><time>2026-04-26T13:28:25Z</time></trkpt><trkpt lat="41.024970986833324" lon="8.943673205457053"><ele>149.0</ele><time>2026-04-26T13:28:26Z</time></trkpt><trkpt lat="41.02522004848447" lon="8.943764936187407"><ele>151.0</ele><time>2026-04-26T13:28:27Z</time></trkpt><trkpt lat="41.02547092494754" lon="8.943858555515957"><ele>151.0</ele><time>2026-04-26T13:28:28Z</time></trkpt><trkpt lat="41.02572403543358" lon="8.943951110581658"><ele>151.0</ele><time>2026-04-26T13:28:29Z</time></trkpt><trkpt lat="41.025968809144636" lon="8.944036755391117"><ele>150.66666666666669</ele><time>2026-04-26T13:28:30Z</time></trkpt><trkpt lat="41.026193978825546" lon="8.944115927533032"><ele>150.33333333333334</ele><time>2026-04-26T13:28:31Z</time></trkpt><trkpt lat="41.026395928879204" lon="8.944190332809766"><ele>150.0</ele><time>2026-04-26T13:28:32Z</time></trkpt><trkpt lat="41.02656695735191" lon="8.944263565472912"><ele>153.0</ele><time>2026-04-26T13:28:33Z</time></trkpt><trkpt lat="41.02671609081895" lon="8.944360364269402"><ele>156.0</ele><time>2026-04-26T13:28:34Z</time></trkpt><trkpt lat="41.02683879624045" lon="8.944503633431918"><ele>159.0</ele><time>2026-04-26T13:28:35Z</time></trkpt><trkpt lat="41.02693599558657" lon="8.944690025929171"><ele>159.0</ele><time>2026-04-26T13:28:36Z</time></trkpt><trkpt lat="41.02702797899157" lon="8.944907956292235"><ele>159.0</ele><time>2026-04-26T13:28:37Z</time></trkpt><trkpt lat="41.0271348750607" lon="8.945102857611396"><ele>159.0</ele><time>2026-04-26T13:28:38Z</time></trkpt><trkpt lat="41.02727722047385" lon="8.945251277991916"><ele>157.33333333333334</ele><time>2026-04-26T13:28:39Z</time></trkpt><trkpt lat="41.02745398270837" lon="8.945373321105777"><ele>155.66666666666669</ele><time>2026-04-26T13:28:40Z</time></trkpt><trkpt lat="41.02764964553471" lon="8.945485429490645"><ele>154.0</ele><time>2026-04-26T13:28:41Z</time></trkpt><trkpt lat="41.02782163219026" lon="8.945593536168436"><ele>157.66666666666669</ele><time>2026-04-26T13:28:42Z</time></trkpt><trkpt lat="41.0279514218358" lon="8.945738163036662"><ele>161.33333333333334</ele><time>2026-04-26T13:28:43Z</time></trkpt><trkpt lat="41.028032028154726" lon="8.945919006689163"><ele>165.0</ele><time>2026-04-26T13:28:44Z</time></trkpt><trkpt lat="41.02806979627292" lon="8.94612144434568"><ele>166.0</ele><time>2026-04-26T13:28:45Z</time></trkpt><trkpt lat="41.02810025157582" lon="8.946352916861589"><ele>167.0</ele><time>2026-04-26T13:28:46Z</time></trkpt><trkpt lat="41.028117345481874" lon="8.946614900371447"><ele>168.0</ele><time>2026-04-26T13:28:47Z</time></trkpt><trkpt lat="41.02810693643723" lon="8.946886967646524"><ele>169.0</ele><time>2026-04-26T13:28:48Z</time></trkpt><trkpt lat="41.028064838101976" lon="8.94715507606801"><ele>170.0</ele><time>2026-04-26T13:28:49Z</time></trkpt><trkpt lat="41.02804118731356" lon="8.947393703919957"><ele>171.0</ele><time>2026-04-26T13:28:50Z</time></trkpt><trkpt lat="41.028063168591736" lon="8.9476146157275"><ele>169.0</ele><time>2026-04-26T13:28:51Z</time></trkpt><trkpt lat="41.02812631229304" lon="8.947844746047435"><ele>167.0</ele><time>2026-04-26T13:28:52Z</time></trkpt><trkpt lat="41.02820880498019" lon="8.948076373910949"><ele>165.0</ele><time>2026-04-26T13:28:53Z</time></trkpt><trkpt lat="41.02829536873526" lon="8.948289121204962"><ele>168.33333333333334</ele><time>2026-04-26T13:28:54Z</time></trkpt><trkpt lat="41.028373307955356" lon="8.948521622760003"><ele>171.66666666666669</ele><time>2026-04-26T13:28:55Z</time></trkpt><trkpt lat="41.02845708670249" lon="8.948765155162036"><ele>175.0</ele><time>2026-04-26T13:28:56Z</time></trkpt><trkpt lat="41.02854225988327" lon="8.94903458183568"><ele>174.5</ele><time>2026-04-26T13:28:57Z</time></trkpt><trkpt lat="41.02862372389875" lon="8.949319602656855"><ele>174.0</ele><time>2026-04-26T13:28:58Z</time></trkpt><trkpt lat="41.02869564606739" lon="8.949613454743021"><ele>174.0</ele><time>2026-04-26T13:28:59Z</time></trkpt><trkpt lat="41.028751261717986" lon="8.949903539582579"><ele>174.0</ele><time>2026-04-26T13:29:00Z</time></trkpt><trkpt lat="41.028794930631705" lon="8.950216448708806"><ele>174.5</ele><time>2026-04-26T13:29:01Z</time></trkpt><trkpt lat="41.028826489039645" lon="8.950547618570436"><ele>175.0</ele><time>2026-04-26T13:29:02Z</time></trkpt><trkpt lat="41.02885710670638" lon="8.950886834620219"><ele>173.5</ele><time>2026-04-26T13:29:03Z</time></trkpt><trkpt lat="41.028888253786" lon="8.951229424466314"><ele>172.0</ele><time>2026-04-26T13:29:04Z</time></trkpt><trkpt lat="41.02891674384524" lon="8.95155699020052"><ele>172.33333333333334</ele><time>2026-04-26T13:29:05Z</time></trkpt><trkpt lat="41.02894435649435" lon="8.951856844590493"><ele>172.66666666666666</ele><time>2026-04-26T13:29:06Z</time></trkpt><trkpt lat="41.02897104535433" lon="8.952134429840088"><ele>173.0</ele><time>2026-04-26T13:29:07Z</time></trkpt><trkpt lat="41.02899240219522" lon="8.952405686351877"><ele>174.66666666666666</ele><time>2026-04-26T13:29:08Z</time></trkpt><trkpt lat="41.029002347552975" lon="8.95267898057409"><ele>176.33333333333334</ele><time>2026-04-26T13:29:09Z</time></trkpt><trkpt lat="41.02899433561781" lon="8.952956872402996"><ele>178.0</ele><time>2026-04-26T13:29:10Z</time></trkpt><trkpt lat="41.02897438125388" lon="8.953222030009892"><ele>180.66666666666669</ele><time>2026-04-26T13:29:11Z</time></trkpt><trkpt lat="41.02895188540016" lon="8.953467969604274"><ele>183.33333333333334</ele><time>2026-04-26T13:29:12Z</time></trkpt><trkpt lat="41.02893247127602" lon="8.953702799146832"><ele>186.0</ele><time>2026-04-26T13:29:13Z</time></trkpt><trkpt lat="41.02890177717214" lon="8.953925695729847"><ele>186.0</ele><time>2026-04-26T13:29:14Z</time></trkpt><trkpt lat="41.02884282974582" lon="8.954150881825129"><ele>186.0</ele><time>2026-04-26T13:29:15Z</time></trkpt><trkpt lat="41.02876466748232" lon="8.954408262310938"><ele>186.0</ele><time>2026-04-26T13:29:16Z</time></trkpt><trkpt lat="41.02868856970901" lon="8.954671734663796"><ele>187.66666666666666</ele><time>2026-04-26T13:29:17Z</time></trkpt><trkpt lat="41.028627413615155" lon="8.954916011341439"><ele>189.33333333333331</ele><time>2026-04-26T13:29:18Z</time></trkpt><trkpt lat="41.02858007039881" lon="8.955147855142325"><ele>191.0</ele><time>2026-04-26T13:29:19Z</time></trkpt><trkpt lat="41.02855019030756" lon="8.95539743442248"><ele>191.0</ele><time>2026-04-26T13:29:20Z</time></trkpt><trkpt lat="41.02854156376612" lon="8.95568915989722"><ele>191.0</ele><time>2026-04-26T13:29:21Z</time></trkpt><trkpt lat="41.028531260236306" lon="8.956000839748569"><ele>191.5</ele><time>2026-04-26T13:29:22Z</time></trkpt><trkpt lat="41.0285159553457" lon="8.956327796834179"><ele>192.0</ele><time>2026-04-26T13:29:23Z</time></trkpt><trkpt lat="41.028497454979416" lon="8.956664854026902"><ele>191.0</ele><time>2026-04-26T13:29:24Z</time></trkpt><trkpt lat="41.02848019135293" lon="8.956983553262525"><ele>190.0</ele><time>2026-04-26T13:29:25Z</time></trkpt><trkpt lat="41.028464798257275" lon="8.957280678658893"><ele>189.0</ele><time>2026-04-26T13:29:26Z</time></trkpt><trkpt lat="41.02844930377846" lon="8.957564517516369"><ele>188.0</ele><time>2026-04-26T13:29:27Z</time></trkpt><trkpt lat="41.02842556060821" lon="8.957837239168851"><ele>187.0</ele><time>2026-04-26T13:29:28Z</time></trkpt><trkpt lat="41.02838822853632" lon="8.958097985524796"><ele>187.0</ele><time>2026-04-26T13:29:29Z</time></trkpt><trkpt lat="41.028338252508355" lon="8.958338702085706"><ele>187.0</ele><time>2026-04-26T13:29:30Z</time></trkpt><trkpt lat="41.028295606177196" lon="8.958540350802126"><ele>187.0</ele><time>2026-04-26T13:29:31Z</time></trkpt><trkpt lat="41.028277298064" lon="8.958720219704766"><ele>186.0</ele><time>2026-04-26T13:29:32Z</time></trkpt><trkpt lat="41.02830011835291" lon="8.958891913715043"><ele>185.0</ele><time>2026-04-26T13:29:33Z</time></trkpt><trkpt lat="41.02836354373349" lon="8.95905176465592"><ele>184.0</ele><time>2026-04-26T13:29:34Z</time></trkpt><trkpt lat="41.02846215033023" lon="8.959194256079828"><ele>183.0</ele><time>2026-04-26T13:29:35Z</time></trkpt><trkpt lat="41.02859887673903" lon="8.959344217394802"><ele>183.0</ele><time>2026-04-26T13:29:36Z</time></trkpt><trkpt lat="41.028740761507606" lon="8.959495993502637"><ele>183.0</ele><time>2026-04-26T13:29:37Z</time></trkpt><trkpt lat="41.02885960616182" lon="8.959623974632159"><ele>183.0</ele><time>2026-04-26T13:29:38Z</time></trkpt><trkpt lat="41.02896553951204" lon="8.959717198447393"><ele>183.0</ele><time>2026-04-26T13:29:39Z</time></trkpt><trkpt lat="41.029087969814746" lon="8.95975886280471"><ele>183.0</ele><time>2026-04-26T13:29:40Z</time></trkpt><trkpt lat="41.02923827565299" lon="8.959758063115522"><ele>183.0</ele><time>2026-04-26T13:29:41Z</time></trkpt><trkpt lat="41.029419144841604" lon="8.959717371664887"><ele>182.0</ele><time>2026-04-26T13:29:42Z</time></trkpt><trkpt lat="41.02961574851921" lon="8.959648698889657"><ele>181.0</ele><time>2026-04-26T13:29:43Z</time></trkpt><trkpt lat="41.02979849541572" lon="8.959594950614084"><ele>180.0</ele><time>2026-04-26T13:29:44Z</time></trkpt><trkpt lat="41.02995863830529" lon="8.959551119321105"><ele>178.25</ele><time>2026-04-26T13:29:45Z</time></trkpt><trkpt lat="41.03008134251713" lon="8.959530836081512"><ele>176.5</ele><time>2026-04-26T13:29:46Z</time></trkpt><trkpt lat="41.03018423586489" lon="8.9595523071219"><ele>174.75</ele><time>2026-04-26T13:29:47Z</time></trkpt><trkpt lat="41.03027792280082" lon="8.959632320487463"><ele>173.0</ele><time>2026-04-26T13:29:48Z</time></trkpt><trkpt lat="41.03036037510588" lon="8.959763768058497"><ele>173.0</ele><time>2026-04-26T13:29:49Z</time></trkpt><trkpt lat="41.030413483296094" lon="8.959933659807747"><ele>173.0</ele><time>2026-04-26T13:29:50Z</time></trkpt><trkpt lat="41.030442353231926" lon="8.960130314944813"><ele>173.0</ele><time>2026-04-26T13:29:51Z</time></trkpt><trkpt lat="41.030439869128614" lon="8.960330928449924"><ele>173.0</ele><time>2026-04-26T13:29:52Z</time></trkpt><trkpt lat="41.030403377578835" lon="8.96052066025706"><ele>172.0</ele><time>2026-04-26T13:29:53Z</time></trkpt><trkpt lat="41.03032947240148" lon="8.960719516736154"><ele>171.0</ele><time>2026-04-26T13:29:54Z</time></trkpt><trkpt lat="41.030230139264184" lon="8.960938247106837"><ele>170.0</ele><time>2026-04-26T13:29:55Z</time></trkpt><trkpt lat="41.03012298296024" lon="8.961184943161928"><ele>171.0</ele><time>2026-04-26T13:29:56Z</time></trkpt><trkpt lat="41.03002178745575" lon="8.961423656563904"><ele>172.0</ele><time>2026-04-26T13:29:57Z</time></trkpt><trkpt lat="41.02993030259636" lon="8.961645569493474"><ele>173.0</ele><time>2026-04-26T13:29:58Z</time></trkpt><trkpt lat="41.029844673894836" lon="8.961854776720413"><ele>169.33333333333331</ele><time>2026-04-26T13:29:59Z</time></trkpt><trkpt lat="41.02975967798524" lon="8.96205636330165"><ele>165.66666666666666</ele><time>2026-04-26T13:30:00Z</time></trkpt><trkpt lat="41.02967078287789" lon="8.962244298712825"><ele>162.0</ele><time>2026-04-26T13:30:01Z</time></trkpt><trkpt lat="41.02957430447983" lon="8.96239479663609"><ele>162.0</ele><time>2026-04-26T13:30:02Z</time></trkpt><trkpt lat="41.02947681567826" lon="8.962477015363572"><ele>162.0</ele><time>2026-04-26T13:30:03Z</time></trkpt><trkpt lat="41.02935460270172" lon="8.962488935037243"><ele>162.0</ele><time>2026-04-26T13:30:04Z</time></trkpt><trkpt lat="41.02920896717376" lon="8.962487402775205"><ele>162.0</ele><time>2026-04-26T13:30:05Z</time></trkpt><trkpt lat="41.029034933539286" lon="8.962479082515802"><ele>162.25</ele><time>2026-04-26T13:30:06Z</time></trkpt><trkpt lat="41.02887618569566" lon="8.962459669228343"><ele>162.5</ele><time>2026-04-26T13:30:07Z</time></trkpt><trkpt lat="41.02872976338532" lon="8.9624829104245"><ele>162.75</ele><time>2026-04-26T13:30:08Z</time></trkpt><trkpt lat="41.02860659282802" lon="8.96256069433661"><ele>163.0</ele><time>2026-04-26T13:30:09Z</time></trkpt><trkpt lat="41.0284982031417" lon="8.962680650226904"><ele>163.0</ele><time>2026-04-26T13:30:10Z</time></trkpt><trkpt lat="41.02841887917451" lon="8.962825539902866"><ele>163.0</ele><time>2026-04-26T13:30:11Z</time></trkpt><trkpt lat="41.028373092445726" lon="8.962985323651225"><ele>163.0</ele><time>2026-04-26T13:30:12Z</time></trkpt><trkpt lat="41.02836218986223" lon="8.963160879959679"><ele>163.0</ele><time>2026-04-26T13:30:13Z</time></trkpt><trkpt lat="41.028393691748974" lon="8.963360114025257"><ele>163.33333333333334</ele><time>2026-04-26T13:30:14Z</time></trkpt><trkpt lat="41.028450804844724" lon="8.963590461733618"><ele>163.66666666666666</ele><time>2026-04-26T13:30:15Z</time></trkpt><trkpt lat="41.028517158232916" lon="8.963847282173498"><ele>164.0</ele><time>2026-04-26T13:30:16Z</time></trkpt><trkpt lat="41.02858322211251" lon="8.964126276521283"><ele>165.0</ele><time>2026-04-26T13:30:17Z</time></trkpt><trkpt lat="41.0286585490521" lon="8.964422091100385"><ele>166.0</ele><time>2026-04-26T13:30:18Z</time></trkpt><trkpt lat="41.02874380616537" lon="8.96472948484106"><ele>170.0</ele><time>2026-04-26T13:30:19Z</time></trkpt><trkpt lat="41.028826611686824" lon="8.965039863989324"><ele>174.0</ele><time>2026-04-26T13:30:20Z</time></trkpt><trkpt lat="41.02889803583918" lon="8.965333853448298"><ele>174.0</ele><time>2026-04-26T13:30:21Z</time></trkpt><trkpt lat="41.028955710575744" lon="8.96561844485736"><ele>174.0</ele><time>2026-04-26T13:30:22Z</time></trkpt><trkpt lat="41.02900538426579" lon="8.965895519407027"><ele>174.0</ele><time>2026-04-26T13:30:23Z</time></trkpt><trkpt lat="41.02905548556358" lon="8.966178118443183"><ele>175.0</ele><time>2026-04-26T13:30:24Z</time></trkpt><trkpt lat="41.02911880923522" lon="8.966479704706739"><ele>176.0</ele><time>2026-04-26T13:30:25Z</time></trkpt><trkpt lat="41.029184006514406" lon="8.966775919613998"><ele>166.66666666666666</ele><time>2026-04-26T13:30:26Z</time></trkpt><trkpt lat="41.029230512426636" lon="8.967055753855767"><ele>157.33333333333334</ele><time>2026-04-26T13:30:27Z</time></trkpt><trkpt lat="41.02926051737677" lon="8.967328281018398"><ele>148.0</ele><time>2026-04-26T13:30:28Z</time></trkpt><trkpt lat="41.0292699193378" lon="8.96761345344366"><ele>148.0</ele><time>2026-04-26T13:30:29Z</time></trkpt><trkpt lat="41.02926529454439" lon="8.967894035506509"><ele>148.0</ele><time>2026-04-26T13:30:30Z</time></trkpt><trkpt lat="41.029257683988554" lon="8.968155114855135"><ele>148.0</ele><time>2026-04-26T13:30:31Z</time></trkpt><trkpt lat="41.029257006125185" lon="8.968368772204364"><ele>148.5</ele><time>2026-04-26T13:30:32Z</time></trkpt><trkpt lat="41.029264961529144" lon="8.968549846042633"><ele>149.0</ele><time>2026-04-26T13:30:33Z</time></trkpt><trkpt lat="41.02929654399838" lon="8.968726152164534"><ele>149.5</ele><time>2026-04-26T13:30:34Z</time></trkpt><trkpt lat="41.029374321909565" lon="8.968896925225403"><ele>150.0</ele><time>2026-04-26T13:30:35Z</time></trkpt><trkpt lat="41.02948820411204" lon="8.969079613226777"><ele>149.33333333333334</ele><time>2026-04-26T13:30:36Z</time></trkpt><trkpt lat="41.029627946463016" lon="8.969278653743192"><ele>148.66666666666669</ele><time>2026-04-26T13:30:37Z</time></trkpt><trkpt lat="41.029773354804696" lon="8.969505210762659"><ele>148.0</ele><time>2026-04-26T13:30:38Z</time></trkpt><trkpt lat="41.029918565906954" lon="8.969741260795987"><ele>145.33333333333334</ele><time>2026-04-26T13:30:39Z</time></trkpt><trkpt lat="41.03005834389984" lon="8.9699669142483"><ele>142.66666666666666</ele><time>2026-04-26T13:30:40Z</time></trkpt><trkpt lat="41.03018262656452" lon="8.970176459711357"><ele>140.0</ele><time>2026-04-26T13:30:41Z</time></trkpt><trkpt lat="41.030302981379165" lon="8.970381237098113"><ele>140.0</ele><time>2026-04-26T13:30:42Z</time></trkpt><trkpt lat="41.030423222419344" lon="8.970558402534413"><ele>140.0</ele><time>2026-04-26T13:30:43Z</time></trkpt><trkpt lat="41.030564518603526" lon="8.970705568341279"><ele>140.0</ele><time>2026-04-26T13:30:44Z</time></trkpt><trkpt lat="41.0307285634471" lon="8.970822681039024"><ele>137.0</ele><time>2026-04-26T13:30:45Z</time></trkpt><trkpt lat="41.03092732089195" lon="8.970920738267862"><ele>134.0</ele><time>2026-04-26T13:30:46Z</time></trkpt><trkpt lat="41.031144221307635" lon="8.971018705503457"><ele>131.0</ele><time>2026-04-26T13:30:47Z</time></trkpt><trkpt lat="41.03136660374577" lon="8.971124495929114"><ele>131.0</ele><time>2026-04-26T13:30:48Z</time></trkpt><trkpt lat="41.03158512975546" lon="8.971233247081614"><ele>131.0</ele><time>2026-04-26T13:30:49Z</time></trkpt><trkpt lat="41.031795869212694" lon="8.97133737630396"><ele>132.0</ele><time>2026-04-26T13:30:50Z</time></trkpt><trkpt lat="41.031989840465904" lon="8.971433482889562"><ele>133.0</ele><time>2026-04-26T13:30:51Z</time></trkpt><trkpt lat="41.0321663541007" lon="8.971521709100768"><ele>134.0</ele><time>2026-04-26T13:30:52Z</time></trkpt><trkpt lat="41.03231336166536" lon="8.971622168597875"><ele>134.33333333333331</ele><time>2026-04-26T13:30:53Z</time></trkpt><trkpt lat="41.032448026223406" lon="8.971750778925017"><ele>134.66666666666666</ele><time>2026-04-26T13:30:54Z</time></trkpt><trkpt lat="41.0325678367046" lon="8.971923694134789"><ele>135.0</ele><time>2026-04-26T13:30:55Z</time></trkpt><trkpt lat="41.03268873298144" lon="8.972144024569992"><ele>135.0</ele><time>2026-04-26T13:30:56Z</time></trkpt><trkpt lat="41.03282437184808" lon="8.972382196203037"><ele>135.0</ele><time>2026-04-26T13:30:57Z</time></trkpt><trkpt lat="41.03297099471827" lon="8.972627542544222"><ele>135.5</ele><time>2026-04-26T13:30:58Z</time></trkpt><trkpt lat="41.03312475670565" lon="8.972880143869927"><ele>136.0</ele><time>2026-04-26T13:30:59Z</time></trkpt><trkpt lat="41.03328904027632" lon="8.973147594325544"><ele>134.5</ele><time>2026-04-26T13:31:00Z</time></trkpt><trkpt lat="41.033459424368466" lon="8.973421766228284"><ele>133.0</ele><time>2026-04-26T13:31:01Z</time></trkpt><trkpt lat="41.03363711785665" lon="8.973702243501561"><ele>133.0</ele><time>2026-04-26T13:31:02Z</time></trkpt><trkpt lat="41.03382044535589" lon="8.9739788738786"><ele>133.0</ele><time>2026-04-26T13:31:03Z</time></trkpt><trkpt lat="41.03400869252838" lon="8.9742545164198"><ele>134.0</ele><time>2026-04-26T13:31:04Z</time></trkpt><trkpt lat="41.03419480407283" lon="8.97451848791329"><ele>135.0</ele><time>2026-04-26T13:31:05Z</time></trkpt><trkpt lat="41.03436060418188" lon="8.974758432398735"><ele>135.0</ele><time>2026-04-26T13:31:06Z</time></trkpt><trkpt lat="41.03451425059882" lon="8.974987323347365"><ele>135.0</ele><time>2026-04-26T13:31:07Z</time></trkpt><trkpt lat="41.03465818751506" lon="8.97521152752888"><ele>135.33333333333334</ele><time>2026-04-26T13:31:08Z</time></trkpt><trkpt lat="41.03479985188659" lon="8.975428233831616"><ele>135.66666666666669</ele><time>2026-04-26T13:31:09Z</time></trkpt><trkpt lat="41.034940182748514" lon="8.97562279961724"><ele>136.0</ele><time>2026-04-26T13:31:10Z</time></trkpt><trkpt lat="41.035097147105176" lon="8.975804080270743"><ele>136.5</ele><time>2026-04-26T13:31:11Z</time></trkpt><trkpt lat="41.035276355005905" lon="8.975998775591139"><ele>137.0</ele><time>2026-04-26T13:31:12Z</time></trkpt><trkpt lat="41.03546086527577" lon="8.976208220257748"><ele>137.0</ele><time>2026-04-26T13:31:13Z</time></trkpt><trkpt lat="41.03564795806178" lon="8.976431954617306"><ele>137.0</ele><time>2026-04-26T13:31:14Z</time></trkpt><trkpt lat="41.035842888374596" lon="8.976664005359059"><ele>138.5</ele><time>2026-04-26T13:31:15Z</time></trkpt><trkpt lat="41.03603872465863" lon="8.976895195577498"><ele>140.0</ele><time>2026-04-26T13:31:16Z</time></trkpt><trkpt lat="41.03621803274043" lon="8.97710722740149"><ele>140.0</ele><time>2026-04-26T13:31:17Z</time></trkpt><trkpt lat="41.03638119153024" lon="8.977304604363386"><ele>140.0</ele><time>2026-04-26T13:31:18Z</time></trkpt><trkpt lat="41.03653265631397" lon="8.977488209329936"><ele>140.0</ele><time>2026-04-26T13:31:19Z</time></trkpt><trkpt lat="41.03667483517297" lon="8.977658526244465"><ele>141.33333333333331</ele><time>2026-04-26T13:31:20Z</time></trkpt><trkpt lat="41.03680708310178" lon="8.977817997142884"><ele>142.66666666666666</ele><time>2026-04-26T13:31:21Z</time></trkpt><trkpt lat="41.036934997162405" lon="8.977963030957818"><ele>144.0</ele><time>2026-04-26T13:31:22Z</time></trkpt><trkpt lat="41.0370698003556" lon="8.978066918004163"><ele>144.0</ele><time>2026-04-26T13:31:23Z</time></trkpt><trkpt lat="41.03722975292545" lon="8.97813004858924"><ele>144.0</ele><time>2026-04-26T13:31:24Z</time></trkpt><trkpt lat="41.03742088722926" lon="8.978151481558147"><ele>144.0</ele><time>2026-04-26T13:31:25Z</time></trkpt><trkpt lat="41.03762989761338" lon="8.978157241156415"><ele>145.66666666666666</ele><time>2026-04-26T13:31:26Z</time></trkpt><trkpt lat="41.03783566429836" lon="8.978173413977455"><ele>147.33333333333331</ele><time>2026-04-26T13:31:27Z</time></trkpt><trkpt lat="41.03802477383316" lon="8.978194806891002"><ele>149.0</ele><time>2026-04-26T13:31:28Z</time></trkpt><trkpt lat="41.03819648824952" lon="8.978216645021183"><ele>150.66666666666666</ele><time>2026-04-26T13:31:29Z</time></trkpt><trkpt lat="41.038359986616946" lon="8.978241301705577"><ele>152.33333333333334</ele><time>2026-04-26T13:31:30Z</time></trkpt><trkpt lat="41.038512909418515" lon="8.978264052710246"><ele>154.0</ele><time>2026-04-26T13:31:31Z</time></trkpt><trkpt lat="41.03865803553716" lon="8.978280710638403"><ele>154.0</ele><time>2026-04-26T13:31:32Z</time></trkpt><trkpt lat="41.038794277878864" lon="8.978293240858195"><ele>154.0</ele><time>2026-04-26T13:31:33Z</time></trkpt><trkpt lat="41.03892869346817" lon="8.978303185135163"><ele>154.0</ele><time>2026-04-26T13:31:34Z</time></trkpt><trkpt lat="41.03905946901116" lon="8.978315777352874"><ele>154.0</ele><time>2026-04-26T13:31:35Z</time></trkpt><trkpt lat="41.039183569173" lon="8.978349116861501"><ele>154.5</ele><time>2026-04-26T13:31:36Z</time></trkpt><trkpt lat="41.03930213722686" lon="8.978420362852178"><ele>155.0</ele><time>2026-04-26T13:31:37Z</time></trkpt><trkpt lat="41.039414804862304" lon="8.978531262775356"><ele>155.5</ele><time>2026-04-26T13:31:38Z</time></trkpt><trkpt lat="41.039521645991876" lon="8.978668883982742"><ele>156.0</ele><time>2026-04-26T13:31:39Z</time></trkpt><trkpt lat="41.0396354835729" lon="8.978817632688086"><ele>156.0</ele><time>2026-04-26T13:31:40Z</time></trkpt><trkpt lat="41.039769932801775" lon="8.978983483423406"><ele>156.0</ele><time>2026-04-26T13:31:41Z</time></trkpt><trkpt lat="41.03992320892256" lon="8.979166910213575"><ele>156.0</ele><time>2026-04-26T13:31:42Z</time></trkpt><trkpt lat="41.040085173607814" lon="8.979369371583811"><ele>155.0</ele><time>2026-04-26T13:31:43Z</time></trkpt><trkpt lat="41.04025028289304" lon="8.979592311588355"><ele>154.0</ele><time>2026-04-26T13:31:44Z</time></trkpt><trkpt lat="41.04041911903707" lon="8.979826308013447"><ele>153.0</ele><time>2026-04-26T13:31:45Z</time></trkpt><trkpt lat="41.04059845877377" lon="8.98007000913619"><ele>152.0</ele><time>2026-04-26T13:31:46Z</time></trkpt><trkpt lat="41.04077711862404" lon="8.980304880834469"><ele>151.5</ele><time>2026-04-26T13:31:47Z</time></trkpt><trkpt lat="41.040943424750395" lon="8.980519852363189"><ele>151.0</ele><time>2026-04-26T13:31:48Z</time></trkpt><trkpt lat="41.04109924007921" lon="8.980720864446264"><ele>151.0</ele><time>2026-04-26T13:31:49Z</time></trkpt><trkpt lat="41.04124395007016" lon="8.980906700110143"><ele>151.0</ele><time>2026-04-26T13:31:50Z</time></trkpt><trkpt lat="41.0413818677617" lon="8.981082742674108"><ele>151.0</ele><time>2026-04-26T13:31:51Z</time></trkpt><trkpt lat="41.041512779731434" lon="8.981248628577518"><ele>152.0</ele><time>2026-04-26T13:31:52Z</time></trkpt><trkpt lat="41.041634358789985" lon="8.981410623309495"><ele>153.0</ele><time>2026-04-26T13:31:53Z</time></trkpt><trkpt lat="41.0417397157432" lon="8.981580477347283"><ele>154.0</ele><time>2026-04-26T13:31:54Z</time></trkpt><trkpt lat="41.041819886682376" lon="8.981760844389251"><ele>154.0</ele><time>2026-04-26T13:31:55Z</time></trkpt><trkpt lat="41.041876768703894" lon="8.981958356300462"><ele>154.0</ele><time>2026-04-26T13:31:56Z</time></trkpt><trkpt lat="41.04192056659635" lon="8.982181417641197"><ele>154.0</ele><time>2026-04-26T13:31:57Z</time></trkpt><trkpt lat="41.04195401262477" lon="8.982410386326492"><ele>154.66666666666669</ele><time>2026-04-26T13:31:58Z</time></trkpt><trkpt lat="41.0419973281413" lon="8.982670653478255"><ele>155.33333333333334</ele><time>2026-04-26T13:31:59Z</time></trkpt><trkpt lat="41.042040904299675" lon="8.982950767270472"><ele>156.0</ele><time>2026-04-26T13:32:00Z</time></trkpt><trkpt lat="41.042080102296715" lon="8.98325166739007"><ele>155.0</ele><time>2026-04-26T13:32:01Z</time></trkpt><trkpt lat="41.04211636334649" lon="8.983564397353435"><ele>154.0</ele><time>2026-04-26T13:32:02Z</time></trkpt><trkpt lat="41.042157388622606" lon="8.983881245258969"><ele>153.5</ele><time>2026-04-26T13:32:03Z</time></trkpt><trkpt lat="41.04220113865418" lon="8.984203689754393"><ele>153.0</ele><time>2026-04-26T13:32:04Z</time></trkpt><trkpt lat="41.04224718732055" lon="8.984534119185279"><ele>153.0</ele><time>2026-04-26T13:32:05Z</time></trkpt><trkpt lat="41.04230015459295" lon="8.984876935653368"><ele>153.0</ele><time>2026-04-26T13:32:06Z</time></trkpt><trkpt lat="41.042353921057256" lon="8.98522270166338"><ele>152.5</ele><time>2026-04-26T13:32:07Z</time></trkpt><trkpt lat="41.04240852034962" lon="8.98557914841958"><ele>152.0</ele><time>2026-04-26T13:32:08Z</time></trkpt><trkpt lat="41.04246171666216" lon="8.985938987425667"><ele>151.5</ele><time>2026-04-26T13:32:09Z</time></trkpt><trkpt lat="41.042511156863206" lon="8.986280098901997"><ele>151.0</ele><time>2026-04-26T13:32:10Z</time></trkpt><trkpt lat="41.04255721855288" lon="8.986600908204158"><ele>151.5</ele><time>2026-04-26T13:32:11Z</time></trkpt><trkpt lat="41.04260508036658" lon="8.98691556939383"><ele>152.0</ele><time>2026-04-26T13:32:12Z</time></trkpt><trkpt lat="41.042652451482454" lon="8.98723420428625"><ele>152.0</ele><time>2026-04-26T13:32:13Z</time></trkpt><trkpt lat="41.04270376881498" lon="8.987565911251272"><ele>152.0</ele><time>2026-04-26T13:32:14Z</time></trkpt><trkpt lat="41.04275628659772" lon="8.987907759487449"><ele>152.0</ele><time>2026-04-26T13:32:15Z</time></trkpt><trkpt lat="41.04280840587091" lon="8.988254825979084"><ele>152.0</ele><time>2026-04-26T13:32:16Z</time></trkpt><trkpt lat="41.042860218480776" lon="8.988600224615316"><ele>153.0</ele><time>2026-04-26T13:32:17Z</time></trkpt><trkpt lat="41.042908897350564" lon="8.988941179405922"><ele>154.0</ele><time>2026-04-26T13:32:18Z</time></trkpt><trkpt lat="41.04295049357413" lon="8.989250549073866"><ele>154.66666666666669</ele><time>2026-04-26T13:32:19Z</time></trkpt><trkpt lat="41.04299247142073" lon="8.98953638632913"><ele>155.33333333333334</ele><time>2026-04-26T13:32:20Z</time></trkpt><trkpt lat="41.04303087413284" lon="8.989811349608628"><ele>156.0</ele><time>2026-04-26T13:32:21Z</time></trkpt><trkpt lat="41.04307421624223" lon="8.990060989719279"><ele>157.33333333333334</ele><time>2026-04-26T13:32:22Z</time></trkpt><trkpt lat="41.04313818678238" lon="8.990282624990705"><ele>158.66666666666669</ele><time>2026-04-26T13:32:23Z</time></trkpt><trkpt lat="41.04323084437321" lon="8.990494135972408"><ele>160.0</ele><time>2026-04-26T13:32:24Z</time></trkpt><trkpt lat="41.04333784100536" lon="8.99071272208746"><ele>162.66666666666669</ele><time>2026-04-26T13:32:25Z</time></trkpt><trkpt lat="41.043448926121954" lon="8.990919494541284"><ele>165.33333333333334</ele><time>2026-04-26T13:32:26Z</time></trkpt><trkpt lat="41.04358360876354" lon="8.991117251276885"><ele>168.0</ele><time>2026-04-26T13:32:27Z</time></trkpt><trkpt lat="41.04374165056102" lon="8.991298142749772"><ele>168.0</ele><time>2026-04-26T13:32:28Z</time></trkpt><trkpt lat="41.04392142511385" lon="8.99148477193279"><ele>168.0</ele><time>2026-04-26T13:32:29Z</time></trkpt><trkpt lat="41.04411186328719" lon="8.991677387136436"><ele>166.0</ele><time>2026-04-26T13:32:30Z</time></trkpt><trkpt lat="41.04431104278332" lon="8.991882025462699"><ele>164.0</ele><time>2026-04-26T13:32:31Z</time></trkpt><trkpt lat="41.04451196159729" lon="8.992093841938766"><ele>164.0</ele><time>2026-04-26T13:32:32Z</time></trkpt><trkpt lat="41.04471962134583" lon="8.992312067313465"><ele>164.0</ele><time>2026-04-26T13:32:33Z</time></trkpt><trkpt lat="41.04492709388886" lon="8.992532233318084"><ele>165.5</ele><time>2026-04-26T13:32:34Z</time></trkpt><trkpt lat="41.045135898356186" lon="8.992752044292683"><ele>167.0</ele><time>2026-04-26T13:32:35Z</time></trkpt><trkpt lat="41.045331531817325" lon="8.992958915706529"><ele>167.0</ele><time>2026-04-26T13:32:36Z</time></trkpt><trkpt lat="41.04553017992824" lon="8.993166740433953"><ele>167.0</ele><time>2026-04-26T13:32:37Z</time></trkpt><trkpt lat="41.04572893930338" lon="8.993383032269254"><ele>169.0</ele><time>2026-04-26T13:32:38Z</time></trkpt><trkpt lat="41.04594857305428" lon="8.993604502907898"><ele>171.0</ele><time>2026-04-26T13:32:39Z</time></trkpt><trkpt lat="41.04616382891058" lon="8.993831900131203"><ele>171.0</ele><time>2026-04-26T13:32:40Z</time></trkpt><trkpt lat="41.046380108697974" lon="8.994062503904384"><ele>171.0</ele><time>2026-04-26T13:32:41Z</time></trkpt><trkpt lat="41.04659650882749" lon="8.994293133017738"><ele>171.5</ele><time>2026-04-26T13:32:42Z</time></trkpt><trkpt lat="41.04681913814164" lon="8.994526336477694"><ele>172.0</ele><time>2026-04-26T13:32:43Z</time></trkpt><trkpt lat="41.047042861399895" lon="8.994764298255461"><ele>172.0</ele><time>2026-04-26T13:32:44Z</time></trkpt><trkpt lat="41.04726668167887" lon="8.995001025973554"><ele>172.0</ele><time>2026-04-26T13:32:45Z</time></trkpt><trkpt lat="41.04747717703327" lon="8.995222169446702"><ele>172.5</ele><time>2026-04-26T13:32:46Z</time></trkpt><trkpt lat="41.04766770508694" lon="8.995422996421828"><ele>173.0</ele><time>2026-04-26T13:32:47Z</time></trkpt><trkpt lat="41.047850473859896" lon="8.99561329367707"><ele>173.0</ele><time>2026-04-26T13:32:48Z</time></trkpt><trkpt lat="41.04802501575299" lon="8.995793543328785"><ele>173.0</ele><time>2026-04-26T13:32:49Z</time></trkpt><trkpt lat="41.048196218556875" lon="8.995973080843507"><ele>173.0</ele><time>2026-04-26T13:32:50Z</time></trkpt><trkpt lat="41.04836387712548" lon="8.996154813790548"><ele>174.0</ele><time>2026-04-26T13:32:51Z</time></trkpt><trkpt lat="41.04852813583364" lon="8.996342226862085"><ele>175.0</ele><time>2026-04-26T13:32:52Z</time></trkpt><trkpt lat="41.04870173012323" lon="8.996545613371557"><ele>176.0</ele><time>2026-04-26T13:32:53Z</time></trkpt><trkpt lat="41.0488808848591" lon="8.996760454607973"><ele>177.0</ele><time>2026-04-26T13:32:54Z</time></trkpt><trkpt lat="41.04905484298465" lon="8.996973786374797"><ele>178.0</ele><time>2026-04-26T13:32:55Z</time></trkpt><trkpt lat="41.04921262877519" lon="8.997166488774175"><ele>178.0</ele><time>2026-04-26T13:32:56Z</time></trkpt><trkpt lat="41.04935845160261" lon="8.997345998676877"><ele>178.0</ele><time>2026-04-26T13:32:57Z</time></trkpt><trkpt lat="41.049483123707475" lon="8.9975012991961"><ele>178.0</ele><time>2026-04-26T13:32:58Z</time></trkpt><trkpt lat="41.04959874106236" lon="8.997649825348233"><ele>178.66666666666669</ele><time>2026-04-26T13:32:59Z</time></trkpt><trkpt lat="41.04971267579664" lon="8.997799308408974"><ele>179.33333333333334</ele><time>2026-04-26T13:33:00Z</time></trkpt><trkpt lat="41.049820962920165" lon="8.997946264106984"><ele>180.0</ele><time>2026-04-26T13:33:01Z</time></trkpt><trkpt lat="41.049919001156084" lon="8.998090585871761"><ele>180.0</ele><time>2026-04-26T13:33:02Z</time></trkpt><trkpt lat="41.050009550729314" lon="8.99823066399755"><ele>180.0</ele><time>2026-04-26T13:33:03Z</time></trkpt><trkpt lat="41.050100142784814" lon="8.998371668807255"><ele>180.0</ele><time>2026-04-26T13:33:04Z</time></trkpt><trkpt lat="41.050191018981266" lon="8.998513643956016"><ele>180.0</ele><time>2026-04-26T13:33:05Z</time></trkpt><trkpt lat="41.05028058476491" lon="8.998656070615809"><ele>180.0</ele><time>2026-04-26T13:33:06Z</time></trkpt><trkpt lat="41.050368466446116" lon="8.998797177681832"><ele>180.0</ele><time>2026-04-26T13:33:07Z</time></trkpt><trkpt lat="41.050460661521875" lon="8.998943952682543"><ele>180.0</ele><time>2026-04-26T13:33:08Z</time></trkpt><trkpt lat="41.050557144652615" lon="8.99910833715837"><ele>180.0</ele><time>2026-04-26T13:33:09Z</time></trkpt><trkpt lat="41.050651186846814" lon="8.999284791128554"><ele>180.0</ele><time>2026-04-26T13:33:10Z</time></trkpt><trkpt lat="41.050740672680355" lon="8.999463709899553"><ele>180.0</ele><time>2026-04-26T13:33:11Z</time></trkpt><trkpt lat="41.05083086996495" lon="8.999647803906377"><ele>180.0</ele><time>2026-04-26T13:33:12Z</time></trkpt><trkpt lat="41.050930599978685" lon="8.999841403327823"><ele>179.0</ele><time>2026-04-26T13:33:13Z</time></trkpt><trkpt lat="41.05103823424293" lon="9.000050931287632"><ele>178.0</ele><time>2026-04-26T13:33:14Z</time></trkpt><trkpt lat="41.051145587447785" lon="9.000294681851598"><ele>177.0</ele><time>2026-04-26T13:33:15Z</time></trkpt><trkpt lat="41.051272651502686" lon="9.000554052779245"><ele>177.0</ele><time>2026-04-26T13:33:16Z</time></trkpt><trkpt lat="41.05141105619167" lon="9.000810454626162"><ele>177.0</ele><time>2026-04-26T13:33:17Z</time></trkpt><trkpt lat="41.05153881319081" lon="9.001096673149906"><ele>176.5</ele><time>2026-04-26T13:33:18Z</time></trkpt><trkpt lat="41.05167477754809" lon="9.001389390003606"><ele>176.0</ele><time>2026-04-26T13:33:19Z</time></trkpt><trkpt lat="41.051816401362224" lon="9.001681589403898"><ele>175.5</ele><time>2026-04-26T13:33:20Z</time></trkpt><trkpt lat="41.051951692907686" lon="9.001957654980524"><ele>175.0</ele><time>2026-04-26T13:33:21Z</time></trkpt><trkpt lat="41.052077333905785" lon="9.002216447166042"><ele>175.0</ele><time>2026-04-26T13:33:22Z</time></trkpt><trkpt lat="41.052195436252624" lon="9.002465441615646"><ele>175.0</ele><time>2026-04-26T13:33:23Z</time></trkpt><trkpt lat="41.05230994887289" lon="9.002706077738347"><ele>175.0</ele><time>2026-04-26T13:33:24Z</time></trkpt><trkpt lat="41.05242632942831" lon="9.002948614681559"><ele>173.66666666666669</ele><time>2026-04-26T13:33:25Z</time></trkpt><trkpt lat="41.05254068334237" lon="9.003184002314008"><ele>172.33333333333334</ele><time>2026-04-26T13:33:26Z</time></trkpt><trkpt lat="41.05265453288181" lon="9.003415373693455"><ele>171.0</ele><time>2026-04-26T13:33:27Z</time></trkpt><trkpt lat="41.05276601497837" lon="9.003641762311036"><ele>171.0</ele><time>2026-04-26T13:33:28Z</time></trkpt><trkpt lat="41.0528743926385" lon="9.003868094402655"><ele>171.0</ele><time>2026-04-26T13:33:29Z</time></trkpt><trkpt lat="41.052978778687795" lon="9.004085595111762"><ele>171.0</ele><time>2026-04-26T13:33:30Z</time></trkpt><trkpt lat="41.05308111109616" lon="9.004283023993612"><ele>171.66666666666666</ele><time>2026-04-26T13:33:31Z</time></trkpt><trkpt lat="41.053189964972354" lon="9.00445262485155"><ele>172.33333333333331</ele><time>2026-04-26T13:33:32Z</time></trkpt><trkpt lat="41.05331722251661" lon="9.004588532363416"><ele>173.0</ele><time>2026-04-26T13:33:33Z</time></trkpt><trkpt lat="41.05346864991397" lon="9.004700609010127"><ele>173.0</ele><time>2026-04-26T13:33:34Z</time></trkpt><trkpt lat="41.053641130161466" lon="9.004780951280654"><ele>173.0</ele><time>2026-04-26T13:33:35Z</time></trkpt><trkpt lat="41.0538443469383" lon="9.00484380551939"><ele>173.0</ele><time>2026-04-26T13:33:36Z</time></trkpt><trkpt lat="41.054060487416564" lon="9.004906904020398"><ele>173.0</ele><time>2026-04-26T13:33:37Z</time></trkpt><trkpt lat="41.054279027906226" lon="9.004981027879722"><ele>173.0</ele><time>2026-04-26T13:33:38Z</time></trkpt><trkpt lat="41.05448281419228" lon="9.005051185363296"><ele>173.0</ele><time>2026-04-26T13:33:39Z</time></trkpt><trkpt lat="41.05467199704551" lon="9.005114752957278"><ele>173.0</ele><time>2026-04-26T13:33:40Z</time></trkpt><trkpt lat="41.05485909011909" lon="9.005177914795633"><ele>173.0</ele><time>2026-04-26T13:33:41Z</time></trkpt><trkpt lat="41.05504695872902" lon="9.005242230099467"><ele>173.0</ele><time>2026-04-26T13:33:42Z</time></trkpt><trkpt lat="41.05523693644221" lon="9.005309407580741"><ele>172.0</ele><time>2026-04-26T13:33:43Z</time></trkpt><trkpt lat="41.05543222701367" lon="9.005377417027097"><ele>171.0</ele><time>2026-04-26T13:33:44Z</time></trkpt><trkpt lat="41.05563019788781" lon="9.005442548058511"><ele>170.0</ele><time>2026-04-26T13:33:45Z</time></trkpt><trkpt lat="41.05583233866882" lon="9.005507946186624"><ele>169.66666666666666</ele><time>2026-04-26T13:33:46Z</time></trkpt><trkpt lat="41.05603236856265" lon="9.005573083482744"><ele>169.33333333333334</ele><time>2026-04-26T13:33:47Z</time></trkpt><trkpt lat="41.05623333540786" lon="9.005634562844293"><ele>169.0</ele><time>2026-04-26T13:33:48Z</time></trkpt><trkpt lat="41.056450590244125" lon="9.005695412902439"><ele>168.0</ele><time>2026-04-26T13:33:49Z</time></trkpt><trkpt lat="41.05668165164209" lon="9.005751941206421"><ele>167.0</ele><time>2026-04-26T13:33:50Z</time></trkpt><trkpt lat="41.056922957812496" lon="9.005815067417384"><ele>167.5</ele><time>2026-04-26T13:33:51Z</time></trkpt><trkpt lat="41.05716857374348" lon="9.00588347827348"><ele>168.0</ele><time>2026-04-26T13:33:52Z</time></trkpt><trkpt lat="41.05742012315128" lon="9.005949934291174"><ele>167.5</ele><time>2026-04-26T13:33:53Z</time></trkpt><trkpt lat="41.057677181066325" lon="9.006018327474097"><ele>167.0</ele><time>2026-04-26T13:33:54Z</time></trkpt><trkpt lat="41.05792855319975" lon="9.00607785871518"><ele>167.0</ele><time>2026-04-26T13:33:55Z</time></trkpt><trkpt lat="41.058160624468705" lon="9.0061290864141"><ele>167.0</ele><time>2026-04-26T13:33:56Z</time></trkpt><trkpt lat="41.05839108186957" lon="9.006180224840445"><ele>165.5</ele><time>2026-04-26T13:33:57Z</time></trkpt><trkpt lat="41.05862378465003" lon="9.006233496817941"><ele>164.0</ele><time>2026-04-26T13:33:58Z</time></trkpt><trkpt lat="41.05885482640901" lon="9.006285350349723"><ele>164.0</ele><time>2026-04-26T13:33:59Z</time></trkpt><trkpt lat="41.05908639623451" lon="9.006338676493183"><ele>164.0</ele><time>2026-04-26T13:34:00Z</time></trkpt><trkpt lat="41.059315215762666" lon="9.006390719942507"><ele>164.0</ele><time>2026-04-26T13:34:01Z</time></trkpt><trkpt lat="41.059544742808434" lon="9.00644219873643"><ele>164.0</ele><time>2026-04-26T13:34:02Z</time></trkpt><trkpt lat="41.05977123229207" lon="9.006493863704705"><ele>162.5</ele><time>2026-04-26T13:34:03Z</time></trkpt><trkpt lat="41.059999162617665" lon="9.006544740935295"><ele>161.0</ele><time>2026-04-26T13:34:04Z</time></trkpt><trkpt lat="41.06024313989487" lon="9.006597926537612"><ele>161.0</ele><time>2026-04-26T13:34:05Z</time></trkpt><trkpt lat="41.06049675690774" lon="9.006651717825862"><ele>161.0</ele><time>2026-04-26T13:34:06Z</time></trkpt><trkpt lat="41.06074492574218" lon="9.006704385861982"><ele>160.5</ele><time>2026-04-26T13:34:07Z</time></trkpt><trkpt lat="41.060998588690616" lon="9.006759663404896"><ele>160.0</ele><time>2026-04-26T13:34:08Z</time></trkpt><trkpt lat="41.06124273688958" lon="9.006814832979487"><ele>160.0</ele><time>2026-04-26T13:34:09Z</time></trkpt><trkpt lat="41.06146983822603" lon="9.006866019015073"><ele>160.0</ele><time>2026-04-26T13:34:10Z</time></trkpt><trkpt lat="41.06168364429205" lon="9.006913922727344"><ele>160.0</ele><time>2026-04-26T13:34:11Z</time></trkpt><trkpt lat="41.06188956953375" lon="9.006957687990072"><ele>160.0</ele><time>2026-04-26T13:34:12Z</time></trkpt><trkpt lat="41.06208387901975" lon="9.006997275756095"><ele>160.0</ele><time>2026-04-26T13:34:13Z</time></trkpt><trkpt lat="41.062270412509925" lon="9.007036286246358"><ele>160.0</ele><time>2026-04-26T13:34:14Z</time></trkpt><trkpt lat="41.062450048967506" lon="9.007080979493923"><ele>159.0</ele><time>2026-04-26T13:34:15Z</time></trkpt><trkpt lat="41.062616842730165" lon="9.007131010379034"><ele>158.0</ele><time>2026-04-26T13:34:16Z</time></trkpt><trkpt lat="41.06276614552377" lon="9.007214933851863"><ele>157.0</ele><time>2026-04-26T13:34:17Z</time></trkpt><trkpt lat="41.062894915674434" lon="9.007334747798915"><ele>157.0</ele><time>2026-04-26T13:34:18Z</time></trkpt><trkpt lat="41.06301171470751" lon="9.0074851529201"><ele>157.0</ele><time>2026-04-26T13:34:19Z</time></trkpt><trkpt lat="41.06310458248549" lon="9.007664383135063"><ele>157.0</ele><time>2026-04-26T13:34:20Z</time></trkpt><trkpt lat="41.063171591570566" lon="9.007867896258368"><ele>157.33333333333334</ele><time>2026-04-26T13:34:21Z</time></trkpt><trkpt lat="41.06322023943404" lon="9.008098382675419"><ele>157.66666666666666</ele><time>2026-04-26T13:34:22Z</time></trkpt><trkpt lat="41.06325151214937" lon="9.008360510167654"><ele>158.0</ele><time>2026-04-26T13:34:23Z</time></trkpt><trkpt lat="41.06328574519597" lon="9.008643306857886"><ele>158.0</ele><time>2026-04-26T13:34:24Z</time></trkpt><trkpt lat="41.06332515237806" lon="9.008930668145016"><ele>158.0</ele><time>2026-04-26T13:34:25Z</time></trkpt><trkpt lat="41.06335930354192" lon="9.00918934111348"><ele>158.0</ele><time>2026-04-26T13:34:26Z</time></trkpt><trkpt lat="41.06338653832761" lon="9.009431345779577"><ele>159.0</ele><time>2026-04-26T13:34:27Z</time></trkpt><trkpt lat="41.06342189747093" lon="9.00969288597573"><ele>160.0</ele><time>2026-04-26T13:34:28Z</time></trkpt><trkpt lat="41.063462614947774" lon="9.009956081616318"><ele>161.0</ele><time>2026-04-26T13:34:29Z</time></trkpt><trkpt lat="41.0634962206687" lon="9.010199812451415"><ele>161.33333333333331</ele><time>2026-04-26T13:34:30Z</time></trkpt><trkpt lat="41.063525015496225" lon="9.010409841795184"><ele>161.66666666666666</ele><time>2026-04-26T13:34:31Z</time></trkpt><trkpt lat="41.06357581596885" lon="9.010593020584533"><ele>162.0</ele><time>2026-04-26T13:34:32Z</time></trkpt><trkpt lat="41.06366611874644" lon="9.01077090016326"><ele>161.66666666666666</ele><time>2026-04-26T13:34:33Z</time></trkpt><trkpt lat="41.06379856701682" lon="9.010945293182854"><ele>161.33333333333331</ele><time>2026-04-26T13:34:34Z</time></trkpt><trkpt lat="41.06395397566853" lon="9.01113618197563"><ele>161.0</ele><time>2026-04-26T13:34:35Z</time></trkpt><trkpt lat="41.06410852196259" lon="9.011351663490524"><ele>158.0</ele><time>2026-04-26T13:34:36Z</time></trkpt><trkpt lat="41.06426857637907" lon="9.011584064430757"><ele>155.0</ele><time>2026-04-26T13:34:37Z</time></trkpt><trkpt lat="41.064434781193135" lon="9.011827781685305"><ele>155.0</ele><time>2026-04-26T13:34:38Z</time></trkpt><trkpt lat="41.064591660438836" lon="9.01206128524907"><ele>155.0</ele><time>2026-04-26T13:34:39Z</time></trkpt><trkpt lat="41.064739107032665" lon="9.012278274561934"><ele>155.0</ele><time>2026-04-26T13:34:40Z</time></trkpt><trkpt lat="41.0648787331794" lon="9.012483652023608"><ele>155.0</ele><time>2026-04-26T13:34:41Z</time></trkpt><trkpt lat="41.065008509913156" lon="9.01268043589366"><ele>155.0</ele><time>2026-04-26T13:34:42Z</time></trkpt><trkpt lat="41.06514755608708" lon="9.012889808359049"><ele>154.0</ele><time>2026-04-26T13:34:43Z</time></trkpt><trkpt lat="41.06530299768036" lon="9.013117994885807"><ele>153.0</ele><time>2026-04-26T13:34:44Z</time></trkpt><trkpt lat="41.06546770823713" lon="9.013354604836302"><ele>153.0</ele><time>2026-04-26T13:34:45Z</time></trkpt><trkpt lat="41.06563217548053" lon="9.01359796439037"><ele>153.0</ele><time>2026-04-26T13:34:46Z</time></trkpt><trkpt lat="41.06578400907637" lon="9.013825469215615"><ele>154.66666666666666</ele><time>2026-04-26T13:34:47Z</time></trkpt><trkpt lat="41.06592392892906" lon="9.01402736419553"><ele>156.33333333333331</ele><time>2026-04-26T13:34:48Z</time></trkpt><trkpt lat="41.06606823886068" lon="9.014199455333829"><ele>158.0</ele><time>2026-04-26T13:34:49Z</time></trkpt><trkpt lat="41.066220742193586" lon="9.014316224319138"><ele>158.0</ele><time>2026-04-26T13:34:50Z</time></trkpt><trkpt lat="41.06638421906186" lon="9.014389917095015"><ele>158.0</ele><time>2026-04-26T13:34:51Z</time></trkpt><trkpt lat="41.06657073371639" lon="9.01443400380211"><ele>158.0</ele><time>2026-04-26T13:34:52Z</time></trkpt><trkpt lat="41.06678387591889" lon="9.014454085111431"><ele>158.5</ele><time>2026-04-26T13:34:53Z</time></trkpt><trkpt lat="41.06700822754329" lon="9.014478769295263"><ele>159.0</ele><time>2026-04-26T13:34:54Z</time></trkpt><trkpt lat="41.067241934639284" lon="9.014520890054518"><ele>158.0</ele><time>2026-04-26T13:34:55Z</time></trkpt><trkpt lat="41.06748390224975" lon="9.01456508151183"><ele>157.0</ele><time>2026-04-26T13:34:56Z</time></trkpt><trkpt lat="41.06773379648498" lon="9.014611489029628"><ele>157.0</ele><time>2026-04-26T13:34:57Z</time></trkpt><trkpt lat="41.06799067133467" lon="9.014659132752922"><ele>157.0</ele><time>2026-04-26T13:34:58Z</time></trkpt><trkpt lat="41.06824027515362" lon="9.014707518215486"><ele>156.0</ele><time>2026-04-26T13:34:59Z</time></trkpt><trkpt lat="41.06847579480566" lon="9.01474953743861"><ele>155.0</ele><time>2026-04-26T13:35:00Z</time></trkpt><trkpt lat="41.06869526937749" lon="9.014789310517628"><ele>155.0</ele><time>2026-04-26T13:35:01Z</time></trkpt><trkpt lat="41.06890631550778" lon="9.014828011647657"><ele>155.0</ele><time>2026-04-26T13:35:02Z</time></trkpt><trkpt lat="41.06911127153356" lon="9.01486060365512"><ele>155.0</ele><time>2026-04-26T13:35:03Z</time></trkpt><trkpt lat="41.06931000014082" lon="9.014884280502104"><ele>154.33333333333331</ele><time>2026-04-26T13:35:04Z</time></trkpt><trkpt lat="41.06951258045742" lon="9.014898058147713"><ele>153.66666666666666</ele><time>2026-04-26T13:35:05Z</time></trkpt><trkpt lat="41.06973682850987" lon="9.01490180330844"><ele>153.0</ele><time>2026-04-26T13:35:06Z</time></trkpt><trkpt lat="41.06997696062452" lon="9.014913961301952"><ele>152.5</ele><time>2026-04-26T13:35:07Z</time></trkpt><trkpt lat="41.070221056305726" lon="9.014939310957041"><ele>152.0</ele><time>2026-04-26T13:35:08Z</time></trkpt><trkpt lat="41.070477717728856" lon="9.014974676763023"><ele>152.0</ele><time>2026-04-26T13:35:09Z</time></trkpt><trkpt lat="41.07072079439657" lon="9.01500537135707"><ele>152.0</ele><time>2026-04-26T13:35:10Z</time></trkpt><trkpt lat="41.07094702521291" lon="9.015027307242182"><ele>150.66666666666666</ele><time>2026-04-26T13:35:11Z</time></trkpt><trkpt lat="41.07116332952756" lon="9.01504597444943"><ele>149.33333333333334</ele><time>2026-04-26T13:35:12Z</time></trkpt><trkpt lat="41.07137482174433" lon="9.015062115802644"><ele>148.0</ele><time>2026-04-26T13:35:13Z</time></trkpt><trkpt lat="41.07156977218775" lon="9.01507908255081"><ele>147.66666666666669</ele><time>2026-04-26T13:35:14Z</time></trkpt><trkpt lat="41.07174190692006" lon="9.015109062552568"><ele>147.33333333333334</ele><time>2026-04-26T13:35:15Z</time></trkpt><trkpt lat="41.07190313313324" lon="9.015177335636954"><ele>147.0</ele><time>2026-04-26T13:35:16Z</time></trkpt><trkpt lat="41.072059022142696" lon="9.015296052436197"><ele>147.0</ele><time>2026-04-26T13:35:17Z</time></trkpt><trkpt lat="41.0722247670315" lon="9.01546343843358"><ele>147.0</ele><time>2026-04-26T13:35:18Z</time></trkpt><trkpt lat="41.072404872542315" lon="9.015642229959342"><ele>147.0</ele><time>2026-04-26T13:35:19Z</time></trkpt><trkpt lat="41.07259832333461" lon="9.01581913648923"><ele>146.66666666666666</ele><time>2026-04-26T13:35:20Z</time></trkpt><trkpt lat="41.07277839924091" lon="9.015987548284548"><ele>146.33333333333331</ele><time>2026-04-26T13:35:21Z</time></trkpt><trkpt lat="41.072945897998" lon="9.016146979685889"><ele>146.0</ele><time>2026-04-26T13:35:22Z</time></trkpt><trkpt lat="41.07311132796042" lon="9.016295675527024"><ele>145.33333333333331</ele><time>2026-04-26T13:35:23Z</time></trkpt><trkpt lat="41.07329071012663" lon="9.016434273791447"><ele>144.66666666666666</ele><time>2026-04-26T13:35:24Z</time></trkpt><trkpt lat="41.073496298246475" lon="9.016560391413396"><ele>144.0</ele><time>2026-04-26T13:35:25Z</time></trkpt><trkpt lat="41.07371573706446" lon="9.016680853844106"><ele>144.0</ele><time>2026-04-26T13:35:26Z</time></trkpt><trkpt lat="41.07393727368792" lon="9.016804176837894"><ele>144.0</ele><time>2026-04-26T13:35:27Z</time></trkpt><trkpt lat="41.07413935781135" lon="9.016917768481418"><ele>143.33333333333334</ele><time>2026-04-26T13:35:28Z</time></trkpt><trkpt lat="41.074337169187025" lon="9.017013266081676"><ele>142.66666666666669</ele><time>2026-04-26T13:35:29Z</time></trkpt><trkpt lat="41.07453995723029" lon="9.017093496610766"><ele>142.0</ele><time>2026-04-26T13:35:30Z</time></trkpt><trkpt lat="41.074768120996524" lon="9.017157334633135"><ele>141.0</ele><time>2026-04-26T13:35:31Z</time></trkpt><trkpt lat="41.07501318261456" lon="9.017212035563833"><ele>140.0</ele><time>2026-04-26T13:35:32Z</time></trkpt><trkpt lat="41.07526748913984" lon="9.017272047386625"><ele>140.0</ele><time>2026-04-26T13:35:33Z</time></trkpt><trkpt lat="41.07553219098661" lon="9.017339603372994"><ele>140.0</ele><time>2026-04-26T13:35:34Z</time></trkpt><trkpt lat="41.07580357509607" lon="9.017411291745303"><ele>138.0</ele><time>2026-04-26T13:35:35Z</time></trkpt><trkpt lat="41.076080012642706" lon="9.017483604513815"><ele>136.0</ele><time>2026-04-26T13:35:36Z</time></trkpt><trkpt lat="41.07633638216772" lon="9.017548814240058"><ele>135.5</ele><time>2026-04-26T13:35:37Z</time></trkpt><trkpt lat="41.07657767038772" lon="9.017612238761354"><ele>135.0</ele><time>2026-04-26T13:35:38Z</time></trkpt><trkpt lat="41.07680820849267" lon="9.017676365117264"><ele>134.66666666666666</ele><time>2026-04-26T13:35:39Z</time></trkpt><trkpt lat="41.077029210350176" lon="9.017739970249567"><ele>134.33333333333331</ele><time>2026-04-26T13:35:40Z</time></trkpt><trkpt lat="41.07724173927424" lon="9.017803710530568"><ele>134.0</ele><time>2026-04-26T13:35:41Z</time></trkpt><trkpt lat="41.07745192065478" lon="9.017867068839392"><ele>133.33333333333331</ele><time>2026-04-26T13:35:42Z</time></trkpt><trkpt lat="41.07765861961504" lon="9.017930385229135"><ele>132.66666666666666</ele><time>2026-04-26T13:35:43Z</time></trkpt><trkpt lat="41.07786236297196" lon="9.01799423013607"><ele>132.0</ele><time>2026-04-26T13:35:44Z</time></trkpt><trkpt lat="41.07805858844872" lon="9.018052273556187"><ele>132.0</ele><time>2026-04-26T13:35:45Z</time></trkpt><trkpt lat="41.07824987113372" lon="9.018097740616234"><ele>132.0</ele><time>2026-04-26T13:35:46Z</time></trkpt><trkpt lat="41.078438169995174" lon="9.018111364094095"><ele>132.0</ele><time>2026-04-26T13:35:47Z</time></trkpt><trkpt lat="41.07864812636696" lon="9.018102096524414"><ele>131.5</ele><time>2026-04-26T13:35:48Z</time></trkpt><trkpt lat="41.078880900097936" lon="9.018072305260526"><ele>131.0</ele><time>2026-04-26T13:35:49Z</time></trkpt><trkpt lat="41.07911051301041" lon="9.018052983568131"><ele>128.66666666666666</ele><time>2026-04-26T13:35:50Z</time></trkpt><trkpt lat="41.079322560363" lon="9.018039130226672"><ele>126.33333333333334</ele><time>2026-04-26T13:35:51Z</time></trkpt><trkpt lat="41.07952483275543" lon="9.01802622395394"><ele>124.0</ele><time>2026-04-26T13:35:52Z</time></trkpt><trkpt lat="41.07972120706453" lon="9.01800924463258"><ele>124.0</ele><time>2026-04-26T13:35:53Z</time></trkpt><trkpt lat="41.07991554154069" lon="9.017991968846777"><ele>124.0</ele><time>2026-04-26T13:35:54Z</time></trkpt><trkpt lat="41.08011066984454" lon="9.017973453381892"><ele>124.0</ele><time>2026-04-26T13:35:55Z</time></trkpt><trkpt lat="41.08029663439244" lon="9.017957407229762"><ele>122.66666666666667</ele><time>2026-04-26T13:35:56Z</time></trkpt><trkpt lat="41.08045717054835" lon="9.017949858339836"><ele>121.33333333333334</ele><time>2026-04-26T13:35:57Z</time></trkpt><trkpt lat="41.08060791175941" lon="9.017954326684945"><ele>120.0</ele><time>2026-04-26T13:35:58Z</time></trkpt><trkpt lat="41.08075663726191" lon="9.017987162907216"><ele>118.33333333333334</ele><time>2026-04-26T13:35:59Z</time></trkpt><trkpt lat="41.08089817700397" lon="9.018057444794916"><ele>116.66666666666667</ele><time>2026-04-26T13:36:00Z</time></trkpt><trkpt lat="41.08102735644441" lon="9.018160913075853"><ele>115.0</ele><time>2026-04-26T13:36:01Z</time></trkpt><trkpt lat="41.081149859756685" lon="9.018294896593813"><ele>114.33333333333334</ele><time>2026-04-26T13:36:02Z</time></trkpt><trkpt lat="41.08126406538" lon="9.018460849550408"><ele>113.66666666666666</ele><time>2026-04-26T13:36:03Z</time></trkpt><trkpt lat="41.08139077700961" lon="9.018656034606806"><ele>113.0</ele><time>2026-04-26T13:36:04Z</time></trkpt><trkpt lat="41.081542173901404" lon="9.018855926649197"><ele>111.5</ele><time>2026-04-26T13:36:05Z</time></trkpt><trkpt lat="41.0817094786041" lon="9.019075968867035"><ele>110.0</ele><time>2026-04-26T13:36:06Z</time></trkpt><trkpt lat="41.08188211046651" lon="9.019308384452438"><ele>109.0</ele><time>2026-04-26T13:36:07Z</time></trkpt><trkpt lat="41.08206512682385" lon="9.019555960107866"><ele>108.0</ele><time>2026-04-26T13:36:08Z</time></trkpt><trkpt lat="41.08225493395265" lon="9.019808794870583"><ele>106.0</ele><time>2026-04-26T13:36:09Z</time></trkpt><trkpt lat="41.082438572203486" lon="9.020049752902423"><ele>104.0</ele><time>2026-04-26T13:36:10Z</time></trkpt><trkpt lat="41.082609133092106" lon="9.02027751943974"><ele>104.0</ele><time>2026-04-26T13:36:11Z</time></trkpt><trkpt lat="41.08277193344089" lon="9.020496173726327"><ele>104.0</ele><time>2026-04-26T13:36:12Z</time></trkpt><trkpt lat="41.08292650280609" lon="9.02070595278629"><ele>103.0</ele><time>2026-04-26T13:36:13Z</time></trkpt><trkpt lat="41.083075228935705" lon="9.020902884499968"><ele>102.0</ele><time>2026-04-26T13:36:14Z</time></trkpt><trkpt lat="41.08321999845104" lon="9.021093384450644"><ele>101.0</ele><time>2026-04-26T13:36:15Z</time></trkpt><trkpt lat="41.08335287743445" lon="9.021269639489827"><ele>101.0</ele><time>2026-04-26T13:36:16Z</time></trkpt><trkpt lat="41.083483994347866" lon="9.021441604908748"><ele>101.0</ele><time>2026-04-26T13:36:17Z</time></trkpt><trkpt lat="41.08360084784685" lon="9.021604869288982"><ele>101.0</ele><time>2026-04-26T13:36:18Z</time></trkpt><trkpt lat="41.08370542645007" lon="9.021779205079804"><ele>101.66666666666666</ele><time>2026-04-26T13:36:19Z</time></trkpt><trkpt lat="41.08379554918636" lon="9.021978670102097"><ele>102.33333333333334</ele><time>2026-04-26T13:36:20Z</time></trkpt><trkpt lat="41.08386350185883" lon="9.022205152823302"><ele>103.0</ele><time>2026-04-26T13:36:21Z</time></trkpt><trkpt lat="41.08391518099808" lon="9.022464680513291"><ele>101.33333333333334</ele><time>2026-04-26T13:36:22Z</time></trkpt><trkpt lat="41.083959891491595" lon="9.022753831533558"><ele>99.66666666666666</ele><time>2026-04-26T13:36:23Z</time></trkpt><trkpt lat="41.08400729130156" lon="9.023020517107879"><ele>98.0</ele><time>2026-04-26T13:36:24Z</time></trkpt><trkpt lat="41.08405116274804" lon="9.02326176339646"><ele>99.33333333333333</ele><time>2026-04-26T13:36:25Z</time></trkpt><trkpt lat="41.08409897584948" lon="9.023486273440662"><ele>100.66666666666666</ele><time>2026-04-26T13:36:26Z</time></trkpt><trkpt lat="41.08417131769006" lon="9.023686113717442"><ele>102.0</ele><time>2026-04-26T13:36:27Z</time></trkpt><trkpt lat="41.0842786273109" lon="9.023863236601793"><ele>102.0</ele><time>2026-04-26T13:36:28Z</time></trkpt><trkpt lat="41.08442361258334" lon="9.02403620618957"><ele>102.0</ele><time>2026-04-26T13:36:29Z</time></trkpt><trkpt lat="41.0845939886959" lon="9.024208664261868"><ele>102.0</ele><time>2026-04-26T13:36:30Z</time></trkpt><trkpt lat="41.084770651063195" lon="9.024401879347755"><ele>103.5</ele><time>2026-04-26T13:36:31Z</time></trkpt><trkpt lat="41.08495050900704" lon="9.024607615312624"><ele>105.0</ele><time>2026-04-26T13:36:32Z</time></trkpt><trkpt lat="41.08513989394055" lon="9.024816186420551"><ele>103.5</ele><time>2026-04-26T13:36:33Z</time></trkpt><trkpt lat="41.08534733134288" lon="9.025016292755693"><ele>102.0</ele><time>2026-04-26T13:36:34Z</time></trkpt><trkpt lat="41.08556907765041" lon="9.025207855658623"><ele>102.0</ele><time>2026-04-26T13:36:35Z</time></trkpt><trkpt lat="41.08580190730539" lon="9.025400223101952"><ele>102.0</ele><time>2026-04-26T13:36:36Z</time></trkpt><trkpt lat="41.08602388616182" lon="9.025590006193534"><ele>102.0</ele><time>2026-04-26T13:36:37Z</time></trkpt><trkpt lat="41.086228036937" lon="9.025768986083529"><ele>102.0</ele><time>2026-04-26T13:36:38Z</time></trkpt><trkpt lat="41.08642140719415" lon="9.025937489154224"><ele>101.0</ele><time>2026-04-26T13:36:39Z</time></trkpt><trkpt lat="41.086606258645936" lon="9.026095550537768"><ele>100.0</ele><time>2026-04-26T13:36:40Z</time></trkpt><trkpt lat="41.08678425190707" lon="9.026246513969797"><ele>99.0</ele><time>2026-04-26T13:36:41Z</time></trkpt><trkpt lat="41.08695341375331" lon="9.026394288417588"><ele>99.0</ele><time>2026-04-26T13:36:42Z</time></trkpt><trkpt lat="41.0871184671259" lon="9.026530131786128"><ele>99.0</ele><time>2026-04-26T13:36:43Z</time></trkpt><trkpt lat="41.08729101546103" lon="9.026633818080912"><ele>99.0</ele><time>2026-04-26T13:36:44Z</time></trkpt><trkpt lat="41.08749872351491" lon="9.026718979439014"><ele>98.5</ele><time>2026-04-26T13:36:45Z</time></trkpt><trkpt lat="41.08772918077062" lon="9.026800372019029"><ele>98.0</ele><time>2026-04-26T13:36:46Z</time></trkpt><trkpt lat="41.087961839704676" lon="9.026893088857598"><ele>98.0</ele><time>2026-04-26T13:36:47Z</time></trkpt><trkpt lat="41.08817480094148" lon="9.02698424541933"><ele>98.0</ele><time>2026-04-26T13:36:48Z</time></trkpt><trkpt lat="41.088378366544234" lon="9.02707186987658"><ele>98.0</ele><time>2026-04-26T13:36:49Z</time></trkpt><trkpt lat="41.08855777858054" lon="9.027147035914226"><ele>97.66666666666666</ele><time>2026-04-26T13:36:50Z</time></trkpt><trkpt lat="41.08871016185769" lon="9.027204944184595"><ele>97.33333333333334</ele><time>2026-04-26T13:36:51Z</time></trkpt><trkpt lat="41.088864737911194" lon="9.027237370894156"><ele>97.0</ele><time>2026-04-26T13:36:52Z</time></trkpt><trkpt lat="41.08902658769871" lon="9.027237077650797"><ele>95.66666666666667</ele><time>2026-04-26T13:36:53Z</time></trkpt><trkpt lat="41.089205668247125" lon="9.027196230025904"><ele>94.33333333333334</ele><time>2026-04-26T13:36:54Z</time></trkpt><trkpt lat="41.089407651846706" lon="9.027123456232827"><ele>93.0</ele><time>2026-04-26T13:36:55Z</time></trkpt><trkpt lat="41.089626293343755" lon="9.027043183417312"><ele>93.0</ele><time>2026-04-26T13:36:56Z</time></trkpt><trkpt lat="41.089840349329435" lon="9.026972966823642"><ele>93.0</ele><time>2026-04-26T13:36:57Z</time></trkpt><trkpt lat="41.090039178906096" lon="9.026910335095964"><ele>93.0</ele><time>2026-04-26T13:36:58Z</time></trkpt><trkpt lat="41.09022999630723" lon="9.026850098332302"><ele>90.66666666666667</ele><time>2026-04-26T13:36:59Z</time></trkpt><trkpt lat="41.09040594207142" lon="9.026793163990632"><ele>88.33333333333334</ele><time>2026-04-26T13:37:00Z</time></trkpt><trkpt lat="41.09056302235319" lon="9.026749844379026"><ele>86.0</ele><time>2026-04-26T13:37:01Z</time></trkpt><trkpt lat="41.090717289200384" lon="9.026740993760784"><ele>84.66666666666667</ele><time>2026-04-26T13:37:02Z</time></trkpt><trkpt lat="41.09087436970232" lon="9.026774711891374"><ele>83.33333333333333</ele><time>2026-04-26T13:37:03Z</time></trkpt><trkpt lat="41.09105146346117" lon="9.026847397122104"><ele>82.0</ele><time>2026-04-26T13:37:04Z</time></trkpt><trkpt lat="41.09124602958782" lon="9.026971319165938"><ele>82.0</ele><time>2026-04-26T13:37:05Z</time></trkpt><trkpt lat="41.09146123266414" lon="9.027092267540713"><ele>82.0</ele><time>2026-04-26T13:37:06Z</time></trkpt><trkpt lat="41.09168927050877" lon="9.027207764370157"><ele>81.0</ele><time>2026-04-26T13:37:07Z</time></trkpt><trkpt lat="41.09191528486835" lon="9.027324347754412"><ele>80.0</ele><time>2026-04-26T13:37:08Z</time></trkpt><trkpt lat="41.09212428521123" lon="9.027429764799072"><ele>78.33333333333334</ele><time>2026-04-26T13:37:09Z</time></trkpt><trkpt lat="41.09232148852148" lon="9.027530296144164"><ele>76.66666666666667</ele><time>2026-04-26T13:37:10Z</time></trkpt><trkpt lat="41.09251432536075" lon="9.02763403775703"><ele>75.0</ele><time>2026-04-26T13:37:11Z</time></trkpt><trkpt lat="41.092694521236304" lon="9.027750231219034"><ele>74.0</ele><time>2026-04-26T13:37:12Z</time></trkpt><trkpt lat="41.092861874977835" lon="9.027891221991354"><ele>73.0</ele><time>2026-04-26T13:37:13Z</time></trkpt><trkpt lat="41.093026905435345" lon="9.028078327448116"><ele>72.0</ele><time>2026-04-26T13:37:14Z</time></trkpt><trkpt lat="41.093198423814755" lon="9.028298399750529"><ele>68.0</ele><time>2026-04-26T13:37:15Z</time></trkpt><trkpt lat="41.093382363998444" lon="9.028530653000145"><ele>64.0</ele><time>2026-04-26T13:37:16Z</time></trkpt><trkpt lat="41.09357300082218" lon="9.02876221057763"><ele>64.0</ele><time>2026-04-26T13:37:17Z</time></trkpt><trkpt lat="41.09375053943136" lon="9.028981496025008"><ele>64.0</ele><time>2026-04-26T13:37:18Z</time></trkpt><trkpt lat="41.09391529156528" lon="9.02918277946026"><ele>64.0</ele><time>2026-04-26T13:37:19Z</time></trkpt><trkpt lat="41.09407785375489" lon="9.029379658853792"><ele>64.0</ele><time>2026-04-26T13:37:20Z</time></trkpt><trkpt lat="41.094244540744" lon="9.02958496684764"><ele>64.0</ele><time>2026-04-26T13:37:21Z</time></trkpt><trkpt lat="41.09442445080728" lon="9.029802763685801"><ele>64.5</ele><time>2026-04-26T13:37:22Z</time></trkpt><trkpt lat="41.0946139962003" lon="9.030029368447611"><ele>65.0</ele><time>2026-04-26T13:37:23Z</time></trkpt><trkpt lat="41.09479908947403" lon="9.030257791998132"><ele>64.5</ele><time>2026-04-26T13:37:24Z</time></trkpt><trkpt lat="41.09496796643378" lon="9.030471485863607"><ele>64.0</ele><time>2026-04-26T13:37:25Z</time></trkpt><trkpt lat="41.095132214265334" lon="9.03067451117953"><ele>63.33333333333333</ele><time>2026-04-26T13:37:26Z</time></trkpt><trkpt lat="41.09529733252528" lon="9.030877975126002"><ele>62.66666666666667</ele><time>2026-04-26T13:37:27Z</time></trkpt><trkpt lat="41.095455603899765" lon="9.031071713267739"><ele>62.0</ele><time>2026-04-26T13:37:28Z</time></trkpt><trkpt lat="41.09560497331447" lon="9.03125574894483"><ele>62.0</ele><time>2026-04-26T13:37:29Z</time></trkpt><trkpt lat="41.09574980380933" lon="9.031429572045779"><ele>62.0</ele><time>2026-04-26T13:37:30Z</time></trkpt><trkpt lat="41.09589706653499" lon="9.031580313789384"><ele>62.0</ele><time>2026-04-26T13:37:31Z</time></trkpt><trkpt lat="41.09605733249706" lon="9.031697536891391"><ele>62.0</ele><time>2026-04-26T13:37:32Z</time></trkpt><trkpt lat="41.09624180669168" lon="9.031797779958778"><ele>62.0</ele><time>2026-04-26T13:37:33Z</time></trkpt><trkpt lat="41.09645195083291" lon="9.031899608232434"><ele>62.0</ele><time>2026-04-26T13:37:34Z</time></trkpt><trkpt lat="41.096669775024104" lon="9.032009110427266"><ele>61.0</ele><time>2026-04-26T13:37:35Z</time></trkpt><trkpt lat="41.09687725769259" lon="9.032119850406318"><ele>60.0</ele><time>2026-04-26T13:37:36Z</time></trkpt><trkpt lat="41.097066924568885" lon="9.032221510607426"><ele>59.0</ele><time>2026-04-26T13:37:37Z</time></trkpt><trkpt lat="41.09724735364259" lon="9.032319279749531"><ele>59.0</ele><time>2026-04-26T13:37:38Z</time></trkpt><trkpt lat="41.09742372092156" lon="9.03242248446418"><ele>59.0</ele><time>2026-04-26T13:37:39Z</time></trkpt><trkpt lat="41.09759243312682" lon="9.03252960315919"><ele>59.0</ele><time>2026-04-26T13:37:40Z</time></trkpt><trkpt lat="41.097752316219186" lon="9.032674119454432"><ele>58.5</ele><time>2026-04-26T13:37:41Z</time></trkpt><trkpt lat="41.097916171033496" lon="9.032865441510507"><ele>58.0</ele><time>2026-04-26T13:37:42Z</time></trkpt><trkpt lat="41.09808149976341" lon="9.033083965246373"><ele>56.0</ele><time>2026-04-26T13:37:43Z</time></trkpt><trkpt lat="41.09825622790349" lon="9.033312534629319"><ele>54.0</ele><time>2026-04-26T13:37:44Z</time></trkpt><trkpt lat="41.09844143535794" lon="9.033542423384564"><ele>54.0</ele><time>2026-04-26T13:37:45Z</time></trkpt><trkpt lat="41.09863114859374" lon="9.033782394261143"><ele>54.0</ele><time>2026-04-26T13:37:46Z</time></trkpt><trkpt lat="41.098814496240465" lon="9.03401855351207"><ele>53.66666666666667</ele><time>2026-04-26T13:37:47Z</time></trkpt><trkpt lat="41.098983678872756" lon="9.034232344808293"><ele>53.333333333333336</ele><time>2026-04-26T13:37:48Z</time></trkpt><trkpt lat="41.09912766630934" lon="9.03442497448077"><ele>53.0</ele><time>2026-04-26T13:37:49Z</time></trkpt><trkpt lat="41.09924938253053" lon="9.034630442954478"><ele>53.66666666666667</ele><time>2026-04-26T13:37:50Z</time></trkpt><trkpt lat="41.09934135850156" lon="9.03486057732206"><ele>54.33333333333333</ele><time>2026-04-26T13:37:51Z</time></trkpt><trkpt lat="41.09940669886852" lon="9.035116958907722"><ele>55.0</ele><time>2026-04-26T13:37:52Z</time></trkpt><trkpt lat="41.09945885665697" lon="9.035405303823794"><ele>55.0</ele><time>2026-04-26T13:37:53Z</time></trkpt><trkpt lat="41.09951046984375" lon="9.035714185757561"><ele>55.0</ele><time>2026-04-26T13:37:54Z</time></trkpt><trkpt lat="41.09956860754286" lon="9.0360365850653"><ele>55.0</ele><time>2026-04-26T13:37:55Z</time></trkpt><trkpt lat="41.0996307818884" lon="9.036366408235269"><ele>55.0</ele><time>2026-04-26T13:37:56Z</time></trkpt><trkpt lat="41.099686787926984" lon="9.036677910914639"><ele>55.0</ele><time>2026-04-26T13:37:57Z</time></trkpt><trkpt lat="41.09973272131882" lon="9.036970392598091"><ele>55.0</ele><time>2026-04-26T13:37:58Z</time></trkpt><trkpt lat="41.099768886101614" lon="9.037266081814048"><ele>54.5</ele><time>2026-04-26T13:37:59Z</time></trkpt><trkpt lat="41.09979618768718" lon="9.037564922087572"><ele>54.0</ele><time>2026-04-26T13:38:00Z</time></trkpt><trkpt lat="41.099816951164954" lon="9.037862249416252"><ele>54.0</ele><time>2026-04-26T13:38:01Z</time></trkpt><trkpt lat="41.099839832922186" lon="9.038153907982391"><ele>54.0</ele><time>2026-04-26T13:38:02Z</time></trkpt><trkpt lat="41.099864620714186" lon="9.03844180344212"><ele>54.0</ele><time>2026-04-26T13:38:03Z</time></trkpt><trkpt lat="41.09988874219" lon="9.03871501940257"><ele>54.0</ele><time>2026-04-26T13:38:04Z</time></trkpt><trkpt lat="41.09991195676608" lon="9.03898719272356"><ele>54.0</ele><time>2026-04-26T13:38:05Z</time></trkpt><trkpt lat="41.09993227849326" lon="9.03925982415101"><ele>54.0</ele><time>2026-04-26T13:38:06Z</time></trkpt><trkpt lat="41.09995386354844" lon="9.039546065698643"><ele>54.0</ele><time>2026-04-26T13:38:07Z</time></trkpt><trkpt lat="41.09997904406258" lon="9.039845472061613"><ele>54.0</ele><time>2026-04-26T13:38:08Z</time></trkpt><trkpt lat="41.099999415569904" lon="9.040120969750927"><ele>54.0</ele><time>2026-04-26T13:38:09Z</time></trkpt><trkpt lat="41.10002067023889" lon="9.040381210456014"><ele>54.0</ele><time>2026-04-26T13:38:10Z</time></trkpt><trkpt lat="41.100054765703334" lon="9.040624306258428"><ele>54.0</ele><time>2026-04-26T13:38:11Z</time></trkpt><trkpt lat="41.10011767503891" lon="9.040854973522338"><ele>54.0</ele><time>2026-04-26T13:38:12Z</time></trkpt><trkpt lat="41.10020589894085" lon="9.041092892310173"><ele>54.5</ele><time>2026-04-26T13:38:13Z</time></trkpt><trkpt lat="41.10032292997259" lon="9.041346101509133"><ele>55.0</ele><time>2026-04-26T13:38:14Z</time></trkpt><trkpt lat="41.10044789514608" lon="9.041615807063746"><ele>54.5</ele><time>2026-04-26T13:38:15Z</time></trkpt><trkpt lat="41.10057154735263" lon="9.041889615637574"><ele>54.0</ele><time>2026-04-26T13:38:16Z</time></trkpt><trkpt lat="41.1006835164183" lon="9.042148367919618"><ele>53.66666666666667</ele><time>2026-04-26T13:38:17Z</time></trkpt><trkpt lat="41.10077891523051" lon="9.042394056175674"><ele>53.333333333333336</ele><time>2026-04-26T13:38:18Z</time></trkpt><trkpt lat="41.100857411960284" lon="9.04264005112183"><ele>53.0</ele><time>2026-04-26T13:38:19Z</time></trkpt><trkpt lat="41.100903260802696" lon="9.042890952149355"><ele>52.333333333333336</ele><time>2026-04-26T13:38:20Z</time></trkpt><trkpt lat="41.10093891907864" lon="9.043163548236539"><ele>51.66666666666667</ele><time>2026-04-26T13:38:21Z</time></trkpt><trkpt lat="41.100972697469246" lon="9.043465646911839"><ele>51.0</ele><time>2026-04-26T13:38:22Z</time></trkpt><trkpt lat="41.10101020042741" lon="9.043791261822875"><ele>49.5</ele><time>2026-04-26T13:38:23Z</time></trkpt><trkpt lat="41.10105224406887" lon="9.04412866016685"><ele>48.0</ele><time>2026-04-26T13:38:24Z</time></trkpt><trkpt lat="41.10109911964882" lon="9.044477687488628"><ele>47.5</ele><time>2026-04-26T13:38:25Z</time></trkpt><trkpt lat="41.101144727683675" lon="9.04483819464844"><ele>47.0</ele><time>2026-04-26T13:38:26Z</time></trkpt><trkpt lat="41.10118846683886" lon="9.0452112449365"><ele>46.5</ele><time>2026-04-26T13:38:27Z</time></trkpt><trkpt lat="41.10123522918564" lon="9.04557789990235"><ele>46.0</ele><time>2026-04-26T13:38:28Z</time></trkpt><trkpt lat="41.10127413065516" lon="9.04591306470211"><ele>44.5</ele><time>2026-04-26T13:38:29Z</time></trkpt><trkpt lat="41.10131281949472" lon="9.04623613635658"><ele>43.0</ele><time>2026-04-26T13:38:30Z</time></trkpt><trkpt lat="41.10135260586053" lon="9.046559596145741"><ele>42.0</ele><time>2026-04-26T13:38:31Z</time></trkpt><trkpt lat="41.10139736291836" lon="9.046901247735901"><ele>41.0</ele><time>2026-04-26T13:38:32Z</time></trkpt><trkpt lat="41.10144263554897" lon="9.047258438849022"><ele>39.5</ele><time>2026-04-26T13:38:33Z</time></trkpt><trkpt lat="41.10148949351627" lon="9.04762512771955"><ele>38.0</ele><time>2026-04-26T13:38:34Z</time></trkpt><trkpt lat="41.10153612397422" lon="9.047996045276944"><ele>41.0</ele><time>2026-04-26T13:38:35Z</time></trkpt><trkpt lat="41.10158418117604" lon="9.048367380736908"><ele>44.0</ele><time>2026-04-26T13:38:36Z</time></trkpt><trkpt lat="41.101632556132905" lon="9.048736538460556"><ele>44.0</ele><time>2026-04-26T13:38:37Z</time></trkpt><trkpt lat="41.10167914203669" lon="9.049101251849834"><ele>44.0</ele><time>2026-04-26T13:38:38Z</time></trkpt><trkpt lat="41.10172354935306" lon="9.049463780509262"><ele>44.0</ele><time>2026-04-26T13:38:39Z</time></trkpt><trkpt lat="41.10176907621021" lon="9.049829786951872"><ele>44.0</ele><time>2026-04-26T13:38:40Z</time></trkpt><trkpt lat="41.101817078081865" lon="9.050198264898189"><ele>44.0</ele><time>2026-04-26T13:38:41Z</time></trkpt><trkpt lat="41.101869117940915" lon="9.050572773974094"><ele>44.0</ele><time>2026-04-26T13:38:42Z</time></trkpt><trkpt lat="41.10192209856448" lon="9.050948921342512"><ele>43.5</ele><time>2026-04-26T13:38:43Z</time></trkpt><trkpt lat="41.10197465652447" lon="9.051323677114569"><ele>43.0</ele><time>2026-04-26T13:38:44Z</time></trkpt><trkpt lat="41.102024585513966" lon="9.051663118992467"><ele>42.5</ele><time>2026-04-26T13:38:45Z</time></trkpt><trkpt lat="41.102070998449555" lon="9.051985481521742"><ele>42.0</ele><time>2026-04-26T13:38:46Z</time></trkpt><trkpt lat="41.102113834650154" lon="9.052294321396129"><ele>42.0</ele><time>2026-04-26T13:38:47Z</time></trkpt><trkpt lat="41.102155970275696" lon="9.052591277612606"><ele>42.0</ele><time>2026-04-26T13:38:48Z</time></trkpt><trkpt lat="41.10219924980644" lon="9.052893013721619"><ele>42.0</ele><time>2026-04-26T13:38:49Z</time></trkpt><trkpt lat="41.10224319327264" lon="9.053191408880902"><ele>42.0</ele><time>2026-04-26T13:38:50Z</time></trkpt><trkpt lat="41.102284678612456" lon="9.053489486838076"><ele>40.5</ele><time>2026-04-26T13:38:51Z</time></trkpt><trkpt lat="41.102325724715804" lon="9.053808620448494"><ele>39.0</ele><time>2026-04-26T13:38:52Z</time></trkpt><trkpt lat="41.10236312473778" lon="9.05414239110843"><ele>37.5</ele><time>2026-04-26T13:38:53Z</time></trkpt><trkpt lat="41.102399526100896" lon="9.054488606934132"><ele>36.0</ele><time>2026-04-26T13:38:54Z</time></trkpt><trkpt lat="41.10243671674524" lon="9.05483735340948"><ele>39.5</ele><time>2026-04-26T13:38:55Z</time></trkpt><trkpt lat="41.102473545595274" lon="9.055163387034835"><ele>43.0</ele><time>2026-04-26T13:38:56Z</time></trkpt><trkpt lat="41.10250694016333" lon="9.055469955088038"><ele>43.0</ele><time>2026-04-26T13:38:57Z</time></trkpt><trkpt lat="41.10253806353809" lon="9.055761877961483"><ele>43.0</ele><time>2026-04-26T13:38:58Z</time></trkpt><trkpt lat="41.102569293514065" lon="9.056044972963184"><ele>43.0</ele><time>2026-04-26T13:38:59Z</time></trkpt><trkpt lat="41.102597499384935" lon="9.056322979027994"><ele>41.333333333333336</ele><time>2026-04-26T13:39:00Z</time></trkpt><trkpt lat="41.10262479409485" lon="9.056609981102767"><ele>39.666666666666664</ele><time>2026-04-26T13:39:01Z</time></trkpt><trkpt lat="41.10265574367959" lon="9.056899462818384"><ele>38.0</ele><time>2026-04-26T13:39:02Z</time></trkpt><trkpt lat="41.10269096828083" lon="9.057200315669375"><ele>36.5</ele><time>2026-04-26T13:39:03Z</time></trkpt><trkpt lat="41.102722375152496" lon="9.057525601841677"><ele>35.0</ele><time>2026-04-26T13:39:04Z</time></trkpt><trkpt lat="41.102741900389304" lon="9.057836240884273"><ele>35.0</ele><time>2026-04-26T13:39:05Z</time></trkpt><trkpt lat="41.10274896863741" lon="9.058130554571287"><ele>35.0</ele><time>2026-04-26T13:39:06Z</time></trkpt><trkpt lat="41.1027513851618" lon="9.058411637179228"><ele>35.0</ele><time>2026-04-26T13:39:07Z</time></trkpt><trkpt lat="41.102754259199166" lon="9.058684362424163"><ele>34.666666666666664</ele><time>2026-04-26T13:39:08Z</time></trkpt><trkpt lat="41.10275769986885" lon="9.058951942032182"><ele>34.333333333333336</ele><time>2026-04-26T13:39:09Z</time></trkpt><trkpt lat="41.10276038021255" lon="9.059209861388592"><ele>34.0</ele><time>2026-04-26T13:39:10Z</time></trkpt><trkpt lat="41.10275915410837" lon="9.059462006097249"><ele>33.333333333333336</ele><time>2026-04-26T13:39:11Z</time></trkpt><trkpt lat="41.10275846990869" lon="9.059714718091183"><ele>32.666666666666664</ele><time>2026-04-26T13:39:12Z</time></trkpt><trkpt lat="41.10276094605894" lon="9.059975120932963"><ele>32.0</ele><time>2026-04-26T13:39:13Z</time></trkpt><trkpt lat="41.102765740627625" lon="9.060239720253891"><ele>31.666666666666664</ele><time>2026-04-26T13:39:14Z</time></trkpt><trkpt lat="41.10277320600843" lon="9.06051419058361"><ele>31.333333333333336</ele><time>2026-04-26T13:39:15Z</time></trkpt><trkpt lat="41.10277822376543" lon="9.060786818000823"><ele>31.0</ele><time>2026-04-26T13:39:16Z</time></trkpt><trkpt lat="41.102779977217764" lon="9.06104518388923"><ele>30.666666666666668</ele><time>2026-04-26T13:39:17Z</time></trkpt><trkpt lat="41.10278245819718" lon="9.061290441254837"><ele>30.333333333333336</ele><time>2026-04-26T13:39:18Z</time></trkpt><trkpt lat="41.10278314943192" lon="9.061529184570261"><ele>30.0</ele><time>2026-04-26T13:39:19Z</time></trkpt><trkpt lat="41.102783544187254" lon="9.061759488141758"><ele>29.333333333333336</ele><time>2026-04-26T13:39:20Z</time></trkpt><trkpt lat="41.102782964551245" lon="9.061982306319639"><ele>28.666666666666668</ele><time>2026-04-26T13:39:21Z</time></trkpt><trkpt lat="41.102783220606234" lon="9.062197329461528"><ele>28.0</ele><time>2026-04-26T13:39:22Z</time></trkpt><trkpt lat="41.10278449335216" lon="9.06240512120818"><ele>27.5</ele><time>2026-04-26T13:39:23Z</time></trkpt><trkpt lat="41.102786246743165" lon="9.062605560141527"><ele>27.0</ele><time>2026-04-26T13:39:24Z</time></trkpt><trkpt lat="41.10279648134357" lon="9.062799458349124"><ele>26.5</ele><time>2026-04-26T13:39:25Z</time></trkpt><trkpt lat="41.1028275389438" lon="9.062976052700236"><ele>26.0</ele><time>2026-04-26T13:39:26Z</time></trkpt><trkpt lat="41.1028697809551" lon="9.063158938260989"><ele>25.25</ele><time>2026-04-26T13:39:27Z</time></trkpt><trkpt lat="41.102919735220105" lon="9.063321359343366"><ele>24.5</ele><time>2026-04-26T13:39:28Z</time></trkpt><trkpt lat="41.10298174573666" lon="9.06348479764909"><ele>23.75</ele><time>2026-04-26T13:39:29Z</time></trkpt><trkpt lat="41.10305310400448" lon="9.063644371266708"><ele>23.0</ele><time>2026-04-26T13:39:30Z</time></trkpt><trkpt lat="41.10314231141911" lon="9.063794639397935"><ele>23.25</ele><time>2026-04-26T13:39:31Z</time></trkpt><trkpt lat="41.10324909237315" lon="9.063929121737232"><ele>23.5</ele><time>2026-04-26T13:39:32Z</time></trkpt><trkpt lat="41.10336560780058" lon="9.064050764499465"><ele>23.75</ele><time>2026-04-26T13:39:33Z</time></trkpt><trkpt lat="41.103491975778894" lon="9.064156031512182"><ele>24.0</ele><time>2026-04-26T13:39:34Z</time></trkpt><trkpt lat="41.103622369838874" lon="9.064244395399706"><ele>24.0</ele><time>2026-04-26T13:39:35Z</time></trkpt><trkpt lat="41.1037547682722" lon="9.064331628155875"><ele>24.0</ele><time>2026-04-26T13:39:36Z</time></trkpt><trkpt lat="41.10388520226636" lon="9.064418820754623"><ele>24.0</ele><time>2026-04-26T13:39:37Z</time></trkpt><trkpt lat="41.104021842690486" lon="9.0645105564399"><ele>24.0</ele><time>2026-04-26T13:39:38Z</time></trkpt><trkpt lat="41.104164388483134" lon="9.064605084277705"><ele>24.0</ele><time>2026-04-26T13:39:39Z</time></trkpt><trkpt lat="41.104309138498245" lon="9.064707190883118"><ele>24.0</ele><time>2026-04-26T13:39:40Z</time></trkpt><trkpt lat="41.10446400673776" lon="9.06481412771626"><ele>24.0</ele><time>2026-04-26T13:39:41Z</time></trkpt><trkpt lat="41.10462385052753" lon="9.064904789245219"><ele>24.333333333333336</ele><time>2026-04-26T13:39:42Z</time></trkpt><trkpt lat="41.10477512871116" lon="9.064960909874513"><ele>24.666666666666668</ele><time>2026-04-26T13:39:43Z</time></trkpt><trkpt lat="41.10492721137718" lon="9.064989373739985"><ele>25.0</ele><time>2026-04-26T13:39:44Z</time></trkpt><trkpt lat="41.1050864356723" lon="9.064994420181407"><ele>24.666666666666668</ele><time>2026-04-26T13:39:45Z</time></trkpt><trkpt lat="41.105243050162535" lon="9.064973848327565"><ele>24.333333333333336</ele><time>2026-04-26T13:39:46Z</time></trkpt><trkpt lat="41.105396844518374" lon="9.06492850248992"><ele>24.0</ele><time>2026-04-26T13:39:47Z</time></trkpt><trkpt lat="41.105545390971216" lon="9.064862840168946"><ele>24.0</ele><time>2026-04-26T13:39:48Z</time></trkpt><trkpt lat="41.10568820114139" lon="9.064781647237933"><ele>24.0</ele><time>2026-04-26T13:39:49Z</time></trkpt><trkpt lat="41.10582488260004" lon="9.064677321566606"><ele>24.0</ele><time>2026-04-26T13:39:50Z</time></trkpt><trkpt lat="41.10594954361316" lon="9.06454672548803"><ele>23.333333333333332</ele><time>2026-04-26T13:39:51Z</time></trkpt><trkpt lat="41.106065077250584" lon="9.064392597310588"><ele>22.666666666666664</ele><time>2026-04-26T13:39:52Z</time></trkpt><trkpt lat="41.10617240112758" lon="9.06423113593433"><ele>22.0</ele><time>2026-04-26T13:39:53Z</time></trkpt><trkpt lat="41.106275546693105" lon="9.064073486309912"><ele>22.0</ele><time>2026-04-26T13:39:54Z</time></trkpt><trkpt lat="41.10638162398586" lon="9.06391608328432"><ele>22.0</ele><time>2026-04-26T13:39:55Z</time></trkpt><trkpt lat="41.10648652497811" lon="9.063766284712017"><ele>22.0</ele><time>2026-04-26T13:39:56Z</time></trkpt><trkpt lat="41.10658435711851" lon="9.06362302675305"><ele>25.666666666666664</ele><time>2026-04-26T13:39:57Z</time></trkpt><trkpt lat="41.10667936287194" lon="9.063488062956223"><ele>29.333333333333332</ele><time>2026-04-26T13:39:58Z</time></trkpt><trkpt lat="41.106785878483066" lon="9.063346165032627"><ele>33.0</ele><time>2026-04-26T13:39:59Z</time></trkpt><trkpt lat="41.10690424065088" lon="9.063199294850971"><ele>33.0</ele><time>2026-04-26T13:40:00Z</time></trkpt><trkpt lat="41.107035321502735" lon="9.063055601227706"><ele>33.0</ele><time>2026-04-26T13:40:01Z</time></trkpt><trkpt lat="41.10717589891212" lon="9.062919395788631"><ele>33.0</ele><time>2026-04-26T13:40:02Z</time></trkpt><trkpt lat="41.10733914306493" lon="9.062816014981284"><ele>31.333333333333336</ele><time>2026-04-26T13:40:03Z</time></trkpt><trkpt lat="41.10751430453525" lon="9.062684288967654"><ele>29.666666666666668</ele><time>2026-04-26T13:40:04Z</time></trkpt><trkpt lat="41.10771125174689" lon="9.062538219361368"><ele>28.0</ele><time>2026-04-26T13:40:05Z</time></trkpt><trkpt lat="41.10789045245459" lon="9.062381042853504"><ele>28.0</ele><time>2026-04-26T13:40:06Z</time></trkpt><trkpt lat="41.10806656262642" lon="9.062254119405374"><ele>28.0</ele><time>2026-04-26T13:40:07Z</time></trkpt><trkpt lat="41.10823199159087" lon="9.062135740654501"><ele>28.0</ele><time>2026-04-26T13:40:08Z</time></trkpt><trkpt lat="41.10839207301941" lon="9.062020683079284"><ele>31.0</ele><time>2026-04-26T13:40:09Z</time></trkpt><trkpt lat="41.10853832553605" lon="9.061912881001014"><ele>34.0</ele><time>2026-04-26T13:40:10Z</time></trkpt><trkpt lat="41.10867897716811" lon="9.061810091845162"><ele>37.0</ele><time>2026-04-26T13:40:11Z</time></trkpt><trkpt lat="41.10881821358088" lon="9.061709816419334"><ele>36.0</ele><time>2026-04-26T13:40:12Z</time></trkpt><trkpt lat="41.108952255936764" lon="9.061614483402028"><ele>35.0</ele><time>2026-04-26T13:40:13Z</time></trkpt><trkpt lat="41.10907736341584" lon="9.061528919698944"><ele>34.0</ele><time>2026-04-26T13:40:14Z</time></trkpt><trkpt lat="41.10920529400347" lon="9.061447946622547"><ele>33.0</ele><time>2026-04-26T13:40:15Z</time></trkpt><trkpt lat="41.109343596640706" lon="9.061377518179068"><ele>37.666666666666664</ele><time>2026-04-26T13:40:16Z</time></trkpt><trkpt lat="41.10949397863965" lon="9.06133335774487"><ele>42.33333333333333</ele><time>2026-04-26T13:40:17Z</time></trkpt><trkpt lat="41.10964470127516" lon="9.061291512711968"><ele>47.0</ele><time>2026-04-26T13:40:18Z</time></trkpt><trkpt lat="41.10980054066152" lon="9.061264652187962"><ele>46.666666666666664</ele><time>2026-04-26T13:40:19Z</time></trkpt><trkpt lat="41.10995991885766" lon="9.061252321172775"><ele>46.333333333333336</ele><time>2026-04-26T13:40:20Z</time></trkpt><trkpt lat="41.11011481638798" lon="9.061259050790783"><ele>46.0</ele><time>2026-04-26T13:40:21Z</time></trkpt><trkpt lat="41.11026692707702" lon="9.061280028624843"><ele>46.0</ele><time>2026-04-26T13:40:22Z</time></trkpt><trkpt lat="41.1104221897179" lon="9.061312718400279"><ele>46.0</ele><time>2026-04-26T13:40:23Z</time></trkpt><trkpt lat="41.11058592987267" lon="9.061366003761014"><ele>46.0</ele><time>2026-04-26T13:40:24Z</time></trkpt><trkpt lat="41.1107462967871" lon="9.061420468711624"><ele>45.66666666666667</ele><time>2026-04-26T13:40:25Z</time></trkpt><trkpt lat="41.110900607928144" lon="9.061484799991064"><ele>45.333333333333336</ele><time>2026-04-26T13:40:26Z</time></trkpt><trkpt lat="41.11105317047696" lon="9.06154556398993"><ele>45.0</ele><time>2026-04-26T13:40:27Z</time></trkpt><trkpt lat="41.11120244844218" lon="9.061601157120247"><ele>44.666666666666664</ele><time>2026-04-26T13:40:28Z</time></trkpt><trkpt lat="41.11135656154615" lon="9.06165938424119"><ele>44.33333333333333</ele><time>2026-04-26T13:40:29Z</time></trkpt><trkpt lat="41.11151471369014" lon="9.06172249026493"><ele>44.0</ele><time>2026-04-26T13:40:30Z</time></trkpt><trkpt lat="41.11167540948924" lon="9.061785503042472"><ele>42.0</ele><time>2026-04-26T13:40:31Z</time></trkpt><trkpt lat="41.11183710301589" lon="9.061849327941308"><ele>40.0</ele><time>2026-04-26T13:40:32Z</time></trkpt><trkpt lat="41.1119976405244" lon="9.06191068518029"><ele>38.0</ele><time>2026-04-26T13:40:33Z</time></trkpt><trkpt lat="41.11215230544677" lon="9.061969953137108"><ele>38.0</ele><time>2026-04-26T13:40:34Z</time></trkpt><trkpt lat="41.112305792384944" lon="9.062030764840296"><ele>38.0</ele><time>2026-04-26T13:40:35Z</time></trkpt><trkpt lat="41.112461635711696" lon="9.062103077254289"><ele>38.0</ele><time>2026-04-26T13:40:36Z</time></trkpt><trkpt lat="41.112614162721" lon="9.062183472680301"><ele>37.666666666666664</ele><time>2026-04-26T13:40:37Z</time></trkpt><trkpt lat="41.11276820770123" lon="9.06227645261646"><ele>37.333333333333336</ele><time>2026-04-26T13:40:38Z</time></trkpt><trkpt lat="41.11292678130242" lon="9.0623757219112"><ele>37.0</ele><time>2026-04-26T13:40:39Z</time></trkpt><trkpt lat="41.113077375854104" lon="9.062479182119805"><ele>35.66666666666667</ele><time>2026-04-26T13:40:40Z</time></trkpt><trkpt lat="41.113225287727275" lon="9.06258429871814"><ele>34.333333333333336</ele><time>2026-04-26T13:40:41Z</time></trkpt><trkpt lat="41.11338037839152" lon="9.062687872623336"><ele>33.0</ele><time>2026-04-26T13:40:42Z</time></trkpt><trkpt lat="41.11355175624176" lon="9.062818324157428"><ele>31.5</ele><time>2026-04-26T13:40:43Z</time></trkpt><trkpt lat="41.11375154607787" lon="9.062952521260483"><ele>30.0</ele><time>2026-04-26T13:40:44Z</time></trkpt><trkpt lat="41.11396299532739" lon="9.063094573228407"><ele>31.0</ele><time>2026-04-26T13:40:45Z</time></trkpt><trkpt lat="41.11418480966343" lon="9.06324358847671"><ele>32.0</ele><time>2026-04-26T13:40:46Z</time></trkpt><trkpt lat="41.11441473026354" lon="9.063398049515602"><ele>29.5</ele><time>2026-04-26T13:40:47Z</time></trkpt><trkpt lat="41.11466091144308" lon="9.063543712717435"><ele>27.0</ele><time>2026-04-26T13:40:48Z</time></trkpt><trkpt lat="41.11490609447247" lon="9.063715047177274"><ele>27.0</ele><time>2026-04-26T13:40:49Z</time></trkpt><trkpt lat="41.11513753849447" lon="9.06387677660751"><ele>27.0</ele><time>2026-04-26T13:40:50Z</time></trkpt><trkpt lat="41.11534318878926" lon="9.064018407350922"><ele>26.0</ele><time>2026-04-26T13:40:51Z</time></trkpt><trkpt lat="41.11553478981772" lon="9.06414710412712"><ele>25.0</ele><time>2026-04-26T13:40:52Z</time></trkpt><trkpt lat="41.11572174062576" lon="9.06427011852007"><ele>24.0</ele><time>2026-04-26T13:40:53Z</time></trkpt><trkpt lat="41.11590240107934" lon="9.064388637584281"><ele>23.666666666666668</ele><time>2026-04-26T13:40:54Z</time></trkpt><trkpt lat="41.11607988322728" lon="9.064508186304227"><ele>23.333333333333336</ele><time>2026-04-26T13:40:55Z</time></trkpt><trkpt lat="41.116259336544275" lon="9.064630015201237"><ele>23.0</ele><time>2026-04-26T13:40:56Z</time></trkpt><trkpt lat="41.11643915634551" lon="9.064753036151425"><ele>22.666666666666668</ele><time>2026-04-26T13:40:57Z</time></trkpt><trkpt lat="41.11661863814576" lon="9.064875862492729"><ele>22.333333333333332</ele><time>2026-04-26T13:40:58Z</time></trkpt><trkpt lat="41.116796752962365" lon="9.06499152793367"><ele>22.0</ele><time>2026-04-26T13:40:59Z</time></trkpt><trkpt lat="41.11697430381756" lon="9.065106171168477"><ele>21.666666666666664</ele><time>2026-04-26T13:41:00Z</time></trkpt><trkpt lat="41.117155856355446" lon="9.065230886851207"><ele>21.333333333333332</ele><time>2026-04-26T13:41:01Z</time></trkpt><trkpt lat="41.11734901291486" lon="9.065357343193297"><ele>21.0</ele><time>2026-04-26T13:41:02Z</time></trkpt><trkpt lat="41.11755303810397" lon="9.06549931152099"><ele>21.0</ele><time>2026-04-26T13:41:03Z</time></trkpt><trkpt lat="41.11775757054223" lon="9.065644684122452"><ele>21.0</ele><time>2026-04-26T13:41:04Z</time></trkpt><trkpt lat="41.11795165135231" lon="9.065777979282084"><ele>21.0</ele><time>2026-04-26T13:41:05Z</time></trkpt><trkpt lat="41.1181317452881" lon="9.065906958941188"><ele>21.0</ele><time>2026-04-26T13:41:06Z</time></trkpt><trkpt lat="41.11830266027026" lon="9.066019568375093"><ele>21.0</ele><time>2026-04-26T13:41:07Z</time></trkpt><trkpt lat="41.1184757614888" lon="9.06611849523127"><ele>21.0</ele><time>2026-04-26T13:41:08Z</time></trkpt><trkpt lat="41.11865971253233" lon="9.066210586642288"><ele>21.0</ele><time>2026-04-26T13:41:09Z</time></trkpt><trkpt lat="41.11885085597532" lon="9.066291062258719"><ele>21.0</ele><time>2026-04-26T13:41:10Z</time></trkpt><trkpt lat="41.119049692678715" lon="9.066350722745183"><ele>21.666666666666668</ele><time>2026-04-26T13:41:11Z</time></trkpt><trkpt lat="41.11924794305226" lon="9.066389955967479"><ele>22.333333333333336</ele><time>2026-04-26T13:41:12Z</time></trkpt><trkpt lat="41.11944473307348" lon="9.066410809052055"><ele>23.0</ele><time>2026-04-26T13:41:13Z</time></trkpt><trkpt lat="41.11964107573791" lon="9.06641696143114"><ele>23.0</ele><time>2026-04-26T13:41:14Z</time></trkpt><trkpt lat="41.11984096554398" lon="9.066418188247463"><ele>23.0</ele><time>2026-04-26T13:41:15Z</time></trkpt><trkpt lat="41.12004807569149" lon="9.066423599371365"><ele>23.0</ele><time>2026-04-26T13:41:16Z</time></trkpt><trkpt lat="41.12023695408032" lon="9.066436055562715"><ele>22.666666666666668</ele><time>2026-04-26T13:41:17Z</time></trkpt><trkpt lat="41.12041609709881" lon="9.066459862831202"><ele>22.333333333333332</ele><time>2026-04-26T13:41:18Z</time></trkpt><trkpt lat="41.120590501302615" lon="9.06650191434665"><ele>22.0</ele><time>2026-04-26T13:41:19Z</time></trkpt><trkpt lat="41.12075599247725" lon="9.066561329512542"><ele>20.333333333333332</ele><time>2026-04-26T13:41:20Z</time></trkpt><trkpt lat="41.12091014019628" lon="9.066632891423138"><ele>18.666666666666668</ele><time>2026-04-26T13:41:21Z</time></trkpt><trkpt lat="41.12105312506521" lon="9.066713905816275"><ele>17.0</ele><time>2026-04-26T13:41:22Z</time></trkpt><trkpt lat="41.12117555840966" lon="9.066799875968549"><ele>17.0</ele><time>2026-04-26T13:41:23Z</time></trkpt><trkpt lat="41.12127969342695" lon="9.066892052454076"><ele>17.0</ele><time>2026-04-26T13:41:24Z</time></trkpt><trkpt lat="41.12137770185091" lon="9.066980831726896"><ele>17.0</ele><time>2026-04-26T13:41:25Z</time></trkpt><trkpt lat="41.12148233837405" lon="9.067090778911785"><ele>17.0</ele><time>2026-04-26T13:41:26Z</time></trkpt><trkpt lat="41.12158703426252" lon="9.067215879363848"><ele>16.25</ele><time>2026-04-26T13:41:27Z</time></trkpt><trkpt lat="41.121698828220026" lon="9.067355140206143"><ele>15.5</ele><time>2026-04-26T13:41:28Z</time></trkpt><trkpt lat="41.12180796353715" lon="9.067493961142954"><ele>14.75</ele><time>2026-04-26T13:41:29Z</time></trkpt><trkpt lat="41.121907246452544" lon="9.067622964620467"><ele>14.0</ele><time>2026-04-26T13:41:30Z</time></trkpt><trkpt lat="41.12200284806809" lon="9.067747935754666"><ele>13.75</ele><time>2026-04-26T13:41:31Z</time></trkpt><trkpt lat="41.12210082194824" lon="9.0678720770666"><ele>13.5</ele><time>2026-04-26T13:41:32Z</time></trkpt><trkpt lat="41.122200021864494" lon="9.067997523377668"><ele>13.25</ele><time>2026-04-26T13:41:33Z</time></trkpt><trkpt lat="41.12228848199777" lon="9.06811676394002"><ele>13.0</ele><time>2026-04-26T13:41:34Z</time></trkpt><trkpt lat="41.122372156917535" lon="9.068229443957586"><ele>12.8</ele><time>2026-04-26T13:41:35Z</time></trkpt><trkpt lat="41.12245027533366" lon="9.06833678646022"><ele>12.600000000000001</ele><time>2026-04-26T13:41:36Z</time></trkpt><trkpt lat="41.12252293426276" lon="9.06843543665519"><ele>12.399999999999999</ele><time>2026-04-26T13:41:37Z</time></trkpt><trkpt lat="41.12259508050203" lon="9.068529020870145"><ele>12.2</ele><time>2026-04-26T13:41:38Z</time></trkpt><trkpt lat="41.12265528824937" lon="9.068622879227018"><ele>12.0</ele><time>2026-04-26T13:41:39Z</time></trkpt><trkpt lat="41.122691120103916" lon="9.068730137006407"><ele>12.0</ele><time>2026-04-26T13:41:40Z</time></trkpt><trkpt lat="41.122704241918846" lon="9.06883762218073"><ele>12.0</ele><time>2026-04-26T13:41:41Z</time></trkpt><trkpt lat="41.12272267891685" lon="9.068923903606478"><ele>12.0</ele><time>2026-04-26T13:41:42Z</time></trkpt><trkpt lat="41.12276532289877" lon="9.068993425738084"><ele>12.0</ele><time>2026-04-26T13:41:43Z</time></trkpt><trkpt lat="41.12284411400538" lon="9.069046415674865"><ele>12.0</ele><time>2026-04-26T13:41:44Z</time></trkpt><trkpt lat="41.12296291593512" lon="9.069093273796582"><ele>12.0</ele><time>2026-04-26T13:41:45Z</time></trkpt><trkpt lat="41.12309679486896" lon="9.069163982562385"><ele>12.0</ele><time>2026-04-26T13:41:46Z</time></trkpt><trkpt lat="41.123226414582774" lon="9.069295618619503"><ele>12.0</ele><time>2026-04-26T13:41:47Z</time></trkpt><trkpt lat="41.12336705162754" lon="9.069477465974646"><ele>12.0</ele><time>2026-04-26T13:41:48Z</time></trkpt><trkpt lat="41.12351419328335" lon="9.069670569336479"><ele>12.0</ele><time>2026-04-26T13:41:49Z</time></trkpt><trkpt lat="41.12367309517732" lon="9.069872558605844"><ele>12.0</ele><time>2026-04-26T13:41:50Z</time></trkpt><trkpt lat="41.123840824817556" lon="9.070086202280049"><ele>12.333333333333332</ele><time>2026-04-26T13:41:51Z</time></trkpt><trkpt lat="41.12400481364038" lon="9.070295611134954"><ele>12.666666666666666</ele><time>2026-04-26T13:41:52Z</time></trkpt><trkpt lat="41.12413702940426" lon="9.070513643844945"><ele>13.0</ele><time>2026-04-26T13:41:53Z</time></trkpt><trkpt lat="41.12427543446432" lon="9.070751134976105"><ele>13.5</ele><time>2026-04-26T13:41:54Z</time></trkpt><trkpt lat="41.124406394010315" lon="9.071005756783165"><ele>14.0</ele><time>2026-04-26T13:41:55Z</time></trkpt><trkpt lat="41.1245209117495" lon="9.071265720642112"><ele>14.0</ele><time>2026-04-26T13:41:56Z</time></trkpt><trkpt lat="41.124620563489245" lon="9.07154519196301"><ele>14.0</ele><time>2026-04-26T13:41:57Z</time></trkpt><trkpt lat="41.124709969333374" lon="9.071837689484095"><ele>15.5</ele><time>2026-04-26T13:41:58Z</time></trkpt><trkpt lat="41.12479192430855" lon="9.072141539920546"><ele>17.0</ele><time>2026-04-26T13:41:59Z</time></trkpt><trkpt lat="41.12485391498058" lon="9.072459071362559"><ele>16.0</ele><time>2026-04-26T13:42:00Z</time></trkpt><trkpt lat="41.124902578695064" lon="9.0727966789361"><ele>15.0</ele><time>2026-04-26T13:42:01Z</time></trkpt><trkpt lat="41.124937289354634" lon="9.07314234905815"><ele>15.5</ele><time>2026-04-26T13:42:02Z</time></trkpt><trkpt lat="41.12496282531439" lon="9.073502366577037"><ele>16.0</ele><time>2026-04-26T13:42:03Z</time></trkpt><trkpt lat="41.12497581090487" lon="9.073870933415558"><ele>16.0</ele><time>2026-04-26T13:42:04Z</time></trkpt><trkpt lat="41.12498826999327" lon="9.07425376921784"><ele>16.0</ele><time>2026-04-26T13:42:05Z</time></trkpt><trkpt lat="41.125004758295496" lon="9.074643848302324"><ele>15.5</ele><time>2026-04-26T13:42:06Z</time></trkpt><trkpt lat="41.12501840570471" lon="9.075040443535668"><ele>15.0</ele><time>2026-04-26T13:42:07Z</time></trkpt><trkpt lat="41.125034651420016" lon="9.075436384986364"><ele>13.5</ele><time>2026-04-26T13:42:08Z</time></trkpt><trkpt lat="41.1250530868986" lon="9.075839992007678"><ele>12.0</ele><time>2026-04-26T13:42:09Z</time></trkpt><trkpt lat="41.12507569704285" lon="9.076244622657349"><ele>11.5</ele><time>2026-04-26T13:42:10Z</time></trkpt><trkpt lat="41.12509037945437" lon="9.076655564562026"><ele>11.0</ele><time>2026-04-26T13:42:11Z</time></trkpt><trkpt lat="41.12510387677795" lon="9.077066935011443"><ele>11.0</ele><time>2026-04-26T13:42:12Z</time></trkpt><trkpt lat="41.12512395544984" lon="9.077481175541397"><ele>11.0</ele><time>2026-04-26T13:42:13Z</time></trkpt><trkpt lat="41.1251362972787" lon="9.077893217664567"><ele>11.5</ele><time>2026-04-26T13:42:14Z</time></trkpt><trkpt lat="41.12515374993212" lon="9.07830592964917"><ele>12.0</ele><time>2026-04-26T13:42:15Z</time></trkpt><trkpt lat="41.12516905769325" lon="9.078715120972314"><ele>11.5</ele><time>2026-04-26T13:42:16Z</time></trkpt><trkpt lat="41.12518577699221" lon="9.0791016642821"><ele>11.0</ele><time>2026-04-26T13:42:17Z</time></trkpt><trkpt lat="41.12520487218799" lon="9.079484016297236"><ele>11.0</ele><time>2026-04-26T13:42:18Z</time></trkpt><trkpt lat="41.12522098955033" lon="9.079871667694325"><ele>11.0</ele><time>2026-04-26T13:42:19Z</time></trkpt><trkpt lat="41.12523551668996" lon="9.08024068920531"><ele>11.5</ele><time>2026-04-26T13:42:20Z</time></trkpt><trkpt lat="41.12525093379138" lon="9.080585648605894"><ele>12.0</ele><time>2026-04-26T13:42:21Z</time></trkpt><trkpt lat="41.1252648639807" lon="9.080919292917216"><ele>12.5</ele><time>2026-04-26T13:42:22Z</time></trkpt><trkpt lat="41.12527566905889" lon="9.081239308369945"><ele>13.0</ele><time>2026-04-26T13:42:23Z</time></trkpt><trkpt lat="41.125288764137956" lon="9.081547335105434"><ele>13.5</ele><time>2026-04-26T13:42:24Z</time></trkpt><trkpt lat="41.12529989915912" lon="9.081856071246829"><ele>14.0</ele><time>2026-04-26T13:42:25Z</time></trkpt><trkpt lat="41.12531193818" lon="9.08217946551316"><ele>15.0</ele><time>2026-04-26T13:42:26Z</time></trkpt><trkpt lat="41.12532715307318" lon="9.082512767472535"><ele>16.0</ele><time>2026-04-26T13:42:27Z</time></trkpt><trkpt lat="41.12534552154487" lon="9.082844311081404"><ele>16.0</ele><time>2026-04-26T13:42:28Z</time></trkpt><trkpt lat="41.12536349231109" lon="9.083174802943011"><ele>16.0</ele><time>2026-04-26T13:42:29Z</time></trkpt><trkpt lat="41.12538947660148" lon="9.083495832340839"><ele>16.0</ele><time>2026-04-26T13:42:30Z</time></trkpt><trkpt lat="41.12542455395742" lon="9.083812383843412"><ele>16.0</ele><time>2026-04-26T13:42:31Z</time></trkpt><trkpt lat="41.125466284320126" lon="9.084117698898819"><ele>16.0</ele><time>2026-04-26T13:42:32Z</time></trkpt><trkpt lat="41.125519838843616" lon="9.08441937424459"><ele>16.0</ele><time>2026-04-26T13:42:33Z</time></trkpt><trkpt lat="41.12558608788233" lon="9.084731651529447"><ele>16.0</ele><time>2026-04-26T13:42:34Z</time></trkpt><trkpt lat="41.12566323786803" lon="9.085051664603755"><ele>16.0</ele><time>2026-04-26T13:42:35Z</time></trkpt><trkpt lat="41.12574507528889" lon="9.085370313163088"><ele>16.0</ele><time>2026-04-26T13:42:36Z</time></trkpt><trkpt lat="41.12583144976435" lon="9.085687689246019"><ele>16.0</ele><time>2026-04-26T13:42:37Z</time></trkpt><trkpt lat="41.12591400397948" lon="9.08598706952853"><ele>15.5</ele><time>2026-04-26T13:42:38Z</time></trkpt><trkpt lat="41.12599246833943" lon="9.086277357706216"><ele>15.0</ele><time>2026-04-26T13:42:39Z</time></trkpt><trkpt lat="41.1260713898165" lon="9.0865695749886"><ele>15.0</ele><time>2026-04-26T13:42:40Z</time></trkpt><trkpt lat="41.12614930608006" lon="9.086860436739013"><ele>15.0</ele><time>2026-04-26T13:42:41Z</time></trkpt><trkpt lat="41.12622880255749" lon="9.087149868282559"><ele>15.5</ele><time>2026-04-26T13:42:42Z</time></trkpt><trkpt lat="41.12630852851723" lon="9.087440533969987"><ele>16.0</ele><time>2026-04-26T13:42:43Z</time></trkpt><trkpt lat="41.126388960790386" lon="9.087737614352168"><ele>16.0</ele><time>2026-04-26T13:42:44Z</time></trkpt><trkpt lat="41.12647275552413" lon="9.0880344224805"><ele>16.0</ele><time>2026-04-26T13:42:45Z</time></trkpt><trkpt lat="41.126555196218106" lon="9.088342387774526"><ele>13.5</ele><time>2026-04-26T13:42:46Z</time></trkpt><trkpt lat="41.12664421879074" lon="9.08866656298946"><ele>11.0</ele><time>2026-04-26T13:42:47Z</time></trkpt><trkpt lat="41.12673706751191" lon="9.088989902658694"><ele>10.5</ele><time>2026-04-26T13:42:48Z</time></trkpt><trkpt lat="41.126829686438676" lon="9.089310212619523"><ele>10.0</ele><time>2026-04-26T13:42:49Z</time></trkpt><trkpt lat="41.12692438646288" lon="9.089643777594985"><ele>10.0</ele><time>2026-04-26T13:42:50Z</time></trkpt><trkpt lat="41.127024016949996" lon="9.089985624535489"><ele>10.0</ele><time>2026-04-26T13:42:51Z</time></trkpt><trkpt lat="41.127123313664974" lon="9.090333318548677"><ele>10.0</ele><time>2026-04-26T13:42:52Z</time></trkpt><trkpt lat="41.12721635534783" lon="9.090684263315913"><ele>10.0</ele><time>2026-04-26T13:42:53Z</time></trkpt><trkpt lat="41.127304169888575" lon="9.091034483465979"><ele>10.0</ele><time>2026-04-26T13:42:54Z</time></trkpt><trkpt lat="41.12738182897403" lon="9.091365362453288"><ele>10.0</ele><time>2026-04-26T13:42:55Z</time></trkpt><trkpt lat="41.12745184407089" lon="9.091676953607495"><ele>14.0</ele><time>2026-04-26T13:42:56Z</time></trkpt><trkpt lat="41.12751239509245" lon="9.091972473204986"><ele>18.0</ele><time>2026-04-26T13:42:57Z</time></trkpt><trkpt lat="41.12755936530923" lon="9.092252569638164"><ele>22.0</ele><time>2026-04-26T13:42:58Z</time></trkpt><trkpt lat="41.12759490647792" lon="9.09252252761169"><ele>23.666666666666664</ele><time>2026-04-26T13:42:59Z</time></trkpt><trkpt lat="41.127620230503" lon="9.09278395819533"><ele>25.333333333333332</ele><time>2026-04-26T13:43:00Z</time></trkpt><trkpt lat="41.127633540243046" lon="9.093027412315015"><ele>27.0</ele><time>2026-04-26T13:43:01Z</time></trkpt><trkpt lat="41.12763666903253" lon="9.093256210526471"><ele>28.333333333333336</ele><time>2026-04-26T13:43:02Z</time></trkpt><trkpt lat="41.127631116551164" lon="9.093472640190521"><ele>29.666666666666668</ele><time>2026-04-26T13:43:03Z</time></trkpt><trkpt lat="41.12761926535451" lon="9.093684481849438"><ele>31.0</ele><time>2026-04-26T13:43:04Z</time></trkpt><trkpt lat="41.12760487346448" lon="9.093903645851341"><ele>33.0</ele><time>2026-04-26T13:43:05Z</time></trkpt><trkpt lat="41.12759324000077" lon="9.094138161398547"><ele>35.0</ele><time>2026-04-26T13:43:06Z</time></trkpt><trkpt lat="41.127585766776704" lon="9.094382549314474"><ele>37.0</ele><time>2026-04-26T13:43:07Z</time></trkpt><trkpt lat="41.1275691812291" lon="9.094648737699378"><ele>39.333333333333336</ele><time>2026-04-26T13:43:08Z</time></trkpt><trkpt lat="41.12755128251244" lon="9.094925378080035"><ele>41.666666666666664</ele><time>2026-04-26T13:43:09Z</time></trkpt><trkpt lat="41.127525437545486" lon="9.095215672412289"><ele>44.0</ele><time>2026-04-26T13:43:10Z</time></trkpt><trkpt lat="41.12749928872083" lon="9.0955180940306"><ele>46.5</ele><time>2026-04-26T13:43:11Z</time></trkpt><trkpt lat="41.1274776713865" lon="9.095829227165344"><ele>49.0</ele><time>2026-04-26T13:43:12Z</time></trkpt><trkpt lat="41.12745480046358" lon="9.09615183977417"><ele>49.0</ele><time>2026-04-26T13:43:13Z</time></trkpt><trkpt lat="41.12743340529821" lon="9.096475075940855"><ele>49.0</ele><time>2026-04-26T13:43:14Z</time></trkpt><trkpt lat="41.127413051531036" lon="9.096808334637709"><ele>50.5</ele><time>2026-04-26T13:43:15Z</time></trkpt><trkpt lat="41.12739473371055" lon="9.097148789034524"><ele>52.0</ele><time>2026-04-26T13:43:16Z</time></trkpt><trkpt lat="41.127379316669476" lon="9.097497247709862"><ele>55.0</ele><time>2026-04-26T13:43:17Z</time></trkpt><trkpt lat="41.12736695490682" lon="9.09784988606377"><ele>58.0</ele><time>2026-04-26T13:43:18Z</time></trkpt><trkpt lat="41.12736123650746" lon="9.09820705340819"><ele>58.0</ele><time>2026-04-26T13:43:19Z</time></trkpt><trkpt lat="41.12736255494824" lon="9.098572876929222"><ele>58.0</ele><time>2026-04-26T13:43:20Z</time></trkpt><trkpt lat="41.12736704183866" lon="9.098940107238358"><ele>59.5</ele><time>2026-04-26T13:43:21Z</time></trkpt><trkpt lat="41.127374081963154" lon="9.099296597645795"><ele>61.0</ele><time>2026-04-26T13:43:22Z</time></trkpt><trkpt lat="41.12738102676013" lon="9.099630230494032"><ele>60.0</ele><time>2026-04-26T13:43:23Z</time></trkpt><trkpt lat="41.127389671332246" lon="9.099965892720899"><ele>59.0</ele><time>2026-04-26T13:43:24Z</time></trkpt><trkpt lat="41.12739746528621" lon="9.10029685963714"><ele>59.0</ele><time>2026-04-26T13:43:25Z</time></trkpt><trkpt lat="41.12740593612912" lon="9.10062633281942"><ele>59.0</ele><time>2026-04-26T13:43:26Z</time></trkpt><trkpt lat="41.1274121425711" lon="9.100965530194278"><ele>61.0</ele><time>2026-04-26T13:43:27Z</time></trkpt><trkpt lat="41.127416154221685" lon="9.101315997027184"><ele>63.0</ele><time>2026-04-26T13:43:28Z</time></trkpt><trkpt lat="41.127421814273276" lon="9.101676324737618"><ele>63.5</ele><time>2026-04-26T13:43:29Z</time></trkpt><trkpt lat="41.127430304678214" lon="9.102046226613501"><ele>64.0</ele><time>2026-04-26T13:43:30Z</time></trkpt><trkpt lat="41.12743983652721" lon="9.102397549538598"><ele>63.5</ele><time>2026-04-26T13:43:31Z</time></trkpt><trkpt lat="41.12744555633482" lon="9.102724068381187"><ele>63.0</ele><time>2026-04-26T13:43:32Z</time></trkpt><trkpt lat="41.12745012357195" lon="9.10304079082059"><ele>62.5</ele><time>2026-04-26T13:43:33Z</time></trkpt><trkpt lat="41.12745496978638" lon="9.103350277238839"><ele>62.0</ele><time>2026-04-26T13:43:34Z</time></trkpt><trkpt lat="41.1274599084981" lon="9.103648621722986"><ele>62.0</ele><time>2026-04-26T13:43:35Z</time></trkpt><trkpt lat="41.12746515997679" lon="9.103930094015515"><ele>62.0</ele><time>2026-04-26T13:43:36Z</time></trkpt><trkpt lat="41.12746930433339" lon="9.104208970286196"><ele>62.0</ele><time>2026-04-26T13:43:37Z</time></trkpt><trkpt lat="41.12747448077585" lon="9.1044760188698"><ele>61.0</ele><time>2026-04-26T13:43:38Z</time></trkpt><trkpt lat="41.12748452513971" lon="9.104741580508314"><ele>60.0</ele><time>2026-04-26T13:43:39Z</time></trkpt><trkpt lat="41.12749072819876" lon="9.105014038128159"><ele>59.0</ele><time>2026-04-26T13:43:40Z</time></trkpt><trkpt lat="41.12749719855795" lon="9.105289988679225"><ele>59.0</ele><time>2026-04-26T13:43:41Z</time></trkpt><trkpt lat="41.1275055723094" lon="9.105580209312526"><ele>59.0</ele><time>2026-04-26T13:43:42Z</time></trkpt><trkpt lat="41.12751298243132" lon="9.10589256295668"><ele>59.5</ele><time>2026-04-26T13:43:43Z</time></trkpt><trkpt lat="41.127516649179604" lon="9.106219690971372"><ele>60.0</ele><time>2026-04-26T13:43:44Z</time></trkpt><trkpt lat="41.12751873015416" lon="9.106561238017173"><ele>60.5</ele><time>2026-04-26T13:43:45Z</time></trkpt><trkpt lat="41.12752356429686" lon="9.106912283598954"><ele>61.0</ele><time>2026-04-26T13:43:46Z</time></trkpt><trkpt lat="41.12753236731885" lon="9.107269461482806"><ele>60.5</ele><time>2026-04-26T13:43:47Z</time></trkpt><trkpt lat="41.12754070666156" lon="9.107638305899911"><ele>60.0</ele><time>2026-04-26T13:43:48Z</time></trkpt><trkpt lat="41.127546367438754" lon="9.108016578989911"><ele>60.5</ele><time>2026-04-26T13:43:49Z</time></trkpt><trkpt lat="41.127551631620506" lon="9.108391193225135"><ele>61.0</ele><time>2026-04-26T13:43:50Z</time></trkpt><trkpt lat="41.12755563495633" lon="9.108756791790034"><ele>62.0</ele><time>2026-04-26T13:43:51Z</time></trkpt><trkpt lat="41.12756236580884" lon="9.109109069191828"><ele>63.0</ele><time>2026-04-26T13:43:52Z</time></trkpt><trkpt lat="41.12757767508562" lon="9.109456090604349"><ele>63.0</ele><time>2026-04-26T13:43:53Z</time></trkpt><trkpt lat="41.12760005604285" lon="9.109813649942227"><ele>63.0</ele><time>2026-04-26T13:43:54Z</time></trkpt><trkpt lat="41.127637795277046" lon="9.110169446634094"><ele>63.0</ele><time>2026-04-26T13:43:55Z</time></trkpt><trkpt lat="41.12768483416266" lon="9.11051120547137"><ele>63.0</ele><time>2026-04-26T13:43:56Z</time></trkpt><trkpt lat="41.127748727980254" lon="9.110843502999739"><ele>63.0</ele><time>2026-04-26T13:43:57Z</time></trkpt><trkpt lat="41.127827036906695" lon="9.111178134768872"><ele>63.0</ele><time>2026-04-26T13:43:58Z</time></trkpt><trkpt lat="41.12791916097647" lon="9.111510231048921"><ele>64.5</ele><time>2026-04-26T13:43:59Z</time></trkpt><trkpt lat="41.12802050033708" lon="9.111830071740311"><ele>66.0</ele><time>2026-04-26T13:44:00Z</time></trkpt><trkpt lat="41.12813391012067" lon="9.11214251609369"><ele>64.5</ele><time>2026-04-26T13:44:01Z</time></trkpt><trkpt lat="41.12826157274086" lon="9.112450790266042"><ele>63.0</ele><time>2026-04-26T13:44:02Z</time></trkpt><trkpt lat="41.12840236570295" lon="9.112761198596637"><ele>63.0</ele><time>2026-04-26T13:44:03Z</time></trkpt><trkpt lat="41.12855535204628" lon="9.11308254522082"><ele>63.0</ele><time>2026-04-26T13:44:04Z</time></trkpt><trkpt lat="41.12871224968544" lon="9.113406722005191"><ele>64.0</ele><time>2026-04-26T13:44:05Z</time></trkpt><trkpt lat="41.128867283118865" lon="9.113732289282003"><ele>65.0</ele><time>2026-04-26T13:44:06Z</time></trkpt><trkpt lat="41.1290102202744" lon="9.114038069903089"><ele>62.0</ele><time>2026-04-26T13:44:07Z</time></trkpt><trkpt lat="41.12914639013472" lon="9.11432993771496"><ele>59.0</ele><time>2026-04-26T13:44:08Z</time></trkpt><trkpt lat="41.129275944273395" lon="9.11460605654314"><ele>59.0</ele><time>2026-04-26T13:44:09Z</time></trkpt><trkpt lat="41.12940170270884" lon="9.114868500830378"><ele>59.0</ele><time>2026-04-26T13:44:10Z</time></trkpt><trkpt lat="41.12952289260262" lon="9.11512705278567"><ele>57.5</ele><time>2026-04-26T13:44:11Z</time></trkpt><trkpt lat="41.12964325956289" lon="9.11539152915279"><ele>56.0</ele><time>2026-04-26T13:44:12Z</time></trkpt><trkpt lat="41.12977043718822" lon="9.115663335768959"><ele>51.5</ele><time>2026-04-26T13:44:13Z</time></trkpt><trkpt lat="41.129903686106985" lon="9.115943657685264"><ele>47.0</ele><time>2026-04-26T13:44:14Z</time></trkpt><trkpt lat="41.130044824294615" lon="9.11623902110746"><ele>47.0</ele><time>2026-04-26T13:44:15Z</time></trkpt><trkpt lat="41.13018939114294" lon="9.116547108984419"><ele>47.0</ele><time>2026-04-26T13:44:16Z</time></trkpt><trkpt lat="41.13033339651525" lon="9.116861306000114"><ele>47.5</ele><time>2026-04-26T13:44:17Z</time></trkpt><trkpt lat="41.130481621114086" lon="9.117178878194162"><ele>48.0</ele><time>2026-04-26T13:44:18Z</time></trkpt><trkpt lat="41.13063112420216" lon="9.11749522850656"><ele>54.0</ele><time>2026-04-26T13:44:19Z</time></trkpt><trkpt lat="41.13078275064675" lon="9.117812693372352"><ele>60.0</ele><time>2026-04-26T13:44:20Z</time></trkpt><trkpt lat="41.13093525839686" lon="9.118133599408438"><ele>62.0</ele><time>2026-04-26T13:44:21Z</time></trkpt><trkpt lat="41.131088168383236" lon="9.118457668098232"><ele>64.0</ele><time>2026-04-26T13:44:22Z</time></trkpt><trkpt lat="41.13124139718174" lon="9.118784428730622"><ele>65.0</ele><time>2026-04-26T13:44:23Z</time></trkpt><trkpt lat="41.131396681583894" lon="9.1191134800472"><ele>66.0</ele><time>2026-04-26T13:44:24Z</time></trkpt><trkpt lat="41.131551054854846" lon="9.11944639638715"><ele>65.5</ele><time>2026-04-26T13:44:25Z</time></trkpt><trkpt lat="41.13170621113544" lon="9.11978194192292"><ele>65.0</ele><time>2026-04-26T13:44:26Z</time></trkpt><trkpt lat="41.131858315579905" lon="9.120111940809405"><ele>65.0</ele><time>2026-04-26T13:44:27Z</time></trkpt><trkpt lat="41.132014997933766" lon="9.120446832762044"><ele>65.0</ele><time>2026-04-26T13:44:28Z</time></trkpt><trkpt lat="41.13217242294015" lon="9.1207830880932"><ele>65.0</ele><time>2026-04-26T13:44:29Z</time></trkpt><trkpt lat="41.13233203561605" lon="9.121123882605238"><ele>65.0</ele><time>2026-04-26T13:44:30Z</time></trkpt><trkpt lat="41.132491832678156" lon="9.121467742321238"><ele>63.5</ele><time>2026-04-26T13:44:31Z</time></trkpt><trkpt lat="41.132651716096056" lon="9.121810282980306"><ele>62.0</ele><time>2026-04-26T13:44:32Z</time></trkpt><trkpt lat="41.13281042609009" lon="9.122147839688582"><ele>64.0</ele><time>2026-04-26T13:44:33Z</time></trkpt><trkpt lat="41.13295553929623" lon="9.122460935774683"><ele>66.0</ele><time>2026-04-26T13:44:34Z</time></trkpt><trkpt lat="41.13308977239904" lon="9.12275354740705"><ele>66.0</ele><time>2026-04-26T13:44:35Z</time></trkpt><trkpt lat="41.13321955244255" lon="9.123031275891691"><ele>66.0</ele><time>2026-04-26T13:44:36Z</time></trkpt><trkpt lat="41.13334875702848" lon="9.123302655082366"><ele>66.5</ele><time>2026-04-26T13:44:37Z</time></trkpt><trkpt lat="41.13348277153496" lon="9.123565695965787"><ele>67.0</ele><time>2026-04-26T13:44:38Z</time></trkpt><trkpt lat="41.13362683784402" lon="9.123818679416582"><ele>67.5</ele><time>2026-04-26T13:44:39Z</time></trkpt><trkpt lat="41.13378834460743" lon="9.124073029364299"><ele>68.0</ele><time>2026-04-26T13:44:40Z</time></trkpt><trkpt lat="41.133967704351114" lon="9.124331957927817"><ele>65.0</ele><time>2026-04-26T13:44:41Z</time></trkpt><trkpt lat="41.134160584060155" lon="9.124587173852309"><ele>62.0</ele><time>2026-04-26T13:44:42Z</time></trkpt><trkpt lat="41.134370799805865" lon="9.124837693470852"><ele>63.0</ele><time>2026-04-26T13:44:43Z</time></trkpt><trkpt lat="41.1345910715833" lon="9.125080248996635"><ele>64.0</ele><time>2026-04-26T13:44:44Z</time></trkpt><trkpt lat="41.13480123501331" lon="9.125303666533863"><ele>60.5</ele><time>2026-04-26T13:44:45Z</time></trkpt><trkpt lat="41.13500106659815" lon="9.125514563183467"><ele>57.0</ele><time>2026-04-26T13:44:46Z</time></trkpt><trkpt lat="41.135188936597345" lon="9.125719826882976"><ele>59.5</ele><time>2026-04-26T13:44:47Z</time></trkpt><trkpt lat="41.13537436105371" lon="9.125921791979707"><ele>62.0</ele><time>2026-04-26T13:44:48Z</time></trkpt><trkpt lat="41.135567266802795" lon="9.126134130643825"><ele>61.0</ele><time>2026-04-26T13:44:49Z</time></trkpt><trkpt lat="41.135772939147934" lon="9.126356469936466"><ele>60.0</ele><time>2026-04-26T13:44:50Z</time></trkpt><trkpt lat="41.13598853110977" lon="9.126590475007196"><ele>60.0</ele><time>2026-04-26T13:44:51Z</time></trkpt><trkpt lat="41.13620094415697" lon="9.126822662471817"><ele>60.0</ele><time>2026-04-26T13:44:52Z</time></trkpt><trkpt lat="41.13639758148428" lon="9.127038027282326"><ele>59.0</ele><time>2026-04-26T13:44:53Z</time></trkpt><trkpt lat="41.13658543975479" lon="9.127243304814577"><ele>58.0</ele><time>2026-04-26T13:44:54Z</time></trkpt><trkpt lat="41.136765425050704" lon="9.127442719379085"><ele>57.0</ele><time>2026-04-26T13:44:55Z</time></trkpt><trkpt lat="41.13694832046613" lon="9.127638274633313"><ele>56.0</ele><time>2026-04-26T13:44:56Z</time></trkpt><trkpt lat="41.13713625577457" lon="9.127833317206255"><ele>56.0</ele><time>2026-04-26T13:44:57Z</time></trkpt><trkpt lat="41.13731258341555" lon="9.128036562830927"><ele>56.0</ele><time>2026-04-26T13:44:58Z</time></trkpt><trkpt lat="41.137496523416964" lon="9.128236809508996"><ele>55.0</ele><time>2026-04-26T13:44:59Z</time></trkpt><trkpt lat="41.137675690852774" lon="9.128434518178096"><ele>54.0</ele><time>2026-04-26T13:45:00Z</time></trkpt><trkpt lat="41.13785428888247" lon="9.128634598125954"><ele>54.0</ele><time>2026-04-26T13:45:01Z</time></trkpt><trkpt lat="41.13803764345076" lon="9.12883236562806"><ele>54.0</ele><time>2026-04-26T13:45:02Z</time></trkpt><trkpt lat="41.13821731681954" lon="9.129033138318242"><ele>52.0</ele><time>2026-04-26T13:45:03Z</time></trkpt><trkpt lat="41.138396625594176" lon="9.129226056839974"><ele>50.0</ele><time>2026-04-26T13:45:04Z</time></trkpt><trkpt lat="41.138573610694415" lon="9.129418303302641"><ele>50.0</ele><time>2026-04-26T13:45:05Z</time></trkpt><trkpt lat="41.138751360003994" lon="9.12961201611915"><ele>50.0</ele><time>2026-04-26T13:45:06Z</time></trkpt><trkpt lat="41.138924386314436" lon="9.129801787476683"><ele>48.5</ele><time>2026-04-26T13:45:07Z</time></trkpt><trkpt lat="41.13909735752478" lon="9.129992430972447"><ele>47.0</ele><time>2026-04-26T13:45:08Z</time></trkpt><trkpt lat="41.13927466712663" lon="9.13018332285897"><ele>47.0</ele><time>2026-04-26T13:45:09Z</time></trkpt><trkpt lat="41.1394593024649" lon="9.130385518675313"><ele>47.0</ele><time>2026-04-26T13:45:10Z</time></trkpt><trkpt lat="41.139644727236984" lon="9.130599764851253"><ele>47.0</ele><time>2026-04-26T13:45:11Z</time></trkpt><trkpt lat="41.13984270001996" lon="9.130809718588281"><ele>47.0</ele><time>2026-04-26T13:45:12Z</time></trkpt><trkpt lat="41.1400356730771" lon="9.13102531230147"><ele>44.0</ele><time>2026-04-26T13:45:13Z</time></trkpt><trkpt lat="41.14023347319315" lon="9.131244230882276"><ele>41.0</ele><time>2026-04-26T13:45:14Z</time></trkpt><trkpt lat="41.140441249970735" lon="9.131468860861037"><ele>41.0</ele><time>2026-04-26T13:45:15Z</time></trkpt><trkpt lat="41.14065372866286" lon="9.131694316427795"><ele>41.0</ele><time>2026-04-26T13:45:16Z</time></trkpt><trkpt lat="41.14087000570495" lon="9.131934344388801"><ele>41.0</ele><time>2026-04-26T13:45:17Z</time></trkpt><trkpt lat="41.14108592480155" lon="9.132168325368493"><ele>41.0</ele><time>2026-04-26T13:45:18Z</time></trkpt><trkpt lat="41.141285328551646" lon="9.132387312266946"><ele>42.0</ele><time>2026-04-26T13:45:19Z</time></trkpt><trkpt lat="41.14147403779159" lon="9.132591957792808"><ele>43.0</ele><time>2026-04-26T13:45:20Z</time></trkpt><trkpt lat="41.14165515250588" lon="9.1327844655447"><ele>41.0</ele><time>2026-04-26T13:45:21Z</time></trkpt><trkpt lat="41.14183789154277" lon="9.132961097237523"><ele>39.0</ele><time>2026-04-26T13:45:22Z</time></trkpt><trkpt lat="41.142022128438846" lon="9.133115673702106"><ele>37.0</ele><time>2026-04-26T13:45:23Z</time></trkpt><trkpt lat="41.14221667964854" lon="9.133250869996031"><ele>35.5</ele><time>2026-04-26T13:45:24Z</time></trkpt><trkpt lat="41.14242244256093" lon="9.133374017954058"><ele>34.0</ele><time>2026-04-26T13:45:25Z</time></trkpt><trkpt lat="41.14264405942132" lon="9.13348449037758"><ele>34.0</ele><time>2026-04-26T13:45:26Z</time></trkpt><trkpt lat="41.14288493766206" lon="9.133576164195995"><ele>34.0</ele><time>2026-04-26T13:45:27Z</time></trkpt><trkpt lat="41.14313490023938" lon="9.133649720624119"><ele>32.5</ele><time>2026-04-26T13:45:28Z</time></trkpt><trkpt lat="41.14339182062241" lon="9.13370540008015"><ele>31.0</ele><time>2026-04-26T13:45:29Z</time></trkpt><trkpt lat="41.14365830098039" lon="9.133747641134836"><ele>31.0</ele><time>2026-04-26T13:45:30Z</time></trkpt><trkpt lat="41.143929283025706" lon="9.133792891357968"><ele>31.0</ele><time>2026-04-26T13:45:31Z</time></trkpt><trkpt lat="41.14419962601813" lon="9.13384689213842"><ele>31.5</ele><time>2026-04-26T13:45:32Z</time></trkpt><trkpt lat="41.144456020084284" lon="9.133896934746177"><ele>32.0</ele><time>2026-04-26T13:45:33Z</time></trkpt><trkpt lat="41.14469719793709" lon="9.133940869045448"><ele>31.5</ele><time>2026-04-26T13:45:34Z</time></trkpt><trkpt lat="41.14494775959153" lon="9.133987101964365"><ele>31.0</ele><time>2026-04-26T13:45:35Z</time></trkpt><trkpt lat="41.145200158662746" lon="9.134035870030212"><ele>33.0</ele><time>2026-04-26T13:45:36Z</time></trkpt><trkpt lat="41.145433747913046" lon="9.134089322218813"><ele>35.0</ele><time>2026-04-26T13:45:37Z</time></trkpt><trkpt lat="41.14565521073822" lon="9.134153059411338"><ele>35.0</ele><time>2026-04-26T13:45:38Z</time></trkpt><trkpt lat="41.14586331482034" lon="9.134234620687545"><ele>35.0</ele><time>2026-04-26T13:45:39Z</time></trkpt><trkpt lat="41.14606578911541" lon="9.134328105723998"><ele>35.0</ele><time>2026-04-26T13:45:40Z</time></trkpt><trkpt lat="41.146267356714105" lon="9.134439601008909"><ele>35.0</ele><time>2026-04-26T13:45:41Z</time></trkpt><trkpt lat="41.14646363002475" lon="9.134569857578908"><ele>35.0</ele><time>2026-04-26T13:45:42Z</time></trkpt><trkpt lat="41.14665490677672" lon="9.13472084073182"><ele>35.0</ele><time>2026-04-26T13:45:43Z</time></trkpt><trkpt lat="41.146838938060256" lon="9.134892846309778"><ele>32.0</ele><time>2026-04-26T13:45:44Z</time></trkpt><trkpt lat="41.14701912263731" lon="9.135088335192743"><ele>29.0</ele><time>2026-04-26T13:45:45Z</time></trkpt><trkpt lat="41.14719261883527" lon="9.13529960174036"><ele>29.0</ele><time>2026-04-26T13:45:46Z</time></trkpt><trkpt lat="41.147347045707896" lon="9.135505040232331"><ele>29.0</ele><time>2026-04-26T13:45:47Z</time></trkpt><trkpt lat="41.147487746653326" lon="9.135716835665683"><ele>29.0</ele><time>2026-04-26T13:45:48Z</time></trkpt><trkpt lat="41.14761406228544" lon="9.135933089528868"><ele>28.0</ele><time>2026-04-26T13:45:49Z</time></trkpt><trkpt lat="41.14772518635444" lon="9.136149128482183"><ele>27.0</ele><time>2026-04-26T13:45:50Z</time></trkpt><trkpt lat="41.14783505597267" lon="9.136359727492891"><ele>26.0</ele><time>2026-04-26T13:45:51Z</time></trkpt><trkpt lat="41.14794871264451" lon="9.136571676476727"><ele>26.0</ele><time>2026-04-26T13:45:52Z</time></trkpt><trkpt lat="41.14806277308588" lon="9.136782957374432"><ele>26.0</ele><time>2026-04-26T13:45:53Z</time></trkpt><trkpt lat="41.14817640434842" lon="9.136992368214898"><ele>26.0</ele><time>2026-04-26T13:45:54Z</time></trkpt><trkpt lat="41.14829053166392" lon="9.137206329426178"><ele>26.0</ele><time>2026-04-26T13:45:55Z</time></trkpt><trkpt lat="41.148403424487476" lon="9.137421278827535"><ele>26.0</ele><time>2026-04-26T13:45:56Z</time></trkpt><trkpt lat="41.148516537964106" lon="9.137634100588302"><ele>26.0</ele><time>2026-04-26T13:45:57Z</time></trkpt><trkpt lat="41.14863226522131" lon="9.13784530572611"><ele>26.0</ele><time>2026-04-26T13:45:58Z</time></trkpt><trkpt lat="41.14874515827044" lon="9.138054012892502"><ele>26.0</ele><time>2026-04-26T13:45:59Z</time></trkpt><trkpt lat="41.14885714678077" lon="9.138261522534155"><ele>26.0</ele><time>2026-04-26T13:46:00Z</time></trkpt><trkpt lat="41.14896936917917" lon="9.138470252349721"><ele>26.333333333333332</ele><time>2026-04-26T13:46:01Z</time></trkpt><trkpt lat="41.14907895308953" lon="9.138678780163254"><ele>26.666666666666664</ele><time>2026-04-26T13:46:02Z</time></trkpt><trkpt lat="41.14918933705346" lon="9.138886385668032"><ele>27.0</ele><time>2026-04-26T13:46:03Z</time></trkpt><trkpt lat="41.14930417942202" lon="9.139095907182671"><ele>28.666666666666664</ele><time>2026-04-26T13:46:04Z</time></trkpt><trkpt lat="41.14942020659955" lon="9.1393105031761"><ele>30.333333333333332</ele><time>2026-04-26T13:46:05Z</time></trkpt><trkpt lat="41.14953159238733" lon="9.139536293126287"><ele>32.0</ele><time>2026-04-26T13:46:06Z</time></trkpt><trkpt lat="41.1496458216857" lon="9.139769998745889"><ele>32.666666666666664</ele><time>2026-04-26T13:46:07Z</time></trkpt><trkpt lat="41.149760267157774" lon="9.140000645879349"><ele>33.333333333333336</ele><time>2026-04-26T13:46:08Z</time></trkpt><trkpt lat="41.149885936134325" lon="9.140234113118066"><ele>34.0</ele><time>2026-04-26T13:46:09Z</time></trkpt><trkpt lat="41.15001460860475" lon="9.140471057650684"><ele>32.66666666666667</ele><time>2026-04-26T13:46:10Z</time></trkpt><trkpt lat="41.15014718018981" lon="9.140713474701231"><ele>31.333333333333336</ele><time>2026-04-26T13:46:11Z</time></trkpt><trkpt lat="41.1502712379345" lon="9.140937096294122"><ele>30.0</ele><time>2026-04-26T13:46:12Z</time></trkpt><trkpt lat="41.15038735276717" lon="9.141149791963766"><ele>30.0</ele><time>2026-04-26T13:46:13Z</time></trkpt><trkpt lat="41.15049969135824" lon="9.141360055348407"><ele>30.0</ele><time>2026-04-26T13:46:14Z</time></trkpt><trkpt lat="41.15060656650943" lon="9.141559612675845"><ele>30.0</ele><time>2026-04-26T13:46:15Z</time></trkpt><trkpt lat="41.150713499217815" lon="9.141752860868381"><ele>29.666666666666664</ele><time>2026-04-26T13:46:16Z</time></trkpt><trkpt lat="41.1508179111763" lon="9.141948960074114"><ele>29.333333333333332</ele><time>2026-04-26T13:46:17Z</time></trkpt><trkpt lat="41.15090567737179" lon="9.142149938787943"><ele>29.0</ele><time>2026-04-26T13:46:18Z</time></trkpt><trkpt lat="41.15098556768795" lon="9.142360791463114"><ele>31.666666666666664</ele><time>2026-04-26T13:46:19Z</time></trkpt><trkpt lat="41.15106134857125" lon="9.14257382139722"><ele>34.333333333333336</ele><time>2026-04-26T13:46:20Z</time></trkpt><trkpt lat="41.15113780857969" lon="9.142792736319599"><ele>37.0</ele><time>2026-04-26T13:46:21Z</time></trkpt><trkpt lat="41.151212918727516" lon="9.143009837134107"><ele>38.0</ele><time>2026-04-26T13:46:22Z</time></trkpt><trkpt lat="41.15129004822265" lon="9.14322878284485"><ele>39.0</ele><time>2026-04-26T13:46:23Z</time></trkpt><trkpt lat="41.1513726847312" lon="9.143456183639325"><ele>40.0</ele><time>2026-04-26T13:46:24Z</time></trkpt><trkpt lat="41.15145625731842" lon="9.14368460314786"><ele>40.0</ele><time>2026-04-26T13:46:25Z</time></trkpt><trkpt lat="41.151538261266936" lon="9.143917101453631"><ele>40.0</ele><time>2026-04-26T13:46:26Z</time></trkpt><trkpt lat="41.15161427717415" lon="9.144142551223073"><ele>40.0</ele><time>2026-04-26T13:46:27Z</time></trkpt><trkpt lat="41.15168742347933" lon="9.144359871555649"><ele>40.66666666666667</ele><time>2026-04-26T13:46:28Z</time></trkpt><trkpt lat="41.15176680304628" lon="9.144575833396035"><ele>41.333333333333336</ele><time>2026-04-26T13:46:29Z</time></trkpt><trkpt lat="41.151848278361705" lon="9.144803001746006"><ele>42.0</ele><time>2026-04-26T13:46:30Z</time></trkpt><trkpt lat="41.15193063010827" lon="9.145033728124814"><ele>42.0</ele><time>2026-04-26T13:46:31Z</time></trkpt><trkpt lat="41.15201945334272" lon="9.14526745865247"><ele>42.0</ele><time>2026-04-26T13:46:32Z</time></trkpt><trkpt lat="41.15211166273373" lon="9.145498116978422"><ele>42.0</ele><time>2026-04-26T13:46:33Z</time></trkpt><trkpt lat="41.152208955050035" lon="9.145733622553568"><ele>42.0</ele><time>2026-04-26T13:46:34Z</time></trkpt><trkpt lat="41.15231273427448" lon="9.145972589051507"><ele>42.0</ele><time>2026-04-26T13:46:35Z</time></trkpt><trkpt lat="41.1524279970451" lon="9.146231661209457"><ele>42.0</ele><time>2026-04-26T13:46:36Z</time></trkpt><trkpt lat="41.152550667090594" lon="9.14651027389486"><ele>36.5</ele><time>2026-04-26T13:46:37Z</time></trkpt><trkpt lat="41.152669246078155" lon="9.146780166398498"><ele>31.0</ele><time>2026-04-26T13:46:38Z</time></trkpt><trkpt lat="41.152783118166994" lon="9.147036796460789"><ele>31.0</ele><time>2026-04-26T13:46:39Z</time></trkpt><trkpt lat="41.15289257016189" lon="9.147283770813594"><ele>31.0</ele><time>2026-04-26T13:46:40Z</time></trkpt><trkpt lat="41.152999568965214" lon="9.147524062952208"><ele>31.0</ele><time>2026-04-26T13:46:41Z</time></trkpt><trkpt lat="41.15310499203643" lon="9.147759683142736"><ele>26.666666666666668</ele><time>2026-04-26T13:46:42Z</time></trkpt><trkpt lat="41.15320777801699" lon="9.147995152722846"><ele>22.333333333333336</ele><time>2026-04-26T13:46:43Z</time></trkpt><trkpt lat="41.15330984637783" lon="9.148227930629787"><ele>18.0</ele><time>2026-04-26T13:46:44Z</time></trkpt><trkpt lat="41.15341215954206" lon="9.148460489285114"><ele>18.0</ele><time>2026-04-26T13:46:45Z</time></trkpt><trkpt lat="41.153513426407365" lon="9.148690902386695"><ele>18.0</ele><time>2026-04-26T13:46:46Z</time></trkpt><trkpt lat="41.15361510128401" lon="9.148917074581425"><ele>18.0</ele><time>2026-04-26T13:46:47Z</time></trkpt><trkpt lat="41.15371560568766" lon="9.149140472932867"><ele>18.333333333333332</ele><time>2026-04-26T13:46:48Z</time></trkpt><trkpt lat="41.15381059151144" lon="9.149354676271502"><ele>18.666666666666664</ele><time>2026-04-26T13:46:49Z</time></trkpt><trkpt lat="41.15390092543919" lon="9.149561186423423"><ele>19.0</ele><time>2026-04-26T13:46:50Z</time></trkpt><trkpt lat="41.153981826642095" lon="9.149758263105914"><ele>16.666666666666664</ele><time>2026-04-26T13:46:51Z</time></trkpt><trkpt lat="41.15404793144649" lon="9.14995068438532"><ele>14.333333333333332</ele><time>2026-04-26T13:46:52Z</time></trkpt><trkpt lat="41.15410136475438" lon="9.150145764148876"><ele>12.0</ele><time>2026-04-26T13:46:53Z</time></trkpt><trkpt lat="41.15414329431877" lon="9.150341770896983"><ele>12.0</ele><time>2026-04-26T13:46:54Z</time></trkpt><trkpt lat="41.15418035810682" lon="9.150551245912128"><ele>12.0</ele><time>2026-04-26T13:46:55Z</time></trkpt><trkpt lat="41.15421027630643" lon="9.150765118889675"><ele>12.0</ele><time>2026-04-26T13:46:56Z</time></trkpt><trkpt lat="41.15423400911958" lon="9.150984463545344"><ele>13.0</ele><time>2026-04-26T13:46:57Z</time></trkpt><trkpt lat="41.15425146572796" lon="9.151209250060752"><ele>14.0</ele><time>2026-04-26T13:46:58Z</time></trkpt><trkpt lat="41.154257214301" lon="9.151425821406598"><ele>15.0</ele><time>2026-04-26T13:46:59Z</time></trkpt><trkpt lat="41.15425846637497" lon="9.151645897388748"><ele>15.333333333333332</ele><time>2026-04-26T13:47:00Z</time></trkpt><trkpt lat="41.154261838471974" lon="9.151856113652618"><ele>15.666666666666666</ele><time>2026-04-26T13:47:01Z</time></trkpt><trkpt lat="41.154271520308136" lon="9.152064349784226"><ele>16.0</ele><time>2026-04-26T13:47:02Z</time></trkpt><trkpt lat="41.15428107585689" lon="9.152246187921879"><ele>13.5</ele><time>2026-04-26T13:47:03Z</time></trkpt><trkpt lat="41.154300457348846" lon="9.152432210741285"><ele>11.0</ele><time>2026-04-26T13:47:04Z</time></trkpt><trkpt lat="41.15432780769596" lon="9.152612431300597"><ele>8.5</ele><time>2026-04-26T13:47:05Z</time></trkpt><trkpt lat="41.15435848778034" lon="9.152787835067514"><ele>6.0</ele><time>2026-04-26T13:47:06Z</time></trkpt><trkpt lat="41.15439304691306" lon="9.152950361141524"><ele>6.0</ele><time>2026-04-26T13:47:07Z</time></trkpt><trkpt lat="41.15443384555698" lon="9.15310764616985"><ele>6.0</ele><time>2026-04-26T13:47:08Z</time></trkpt><trkpt lat="41.154482032661" lon="9.153264968568955"><ele>6.0</ele><time>2026-04-26T13:47:09Z</time></trkpt><trkpt lat="41.15454046229327" lon="9.153433427207535"><ele>6.0</ele><time>2026-04-26T13:47:10Z</time></trkpt><trkpt lat="41.154614898768706" lon="9.153616924321902"><ele>6.333333333333334</ele><time>2026-04-26T13:47:11Z</time></trkpt><trkpt lat="41.154697483191136" lon="9.153807201278477"><ele>6.666666666666667</ele><time>2026-04-26T13:47:12Z</time></trkpt><trkpt lat="41.15479567561134" lon="9.154000189648205"><ele>7.0</ele><time>2026-04-26T13:47:13Z</time></trkpt><trkpt lat="41.15490971839742" lon="9.154189385924647"><ele>9.333333333333334</ele><time>2026-04-26T13:47:14Z</time></trkpt><trkpt lat="41.15504439981137" lon="9.154371713696563"><ele>11.666666666666668</ele><time>2026-04-26T13:47:15Z</time></trkpt><trkpt lat="41.15518561803601" lon="9.15457213284338"><ele>14.0</ele><time>2026-04-26T13:47:16Z</time></trkpt><trkpt lat="41.15534454612683" lon="9.154771337520113"><ele>23.5</ele><time>2026-04-26T13:47:17Z</time></trkpt><trkpt lat="41.15551719765415" lon="9.154966124633395"><ele>33.0</ele><time>2026-04-26T13:47:18Z</time></trkpt><trkpt lat="41.155680402021666" lon="9.155187924440545"><ele>27.5</ele><time>2026-04-26T13:47:19Z</time></trkpt><trkpt lat="41.15585264321799" lon="9.155415581116335"><ele>22.0</ele><time>2026-04-26T13:47:20Z</time></trkpt><trkpt lat="41.15600889394482" lon="9.155644451806802"><ele>27.0</ele><time>2026-04-26T13:47:21Z</time></trkpt><trkpt lat="41.15614869512949" lon="9.155886154822634"><ele>32.0</ele><time>2026-04-26T13:47:22Z</time></trkpt><trkpt lat="41.15627721605299" lon="9.156158723337791"><ele>32.0</ele><time>2026-04-26T13:47:23Z</time></trkpt><trkpt lat="41.15639526525639" lon="9.15644846167218"><ele>32.0</ele><time>2026-04-26T13:47:24Z</time></trkpt><trkpt lat="41.1565028193747" lon="9.156746475030568"><ele>29.0</ele><time>2026-04-26T13:47:25Z</time></trkpt><trkpt lat="41.15659261658522" lon="9.15704246018473"><ele>26.0</ele><time>2026-04-26T13:47:26Z</time></trkpt><trkpt lat="41.156674323935405" lon="9.1573638389519"><ele>30.0</ele><time>2026-04-26T13:47:27Z</time></trkpt><trkpt lat="41.15675086479843" lon="9.15769059326219"><ele>34.0</ele><time>2026-04-26T13:47:28Z</time></trkpt><trkpt lat="41.156833925337786" lon="9.158023151307944"><ele>35.5</ele><time>2026-04-26T13:47:29Z</time></trkpt><trkpt lat="41.15692218072648" lon="9.158362177581024"><ele>37.0</ele><time>2026-04-26T13:47:30Z</time></trkpt><trkpt lat="41.15701590246946" lon="9.158707100380312"><ele>38.0</ele><time>2026-04-26T13:47:31Z</time></trkpt><trkpt lat="41.157112716661075" lon="9.159057596268278"><ele>39.0</ele><time>2026-04-26T13:47:32Z</time></trkpt><trkpt lat="41.15720762838593" lon="9.15941527746313"><ele>39.0</ele><time>2026-04-26T13:47:33Z</time></trkpt><trkpt lat="41.1573037271613" lon="9.159778382398"><ele>39.0</ele><time>2026-04-26T13:47:34Z</time></trkpt><trkpt lat="41.157401044442075" lon="9.16014666603839"><ele>38.0</ele><time>2026-04-26T13:47:35Z</time></trkpt><trkpt lat="41.157498562860425" lon="9.160515617386913"><ele>37.0</ele><time>2026-04-26T13:47:36Z</time></trkpt><trkpt lat="41.157599580844746" lon="9.160890402750805"><ele>37.0</ele><time>2026-04-26T13:47:37Z</time></trkpt><trkpt lat="41.15769839440935" lon="9.16126046736862"><ele>37.0</ele><time>2026-04-26T13:47:38Z</time></trkpt><trkpt lat="41.15779702287383" lon="9.161637524989812"><ele>38.5</ele><time>2026-04-26T13:47:39Z</time></trkpt><trkpt lat="41.15788456041452" lon="9.161969870521208"><ele>40.0</ele><time>2026-04-26T13:47:40Z</time></trkpt><trkpt lat="41.15796386550545" lon="9.162273129963712"><ele>41.5</ele><time>2026-04-26T13:47:41Z</time></trkpt><trkpt lat="41.15804529792638" lon="9.162574201674406"><ele>43.0</ele><time>2026-04-26T13:47:42Z</time></trkpt><trkpt lat="41.158130176543295" lon="9.162880690218062"><ele>39.5</ele><time>2026-04-26T13:47:43Z</time></trkpt><trkpt lat="41.15821473295992" lon="9.163186853817148"><ele>36.0</ele><time>2026-04-26T13:47:44Z</time></trkpt><trkpt lat="41.1582957896725" lon="9.163491611138953"><ele>36.0</ele><time>2026-04-26T13:47:45Z</time></trkpt><trkpt lat="41.158376932486604" lon="9.163797007887181"><ele>36.0</ele><time>2026-04-26T13:47:46Z</time></trkpt><trkpt lat="41.1584580377088" lon="9.164106620896032"><ele>38.0</ele><time>2026-04-26T13:47:47Z</time></trkpt><trkpt lat="41.158541317449554" lon="9.164416642739797"><ele>40.0</ele><time>2026-04-26T13:47:48Z</time></trkpt><trkpt lat="41.158627487979125" lon="9.164738370241645"><ele>41.0</ele><time>2026-04-26T13:47:49Z</time></trkpt><trkpt lat="41.158717504083924" lon="9.165070687277385"><ele>42.0</ele><time>2026-04-26T13:47:50Z</time></trkpt><trkpt lat="41.158810821721346" lon="9.16541227173848"><ele>42.0</ele><time>2026-04-26T13:47:51Z</time></trkpt><trkpt lat="41.158904768335404" lon="9.16576265691774"><ele>42.0</ele><time>2026-04-26T13:47:52Z</time></trkpt><trkpt lat="41.15899989410481" lon="9.166121125698611"><ele>38.5</ele><time>2026-04-26T13:47:53Z</time></trkpt><trkpt lat="41.159091842899336" lon="9.166470590163696"><ele>35.0</ele><time>2026-04-26T13:47:54Z</time></trkpt><trkpt lat="41.15917833932593" lon="9.166795037789528"><ele>35.0</ele><time>2026-04-26T13:47:55Z</time></trkpt><trkpt lat="41.15926026289141" lon="9.167103443324658"><ele>35.0</ele><time>2026-04-26T13:47:56Z</time></trkpt><trkpt lat="41.159343522823676" lon="9.167409946000136"><ele>35.5</ele><time>2026-04-26T13:47:57Z</time></trkpt><trkpt lat="41.15942781663798" lon="9.167717906886272"><ele>36.0</ele><time>2026-04-26T13:47:58Z</time></trkpt><trkpt lat="41.15951071294374" lon="9.168023985506563"><ele>35.5</ele><time>2026-04-26T13:47:59Z</time></trkpt><trkpt lat="41.15959108953499" lon="9.168328142525347"><ele>35.0</ele><time>2026-04-26T13:48:00Z</time></trkpt><trkpt lat="41.159669149444" lon="9.168631401292778"><ele>35.0</ele><time>2026-04-26T13:48:01Z</time></trkpt><trkpt lat="41.15974672040302" lon="9.168928863678001"><ele>35.0</ele><time>2026-04-26T13:48:02Z</time></trkpt><trkpt lat="41.15982627791303" lon="9.169220459462313"><ele>31.5</ele><time>2026-04-26T13:48:03Z</time></trkpt><trkpt lat="41.15990283767947" lon="9.169508637454557"><ele>28.0</ele><time>2026-04-26T13:48:04Z</time></trkpt><trkpt lat="41.15998935719249" lon="9.169782082839314"><ele>28.0</ele><time>2026-04-26T13:48:05Z</time></trkpt><trkpt lat="41.16009689745081" lon="9.170059570271512"><ele>28.0</ele><time>2026-04-26T13:48:06Z</time></trkpt><trkpt lat="41.16020784364724" lon="9.170351365699227"><ele>28.0</ele><time>2026-04-26T13:48:07Z</time></trkpt><trkpt lat="41.16032090893148" lon="9.170654667505415"><ele>28.0</ele><time>2026-04-26T13:48:08Z</time></trkpt><trkpt lat="41.160541426010774" lon="9.170892652932908"><ele>34.0</ele><time>2026-04-26T13:48:09Z</time></trkpt><trkpt lat="41.16072620990292" lon="9.171150784190006"><ele>40.0</ele><time>2026-04-26T13:48:10Z</time></trkpt><trkpt lat="41.16092723364043" lon="9.171392290768088"><ele>41.5</ele><time>2026-04-26T13:48:11Z</time></trkpt><trkpt lat="41.16114225503916" lon="9.171615759339975"><ele>43.0</ele><time>2026-04-26T13:48:12Z</time></trkpt><trkpt lat="41.16136450224514" lon="9.171812247349951"><ele>43.5</ele><time>2026-04-26T13:48:13Z</time></trkpt><trkpt lat="41.161577336735554" lon="9.17197213072165"><ele>44.0</ele><time>2026-04-26T13:48:14Z</time></trkpt><trkpt lat="41.16177739804802" lon="9.17209915600713"><ele>44.0</ele><time>2026-04-26T13:48:15Z</time></trkpt><trkpt lat="41.16195312707508" lon="9.172192412807487"><ele>44.0</ele><time>2026-04-26T13:48:16Z</time></trkpt><trkpt lat="41.162104166916365" lon="9.172255824443624"><ele>44.0</ele><time>2026-04-26T13:48:17Z</time></trkpt><trkpt lat="41.16224496593934" lon="9.172312361139687"><ele>46.0</ele><time>2026-04-26T13:48:18Z</time></trkpt><trkpt lat="41.16237375902914" lon="9.172359626254593"><ele>48.0</ele><time>2026-04-26T13:48:19Z</time></trkpt><trkpt lat="41.16249193231999" lon="9.172403730458672"><ele>50.0</ele><time>2026-04-26T13:48:20Z</time></trkpt><trkpt lat="41.1626001218286" lon="9.172441092505029"><ele>52.0</ele><time>2026-04-26T13:48:21Z</time></trkpt><trkpt lat="41.16271266618699" lon="9.172476783600093"><ele>52.0</ele><time>2026-04-26T13:48:22Z</time></trkpt><trkpt lat="41.16282978820552" lon="9.172524530248001"><ele>52.0</ele><time>2026-04-26T13:48:23Z</time></trkpt><trkpt lat="41.16294919926738" lon="9.172568159428138"><ele>52.0</ele><time>2026-04-26T13:48:24Z</time></trkpt><trkpt lat="41.163063272675195" lon="9.172618758001862"><ele>52.0</ele><time>2026-04-26T13:48:25Z</time></trkpt><trkpt lat="41.163173416642195" lon="9.172657526822665"><ele>53.0</ele><time>2026-04-26T13:48:26Z</time></trkpt><trkpt lat="41.16328367563608" lon="9.172707360014519"><ele>54.0</ele><time>2026-04-26T13:48:27Z</time></trkpt><trkpt lat="41.16339683923118" lon="9.17275101836246"><ele>55.0</ele><time>2026-04-26T13:48:28Z</time></trkpt><trkpt lat="41.16351337118277" lon="9.172795398833212"><ele>56.0</ele><time>2026-04-26T13:48:29Z</time></trkpt><trkpt lat="41.16363228167131" lon="9.17283643141384"><ele>56.0</ele><time>2026-04-26T13:48:30Z</time></trkpt><trkpt lat="41.16375861304627" lon="9.172869927140132"><ele>56.0</ele><time>2026-04-26T13:48:31Z</time></trkpt><trkpt lat="41.163884907988894" lon="9.172922844732128"><ele>56.0</ele><time>2026-04-26T13:48:32Z</time></trkpt><trkpt lat="41.16401666689279" lon="9.17298063385811"><ele>56.0</ele><time>2026-04-26T13:48:33Z</time></trkpt><trkpt lat="41.164149029548405" lon="9.173032031305269"><ele>56.0</ele><time>2026-04-26T13:48:34Z</time></trkpt><trkpt lat="41.16427686714244" lon="9.173076349954645"><ele>56.0</ele><time>2026-04-26T13:48:35Z</time></trkpt><trkpt lat="41.164410874286496" lon="9.17312380938774"><ele>56.0</ele><time>2026-04-26T13:48:36Z</time></trkpt><trkpt lat="41.164540976779776" lon="9.173173829691631"><ele>56.0</ele><time>2026-04-26T13:48:37Z</time></trkpt><trkpt lat="41.16466191173031" lon="9.173220046049526"><ele>55.5</ele><time>2026-04-26T13:48:38Z</time></trkpt><trkpt lat="41.16478053637365" lon="9.173263652511956"><ele>55.0</ele><time>2026-04-26T13:48:39Z</time></trkpt><trkpt lat="41.164902285995524" lon="9.173314242833458"><ele>54.5</ele><time>2026-04-26T13:48:40Z</time></trkpt><trkpt lat="41.16502726180116" lon="9.173350210608664"><ele>54.0</ele><time>2026-04-26T13:48:41Z</time></trkpt><trkpt lat="41.16516621116522" lon="9.173406743286069"><ele>54.0</ele><time>2026-04-26T13:48:42Z</time></trkpt><trkpt lat="41.16531329035169" lon="9.173464718627024"><ele>54.0</ele><time>2026-04-26T13:48:43Z</time></trkpt><trkpt lat="41.16545082642871" lon="9.173514056685221"><ele>54.0</ele><time>2026-04-26T13:48:44Z</time></trkpt><trkpt lat="41.16558029252426" lon="9.173565558501096"><ele>54.0</ele><time>2026-04-26T13:48:45Z</time></trkpt><trkpt lat="41.1657054421492" lon="9.173615953554755"><ele>54.0</ele><time>2026-04-26T13:48:46Z</time></trkpt><trkpt lat="41.16583124577639" lon="9.173663873495007"><ele>54.0</ele><time>2026-04-26T13:48:47Z</time></trkpt><trkpt lat="41.16596707913295" lon="9.173708859442817"><ele>54.0</ele><time>2026-04-26T13:48:48Z</time></trkpt><trkpt lat="41.16611022388002" lon="9.17376876054522"><ele>54.0</ele><time>2026-04-26T13:48:49Z</time></trkpt><trkpt lat="41.16626094314417" lon="9.17382822756713"><ele>54.0</ele><time>2026-04-26T13:48:50Z</time></trkpt><trkpt lat="41.16640372352602" lon="9.17388476135614"><ele>54.0</ele><time>2026-04-26T13:48:51Z</time></trkpt><trkpt lat="41.16652709077056" lon="9.173930154971234"><ele>54.0</ele><time>2026-04-26T13:48:52Z</time></trkpt><trkpt lat="41.16663027954142" lon="9.173972811144283"><ele>54.0</ele><time>2026-04-26T13:48:53Z</time></trkpt><trkpt lat="41.16673587870348" lon="9.174015163821426"><ele>52.400000000000006</ele><time>2026-04-26T13:48:54Z</time></trkpt><trkpt lat="41.16684059308873" lon="9.174058744329379"><ele>50.800000000000004</ele><time>2026-04-26T13:48:55Z</time></trkpt><trkpt lat="41.1669321659806" lon="9.174086781735127"><ele>49.2</ele><time>2026-04-26T13:48:56Z</time></trkpt><trkpt lat="41.167010759278895" lon="9.17410633221189"><ele>47.599999999999994</ele><time>2026-04-26T13:48:57Z</time></trkpt><trkpt lat="41.16709183939615" lon="9.174139514606546"><ele>46.0</ele><time>2026-04-26T13:48:58Z</time></trkpt><trkpt lat="41.16717029030632" lon="9.174172449645154"><ele>46.0</ele><time>2026-04-26T13:48:59Z</time></trkpt><trkpt lat="41.167253572018794" lon="9.174201731751365"><ele>46.0</ele><time>2026-04-26T13:49:00Z</time></trkpt><trkpt lat="41.16733316437593" lon="9.174233045634477"><ele>46.0</ele><time>2026-04-26T13:49:01Z</time></trkpt><trkpt lat="41.16741332318281" lon="9.174260958347304"><ele>46.0</ele><time>2026-04-26T13:49:02Z</time></trkpt><trkpt lat="41.167505857620725" lon="9.17429747098286"><ele>46.0</ele><time>2026-04-26T13:49:03Z</time></trkpt><trkpt lat="41.167621352480545" lon="9.174340639342203"><ele>43.75</ele><time>2026-04-26T13:49:04Z</time></trkpt><trkpt lat="41.167754904404305" lon="9.174389365086217"><ele>41.5</ele><time>2026-04-26T13:49:05Z</time></trkpt><trkpt lat="41.16788287407649" lon="9.174438404696879"><ele>39.25</ele><time>2026-04-26T13:49:06Z</time></trkpt><trkpt lat="41.16800384908459" lon="9.174486677019031"><ele>37.0</ele><time>2026-04-26T13:49:07Z</time></trkpt><trkpt lat="41.16812096737651" lon="9.174531067682889"><ele>34.5</ele><time>2026-04-26T13:49:08Z</time></trkpt><trkpt lat="41.16823761292282" lon="9.174574684563694"><ele>32.0</ele><time>2026-04-26T13:49:09Z</time></trkpt><trkpt lat="41.16834628075254" lon="9.174616507133889"><ele>29.5</ele><time>2026-04-26T13:49:10Z</time></trkpt><trkpt lat="41.16845225232235" lon="9.174658074784892"><ele>27.0</ele><time>2026-04-26T13:49:11Z</time></trkpt><trkpt lat="41.16855740426952" lon="9.17469942747468"><ele>27.0</ele><time>2026-04-26T13:49:12Z</time></trkpt><trkpt lat="41.16865877555397" lon="9.174739091180083"><ele>27.0</ele><time>2026-04-26T13:49:13Z</time></trkpt><trkpt lat="41.168751121470116" lon="9.17477558177407"><ele>27.0</ele><time>2026-04-26T13:49:14Z</time></trkpt><trkpt lat="41.16883297113651" lon="9.174807752791875"><ele>27.0</ele><time>2026-04-26T13:49:15Z</time></trkpt><trkpt lat="41.16890424156142" lon="9.174835040839904"><ele>27.0</ele><time>2026-04-26T13:49:16Z</time></trkpt><trkpt lat="41.168964656281396" lon="9.174862447456052"><ele>27.0</ele><time>2026-04-26T13:49:17Z</time></trkpt><trkpt lat="41.16904747502831" lon="9.17491055982025"><ele>27.6</ele><time>2026-04-26T13:49:19Z</time></trkpt><trkpt lat="41.16907401813464" lon="9.175019778523259"><ele>28.200000000000003</ele><time>2026-04-26T13:49:21Z</time></trkpt><trkpt lat="41.16904845063328" lon="9.17511440614119"><ele>28.8</ele><time>2026-04-26T13:49:22Z</time></trkpt><trkpt lat="41.16900365495957" lon="9.175217269398035"><ele>29.4</ele><time>2026-04-26T13:49:23Z</time></trkpt><trkpt lat="41.16895898893634" lon="9.175337773771746"><ele>30.0</ele><time>2026-04-26T13:49:24Z</time></trkpt><trkpt lat="41.16888294402054" lon="9.175480597264466"><ele>30.0</ele><time>2026-04-26T13:49:25Z</time></trkpt><trkpt lat="41.16877722899477" lon="9.175641295194866"><ele>30.0</ele><time>2026-04-26T13:49:26Z</time></trkpt><trkpt lat="41.168649259147706" lon="9.175811320130737"><ele>30.0</ele><time>2026-04-26T13:49:27Z</time></trkpt><trkpt lat="41.16850489659951" lon="9.175984289020606"><ele>31.333333333333336</ele><time>2026-04-26T13:49:28Z</time></trkpt><trkpt lat="41.16836116255722" lon="9.1761290405197"><ele>32.66666666666667</ele><time>2026-04-26T13:49:29Z</time></trkpt><trkpt lat="41.16822044336487" lon="9.176243550098354"><ele>34.0</ele><time>2026-04-26T13:49:30Z</time></trkpt><trkpt lat="41.16810192470175" lon="9.176340786879747"><ele>35.6</ele><time>2026-04-26T13:49:31Z</time></trkpt><trkpt lat="41.16800716187696" lon="9.176440964040541"><ele>37.2</ele><time>2026-04-26T13:49:32Z</time></trkpt><trkpt lat="41.16794544404213" lon="9.176547547955108"><ele>38.800000000000004</ele><time>2026-04-26T13:49:33Z</time></trkpt><trkpt lat="41.16791211484196" lon="9.176659269758238"><ele>40.4</ele><time>2026-04-26T13:49:34Z</time></trkpt><trkpt lat="41.16787250646014" lon="9.176756045023819"><ele>42.0</ele><time>2026-04-26T13:49:35Z</time></trkpt><trkpt lat="41.167828122449734" lon="9.17683214792616"><ele>42.5</ele><time>2026-04-26T13:49:36Z</time></trkpt><trkpt lat="41.167749009235465" lon="9.176944460115736"><ele>43.0</ele><time>2026-04-26T13:49:38Z</time></trkpt><trkpt lat="41.167742426912696" lon="9.177127458560385"><ele>43.5</ele><time>2026-04-26T13:49:40Z</time></trkpt><trkpt lat="41.16774395769925" lon="9.177250614099284"><ele>44.0</ele><time>2026-04-26T13:49:41Z</time></trkpt><trkpt lat="41.16774409601315" lon="9.177396505377756"><ele>42.75</ele><time>2026-04-26T13:49:42Z</time></trkpt><trkpt lat="41.16773678888733" lon="9.177554631894806"><ele>41.5</ele><time>2026-04-26T13:49:43Z</time></trkpt><trkpt lat="41.167687123663924" lon="9.177710997246239"><ele>40.25</ele><time>2026-04-26T13:49:44Z</time></trkpt><trkpt lat="41.167641200172575" lon="9.177907063951759"><ele>39.0</ele><time>2026-04-26T13:49:45Z</time></trkpt><trkpt lat="41.16756400021551" lon="9.178107563808092"><ele>39.0</ele><time>2026-04-26T13:49:46Z</time></trkpt><trkpt lat="41.16750488901084" lon="9.17829813774043"><ele>39.0</ele><time>2026-04-26T13:49:47Z</time></trkpt><trkpt lat="41.16746962973947" lon="9.178486234281472"><ele>39.0</ele><time>2026-04-26T13:49:48Z</time></trkpt><trkpt lat="41.167449160155975" lon="9.178689699923886"><ele>39.0</ele><time>2026-04-26T13:49:49Z</time></trkpt><trkpt lat="41.16743739046924" lon="9.178919613553546"><ele>39.0</ele><time>2026-04-26T13:49:50Z</time></trkpt><trkpt lat="41.16742459763305" lon="9.179162958262149"><ele>39.0</ele><time>2026-04-26T13:49:51Z</time></trkpt><trkpt lat="41.16740494939156" lon="9.179401986760709"><ele>40.333333333333336</ele><time>2026-04-26T13:49:52Z</time></trkpt><trkpt lat="41.167385566939195" lon="9.179633533761349"><ele>41.66666666666667</ele><time>2026-04-26T13:49:53Z</time></trkpt><trkpt lat="41.167364360330446" lon="9.179874160090435"><ele>43.0</ele><time>2026-04-26T13:49:54Z</time></trkpt><trkpt lat="41.167346325185065" lon="9.180108774355723"><ele>44.66666666666667</ele><time>2026-04-26T13:49:55Z</time></trkpt><trkpt lat="41.167327677275765" lon="9.180344055894079"><ele>46.333333333333336</ele><time>2026-04-26T13:49:56Z</time></trkpt><trkpt lat="41.16730852244997" lon="9.180559979469786"><ele>48.0</ele><time>2026-04-26T13:49:57Z</time></trkpt><trkpt lat="41.16728144270338" lon="9.180756124975732"><ele>48.5</ele><time>2026-04-26T13:49:58Z</time></trkpt><trkpt lat="41.167245725627275" lon="9.180940152041147"><ele>49.0</ele><time>2026-04-26T13:49:59Z</time></trkpt><trkpt lat="41.167210991532016" lon="9.181123786014162"><ele>49.5</ele><time>2026-04-26T13:50:00Z</time></trkpt><trkpt lat="41.167183584906304" lon="9.181316210997629"><ele>50.0</ele><time>2026-04-26T13:50:01Z</time></trkpt><trkpt lat="41.16716065780166" lon="9.18151610847423"><ele>51.0</ele><time>2026-04-26T13:50:02Z</time></trkpt><trkpt lat="41.16713086004025" lon="9.181730185112867"><ele>52.0</ele><time>2026-04-26T13:50:03Z</time></trkpt><trkpt lat="41.16710678577804" lon="9.181924552341059"><ele>53.0</ele><time>2026-04-26T13:50:04Z</time></trkpt><trkpt lat="41.167085963336646" lon="9.182098395434766"><ele>54.0</ele><time>2026-04-26T13:50:05Z</time></trkpt><trkpt lat="41.16706831435039" lon="9.182260674917973"><ele>54.6</ele><time>2026-04-26T13:50:06Z</time></trkpt><trkpt lat="41.167064623541464" lon="9.182417333205846"><ele>55.2</ele><time>2026-04-26T13:50:07Z</time></trkpt><trkpt lat="41.16706985992208" lon="9.182562746396025"><ele>55.800000000000004</ele><time>2026-04-26T13:50:08Z</time></trkpt><trkpt lat="41.167054105108" lon="9.182704491959548"><ele>56.400000000000006</ele><time>2026-04-26T13:50:09Z</time></trkpt><trkpt lat="41.16704552380483" lon="9.182837076012838"><ele>57.0</ele><time>2026-04-26T13:50:10Z</time></trkpt><trkpt lat="41.16700242321762" lon="9.182981070227596"><ele>57.0</ele><time>2026-04-26T13:50:11Z</time></trkpt><trkpt lat="41.166941562188356" lon="9.183138111816437"><ele>57.0</ele><time>2026-04-26T13:50:12Z</time></trkpt><trkpt lat="41.16688210524425" lon="9.183278874321363"><ele>57.0</ele><time>2026-04-26T13:50:13Z</time></trkpt><trkpt lat="41.16682185633767" lon="9.183373274345959"><ele>57.0</ele><time>2026-04-26T13:50:14Z</time></trkpt><trkpt lat="41.16677881181394" lon="9.183467673582866"><ele>57.0</ele><time>2026-04-26T13:50:15Z</time></trkpt><trkpt lat="41.1667297447706" lon="9.183580279468533"><ele>58.0</ele><time>2026-04-26T13:50:16Z</time></trkpt><trkpt lat="41.1666998195207" lon="9.183710502254977"><ele>59.0</ele><time>2026-04-26T13:50:17Z</time></trkpt><trkpt lat="41.16665902245037" lon="9.183856375843877"><ele>60.0</ele><time>2026-04-26T13:50:18Z</time></trkpt><trkpt lat="41.166611224651795" lon="9.184026622054157"><ele>61.0</ele><time>2026-04-26T13:50:19Z</time></trkpt><trkpt lat="41.166524762176074" lon="9.184184424748148"><ele>63.0</ele><time>2026-04-26T13:50:20Z</time></trkpt><trkpt lat="41.166441234083734" lon="9.184340550628933"><ele>65.0</ele><time>2026-04-26T13:50:21Z</time></trkpt><trkpt lat="41.166360000530226" lon="9.184458095420174"><ele>67.0</ele><time>2026-04-26T13:50:22Z</time></trkpt><trkpt lat="41.16627957786836" lon="9.184573384388662"><ele>69.0</ele><time>2026-04-26T13:50:23Z</time></trkpt><trkpt lat="41.16619618127437" lon="9.184700364110252"><ele>69.0</ele><time>2026-04-26T13:50:24Z</time></trkpt><trkpt lat="41.1661023566175" lon="9.184817326436688"><ele>69.0</ele><time>2026-04-26T13:50:25Z</time></trkpt><trkpt lat="41.166030767720045" lon="9.184930041305654"><ele>69.0</ele><time>2026-04-26T13:50:26Z</time></trkpt><trkpt lat="41.16597067561511" lon="9.185039791270736"><ele>69.0</ele><time>2026-04-26T13:50:27Z</time></trkpt><trkpt lat="41.16592666528146" lon="9.185176246530315"><ele>69.0</ele><time>2026-04-26T13:50:28Z</time></trkpt><trkpt lat="41.16589276827368" lon="9.18535513324616"><ele>69.0</ele><time>2026-04-26T13:50:29Z</time></trkpt><trkpt lat="41.165862252449685" lon="9.18554257223658"><ele>69.0</ele><time>2026-04-26T13:50:30Z</time></trkpt><trkpt lat="41.16582811179842" lon="9.18569655172055"><ele>69.0</ele><time>2026-04-26T13:50:31Z</time></trkpt><trkpt lat="41.165795636801946" lon="9.185828815518574"><ele>70.0</ele><time>2026-04-26T13:50:32Z</time></trkpt><trkpt lat="41.16576497218975" lon="9.185946405203378"><ele>71.0</ele><time>2026-04-26T13:50:33Z</time></trkpt><trkpt lat="41.16572691542643" lon="9.18604087176807"><ele>72.0</ele><time>2026-04-26T13:50:34Z</time></trkpt><trkpt lat="41.165696026422346" lon="9.18611974377099"><ele>73.0</ele><time>2026-04-26T13:50:35Z</time></trkpt><trkpt lat="41.16575202907711" lon="9.186253645906529"><ele>74.0</ele><time>2026-04-26T13:50:36Z</time></trkpt><trkpt lat="41.16579169294928" lon="9.186392154349633"><ele>75.33333333333334</ele><time>2026-04-26T13:50:37Z</time></trkpt><trkpt lat="41.16584654543682" lon="9.186561957537911"><ele>76.66666666666667</ele><time>2026-04-26T13:50:38Z</time></trkpt><trkpt lat="41.16591447600874" lon="9.18676672999387"><ele>78.0</ele><time>2026-04-26T13:50:39Z</time></trkpt><trkpt lat="41.165971722122286" lon="9.186951546203362"><ele>78.0</ele><time>2026-04-26T13:50:40Z</time></trkpt><trkpt lat="41.16602042995598" lon="9.18710795583322"><ele>78.0</ele><time>2026-04-26T13:50:41Z</time></trkpt><trkpt lat="41.16607084733882" lon="9.187247225880567"><ele>78.0</ele><time>2026-04-26T13:50:42Z</time></trkpt><trkpt lat="41.166133027377256" lon="9.187368159263729"><ele>78.0</ele><time>2026-04-26T13:50:43Z</time></trkpt><trkpt lat="41.166211619124454" lon="9.187486058586943"><ele>77.25</ele><time>2026-04-26T13:50:44Z</time></trkpt><trkpt lat="41.16630564347515" lon="9.18761382354103"><ele>76.5</ele><time>2026-04-26T13:50:45Z</time></trkpt><trkpt lat="41.166409251096134" lon="9.187745385793622"><ele>75.75</ele><time>2026-04-26T13:50:46Z</time></trkpt><trkpt lat="41.16650674128517" lon="9.187876325807386"><ele>75.0</ele><time>2026-04-26T13:50:47Z</time></trkpt><trkpt lat="41.166587601043865" lon="9.187995153210894"><ele>75.0</ele><time>2026-04-26T13:50:48Z</time></trkpt><trkpt lat="41.16664325220198" lon="9.188098100692871"><ele>75.0</ele><time>2026-04-26T13:50:49Z</time></trkpt><trkpt lat="41.16667290498945" lon="9.188177771633715"><ele>75.0</ele><time>2026-04-26T13:50:50Z</time></trkpt><trkpt lat="41.16667860631216" lon="9.18836239527991"><ele>75.0</ele><time>2026-04-26T13:50:52Z</time></trkpt><trkpt lat="41.16666729451946" lon="9.188469582143414"><ele>75.0</ele><time>2026-04-26T13:50:53Z</time></trkpt><trkpt lat="41.16665300361923" lon="9.188565313458431"><ele>74.8</ele><time>2026-04-26T13:50:54Z</time></trkpt><trkpt lat="41.16662810639547" lon="9.188703691407426"><ele>74.6</ele><time>2026-04-26T13:50:56Z</time></trkpt><trkpt lat="41.166666533538006" lon="9.18848470512467"><ele>74.4</ele><time>2026-04-26T13:51:11Z</time></trkpt><trkpt lat="41.16667164681827" lon="9.188387620332813"><ele>74.2</ele><time>2026-04-26T13:51:12Z</time></trkpt><trkpt lat="41.16669434583521" lon="9.18826300954319"><ele>74.0</ele><time>2026-04-26T13:51:14Z</time></trkpt><trkpt lat="41.16679926547345" lon="9.188273827131384"><ele>74.0</ele><time>2026-04-26T13:51:17Z</time></trkpt><trkpt lat="41.16685010120711" lon="9.188368276337545"><ele>74.0</ele><time>2026-04-26T13:51:18Z</time></trkpt><trkpt lat="41.166897925369796" lon="9.188466472039181"><ele>74.0</ele><time>2026-04-26T13:51:19Z</time></trkpt><trkpt lat="41.16694436366121" lon="9.1885751226497"><ele>74.0</ele><time>2026-04-26T13:51:20Z</time></trkpt><trkpt lat="41.16698392331891" lon="9.188727296288963"><ele>74.0</ele><time>2026-04-26T13:51:21Z</time></trkpt><trkpt lat="41.1670190728994" lon="9.188912890964405"><ele>74.0</ele><time>2026-04-26T13:51:22Z</time></trkpt><trkpt lat="41.167053193762776" lon="9.189098467893789"><ele>74.0</ele><time>2026-04-26T13:51:23Z</time></trkpt><trkpt lat="41.167089794758596" lon="9.189257175720503"><ele>74.0</ele><time>2026-04-26T13:51:24Z</time></trkpt><trkpt lat="41.1671175309238" lon="9.189400624321657"><ele>74.0</ele><time>2026-04-26T13:51:25Z</time></trkpt><trkpt lat="41.167142466784064" lon="9.189530277130201"><ele>74.0</ele><time>2026-04-26T13:51:26Z</time></trkpt><trkpt lat="41.167170569247936" lon="9.189641679859406"><ele>74.0</ele><time>2026-04-26T13:51:27Z</time></trkpt><trkpt lat="41.16722422690488" lon="9.18974094548895"><ele>74.0</ele><time>2026-04-26T13:51:28Z</time></trkpt><trkpt lat="41.16731247969598" lon="9.189861776642614"><ele>74.0</ele><time>2026-04-26T13:51:29Z</time></trkpt><trkpt lat="41.16742122627177" lon="9.18998510535446"><ele>73.25</ele><time>2026-04-26T13:51:30Z</time></trkpt><trkpt lat="41.167530120818405" lon="9.190101916914674"><ele>72.5</ele><time>2026-04-26T13:51:31Z</time></trkpt><trkpt lat="41.16763049390501" lon="9.1901965257865"><ele>71.75</ele><time>2026-04-26T13:51:32Z</time></trkpt><trkpt lat="41.16771450192102" lon="9.19027080405537"><ele>71.0</ele><time>2026-04-26T13:51:33Z</time></trkpt><trkpt lat="41.16779124400983" lon="9.190353369503608"><ele>71.0</ele><time>2026-04-26T13:51:34Z</time></trkpt><trkpt lat="41.167864921302915" lon="9.190435350029686"><ele>71.0</ele><time>2026-04-26T13:51:35Z</time></trkpt><trkpt lat="41.16794630970404" lon="9.19050662915004"><ele>71.0</ele><time>2026-04-26T13:51:36Z</time></trkpt><trkpt lat="41.16801102419485" lon="9.19058289536476"><ele>71.0</ele><time>2026-04-26T13:51:37Z</time></trkpt><trkpt lat="41.168074080726754" lon="9.190648906749667"><ele>71.0</ele><time>2026-04-26T13:51:38Z</time></trkpt><trkpt lat="41.16818807177682" lon="9.190749348787508"><ele>68.2</ele><time>2026-04-26T13:51:40Z</time></trkpt><trkpt lat="41.168281939207596" lon="9.190769273717812"><ele>65.39999999999999</ele><time>2026-04-26T13:51:41Z</time></trkpt><trkpt lat="41.16838715003115" lon="9.190785407579055"><ele>62.6</ele><time>2026-04-26T13:51:42Z</time></trkpt><trkpt lat="41.168488142559404" lon="9.190838672184434"><ele>59.8</ele><time>2026-04-26T13:51:43Z</time></trkpt><trkpt lat="41.168588842536074" lon="9.190897802292136"><ele>57.0</ele><time>2026-04-26T13:51:44Z</time></trkpt><trkpt lat="41.16868996916612" lon="9.190958106894659"><ele>57.0</ele><time>2026-04-26T13:51:45Z</time></trkpt><trkpt lat="41.168790738748" lon="9.190988903342134"><ele>57.0</ele><time>2026-04-26T13:51:46Z</time></trkpt><trkpt lat="41.168871623278505" lon="9.19101867198115"><ele>57.0</ele><time>2026-04-26T13:51:47Z</time></trkpt><trkpt lat="41.16893383089492" lon="9.191076453450014"><ele>57.0</ele><time>2026-04-26T13:51:48Z</time></trkpt><trkpt lat="41.16896489975072" lon="9.191205329008584"><ele>57.0</ele><time>2026-04-26T13:51:49Z</time></trkpt><trkpt lat="41.169031883919814" lon="9.19132973048548"><ele>57.75</ele><time>2026-04-26T13:51:50Z</time></trkpt><trkpt lat="41.16911898976016" lon="9.191451393422781"><ele>58.5</ele><time>2026-04-26T13:51:51Z</time></trkpt><trkpt lat="41.16921204346491" lon="9.191525482450778"><ele>59.25</ele><time>2026-04-26T13:51:52Z</time></trkpt><trkpt lat="41.16932324207569" lon="9.191580053408556"><ele>60.0</ele><time>2026-04-26T13:51:53Z</time></trkpt><trkpt lat="41.1694299885486" lon="9.191630368737133"><ele>60.6</ele><time>2026-04-26T13:51:54Z</time></trkpt><trkpt lat="41.16951578077919" lon="9.19174250397868"><ele>61.2</ele><time>2026-04-26T13:51:55Z</time></trkpt><trkpt lat="41.16960659981211" lon="9.191843565630938"><ele>61.8</ele><time>2026-04-26T13:51:56Z</time></trkpt><trkpt lat="41.169654512473834" lon="9.19194799915594"><ele>62.4</ele><time>2026-04-26T13:51:57Z</time></trkpt><trkpt lat="41.169675098393135" lon="9.192032685890288"><ele>63.0</ele><time>2026-04-26T13:51:58Z</time></trkpt><trkpt lat="41.16968111575285" lon="9.192138686591393"><ele>63.0</ele><time>2026-04-26T13:51:59Z</time></trkpt><trkpt lat="41.16967274666526" lon="9.192264722909217"><ele>63.0</ele><time>2026-04-26T13:52:00Z</time></trkpt><trkpt lat="41.16966614683773" lon="9.192394938416001"><ele>63.0</ele><time>2026-04-26T13:52:01Z</time></trkpt><trkpt lat="41.169665847119745" lon="9.19252539412643"><ele>63.0</ele><time>2026-04-26T13:52:02Z</time></trkpt><trkpt lat="41.16966267761469" lon="9.192637537294722"><ele>63.0</ele><time>2026-04-26T13:52:03Z</time></trkpt><trkpt lat="41.16966403473704" lon="9.19272151004597"><ele>63.0</ele><time>2026-04-26T13:52:04Z</time></trkpt><trkpt lat="41.16967685214992" lon="9.192813162010632"><ele>63.2</ele><time>2026-04-26T13:52:06Z</time></trkpt><trkpt lat="41.169691321529825" lon="9.192918537988527"><ele>63.4</ele><time>2026-04-26T13:52:44Z</time></trkpt><trkpt lat="41.169701948421306" lon="9.193021841159979"><ele>63.60000000000001</ele><time>2026-04-26T13:52:45Z</time></trkpt><trkpt lat="41.16969454219464" lon="9.193150255930266"><ele>63.800000000000004</ele><time>2026-04-26T13:52:46Z</time></trkpt><trkpt lat="41.16968053216337" lon="9.19329932574237"><ele>64.0</ele><time>2026-04-26T13:52:47Z</time></trkpt><trkpt lat="41.16966868800298" lon="9.193455013225933"><ele>64.0</ele><time>2026-04-26T13:52:48Z</time></trkpt><trkpt lat="41.16965388941944" lon="9.19362822544064"><ele>64.0</ele><time>2026-04-26T13:52:49Z</time></trkpt><trkpt lat="41.16965383948396" lon="9.193812986944856"><ele>64.0</ele><time>2026-04-26T13:52:50Z</time></trkpt><trkpt lat="41.169655663533355" lon="9.194004222370632"><ele>64.0</ele><time>2026-04-26T13:52:51Z</time></trkpt><trkpt lat="41.16965632265291" lon="9.194210870066007"><ele>64.0</ele><time>2026-04-26T13:52:52Z</time></trkpt><trkpt lat="41.169658928385616" lon="9.194444980769505"><ele>64.0</ele><time>2026-04-26T13:52:53Z</time></trkpt><trkpt lat="41.169661597129924" lon="9.194699520301917"><ele>64.0</ele><time>2026-04-26T13:52:54Z</time></trkpt><trkpt lat="41.169662765230974" lon="9.194928851211007"><ele>65.0</ele><time>2026-04-26T13:52:55Z</time></trkpt><trkpt lat="41.169661868692415" lon="9.195131720602538"><ele>66.0</ele><time>2026-04-26T13:52:56Z</time></trkpt><trkpt lat="41.169660922973975" lon="9.19532344424023"><ele>67.0</ele><time>2026-04-26T13:52:57Z</time></trkpt><trkpt lat="41.16967140599345" lon="9.195521322945567"><ele>68.0</ele><time>2026-04-26T13:52:58Z</time></trkpt><trkpt lat="41.1696950760738" lon="9.195737323374745"><ele>68.5</ele><time>2026-04-26T13:52:59Z</time></trkpt><trkpt lat="41.16972445870247" lon="9.19594223128553"><ele>69.0</ele><time>2026-04-26T13:53:00Z</time></trkpt><trkpt lat="41.169751861358755" lon="9.196124584244224"><ele>69.5</ele><time>2026-04-26T13:53:01Z</time></trkpt><trkpt lat="41.16977228698158" lon="9.1962906532461"><ele>70.0</ele><time>2026-04-26T13:53:02Z</time></trkpt><trkpt lat="41.16978768562706" lon="9.196441556730747"><ele>70.5</ele><time>2026-04-26T13:53:03Z</time></trkpt><trkpt lat="41.169794525039904" lon="9.196583968605335"><ele>71.0</ele><time>2026-04-26T13:53:04Z</time></trkpt><trkpt lat="41.169767054262316" lon="9.1967268554732"><ele>71.5</ele><time>2026-04-26T13:53:05Z</time></trkpt><trkpt lat="41.16974425288358" lon="9.196886443707646"><ele>72.0</ele><time>2026-04-26T13:53:06Z</time></trkpt><trkpt lat="41.169721805246105" lon="9.197081962176757"><ele>72.0</ele><time>2026-04-26T13:53:07Z</time></trkpt><trkpt lat="41.16969388310303" lon="9.197293169862357"><ele>72.0</ele><time>2026-04-26T13:53:08Z</time></trkpt><trkpt lat="41.16966906204129" lon="9.197482085150314"><ele>72.0</ele><time>2026-04-26T13:53:09Z</time></trkpt><trkpt lat="41.169652742657775" lon="9.197656407168532"><ele>72.0</ele><time>2026-04-26T13:53:10Z</time></trkpt><trkpt lat="41.169644507627375" lon="9.197830486416676"><ele>72.5</ele><time>2026-04-26T13:53:11Z</time></trkpt><trkpt lat="41.1696506802087" lon="9.198014195228652"><ele>73.0</ele><time>2026-04-26T13:53:12Z</time></trkpt><trkpt lat="41.1696656706281" lon="9.198180401571795"><ele>73.5</ele><time>2026-04-26T13:53:13Z</time></trkpt><trkpt lat="41.16967932971851" lon="9.19834085256208"><ele>74.0</ele><time>2026-04-26T13:53:14Z</time></trkpt><trkpt lat="41.16970198611772" lon="9.198497096644369"><ele>74.5</ele><time>2026-04-26T13:53:15Z</time></trkpt><trkpt lat="41.169731863483236" lon="9.198655672013357"><ele>75.0</ele><time>2026-04-26T13:53:16Z</time></trkpt><trkpt lat="41.169774884145504" lon="9.198830373754944"><ele>75.5</ele><time>2026-04-26T13:53:17Z</time></trkpt><trkpt lat="41.16983206705342" lon="9.199012511067432"><ele>76.0</ele><time>2026-04-26T13:53:18Z</time></trkpt><trkpt lat="41.169871519394434" lon="9.199205143387497"><ele>78.75</ele><time>2026-04-26T13:53:19Z</time></trkpt><trkpt lat="41.16991199542415" lon="9.199383176733711"><ele>81.5</ele><time>2026-04-26T13:53:20Z</time></trkpt><trkpt lat="41.16994887833096" lon="9.199531606010426"><ele>84.25</ele><time>2026-04-26T13:53:21Z</time></trkpt><trkpt lat="41.16998954126065" lon="9.199668596973641"><ele>87.0</ele><time>2026-04-26T13:53:22Z</time></trkpt><trkpt lat="41.17002503985106" lon="9.199799381359444"><ele>87.25</ele><time>2026-04-26T13:53:23Z</time></trkpt><trkpt lat="41.170063450731405" lon="9.19995656190709"><ele>87.5</ele><time>2026-04-26T13:53:24Z</time></trkpt><trkpt lat="41.1701007132579" lon="9.200115847405765"><ele>87.75</ele><time>2026-04-26T13:53:25Z</time></trkpt><trkpt lat="41.1701541977293" lon="9.200246937415619"><ele>88.0</ele><time>2026-04-26T13:53:26Z</time></trkpt><trkpt lat="41.17021460861471" lon="9.200358282563744"><ele>88.0</ele><time>2026-04-26T13:53:27Z</time></trkpt><trkpt lat="41.17025911400504" lon="9.200447921953053"><ele>88.0</ele><time>2026-04-26T13:53:28Z</time></trkpt><trkpt lat="41.17029631054438" lon="9.200529116193398"><ele>88.0</ele><time>2026-04-26T13:53:29Z</time></trkpt><trkpt lat="41.17033982412951" lon="9.200615622617034"><ele>88.0</ele><time>2026-04-26T13:53:30Z</time></trkpt><trkpt lat="41.17038752221501" lon="9.200709058175375"><ele>88.0</ele><time>2026-04-26T13:53:31Z</time></trkpt><trkpt lat="41.170432062796834" lon="9.200827923506843"><ele>88.0</ele><time>2026-04-26T13:53:32Z</time></trkpt><trkpt lat="41.17049303526628" lon="9.200932213365466"><ele>87.25</ele><time>2026-04-26T13:53:33Z</time></trkpt><trkpt lat="41.17056382857072" lon="9.201082619156168"><ele>86.5</ele><time>2026-04-26T13:53:34Z</time></trkpt><trkpt lat="41.170641121817816" lon="9.201249827464874"><ele>85.75</ele><time>2026-04-26T13:53:35Z</time></trkpt><trkpt lat="41.1707384512637" lon="9.201422785623606"><ele>85.0</ele><time>2026-04-26T13:53:36Z</time></trkpt><trkpt lat="41.1708119097029" lon="9.201563933577155"><ele>88.5</ele><time>2026-04-26T13:53:37Z</time></trkpt><trkpt lat="41.17086977909617" lon="9.201692442746463"><ele>92.0</ele><time>2026-04-26T13:53:38Z</time></trkpt><trkpt lat="41.17093232005699" lon="9.201811726034682"><ele>95.5</ele><time>2026-04-26T13:53:39Z</time></trkpt><trkpt lat="41.17098042598986" lon="9.201948782244793"><ele>99.0</ele><time>2026-04-26T13:53:40Z</time></trkpt><trkpt lat="41.1710146229391" lon="9.20211978889084"><ele>99.0</ele><time>2026-04-26T13:53:41Z</time></trkpt><trkpt lat="41.17106924061625" lon="9.202295044170654"><ele>99.0</ele><time>2026-04-26T13:53:42Z</time></trkpt><trkpt lat="41.17108920170967" lon="9.202456946268455"><ele>99.0</ele><time>2026-04-26T13:53:43Z</time></trkpt><trkpt lat="41.17111641110229" lon="9.202635482627352"><ele>99.0</ele><time>2026-04-26T13:53:44Z</time></trkpt><trkpt lat="41.17116218042326" lon="9.202809243550321"><ele>98.25</ele><time>2026-04-26T13:53:45Z</time></trkpt><trkpt lat="41.171234285788145" lon="9.202960938427486"><ele>97.5</ele><time>2026-04-26T13:53:46Z</time></trkpt><trkpt lat="41.17131845337631" lon="9.20312080313877"><ele>96.75</ele><time>2026-04-26T13:53:47Z</time></trkpt><trkpt lat="41.17138754289901" lon="9.203284591981392"><ele>96.0</ele><time>2026-04-26T13:53:48Z</time></trkpt><trkpt lat="41.17142845023951" lon="9.203407399383774"><ele>94.5</ele><time>2026-04-26T13:53:49Z</time></trkpt><trkpt lat="41.17145576422538" lon="9.203554405822437"><ele>93.0</ele><time>2026-04-26T13:53:51Z</time></trkpt><trkpt lat="41.17150651429752" lon="9.203747159033986"><ele>91.5</ele><time>2026-04-26T13:53:53Z</time></trkpt><trkpt lat="41.17153451796875" lon="9.203889446350292"><ele>90.0</ele><time>2026-04-26T13:53:54Z</time></trkpt><trkpt lat="41.17155220527305" lon="9.204011864805898"><ele>93.4</ele><time>2026-04-26T13:53:55Z</time></trkpt><trkpt lat="41.17157546582048" lon="9.204137512504104"><ele>96.8</ele><time>2026-04-26T13:53:56Z</time></trkpt><trkpt lat="41.171614673745246" lon="9.204260030371133"><ele>100.19999999999999</ele><time>2026-04-26T13:53:57Z</time></trkpt><trkpt lat="41.1716628229679" lon="9.204370766925118"><ele>103.6</ele><time>2026-04-26T13:53:58Z</time></trkpt><trkpt lat="41.17172052833983" lon="9.204483894636795"><ele>107.0</ele><time>2026-04-26T13:53:59Z</time></trkpt><trkpt lat="41.171791679231646" lon="9.20457309259398"><ele>106.99999999999999</ele><time>2026-04-26T13:54:00Z</time></trkpt><trkpt lat="41.17189060485478" lon="9.20463284399793"><ele>107.0</ele><time>2026-04-26T13:54:01Z</time></trkpt><trkpt lat="41.1719831058489" lon="9.204673358891942"><ele>107.0</ele><time>2026-04-26T13:54:02Z</time></trkpt><trkpt lat="41.172052897934975" lon="9.204723374433083"><ele>107.0</ele><time>2026-04-26T13:54:03Z</time></trkpt><trkpt lat="41.17211271839463" lon="9.204779242691723"><ele>106.99999999999999</ele><time>2026-04-26T13:54:04Z</time></trkpt><trkpt lat="41.17216880749495" lon="9.204837771523154"><ele>107.0</ele><time>2026-04-26T13:54:05Z</time></trkpt><trkpt lat="41.17221882229366" lon="9.204890784605945"><ele>105.39999999999999</ele><time>2026-04-26T13:54:06Z</time></trkpt><trkpt lat="41.172277463394046" lon="9.204963741403093"><ele>103.79999999999998</ele><time>2026-04-26T13:54:08Z</time></trkpt><trkpt lat="41.172317830810194" lon="9.205054233035806"><ele>102.2</ele><time>2026-04-26T13:54:11Z</time></trkpt><trkpt lat="41.172263385279734" lon="9.20522444253374"><ele>100.6</ele><time>2026-04-26T13:54:13Z</time></trkpt><trkpt lat="41.17219959954368" lon="9.20535247420612"><ele>99.0</ele><time>2026-04-26T13:54:14Z</time></trkpt><trkpt lat="41.17215372943687" lon="9.205481044799818"><ele>99.0</ele><time>2026-04-26T13:54:15Z</time></trkpt><trkpt lat="41.17212648743486" lon="9.205608634763566"><ele>99.0</ele><time>2026-04-26T13:54:16Z</time></trkpt><trkpt lat="41.17212943728509" lon="9.205777763500244"><ele>99.0</ele><time>2026-04-26T13:54:17Z</time></trkpt><trkpt lat="41.17209043131562" lon="9.205951720227626"><ele>99.0</ele><time>2026-04-26T13:54:18Z</time></trkpt><trkpt lat="41.17203921769449" lon="9.206140548341633"><ele>98.5</ele><time>2026-04-26T13:54:19Z</time></trkpt><trkpt lat="41.17199824734292" lon="9.206312211917693"><ele>98.0</ele><time>2026-04-26T13:54:20Z</time></trkpt><trkpt lat="41.17194012830394" lon="9.206466141250532"><ele>97.5</ele><time>2026-04-26T13:54:21Z</time></trkpt><trkpt lat="41.17189757810725" lon="9.206615682773213"><ele>97.0</ele><time>2026-04-26T13:54:22Z</time></trkpt><trkpt lat="41.1718847659923" lon="9.206756755312975"><ele>96.25</ele><time>2026-04-26T13:54:23Z</time></trkpt><trkpt lat="41.17190949300912" lon="9.206910721538792"><ele>95.5</ele><time>2026-04-26T13:54:24Z</time></trkpt><trkpt lat="41.17193108281376" lon="9.207078765723425"><ele>94.75</ele><time>2026-04-26T13:54:25Z</time></trkpt><trkpt lat="41.1719544263342" lon="9.207230534084086"><ele>94.0</ele><time>2026-04-26T13:54:26Z</time></trkpt><trkpt lat="41.17199043139869" lon="9.207374407083142"><ele>93.6</ele><time>2026-04-26T13:54:27Z</time></trkpt><trkpt lat="41.17203318534753" lon="9.207503017477963"><ele>93.2</ele><time>2026-04-26T13:54:28Z</time></trkpt><trkpt lat="41.17209794497598" lon="9.207613041683842"><ele>92.8</ele><time>2026-04-26T13:54:29Z</time></trkpt><trkpt lat="41.17215115792506" lon="9.207717465035506"><ele>92.39999999999999</ele><time>2026-04-26T13:54:30Z</time></trkpt><trkpt lat="41.17217251364824" lon="9.207817549773454"><ele>92.0</ele><time>2026-04-26T13:54:31Z</time></trkpt><trkpt lat="41.17214599566546" lon="9.20796423497722"><ele>92.0</ele><time>2026-04-26T13:54:33Z</time></trkpt><trkpt lat="41.17210792691033" lon="9.20803945635903"><ele>92.0</ele><time>2026-04-26T13:54:34Z</time></trkpt><trkpt lat="41.17204208106276" lon="9.208116434986318"><ele>92.0</ele><time>2026-04-26T13:54:35Z</time></trkpt><trkpt lat="41.17200772334131" lon="9.208218571090612"><ele>92.0</ele><time>2026-04-26T13:54:36Z</time></trkpt><trkpt lat="41.17197570543944" lon="9.208306748241489"><ele>92.0</ele><time>2026-04-26T13:54:37Z</time></trkpt><trkpt lat="41.171943628288616" lon="9.208402064003847"><ele>92.0</ele><time>2026-04-26T13:54:38Z</time></trkpt><trkpt lat="41.17190026685795" lon="9.208529000700237"><ele>92.0</ele><time>2026-04-26T13:54:39Z</time></trkpt><trkpt lat="41.17185801854669" lon="9.208681054581831"><ele>92.0</ele><time>2026-04-26T13:54:40Z</time></trkpt><trkpt lat="41.17183063293113" lon="9.208849923318732"><ele>92.0</ele><time>2026-04-26T13:54:41Z</time></trkpt><trkpt lat="41.171817065067835" lon="9.209026266462205"><ele>92.0</ele><time>2026-04-26T13:54:42Z</time></trkpt><trkpt lat="41.17181090658769" lon="9.209194973424983"><ele>92.25</ele><time>2026-04-26T13:54:43Z</time></trkpt><trkpt lat="41.1718038221704" lon="9.209372701778292"><ele>92.5</ele><time>2026-04-26T13:54:44Z</time></trkpt><trkpt lat="41.17181557568239" lon="9.20956327227334"><ele>92.75</ele><time>2026-04-26T13:54:45Z</time></trkpt><trkpt lat="41.171823910712675" lon="9.209753118120764"><ele>93.0</ele><time>2026-04-26T13:54:46Z</time></trkpt><trkpt lat="41.171832600830186" lon="9.209917359850033"><ele>92.66666666666667</ele><time>2026-04-26T13:54:47Z</time></trkpt><trkpt lat="41.17183571355979" lon="9.210035175063718"><ele>92.33333333333333</ele><time>2026-04-26T13:54:48Z</time></trkpt><trkpt lat="41.17183792692799" lon="9.210133319415007"><ele>92.0</ele><time>2026-04-26T13:54:49Z</time></trkpt><trkpt lat="41.171841310671255" lon="9.210229455866903"><ele>91.66666666666666</ele><time>2026-04-26T13:54:50Z</time></trkpt><trkpt lat="41.17184631083986" lon="9.210346213581802"><ele>91.33333333333333</ele><time>2026-04-26T13:54:51Z</time></trkpt><trkpt lat="41.17184472703445" lon="9.21046408602108"><ele>91.0</ele><time>2026-04-26T13:54:52Z</time></trkpt><trkpt lat="41.17184213064254" lon="9.210596458978054"><ele>91.4</ele><time>2026-04-26T13:54:53Z</time></trkpt><trkpt lat="41.17183282086455" lon="9.210747091300066"><ele>91.8</ele><time>2026-04-26T13:54:54Z</time></trkpt><trkpt lat="41.17182447346039" lon="9.210887155072996"><ele>92.2</ele><time>2026-04-26T13:54:55Z</time></trkpt><trkpt lat="41.17182181220493" lon="9.210981272113399"><ele>92.60000000000001</ele><time>2026-04-26T13:54:56Z</time></trkpt><trkpt lat="41.17182372779602" lon="9.21111889809185"><ele>93.0</ele><time>2026-04-26T13:54:58Z</time></trkpt><trkpt lat="41.17182894806205" lon="9.211224945302563"><ele>93.0</ele><time>2026-04-26T13:54:59Z</time></trkpt><trkpt lat="41.17183661784032" lon="9.211349001189221"><ele>93.0</ele><time>2026-04-26T13:55:00Z</time></trkpt><trkpt lat="41.17184435746081" lon="9.211483878749428"><ele>93.0</ele><time>2026-04-26T13:55:01Z</time></trkpt><trkpt lat="41.17185589599691" lon="9.211629407675296"><ele>93.0</ele><time>2026-04-26T13:55:02Z</time></trkpt><trkpt lat="41.17186949816335" lon="9.21179497390501"><ele>93.0</ele><time>2026-04-26T13:55:03Z</time></trkpt><trkpt lat="41.1718827986728" lon="9.21197684212206"><ele>93.0</ele><time>2026-04-26T13:55:04Z</time></trkpt><trkpt lat="41.171886296840164" lon="9.212121277899278"><ele>93.0</ele><time>2026-04-26T13:55:05Z</time></trkpt><trkpt lat="41.17189169063521" lon="9.212249468223652"><ele>93.0</ele><time>2026-04-26T13:55:05.999Z</time></trkpt><trkpt lat="41.17188934588688" lon="9.212370270644882"><ele>93.0</ele><time>2026-04-26T13:55:06.999Z</time></trkpt><trkpt lat="41.1718798052736" lon="9.21248896380159"><ele>93.0</ele><time>2026-04-26T13:55:07.999Z</time></trkpt><trkpt lat="41.171863282976645" lon="9.212609299666807"><ele>93.2</ele><time>2026-04-26T13:55:08.999Z</time></trkpt><trkpt lat="41.17184085340078" lon="9.212735795756238"><ele>93.4</ele><time>2026-04-26T13:55:09.999Z</time></trkpt><trkpt lat="41.17181193491031" lon="9.21286981770346"><ele>93.60000000000001</ele><time>2026-04-26T13:55:10.999Z</time></trkpt><trkpt lat="41.17177798575963" lon="9.213001637510661"><ele>93.80000000000001</ele><time>2026-04-26T13:55:12Z</time></trkpt><trkpt lat="41.171729909931834" lon="9.213113189426451"><ele>94.0</ele><time>2026-04-26T13:55:13Z</time></trkpt><trkpt lat="41.17166849790251" lon="9.213192712874173"><ele>94.0</ele><time>2026-04-26T13:55:14Z</time></trkpt><trkpt lat="41.17158130606459" lon="9.213227302035575"><ele>94.0</ele><time>2026-04-26T13:55:15Z</time></trkpt><trkpt lat="41.17148154567866" lon="9.213255644581935"><ele>94.0</ele><time>2026-04-26T13:55:16Z</time></trkpt><trkpt lat="41.17140108030093" lon="9.213303570868213"><ele>94.0</ele><time>2026-04-26T13:55:17Z</time></trkpt><trkpt lat="41.171333145477995" lon="9.213327415424152"><ele>94.0</ele><time>2026-04-26T13:55:18Z</time></trkpt><trkpt lat="41.171224597146306" lon="9.213397217235473"><ele>94.5</ele><time>2026-04-26T13:55:20Z</time></trkpt><trkpt lat="41.17113389102891" lon="9.213521107994259"><ele>95.0</ele><time>2026-04-26T13:55:22Z</time></trkpt><trkpt lat="41.17111382500239" lon="9.21365005595582"><ele>95.5</ele><time>2026-04-26T13:55:23Z</time></trkpt><trkpt lat="41.17107391862275" lon="9.21380220799549"><ele>96.0</ele><time>2026-04-26T13:55:24Z</time></trkpt><trkpt lat="41.17103304298552" lon="9.21399681546075"><ele>96.33333333333334</ele><time>2026-04-26T13:55:25Z</time></trkpt><trkpt lat="41.17099015923442" lon="9.21422172098239"><ele>96.66666666666667</ele><time>2026-04-26T13:55:26Z</time></trkpt><trkpt lat="41.1709386885909" lon="9.214469774135488"><ele>97.0</ele><time>2026-04-26T13:55:27Z</time></trkpt><trkpt lat="41.170884764963176" lon="9.214726809304004"><ele>97.0</ele><time>2026-04-26T13:55:28Z</time></trkpt><trkpt lat="41.17084411793092" lon="9.214942669885527"><ele>97.0</ele><time>2026-04-26T13:55:29Z</time></trkpt><trkpt lat="41.17080121918257" lon="9.215082646487533"><ele>97.0</ele><time>2026-04-26T13:55:30Z</time></trkpt><trkpt lat="41.17079551725014" lon="9.215198277605793"><ele>97.0</ele><time>2026-04-26T13:55:31Z</time></trkpt><trkpt lat="41.17076973304076" lon="9.215320373704632"><ele>97.0</ele><time>2026-04-26T13:55:32Z</time></trkpt><trkpt lat="41.1707472825195" lon="9.215458254433736"><ele>97.0</ele><time>2026-04-26T13:55:33Z</time></trkpt><trkpt lat="41.17072197402694" lon="9.215639296449783"><ele>97.0</ele><time>2026-04-26T13:55:34Z</time></trkpt><trkpt lat="41.17069293009044" lon="9.21583176295668"><ele>97.0</ele><time>2026-04-26T13:55:35Z</time></trkpt><trkpt lat="41.17066567931582" lon="9.216005348357264"><ele>97.19999999999999</ele><time>2026-04-26T13:55:36Z</time></trkpt><trkpt lat="41.17064051628393" lon="9.216158840004503"><ele>97.4</ele><time>2026-04-26T13:55:37Z</time></trkpt><trkpt lat="41.170615056982996" lon="9.216298278307011"><ele>97.6</ele><time>2026-04-26T13:55:38Z</time></trkpt><trkpt lat="41.17059395307582" lon="9.21641173583119"><ele>97.80000000000001</ele><time>2026-04-26T13:55:39Z</time></trkpt><trkpt lat="41.17057746987747" lon="9.216507348351282"><ele>98.0</ele><time>2026-04-26T13:55:40Z</time></trkpt><trkpt lat="41.17055585740683" lon="9.216595850099539"><ele>98.16666666666666</ele><time>2026-04-26T13:55:41Z</time></trkpt><trkpt lat="41.17055297047954" lon="9.216692988177249"><ele>98.33333333333333</ele><time>2026-04-26T13:55:42Z</time></trkpt><trkpt lat="41.17056487423204" lon="9.216796818813078"><ele>98.5</ele><time>2026-04-26T13:55:43Z</time></trkpt><trkpt lat="41.17058275383752" lon="9.216881379511502"><ele>98.66666666666666</ele><time>2026-04-26T13:55:44Z</time></trkpt><trkpt lat="41.17060996446687" lon="9.21697578795496"><ele>98.83333333333333</ele><time>2026-04-26T13:55:45Z</time></trkpt><trkpt lat="41.17064215692699" lon="9.21708729535639"><ele>99.0</ele><time>2026-04-26T13:55:46Z</time></trkpt><trkpt lat="41.17068369978351" lon="9.217211695848844"><ele>99.0</ele><time>2026-04-26T13:55:47Z</time></trkpt><trkpt lat="41.170736800338794" lon="9.217364795913104"><ele>99.0</ele><time>2026-04-26T13:55:48Z</time></trkpt><trkpt lat="41.17079522874393" lon="9.217544388165352"><ele>99.0</ele><time>2026-04-26T13:55:49Z</time></trkpt><trkpt lat="41.170851328748064" lon="9.217714984826817"><ele>99.0</ele><time>2026-04-26T13:55:50Z</time></trkpt><trkpt lat="41.17090529205259" lon="9.217879691465537"><ele>99.0</ele><time>2026-04-26T13:55:51Z</time></trkpt><trkpt lat="41.17096315910108" lon="9.218046271489001"><ele>99.0</ele><time>2026-04-26T13:55:52Z</time></trkpt><trkpt lat="41.17102865557012" lon="9.218228075663697"><ele>99.0</ele><time>2026-04-26T13:55:53Z</time></trkpt><trkpt lat="41.17110271400073" lon="9.21844185465048"><ele>99.33333333333334</ele><time>2026-04-26T13:55:54Z</time></trkpt><trkpt lat="41.17118018856802" lon="9.218669865409112"><ele>99.66666666666667</ele><time>2026-04-26T13:55:55Z</time></trkpt><trkpt lat="41.17124728362415" lon="9.218876805255686"><ele>100.0</ele><time>2026-04-26T13:55:56Z</time></trkpt><trkpt lat="41.171311468764046" lon="9.219069442176432"><ele>100.0</ele><time>2026-04-26T13:55:57Z</time></trkpt><trkpt lat="41.1713714780188" lon="9.219251166403561"><ele>100.0</ele><time>2026-04-26T13:55:58Z</time></trkpt><trkpt lat="41.17142870942329" lon="9.219420652076748"><ele>100.0</ele><time>2026-04-26T13:55:59Z</time></trkpt><trkpt lat="41.17148114016466" lon="9.21955413884041"><ele>100.0</ele><time>2026-04-26T13:56:00Z</time></trkpt><trkpt lat="41.17154346153188" lon="9.219656324669197"><ele>100.0</ele><time>2026-04-26T13:56:01Z</time></trkpt><trkpt lat="41.17162754595537" lon="9.21973916173056"><ele>100.0</ele><time>2026-04-26T13:56:02Z</time></trkpt><trkpt lat="41.17172731682296" lon="9.219813397671317"><ele>100.0</ele><time>2026-04-26T13:56:03Z</time></trkpt><trkpt lat="41.17186360975211" lon="9.21986782767885"><ele>100.0</ele><time>2026-04-26T13:56:04Z</time></trkpt><trkpt lat="41.17200378545666" lon="9.219907503516787"><ele>100.0</ele><time>2026-04-26T13:56:05Z</time></trkpt><trkpt lat="41.17214091775628" lon="9.219937051875693"><ele>100.0</ele><time>2026-04-26T13:56:06Z</time></trkpt><trkpt lat="41.17226223145263" lon="9.219961605763318"><ele>100.0</ele><time>2026-04-26T13:56:07Z</time></trkpt><trkpt lat="41.17235964769888" lon="9.21999069531024"><ele>100.0</ele><time>2026-04-26T13:56:08Z</time></trkpt><trkpt lat="41.17245086166958" lon="9.220039345970772"><ele>99.75</ele><time>2026-04-26T13:56:09Z</time></trkpt><trkpt lat="41.1725440822457" lon="9.220120208182554"><ele>99.5</ele><time>2026-04-26T13:56:10Z</time></trkpt><trkpt lat="41.17263843829982" lon="9.220229937413572"><ele>99.25</ele><time>2026-04-26T13:56:11Z</time></trkpt><trkpt lat="41.1727432367033" lon="9.22037425504605"><ele>99.0</ele><time>2026-04-26T13:56:12Z</time></trkpt><trkpt lat="41.17285400917234" lon="9.22053101576089"><ele>99.5</ele><time>2026-04-26T13:56:13Z</time></trkpt><trkpt lat="41.17295310497404" lon="9.220666180204992"><ele>100.0</ele><time>2026-04-26T13:56:14Z</time></trkpt><trkpt lat="41.17304533465211" lon="9.220786076074528"><ele>100.5</ele><time>2026-04-26T13:56:15Z</time></trkpt><trkpt lat="41.17312191822168" lon="9.220890785420153"><ele>101.0</ele><time>2026-04-26T13:56:16Z</time></trkpt><trkpt lat="41.17318635819754" lon="9.2210048272711"><ele>101.0</ele><time>2026-04-26T13:56:17Z</time></trkpt><trkpt lat="41.17324102172399" lon="9.221137863238713"><ele>101.0</ele><time>2026-04-26T13:56:18Z</time></trkpt><trkpt lat="41.17328997386062" lon="9.221304517780498"><ele>101.0</ele><time>2026-04-26T13:56:19Z</time></trkpt><trkpt lat="41.173343076021894" lon="9.221500820531265"><ele>101.0</ele><time>2026-04-26T13:56:20Z</time></trkpt><trkpt lat="41.1734009898054" lon="9.221701157798071"><ele>101.0</ele><time>2026-04-26T13:56:21Z</time></trkpt><trkpt lat="41.17345131089861" lon="9.221884200543352"><ele>101.0</ele><time>2026-04-26T13:56:22Z</time></trkpt><trkpt lat="41.173494963099536" lon="9.222059538184533"><ele>101.0</ele><time>2026-04-26T13:56:23Z</time></trkpt><trkpt lat="41.17353499801709" lon="9.222225726403822"><ele>101.0</ele><time>2026-04-26T13:56:24Z</time></trkpt><trkpt lat="41.17357637444419" lon="9.222383328787172"><ele>101.0</ele><time>2026-04-26T13:56:25Z</time></trkpt><trkpt lat="41.173616446844626" lon="9.222536304032372"><ele>101.0</ele><time>2026-04-26T13:56:26Z</time></trkpt><trkpt lat="41.17365504367073" lon="9.22269726597402"><ele>101.0</ele><time>2026-04-26T13:56:27Z</time></trkpt><trkpt lat="41.17368670844649" lon="9.222863309161369"><ele>101.0</ele><time>2026-04-26T13:56:28Z</time></trkpt><trkpt lat="41.17370977554182" lon="9.223034201444944"><ele>100.25</ele><time>2026-04-26T13:56:29Z</time></trkpt><trkpt lat="41.17373015711669" lon="9.223205338764943"><ele>99.5</ele><time>2026-04-26T13:56:30Z</time></trkpt><trkpt lat="41.173752997757035" lon="9.223379046286855"><ele>98.75</ele><time>2026-04-26T13:56:31Z</time></trkpt><trkpt lat="41.17378071483181" lon="9.22355171283992"><ele>98.0</ele><time>2026-04-26T13:56:32Z</time></trkpt><trkpt lat="41.17380683634507" lon="9.2237201025074"><ele>98.0</ele><time>2026-04-26T13:56:33Z</time></trkpt><trkpt lat="41.173841985416594" lon="9.223877455503455"><ele>98.0</ele><time>2026-04-26T13:56:34Z</time></trkpt><trkpt lat="41.17390372086223" lon="9.224041387729628"><ele>98.0</ele><time>2026-04-26T13:56:35Z</time></trkpt><trkpt lat="41.17397436035182" lon="9.224196529357073"><ele>98.0</ele><time>2026-04-26T13:56:36Z</time></trkpt><trkpt lat="41.17403107951942" lon="9.224340528210542"><ele>98.25</ele><time>2026-04-26T13:56:37Z</time></trkpt><trkpt lat="41.17407756426937" lon="9.224483250343312"><ele>98.5</ele><time>2026-04-26T13:56:38Z</time></trkpt><trkpt lat="41.17412815021275" lon="9.224627133242471"><ele>98.75</ele><time>2026-04-26T13:56:39Z</time></trkpt><trkpt lat="41.17419208042746" lon="9.224759829433811"><ele>99.0</ele><time>2026-04-26T13:56:40Z</time></trkpt><trkpt lat="41.17427062470855" lon="9.2248842157279"><ele>98.25</ele><time>2026-04-26T13:56:41Z</time></trkpt><trkpt lat="41.174358585146216" lon="9.225007602788317"><ele>97.5</ele><time>2026-04-26T13:56:42Z</time></trkpt><trkpt lat="41.17445239853699" lon="9.225135838671417"><ele>96.75</ele><time>2026-04-26T13:56:43Z</time></trkpt><trkpt lat="41.17454254517105" lon="9.225258826475205"><ele>96.0</ele><time>2026-04-26T13:56:44Z</time></trkpt><trkpt lat="41.17463482341969" lon="9.225382054159688"><ele>96.0</ele><time>2026-04-26T13:56:45Z</time></trkpt><trkpt lat="41.17473307477738" lon="9.225501182257792"><ele>96.0</ele><time>2026-04-26T13:56:46Z</time></trkpt><trkpt lat="41.17483999248855" lon="9.225611582455901"><ele>96.0</ele><time>2026-04-26T13:56:47Z</time></trkpt><trkpt lat="41.17494931218159" lon="9.225717298891341"><ele>96.0</ele><time>2026-04-26T13:56:48Z</time></trkpt><trkpt lat="41.17506244967662" lon="9.225823214428324"><ele>97.0</ele><time>2026-04-26T13:56:49Z</time></trkpt><trkpt lat="41.17517626605211" lon="9.22592785969471"><ele>98.0</ele><time>2026-04-26T13:56:50Z</time></trkpt><trkpt lat="41.17529484390056" lon="9.226030257748366"><ele>99.0</ele><time>2026-04-26T13:56:51Z</time></trkpt><trkpt lat="41.17541415495418" lon="9.226128266410658"><ele>100.0</ele><time>2026-04-26T13:56:52Z</time></trkpt><trkpt lat="41.17553366633755" lon="9.226228320638485"><ele>100.0</ele><time>2026-04-26T13:56:53Z</time></trkpt><trkpt lat="41.17564770157002" lon="9.22633632512101"><ele>100.0</ele><time>2026-04-26T13:56:54Z</time></trkpt><trkpt lat="41.17575352917689" lon="9.226423236680926"><ele>100.0</ele><time>2026-04-26T13:56:55Z</time></trkpt><trkpt lat="41.17584168126351" lon="9.226517129051533"><ele>100.0</ele><time>2026-04-26T13:56:56Z</time></trkpt><trkpt lat="41.175917327312014" lon="9.226643478468423"><ele>100.25</ele><time>2026-04-26T13:56:57Z</time></trkpt><trkpt lat="41.17598871310484" lon="9.226776040933865"><ele>100.5</ele><time>2026-04-26T13:56:58Z</time></trkpt><trkpt lat="41.17606454700059" lon="9.226914076011013"><ele>100.75</ele><time>2026-04-26T13:56:59Z</time></trkpt><trkpt lat="41.17614478766187" lon="9.227057583163917"><ele>101.0</ele><time>2026-04-26T13:57:00Z</time></trkpt><trkpt lat="41.17623009665066" lon="9.227210554714366"><ele>100.33333333333333</ele><time>2026-04-26T13:57:01Z</time></trkpt><trkpt lat="41.17631663326774" lon="9.227367627038246"><ele>99.66666666666666</ele><time>2026-04-26T13:57:02Z</time></trkpt><trkpt lat="41.17640735502418" lon="9.22753263960237"><ele>99.0</ele><time>2026-04-26T13:57:03Z</time></trkpt><trkpt lat="41.176497647838666" lon="9.2277036328347"><ele>100.0</ele><time>2026-04-26T13:57:04Z</time></trkpt><trkpt lat="41.17657808714746" lon="9.22786421841546"><ele>101.0</ele><time>2026-04-26T13:57:05Z</time></trkpt><trkpt lat="41.17664804940499" lon="9.22801959869332"><ele>102.0</ele><time>2026-04-26T13:57:06Z</time></trkpt><trkpt lat="41.176706908141476" lon="9.22816440414847"><ele>103.0</ele><time>2026-04-26T13:57:07Z</time></trkpt><trkpt lat="41.17677948161728" lon="9.22830485978556"><ele>103.0</ele><time>2026-04-26T13:57:08Z</time></trkpt><trkpt lat="41.17685937339639" lon="9.228431509642315"><ele>103.0</ele><time>2026-04-26T13:57:08.999Z</time></trkpt><trkpt lat="41.17694067906196" lon="9.228535831993952"><ele>103.0</ele><time>2026-04-26T13:57:09.999Z</time></trkpt><trkpt lat="41.17702861133814" lon="9.228625865023323"><ele>103.0</ele><time>2026-04-26T13:57:10.999Z</time></trkpt><trkpt lat="41.17712044819329" lon="9.228705384026611"><ele>103.0</ele><time>2026-04-26T13:57:11.999Z</time></trkpt><trkpt lat="41.17721646027948" lon="9.2287834205094"><ele>103.0</ele><time>2026-04-26T13:57:12.999Z</time></trkpt><trkpt lat="41.17730797903425" lon="9.228856100721757"><ele>103.0</ele><time>2026-04-26T13:57:13.999Z</time></trkpt><trkpt lat="41.1773911758633" lon="9.228928450047704"><ele>103.0</ele><time>2026-04-26T13:57:14.999Z</time></trkpt><trkpt lat="41.177466774744566" lon="9.229017804600161"><ele>103.0</ele><time>2026-04-26T13:57:15.999Z</time></trkpt><trkpt lat="41.17752470800104" lon="9.229120499085651"><ele>103.60000000000001</ele><time>2026-04-26T13:57:16.999Z</time></trkpt><trkpt lat="41.17755194272168" lon="9.229214097948592"><ele>104.2</ele><time>2026-04-26T13:57:18Z</time></trkpt><trkpt lat="41.17756045486795" lon="9.229311351946455"><ele>104.8</ele><time>2026-04-26T13:57:19Z</time></trkpt><trkpt lat="41.17756531993391" lon="9.229431711066596"><ele>105.4</ele><time>2026-04-26T13:57:20Z</time></trkpt><trkpt lat="41.17755814495574" lon="9.229575788189983"><ele>106.0</ele><time>2026-04-26T13:57:21Z</time></trkpt><trkpt lat="41.17753065112499" lon="9.229759532730977"><ele>104.33333333333334</ele><time>2026-04-26T13:57:22Z</time></trkpt><trkpt lat="41.17749661934877" lon="9.22998675151559"><ele>102.66666666666666</ele><time>2026-04-26T13:57:23Z</time></trkpt><trkpt lat="41.17746330074684" lon="9.230232854228964"><ele>101.0</ele><time>2026-04-26T13:57:24Z</time></trkpt><trkpt lat="41.177433858583726" lon="9.230464299687664"><ele>98.66666666666666</ele><time>2026-04-26T13:57:25Z</time></trkpt><trkpt lat="41.17740652630481" lon="9.230680432487903"><ele>96.33333333333333</ele><time>2026-04-26T13:57:26Z</time></trkpt><trkpt lat="41.17738101618513" lon="9.23089211634036"><ele>94.0</ele><time>2026-04-26T13:57:27Z</time></trkpt><trkpt lat="41.17735440185228" lon="9.231098671378822"><ele>93.5</ele><time>2026-04-26T13:57:28Z</time></trkpt><trkpt lat="41.177328794047725" lon="9.231300899140571"><ele>93.0</ele><time>2026-04-26T13:57:29Z</time></trkpt><trkpt lat="41.17730433694849" lon="9.23149560658241"><ele>92.5</ele><time>2026-04-26T13:57:30Z</time></trkpt><trkpt lat="41.17727784705232" lon="9.23167287904715"><ele>92.0</ele><time>2026-04-26T13:57:31Z</time></trkpt><trkpt lat="41.17724502580956" lon="9.231830087798112"><ele>91.75</ele><time>2026-04-26T13:57:32Z</time></trkpt><trkpt lat="41.1771782746371" lon="9.231963588900197"><ele>91.5</ele><time>2026-04-26T13:57:33Z</time></trkpt><trkpt lat="41.177108582994826" lon="9.232087915919843"><ele>91.25</ele><time>2026-04-26T13:57:34Z</time></trkpt><trkpt lat="41.1770176988448" lon="9.232219925996786"><ele>91.0</ele><time>2026-04-26T13:57:35Z</time></trkpt><trkpt lat="41.17690797325535" lon="9.232372026351365"><ele>90.0</ele><time>2026-04-26T13:57:36Z</time></trkpt><trkpt lat="41.17681354056476" lon="9.232524424116452"><ele>89.0</ele><time>2026-04-26T13:57:37Z</time></trkpt><trkpt lat="41.1767289521884" lon="9.232651473251718"><ele>88.0</ele><time>2026-04-26T13:57:38Z</time></trkpt><trkpt lat="41.17666253792087" lon="9.23278160252208"><ele>87.0</ele><time>2026-04-26T13:57:39Z</time></trkpt><trkpt lat="41.176610611279415" lon="9.232918151243803"><ele>87.0</ele><time>2026-04-26T13:57:40Z</time></trkpt><trkpt lat="41.176561067167775" lon="9.233074233290903"><ele>87.0</ele><time>2026-04-26T13:57:41Z</time></trkpt><trkpt lat="41.17650672445486" lon="9.233246078815144"><ele>87.0</ele><time>2026-04-26T13:57:42Z</time></trkpt><trkpt lat="41.17646929114453" lon="9.233446276483244"><ele>87.0</ele><time>2026-04-26T13:57:43Z</time></trkpt><trkpt lat="41.17643175400229" lon="9.233670746356534"><ele>85.33333333333333</ele><time>2026-04-26T13:57:44Z</time></trkpt><trkpt lat="41.17639065292981" lon="9.233884546241182"><ele>83.66666666666666</ele><time>2026-04-26T13:57:45Z</time></trkpt><trkpt lat="41.176342123738394" lon="9.234085942308456"><ele>82.0</ele><time>2026-04-26T13:57:46Z</time></trkpt><trkpt lat="41.17628155135792" lon="9.23427528101241"><ele>81.0</ele><time>2026-04-26T13:57:47Z</time></trkpt><trkpt lat="41.17621031280567" lon="9.234436804505918"><ele>80.0</ele><time>2026-04-26T13:57:48Z</time></trkpt><trkpt lat="41.17611816049512" lon="9.23454785807683"><ele>79.0</ele><time>2026-04-26T13:57:49Z</time></trkpt><trkpt lat="41.17602117427143" lon="9.234653955585543"><ele>78.0</ele><time>2026-04-26T13:57:50Z</time></trkpt><trkpt lat="41.175922851937884" lon="9.234772879359795"><ele>78.0</ele><time>2026-04-26T13:57:51Z</time></trkpt><trkpt lat="41.17581685046343" lon="9.234893484918196"><ele>78.0</ele><time>2026-04-26T13:57:52Z</time></trkpt><trkpt lat="41.17574237202434" lon="9.235019578520022"><ele>78.0</ele><time>2026-04-26T13:57:53Z</time></trkpt><trkpt lat="41.17568132824852" lon="9.23517850143327"><ele>78.0</ele><time>2026-04-26T13:57:54Z</time></trkpt><trkpt lat="41.175622611282684" lon="9.235355333115605"><ele>78.5</ele><time>2026-04-26T13:57:55Z</time></trkpt><trkpt lat="41.175562877817846" lon="9.23552603091503"><ele>79.0</ele><time>2026-04-26T13:57:56Z</time></trkpt><trkpt lat="41.17550803849118" lon="9.2356998681093"><ele>79.5</ele><time>2026-04-26T13:57:57Z</time></trkpt><trkpt lat="41.175460234257486" lon="9.23589698806165"><ele>80.0</ele><time>2026-04-26T13:57:58Z</time></trkpt><trkpt lat="41.17541663047353" lon="9.236116863658559"><ele>79.0</ele><time>2026-04-26T13:57:59Z</time></trkpt><trkpt lat="41.175385844510586" lon="9.236305605589115"><ele>78.0</ele><time>2026-04-26T13:58:00Z</time></trkpt><trkpt lat="41.17535300785759" lon="9.236481216364924"><ele>77.0</ele><time>2026-04-26T13:58:01Z</time></trkpt><trkpt lat="41.17532564779745" lon="9.23663794831013"><ele>76.0</ele><time>2026-04-26T13:58:02Z</time></trkpt><trkpt lat="41.175279944486554" lon="9.236789395211265"><ele>75.75</ele><time>2026-04-26T13:58:03Z</time></trkpt><trkpt lat="41.17520768282979" lon="9.236941533609587"><ele>75.5</ele><time>2026-04-26T13:58:04Z</time></trkpt><trkpt lat="41.175132738282976" lon="9.237095488621001"><ele>75.25</ele><time>2026-04-26T13:58:05Z</time></trkpt><trkpt lat="41.175074088393394" lon="9.237242141548032"><ele>75.0</ele><time>2026-04-26T13:58:06Z</time></trkpt><trkpt lat="41.17503844946598" lon="9.237391435177749"><ele>74.33333333333333</ele><time>2026-04-26T13:58:07Z</time></trkpt><trkpt lat="41.175021506711204" lon="9.237559453692743"><ele>73.66666666666666</ele><time>2026-04-26T13:58:08Z</time></trkpt><trkpt lat="41.17500750675558" lon="9.2377764698969"><ele>73.0</ele><time>2026-04-26T13:58:09Z</time></trkpt><trkpt lat="41.17499265752103" lon="9.238012284419934"><ele>72.0</ele><time>2026-04-26T13:58:10Z</time></trkpt><trkpt lat="41.17497209188238" lon="9.238232234015221"><ele>71.0</ele><time>2026-04-26T13:58:11Z</time></trkpt><trkpt lat="41.17495466114518" lon="9.238432988093459"><ele>70.0</ele><time>2026-04-26T13:58:12Z</time></trkpt><trkpt lat="41.1749408501951" lon="9.238614802990107"><ele>70.0</ele><time>2026-04-26T13:58:13Z</time></trkpt><trkpt lat="41.17493735732412" lon="9.23876571632712"><ele>70.0</ele><time>2026-04-26T13:58:14Z</time></trkpt><trkpt lat="41.174952086458944" lon="9.23891153980612"><ele>70.0</ele><time>2026-04-26T13:58:15Z</time></trkpt><trkpt lat="41.17498907493768" lon="9.239065712575602"><ele>70.0</ele><time>2026-04-26T13:58:16Z</time></trkpt><trkpt lat="41.175040201715085" lon="9.239244494566872"><ele>70.0</ele><time>2026-04-26T13:58:17Z</time></trkpt><trkpt lat="41.17508630469178" lon="9.239414742484705"><ele>70.0</ele><time>2026-04-26T13:58:18Z</time></trkpt><trkpt lat="41.175119207981126" lon="9.239567942717345"><ele>70.0</ele><time>2026-04-26T13:58:19Z</time></trkpt><trkpt lat="41.17513355770359" lon="9.239711339689553"><ele>70.0</ele><time>2026-04-26T13:58:20Z</time></trkpt><trkpt lat="41.175121100291925" lon="9.239840458465997"><ele>70.0</ele><time>2026-04-26T13:58:21Z</time></trkpt><trkpt lat="41.175087425284204" lon="9.239954028277879"><ele>70.0</ele><time>2026-04-26T13:58:22Z</time></trkpt><trkpt lat="41.1750089046842" lon="9.240040593888901"><ele>70.0</ele><time>2026-04-26T13:58:23Z</time></trkpt><trkpt lat="41.17489095337098" lon="9.24013892146197"><ele>70.0</ele><time>2026-04-26T13:58:24Z</time></trkpt><trkpt lat="41.17475390859869" lon="9.240262604131823"><ele>70.0</ele><time>2026-04-26T13:58:25Z</time></trkpt><trkpt lat="41.17461851169381" lon="9.24042357719708"><ele>70.0</ele><time>2026-04-26T13:58:26Z</time></trkpt><trkpt lat="41.17450259664649" lon="9.240586159369975"><ele>70.0</ele><time>2026-04-26T13:58:27Z</time></trkpt><trkpt lat="41.17441030991425" lon="9.240728860209853"><ele>70.0</ele><time>2026-04-26T13:58:28Z</time></trkpt><trkpt lat="41.174332699569966" lon="9.240860486126586"><ele>70.0</ele><time>2026-04-26T13:58:29Z</time></trkpt><trkpt lat="41.17425859808061" lon="9.240983800735128"><ele>70.0</ele><time>2026-04-26T13:58:30Z</time></trkpt><trkpt lat="41.17419350520034" lon="9.241114839395895"><ele>70.0</ele><time>2026-04-26T13:58:31Z</time></trkpt><trkpt lat="41.17414420453366" lon="9.24127793426181"><ele>71.0</ele><time>2026-04-26T13:58:32Z</time></trkpt><trkpt lat="41.174096586488396" lon="9.241484046632815"><ele>72.0</ele><time>2026-04-26T13:58:33Z</time></trkpt><trkpt lat="41.17404843651133" lon="9.241723548948032"><ele>73.0</ele><time>2026-04-26T13:58:34Z</time></trkpt><trkpt lat="41.17399669387028" lon="9.241982035418495"><ele>73.33333333333333</ele><time>2026-04-26T13:58:35Z</time></trkpt><trkpt lat="41.17394441772218" lon="9.242248262799665"><ele>73.66666666666667</ele><time>2026-04-26T13:58:36Z</time></trkpt><trkpt lat="41.17389880242581" lon="9.242494598350348"><ele>74.0</ele><time>2026-04-26T13:58:37Z</time></trkpt><trkpt lat="41.173866222121994" lon="9.242719039713755"><ele>74.25</ele><time>2026-04-26T13:58:38Z</time></trkpt><trkpt lat="41.173839661056505" lon="9.24291361912625"><ele>74.5</ele><time>2026-04-26T13:58:39Z</time></trkpt><trkpt lat="41.1738104685012" lon="9.243101214757626"><ele>74.75</ele><time>2026-04-26T13:58:40Z</time></trkpt><trkpt lat="41.17377921209299" lon="9.243263458992875"><ele>75.0</ele><time>2026-04-26T13:58:41Z</time></trkpt><trkpt lat="41.17374079275655" lon="9.24340846016871"><ele>75.0</ele><time>2026-04-26T13:58:42Z</time></trkpt><trkpt lat="41.17369725687461" lon="9.243544037899252"><ele>75.0</ele><time>2026-04-26T13:58:43Z</time></trkpt><trkpt lat="41.17364620174914" lon="9.243674860042901"><ele>75.0</ele><time>2026-04-26T13:58:44Z</time></trkpt><trkpt lat="41.173581890588906" lon="9.243808996345132"><ele>75.0</ele><time>2026-04-26T13:58:45Z</time></trkpt><trkpt lat="41.173505231534016" lon="9.243939947490311"><ele>75.0</ele><time>2026-04-26T13:58:46Z</time></trkpt><trkpt lat="41.17342460077177" lon="9.244063622041713"><ele>75.0</ele><time>2026-04-26T13:58:47Z</time></trkpt><trkpt lat="41.17333577598694" lon="9.244172868766872"><ele>75.0</ele><time>2026-04-26T13:58:48Z</time></trkpt><trkpt lat="41.173238428775534" lon="9.244259834761236"><ele>75.0</ele><time>2026-04-26T13:58:49Z</time></trkpt><trkpt lat="41.17314308809813" lon="9.244332310484145"><ele>74.25</ele><time>2026-04-26T13:58:50Z</time></trkpt><trkpt lat="41.17307080661159" lon="9.244422800593695"><ele>73.5</ele><time>2026-04-26T13:58:51Z</time></trkpt><trkpt lat="41.17302393270376" lon="9.24455293155231"><ele>72.75</ele><time>2026-04-26T13:58:52Z</time></trkpt><trkpt lat="41.172986580054264" lon="9.244714031531359"><ele>72.0</ele><time>2026-04-26T13:58:53Z</time></trkpt><trkpt lat="41.17293534450938" lon="9.244877511679883"><ele>71.0</ele><time>2026-04-26T13:58:54Z</time></trkpt><trkpt lat="41.172861427950785" lon="9.24503229450033"><ele>70.0</ele><time>2026-04-26T13:58:55Z</time></trkpt><trkpt lat="41.17277458496479" lon="9.245184767037475"><ele>69.0</ele><time>2026-04-26T13:58:56Z</time></trkpt><trkpt lat="41.17267834045959" lon="9.245341676500312"><ele>68.0</ele><time>2026-04-26T13:58:57Z</time></trkpt><trkpt lat="41.172591139073376" lon="9.245484484153762"><ele>68.0</ele><time>2026-04-26T13:58:58Z</time></trkpt><trkpt lat="41.17252074918474" lon="9.245596471417606"><ele>68.0</ele><time>2026-04-26T13:58:59Z</time></trkpt><trkpt lat="41.17244535353508" lon="9.245689978291795"><ele>68.0</ele><time>2026-04-26T13:59:00Z</time></trkpt><trkpt lat="41.17233865696367" lon="9.245775881380506"><ele>68.0</ele><time>2026-04-26T13:59:01Z</time></trkpt><trkpt lat="41.17221407692794" lon="9.245863403349045"><ele>69.2</ele><time>2026-04-26T13:59:02Z</time></trkpt><trkpt lat="41.172109167235696" lon="9.245956925356111"><ele>70.4</ele><time>2026-04-26T13:59:03Z</time></trkpt><trkpt lat="41.17203456502602" lon="9.246045637907772"><ele>71.60000000000001</ele><time>2026-04-26T13:59:04Z</time></trkpt><trkpt lat="41.17197537418025" lon="9.246136582030513"><ele>72.8</ele><time>2026-04-26T13:59:05Z</time></trkpt><trkpt lat="41.17192052607594" lon="9.246247246246085"><ele>74.0</ele><time>2026-04-26T13:59:06Z</time></trkpt><trkpt lat="41.17186387267074" lon="9.246373020340927"><ele>72.5</ele><time>2026-04-26T13:59:07Z</time></trkpt><trkpt lat="41.17179944105699" lon="9.246497660435885"><ele>71.0</ele><time>2026-04-26T13:59:08Z</time></trkpt><trkpt lat="41.171731008350406" lon="9.24662187118161"><ele>69.5</ele><time>2026-04-26T13:59:09Z</time></trkpt><trkpt lat="41.17166630271519" lon="9.246742510767735"><ele>68.0</ele><time>2026-04-26T13:59:10Z</time></trkpt><trkpt lat="41.17160393168272" lon="9.246869941410349"><ele>68.0</ele><time>2026-04-26T13:59:11Z</time></trkpt><trkpt lat="41.171542794227555" lon="9.24701274292854"><ele>68.0</ele><time>2026-04-26T13:59:12Z</time></trkpt><trkpt lat="41.17147841670775" lon="9.247167888639291"><ele>68.0</ele><time>2026-04-26T13:59:13Z</time></trkpt><trkpt lat="41.17141881813886" lon="9.247343230795972"><ele>68.0</ele><time>2026-04-26T13:59:14Z</time></trkpt><trkpt lat="41.171366507828374" lon="9.247554962388408"><ele>68.0</ele><time>2026-04-26T13:59:15Z</time></trkpt><trkpt lat="41.17132939516043" lon="9.247769361360211"><ele>68.0</ele><time>2026-04-26T13:59:16Z</time></trkpt><trkpt lat="41.1713002233113" lon="9.247962658317629"><ele>68.0</ele><time>2026-04-26T13:59:17Z</time></trkpt><trkpt lat="41.17126370300414" lon="9.248135015989979"><ele>68.0</ele><time>2026-04-26T13:59:18Z</time></trkpt><trkpt lat="41.17121429869524" lon="9.248281848064014"><ele>68.0</ele><time>2026-04-26T13:59:19Z</time></trkpt><trkpt lat="41.17114976825981" lon="9.248426028633668"><ele>68.0</ele><time>2026-04-26T13:59:20Z</time></trkpt><trkpt lat="41.171071102434404" lon="9.248570853743118"><ele>68.0</ele><time>2026-04-26T13:59:21Z</time></trkpt><trkpt lat="41.17098238367638" lon="9.248721877566378"><ele>68.0</ele><time>2026-04-26T13:59:22Z</time></trkpt><trkpt lat="41.170891423538514" lon="9.248877459357791"><ele>69.5</ele><time>2026-04-26T13:59:23Z</time></trkpt><trkpt lat="41.170810694500155" lon="9.249024822800232"><ele>71.0</ele><time>2026-04-26T13:59:24Z</time></trkpt><trkpt lat="41.17074639624266" lon="9.249156611196948"><ele>72.5</ele><time>2026-04-26T13:59:25Z</time></trkpt><trkpt lat="41.17070161570175" lon="9.24928055319291"><ele>74.0</ele><time>2026-04-26T13:59:26Z</time></trkpt><trkpt lat="41.170665063894944" lon="9.249409345585011"><ele>74.0</ele><time>2026-04-26T13:59:27Z</time></trkpt><trkpt lat="41.17063317751928" lon="9.24953533980973"><ele>74.0</ele><time>2026-04-26T13:59:28Z</time></trkpt><trkpt lat="41.17059611350576" lon="9.249680411589107"><ele>74.0</ele><time>2026-04-26T13:59:29Z</time></trkpt><trkpt lat="41.17056146969042" lon="9.249836058880224"><ele>74.0</ele><time>2026-04-26T13:59:30Z</time></trkpt><trkpt lat="41.170533264783124" lon="9.249998834098045"><ele>73.25</ele><time>2026-04-26T13:59:31Z</time></trkpt><trkpt lat="41.17050650990401" lon="9.25017114889337"><ele>72.5</ele><time>2026-04-26T13:59:32Z</time></trkpt><trkpt lat="41.170479973567396" lon="9.250343531425203"><ele>71.75</ele><time>2026-04-26T13:59:33Z</time></trkpt><trkpt lat="41.17045387784932" lon="9.250507902740816"><ele>71.0</ele><time>2026-04-26T13:59:34Z</time></trkpt><trkpt lat="41.1704296874592" lon="9.250653400239385"><ele>69.8</ele><time>2026-04-26T13:59:35Z</time></trkpt><trkpt lat="41.17040722054143" lon="9.250787812228303"><ele>68.6</ele><time>2026-04-26T13:59:36Z</time></trkpt><trkpt lat="41.17038947815219" lon="9.250899093997935"><ele>67.4</ele><time>2026-04-26T13:59:37Z</time></trkpt><trkpt lat="41.17037315524426" lon="9.250995248214622"><ele>66.2</ele><time>2026-04-26T13:59:38Z</time></trkpt><trkpt lat="41.17037015967193" lon="9.251133351265016"><ele>65.0</ele><time>2026-04-26T13:59:40Z</time></trkpt><trkpt lat="41.17039195954769" lon="9.25127249402075"><ele>65.0</ele><time>2026-04-26T13:59:42Z</time></trkpt><trkpt lat="41.17041428721993" lon="9.251377659286634"><ele>65.0</ele><time>2026-04-26T13:59:43Z</time></trkpt><trkpt lat="41.170451881274666" lon="9.251516332326686"><ele>65.0</ele><time>2026-04-26T13:59:44Z</time></trkpt><trkpt lat="41.17051049430275" lon="9.251705186954181"><ele>65.0</ele><time>2026-04-26T13:59:45Z</time></trkpt><trkpt lat="41.17058094724474" lon="9.251915427726294"><ele>63.0</ele><time>2026-04-26T13:59:46Z</time></trkpt><trkpt lat="41.17064925531793" lon="9.252126207683272"><ele>61.0</ele><time>2026-04-26T13:59:47Z</time></trkpt><trkpt lat="41.17071193152066" lon="9.252326953691348"><ele>59.0</ele><time>2026-04-26T13:59:48Z</time></trkpt><trkpt lat="41.1707696105731" lon="9.252522408000969"><ele>56.75</ele><time>2026-04-26T13:59:49Z</time></trkpt><trkpt lat="41.17082701947917" lon="9.25271400594244"><ele>54.5</ele><time>2026-04-26T13:59:50Z</time></trkpt><trkpt lat="41.170880141087764" lon="9.25289086838815"><ele>52.25</ele><time>2026-04-26T13:59:51Z</time></trkpt><trkpt lat="41.17092976638634" lon="9.253063205901299"><ele>50.0</ele><time>2026-04-26T13:59:52Z</time></trkpt><trkpt lat="41.170975225680806" lon="9.25322454031507"><ele>49.5</ele><time>2026-04-26T13:59:53Z</time></trkpt><trkpt lat="41.17101355723729" lon="9.253379768808884"><ele>49.0</ele><time>2026-04-26T13:59:54Z</time></trkpt><trkpt lat="41.17103661857727" lon="9.253543512747532"><ele>48.5</ele><time>2026-04-26T13:59:55Z</time></trkpt><trkpt lat="41.17104582402293" lon="9.253716238974988"><ele>48.0</ele><time>2026-04-26T13:59:56Z</time></trkpt><trkpt lat="41.171040808104706" lon="9.253897134869522"><ele>46.666666666666664</ele><time>2026-04-26T13:59:57Z</time></trkpt><trkpt lat="41.17102735809848" lon="9.254092074722902"><ele>45.33333333333333</ele><time>2026-04-26T13:59:58Z</time></trkpt><trkpt lat="41.17100571647273" lon="9.254295687816498"><ele>44.0</ele><time>2026-04-26T13:59:59Z</time></trkpt><trkpt lat="41.17099100981751" lon="9.254490503618625"><ele>44.0</ele><time>2026-04-26T14:00:00Z</time></trkpt><trkpt lat="41.170977061782914" lon="9.254687951858223"><ele>44.0</ele><time>2026-04-26T14:00:01Z</time></trkpt><trkpt lat="41.17096510890217" lon="9.254869881269373"><ele>44.0</ele><time>2026-04-26T14:00:02Z</time></trkpt><trkpt lat="41.170953669587455" lon="9.255038866260861"><ele>44.0</ele><time>2026-04-26T14:00:03Z</time></trkpt><trkpt lat="41.170942956959315" lon="9.255197155116006"><ele>43.75</ele><time>2026-04-26T14:00:04Z</time></trkpt><trkpt lat="41.17093610189524" lon="9.255352852467269"><ele>43.5</ele><time>2026-04-26T14:00:05Z</time></trkpt><trkpt lat="41.170937872142794" lon="9.255504191120433"><ele>43.25</ele><time>2026-04-26T14:00:06Z</time></trkpt><trkpt lat="41.17095985900564" lon="9.255647319750054"><ele>43.0</ele><time>2026-04-26T14:00:07Z</time></trkpt><trkpt lat="41.17099719433254" lon="9.25578312651789"><ele>43.0</ele><time>2026-04-26T14:00:08Z</time></trkpt><trkpt lat="41.171048171481516" lon="9.255890096875689"><ele>43.0</ele><time>2026-04-26T14:00:09Z</time></trkpt><trkpt lat="41.171111520544585" lon="9.255965331241141"><ele>43.0</ele><time>2026-04-26T14:00:10Z</time></trkpt><trkpt lat="41.171186068457814" lon="9.256008522263103"><ele>43.0</ele><time>2026-04-26T14:00:11Z</time></trkpt><trkpt lat="41.17128599140408" lon="9.25602207121285"><ele>43.0</ele><time>2026-04-26T14:00:12Z</time></trkpt><trkpt lat="41.171393579254634" lon="9.256056421255302"><ele>43.0</ele><time>2026-04-26T14:00:13Z</time></trkpt><trkpt lat="41.17147501086386" lon="9.256117762929785"><ele>43.0</ele><time>2026-04-26T14:00:14Z</time></trkpt><trkpt lat="41.17154945114898" lon="9.256208089282234"><ele>43.0</ele><time>2026-04-26T14:00:15Z</time></trkpt><trkpt lat="41.17160972432075" lon="9.256326582567704"><ele>43.0</ele><time>2026-04-26T14:00:16Z</time></trkpt><trkpt lat="41.17166770362094" lon="9.25646387187641"><ele>43.0</ele><time>2026-04-26T14:00:17Z</time></trkpt><trkpt lat="41.17170014503157" lon="9.256577634249314"><ele>42.4</ele><time>2026-04-26T14:00:18Z</time></trkpt><trkpt lat="41.171698107088005" lon="9.256666310254182"><ele>41.8</ele><time>2026-04-26T14:00:19Z</time></trkpt><trkpt lat="41.17166634210329" lon="9.256746884273243"><ele>41.2</ele><time>2026-04-26T14:00:20Z</time></trkpt><trkpt lat="41.17158257645766" lon="9.256795479581067"><ele>40.6</ele><time>2026-04-26T14:00:21Z</time></trkpt><trkpt lat="41.17149754774197" lon="9.25690011137415"><ele>40.0</ele><time>2026-04-26T14:00:22Z</time></trkpt><trkpt lat="41.17139952625102" lon="9.257034991571995"><ele>41.5</ele><time>2026-04-26T14:00:23Z</time></trkpt><trkpt lat="41.17126774077811" lon="9.257177732023749"><ele>43.0</ele><time>2026-04-26T14:00:24Z</time></trkpt><trkpt lat="41.17115748725928" lon="9.257305908887622"><ele>44.5</ele><time>2026-04-26T14:00:25Z</time></trkpt><trkpt lat="41.171067976791306" lon="9.257414101349726"><ele>46.0</ele><time>2026-04-26T14:00:26Z</time></trkpt><trkpt lat="41.17099912077455" lon="9.257525680267342"><ele>46.0</ele><time>2026-04-26T14:00:27Z</time></trkpt><trkpt lat="41.17095503827843" lon="9.257655618506499"><ele>46.0</ele><time>2026-04-26T14:00:28Z</time></trkpt><trkpt lat="41.17093451453707" lon="9.25782273237438"><ele>46.0</ele><time>2026-04-26T14:00:29Z</time></trkpt><trkpt lat="41.170926322815255" lon="9.258043067407726"><ele>46.0</ele><time>2026-04-26T14:00:30Z</time></trkpt><trkpt lat="41.17091140785816" lon="9.25829987058506"><ele>45.66666666666667</ele><time>2026-04-26T14:00:31Z</time></trkpt><trkpt lat="41.17088834504799" lon="9.258572891212529"><ele>45.333333333333336</ele><time>2026-04-26T14:00:32Z</time></trkpt><trkpt lat="41.170866196142704" lon="9.258827814324748"><ele>45.0</ele><time>2026-04-26T14:00:33Z</time></trkpt><trkpt lat="41.17084255801451" lon="9.259062802418798"><ele>44.0</ele><time>2026-04-26T14:00:34Z</time></trkpt><trkpt lat="41.170819978864614" lon="9.259287568587398"><ele>43.0</ele><time>2026-04-26T14:00:35Z</time></trkpt><trkpt lat="41.17079864528137" lon="9.259510749480754"><ele>42.0</ele><time>2026-04-26T14:00:36Z</time></trkpt><trkpt lat="41.17078068271758" lon="9.25972295993248"><ele>41.8</ele><time>2026-04-26T14:00:37Z</time></trkpt><trkpt lat="41.17076468118759" lon="9.259924591550178"><ele>41.6</ele><time>2026-04-26T14:00:38Z</time></trkpt><trkpt lat="41.17075475375589" lon="9.260082392989457"><ele>41.4</ele><time>2026-04-26T14:00:39Z</time></trkpt><trkpt lat="41.17075474507291" lon="9.2601746039719"><ele>41.199999999999996</ele><time>2026-04-26T14:00:40Z</time></trkpt><trkpt lat="41.17076683960866" lon="9.260269995658991"><ele>41.0</ele><time>2026-04-26T14:00:41Z</time></trkpt><trkpt lat="41.17078743497463" lon="9.260384844082145"><ele>41.0</ele><time>2026-04-26T14:00:42Z</time></trkpt><trkpt lat="41.17081802957523" lon="9.260515148947654"><ele>41.0</ele><time>2026-04-26T14:00:43Z</time></trkpt><trkpt lat="41.1708644443823" lon="9.260662339576493"><ele>41.0</ele><time>2026-04-26T14:00:44Z</time></trkpt><trkpt lat="41.17091651993363" lon="9.260833761889364"><ele>41.0</ele><time>2026-04-26T14:00:45Z</time></trkpt><trkpt lat="41.170974950083824" lon="9.26102580147551"><ele>41.25</ele><time>2026-04-26T14:00:46Z</time></trkpt><trkpt lat="41.17103404743079" lon="9.26121492384923"><ele>41.5</ele><time>2026-04-26T14:00:47Z</time></trkpt><trkpt lat="41.171089483092814" lon="9.261383383554818"><ele>41.75</ele><time>2026-04-26T14:00:48Z</time></trkpt><trkpt lat="41.171142325707706" lon="9.261532698991472"><ele>42.0</ele><time>2026-04-26T14:00:49Z</time></trkpt><trkpt lat="41.17119990692751" lon="9.261665776375617"><ele>42.0</ele><time>2026-04-26T14:00:50Z</time></trkpt><trkpt lat="41.17126406534556" lon="9.261795253649664"><ele>42.0</ele><time>2026-04-26T14:00:51Z</time></trkpt><trkpt lat="41.17131835029528" lon="9.261926751270845"><ele>42.0</ele><time>2026-04-26T14:00:52Z</time></trkpt><trkpt lat="41.17134115441944" lon="9.26207597498569"><ele>42.0</ele><time>2026-04-26T14:00:53Z</time></trkpt><trkpt lat="41.171370698308635" lon="9.26222618380037"><ele>40.5</ele><time>2026-04-26T14:00:54Z</time></trkpt><trkpt lat="41.17137297716645" lon="9.262397321346548"><ele>39.0</ele><time>2026-04-26T14:00:55Z</time></trkpt><trkpt lat="41.1713690175434" lon="9.262576529092911"><ele>37.5</ele><time>2026-04-26T14:00:56Z</time></trkpt><trkpt lat="41.171364821669535" lon="9.262754664659257"><ele>36.0</ele><time>2026-04-26T14:00:57Z</time></trkpt><trkpt lat="41.17135731654159" lon="9.262923185047535"><ele>36.0</ele><time>2026-04-26T14:00:58Z</time></trkpt><trkpt lat="41.17134829480868" lon="9.26308077793821"><ele>36.0</ele><time>2026-04-26T14:00:59Z</time></trkpt><trkpt lat="41.17133872382626" lon="9.263212398335597"><ele>36.0</ele><time>2026-04-26T14:01:00Z</time></trkpt><trkpt lat="41.17132618577944" lon="9.263310895594394"><ele>36.0</ele><time>2026-04-26T14:01:01Z</time></trkpt><trkpt lat="41.17131756651399" lon="9.26341543573242"><ele>36.0</ele><time>2026-04-26T14:01:03Z</time></trkpt><trkpt lat="41.17130926074815" lon="9.26350074845684"><ele>36.0</ele><time>2026-04-26T14:01:11Z</time></trkpt><trkpt lat="41.17130656176715" lon="9.26367220844151"><ele>34.5</ele><time>2026-04-26T14:01:13Z</time></trkpt><trkpt lat="41.17129429336898" lon="9.263809852290285"><ele>33.0</ele><time>2026-04-26T14:01:14Z</time></trkpt><trkpt lat="41.171277098201074" lon="9.263964352768319"><ele>31.5</ele><time>2026-04-26T14:01:15Z</time></trkpt><trkpt lat="41.1712597495952" lon="9.264131649460642"><ele>30.0</ele><time>2026-04-26T14:01:16Z</time></trkpt><trkpt lat="41.171239403769874" lon="9.264311194165597"><ele>29.25</ele><time>2026-04-26T14:01:17Z</time></trkpt><trkpt lat="41.17121681599426" lon="9.264488282585477"><ele>28.5</ele><time>2026-04-26T14:01:18Z</time></trkpt><trkpt lat="41.17119446326776" lon="9.264667707732142"><ele>27.75</ele><time>2026-04-26T14:01:19Z</time></trkpt><trkpt lat="41.17117470781077" lon="9.264845958108486"><ele>27.0</ele><time>2026-04-26T14:01:20Z</time></trkpt><trkpt lat="41.171154105211194" lon="9.265026578751533"><ele>26.0</ele><time>2026-04-26T14:01:21Z</time></trkpt><trkpt lat="41.17113283700049" lon="9.265205466375066"><ele>25.0</ele><time>2026-04-26T14:01:22Z</time></trkpt><trkpt lat="41.171111531129704" lon="9.265380230080735"><ele>24.0</ele><time>2026-04-26T14:01:23Z</time></trkpt><trkpt lat="41.171091129828746" lon="9.265549203418496"><ele>23.0</ele><time>2026-04-26T14:01:24Z</time></trkpt><trkpt lat="41.17107030756631" lon="9.265715565158663"><ele>22.75</ele><time>2026-04-26T14:01:25Z</time></trkpt><trkpt lat="41.171049070184644" lon="9.265884150037804"><ele>22.5</ele><time>2026-04-26T14:01:26Z</time></trkpt><trkpt lat="41.17102694808284" lon="9.266058856820084"><ele>22.25</ele><time>2026-04-26T14:01:27Z</time></trkpt><trkpt lat="41.171005024593" lon="9.266239160959788"><ele>22.0</ele><time>2026-04-26T14:01:28Z</time></trkpt><trkpt lat="41.170982182958134" lon="9.266421822544125"><ele>22.0</ele><time>2026-04-26T14:01:29Z</time></trkpt><trkpt lat="41.17095553955575" lon="9.266592220160822"><ele>22.0</ele><time>2026-04-26T14:01:30Z</time></trkpt><trkpt lat="41.1709301271439" lon="9.266752728084121"><ele>22.0</ele><time>2026-04-26T14:01:31Z</time></trkpt><trkpt lat="41.17090713749022" lon="9.266903185513018"><ele>22.0</ele><time>2026-04-26T14:01:32Z</time></trkpt><trkpt lat="41.17089272627164" lon="9.267034440509915"><ele>22.0</ele><time>2026-04-26T14:01:33Z</time></trkpt><trkpt lat="41.17088777797741" lon="9.267150251410596"><ele>22.0</ele><time>2026-04-26T14:01:34Z</time></trkpt><trkpt lat="41.17090366480672" lon="9.267260782768398"><ele>22.0</ele><time>2026-04-26T14:01:35Z</time></trkpt><trkpt lat="41.17095233015243" lon="9.267358603777462"><ele>22.0</ele><time>2026-04-26T14:01:36Z</time></trkpt><trkpt lat="41.171034316767624" lon="9.267445675342827"><ele>22.0</ele><time>2026-04-26T14:01:37Z</time></trkpt><trkpt lat="41.171138929083" lon="9.267554062181974"><ele>25.0</ele><time>2026-04-26T14:01:38Z</time></trkpt><trkpt lat="41.17124140346922" lon="9.267700131612926"><ele>28.0</ele><time>2026-04-26T14:01:39Z</time></trkpt><trkpt lat="41.17134496986767" lon="9.267866330096762"><ele>31.0</ele><time>2026-04-26T14:01:40Z</time></trkpt><trkpt lat="41.171449082395995" lon="9.26802744039977"><ele>32.4</ele><time>2026-04-26T14:01:41Z</time></trkpt><trkpt lat="41.17152767051853" lon="9.268159558968524"><ele>33.8</ele><time>2026-04-26T14:01:42Z</time></trkpt><trkpt lat="41.17156742143523" lon="9.268258869233794"><ele>35.199999999999996</ele><time>2026-04-26T14:01:43Z</time></trkpt><trkpt lat="41.17156744027458" lon="9.268344360513236"><ele>36.6</ele><time>2026-04-26T14:01:44Z</time></trkpt><trkpt lat="41.17153564022816" lon="9.268433361312887"><ele>38.0</ele><time>2026-04-26T14:01:45Z</time></trkpt><trkpt lat="41.171459115071535" lon="9.26852720632972"><ele>38.5</ele><time>2026-04-26T14:01:46Z</time></trkpt><trkpt lat="41.17138677592501" lon="9.26866952312953"><ele>39.0</ele><time>2026-04-26T14:01:47Z</time></trkpt><trkpt lat="41.17131509558603" lon="9.268800063569241"><ele>39.5</ele><time>2026-04-26T14:01:48Z</time></trkpt><trkpt lat="41.17128800115393" lon="9.268931981892154"><ele>40.0</ele><time>2026-04-26T14:01:49Z</time></trkpt><trkpt lat="41.171294993311065" lon="9.269087680732486"><ele>42.333333333333336</ele><time>2026-04-26T14:01:50Z</time></trkpt><trkpt lat="41.17131313219771" lon="9.269289551837737"><ele>44.666666666666664</ele><time>2026-04-26T14:01:51Z</time></trkpt><trkpt lat="41.171340830138625" lon="9.269511862348304"><ele>47.0</ele><time>2026-04-26T14:01:52Z</time></trkpt><trkpt lat="41.17134846787207" lon="9.26975539657582"><ele>49.666666666666664</ele><time>2026-04-26T14:01:53Z</time></trkpt><trkpt lat="41.171360981877825" lon="9.27001238562442"><ele>52.33333333333333</ele><time>2026-04-26T14:01:54Z</time></trkpt><trkpt lat="41.17137345548654" lon="9.270252315258624"><ele>55.0</ele><time>2026-04-26T14:01:55Z</time></trkpt><trkpt lat="41.1713636266531" lon="9.270450447148676"><ele>54.99999999999999</ele><time>2026-04-26T14:01:56Z</time></trkpt><trkpt lat="41.17136435520243" lon="9.270586165431043"><ele>55.0</ele><time>2026-04-26T14:01:57Z</time></trkpt><trkpt lat="41.17135145238892" lon="9.27068018328725"><ele>55.0</ele><time>2026-04-26T14:01:58Z</time></trkpt><trkpt lat="41.17128426013449" lon="9.270790911851329"><ele>55.0</ele><time>2026-04-26T14:02:00Z</time></trkpt><trkpt lat="41.17121119143988" lon="9.270814292357278"><ele>54.99999999999999</ele><time>2026-04-26T14:02:01Z</time></trkpt><trkpt lat="41.17113082198664" lon="9.270754094997116"><ele>55.0</ele><time>2026-04-26T14:02:02Z</time></trkpt><trkpt lat="41.17102935872289" lon="9.270717486067882"><ele>56.2</ele><time>2026-04-26T14:02:03Z</time></trkpt><trkpt lat="41.1709098193734" lon="9.270676163912286"><ele>57.4</ele><time>2026-04-26T14:02:04Z</time></trkpt><trkpt lat="41.170813730581926" lon="9.270650562300023"><ele>58.599999999999994</ele><time>2026-04-26T14:02:05Z</time></trkpt><trkpt lat="41.17073454380533" lon="9.270671937980559"><ele>59.8</ele><time>2026-04-26T14:02:06Z</time></trkpt><trkpt lat="41.170667116187865" lon="9.270757734538204"><ele>61.0</ele><time>2026-04-26T14:02:07Z</time></trkpt><trkpt lat="41.17061633081927" lon="9.270865319331683"><ele>62.0</ele><time>2026-04-26T14:02:08Z</time></trkpt><trkpt lat="41.1705682191697" lon="9.271016994392122"><ele>63.0</ele><time>2026-04-26T14:02:09Z</time></trkpt><trkpt lat="41.170522461908796" lon="9.271202844591746"><ele>64.0</ele><time>2026-04-26T14:02:10Z</time></trkpt><trkpt lat="41.17047014228165" lon="9.27138308823701"><ele>65.0</ele><time>2026-04-26T14:02:11Z</time></trkpt><trkpt lat="41.17042898339512" lon="9.271530741161238"><ele>67.0</ele><time>2026-04-26T14:02:12Z</time></trkpt><trkpt lat="41.17041102936705" lon="9.271668972390641"><ele>69.0</ele><time>2026-04-26T14:02:13Z</time></trkpt><trkpt lat="41.17041792590515" lon="9.271813978843287"><ele>71.0</ele><time>2026-04-26T14:02:14Z</time></trkpt><trkpt lat="41.17045639572663" lon="9.271976870019225"><ele>73.0</ele><time>2026-04-26T14:02:15Z</time></trkpt><trkpt lat="41.170516102476554" lon="9.27217390097716"><ele>76.66666666666666</ele><time>2026-04-26T14:02:16Z</time></trkpt><trkpt lat="41.170571875500414" lon="9.272392081501453"><ele>80.33333333333333</ele><time>2026-04-26T14:02:17Z</time></trkpt><trkpt lat="41.1706191235291" lon="9.272606135302766"><ele>84.0</ele><time>2026-04-26T14:02:18Z</time></trkpt><trkpt lat="41.17066838437756" lon="9.272799261785067"><ele>84.66666666666667</ele><time>2026-04-26T14:02:19Z</time></trkpt><trkpt lat="41.17073705845892" lon="9.272977027410148"><ele>85.33333333333334</ele><time>2026-04-26T14:02:20Z</time></trkpt><trkpt lat="41.17083716723312" lon="9.273154013316317"><ele>86.0</ele><time>2026-04-26T14:02:21Z</time></trkpt><trkpt lat="41.170948995258215" lon="9.273348546221502"><ele>86.0</ele><time>2026-04-26T14:02:22Z</time></trkpt><trkpt lat="41.17104471951876" lon="9.273533325292744"><ele>86.0</ele><time>2026-04-26T14:02:23Z</time></trkpt><trkpt lat="41.17112243876643" lon="9.273694402462041"><ele>86.0</ele><time>2026-04-26T14:02:24Z</time></trkpt><trkpt lat="41.17119545162208" lon="9.273821814682341"><ele>86.0</ele><time>2026-04-26T14:02:25Z</time></trkpt><trkpt lat="41.171266925670146" lon="9.273913696356658"><ele>87.8</ele><time>2026-04-26T14:02:26Z</time></trkpt><trkpt lat="41.171327711419465" lon="9.273991545565405"><ele>89.6</ele><time>2026-04-26T14:02:27Z</time></trkpt><trkpt lat="41.17136268754039" lon="9.27408974464522"><ele>91.4</ele><time>2026-04-26T14:02:28Z</time></trkpt><trkpt lat="41.17134371591312" lon="9.274224131469953"><ele>93.2</ele><time>2026-04-26T14:02:29Z</time></trkpt><trkpt lat="41.171353664993305" lon="9.274376549749034"><ele>95.0</ele><time>2026-04-26T14:02:30Z</time></trkpt><trkpt lat="41.17136972296933" lon="9.27452987975799"><ele>95.0</ele><time>2026-04-26T14:02:31Z</time></trkpt><trkpt lat="41.171377108915834" lon="9.274659207437097"><ele>95.0</ele><time>2026-04-26T14:02:32Z</time></trkpt><trkpt lat="41.171376764087924" lon="9.274773948489496"><ele>95.0</ele><time>2026-04-26T14:02:33Z</time></trkpt><trkpt lat="41.17136181547464" lon="9.274865928816865"><ele>95.0</ele><time>2026-04-26T14:02:34Z</time></trkpt><trkpt lat="41.171306083637965" lon="9.27495037067406"><ele>95.0</ele><time>2026-04-26T14:02:36Z</time></trkpt><trkpt lat="41.171192803730136" lon="9.275007989738993"><ele>94.2</ele><time>2026-04-26T14:02:38Z</time></trkpt><trkpt lat="41.171084680012214" lon="9.275034922448338"><ele>93.4</ele><time>2026-04-26T14:02:39Z</time></trkpt><trkpt lat="41.170962760730454" lon="9.275047774254686"><ele>92.6</ele><time>2026-04-26T14:02:40Z</time></trkpt><trkpt lat="41.17086351083588" lon="9.275039353901548"><ele>91.8</ele><time>2026-04-26T14:02:41Z</time></trkpt><trkpt lat="41.17076703504728" lon="9.275001219126372"><ele>91.0</ele><time>2026-04-26T14:02:42Z</time></trkpt><trkpt lat="41.17066578713345" lon="9.27491861665037"><ele>93.19999999999999</ele><time>2026-04-26T14:02:43Z</time></trkpt><trkpt lat="41.17055959090724" lon="9.274877362033711"><ele>95.39999999999999</ele><time>2026-04-26T14:02:44Z</time></trkpt><trkpt lat="41.1704704068881" lon="9.274856900131253"><ele>97.6</ele><time>2026-04-26T14:02:45Z</time></trkpt><trkpt lat="41.17037936079227" lon="9.274896316135678"><ele>99.8</ele><time>2026-04-26T14:02:46Z</time></trkpt><trkpt lat="41.17027707349184" lon="9.27497880738609"><ele>102.0</ele><time>2026-04-26T14:02:47Z</time></trkpt><trkpt lat="41.170158958215445" lon="9.275079278048974"><ele>102.0</ele><time>2026-04-26T14:02:48Z</time></trkpt><trkpt lat="41.17004434888936" lon="9.275099683464044"><ele>102.0</ele><time>2026-04-26T14:02:49Z</time></trkpt><trkpt lat="41.16995766149185" lon="9.275062475990163"><ele>102.0</ele><time>2026-04-26T14:02:50Z</time></trkpt><trkpt lat="41.16988874764089" lon="9.275008106749942"><ele>102.0</ele><time>2026-04-26T14:02:51Z</time></trkpt><trkpt lat="41.16986194778565" lon="9.274906388951127"><ele>102.0</ele><time>2026-04-26T14:02:52Z</time></trkpt><trkpt lat="41.16985948935635" lon="9.274807588026038"><ele>102.0</ele><time>2026-04-26T14:02:53Z</time></trkpt><trkpt lat="41.169905401479774" lon="9.27472220902694"><ele>103.19999999999999</ele><time>2026-04-26T14:02:54Z</time></trkpt><trkpt lat="41.16998451562765" lon="9.27467815821412"><ele>104.4</ele><time>2026-04-26T14:02:55Z</time></trkpt><trkpt lat="41.17008409483025" lon="9.27461231715385"><ele>105.60000000000001</ele><time>2026-04-26T14:02:56Z</time></trkpt><trkpt lat="41.17019119128148" lon="9.274561061915454"><ele>106.80000000000001</ele><time>2026-04-26T14:02:57Z</time></trkpt><trkpt lat="41.17025829535914" lon="9.274479542317954"><ele>108.0</ele><time>2026-04-26T14:02:58Z</time></trkpt><trkpt lat="41.17028362864573" lon="9.27437730581286"><ele>108.0</ele><time>2026-04-26T14:02:59Z</time></trkpt><trkpt lat="41.170265539063195" lon="9.274279382538507"><ele>108.00000000000001</ele><time>2026-04-26T14:03:00Z</time></trkpt><trkpt lat="41.170214000056795" lon="9.274214784196033"><ele>108.00000000000001</ele><time>2026-04-26T14:03:01Z</time></trkpt><trkpt lat="41.1701383423614" lon="9.27419651882719"><ele>108.0</ele><time>2026-04-26T14:03:02Z</time></trkpt><trkpt lat="41.17002895472363" lon="9.27421280992553"><ele>108.0</ele><time>2026-04-26T14:03:03Z</time></trkpt><trkpt lat="41.1698917796042" lon="9.274261973306926"><ele>110.33333333333334</ele><time>2026-04-26T14:03:04Z</time></trkpt><trkpt lat="41.169750427569575" lon="9.274332483782468"><ele>112.66666666666667</ele><time>2026-04-26T14:03:05Z</time></trkpt><trkpt lat="41.16962125939043" lon="9.27441868205851"><ele>115.0</ele><time>2026-04-26T14:03:06Z</time></trkpt><trkpt lat="41.169514904755" lon="9.27460041188677"><ele>115.0</ele><time>2026-04-26T14:03:07Z</time></trkpt><trkpt lat="41.16940430141019" lon="9.274765093009878"><ele>115.0</ele><time>2026-04-26T14:03:08Z</time></trkpt><trkpt lat="41.169292134987586" lon="9.274878489923394"><ele>115.0</ele><time>2026-04-26T14:03:09Z</time></trkpt><trkpt lat="41.169200482875716" lon="9.274982794056116"><ele>115.0</ele><time>2026-04-26T14:03:10Z</time></trkpt><trkpt lat="41.1691056633804" lon="9.275068518961701"><ele>114.25</ele><time>2026-04-26T14:03:11Z</time></trkpt><trkpt lat="41.16899866978111" lon="9.275148679705211"><ele>113.5</ele><time>2026-04-26T14:03:12Z</time></trkpt><trkpt lat="41.16890232378784" lon="9.275246087495377"><ele>112.75</ele><time>2026-04-26T14:03:13Z</time></trkpt><trkpt lat="41.16881010618708" lon="9.275340076559214"><ele>112.0</ele><time>2026-04-26T14:03:14Z</time></trkpt><trkpt lat="41.168743704560136" lon="9.275435074478434"><ele>112.0</ele><time>2026-04-26T14:03:15Z</time></trkpt><trkpt lat="41.16870421864435" lon="9.275537123231466"><ele>111.99999999999999</ele><time>2026-04-26T14:03:16Z</time></trkpt><trkpt lat="41.16869886340475" lon="9.275660824055874"><ele>111.99999999999999</ele><time>2026-04-26T14:03:17Z</time></trkpt><trkpt lat="41.168726852461376" lon="9.275792779708455"><ele>112.0</ele><time>2026-04-26T14:03:18Z</time></trkpt><trkpt lat="41.16878819491604" lon="9.275916288731265"><ele>112.0</ele><time>2026-04-26T14:03:19Z</time></trkpt><trkpt lat="41.16886959821663" lon="9.27604828122101"><ele>114.39999999999999</ele><time>2026-04-26T14:03:20Z</time></trkpt><trkpt lat="41.16892763214311" lon="9.276164940086376"><ele>116.79999999999998</ele><time>2026-04-26T14:03:21Z</time></trkpt><trkpt lat="41.16895067430193" lon="9.276271847195586"><ele>119.2</ele><time>2026-04-26T14:03:22Z</time></trkpt><trkpt lat="41.16893676265441" lon="9.27638373735893"><ele>121.6</ele><time>2026-04-26T14:03:23Z</time></trkpt><trkpt lat="41.16887860028353" lon="9.276488955488524"><ele>124.0</ele><time>2026-04-26T14:03:24Z</time></trkpt><trkpt lat="41.16884148764589" lon="9.27661644108677"><ele>127.25</ele><time>2026-04-26T14:03:25Z</time></trkpt><trkpt lat="41.16877692382346" lon="9.276756476157088"><ele>130.5</ele><time>2026-04-26T14:03:26Z</time></trkpt><trkpt lat="41.16871459855866" lon="9.276931213208801"><ele>133.75</ele><time>2026-04-26T14:03:27Z</time></trkpt><trkpt lat="41.16863937401438" lon="9.277084040223068"><ele>137.0</ele><time>2026-04-26T14:03:28Z</time></trkpt><trkpt lat="41.16858031877667" lon="9.277199518857028"><ele>137.5</ele><time>2026-04-26T14:03:29Z</time></trkpt><trkpt lat="41.168530295612165" lon="9.277279198129234"><ele>138.0</ele><time>2026-04-26T14:03:30Z</time></trkpt><trkpt lat="41.16848450202402" lon="9.27734375262409"><ele>138.5</ele><time>2026-04-26T14:03:31Z</time></trkpt><trkpt lat="41.168440715476585" lon="9.277436133801984"><ele>139.0</ele><time>2026-04-26T14:03:32Z</time></trkpt><trkpt lat="41.16837307807519" lon="9.27751952504239"><ele>139.5</ele><time>2026-04-26T14:03:33Z</time></trkpt><trkpt lat="41.168292828573165" lon="9.277597140377077"><ele>140.0</ele><time>2026-04-26T14:03:34Z</time></trkpt><trkpt lat="41.168217703093745" lon="9.277692925144828"><ele>139.8</ele><time>2026-04-26T14:03:35Z</time></trkpt><trkpt lat="41.16814403210682" lon="9.277794950005525"><ele>139.6</ele><time>2026-04-26T14:03:36Z</time></trkpt><trkpt lat="41.16807485263115" lon="9.277900640294613"><ele>139.4</ele><time>2026-04-26T14:03:37Z</time></trkpt><trkpt lat="41.16802292086649" lon="9.27800950381073"><ele>139.2</ele><time>2026-04-26T14:03:38Z</time></trkpt><trkpt lat="41.167959855462215" lon="9.278095493427976"><ele>139.0</ele><time>2026-04-26T14:03:39Z</time></trkpt><trkpt lat="41.16790511280576" lon="9.278170493384433"><ele>139.0</ele><time>2026-04-26T14:03:40Z</time></trkpt><trkpt lat="41.167855297645325" lon="9.278244556601436"><ele>139.0</ele><time>2026-04-26T14:03:41Z</time></trkpt><trkpt lat="41.1678025594939" lon="9.27832317288965"><ele>139.0</ele><time>2026-04-26T14:03:42Z</time></trkpt><trkpt lat="41.16773073271868" lon="9.278446038331593"><ele>139.0</ele><time>2026-04-26T14:03:44Z</time></trkpt><trkpt lat="41.16768939543968" lon="9.27852636478707"><ele>139.0</ele><time>2026-04-26T14:03:45Z</time></trkpt><trkpt lat="41.16763642548821" lon="9.278620750253353"><ele>139.0</ele><time>2026-04-26T14:03:46Z</time></trkpt><trkpt lat="41.1675885377742" lon="9.278705327959699"><ele>139.0</ele><time>2026-04-26T14:03:47Z</time></trkpt><trkpt lat="41.16754610630302" lon="9.27877771239156"><ele>139.0</ele><time>2026-04-26T14:03:48Z</time></trkpt><trkpt lat="41.167473718343416" lon="9.27889494607724"><ele>139.0</ele><time>2026-04-26T14:03:50Z</time></trkpt><trkpt lat="41.167427987837925" lon="9.278988388519014"><ele>139.0</ele><time>2026-04-26T14:03:52Z</time></trkpt><trkpt lat="41.16747912849726" lon="9.279175505552299"><ele>139.0</ele><time>2026-04-26T14:03:54Z</time></trkpt><trkpt lat="41.1675319443752" lon="9.279306152630864"><ele>138.8</ele><time>2026-04-26T14:03:55Z</time></trkpt><trkpt lat="41.167585490309534" lon="9.279421181670658"><ele>138.60000000000002</ele><time>2026-04-26T14:03:56Z</time></trkpt><trkpt lat="41.16763491929748" lon="9.279535515980157"><ele>138.4</ele><time>2026-04-26T14:03:57Z</time></trkpt><trkpt lat="41.1676760140616" lon="9.279663637759857"><ele>138.20000000000002</ele><time>2026-04-26T14:03:58Z</time></trkpt><trkpt lat="41.1677025224503" lon="9.279790863457382"><ele>138.0</ele><time>2026-04-26T14:03:59Z</time></trkpt><trkpt lat="41.16772687007729" lon="9.279923747692406"><ele>137.8</ele><time>2026-04-26T14:04:00Z</time></trkpt><trkpt lat="41.1677503585359" lon="9.280054024175868"><ele>137.60000000000002</ele><time>2026-04-26T14:04:01Z</time></trkpt><trkpt lat="41.16777967848953" lon="9.280180076679622"><ele>137.39999999999998</ele><time>2026-04-26T14:04:02Z</time></trkpt><trkpt lat="41.16782910655619" lon="9.2802915649251"><ele>137.2</ele><time>2026-04-26T14:04:03Z</time></trkpt><trkpt lat="41.16790619699226" lon="9.280393906032774"><ele>137.0</ele><time>2026-04-26T14:04:04Z</time></trkpt><trkpt lat="41.16797960237765" lon="9.280487710732782"><ele>137.0</ele><time>2026-04-26T14:04:05Z</time></trkpt><trkpt lat="41.16804925892939" lon="9.280591022707032"><ele>137.0</ele><time>2026-04-26T14:04:06Z</time></trkpt><trkpt lat="41.16810645151518" lon="9.280712508451865"><ele>137.0</ele><time>2026-04-26T14:04:07Z</time></trkpt><trkpt lat="41.168158905992584" lon="9.280840816918145"><ele>137.0</ele><time>2026-04-26T14:04:08Z</time></trkpt><trkpt lat="41.16820979413318" lon="9.280977360009313"><ele>137.0</ele><time>2026-04-26T14:04:09Z</time></trkpt><trkpt lat="41.16825479828448" lon="9.281136951097622"><ele>132.25</ele><time>2026-04-26T14:04:10Z</time></trkpt><trkpt lat="41.16825801505252" lon="9.281320262397413"><ele>127.5</ele><time>2026-04-26T14:04:11Z</time></trkpt><trkpt lat="41.168256642243584" lon="9.281509712669337"><ele>122.75</ele><time>2026-04-26T14:04:12Z</time></trkpt><trkpt lat="41.1682675395955" lon="9.281708313691038"><ele>118.0</ele><time>2026-04-26T14:04:13Z</time></trkpt><trkpt lat="41.16826430742615" lon="9.281902493868952"><ele>117.25</ele><time>2026-04-26T14:04:14Z</time></trkpt><trkpt lat="41.16826465293994" lon="9.28208762536241"><ele>116.5</ele><time>2026-04-26T14:04:15Z</time></trkpt><trkpt lat="41.16826393069503" lon="9.282260097971733"><ele>115.75</ele><time>2026-04-26T14:04:16Z</time></trkpt><trkpt lat="41.16826058077597" lon="9.282419205452381"><ele>115.0</ele><time>2026-04-26T14:04:17Z</time></trkpt><trkpt lat="41.16827098605226" lon="9.282565688395133"><ele>114.25</ele><time>2026-04-26T14:04:18Z</time></trkpt><trkpt lat="41.16830362652916" lon="9.282705412791975"><ele>113.5</ele><time>2026-04-26T14:04:19Z</time></trkpt><trkpt lat="41.168361124478736" lon="9.282837438271502"><ele>112.75</ele><time>2026-04-26T14:04:20Z</time></trkpt><trkpt lat="41.16844325735113" lon="9.28294801935093"><ele>112.0</ele><time>2026-04-26T14:04:21Z</time></trkpt><trkpt lat="41.168542216771485" lon="9.283027705546361"><ele>112.0</ele><time>2026-04-26T14:04:22Z</time></trkpt><trkpt lat="41.16865525922568" lon="9.283079817203571"><ele>112.0</ele><time>2026-04-26T14:04:23Z</time></trkpt><trkpt lat="41.16878097843299" lon="9.283109052170223"><ele>112.0</ele><time>2026-04-26T14:04:24Z</time></trkpt><trkpt lat="41.16890540085585" lon="9.283088891791465"><ele>112.0</ele><time>2026-04-26T14:04:25Z</time></trkpt><trkpt lat="41.16902223097098" lon="9.283032114078"><ele>109.39999999999999</ele><time>2026-04-26T14:04:26Z</time></trkpt><trkpt lat="41.16912714081564" lon="9.282951798916043"><ele>106.79999999999998</ele><time>2026-04-26T14:04:27Z</time></trkpt><trkpt lat="41.169208841927215" lon="9.282898880764455"><ele>104.2</ele><time>2026-04-26T14:04:28Z</time></trkpt><trkpt lat="41.16927145290917" lon="9.282884674206754"><ele>101.6</ele><time>2026-04-26T14:04:29Z</time></trkpt><trkpt lat="41.169352719286906" lon="9.283004702793063"><ele>99.0</ele><time>2026-04-26T14:04:31Z</time></trkpt><trkpt lat="41.169336979348486" lon="9.28312114935021"><ele>98.4</ele><time>2026-04-26T14:04:32Z</time></trkpt><trkpt lat="41.169354914056775" lon="9.283279572317804"><ele>97.80000000000001</ele><time>2026-04-26T14:04:33Z</time></trkpt><trkpt lat="41.16934883879348" lon="9.28342727365173"><ele>97.19999999999999</ele><time>2026-04-26T14:04:34Z</time></trkpt><trkpt lat="41.16936898551302" lon="9.283544291424413"><ele>96.6</ele><time>2026-04-26T14:04:35Z</time></trkpt><trkpt lat="41.16942027456831" lon="9.283648108116344"><ele>96.0</ele><time>2026-04-26T14:04:36Z</time></trkpt><trkpt lat="41.16951222721937" lon="9.283734184722377"><ele>96.0</ele><time>2026-04-26T14:04:37Z</time></trkpt><trkpt lat="41.169634352119694" lon="9.28380242479521"><ele>96.0</ele><time>2026-04-26T14:04:38Z</time></trkpt><trkpt lat="41.16978122893221" lon="9.283858085772872"><ele>96.0</ele><time>2026-04-26T14:04:39Z</time></trkpt><trkpt lat="41.16996082744466" lon="9.283936095442924"><ele>92.0</ele><time>2026-04-26T14:04:40Z</time></trkpt><trkpt lat="41.17015343275154" lon="9.284029641718393"><ele>88.0</ele><time>2026-04-26T14:04:41Z</time></trkpt><trkpt lat="41.17033441170354" lon="9.284115122576322"><ele>84.0</ele><time>2026-04-26T14:04:42Z</time></trkpt><trkpt lat="41.17050298214075" lon="9.28420017438237"><ele>84.0</ele><time>2026-04-26T14:04:43Z</time></trkpt><trkpt lat="41.17065475534548" lon="9.2842733770747"><ele>84.0</ele><time>2026-04-26T14:04:44Z</time></trkpt><trkpt lat="41.17077515233102" lon="9.28433796418259"><ele>84.0</ele><time>2026-04-26T14:04:45Z</time></trkpt><trkpt lat="41.17088678960296" lon="9.28442466812351"><ele>84.0</ele><time>2026-04-26T14:04:46Z</time></trkpt><trkpt lat="41.170975694019866" lon="9.284559864521137"><ele>82.25</ele><time>2026-04-26T14:04:47Z</time></trkpt><trkpt lat="41.17107093139828" lon="9.284691651298818"><ele>80.5</ele><time>2026-04-26T14:04:48Z</time></trkpt><trkpt lat="41.17114529628284" lon="9.284852529800425"><ele>78.75</ele><time>2026-04-26T14:04:49Z</time></trkpt><trkpt lat="41.1712167600988" lon="9.284999719702794"><ele>77.0</ele><time>2026-04-26T14:04:50Z</time></trkpt><trkpt lat="41.17128215203821" lon="9.285117030994295"><ele>76.2</ele><time>2026-04-26T14:04:51Z</time></trkpt><trkpt lat="41.17133528775829" lon="9.285209584359098"><ele>75.4</ele><time>2026-04-26T14:04:52Z</time></trkpt><trkpt lat="41.17139291120491" lon="9.285283589495098"><ele>74.6</ele><time>2026-04-26T14:04:53Z</time></trkpt><trkpt lat="41.17146760926036" lon="9.285330673378208"><ele>73.8</ele><time>2026-04-26T14:04:54Z</time></trkpt><trkpt lat="41.17156672677229" lon="9.285335205303268"><ele>73.0</ele><time>2026-04-26T14:04:55Z</time></trkpt><trkpt lat="41.17167003145225" lon="9.285292628838741"><ele>71.25</ele><time>2026-04-26T14:04:56Z</time></trkpt><trkpt lat="41.171777130472655" lon="9.285210594705315"><ele>69.5</ele><time>2026-04-26T14:04:57Z</time></trkpt><trkpt lat="41.17186427850506" lon="9.285102322476993"><ele>67.75</ele><time>2026-04-26T14:04:58Z</time></trkpt><trkpt lat="41.17192445778423" lon="9.284969472503754"><ele>66.0</ele><time>2026-04-26T14:04:59Z</time></trkpt><trkpt lat="41.171963756227136" lon="9.28482585460587"><ele>66.0</ele><time>2026-04-26T14:05:00Z</time></trkpt><trkpt lat="41.17199476902524" lon="9.284703656111972"><ele>66.0</ele><time>2026-04-26T14:05:01Z</time></trkpt><trkpt lat="41.172039736131644" lon="9.284637911392194"><ele>66.0</ele><time>2026-04-26T14:05:02Z</time></trkpt><trkpt lat="41.17210844435667" lon="9.284630502136311"><ele>66.0</ele><time>2026-04-26T14:05:03Z</time></trkpt><trkpt lat="41.17218281430332" lon="9.284680658954608"><ele>66.0</ele><time>2026-04-26T14:05:04Z</time></trkpt><trkpt lat="41.17224997680526" lon="9.28478719782747"><ele>66.0</ele><time>2026-04-26T14:05:05Z</time></trkpt><trkpt lat="41.17231673740282" lon="9.284942456567418"><ele>64.0</ele><time>2026-04-26T14:05:06Z</time></trkpt><trkpt lat="41.17237605427145" lon="9.285127505381418"><ele>62.0</ele><time>2026-04-26T14:05:07Z</time></trkpt><trkpt lat="41.17242652153514" lon="9.285324735350757"><ele>60.0</ele><time>2026-04-26T14:05:08Z</time></trkpt><trkpt lat="41.1724696965256" lon="9.285514289084533"><ele>59.5</ele><time>2026-04-26T14:05:09Z</time></trkpt><trkpt lat="41.17250957255873" lon="9.285682525207006"><ele>59.0</ele><time>2026-04-26T14:05:10Z</time></trkpt><trkpt lat="41.17252878963486" lon="9.285849057418803"><ele>58.5</ele><time>2026-04-26T14:05:11Z</time></trkpt><trkpt lat="41.17251727982508" lon="9.286026175840746"><ele>58.0</ele><time>2026-04-26T14:05:12Z</time></trkpt><trkpt lat="41.17249159949691" lon="9.286223365668155"><ele>56.666666666666664</ele><time>2026-04-26T14:05:13Z</time></trkpt><trkpt lat="41.172435036597975" lon="9.286428794469428"><ele>55.33333333333333</ele><time>2026-04-26T14:05:14Z</time></trkpt><trkpt lat="41.17240753433649" lon="9.286630861901244"><ele>54.0</ele><time>2026-04-26T14:05:15Z</time></trkpt><trkpt lat="41.17237134596035" lon="9.28680469535543"><ele>54.0</ele><time>2026-04-26T14:05:16Z</time></trkpt><trkpt lat="41.17235614652535" lon="9.286952750417942"><ele>54.0</ele><time>2026-04-26T14:05:17Z</time></trkpt><trkpt lat="41.172372721833185" lon="9.287105766248592"><ele>54.0</ele><time>2026-04-26T14:05:18Z</time></trkpt><trkpt lat="41.172423475369" lon="9.287278466347402"><ele>54.0</ele><time>2026-04-26T14:05:19Z</time></trkpt><trkpt lat="41.172509449619746" lon="9.287472435904574"><ele>51.666666666666664</ele><time>2026-04-26T14:05:20Z</time></trkpt><trkpt lat="41.17260115135304" lon="9.287666888772128"><ele>49.33333333333333</ele><time>2026-04-26T14:05:21Z</time></trkpt><trkpt lat="41.172686178520905" lon="9.287852611785326"><ele>47.0</ele><time>2026-04-26T14:05:22Z</time></trkpt><trkpt lat="41.172764685853664" lon="9.288033714877248"><ele>46.0</ele><time>2026-04-26T14:05:23Z</time></trkpt><trkpt lat="41.17283983172976" lon="9.288208109795494"><ele>45.0</ele><time>2026-04-26T14:05:24Z</time></trkpt><trkpt lat="41.17291541628449" lon="9.288377965952717"><ele>44.0</ele><time>2026-04-26T14:05:25Z</time></trkpt><trkpt lat="41.17298345540091" lon="9.288532647197654"><ele>43.0</ele><time>2026-04-26T14:05:26Z</time></trkpt><trkpt lat="41.17304242083028" lon="9.288660985499302"><ele>43.0</ele><time>2026-04-26T14:05:27Z</time></trkpt><trkpt lat="41.17308802694016" lon="9.288761423835693"><ele>43.0</ele><time>2026-04-26T14:05:28Z</time></trkpt><trkpt lat="41.173121221139795" lon="9.288838148760208"><ele>43.0</ele><time>2026-04-26T14:05:29Z</time></trkpt><trkpt lat="41.17315609456234" lon="9.288909517291314"><ele>43.0</ele><time>2026-04-26T14:05:31Z</time></trkpt><trkpt lat="41.17311633011261" lon="9.289093648384057"><ele>43.0</ele><time>2026-04-26T14:05:33Z</time></trkpt><trkpt lat="41.173069189655024" lon="9.289260076946391"><ele>42.0</ele><time>2026-04-26T14:05:34Z</time></trkpt><trkpt lat="41.17300115244109" lon="9.289454330854428"><ele>41.0</ele><time>2026-04-26T14:05:35Z</time></trkpt><trkpt lat="41.172929309103125" lon="9.28968195860569"><ele>40.0</ele><time>2026-04-26T14:05:36Z</time></trkpt><trkpt lat="41.17285252997844" lon="9.289929751243413"><ele>39.333333333333336</ele><time>2026-04-26T14:05:37Z</time></trkpt><trkpt lat="41.17276915268092" lon="9.290197560106911"><ele>38.666666666666664</ele><time>2026-04-26T14:05:38Z</time></trkpt><trkpt lat="41.17268232787718" lon="9.290477735527187"><ele>38.0</ele><time>2026-04-26T14:05:39Z</time></trkpt><trkpt lat="41.172590535008574" lon="9.290742724198182"><ele>38.0</ele><time>2026-04-26T14:05:40Z</time></trkpt><trkpt lat="41.17249015131477" lon="9.290994809462324"><ele>38.0</ele><time>2026-04-26T14:05:41Z</time></trkpt><trkpt lat="41.1723708441042" lon="9.291249951780474"><ele>38.0</ele><time>2026-04-26T14:05:42Z</time></trkpt><trkpt lat="41.172249533408376" lon="9.291505645186733"><ele>37.666666666666664</ele><time>2026-04-26T14:05:43Z</time></trkpt><trkpt lat="41.17213702964382" lon="9.291744041287519"><ele>37.333333333333336</ele><time>2026-04-26T14:05:44Z</time></trkpt><trkpt lat="41.172032783063" lon="9.291970567317907"><ele>37.0</ele><time>2026-04-26T14:05:45Z</time></trkpt><trkpt lat="41.17192987016263" lon="9.292193065047735"><ele>36.0</ele><time>2026-04-26T14:05:46Z</time></trkpt><trkpt lat="41.171827876223745" lon="9.292423030775323"><ele>35.0</ele><time>2026-04-26T14:05:47Z</time></trkpt><trkpt lat="41.17173731347541" lon="9.29266673440493"><ele>34.0</ele><time>2026-04-26T14:05:48Z</time></trkpt><trkpt lat="41.1716641645526" lon="9.29290888782428"><ele>34.333333333333336</ele><time>2026-04-26T14:05:49Z</time></trkpt><trkpt lat="41.17159950746145" lon="9.293141460847682"><ele>34.666666666666664</ele><time>2026-04-26T14:05:50Z</time></trkpt><trkpt lat="41.17153352654612" lon="9.293357381826416"><ele>35.0</ele><time>2026-04-26T14:05:51Z</time></trkpt><trkpt lat="41.17147264504246" lon="9.29356230199465"><ele>35.0</ele><time>2026-04-26T14:05:52Z</time></trkpt><trkpt lat="41.17143847212567" lon="9.293773486281314"><ele>35.0</ele><time>2026-04-26T14:05:53Z</time></trkpt><trkpt lat="41.17143772155338" lon="9.293997502358323"><ele>35.0</ele><time>2026-04-26T14:05:54Z</time></trkpt><trkpt lat="41.17145492668024" lon="9.294223756598882"><ele>33.0</ele><time>2026-04-26T14:05:55Z</time></trkpt><trkpt lat="41.17142559272777" lon="9.294442620859822"><ele>31.0</ele><time>2026-04-26T14:05:56Z</time></trkpt><trkpt lat="41.171376794024205" lon="9.294694261852925"><ele>29.0</ele><time>2026-04-26T14:05:57Z</time></trkpt><trkpt lat="41.171291158598756" lon="9.294964316023613"><ele>27.5</ele><time>2026-04-26T14:05:58Z</time></trkpt><trkpt lat="41.17121971880455" lon="9.295258019028568"><ele>26.0</ele><time>2026-04-26T14:05:59Z</time></trkpt><trkpt lat="41.171163229752224" lon="9.295574330646918"><ele>24.5</ele><time>2026-04-26T14:06:00Z</time></trkpt><trkpt lat="41.17111233955493" lon="9.295908138386324"><ele>23.0</ele><time>2026-04-26T14:06:01Z</time></trkpt><trkpt lat="41.17106366737782" lon="9.296256810827314"><ele>22.0</ele><time>2026-04-26T14:06:02Z</time></trkpt><trkpt lat="41.17101392525623" lon="9.29660594642229"><ele>21.0</ele><time>2026-04-26T14:06:03Z</time></trkpt><trkpt lat="41.170968915443765" lon="9.296931616928994"><ele>21.0</ele><time>2026-04-26T14:06:04Z</time></trkpt><trkpt lat="41.17092685345286" lon="9.297238250909158"><ele>21.0</ele><time>2026-04-26T14:06:05Z</time></trkpt><trkpt lat="41.17088675969266" lon="9.2975353979239"><ele>21.0</ele><time>2026-04-26T14:06:06Z</time></trkpt><trkpt lat="41.17084432782874" lon="9.297822214568464"><ele>21.0</ele><time>2026-04-26T14:06:07Z</time></trkpt><trkpt lat="41.17079504479283" lon="9.298094894085201"><ele>21.0</ele><time>2026-04-26T14:06:08Z</time></trkpt><trkpt lat="41.17073807724291" lon="9.298354760059967"><ele>19.333333333333332</ele><time>2026-04-26T14:06:09Z</time></trkpt><trkpt lat="41.17066858579465" lon="9.29859799628726"><ele>17.666666666666664</ele><time>2026-04-26T14:06:10Z</time></trkpt><trkpt lat="41.1705574134844" lon="9.29881077476271"><ele>16.0</ele><time>2026-04-26T14:06:11Z</time></trkpt><trkpt lat="41.170445092284936" lon="9.299038426858896"><ele>14.0</ele><time>2026-04-26T14:06:12Z</time></trkpt><trkpt lat="41.17029816391925" lon="9.299260921992952"><ele>12.0</ele><time>2026-04-26T14:06:13Z</time></trkpt><trkpt lat="41.17014722692688" lon="9.299507246724865"><ele>13.0</ele><time>2026-04-26T14:06:14Z</time></trkpt><trkpt lat="41.16999409867884" lon="9.299772089365886"><ele>14.0</ele><time>2026-04-26T14:06:15Z</time></trkpt><trkpt lat="41.16983451303974" lon="9.300044345469779"><ele>18.5</ele><time>2026-04-26T14:06:16Z</time></trkpt><trkpt lat="41.169678480621265" lon="9.300312254310391"><ele>23.0</ele><time>2026-04-26T14:06:17Z</time></trkpt><trkpt lat="41.16952794305511" lon="9.300572281771863"><ele>20.5</ele><time>2026-04-26T14:06:18Z</time></trkpt><trkpt lat="41.16937152616549" lon="9.300842507558084"><ele>18.0</ele><time>2026-04-26T14:06:19Z</time></trkpt><trkpt lat="41.16921365470228" lon="9.301111033117396"><ele>18.0</ele><time>2026-04-26T14:06:20Z</time></trkpt><trkpt lat="41.16906698496797" lon="9.30136369025774"><ele>18.0</ele><time>2026-04-26T14:06:21Z</time></trkpt><trkpt lat="41.168928801494005" lon="9.301593670732942"><ele>21.333333333333336</ele><time>2026-04-26T14:06:22Z</time></trkpt><trkpt lat="41.168797907928415" lon="9.301809126689147"><ele>24.666666666666668</ele><time>2026-04-26T14:06:23Z</time></trkpt><trkpt lat="41.16867303836281" lon="9.302016448628025"><ele>28.0</ele><time>2026-04-26T14:06:24Z</time></trkpt><trkpt lat="41.16855446777285" lon="9.302209829454311"><ele>25.333333333333336</ele><time>2026-04-26T14:06:25Z</time></trkpt><trkpt lat="41.168447626744985" lon="9.302386923170939"><ele>22.666666666666668</ele><time>2026-04-26T14:06:26Z</time></trkpt><trkpt lat="41.16836844060948" lon="9.302561607400047"><ele>20.0</ele><time>2026-04-26T14:06:27Z</time></trkpt><trkpt lat="41.168319173586774" lon="9.302765058883212"><ele>20.0</ele><time>2026-04-26T14:06:28Z</time></trkpt><trkpt lat="41.16828437414082" lon="9.303011159484377"><ele>20.0</ele><time>2026-04-26T14:06:29Z</time></trkpt><trkpt lat="41.1682470496924" lon="9.303264929480648"><ele>20.0</ele><time>2026-04-26T14:06:30Z</time></trkpt><trkpt lat="41.168202072282085" lon="9.303483448321119"><ele>17.666666666666668</ele><time>2026-04-26T14:06:31Z</time></trkpt><trkpt lat="41.168164188914" lon="9.30368379585494"><ele>15.333333333333332</ele><time>2026-04-26T14:06:32Z</time></trkpt><trkpt lat="41.168251513433646" lon="9.303917561419176"><ele>13.0</ele><time>2026-04-26T14:06:33Z</time></trkpt><trkpt lat="41.168253668255495" lon="9.304111633112244"><ele>13.0</ele><time>2026-04-26T14:06:34Z</time></trkpt><trkpt lat="41.168212292508116" lon="9.304289923370526"><ele>13.0</ele><time>2026-04-26T14:06:35Z</time></trkpt><trkpt lat="41.1681241194319" lon="9.30447481042846"><ele>13.0</ele><time>2026-04-26T14:06:36Z</time></trkpt><trkpt lat="41.16800847173973" lon="9.304676367734984"><ele>15.666666666666666</ele><time>2026-04-26T14:06:37Z</time></trkpt><trkpt lat="41.16789545193927" lon="9.30490037071098"><ele>18.333333333333332</ele><time>2026-04-26T14:06:38Z</time></trkpt><trkpt lat="41.167810446536706" lon="9.30511810658647"><ele>21.0</ele><time>2026-04-26T14:06:39Z</time></trkpt><trkpt lat="41.1677279305731" lon="9.3053184702355"><ele>21.0</ele><time>2026-04-26T14:06:40Z</time></trkpt><trkpt lat="41.16762044206606" lon="9.305493401420353"><ele>21.0</ele><time>2026-04-26T14:06:41Z</time></trkpt><trkpt lat="41.16747108550132" lon="9.30565021990887"><ele>21.0</ele><time>2026-04-26T14:06:42Z</time></trkpt><trkpt lat="41.167289118465725" lon="9.305804772399785"><ele>23.0</ele><time>2026-04-26T14:06:43Z</time></trkpt><trkpt lat="41.167108162340256" lon="9.305980768994656"><ele>25.0</ele><time>2026-04-26T14:06:44Z</time></trkpt><trkpt lat="41.16695806341474" lon="9.30616683477252"><ele>27.0</ele><time>2026-04-26T14:06:45Z</time></trkpt><trkpt lat="41.16684005979437" lon="9.306349632023851"><ele>25.0</ele><time>2026-04-26T14:06:46Z</time></trkpt><trkpt lat="41.16675553923416" lon="9.306506368998004"><ele>23.0</ele><time>2026-04-26T14:06:47Z</time></trkpt><trkpt lat="41.1666900773501" lon="9.306657931938421"><ele>21.0</ele><time>2026-04-26T14:06:48Z</time></trkpt><trkpt lat="41.1666541292558" lon="9.306837466910856"><ele>19.0</ele><time>2026-04-26T14:06:49Z</time></trkpt><trkpt lat="41.16664918644462" lon="9.307061594783391"><ele>17.666666666666664</ele><time>2026-04-26T14:06:50Z</time></trkpt><trkpt lat="41.16667265539111" lon="9.307321726900204"><ele>16.333333333333332</ele><time>2026-04-26T14:06:51Z</time></trkpt><trkpt lat="41.16669471612228" lon="9.307580784502754"><ele>15.0</ele><time>2026-04-26T14:06:52Z</time></trkpt><trkpt lat="41.16670355258039" lon="9.307816210064981"><ele>15.0</ele><time>2026-04-26T14:06:53Z</time></trkpt><trkpt lat="41.1666899035235" lon="9.30803690487955"><ele>15.0</ele><time>2026-04-26T14:06:54Z</time></trkpt><trkpt lat="41.16663765588954" lon="9.308238465133195"><ele>15.0</ele><time>2026-04-26T14:06:55Z</time></trkpt><trkpt lat="41.16655279119277" lon="9.308413154354199"><ele>15.666666666666668</ele><time>2026-04-26T14:06:56Z</time></trkpt><trkpt lat="41.166433938469694" lon="9.30854707857722"><ele>16.333333333333336</ele><time>2026-04-26T14:06:57Z</time></trkpt><trkpt lat="41.1662750136494" lon="9.308659842973004"><ele>17.0</ele><time>2026-04-26T14:06:58Z</time></trkpt><trkpt lat="41.16608817106854" lon="9.308769440290652"><ele>17.0</ele><time>2026-04-26T14:06:59Z</time></trkpt><trkpt lat="41.16589101687592" lon="9.308891779900776"><ele>17.0</ele><time>2026-04-26T14:07:00Z</time></trkpt><trkpt lat="41.1656836332086" lon="9.309027352227906"><ele>17.0</ele><time>2026-04-26T14:07:01Z</time></trkpt><trkpt lat="41.16546272238395" lon="9.309176063740772"><ele>15.0</ele><time>2026-04-26T14:07:02Z</time></trkpt><trkpt lat="41.16523578778808" lon="9.309329077749815"><ele>13.0</ele><time>2026-04-26T14:07:03Z</time></trkpt><trkpt lat="41.16502206603016" lon="9.309470894512524"><ele>12.333333333333332</ele><time>2026-04-26T14:07:04Z</time></trkpt><trkpt lat="41.16482584550856" lon="9.309602707436405"><ele>11.666666666666666</ele><time>2026-04-26T14:07:05Z</time></trkpt><trkpt lat="41.16463726900613" lon="9.309727947612183"><ele>11.0</ele><time>2026-04-26T14:07:06Z</time></trkpt><trkpt lat="41.16445797057766" lon="9.309847696015073"><ele>11.0</ele><time>2026-04-26T14:07:07Z</time></trkpt><trkpt lat="41.164286266822955" lon="9.309964021305598"><ele>11.0</ele><time>2026-04-26T14:07:08Z</time></trkpt><trkpt lat="41.16412183656652" lon="9.31007551535787"><ele>11.0</ele><time>2026-04-26T14:07:09Z</time></trkpt><trkpt lat="41.16396628950886" lon="9.310185497263122"><ele>12.0</ele><time>2026-04-26T14:07:10Z</time></trkpt><trkpt lat="41.16382215889393" lon="9.310309004984493"><ele>13.0</ele><time>2026-04-26T14:07:11Z</time></trkpt><trkpt lat="41.16368846786527" lon="9.310463941568548"><ele>14.0</ele><time>2026-04-26T14:07:12Z</time></trkpt><trkpt lat="41.16356870482394" lon="9.310640232096176"><ele>14.0</ele><time>2026-04-26T14:07:13Z</time></trkpt><trkpt lat="41.16346773971347" lon="9.310835151028497"><ele>14.0</ele><time>2026-04-26T14:07:14Z</time></trkpt><trkpt lat="41.163385189013894" lon="9.31105007750433"><ele>14.0</ele><time>2026-04-26T14:07:15Z</time></trkpt><trkpt lat="41.1633243881729" lon="9.31128472188623"><ele>13.333333333333334</ele><time>2026-04-26T14:07:16Z</time></trkpt><trkpt lat="41.163283495901105" lon="9.311533173387431"><ele>12.666666666666668</ele><time>2026-04-26T14:07:17Z</time></trkpt><trkpt lat="41.16326587979408" lon="9.31178262614886"><ele>12.0</ele><time>2026-04-26T14:07:18Z</time></trkpt><trkpt lat="41.16327487115202" lon="9.31201135198684"><ele>12.0</ele><time>2026-04-26T14:07:19Z</time></trkpt><trkpt lat="41.16329706986693" lon="9.312239139240678"><ele>12.0</ele><time>2026-04-26T14:07:20Z</time></trkpt><trkpt lat="41.163335204009044" lon="9.312482462002102"><ele>12.0</ele><time>2026-04-26T14:07:21Z</time></trkpt><trkpt lat="41.16339233046551" lon="9.312744457561308"><ele>9.5</ele><time>2026-04-26T14:07:22Z</time></trkpt><trkpt lat="41.16346673574584" lon="9.313026587066608"><ele>7.0</ele><time>2026-04-26T14:07:23Z</time></trkpt><trkpt lat="41.163541794020496" lon="9.313326670648026"><ele>5.0</ele><time>2026-04-26T14:07:24Z</time></trkpt><trkpt lat="41.163616513971164" lon="9.313636725220336"><ele>3.0</ele><time>2026-04-26T14:07:25Z</time></trkpt><trkpt lat="41.16369441077193" lon="9.313955898549398"><ele>2.5</ele><time>2026-04-26T14:07:26Z</time></trkpt><trkpt lat="41.16377234272797" lon="9.314284970870036"><ele>2.0</ele><time>2026-04-26T14:07:27Z</time></trkpt><trkpt lat="41.163844767473115" lon="9.314582621853988"><ele>2.0</ele><time>2026-04-26T14:07:28Z</time></trkpt><trkpt lat="41.16391231583161" lon="9.314865474130036"><ele>2.0</ele><time>2026-04-26T14:07:29Z</time></trkpt><trkpt lat="41.16397326020705" lon="9.315132333443334"><ele>2.0</ele><time>2026-04-26T14:07:30Z</time></trkpt><trkpt lat="41.16403075231386" lon="9.315389035376763"><ele>3.25</ele><time>2026-04-26T14:07:31Z</time></trkpt><trkpt lat="41.16408603444002" lon="9.315620852630026"><ele>4.5</ele><time>2026-04-26T14:07:32Z</time></trkpt><trkpt lat="41.164133893678894" lon="9.315798018268136"><ele>5.75</ele><time>2026-04-26T14:07:33Z</time></trkpt><trkpt lat="41.16419632436534" lon="9.315935998916913"><ele>7.0</ele><time>2026-04-26T14:07:34Z</time></trkpt><trkpt lat="41.16429350731793" lon="9.316031871457193"><ele>7.0</ele><time>2026-04-26T14:07:35Z</time></trkpt><trkpt lat="41.16441496557911" lon="9.316090639744665"><ele>7.0</ele><time>2026-04-26T14:07:36Z</time></trkpt><trkpt lat="41.16456502980575" lon="9.316106670016175"><ele>7.0</ele><time>2026-04-26T14:07:37Z</time></trkpt><trkpt lat="41.16474431521885" lon="9.316091654334986"><ele>7.333333333333334</ele><time>2026-04-26T14:07:38Z</time></trkpt><trkpt lat="41.164941371535484" lon="9.31606640911799"><ele>7.666666666666666</ele><time>2026-04-26T14:07:39Z</time></trkpt><trkpt lat="41.16515308325604" lon="9.316051704280667"><ele>8.0</ele><time>2026-04-26T14:07:40Z</time></trkpt><trkpt lat="41.16537791745367" lon="9.316043259655176"><ele>8.0</ele><time>2026-04-26T14:07:41Z</time></trkpt><trkpt lat="41.16561756567625" lon="9.316038443510525"><ele>8.0</ele><time>2026-04-26T14:07:42Z</time></trkpt><trkpt lat="41.16585178008378" lon="9.316029727318446"><ele>8.0</ele><time>2026-04-26T14:07:43Z</time></trkpt><trkpt lat="41.16605929304116" lon="9.31602111814146"><ele>8.0</ele><time>2026-04-26T14:07:44Z</time></trkpt><trkpt lat="41.16625317431119" lon="9.316016311456362"><ele>8.0</ele><time>2026-04-26T14:07:45Z</time></trkpt><trkpt lat="41.166434771211144" lon="9.316026477733237"><ele>8.333333333333332</ele><time>2026-04-26T14:07:46Z</time></trkpt><trkpt lat="41.166608765820705" lon="9.316084766194637"><ele>8.666666666666666</ele><time>2026-04-26T14:07:47Z</time></trkpt><trkpt lat="41.16678145965401" lon="9.31621594699698"><ele>9.0</ele><time>2026-04-26T14:07:48Z</time></trkpt><trkpt lat="41.16694568779313" lon="9.316342932423767"><ele>12.333333333333332</ele><time>2026-04-26T14:07:49Z</time></trkpt><trkpt lat="41.167074159084514" lon="9.316497278390202"><ele>15.666666666666666</ele><time>2026-04-26T14:07:50Z</time></trkpt><trkpt lat="41.16719125665267" lon="9.316699166214871"><ele>19.0</ele><time>2026-04-26T14:07:51Z</time></trkpt><trkpt lat="41.167330232770986" lon="9.316903341378941"><ele>17.333333333333332</ele><time>2026-04-26T14:07:52Z</time></trkpt><trkpt lat="41.167430154592175" lon="9.317113696426881"><ele>15.666666666666668</ele><time>2026-04-26T14:07:53Z</time></trkpt><trkpt lat="41.167526195277624" lon="9.31728876129276"><ele>14.0</ele><time>2026-04-26T14:07:54Z</time></trkpt><trkpt lat="41.16761136038391" lon="9.317420200285504"><ele>17.0</ele><time>2026-04-26T14:07:55Z</time></trkpt><trkpt lat="41.16771184041507" lon="9.317511959810279"><ele>20.0</ele><time>2026-04-26T14:07:56Z</time></trkpt><trkpt lat="41.16783043130391" lon="9.31754664208275"><ele>23.0</ele><time>2026-04-26T14:07:57Z</time></trkpt><trkpt lat="41.167964378734474" lon="9.317528162161882"><ele>26.0</ele><time>2026-04-26T14:07:58Z</time></trkpt><trkpt lat="41.16811268449166" lon="9.317479245922902"><ele>26.0</ele><time>2026-04-26T14:07:59Z</time></trkpt><trkpt lat="41.168269337050965" lon="9.317454243725383"><ele>26.0</ele><time>2026-04-26T14:08:00Z</time></trkpt><trkpt lat="41.16841236261243" lon="9.31749740723744"><ele>26.0</ele><time>2026-04-26T14:08:01Z</time></trkpt><trkpt lat="41.16852217769019" lon="9.317639037515207"><ele>26.0</ele><time>2026-04-26T14:08:02Z</time></trkpt><trkpt lat="41.16863841541215" lon="9.317796330767809"><ele>26.0</ele><time>2026-04-26T14:08:03Z</time></trkpt><trkpt lat="41.16876661155119" lon="9.317958895703567"><ele>26.0</ele><time>2026-04-26T14:08:04Z</time></trkpt><trkpt lat="41.168875073067255" lon="9.318091310399051"><ele>27.0</ele><time>2026-04-26T14:08:05Z</time></trkpt><trkpt lat="41.168991918674315" lon="9.31814968954586"><ele>28.0</ele><time>2026-04-26T14:08:06Z</time></trkpt><trkpt lat="41.1691095190416" lon="9.318142156560953"><ele>29.0</ele><time>2026-04-26T14:08:07Z</time></trkpt><trkpt lat="41.169203294799274" lon="9.31807868571812"><ele>30.0</ele><time>2026-04-26T14:08:08Z</time></trkpt><trkpt lat="41.169270791945586" lon="9.317974858535566"><ele>30.0</ele><time>2026-04-26T14:08:09Z</time></trkpt><trkpt lat="41.16935319526967" lon="9.31785509793648"><ele>30.0</ele><time>2026-04-26T14:08:10Z</time></trkpt><trkpt lat="41.16946908832222" lon="9.317785664906554"><ele>30.0</ele><time>2026-04-26T14:08:11Z</time></trkpt><trkpt lat="41.16960468332565" lon="9.31778896334311"><ele>30.0</ele><time>2026-04-26T14:08:12Z</time></trkpt><trkpt lat="41.169729161562756" lon="9.317872789800651"><ele>30.0</ele><time>2026-04-26T14:08:13Z</time></trkpt><trkpt lat="41.16980284754278" lon="9.318017346918579"><ele>30.0</ele><time>2026-04-26T14:08:14Z</time></trkpt><trkpt lat="41.16984554302942" lon="9.318169282366792"><ele>30.0</ele><time>2026-04-26T14:08:15Z</time></trkpt><trkpt lat="41.1698648099511" lon="9.318339068264008"><ele>30.0</ele><time>2026-04-26T14:08:16Z</time></trkpt><trkpt lat="41.169902281556155" lon="9.318536946612545"><ele>31.0</ele><time>2026-04-26T14:08:17Z</time></trkpt><trkpt lat="41.16992460099162" lon="9.318766335598177"><ele>32.0</ele><time>2026-04-26T14:08:18Z</time></trkpt><trkpt lat="41.169961819976535" lon="9.319005260882193"><ele>33.0</ele><time>2026-04-26T14:08:19Z</time></trkpt><trkpt lat="41.16999260636937" lon="9.319215153910461"><ele>34.666666666666664</ele><time>2026-04-26T14:08:20Z</time></trkpt><trkpt lat="41.170019602463334" lon="9.319400696942862"><ele>36.33333333333333</ele><time>2026-04-26T14:08:21Z</time></trkpt><trkpt lat="41.17005994165275" lon="9.319594800721296"><ele>38.0</ele><time>2026-04-26T14:08:22Z</time></trkpt><trkpt lat="41.170105843501794" lon="9.319802965048975"><ele>40.0</ele><time>2026-04-26T14:08:23Z</time></trkpt><trkpt lat="41.1701466009707" lon="9.31998013345046"><ele>42.0</ele><time>2026-04-26T14:08:24Z</time></trkpt><trkpt lat="41.170197773615776" lon="9.320137646390599"><ele>44.0</ele><time>2026-04-26T14:08:25Z</time></trkpt><trkpt lat="41.17027194289994" lon="9.320328736982544"><ele>46.0</ele><time>2026-04-26T14:08:26Z</time></trkpt><trkpt lat="41.170335521770404" lon="9.320516138774398"><ele>47.0</ele><time>2026-04-26T14:08:27Z</time></trkpt><trkpt lat="41.17038326662555" lon="9.320682101322241"><ele>48.0</ele><time>2026-04-26T14:08:28Z</time></trkpt><trkpt lat="41.17042589863241" lon="9.320811952852333"><ele>49.0</ele><time>2026-04-26T14:08:29Z</time></trkpt><trkpt lat="41.17045169879133" lon="9.320926533294612"><ele>50.0</ele><time>2026-04-26T14:08:30Z</time></trkpt><trkpt lat="41.170451647400874" lon="9.321033797199037"><ele>51.0</ele><time>2026-04-26T14:08:31Z</time></trkpt><trkpt lat="41.17043064417584" lon="9.32114096665531"><ele>51.0</ele><time>2026-04-26T14:08:32Z</time></trkpt><trkpt lat="41.170389054171174" lon="9.321256404903776"><ele>51.0</ele><time>2026-04-26T14:08:33Z</time></trkpt><trkpt lat="41.17030672445253" lon="9.321350325082612"><ele>51.0</ele><time>2026-04-26T14:08:34Z</time></trkpt><trkpt lat="41.170246375636104" lon="9.321467175411609"><ele>51.0</ele><time>2026-04-26T14:08:35Z</time></trkpt><trkpt lat="41.17020278707488" lon="9.321588689874558"><ele>51.0</ele><time>2026-04-26T14:08:36Z</time></trkpt><trkpt lat="41.1701410869886" lon="9.321697955181424"><ele>50.8</ele><time>2026-04-26T14:08:37Z</time></trkpt><trkpt lat="41.170079592872625" lon="9.32180977618169"><ele>50.599999999999994</ele><time>2026-04-26T14:08:38Z</time></trkpt><trkpt lat="41.17001763575796" lon="9.321927673574102"><ele>50.4</ele><time>2026-04-26T14:08:39Z</time></trkpt><trkpt lat="41.1699483600757" lon="9.322054996706488"><ele>50.2</ele><time>2026-04-26T14:08:40Z</time></trkpt><trkpt lat="41.169884175548646" lon="9.32217651395169"><ele>50.0</ele><time>2026-04-26T14:08:41Z</time></trkpt><trkpt lat="41.16983032947756" lon="9.322303634004857"><ele>50.6</ele><time>2026-04-26T14:08:42Z</time></trkpt><trkpt lat="41.16978746726732" lon="9.322442500357559"><ele>51.2</ele><time>2026-04-26T14:08:43Z</time></trkpt><trkpt lat="41.16975709545527" lon="9.322588768191997"><ele>51.8</ele><time>2026-04-26T14:08:44Z</time></trkpt><trkpt lat="41.169740964566685" lon="9.32273337370283"><ele>52.4</ele><time>2026-04-26T14:08:45Z</time></trkpt><trkpt lat="41.16974719250518" lon="9.322882183817441"><ele>53.0</ele><time>2026-04-26T14:08:46Z</time></trkpt><trkpt lat="41.169764835217165" lon="9.323028755831995"><ele>53.75</ele><time>2026-04-26T14:08:47Z</time></trkpt><trkpt lat="41.16980731909786" lon="9.323173902351549"><ele>54.5</ele><time>2026-04-26T14:08:48Z</time></trkpt><trkpt lat="41.16987295762612" lon="9.323309418613528"><ele>55.25</ele><time>2026-04-26T14:08:49Z</time></trkpt><trkpt lat="41.169958249340944" lon="9.32342921608164"><ele>56.0</ele><time>2026-04-26T14:08:50Z</time></trkpt><trkpt lat="41.17005159148978" lon="9.323532408883105"><ele>54.5</ele><time>2026-04-26T14:08:51Z</time></trkpt><trkpt lat="41.17015239505342" lon="9.323632918137731"><ele>53.0</ele><time>2026-04-26T14:08:52Z</time></trkpt><trkpt lat="41.170273598256685" lon="9.323738593596762"><ele>51.5</ele><time>2026-04-26T14:08:53Z</time></trkpt><trkpt lat="41.170419394046874" lon="9.323859565411537"><ele>50.0</ele><time>2026-04-26T14:08:54Z</time></trkpt><trkpt lat="41.170572992543114" lon="9.32397977869423"><ele>49.0</ele><time>2026-04-26T14:08:55Z</time></trkpt><trkpt lat="41.17071641823191" lon="9.32409343830045"><ele>48.0</ele><time>2026-04-26T14:08:56Z</time></trkpt><trkpt lat="41.1708449520941" lon="9.324194673981005"><ele>47.0</ele><time>2026-04-26T14:08:57Z</time></trkpt><trkpt lat="41.170958376358946" lon="9.324290442269943"><ele>47.0</ele><time>2026-04-26T14:08:58Z</time></trkpt><trkpt lat="41.171044900523015" lon="9.324399963666623"><ele>47.0</ele><time>2026-04-26T14:08:59Z</time></trkpt><trkpt lat="41.17110583301324" lon="9.32454225271093"><ele>47.0</ele><time>2026-04-26T14:09:00Z</time></trkpt><trkpt lat="41.171146779971416" lon="9.32470418441931"><ele>47.0</ele><time>2026-04-26T14:09:01Z</time></trkpt><trkpt lat="41.1711674271222" lon="9.324860864932008"><ele>47.5</ele><time>2026-04-26T14:09:02Z</time></trkpt><trkpt lat="41.17116980008375" lon="9.325009337908547"><ele>48.0</ele><time>2026-04-26T14:09:03Z</time></trkpt><trkpt lat="41.17113540164395" lon="9.325148736021006"><ele>48.5</ele><time>2026-04-26T14:09:04Z</time></trkpt><trkpt lat="41.171069582987094" lon="9.325276550356564"><ele>49.0</ele><time>2026-04-26T14:09:05Z</time></trkpt><trkpt lat="41.17097116982776" lon="9.325370803490816"><ele>49.0</ele><time>2026-04-26T14:09:06Z</time></trkpt><trkpt lat="41.17088677039741" lon="9.325497331347648"><ele>49.0</ele><time>2026-04-26T14:09:07Z</time></trkpt><trkpt lat="41.17078677853938" lon="9.325614277442995"><ele>49.0</ele><time>2026-04-26T14:09:08Z</time></trkpt><trkpt lat="41.17067125871702" lon="9.32573310892207"><ele>49.0</ele><time>2026-04-26T14:09:09Z</time></trkpt><trkpt lat="41.17055667522869" lon="9.325903824814851"><ele>49.33333333333333</ele><time>2026-04-26T14:09:10Z</time></trkpt><trkpt lat="41.170443077228946" lon="9.326116397990537"><ele>49.66666666666667</ele><time>2026-04-26T14:09:11Z</time></trkpt><trkpt lat="41.1703492793663" lon="9.326316663459478"><ele>50.0</ele><time>2026-04-26T14:09:12Z</time></trkpt><trkpt lat="41.170270034120534" lon="9.326512450839529"><ele>50.0</ele><time>2026-04-26T14:09:13Z</time></trkpt><trkpt lat="41.17017315631787" lon="9.32667967038663"><ele>50.0</ele><time>2026-04-26T14:09:14Z</time></trkpt><trkpt lat="41.17007965967752" lon="9.326817213742864"><ele>50.0</ele><time>2026-04-26T14:09:15Z</time></trkpt><trkpt lat="41.16997547886862" lon="9.326932624585991"><ele>50.0</ele><time>2026-04-26T14:09:16Z</time></trkpt><trkpt lat="41.16986996262312" lon="9.327025328835491"><ele>50.6</ele><time>2026-04-26T14:09:17Z</time></trkpt><trkpt lat="41.16977651894143" lon="9.327106407999638"><ele>51.2</ele><time>2026-04-26T14:09:18Z</time></trkpt><trkpt lat="41.16969054676772" lon="9.327188550539896"><ele>51.8</ele><time>2026-04-26T14:09:19Z</time></trkpt><trkpt lat="41.16961168157794" lon="9.327268068290627"><ele>52.4</ele><time>2026-04-26T14:09:20Z</time></trkpt><trkpt lat="41.16953930276472" lon="9.327354751546267"><ele>53.0</ele><time>2026-04-26T14:09:21Z</time></trkpt><trkpt lat="41.1694819820764" lon="9.327460215105408"><ele>53.0</ele><time>2026-04-26T14:09:22Z</time></trkpt><trkpt lat="41.169435424589544" lon="9.32759450946935"><ele>53.0</ele><time>2026-04-26T14:09:23Z</time></trkpt><trkpt lat="41.16939993676892" lon="9.327757691020983"><ele>53.0</ele><time>2026-04-26T14:09:24Z</time></trkpt><trkpt lat="41.16937581526668" lon="9.327926979596084"><ele>53.0</ele><time>2026-04-26T14:09:25Z</time></trkpt><trkpt lat="41.169362622364865" lon="9.328087682553459"><ele>53.75</ele><time>2026-04-26T14:09:26Z</time></trkpt><trkpt lat="41.169350307848845" lon="9.328246253050525"><ele>54.5</ele><time>2026-04-26T14:09:27Z</time></trkpt><trkpt lat="41.16935043183676" lon="9.328396849098674"><ele>55.25</ele><time>2026-04-26T14:09:28Z</time></trkpt><trkpt lat="41.169357806732606" lon="9.328542680789734"><ele>56.0</ele><time>2026-04-26T14:09:29Z</time></trkpt><trkpt lat="41.16936281270467" lon="9.32868460958937"><ele>56.0</ele><time>2026-04-26T14:09:30Z</time></trkpt><trkpt lat="41.169355914384525" lon="9.32883384370138"><ele>56.0</ele><time>2026-04-26T14:09:31Z</time></trkpt><trkpt lat="41.169336099611584" lon="9.328990003055052"><ele>56.0</ele><time>2026-04-26T14:09:32Z</time></trkpt><trkpt lat="41.16930107885742" lon="9.329156367376772"><ele>56.0</ele><time>2026-04-26T14:09:33Z</time></trkpt><trkpt lat="41.16925985211339" lon="9.329320735093853"><ele>56.0</ele><time>2026-04-26T14:09:34Z</time></trkpt><trkpt lat="41.16921923174711" lon="9.329469429062573"><ele>56.0</ele><time>2026-04-26T14:09:35Z</time></trkpt><trkpt lat="41.16917976792694" lon="9.32962083715779"><ele>56.0</ele><time>2026-04-26T14:09:36Z</time></trkpt><trkpt lat="41.1691391634832" lon="9.32977398537557"><ele>56.0</ele><time>2026-04-26T14:09:37Z</time></trkpt><trkpt lat="41.169099124223386" lon="9.329924967055675"><ele>54.75</ele><time>2026-04-26T14:09:38Z</time></trkpt><trkpt lat="41.16906206479552" lon="9.330075915046113"><ele>53.5</ele><time>2026-04-26T14:09:39Z</time></trkpt><trkpt lat="41.169021469734005" lon="9.33023144712114"><ele>52.25</ele><time>2026-04-26T14:09:40Z</time></trkpt><trkpt lat="41.16898675223672" lon="9.330384895703675"><ele>51.0</ele><time>2026-04-26T14:09:41Z</time></trkpt><trkpt lat="41.168966739535016" lon="9.330532455785221"><ele>50.75</ele><time>2026-04-26T14:09:42Z</time></trkpt><trkpt lat="41.16896671652911" lon="9.33068565227634"><ele>50.5</ele><time>2026-04-26T14:09:43Z</time></trkpt><trkpt lat="41.16898828509555" lon="9.330845096496088"><ele>50.25</ele><time>2026-04-26T14:09:44Z</time></trkpt><trkpt lat="41.169032368810925" lon="9.331008942507442"><ele>50.0</ele><time>2026-04-26T14:09:45Z</time></trkpt><trkpt lat="41.16908472858146" lon="9.331154178565145"><ele>50.0</ele><time>2026-04-26T14:09:46Z</time></trkpt><trkpt lat="41.16914306753" lon="9.3312975593432"><ele>50.0</ele><time>2026-04-26T14:09:47Z</time></trkpt><trkpt lat="41.16920329019072" lon="9.331441825282113"><ele>50.0</ele><time>2026-04-26T14:09:48Z</time></trkpt><trkpt lat="41.16926346887198" lon="9.331584223984178"><ele>50.0</ele><time>2026-04-26T14:09:49Z</time></trkpt><trkpt lat="41.16932302469282" lon="9.331731229013814"><ele>50.5</ele><time>2026-04-26T14:09:50Z</time></trkpt><trkpt lat="41.169377140420806" lon="9.33188878482532"><ele>51.0</ele><time>2026-04-26T14:09:51Z</time></trkpt><trkpt lat="41.169416455432746" lon="9.332077728298398"><ele>51.5</ele><time>2026-04-26T14:09:52Z</time></trkpt><trkpt lat="41.16944470986615" lon="9.332264570476342"><ele>52.0</ele><time>2026-04-26T14:09:53Z</time></trkpt><trkpt lat="41.16946716577564" lon="9.33244504806194"><ele>52.0</ele><time>2026-04-26T14:09:54Z</time></trkpt><trkpt lat="41.16949022201557" lon="9.332624372317726"><ele>52.0</ele><time>2026-04-26T14:09:55Z</time></trkpt><trkpt lat="41.16951423586556" lon="9.332793408641354"><ele>52.0</ele><time>2026-04-26T14:09:56Z</time></trkpt><trkpt lat="41.1695476314494" lon="9.332960988115405"><ele>52.0</ele><time>2026-04-26T14:09:57Z</time></trkpt><trkpt lat="41.16960122004176" lon="9.333130051094335"><ele>52.0</ele><time>2026-04-26T14:09:58Z</time></trkpt><trkpt lat="41.169682702293386" lon="9.333323562476606"><ele>52.0</ele><time>2026-04-26T14:09:59Z</time></trkpt><trkpt lat="41.16980689775692" lon="9.333524875328937"><ele>52.0</ele><time>2026-04-26T14:10:00Z</time></trkpt><trkpt lat="41.169940369861784" lon="9.333729795969724"><ele>50.33333333333333</ele><time>2026-04-26T14:10:01Z</time></trkpt><trkpt lat="41.17006147866916" lon="9.333922769222413"><ele>48.666666666666664</ele><time>2026-04-26T14:10:02Z</time></trkpt><trkpt lat="41.170181194753376" lon="9.334146868999227"><ele>47.0</ele><time>2026-04-26T14:10:03Z</time></trkpt><trkpt lat="41.17027389783762" lon="9.334381740739712"><ele>47.0</ele><time>2026-04-26T14:10:04Z</time></trkpt><trkpt lat="41.17036396218906" lon="9.334625697455818"><ele>47.0</ele><time>2026-04-26T14:10:05Z</time></trkpt><trkpt lat="41.17041097400795" lon="9.334869875733876"><ele>47.0</ele><time>2026-04-26T14:10:06Z</time></trkpt><trkpt lat="41.170425834990795" lon="9.335109519102499"><ele>46.666666666666664</ele><time>2026-04-26T14:10:07Z</time></trkpt><trkpt lat="41.17039941344024" lon="9.335330431630773"><ele>46.333333333333336</ele><time>2026-04-26T14:10:08Z</time></trkpt><trkpt lat="41.17033324260892" lon="9.33554192484937"><ele>46.0</ele><time>2026-04-26T14:10:09Z</time></trkpt><trkpt lat="41.170231171797155" lon="9.335755392769515"><ele>46.0</ele><time>2026-04-26T14:10:10Z</time></trkpt><trkpt lat="41.17011797906153" lon="9.33597494645104"><ele>46.0</ele><time>2026-04-26T14:10:11Z</time></trkpt><trkpt lat="41.17003969522174" lon="9.336195522402672"><ele>46.0</ele><time>2026-04-26T14:10:12Z</time></trkpt><trkpt lat="41.169989217431116" lon="9.336451629040196"><ele>46.0</ele><time>2026-04-26T14:10:13Z</time></trkpt><trkpt lat="41.16996375439975" lon="9.33673173638619"><ele>46.0</ele><time>2026-04-26T14:10:14Z</time></trkpt><trkpt lat="41.169955918904066" lon="9.337031622224698"><ele>46.0</ele><time>2026-04-26T14:10:15Z</time></trkpt><trkpt lat="41.169955130977876" lon="9.33735236535871"><ele>46.0</ele><time>2026-04-26T14:10:16Z</time></trkpt><trkpt lat="41.16995225257734" lon="9.337661343548644"><ele>46.0</ele><time>2026-04-26T14:10:17Z</time></trkpt><trkpt lat="41.16995963406104" lon="9.337936428866909"><ele>46.0</ele><time>2026-04-26T14:10:18Z</time></trkpt><trkpt lat="41.16999612824786" lon="9.338170356742117"><ele>46.0</ele><time>2026-04-26T14:10:19Z</time></trkpt><trkpt lat="41.1700718826158" lon="9.338375848934822"><ele>46.0</ele><time>2026-04-26T14:10:20Z</time></trkpt><trkpt lat="41.17017074237132" lon="9.338587573582824"><ele>46.0</ele><time>2026-04-26T14:10:21Z</time></trkpt><trkpt lat="41.1702555606875" lon="9.3388121257173"><ele>45.333333333333336</ele><time>2026-04-26T14:10:22Z</time></trkpt><trkpt lat="41.17028803738634" lon="9.33907370738835"><ele>44.666666666666664</ele><time>2026-04-26T14:10:23Z</time></trkpt><trkpt lat="41.17033188351774" lon="9.339367691145508"><ele>44.0</ele><time>2026-04-26T14:10:24Z</time></trkpt><trkpt lat="41.17035665900457" lon="9.339683996952626"><ele>42.666666666666664</ele><time>2026-04-26T14:10:25Z</time></trkpt><trkpt lat="41.170386137950906" lon="9.339983126733504"><ele>41.333333333333336</ele><time>2026-04-26T14:10:26Z</time></trkpt><trkpt lat="41.17041522648636" lon="9.340255228813492"><ele>40.0</ele><time>2026-04-26T14:10:27Z</time></trkpt><trkpt lat="41.17043924593096" lon="9.340485308585068"><ele>39.0</ele><time>2026-04-26T14:10:28Z</time></trkpt><trkpt lat="41.17046628402254" lon="9.340683621617165"><ele>38.0</ele><time>2026-04-26T14:10:29Z</time></trkpt><trkpt lat="41.17052403855614" lon="9.340876834489213"><ele>37.0</ele><time>2026-04-26T14:10:30Z</time></trkpt><trkpt lat="41.17062766361291" lon="9.341068188783568"><ele>38.0</ele><time>2026-04-26T14:10:31Z</time></trkpt><trkpt lat="41.17076097352386" lon="9.341267715655166"><ele>39.0</ele><time>2026-04-26T14:10:32Z</time></trkpt><trkpt lat="41.17087170433211" lon="9.341467037285529"><ele>40.0</ele><time>2026-04-26T14:10:33Z</time></trkpt><trkpt lat="41.17091786968499" lon="9.341714316101287"><ele>37.0</ele><time>2026-04-26T14:10:34Z</time></trkpt><trkpt lat="41.17095444672945" lon="9.342001062223922"><ele>34.0</ele><time>2026-04-26T14:10:35Z</time></trkpt><trkpt lat="41.171001599318835" lon="9.34230948073247"><ele>33.0</ele><time>2026-04-26T14:10:36Z</time></trkpt><trkpt lat="41.171031132624016" lon="9.342630825122688"><ele>32.0</ele><time>2026-04-26T14:10:37Z</time></trkpt><trkpt lat="41.17105685753651" lon="9.342931442087016"><ele>31.0</ele><time>2026-04-26T14:10:38Z</time></trkpt><trkpt lat="41.171069893065216" lon="9.343245895471503"><ele>30.0</ele><time>2026-04-26T14:10:39Z</time></trkpt><trkpt lat="41.17107448487682" lon="9.343589232909867"><ele>29.5</ele><time>2026-04-26T14:10:40Z</time></trkpt><trkpt lat="41.17107826968638" lon="9.343945734491651"><ele>29.0</ele><time>2026-04-26T14:10:41Z</time></trkpt><trkpt lat="41.17108247309732" lon="9.344318361998777"><ele>29.0</ele><time>2026-04-26T14:10:42Z</time></trkpt><trkpt lat="41.17108523965749" lon="9.344693222766011"><ele>29.0</ele><time>2026-04-26T14:10:43Z</time></trkpt><trkpt lat="41.171088620029614" lon="9.345080549580228"><ele>29.5</ele><time>2026-04-26T14:10:44Z</time></trkpt><trkpt lat="41.171091733298105" lon="9.345470096593205"><ele>30.0</ele><time>2026-04-26T14:10:45Z</time></trkpt><trkpt lat="41.17109039078518" lon="9.345830996763688"><ele>28.5</ele><time>2026-04-26T14:10:46Z</time></trkpt><trkpt lat="41.17108584188092" lon="9.346164264879125"><ele>27.0</ele><time>2026-04-26T14:10:47Z</time></trkpt><trkpt lat="41.17107736427447" lon="9.346464266609443"><ele>26.666666666666664</ele><time>2026-04-26T14:10:48Z</time></trkpt><trkpt lat="41.171068825265856" lon="9.346752952382449"><ele>26.333333333333332</ele><time>2026-04-26T14:10:49Z</time></trkpt><trkpt lat="41.17106266957314" lon="9.347039784652228"><ele>26.0</ele><time>2026-04-26T14:10:50Z</time></trkpt><trkpt lat="41.17105677105864" lon="9.347337312379205"><ele>26.0</ele><time>2026-04-26T14:10:51Z</time></trkpt><trkpt lat="41.17105164156904" lon="9.347644017177057"><ele>26.0</ele><time>2026-04-26T14:10:52Z</time></trkpt><trkpt lat="41.17104415713555" lon="9.347955205515698"><ele>25.0</ele><time>2026-04-26T14:10:53Z</time></trkpt><trkpt lat="41.171036588977366" lon="9.34826877326431"><ele>24.0</ele><time>2026-04-26T14:10:54Z</time></trkpt><trkpt lat="41.17102619218596" lon="9.348590651103493"><ele>24.5</ele><time>2026-04-26T14:10:55Z</time></trkpt><trkpt lat="41.17101570733219" lon="9.348906009464322"><ele>25.0</ele><time>2026-04-26T14:10:56Z</time></trkpt><trkpt lat="41.17100648685233" lon="9.349229930071422"><ele>25.0</ele><time>2026-04-26T14:10:57Z</time></trkpt><trkpt lat="41.17099751509739" lon="9.349555663142361"><ele>25.0</ele><time>2026-04-26T14:10:58Z</time></trkpt><trkpt lat="41.170988740838666" lon="9.349888486264884"><ele>25.5</ele><time>2026-04-26T14:10:59Z</time></trkpt><trkpt lat="41.170977639420194" lon="9.350236968665682"><ele>26.0</ele><time>2026-04-26T14:11:00Z</time></trkpt><trkpt lat="41.17096426243822" lon="9.350594849158904"><ele>26.0</ele><time>2026-04-26T14:11:01Z</time></trkpt><trkpt lat="41.170954366049145" lon="9.35094503228474"><ele>26.0</ele><time>2026-04-26T14:11:02Z</time></trkpt><trkpt lat="41.170943758962814" lon="9.351263323838598"><ele>26.0</ele><time>2026-04-26T14:11:03Z</time></trkpt><trkpt lat="41.170928463214715" lon="9.351568480783753"><ele>26.0</ele><time>2026-04-26T14:11:04Z</time></trkpt><trkpt lat="41.17091972671956" lon="9.351879560491005"><ele>26.0</ele><time>2026-04-26T14:11:05Z</time></trkpt><trkpt lat="41.1709096248175" lon="9.352181002444345"><ele>26.0</ele><time>2026-04-26T14:11:06Z</time></trkpt><trkpt lat="41.1709041849584" lon="9.352467966492132"><ele>26.0</ele><time>2026-04-26T14:11:07Z</time></trkpt><trkpt lat="41.17090824145577" lon="9.352741927201194"><ele>26.333333333333332</ele><time>2026-04-26T14:11:08Z</time></trkpt><trkpt lat="41.17093523601395" lon="9.353019604506216"><ele>26.666666666666664</ele><time>2026-04-26T14:11:09Z</time></trkpt><trkpt lat="41.17099010632059" lon="9.353314864988096"><ele>27.0</ele><time>2026-04-26T14:11:10Z</time></trkpt><trkpt lat="41.171058759553254" lon="9.353625358568761"><ele>27.5</ele><time>2026-04-26T14:11:11Z</time></trkpt><trkpt lat="41.171136220855246" lon="9.353952421204955"><ele>28.0</ele><time>2026-04-26T14:11:12Z</time></trkpt><trkpt lat="41.1712094927397" lon="9.354286633856638"><ele>28.0</ele><time>2026-04-26T14:11:13Z</time></trkpt><trkpt lat="41.17128274614155" lon="9.354629031669882"><ele>28.0</ele><time>2026-04-26T14:11:14Z</time></trkpt><trkpt lat="41.17135543724966" lon="9.354973436460934"><ele>28.5</ele><time>2026-04-26T14:11:15Z</time></trkpt><trkpt lat="41.17142250637042" lon="9.355286470139449"><ele>29.0</ele><time>2026-04-26T14:11:16Z</time></trkpt><trkpt lat="41.17148242574391" lon="9.355568438408495"><ele>28.666666666666664</ele><time>2026-04-26T14:11:17Z</time></trkpt><trkpt lat="41.17154214031123" lon="9.35584424487089"><ele>28.333333333333336</ele><time>2026-04-26T14:11:18Z</time></trkpt><trkpt lat="41.17160760615931" lon="9.356139977687269"><ele>28.0</ele><time>2026-04-26T14:11:19Z</time></trkpt><trkpt lat="41.171679104965165" lon="9.356457067667236"><ele>27.5</ele><time>2026-04-26T14:11:20Z</time></trkpt><trkpt lat="41.17175269050154" lon="9.356792735967437"><ele>27.0</ele><time>2026-04-26T14:11:21Z</time></trkpt><trkpt lat="41.171826949308546" lon="9.357134400833282"><ele>25.5</ele><time>2026-04-26T14:11:22Z</time></trkpt><trkpt lat="41.17190252248379" lon="9.357487466270507"><ele>24.0</ele><time>2026-04-26T14:11:23Z</time></trkpt><trkpt lat="41.171979913403234" lon="9.357850652870152"><ele>22.0</ele><time>2026-04-26T14:11:24Z</time></trkpt><trkpt lat="41.172059057180654" lon="9.358221501152233"><ele>20.0</ele><time>2026-04-26T14:11:25Z</time></trkpt><trkpt lat="41.172141744912715" lon="9.358599585161762"><ele>20.5</ele><time>2026-04-26T14:11:26Z</time></trkpt><trkpt lat="41.17222514114399" lon="9.358977199287516"><ele>21.0</ele><time>2026-04-26T14:11:27Z</time></trkpt><trkpt lat="41.172303925938884" lon="9.359334578595412"><ele>21.0</ele><time>2026-04-26T14:11:28Z</time></trkpt><trkpt lat="41.172373160953796" lon="9.359667364178431"><ele>21.0</ele><time>2026-04-26T14:11:29Z</time></trkpt><trkpt lat="41.1724384972558" lon="9.359980888189638"><ele>21.0</ele><time>2026-04-26T14:11:30Z</time></trkpt><trkpt lat="41.17249757298513" lon="9.360282337095216"><ele>21.0</ele><time>2026-04-26T14:11:31Z</time></trkpt><trkpt lat="41.17254202875096" lon="9.360573240070366"><ele>19.5</ele><time>2026-04-26T14:11:32Z</time></trkpt><trkpt lat="41.172562925945854" lon="9.360875888222013"><ele>18.0</ele><time>2026-04-26T14:11:33Z</time></trkpt><trkpt lat="41.17256742127971" lon="9.36120061229427"><ele>18.5</ele><time>2026-04-26T14:11:34Z</time></trkpt><trkpt lat="41.172585732048695" lon="9.361531123010751"><ele>19.0</ele><time>2026-04-26T14:11:35Z</time></trkpt><trkpt lat="41.172625351714174" lon="9.361869186886224"><ele>19.0</ele><time>2026-04-26T14:11:36Z</time></trkpt><trkpt lat="41.172667933980144" lon="9.362193471265812"><ele>19.0</ele><time>2026-04-26T14:11:37Z</time></trkpt><trkpt lat="41.172705935656815" lon="9.362491199182369"><ele>18.666666666666664</ele><time>2026-04-26T14:11:38Z</time></trkpt><trkpt lat="41.17274304526515" lon="9.36277142054779"><ele>18.333333333333332</ele><time>2026-04-26T14:11:39Z</time></trkpt><trkpt lat="41.17279623266416" lon="9.363030013898205"><ele>18.0</ele><time>2026-04-26T14:11:40Z</time></trkpt><trkpt lat="41.17287759640507" lon="9.363266296628316"><ele>17.0</ele><time>2026-04-26T14:11:41Z</time></trkpt><trkpt lat="41.17297720169456" lon="9.36349204627364"><ele>16.0</ele><time>2026-04-26T14:11:42Z</time></trkpt><trkpt lat="41.173064787553535" lon="9.363715204918547"><ele>15.0</ele><time>2026-04-26T14:11:43Z</time></trkpt><trkpt lat="41.17312110729723" lon="9.363968210764016"><ele>14.5</ele><time>2026-04-26T14:11:44Z</time></trkpt><trkpt lat="41.17314605737963" lon="9.364271596441528"><ele>14.0</ele><time>2026-04-26T14:11:45Z</time></trkpt><trkpt lat="41.17315738193246" lon="9.364587350303768"><ele>12.5</ele><time>2026-04-26T14:11:46Z</time></trkpt><trkpt lat="41.17317337852933" lon="9.364906657524399"><ele>11.0</ele><time>2026-04-26T14:11:47Z</time></trkpt><trkpt lat="41.1731932812274" lon="9.365201002486899"><ele>13.0</ele><time>2026-04-26T14:11:48Z</time></trkpt><trkpt lat="41.17321410419878" lon="9.36547692404107"><ele>15.0</ele><time>2026-04-26T14:11:49Z</time></trkpt><trkpt lat="41.17324381901666" lon="9.365737368293987"><ele>17.0</ele><time>2026-04-26T14:11:50Z</time></trkpt><trkpt lat="41.17328985280527" lon="9.365982884331215"><ele>17.0</ele><time>2026-04-26T14:11:51Z</time></trkpt><trkpt lat="41.17335054987707" lon="9.366211782465188"><ele>17.0</ele><time>2026-04-26T14:11:52Z</time></trkpt><trkpt lat="41.173419368445835" lon="9.366427205070767"><ele>17.0</ele><time>2026-04-26T14:11:53Z</time></trkpt><trkpt lat="41.17348469742607" lon="9.366641578657214"><ele>15.0</ele><time>2026-04-26T14:11:54Z</time></trkpt><trkpt lat="41.17354636061632" lon="9.36684840827695"><ele>13.0</ele><time>2026-04-26T14:11:55Z</time></trkpt><trkpt lat="41.17360551010565" lon="9.367044820481517"><ele>11.0</ele><time>2026-04-26T14:11:56Z</time></trkpt><trkpt lat="41.17365444603896" lon="9.367211756712901"><ele>10.200000000000001</ele><time>2026-04-26T14:11:57Z</time></trkpt><trkpt lat="41.173687762691095" lon="9.367343206134096"><ele>9.4</ele><time>2026-04-26T14:11:58Z</time></trkpt><trkpt lat="41.17370597638835" lon="9.367460269392303"><ele>8.6</ele><time>2026-04-26T14:11:59Z</time></trkpt><trkpt lat="41.173695697442525" lon="9.36757967394426"><ele>7.8</ele><time>2026-04-26T14:12:00Z</time></trkpt><trkpt lat="41.17365143685353" lon="9.367701777344902"><ele>7.0</ele><time>2026-04-26T14:12:01Z</time></trkpt><trkpt lat="41.173570891758" lon="9.367819112052624"><ele>7.0</ele><time>2026-04-26T14:12:02Z</time></trkpt><trkpt lat="41.17345209308666" lon="9.36792768286709"><ele>7.0</ele><time>2026-04-26T14:12:03Z</time></trkpt><trkpt lat="41.173283072314135" lon="9.36800890059902"><ele>7.0</ele><time>2026-04-26T14:12:04Z</time></trkpt><trkpt lat="41.17311234410265" lon="9.368153503473549"><ele>8.333333333333334</ele><time>2026-04-26T14:12:05Z</time></trkpt><trkpt lat="41.17293696310261" lon="9.368295743556974"><ele>9.666666666666666</ele><time>2026-04-26T14:12:06Z</time></trkpt><trkpt lat="41.172797863931194" lon="9.368459984521202"><ele>11.0</ele><time>2026-04-26T14:12:07Z</time></trkpt><trkpt lat="41.17268394678292" lon="9.368635537233462"><ele>11.0</ele><time>2026-04-26T14:12:08Z</time></trkpt><trkpt lat="41.172551060050495" lon="9.368770796646523"><ele>11.0</ele><time>2026-04-26T14:12:09Z</time></trkpt><trkpt lat="41.17240131715403" lon="9.36884314077453"><ele>11.0</ele><time>2026-04-26T14:12:10Z</time></trkpt><trkpt lat="41.1722277661135" lon="9.368898202213176"><ele>10.0</ele><time>2026-04-26T14:12:11Z</time></trkpt><trkpt lat="41.172026243523604" lon="9.368964267626168"><ele>9.0</ele><time>2026-04-26T14:12:12Z</time></trkpt><trkpt lat="41.1718136766019" lon="9.36905225109847"><ele>8.0</ele><time>2026-04-26T14:12:13Z</time></trkpt><trkpt lat="41.17159541207492" lon="9.369157873588826"><ele>8.5</ele><time>2026-04-26T14:12:14Z</time></trkpt><trkpt lat="41.17137885399916" lon="9.369306827390544"><ele>9.0</ele><time>2026-04-26T14:12:15Z</time></trkpt><trkpt lat="41.17115803544179" lon="9.369465146138886"><ele>9.0</ele><time>2026-04-26T14:12:16Z</time></trkpt><trkpt lat="41.170916267449265" lon="9.369587764079538"><ele>9.0</ele><time>2026-04-26T14:12:17Z</time></trkpt><trkpt lat="41.17066787994774" lon="9.369706405854611"><ele>9.0</ele><time>2026-04-26T14:12:18Z</time></trkpt><trkpt lat="41.17043959205969" lon="9.369815447084044"><ele>9.0</ele><time>2026-04-26T14:12:19Z</time></trkpt><trkpt lat="41.17023102944986" lon="9.36993772601556"><ele>9.0</ele><time>2026-04-26T14:12:20Z</time></trkpt><trkpt lat="41.1700235117693" lon="9.370012569721757"><ele>9.0</ele><time>2026-04-26T14:12:21Z</time></trkpt><trkpt lat="41.16982760324803" lon="9.370102725508154"><ele>9.0</ele><time>2026-04-26T14:12:22Z</time></trkpt><trkpt lat="41.16963918365081" lon="9.370173869263748"><ele>9.666666666666666</ele><time>2026-04-26T14:12:23Z</time></trkpt><trkpt lat="41.16945804020738" lon="9.370206294413004"><ele>10.333333333333332</ele><time>2026-04-26T14:12:24Z</time></trkpt><trkpt lat="41.16929396243685" lon="9.3702213325777"><ele>11.0</ele><time>2026-04-26T14:12:25Z</time></trkpt><trkpt lat="41.16914134862415" lon="9.370232750793958"><ele>12.0</ele><time>2026-04-26T14:12:26Z</time></trkpt><trkpt lat="41.168991407416144" lon="9.370253043814595"><ele>13.0</ele><time>2026-04-26T14:12:27Z</time></trkpt><trkpt lat="41.16883330179968" lon="9.370267498463688"><ele>14.0</ele><time>2026-04-26T14:12:28Z</time></trkpt><trkpt lat="41.16865283847416" lon="9.37026562960435"><ele>14.0</ele><time>2026-04-26T14:12:29Z</time></trkpt><trkpt lat="41.16846708821147" lon="9.3702775516416"><ele>14.0</ele><time>2026-04-26T14:12:30Z</time></trkpt><trkpt lat="41.16828729089354" lon="9.37030825259672"><ele>14.0</ele><time>2026-04-26T14:12:31Z</time></trkpt><trkpt lat="41.16811744025853" lon="9.37031693773434"><ele>13.0</ele><time>2026-04-26T14:12:32Z</time></trkpt><trkpt lat="41.16795491425758" lon="9.370325543768187"><ele>12.0</ele><time>2026-04-26T14:12:33Z</time></trkpt><trkpt lat="41.1677962407653" lon="9.370335184501771"><ele>11.0</ele><time>2026-04-26T14:12:34Z</time></trkpt><trkpt lat="41.16763440098981" lon="9.370347385387975"><ele>11.0</ele><time>2026-04-26T14:12:35Z</time></trkpt><trkpt lat="41.167466888768615" lon="9.370358060964147"><ele>11.0</ele><time>2026-04-26T14:12:36Z</time></trkpt><trkpt lat="41.16728941772478" lon="9.370368574989367"><ele>11.0</ele><time>2026-04-26T14:12:37Z</time></trkpt><trkpt lat="41.16708786309" lon="9.370380792282683"><ele>11.666666666666666</ele><time>2026-04-26T14:12:38Z</time></trkpt><trkpt lat="41.1668815874005" lon="9.370396397840572"><ele>12.333333333333332</ele><time>2026-04-26T14:12:39Z</time></trkpt><trkpt lat="41.16667771276402" lon="9.370410855242731"><ele>13.0</ele><time>2026-04-26T14:12:40Z</time></trkpt><trkpt lat="41.16648395410591" lon="9.370421494741931"><ele>14.333333333333332</ele><time>2026-04-26T14:12:41Z</time></trkpt><trkpt lat="41.1663089895143" lon="9.370431625736751"><ele>15.666666666666668</ele><time>2026-04-26T14:12:42Z</time></trkpt><trkpt lat="41.16614553268629" lon="9.37044232212617"><ele>17.0</ele><time>2026-04-26T14:12:43Z</time></trkpt><trkpt lat="41.16597857024686" lon="9.370453768209005"><ele>17.0</ele><time>2026-04-26T14:12:44Z</time></trkpt><trkpt lat="41.16580839982843" lon="9.370467806183926"><ele>17.0</ele><time>2026-04-26T14:12:45Z</time></trkpt><trkpt lat="41.16563354264385" lon="9.370461874077213"><ele>17.0</ele><time>2026-04-26T14:12:46Z</time></trkpt><trkpt lat="41.165454338594664" lon="9.370494308260861"><ele>16.666666666666668</ele><time>2026-04-26T14:12:47Z</time></trkpt><trkpt lat="41.165267024563455" lon="9.370504233647152"><ele>16.333333333333332</ele><time>2026-04-26T14:12:48Z</time></trkpt><trkpt lat="41.1650586163182" lon="9.37049881560236"><ele>16.0</ele><time>2026-04-26T14:12:49Z</time></trkpt><trkpt lat="41.16482947423063" lon="9.370513516064399"><ele>12.5</ele><time>2026-04-26T14:12:50Z</time></trkpt><trkpt lat="41.164586903771195" lon="9.370529079635586"><ele>9.0</ele><time>2026-04-26T14:12:51Z</time></trkpt><trkpt lat="41.164329586241564" lon="9.37054556810435"><ele>9.0</ele><time>2026-04-26T14:12:52Z</time></trkpt><trkpt lat="41.16406592797247" lon="9.370562117358537"><ele>9.0</ele><time>2026-04-26T14:12:53Z</time></trkpt><trkpt lat="41.16379728625425" lon="9.370578979410974"><ele>10.0</ele><time>2026-04-26T14:12:54Z</time></trkpt><trkpt lat="41.16354672943509" lon="9.370608396352075"><ele>11.0</ele><time>2026-04-26T14:12:55Z</time></trkpt><trkpt lat="41.163316732893605" lon="9.3706209981102"><ele>11.333333333333332</ele><time>2026-04-26T14:12:56Z</time></trkpt><trkpt lat="41.16309100908477" lon="9.370635273601957"><ele>11.666666666666666</ele><time>2026-04-26T14:12:57Z</time></trkpt><trkpt lat="41.16287111646214" lon="9.370643291312636"><ele>12.0</ele><time>2026-04-26T14:12:58Z</time></trkpt><trkpt lat="41.16265027419129" lon="9.370651052127187"><ele>12.0</ele><time>2026-04-26T14:12:59Z</time></trkpt><trkpt lat="41.162409833598296" lon="9.370663412493913"><ele>12.0</ele><time>2026-04-26T14:13:00Z</time></trkpt><trkpt lat="41.16215598694997" lon="9.37068160002488"><ele>10.5</ele><time>2026-04-26T14:13:01Z</time></trkpt><trkpt lat="41.16188869311049" lon="9.370672112190572"><ele>9.0</ele><time>2026-04-26T14:13:02Z</time></trkpt><trkpt lat="41.16161133382578" lon="9.370682256642517"><ele>10.0</ele><time>2026-04-26T14:13:03Z</time></trkpt><trkpt lat="41.16133296231152" lon="9.370713362741391"><ele>11.0</ele><time>2026-04-26T14:13:04Z</time></trkpt><trkpt lat="41.161072223354275" lon="9.370720137710238"><ele>11.0</ele><time>2026-04-26T14:13:05Z</time></trkpt><trkpt lat="41.16083228400706" lon="9.370730652519994"><ele>11.0</ele><time>2026-04-26T14:13:06Z</time></trkpt><trkpt lat="41.16061071752149" lon="9.370765735507527"><ele>15.0</ele><time>2026-04-26T14:13:07Z</time></trkpt><trkpt lat="41.160392597132955" lon="9.37083772358736"><ele>19.0</ele><time>2026-04-26T14:13:08Z</time></trkpt><trkpt lat="41.16016526298563" lon="9.370946112323391"><ele>19.0</ele><time>2026-04-26T14:13:09Z</time></trkpt><trkpt lat="41.1599344572668" lon="9.371086407768905"><ele>19.0</ele><time>2026-04-26T14:13:10Z</time></trkpt><trkpt lat="41.15970984182785" lon="9.371261625283797"><ele>19.5</ele><time>2026-04-26T14:13:11Z</time></trkpt><trkpt lat="41.15948897336648" lon="9.371461164160909"><ele>20.0</ele><time>2026-04-26T14:13:12Z</time></trkpt><trkpt lat="41.15927074632579" lon="9.371677947402688"><ele>20.0</ele><time>2026-04-26T14:13:13Z</time></trkpt><trkpt lat="41.159047128516505" lon="9.371895246778342"><ele>20.0</ele><time>2026-04-26T14:13:14Z</time></trkpt><trkpt lat="41.1588117035538" lon="9.372087678162956"><ele>23.5</ele><time>2026-04-26T14:13:15Z</time></trkpt><trkpt lat="41.1585798262633" lon="9.372242019260264"><ele>27.0</ele><time>2026-04-26T14:13:16Z</time></trkpt><trkpt lat="41.15834666747103" lon="9.372366951173857"><ele>29.5</ele><time>2026-04-26T14:13:17Z</time></trkpt><trkpt lat="41.15810638014156" lon="9.372458511458108"><ele>32.0</ele><time>2026-04-26T14:13:18Z</time></trkpt><trkpt lat="41.157850577697765" lon="9.372523506049275"><ele>32.0</ele><time>2026-04-26T14:13:19Z</time></trkpt><trkpt lat="41.157586040592015" lon="9.372563653222151"><ele>32.0</ele><time>2026-04-26T14:13:20Z</time></trkpt><trkpt lat="41.15731915592535" lon="9.372568384779933"><ele>33.5</ele><time>2026-04-26T14:13:21Z</time></trkpt><trkpt lat="41.157049399273426" lon="9.372541771150084"><ele>35.0</ele><time>2026-04-26T14:13:22Z</time></trkpt><trkpt lat="41.156779098528716" lon="9.372486810557756"><ele>34.5</ele><time>2026-04-26T14:13:23Z</time></trkpt><trkpt lat="41.156520235719945" lon="9.372380242264342"><ele>34.0</ele><time>2026-04-26T14:13:24Z</time></trkpt><trkpt lat="41.15628228054772" lon="9.372292172534692"><ele>34.0</ele><time>2026-04-26T14:13:25Z</time></trkpt><trkpt lat="41.15606137528251" lon="9.372207670074914"><ele>34.0</ele><time>2026-04-26T14:13:26Z</time></trkpt><trkpt lat="41.15585379173899" lon="9.372127629867807"><ele>34.0</ele><time>2026-04-26T14:13:27Z</time></trkpt><trkpt lat="41.15563641575598" lon="9.372043848408685"><ele>34.5</ele><time>2026-04-26T14:13:28Z</time></trkpt><trkpt lat="41.15539951981072" lon="9.371949220829439"><ele>35.0</ele><time>2026-04-26T14:13:29Z</time></trkpt><trkpt lat="41.15515521752538" lon="9.371846493093205"><ele>35.0</ele><time>2026-04-26T14:13:30Z</time></trkpt><trkpt lat="41.15489992051901" lon="9.371739226324179"><ele>35.0</ele><time>2026-04-26T14:13:31Z</time></trkpt><trkpt lat="41.15463498988716" lon="9.371645317006859"><ele>35.0</ele><time>2026-04-26T14:13:32Z</time></trkpt><trkpt lat="41.15436688134085" lon="9.371531757482293"><ele>35.0</ele><time>2026-04-26T14:13:33Z</time></trkpt><trkpt lat="41.154092730182384" lon="9.371416530128263"><ele>35.5</ele><time>2026-04-26T14:13:34Z</time></trkpt><trkpt lat="41.153812779440756" lon="9.371299057065537"><ele>36.0</ele><time>2026-04-26T14:13:35Z</time></trkpt><trkpt lat="41.15352940623924" lon="9.371179802732563"><ele>36.0</ele><time>2026-04-26T14:13:36Z</time></trkpt><trkpt lat="41.153249559264324" lon="9.371058015019532"><ele>36.0</ele><time>2026-04-26T14:13:37Z</time></trkpt><trkpt lat="41.15298557220256" lon="9.370938639345459"><ele>34.0</ele><time>2026-04-26T14:13:38Z</time></trkpt><trkpt lat="41.15274306897924" lon="9.37084178105346"><ele>32.0</ele><time>2026-04-26T14:13:39Z</time></trkpt><trkpt lat="41.15250615549063" lon="9.370738026430502"><ele>33.0</ele><time>2026-04-26T14:13:40Z</time></trkpt><trkpt lat="41.15226684014874" lon="9.370634691109474"><ele>34.0</ele><time>2026-04-26T14:13:41Z</time></trkpt><trkpt lat="41.152023777221885" lon="9.37053127857791"><ele>33.5</ele><time>2026-04-26T14:13:41.999Z</time></trkpt><trkpt lat="41.15176736530265" lon="9.370424102756804"><ele>33.0</ele><time>2026-04-26T14:13:42.999Z</time></trkpt><trkpt lat="41.151504791783616" lon="9.370314001005864"><ele>34.5</ele><time>2026-04-26T14:13:43.999Z</time></trkpt><trkpt lat="41.15123554180276" lon="9.370198535486786"><ele>36.0</ele><time>2026-04-26T14:13:44.999Z</time></trkpt><trkpt lat="41.15097051189991" lon="9.370085139895734"><ele>36.0</ele><time>2026-04-26T14:13:45.999Z</time></trkpt><trkpt lat="41.150728314386015" lon="9.369982294827581"><ele>36.0</ele><time>2026-04-26T14:13:46.999Z</time></trkpt><trkpt lat="41.15050236070592" lon="9.369892162826513"><ele>37.0</ele><time>2026-04-26T14:13:47.999Z</time></trkpt><trkpt lat="41.150279944004716" lon="9.369827971920332"><ele>38.0</ele><time>2026-04-26T14:13:48.999Z</time></trkpt><trkpt lat="41.150041336629286" lon="9.36980492575912"><ele>39.0</ele><time>2026-04-26T14:13:49.999Z</time></trkpt><trkpt lat="41.149785615565015" lon="9.369804905898716"><ele>40.0</ele><time>2026-04-26T14:13:50.999Z</time></trkpt><trkpt lat="41.14952279409862" lon="9.369815276724173"><ele>40.0</ele><time>2026-04-26T14:13:51.999Z</time></trkpt><trkpt lat="41.149253894919504" lon="9.36982392240758"><ele>40.0</ele><time>2026-04-26T14:13:52.999Z</time></trkpt><trkpt lat="41.14898174725585" lon="9.369826307000666"><ele>42.0</ele><time>2026-04-26T14:13:53.999Z</time></trkpt><trkpt lat="41.14871703951511" lon="9.369829389725117"><ele>44.0</ele><time>2026-04-26T14:13:54.999Z</time></trkpt><trkpt lat="41.1484713308737" lon="9.369828344620394"><ele>44.0</ele><time>2026-04-26T14:13:55.999Z</time></trkpt><trkpt lat="41.14825000088081" lon="9.369814764235535"><ele>44.0</ele><time>2026-04-26T14:13:56.999Z</time></trkpt><trkpt lat="41.14804619583834" lon="9.369762698581255"><ele>44.0</ele><time>2026-04-26T14:13:57.999Z</time></trkpt><trkpt lat="41.147841983624055" lon="9.3696700867759"><ele>43.33333333333333</ele><time>2026-04-26T14:13:58.999Z</time></trkpt><trkpt lat="41.14763090876222" lon="9.369550389833755"><ele>42.666666666666664</ele><time>2026-04-26T14:13:59.999Z</time></trkpt><trkpt lat="41.14743209418091" lon="9.369455263405833"><ele>42.0</ele><time>2026-04-26T14:14:00.999Z</time></trkpt><trkpt lat="41.14721809520426" lon="9.369389251087844"><ele>42.0</ele><time>2026-04-26T14:14:01.999Z</time></trkpt><trkpt lat="41.14699575267444" lon="9.369347221100677"><ele>42.0</ele><time>2026-04-26T14:14:02.999Z</time></trkpt><trkpt lat="41.146783304294736" lon="9.369325355299187"><ele>42.0</ele><time>2026-04-26T14:14:04Z</time></trkpt><trkpt lat="41.146580299315985" lon="9.369320450052605"><ele>41.666666666666664</ele><time>2026-04-26T14:14:05Z</time></trkpt><trkpt lat="41.1463772425822" lon="9.36935670396901"><ele>41.33333333333333</ele><time>2026-04-26T14:14:06Z</time></trkpt><trkpt lat="41.14615644958059" lon="9.369440227573246"><ele>41.0</ele><time>2026-04-26T14:14:07Z</time></trkpt><trkpt lat="41.145927231794325" lon="9.369552446139298"><ele>42.0</ele><time>2026-04-26T14:14:08Z</time></trkpt><trkpt lat="41.14570440943522" lon="9.369671313663181"><ele>43.0</ele><time>2026-04-26T14:14:09Z</time></trkpt><trkpt lat="41.14549650337652" lon="9.369751474587959"><ele>42.0</ele><time>2026-04-26T14:14:10Z</time></trkpt><trkpt lat="41.145288893105906" lon="9.369775660105121"><ele>41.0</ele><time>2026-04-26T14:14:11Z</time></trkpt><trkpt lat="41.14507319774992" lon="9.369750834906919"><ele>40.0</ele><time>2026-04-26T14:14:12Z</time></trkpt><trkpt lat="41.144851905001545" lon="9.369685107646923"><ele>40.0</ele><time>2026-04-26T14:14:13Z</time></trkpt><trkpt lat="41.144627462088714" lon="9.36961977447132"><ele>40.0</ele><time>2026-04-26T14:14:14Z</time></trkpt><trkpt lat="41.14441276859929" lon="9.369581382731102"><ele>40.0</ele><time>2026-04-26T14:14:15Z</time></trkpt><trkpt lat="41.144178704535804" lon="9.369590824387224"><ele>39.0</ele><time>2026-04-26T14:14:16Z</time></trkpt><trkpt lat="41.143923055948854" lon="9.369640595014308"><ele>38.0</ele><time>2026-04-26T14:14:17Z</time></trkpt><trkpt lat="41.14366191976015" lon="9.369697046030169"><ele>37.0</ele><time>2026-04-26T14:14:18Z</time></trkpt><trkpt lat="41.143387925465085" lon="9.369755990438602"><ele>36.0</ele><time>2026-04-26T14:14:19Z</time></trkpt><trkpt lat="41.143124849335805" lon="9.36980445677848"><ele>37.666666666666664</ele><time>2026-04-26T14:14:20Z</time></trkpt><trkpt lat="41.1428948639083" lon="9.369848974279677"><ele>39.33333333333333</ele><time>2026-04-26T14:14:21Z</time></trkpt><trkpt lat="41.142689177820735" lon="9.369885032324396"><ele>41.0</ele><time>2026-04-26T14:14:22Z</time></trkpt><trkpt lat="41.14248788307824" lon="9.369926639054825"><ele>42.33333333333333</ele><time>2026-04-26T14:14:23Z</time></trkpt><trkpt lat="41.14228688265552" lon="9.369989192732083"><ele>43.666666666666664</ele><time>2026-04-26T14:14:24Z</time></trkpt><trkpt lat="41.14207814182161" lon="9.370075126801417"><ele>45.0</ele><time>2026-04-26T14:14:25Z</time></trkpt><trkpt lat="41.1418770476968" lon="9.370173180030363"><ele>45.0</ele><time>2026-04-26T14:14:26Z</time></trkpt><trkpt lat="41.141693697450464" lon="9.370261032958473"><ele>45.0</ele><time>2026-04-26T14:14:27Z</time></trkpt><trkpt lat="41.141521519415264" lon="9.370343725611066"><ele>45.0</ele><time>2026-04-26T14:14:28Z</time></trkpt><trkpt lat="41.14137097424939" lon="9.370422348450516"><ele>44.5</ele><time>2026-04-26T14:14:29Z</time></trkpt><trkpt lat="41.14124467989547" lon="9.370489857675523"><ele>44.0</ele><time>2026-04-26T14:14:30Z</time></trkpt><trkpt lat="41.1411240923608" lon="9.370531460319953"><ele>43.5</ele><time>2026-04-26T14:14:31Z</time></trkpt><trkpt lat="41.140994464147994" lon="9.370525615080318"><ele>43.0</ele><time>2026-04-26T14:14:32Z</time></trkpt><trkpt lat="41.14083459009215" lon="9.37046629505701"><ele>42.66666666666667</ele><time>2026-04-26T14:14:33Z</time></trkpt><trkpt lat="41.14064380358034" lon="9.370405151713872"><ele>42.333333333333336</ele><time>2026-04-26T14:14:34Z</time></trkpt><trkpt lat="41.140428449490855" lon="9.37035500338692"><ele>42.0</ele><time>2026-04-26T14:14:35Z</time></trkpt><trkpt lat="41.14020049805639" lon="9.370298930118015"><ele>42.0</ele><time>2026-04-26T14:14:36Z</time></trkpt><trkpt lat="41.139966174768446" lon="9.370227511256559"><ele>42.0</ele><time>2026-04-26T14:14:37Z</time></trkpt><trkpt lat="41.13972718479983" lon="9.370146914279625"><ele>42.333333333333336</ele><time>2026-04-26T14:14:38Z</time></trkpt><trkpt lat="41.13950464628783" lon="9.370076385712343"><ele>42.66666666666667</ele><time>2026-04-26T14:14:39Z</time></trkpt><trkpt lat="41.139301826763116" lon="9.370009330937869"><ele>43.0</ele><time>2026-04-26T14:14:40Z</time></trkpt><trkpt lat="41.13913046054085" lon="9.369875266826705"><ele>43.5</ele><time>2026-04-26T14:14:41Z</time></trkpt><trkpt lat="41.13894316391078" lon="9.369725228921373"><ele>44.0</ele><time>2026-04-26T14:14:42Z</time></trkpt><trkpt lat="41.13873580343205" lon="9.369581852485428"><ele>45.0</ele><time>2026-04-26T14:14:43Z</time></trkpt><trkpt lat="41.1385288706495" lon="9.369398907789662"><ele>46.0</ele><time>2026-04-26T14:14:44Z</time></trkpt><trkpt lat="41.138307231259404" lon="9.369224373437277"><ele>45.0</ele><time>2026-04-26T14:14:45Z</time></trkpt><trkpt lat="41.13808345584353" lon="9.369044979889543"><ele>44.0</ele><time>2026-04-26T14:14:46Z</time></trkpt><trkpt lat="41.13785952666703" lon="9.36883899235984"><ele>44.0</ele><time>2026-04-26T14:14:47Z</time></trkpt><trkpt lat="41.137623664349746" lon="9.368670656882822"><ele>44.0</ele><time>2026-04-26T14:14:48Z</time></trkpt><trkpt lat="41.13741843268509" lon="9.36849859165388"><ele>44.0</ele><time>2026-04-26T14:14:49Z</time></trkpt><trkpt lat="41.13724846466971" lon="9.368350730683089"><ele>44.0</ele><time>2026-04-26T14:14:50Z</time></trkpt><trkpt lat="41.13708839440312" lon="9.368214080663687"><ele>44.0</ele><time>2026-04-26T14:14:51Z</time></trkpt><trkpt lat="41.13693918723598" lon="9.368096373563578"><ele>44.0</ele><time>2026-04-26T14:14:52Z</time></trkpt><trkpt lat="41.13678722467325" lon="9.368009986694258"><ele>44.0</ele><time>2026-04-26T14:14:53Z</time></trkpt><trkpt lat="41.136622561189455" lon="9.36797289345"><ele>44.0</ele><time>2026-04-26T14:14:54Z</time></trkpt><trkpt lat="41.1364340645459" lon="9.36797893088091"><ele>44.0</ele><time>2026-04-26T14:14:55Z</time></trkpt><trkpt lat="41.13622260392953" lon="9.36801272309201"><ele>44.0</ele><time>2026-04-26T14:14:56Z</time></trkpt><trkpt lat="41.13599751555373" lon="9.368043576194744"><ele>44.0</ele><time>2026-04-26T14:14:57Z</time></trkpt><trkpt lat="41.13575974920048" lon="9.368068029058085"><ele>44.5</ele><time>2026-04-26T14:14:58Z</time></trkpt><trkpt lat="41.135513042310805" lon="9.368091156623919"><ele>45.0</ele><time>2026-04-26T14:14:59Z</time></trkpt><trkpt lat="41.13525753126059" lon="9.368111557525342"><ele>45.0</ele><time>2026-04-26T14:15:00Z</time></trkpt><trkpt lat="41.134994274100684" lon="9.368124171204066"><ele>45.0</ele><time>2026-04-26T14:15:01Z</time></trkpt><trkpt lat="41.13472352992206" lon="9.368123366144117"><ele>45.5</ele><time>2026-04-26T14:15:02Z</time></trkpt><trkpt lat="41.134447869406586" lon="9.36811747832124"><ele>46.0</ele><time>2026-04-26T14:15:03Z</time></trkpt><trkpt lat="41.13417052610582" lon="9.368112296717795"><ele>45.5</ele><time>2026-04-26T14:15:04Z</time></trkpt><trkpt lat="41.13391443293899" lon="9.368108171316946"><ele>45.0</ele><time>2026-04-26T14:15:05Z</time></trkpt><trkpt lat="41.1336730033937" lon="9.368081567062386"><ele>45.0</ele><time>2026-04-26T14:15:06Z</time></trkpt><trkpt lat="41.133462031122185" lon="9.368076947511309"><ele>45.0</ele><time>2026-04-26T14:15:07Z</time></trkpt><trkpt lat="41.13329143716903" lon="9.368069091319141"><ele>45.0</ele><time>2026-04-26T14:15:08Z</time></trkpt><trkpt lat="41.133152227637126" lon="9.368038097525869"><ele>45.25</ele><time>2026-04-26T14:15:09Z</time></trkpt><trkpt lat="41.13302793371119" lon="9.367958163543495"><ele>45.5</ele><time>2026-04-26T14:15:10Z</time></trkpt><trkpt lat="41.132943880777766" lon="9.36782577750555"><ele>45.75</ele><time>2026-04-26T14:15:11Z</time></trkpt><trkpt lat="41.13289823540923" lon="9.367672081163178"><ele>46.0</ele><time>2026-04-26T14:15:12Z</time></trkpt><trkpt lat="41.13285188306228" lon="9.367488913887158"><ele>46.0</ele><time>2026-04-26T14:15:13Z</time></trkpt><trkpt lat="41.132799066118665" lon="9.367277811229688"><ele>46.0</ele><time>2026-04-26T14:15:14Z</time></trkpt><trkpt lat="41.13273611782576" lon="9.367098127335497"><ele>46.0</ele><time>2026-04-26T14:15:15Z</time></trkpt><trkpt lat="41.13263881796865" lon="9.366966743119697"><ele>47.0</ele><time>2026-04-26T14:15:16Z</time></trkpt><trkpt lat="41.132503340004305" lon="9.366883266620265"><ele>48.0</ele><time>2026-04-26T14:15:17Z</time></trkpt><trkpt lat="41.13233288100073" lon="9.366816591943717"><ele>49.0</ele><time>2026-04-26T14:15:18Z</time></trkpt><trkpt lat="41.1321419819389" lon="9.366750113648038"><ele>49.33333333333333</ele><time>2026-04-26T14:15:19Z</time></trkpt><trkpt lat="41.13193938315558" lon="9.366668425111605"><ele>49.66666666666667</ele><time>2026-04-26T14:15:20Z</time></trkpt><trkpt lat="41.131726994059356" lon="9.366570534533858"><ele>50.0</ele><time>2026-04-26T14:15:21Z</time></trkpt><trkpt lat="41.13150359988307" lon="9.36646631964574"><ele>49.0</ele><time>2026-04-26T14:15:22Z</time></trkpt><trkpt lat="41.13126739744487" lon="9.36637100965208"><ele>48.0</ele><time>2026-04-26T14:15:23Z</time></trkpt><trkpt lat="41.13102334628865" lon="9.366301424054983"><ele>50.33333333333333</ele><time>2026-04-26T14:15:24Z</time></trkpt><trkpt lat="41.130795077646674" lon="9.366246907874203"><ele>52.666666666666664</ele><time>2026-04-26T14:15:25Z</time></trkpt><trkpt lat="41.13058731809803" lon="9.36618549754337"><ele>55.0</ele><time>2026-04-26T14:15:26Z</time></trkpt><trkpt lat="41.130401278100074" lon="9.36612957582823"><ele>55.666666666666664</ele><time>2026-04-26T14:15:27Z</time></trkpt><trkpt lat="41.130240074406885" lon="9.3661028665838"><ele>56.33333333333333</ele><time>2026-04-26T14:15:28Z</time></trkpt><trkpt lat="41.130078552185275" lon="9.366117036536203"><ele>57.0</ele><time>2026-04-26T14:15:29Z</time></trkpt><trkpt lat="41.129913538748696" lon="9.366198595130058"><ele>56.33333333333333</ele><time>2026-04-26T14:15:30Z</time></trkpt><trkpt lat="41.129738315143115" lon="9.366328027568112"><ele>55.666666666666664</ele><time>2026-04-26T14:15:31Z</time></trkpt><trkpt lat="41.12955475676944" lon="9.366473044744287"><ele>55.0</ele><time>2026-04-26T14:15:32Z</time></trkpt><trkpt lat="41.12934849711669" lon="9.366584843253868"><ele>55.0</ele><time>2026-04-26T14:15:33Z</time></trkpt><trkpt lat="41.12915641860215" lon="9.366704471961404"><ele>55.0</ele><time>2026-04-26T14:15:34Z</time></trkpt><trkpt lat="41.12899931258629" lon="9.36679051997889"><ele>55.0</ele><time>2026-04-26T14:15:35Z</time></trkpt><trkpt lat="41.1288654898377" lon="9.3668486761442"><ele>55.666666666666664</ele><time>2026-04-26T14:15:36Z</time></trkpt><trkpt lat="41.12873008957479" lon="9.366811555594424"><ele>56.33333333333333</ele><time>2026-04-26T14:15:37Z</time></trkpt><trkpt lat="41.12858933898694" lon="9.366737128588124"><ele>57.0</ele><time>2026-04-26T14:15:38Z</time></trkpt><trkpt lat="41.12842547686519" lon="9.366613525201082"><ele>57.0</ele><time>2026-04-26T14:15:39Z</time></trkpt><trkpt lat="41.12823803880964" lon="9.366505238450276"><ele>57.0</ele><time>2026-04-26T14:15:40Z</time></trkpt><trkpt lat="41.12803603530104" lon="9.366400990291956"><ele>57.0</ele><time>2026-04-26T14:15:41Z</time></trkpt><trkpt lat="41.1278396948861" lon="9.366295479713413"><ele>60.33333333333333</ele><time>2026-04-26T14:15:42Z</time></trkpt><trkpt lat="41.12766067190428" lon="9.366208764684457"><ele>63.666666666666664</ele><time>2026-04-26T14:15:43Z</time></trkpt><trkpt lat="41.127484667590195" lon="9.366148405331918"><ele>67.0</ele><time>2026-04-26T14:15:44Z</time></trkpt><trkpt lat="41.12730238935434" lon="9.366133056039947"><ele>68.33333333333333</ele><time>2026-04-26T14:15:45Z</time></trkpt><trkpt lat="41.12711864701051" lon="9.366159771379396"><ele>69.66666666666667</ele><time>2026-04-26T14:15:46Z</time></trkpt><trkpt lat="41.12692233572473" lon="9.366238677612618"><ele>71.0</ele><time>2026-04-26T14:15:47Z</time></trkpt><trkpt lat="41.126716877776545" lon="9.366353547641914"><ele>67.0</ele><time>2026-04-26T14:15:48Z</time></trkpt><trkpt lat="41.12650288540312" lon="9.366479495654435"><ele>63.0</ele><time>2026-04-26T14:15:49Z</time></trkpt><trkpt lat="41.12628370766929" lon="9.366598135760908"><ele>63.0</ele><time>2026-04-26T14:15:50Z</time></trkpt><trkpt lat="41.126073184853325" lon="9.36670263051677"><ele>63.0</ele><time>2026-04-26T14:15:51Z</time></trkpt><trkpt lat="41.12588301797305" lon="9.366796099309246"><ele>63.0</ele><time>2026-04-26T14:15:52Z</time></trkpt><trkpt lat="41.12571421700233" lon="9.366887606991051"><ele>62.33333333333333</ele><time>2026-04-26T14:15:53Z</time></trkpt><trkpt lat="41.12556506702581" lon="9.366961757969184"><ele>61.666666666666664</ele><time>2026-04-26T14:15:54Z</time></trkpt><trkpt lat="41.12542225104443" lon="9.367009985754462"><ele>61.0</ele><time>2026-04-26T14:15:55Z</time></trkpt><trkpt lat="41.12527715665981" lon="9.367032448933863"><ele>61.0</ele><time>2026-04-26T14:15:56Z</time></trkpt><trkpt lat="41.12513487850914" lon="9.367029692980365"><ele>61.0</ele><time>2026-04-26T14:15:57Z</time></trkpt><trkpt lat="41.124965605373575" lon="9.367015824277157"><ele>61.0</ele><time>2026-04-26T14:15:57.999Z</time></trkpt><trkpt lat="41.124765253815646" lon="9.36699573802589"><ele>60.5</ele><time>2026-04-26T14:15:58.999Z</time></trkpt><trkpt lat="41.12454648664113" lon="9.366980778774632"><ele>60.0</ele><time>2026-04-26T14:15:59.999Z</time></trkpt><trkpt lat="41.12430956340587" lon="9.366944685320659"><ele>62.5</ele><time>2026-04-26T14:16:00.999Z</time></trkpt><trkpt lat="41.1240606092911" lon="9.366897247026248"><ele>65.0</ele><time>2026-04-26T14:16:01.999Z</time></trkpt><trkpt lat="41.123804233189624" lon="9.366853951637928"><ele>65.0</ele><time>2026-04-26T14:16:02.999Z</time></trkpt><trkpt lat="41.123547405673065" lon="9.366823936450283"><ele>65.0</ele><time>2026-04-26T14:16:03.999Z</time></trkpt><trkpt lat="41.1233086919861" lon="9.366797873057841"><ele>65.66666666666667</ele><time>2026-04-26T14:16:04.999Z</time></trkpt><trkpt lat="41.123092732922665" lon="9.366772411119989"><ele>66.33333333333333</ele><time>2026-04-26T14:16:05.999Z</time></trkpt><trkpt lat="41.1228917944037" lon="9.366746867279797"><ele>67.0</ele><time>2026-04-26T14:16:06.999Z</time></trkpt><trkpt lat="41.12270398360599" lon="9.366724587490463"><ele>67.0</ele><time>2026-04-26T14:16:07.999Z</time></trkpt><trkpt lat="41.12251367382833" lon="9.366704573584437"><ele>67.0</ele><time>2026-04-26T14:16:08.999Z</time></trkpt><trkpt lat="41.12231701137311" lon="9.36668258685087"><ele>67.0</ele><time>2026-04-26T14:16:10Z</time></trkpt><trkpt lat="41.12211406729" lon="9.366654272582407"><ele>67.0</ele><time>2026-04-26T14:16:11Z</time></trkpt><trkpt lat="41.12189905809934" lon="9.36662836484161"><ele>67.0</ele><time>2026-04-26T14:16:12Z</time></trkpt><trkpt lat="41.121677467665485" lon="9.366604499610633"><ele>67.0</ele><time>2026-04-26T14:16:13Z</time></trkpt><trkpt lat="41.12144820157467" lon="9.366575701681658"><ele>67.0</ele><time>2026-04-26T14:16:14Z</time></trkpt><trkpt lat="41.12122809283205" lon="9.366550446991726"><ele>67.0</ele><time>2026-04-26T14:16:15Z</time></trkpt><trkpt lat="41.12101993053097" lon="9.366526175427117"><ele>67.0</ele><time>2026-04-26T14:16:16Z</time></trkpt><trkpt lat="41.12080772620716" lon="9.366502515085404"><ele>67.0</ele><time>2026-04-26T14:16:17Z</time></trkpt><trkpt lat="41.12057694912405" lon="9.366477745777399"><ele>67.0</ele><time>2026-04-26T14:16:18Z</time></trkpt><trkpt lat="41.12032999404736" lon="9.36645230867475"><ele>67.0</ele><time>2026-04-26T14:16:19Z</time></trkpt><trkpt lat="41.12007358773031" lon="9.366424382593463"><ele>67.0</ele><time>2026-04-26T14:16:20Z</time></trkpt><trkpt lat="41.119805164917075" lon="9.366392533735535"><ele>67.5</ele><time>2026-04-26T14:16:21Z</time></trkpt><trkpt lat="41.119530639914196" lon="9.366360549965744"><ele>68.0</ele><time>2026-04-26T14:16:22Z</time></trkpt><trkpt lat="41.11924993594205" lon="9.366328007992173"><ele>67.0</ele><time>2026-04-26T14:16:23Z</time></trkpt><trkpt lat="41.11896141367457" lon="9.366296895527913"><ele>66.0</ele><time>2026-04-26T14:16:24Z</time></trkpt><trkpt lat="41.11866713747574" lon="9.366266879165389"><ele>66.0</ele><time>2026-04-26T14:16:25Z</time></trkpt><trkpt lat="41.1183682729761" lon="9.366235960465255"><ele>66.0</ele><time>2026-04-26T14:16:26Z</time></trkpt><trkpt lat="41.11806960351933" lon="9.366204015758408"><ele>68.5</ele><time>2026-04-26T14:16:27Z</time></trkpt><trkpt lat="41.117770132374595" lon="9.366170667290303"><ele>71.0</ele><time>2026-04-26T14:16:28Z</time></trkpt><trkpt lat="41.1174651091794" lon="9.366135132691841"><ele>73.5</ele><time>2026-04-26T14:16:29Z</time></trkpt><trkpt lat="41.11718060553892" lon="9.366106425511797"><ele>76.0</ele><time>2026-04-26T14:16:30Z</time></trkpt><trkpt lat="41.11691939571692" lon="9.366079224773806"><ele>76.0</ele><time>2026-04-26T14:16:31Z</time></trkpt><trkpt lat="41.11667615248711" lon="9.36605078700801"><ele>76.0</ele><time>2026-04-26T14:16:32Z</time></trkpt><trkpt lat="41.11644043442043" lon="9.366015988564493"><ele>77.5</ele><time>2026-04-26T14:16:33Z</time></trkpt><trkpt lat="41.1162059149604" lon="9.365974096792245"><ele>79.0</ele><time>2026-04-26T14:16:34Z</time></trkpt><trkpt lat="41.115967602737534" lon="9.36592294772574"><ele>79.0</ele><time>2026-04-26T14:16:35Z</time></trkpt><trkpt lat="41.11572750698702" lon="9.365867326850756"><ele>79.0</ele><time>2026-04-26T14:16:36Z</time></trkpt><trkpt lat="41.11548399215997" lon="9.36581282959185"><ele>79.0</ele><time>2026-04-26T14:16:37Z</time></trkpt><trkpt lat="41.11522709202057" lon="9.365758484405903"><ele>79.0</ele><time>2026-04-26T14:16:38Z</time></trkpt><trkpt lat="41.1149668543578" lon="9.365702714158866"><ele>80.0</ele><time>2026-04-26T14:16:39Z</time></trkpt><trkpt lat="41.11472929427838" lon="9.365650561691456"><ele>81.0</ele><time>2026-04-26T14:16:40Z</time></trkpt><trkpt lat="41.11450759830764" lon="9.365603286524356"><ele>81.0</ele><time>2026-04-26T14:16:41Z</time></trkpt><trkpt lat="41.114296252005154" lon="9.365558722107792"><ele>81.0</ele><time>2026-04-26T14:16:42Z</time></trkpt><trkpt lat="41.114084053540154" lon="9.365512490538142"><ele>81.0</ele><time>2026-04-26T14:16:43Z</time></trkpt><trkpt lat="41.113884699362124" lon="9.365468580744627"><ele>83.0</ele><time>2026-04-26T14:16:44Z</time></trkpt><trkpt lat="41.113699463179834" lon="9.365426760274296"><ele>85.0</ele><time>2026-04-26T14:16:45Z</time></trkpt><trkpt lat="41.113525772814306" lon="9.365385825434066"><ele>87.0</ele><time>2026-04-26T14:16:46Z</time></trkpt><trkpt lat="41.1133569850502" lon="9.365354238026514"><ele>88.0</ele><time>2026-04-26T14:16:47Z</time></trkpt><trkpt lat="41.11318115777679" lon="9.365343965619171"><ele>89.0</ele><time>2026-04-26T14:16:48Z</time></trkpt><trkpt lat="41.112996917251614" lon="9.365372125357217"><ele>90.0</ele><time>2026-04-26T14:16:49Z</time></trkpt><trkpt lat="41.11279871200814" lon="9.3654401377019"><ele>88.5</ele><time>2026-04-26T14:16:50Z</time></trkpt><trkpt lat="41.11258777482205" lon="9.365534814312364"><ele>87.0</ele><time>2026-04-26T14:16:51Z</time></trkpt><trkpt lat="41.11236081206833" lon="9.365632896767623"><ele>85.5</ele><time>2026-04-26T14:16:52Z</time></trkpt><trkpt lat="41.11211876429562" lon="9.365733639664661"><ele>84.0</ele><time>2026-04-26T14:16:53Z</time></trkpt><trkpt lat="41.111867633954645" lon="9.365829972557483"><ele>84.0</ele><time>2026-04-26T14:16:54Z</time></trkpt><trkpt lat="41.11162287708899" lon="9.365924631829985"><ele>84.0</ele><time>2026-04-26T14:16:55Z</time></trkpt><trkpt lat="41.1113935494977" lon="9.366016164639817"><ele>84.0</ele><time>2026-04-26T14:16:56Z</time></trkpt><trkpt lat="41.111174798496826" lon="9.366105013564852"><ele>84.0</ele><time>2026-04-26T14:16:57Z</time></trkpt><trkpt lat="41.1109673740645" lon="9.366188172943943"><ele>84.0</ele><time>2026-04-26T14:16:58Z</time></trkpt><trkpt lat="41.11077603267174" lon="9.366262255119343"><ele>84.66666666666667</ele><time>2026-04-26T14:16:59Z</time></trkpt><trkpt lat="41.110584674731506" lon="9.366342093600704"><ele>85.33333333333334</ele><time>2026-04-26T14:17:00Z</time></trkpt><trkpt lat="41.11038673488814" lon="9.366427832924641"><ele>86.0</ele><time>2026-04-26T14:17:01Z</time></trkpt><trkpt lat="41.11018808257015" lon="9.36652434922098"><ele>86.5</ele><time>2026-04-26T14:17:02Z</time></trkpt><trkpt lat="41.10997920213031" lon="9.36664699841831"><ele>87.0</ele><time>2026-04-26T14:17:03Z</time></trkpt><trkpt lat="41.10976095195629" lon="9.366790524447113"><ele>87.0</ele><time>2026-04-26T14:17:04Z</time></trkpt><trkpt lat="41.109531997406634" lon="9.366935455303167"><ele>87.0</ele><time>2026-04-26T14:17:05Z</time></trkpt><trkpt lat="41.10928964591003" lon="9.367067370870059"><ele>87.0</ele><time>2026-04-26T14:17:06Z</time></trkpt><trkpt lat="41.10903078985012" lon="9.367154618507517"><ele>87.0</ele><time>2026-04-26T14:17:07Z</time></trkpt><trkpt lat="41.10877291452278" lon="9.367272503277343"><ele>85.0</ele><time>2026-04-26T14:17:08Z</time></trkpt><trkpt lat="41.108522915599856" lon="9.367358053135932"><ele>83.0</ele><time>2026-04-26T14:17:09Z</time></trkpt><trkpt lat="41.10829378678741" lon="9.367441404499807"><ele>83.66666666666667</ele><time>2026-04-26T14:17:10Z</time></trkpt><trkpt lat="41.10807415470606" lon="9.36751995755035"><ele>84.33333333333333</ele><time>2026-04-26T14:17:11Z</time></trkpt><trkpt lat="41.10787262453556" lon="9.36759912322039"><ele>85.0</ele><time>2026-04-26T14:17:12Z</time></trkpt><trkpt lat="41.10766769433186" lon="9.367705815863749"><ele>85.0</ele><time>2026-04-26T14:17:13Z</time></trkpt><trkpt lat="41.107454371889276" lon="9.367844398849611"><ele>85.0</ele><time>2026-04-26T14:17:14Z</time></trkpt><trkpt lat="41.10723505443143" lon="9.368014223387325"><ele>85.0</ele><time>2026-04-26T14:17:15Z</time></trkpt><trkpt lat="41.10701040854515" lon="9.368184634210381"><ele>85.0</ele><time>2026-04-26T14:17:16Z</time></trkpt><trkpt lat="41.10677680369123" lon="9.368359616228183"><ele>86.5</ele><time>2026-04-26T14:17:17Z</time></trkpt><trkpt lat="41.1065403568651" lon="9.368533721802455"><ele>88.0</ele><time>2026-04-26T14:17:18Z</time></trkpt><trkpt lat="41.10631407902626" lon="9.368701057683007"><ele>87.5</ele><time>2026-04-26T14:17:19Z</time></trkpt><trkpt lat="41.10609214560337" lon="9.368863252858414"><ele>87.0</ele><time>2026-04-26T14:17:20Z</time></trkpt><trkpt lat="41.10586354269935" lon="9.369033171924347"><ele>90.0</ele><time>2026-04-26T14:17:21Z</time></trkpt><trkpt lat="41.10564733287075" lon="9.36919750112042"><ele>93.0</ele><time>2026-04-26T14:17:22Z</time></trkpt><trkpt lat="41.10544663252321" lon="9.36934873426103"><ele>93.0</ele><time>2026-04-26T14:17:23Z</time></trkpt><trkpt lat="41.10525698267003" lon="9.369477433671783"><ele>93.0</ele><time>2026-04-26T14:17:24Z</time></trkpt><trkpt lat="41.105042797356425" lon="9.369548265563589"><ele>93.0</ele><time>2026-04-26T14:17:25Z</time></trkpt><trkpt lat="41.10481030231676" lon="9.369615087433374"><ele>92.5</ele><time>2026-04-26T14:17:26Z</time></trkpt><trkpt lat="41.10456535543045" lon="9.36967863267213"><ele>92.0</ele><time>2026-04-26T14:17:27Z</time></trkpt><trkpt lat="41.10431548781333" lon="9.369760032742613"><ele>94.0</ele><time>2026-04-26T14:17:28Z</time></trkpt><trkpt lat="41.104070700772205" lon="9.369824630780155"><ele>96.0</ele><time>2026-04-26T14:17:29Z</time></trkpt><trkpt lat="41.10384639013604" lon="9.369871273213004"><ele>96.0</ele><time>2026-04-26T14:17:30Z</time></trkpt><trkpt lat="41.10362718841903" lon="9.369930414890732"><ele>96.0</ele><time>2026-04-26T14:17:31Z</time></trkpt><trkpt lat="41.10340853872353" lon="9.369998094721842"><ele>96.0</ele><time>2026-04-26T14:17:32Z</time></trkpt><trkpt lat="41.10324740187609" lon="9.370298212108"><ele>98.0</ele><time>2026-04-26T14:17:33Z</time></trkpt><trkpt lat="41.10307371815498" lon="9.370411837547087"><ele>100.0</ele><time>2026-04-26T14:17:34Z</time></trkpt><trkpt lat="41.10290578735546" lon="9.370500642788913"><ele>102.0</ele><time>2026-04-26T14:17:35Z</time></trkpt><trkpt lat="41.10274376839869" lon="9.370550893995196"><ele>102.0</ele><time>2026-04-26T14:17:36Z</time></trkpt><trkpt lat="41.102592183070826" lon="9.37058481114019"><ele>102.0</ele><time>2026-04-26T14:17:37Z</time></trkpt><trkpt lat="41.1024559400453" lon="9.370617334693662"><ele>102.0</ele><time>2026-04-26T14:17:38Z</time></trkpt><trkpt lat="41.10233128738442" lon="9.370651624454865"><ele>102.0</ele><time>2026-04-26T14:17:39Z</time></trkpt><trkpt lat="41.10221942853674" lon="9.370686536978758"><ele>103.25</ele><time>2026-04-26T14:17:40Z</time></trkpt><trkpt lat="41.10211196947151" lon="9.37072604587764"><ele>104.5</ele><time>2026-04-26T14:17:41Z</time></trkpt><trkpt lat="41.1020032684466" lon="9.370768616546535"><ele>105.75</ele><time>2026-04-26T14:17:42Z</time></trkpt><trkpt lat="41.101896838993916" lon="9.370823714692728"><ele>107.0</ele><time>2026-04-26T14:17:43Z</time></trkpt><trkpt lat="41.101789898710855" lon="9.370894196789335"><ele>107.0</ele><time>2026-04-26T14:17:44Z</time></trkpt><trkpt lat="41.10167922641761" lon="9.370963854496946"><ele>107.0</ele><time>2026-04-26T14:17:45Z</time></trkpt><trkpt lat="41.101564466282625" lon="9.371037403649218"><ele>107.0</ele><time>2026-04-26T14:17:46Z</time></trkpt><trkpt lat="41.1014449561994" lon="9.371111637883864"><ele>107.0</ele><time>2026-04-26T14:17:47Z</time></trkpt><trkpt lat="41.10132143053739" lon="9.371186099180218"><ele>108.5</ele><time>2026-04-26T14:17:48Z</time></trkpt><trkpt lat="41.101195935147246" lon="9.37126243357605"><ele>110.0</ele><time>2026-04-26T14:17:49Z</time></trkpt><trkpt lat="41.101070081297486" lon="9.371343115045264"><ele>111.5</ele><time>2026-04-26T14:17:50Z</time></trkpt><trkpt lat="41.10095228476278" lon="9.371416336952665"><ele>113.0</ele><time>2026-04-26T14:17:51Z</time></trkpt><trkpt lat="41.10083661621658" lon="9.371483488230238"><ele>114.75</ele><time>2026-04-26T14:17:52Z</time></trkpt><trkpt lat="41.10071601605957" lon="9.371541664552183"><ele>116.5</ele><time>2026-04-26T14:17:53Z</time></trkpt><trkpt lat="41.10059052444859" lon="9.37158626963819"><ele>118.25</ele><time>2026-04-26T14:17:54Z</time></trkpt><trkpt lat="41.100460758897015" lon="9.371617975999422"><ele>120.0</ele><time>2026-04-26T14:17:55Z</time></trkpt><trkpt lat="41.100324133612546" lon="9.371637005233596"><ele>120.0</ele><time>2026-04-26T14:17:56Z</time></trkpt><trkpt lat="41.10018821115401" lon="9.37163800845329"><ele>120.0</ele><time>2026-04-26T14:17:57Z</time></trkpt><trkpt lat="41.100049509131836" lon="9.37162068895668"><ele>120.0</ele><time>2026-04-26T14:17:58Z</time></trkpt><trkpt lat="41.09990792001372" lon="9.371597212554153"><ele>120.0</ele><time>2026-04-26T14:17:59Z</time></trkpt><trkpt lat="41.09977194260307" lon="9.371573681206877"><ele>121.75</ele><time>2026-04-26T14:18:00Z</time></trkpt><trkpt lat="41.09964582506146" lon="9.371555414406162"><ele>123.5</ele><time>2026-04-26T14:18:01Z</time></trkpt><trkpt lat="41.09951828686937" lon="9.371537166677754"><ele>125.25</ele><time>2026-04-26T14:18:02Z</time></trkpt><trkpt lat="41.09938777473122" lon="9.371524951602058"><ele>127.0</ele><time>2026-04-26T14:18:02.999Z</time></trkpt><trkpt lat="41.09926126646403" lon="9.371518071878468"><ele>127.0</ele><time>2026-04-26T14:18:03.999Z</time></trkpt><trkpt lat="41.099135401208684" lon="9.371520289687302"><ele>127.0</ele><time>2026-04-26T14:18:04.999Z</time></trkpt><trkpt lat="41.09901008046335" lon="9.371538095001783"><ele>127.0</ele><time>2026-04-26T14:18:05.999Z</time></trkpt><trkpt lat="41.09888167965234" lon="9.371558713814"><ele>127.0</ele><time>2026-04-26T14:18:06.999Z</time></trkpt><trkpt lat="41.09875229841059" lon="9.371579598488923"><ele>127.5</ele><time>2026-04-26T14:18:07.999Z</time></trkpt><trkpt lat="41.09862305053779" lon="9.371592608317462"><ele>128.0</ele><time>2026-04-26T14:18:08.999Z</time></trkpt><trkpt lat="41.09849753521205" lon="9.37160334565407"><ele>128.5</ele><time>2026-04-26T14:18:09.999Z</time></trkpt><trkpt lat="41.098376906062065" lon="9.37161792739276"><ele>129.0</ele><time>2026-04-26T14:18:10.999Z</time></trkpt><trkpt lat="41.098252185533276" lon="9.371616555342325"><ele>129.75</ele><time>2026-04-26T14:18:11.999Z</time></trkpt><trkpt lat="41.098124031786355" lon="9.371615284982246"><ele>130.5</ele><time>2026-04-26T14:18:12.999Z</time></trkpt><trkpt lat="41.097988795129126" lon="9.371616872403644"><ele>131.25</ele><time>2026-04-26T14:18:13.999Z</time></trkpt><trkpt lat="41.097846339563006" lon="9.371629843050993"><ele>132.0</ele><time>2026-04-26T14:18:14.999Z</time></trkpt><trkpt lat="41.09770399370933" lon="9.371650604452011"><ele>132.0</ele><time>2026-04-26T14:18:16Z</time></trkpt><trkpt lat="41.09757002744196" lon="9.371672344364617"><ele>132.0</ele><time>2026-04-26T14:18:17Z</time></trkpt><trkpt lat="41.09744461121268" lon="9.371701143779855"><ele>132.0</ele><time>2026-04-26T14:18:18Z</time></trkpt><trkpt lat="41.09731630417249" lon="9.371732283767953"><ele>132.0</ele><time>2026-04-26T14:18:19Z</time></trkpt><trkpt lat="41.09718693821179" lon="9.371765617803792"><ele>133.0</ele><time>2026-04-26T14:18:20Z</time></trkpt><trkpt lat="41.097055312170816" lon="9.371799074760698"><ele>134.0</ele><time>2026-04-26T14:18:21Z</time></trkpt><trkpt lat="41.096922367827645" lon="9.371831520140361"><ele>135.0</ele><time>2026-04-26T14:18:22Z</time></trkpt><trkpt lat="41.09679087071774" lon="9.371868677186374"><ele>136.0</ele><time>2026-04-26T14:18:23Z</time></trkpt><trkpt lat="41.09665573635623" lon="9.371906770257523"><ele>135.25</ele><time>2026-04-26T14:18:24Z</time></trkpt><trkpt lat="41.09651925984008" lon="9.371944758434255"><ele>134.5</ele><time>2026-04-26T14:18:25Z</time></trkpt><trkpt lat="41.09638434896232" lon="9.371985458374505"><ele>133.75</ele><time>2026-04-26T14:18:26Z</time></trkpt><trkpt lat="41.09625835574688" lon="9.372023955299731"><ele>133.0</ele><time>2026-04-26T14:18:27Z</time></trkpt><trkpt lat="41.0961359711327" lon="9.372061179225156"><ele>133.0</ele><time>2026-04-26T14:18:28Z</time></trkpt><trkpt lat="41.09601147259676" lon="9.372099883894588"><ele>133.0</ele><time>2026-04-26T14:18:29Z</time></trkpt><trkpt lat="41.09587691770263" lon="9.372142104484759"><ele>133.0</ele><time>2026-04-26T14:18:30Z</time></trkpt><trkpt lat="41.09571844538854" lon="9.372192707485697"><ele>133.0</ele><time>2026-04-26T14:18:31Z</time></trkpt><trkpt lat="41.095560371674104" lon="9.372246513812403"><ele>133.0</ele><time>2026-04-26T14:18:32Z</time></trkpt><trkpt lat="41.09540918407869" lon="9.372297416006031"><ele>133.0</ele><time>2026-04-26T14:18:33Z</time></trkpt><trkpt lat="41.0952577229088" lon="9.372348887276324"><ele>133.0</ele><time>2026-04-26T14:18:34Z</time></trkpt><trkpt lat="41.09510551829405" lon="9.372396451932033"><ele>133.0</ele><time>2026-04-26T14:18:35Z</time></trkpt><trkpt lat="41.094957249282174" lon="9.37244636877645"><ele>133.0</ele><time>2026-04-26T14:18:36Z</time></trkpt><trkpt lat="41.094811657990725" lon="9.372494071816655"><ele>133.0</ele><time>2026-04-26T14:18:37Z</time></trkpt><trkpt lat="41.09466973830447" lon="9.372542274978086"><ele>133.0</ele><time>2026-04-26T14:18:38Z</time></trkpt><trkpt lat="41.09453017335029" lon="9.372592888388057"><ele>132.75</ele><time>2026-04-26T14:18:39Z</time></trkpt><trkpt lat="41.09439458200435" lon="9.372638974162207"><ele>132.5</ele><time>2026-04-26T14:18:40Z</time></trkpt><trkpt lat="41.094263851769874" lon="9.372668091347311"><ele>132.25</ele><time>2026-04-26T14:18:41Z</time></trkpt><trkpt lat="41.09413685855695" lon="9.37268324394932"><ele>132.0</ele><time>2026-04-26T14:18:42Z</time></trkpt><trkpt lat="41.094008358032" lon="9.372677884179359"><ele>132.75</ele><time>2026-04-26T14:18:43Z</time></trkpt><trkpt lat="41.09387692182982" lon="9.372659818543376"><ele>133.5</ele><time>2026-04-26T14:18:44Z</time></trkpt><trkpt lat="41.09374414445052" lon="9.372636462513196"><ele>134.25</ele><time>2026-04-26T14:18:45Z</time></trkpt><trkpt lat="41.09362127527139" lon="9.372622559088448"><ele>135.0</ele><time>2026-04-26T14:18:46Z</time></trkpt><trkpt lat="41.09349519317052" lon="9.372632066827265"><ele>135.0</ele><time>2026-04-26T14:18:47Z</time></trkpt><trkpt lat="41.093361390098934" lon="9.372646519568784"><ele>135.0</ele><time>2026-04-26T14:18:48Z</time></trkpt><trkpt lat="41.09323730394413" lon="9.372742090238624"><ele>135.0</ele><time>2026-04-26T14:18:49Z</time></trkpt><trkpt lat="41.093114160308325" lon="9.372846188067484"><ele>135.0</ele><time>2026-04-26T14:18:50Z</time></trkpt><trkpt lat="41.093008804282135" lon="9.372946817504655"><ele>135.75</ele><time>2026-04-26T14:18:51Z</time></trkpt><trkpt lat="41.092914674020335" lon="9.373037377364984"><ele>136.5</ele><time>2026-04-26T14:18:52Z</time></trkpt><trkpt lat="41.09282024606702" lon="9.373123045248581"><ele>137.25</ele><time>2026-04-26T14:18:53Z</time></trkpt><trkpt lat="41.09272877366038" lon="9.373206174202814"><ele>138.0</ele><time>2026-04-26T14:18:54Z</time></trkpt><trkpt lat="41.092639697680085" lon="9.373292297735803"><ele>138.0</ele><time>2026-04-26T14:18:55Z</time></trkpt><trkpt lat="41.09254964216069" lon="9.373369733585067"><ele>138.0</ele><time>2026-04-26T14:18:56Z</time></trkpt><trkpt lat="41.09246229658357" lon="9.373436482819105"><ele>138.0</ele><time>2026-04-26T14:18:57Z</time></trkpt><trkpt lat="41.092353725266236" lon="9.373503492076289"><ele>138.0</ele><time>2026-04-26T14:18:58Z</time></trkpt><trkpt lat="41.09220881327425" lon="9.373550324979913"><ele>138.33333333333334</ele><time>2026-04-26T14:18:59Z</time></trkpt><trkpt lat="41.0920426428499" lon="9.373569540013278"><ele>138.66666666666669</ele><time>2026-04-26T14:19:00Z</time></trkpt><trkpt lat="41.09188673890855" lon="9.373577284067657"><ele>139.0</ele><time>2026-04-26T14:19:01Z</time></trkpt><trkpt lat="41.09173951409438" lon="9.373590748003162"><ele>139.0</ele><time>2026-04-26T14:19:02Z</time></trkpt><trkpt lat="41.091610354671225" lon="9.37361008700983"><ele>139.0</ele><time>2026-04-26T14:19:03Z</time></trkpt><trkpt lat="41.09149457776207" lon="9.373630452522638"><ele>139.0</ele><time>2026-04-26T14:19:04Z</time></trkpt><trkpt lat="41.09137879870391" lon="9.37365958657979"><ele>139.0</ele><time>2026-04-26T14:19:05Z</time></trkpt><trkpt lat="41.09126170596908" lon="9.373688413077387"><ele>138.5</ele><time>2026-04-26T14:19:06Z</time></trkpt><trkpt lat="41.09113535955331" lon="9.373720968047438"><ele>138.0</ele><time>2026-04-26T14:19:07Z</time></trkpt><trkpt lat="41.091002386118426" lon="9.373755594742509"><ele>137.5</ele><time>2026-04-26T14:19:08Z</time></trkpt><trkpt lat="41.09085702283538" lon="9.37378878724392"><ele>137.0</ele><time>2026-04-26T14:19:09Z</time></trkpt><trkpt lat="41.090702290206174" lon="9.373824037091598"><ele>135.33333333333331</ele><time>2026-04-26T14:19:10Z</time></trkpt><trkpt lat="41.09054577930244" lon="9.373861318543495"><ele>133.66666666666666</ele><time>2026-04-26T14:19:11Z</time></trkpt><trkpt lat="41.09039178297345" lon="9.373896946589557"><ele>132.0</ele><time>2026-04-26T14:19:12Z</time></trkpt><trkpt lat="41.090227975797475" lon="9.373932676808604"><ele>132.0</ele><time>2026-04-26T14:19:13Z</time></trkpt><trkpt lat="41.090058164460785" lon="9.373970136139393"><ele>132.0</ele><time>2026-04-26T14:19:14Z</time></trkpt><trkpt lat="41.08988268100346" lon="9.374013721766866"><ele>132.0</ele><time>2026-04-26T14:19:15Z</time></trkpt><trkpt lat="41.089704745155075" lon="9.374057930491324"><ele>130.0</ele><time>2026-04-26T14:19:16Z</time></trkpt><trkpt lat="41.08952164337688" lon="9.37409901607237"><ele>128.0</ele><time>2026-04-26T14:19:17Z</time></trkpt><trkpt lat="41.08934330296987" lon="9.374140498840566"><ele>126.0</ele><time>2026-04-26T14:19:18Z</time></trkpt><trkpt lat="41.08917333141167" lon="9.374182716525015"><ele>125.0</ele><time>2026-04-26T14:19:19Z</time></trkpt><trkpt lat="41.08900383763451" lon="9.374222794215294"><ele>124.0</ele><time>2026-04-26T14:19:20Z</time></trkpt><trkpt lat="41.08883708203735" lon="9.374264943615914"><ele>123.0</ele><time>2026-04-26T14:19:21Z</time></trkpt><trkpt lat="41.088669598016445" lon="9.374306299309104"><ele>123.0</ele><time>2026-04-26T14:19:22Z</time></trkpt><trkpt lat="41.08850256538855" lon="9.37434689762135"><ele>123.0</ele><time>2026-04-26T14:19:23Z</time></trkpt><trkpt lat="41.08831552087098" lon="9.3743736084843"><ele>123.0</ele><time>2026-04-26T14:19:24Z</time></trkpt><trkpt lat="41.08810983294685" lon="9.37442439297459"><ele>122.5</ele><time>2026-04-26T14:19:25Z</time></trkpt><trkpt lat="41.08788335540996" lon="9.37448051195703"><ele>122.0</ele><time>2026-04-26T14:19:26Z</time></trkpt><trkpt lat="41.0876448910192" lon="9.374540658516027"><ele>121.5</ele><time>2026-04-26T14:19:27Z</time></trkpt><trkpt lat="41.08739615032283" lon="9.374602972204553"><ele>121.0</ele><time>2026-04-26T14:19:28Z</time></trkpt><trkpt lat="41.08714288109146" lon="9.374666725447268"><ele>121.5</ele><time>2026-04-26T14:19:29Z</time></trkpt><trkpt lat="41.08690886895152" lon="9.374742741039308"><ele>122.0</ele><time>2026-04-26T14:19:30Z</time></trkpt><trkpt lat="41.086686824626625" lon="9.374787203909557"><ele>122.66666666666666</ele><time>2026-04-26T14:19:31Z</time></trkpt><trkpt lat="41.08647140128147" lon="9.374835591411935"><ele>123.33333333333334</ele><time>2026-04-26T14:19:32Z</time></trkpt><trkpt lat="41.0862678759686" lon="9.37488642416649"><ele>124.0</ele><time>2026-04-26T14:19:33Z</time></trkpt><trkpt lat="41.08607254722086" lon="9.374936123018832"><ele>124.0</ele><time>2026-04-26T14:19:34Z</time></trkpt><trkpt lat="41.085891900152085" lon="9.374995620186848"><ele>124.0</ele><time>2026-04-26T14:19:35Z</time></trkpt><trkpt lat="41.08572833328016" lon="9.375079499942585"><ele>124.0</ele><time>2026-04-26T14:19:36Z</time></trkpt><trkpt lat="41.08559359586438" lon="9.375196119133902"><ele>125.66666666666667</ele><time>2026-04-26T14:19:37Z</time></trkpt><trkpt lat="41.08546518881378" lon="9.37535676073498"><ele>127.33333333333334</ele><time>2026-04-26T14:19:38Z</time></trkpt><trkpt lat="41.08534281337956" lon="9.375548760829792"><ele>129.0</ele><time>2026-04-26T14:19:39Z</time></trkpt><trkpt lat="41.08523028368866" lon="9.375720902974694"><ele>125.5</ele><time>2026-04-26T14:19:40Z</time></trkpt><trkpt lat="41.08512311287113" lon="9.375842473247564"><ele>122.0</ele><time>2026-04-26T14:19:41Z</time></trkpt><trkpt lat="41.084994698198706" lon="9.3758834434016"><ele>118.5</ele><time>2026-04-26T14:19:42Z</time></trkpt><trkpt lat="41.08486086762963" lon="9.37590691771394"><ele>115.0</ele><time>2026-04-26T14:19:43Z</time></trkpt><trkpt lat="41.08472064876994" lon="9.375806347987357"><ele>113.66666666666667</ele><time>2026-04-26T14:19:44Z</time></trkpt><trkpt lat="41.08455501881887" lon="9.375797095991077"><ele>112.33333333333334</ele><time>2026-04-26T14:19:45Z</time></trkpt><trkpt lat="41.08438417260214" lon="9.375816774213053"><ele>111.0</ele><time>2026-04-26T14:19:46Z</time></trkpt><trkpt lat="41.084198623159196" lon="9.37588773830017"><ele>108.66666666666666</ele><time>2026-04-26T14:19:47Z</time></trkpt><trkpt lat="41.08401950912291" lon="9.37595633477987"><ele>106.33333333333333</ele><time>2026-04-26T14:19:48Z</time></trkpt><trkpt lat="41.08385805806576" lon="9.375956683593222"><ele>104.0</ele><time>2026-04-26T14:19:49Z</time></trkpt><trkpt lat="41.08372067079063" lon="9.375922416552738"><ele>104.0</ele><time>2026-04-26T14:19:50Z</time></trkpt><trkpt lat="41.08359599420506" lon="9.37582505437183"><ele>104.0</ele><time>2026-04-26T14:19:51Z</time></trkpt><trkpt lat="41.08345326204892" lon="9.37567996180269"><ele>104.0</ele><time>2026-04-26T14:19:52Z</time></trkpt><trkpt lat="41.083299101301726" lon="9.375538759428785"><ele>101.75</ele><time>2026-04-26T14:19:53Z</time></trkpt><trkpt lat="41.083171337909235" lon="9.375411156590701"><ele>99.5</ele><time>2026-04-26T14:19:54Z</time></trkpt><trkpt lat="41.08303491713507" lon="9.375342770419659"><ele>97.25</ele><time>2026-04-26T14:19:54.999Z</time></trkpt><trkpt lat="41.08289953701693" lon="9.37533476055199"><ele>95.0</ele><time>2026-04-26T14:19:55.999Z</time></trkpt><trkpt lat="41.082764841735845" lon="9.375382135668131"><ele>95.0</ele><time>2026-04-26T14:19:56.999Z</time></trkpt><trkpt lat="41.082624354418066" lon="9.375486953925087"><ele>95.0</ele><time>2026-04-26T14:19:57.999Z</time></trkpt><trkpt lat="41.0824733474784" lon="9.375630724473476"><ele>95.0</ele><time>2026-04-26T14:19:58.999Z</time></trkpt><trkpt lat="41.08233702502656" lon="9.375782550333662"><ele>91.66666666666667</ele><time>2026-04-26T14:19:59.999Z</time></trkpt><trkpt lat="41.08220967350037" lon="9.375943688007693"><ele>88.33333333333333</ele><time>2026-04-26T14:20:00.999Z</time></trkpt><trkpt lat="41.08209474641952" lon="9.376117403783605"><ele>85.0</ele><time>2026-04-26T14:20:01.999Z</time></trkpt><trkpt lat="41.081999863116486" lon="9.376289816216167"><ele>85.66666666666666</ele><time>2026-04-26T14:20:02.999Z</time></trkpt><trkpt lat="41.08194001583426" lon="9.376475852752414"><ele>86.33333333333333</ele><time>2026-04-26T14:20:03.999Z</time></trkpt><trkpt lat="41.08189575895627" lon="9.376699428431326"><ele>87.0</ele><time>2026-04-26T14:20:04.999Z</time></trkpt><trkpt lat="41.08186783070379" lon="9.376962580201921"><ele>86.66666666666667</ele><time>2026-04-26T14:20:05.999Z</time></trkpt><trkpt lat="41.081844777659626" lon="9.37724092877583"><ele>86.33333333333334</ele><time>2026-04-26T14:20:06.999Z</time></trkpt><trkpt lat="41.081809657708774" lon="9.377487717493459"><ele>86.0</ele><time>2026-04-26T14:20:07.999Z</time></trkpt><trkpt lat="41.081769693645846" lon="9.377709868336085"><ele>86.0</ele><time>2026-04-26T14:20:08.999Z</time></trkpt><trkpt lat="41.08171230879421" lon="9.377916977311864"><ele>86.0</ele><time>2026-04-26T14:20:09.999Z</time></trkpt><trkpt lat="41.08162647757331" lon="9.378105796885325"><ele>86.0</ele><time>2026-04-26T14:20:10.999Z</time></trkpt><trkpt lat="41.08151948451243" lon="9.378273990374751"><ele>81.66666666666667</ele><time>2026-04-26T14:20:11.999Z</time></trkpt><trkpt lat="41.081412616438904" lon="9.37843202544322"><ele>77.33333333333333</ele><time>2026-04-26T14:20:12.999Z</time></trkpt><trkpt lat="41.081333690998676" lon="9.378604869255014"><ele>73.0</ele><time>2026-04-26T14:20:13.999Z</time></trkpt><trkpt lat="41.08128828464062" lon="9.378792042909623"><ele>72.0</ele><time>2026-04-26T14:20:14.999Z</time></trkpt><trkpt lat="41.08128672605721" lon="9.378972508190435"><ele>71.0</ele><time>2026-04-26T14:20:15.999Z</time></trkpt><trkpt lat="41.08132524539575" lon="9.379156323149386"><ele>70.0</ele><time>2026-04-26T14:20:16.999Z</time></trkpt><trkpt lat="41.081396607495854" lon="9.379351410173191"><ele>69.0</ele><time>2026-04-26T14:20:17.999Z</time></trkpt><trkpt lat="41.08149686551275" lon="9.379547058771522"><ele>68.66666666666667</ele><time>2026-04-26T14:20:18.999Z</time></trkpt><trkpt lat="41.081630687273766" lon="9.379748007805958"><ele>68.33333333333334</ele><time>2026-04-26T14:20:19.999Z</time></trkpt><trkpt lat="41.081782314044666" lon="9.379927386454748"><ele>68.0</ele><time>2026-04-26T14:20:20.999Z</time></trkpt><trkpt lat="41.081930299277886" lon="9.38009364649742"><ele>68.0</ele><time>2026-04-26T14:20:22Z</time></trkpt><trkpt lat="41.08205847992907" lon="9.380248690542969"><ele>68.0</ele><time>2026-04-26T14:20:23Z</time></trkpt><trkpt lat="41.082158381636035" lon="9.380383682949008"><ele>68.0</ele><time>2026-04-26T14:20:24Z</time></trkpt><trkpt lat="41.08223162799756" lon="9.38052194490706"><ele>68.0</ele><time>2026-04-26T14:20:25Z</time></trkpt><trkpt lat="41.08227026065674" lon="9.380688209967744"><ele>67.33333333333334</ele><time>2026-04-26T14:20:26Z</time></trkpt><trkpt lat="41.082267928887795" lon="9.380879950474968"><ele>66.66666666666667</ele><time>2026-04-26T14:20:27Z</time></trkpt><trkpt lat="41.08227636011" lon="9.381104445494836"><ele>66.0</ele><time>2026-04-26T14:20:28Z</time></trkpt><trkpt lat="41.08227072245651" lon="9.381361603096142"><ele>65.33333333333333</ele><time>2026-04-26T14:20:29Z</time></trkpt><trkpt lat="41.08226536535612" lon="9.381630221121842"><ele>64.66666666666666</ele><time>2026-04-26T14:20:30Z</time></trkpt><trkpt lat="41.08226284998015" lon="9.38187324724046"><ele>64.0</ele><time>2026-04-26T14:20:31Z</time></trkpt><trkpt lat="41.08226103760408" lon="9.382114341053569"><ele>63.0</ele><time>2026-04-26T14:20:32Z</time></trkpt><trkpt lat="41.082256995038435" lon="9.382362298590387"><ele>62.0</ele><time>2026-04-26T14:20:33Z</time></trkpt><trkpt lat="41.08225365417482" lon="9.382612430680732"><ele>61.0</ele><time>2026-04-26T14:20:34Z</time></trkpt><trkpt lat="41.08225033647904" lon="9.382860194473643"><ele>59.666666666666664</ele><time>2026-04-26T14:20:35Z</time></trkpt><trkpt lat="41.08224480572227" lon="9.383108943924746"><ele>58.33333333333333</ele><time>2026-04-26T14:20:36Z</time></trkpt><trkpt lat="41.08224358615358" lon="9.383358181211124"><ele>57.0</ele><time>2026-04-26T14:20:37Z</time></trkpt><trkpt lat="41.08223959962893" lon="9.383609617603575"><ele>55.66666666666667</ele><time>2026-04-26T14:20:38Z</time></trkpt><trkpt lat="41.08224180706109" lon="9.383862713947785"><ele>54.333333333333336</ele><time>2026-04-26T14:20:39Z</time></trkpt><trkpt lat="41.08223149531485" lon="9.38411577392445"><ele>53.0</ele><time>2026-04-26T14:20:40Z</time></trkpt><trkpt lat="41.082221814465875" lon="9.384364815235"><ele>53.0</ele><time>2026-04-26T14:20:41Z</time></trkpt><trkpt lat="41.08221619961232" lon="9.384612812157359"><ele>53.0</ele><time>2026-04-26T14:20:42Z</time></trkpt><trkpt lat="41.082212137200806" lon="9.384856124188405"><ele>53.0</ele><time>2026-04-26T14:20:43Z</time></trkpt><trkpt lat="41.08221012270731" lon="9.385093528158214"><ele>53.66666666666667</ele><time>2026-04-26T14:20:44Z</time></trkpt><trkpt lat="41.08220867042906" lon="9.385327366570529"><ele>54.33333333333333</ele><time>2026-04-26T14:20:45Z</time></trkpt><trkpt lat="41.08220457909067" lon="9.385540253659661"><ele>55.0</ele><time>2026-04-26T14:20:46Z</time></trkpt><trkpt lat="41.082197341955975" lon="9.38573547157337"><ele>56.0</ele><time>2026-04-26T14:20:47Z</time></trkpt><trkpt lat="41.08217584592648" lon="9.385915280950714"><ele>57.0</ele><time>2026-04-26T14:20:48Z</time></trkpt><trkpt lat="41.082122226512105" lon="9.386066728508716"><ele>58.0</ele><time>2026-04-26T14:20:49Z</time></trkpt><trkpt lat="41.08201720081273" lon="9.38617354100289"><ele>59.0</ele><time>2026-04-26T14:20:50Z</time></trkpt><trkpt lat="41.08190060931433" lon="9.386265535143409"><ele>61.0</ele><time>2026-04-26T14:20:51Z</time></trkpt><trkpt lat="41.08176108327518" lon="9.386368816826074"><ele>63.0</ele><time>2026-04-26T14:20:52Z</time></trkpt><trkpt lat="41.081620311193696" lon="9.386492480781945"><ele>65.0</ele><time>2026-04-26T14:20:53Z</time></trkpt><trkpt lat="41.08148263310525" lon="9.386589235165562"><ele>65.0</ele><time>2026-04-26T14:20:54Z</time></trkpt><trkpt lat="41.081340667174125" lon="9.38666794531588"><ele>65.0</ele><time>2026-04-26T14:20:55Z</time></trkpt><trkpt lat="41.08116963777674" lon="9.386698833500773"><ele>65.0</ele><time>2026-04-26T14:20:56Z</time></trkpt><trkpt lat="41.08098671955993" lon="9.386773347415605"><ele>65.0</ele><time>2026-04-26T14:20:57Z</time></trkpt><trkpt lat="41.08079874150729" lon="9.386815456377722"><ele>65.0</ele><time>2026-04-26T14:20:58Z</time></trkpt><trkpt lat="41.08063328732397" lon="9.38683966145129"><ele>65.0</ele><time>2026-04-26T14:20:59Z</time></trkpt><trkpt lat="41.08046538682338" lon="9.386841150359372"><ele>65.66666666666667</ele><time>2026-04-26T14:21:00Z</time></trkpt><trkpt lat="41.080300116573646" lon="9.386822670910373"><ele>66.33333333333333</ele><time>2026-04-26T14:21:01Z</time></trkpt><trkpt lat="41.08015035103143" lon="9.386796220134796"><ele>67.0</ele><time>2026-04-26T14:21:02Z</time></trkpt><trkpt lat="41.08001253523989" lon="9.386796329987124"><ele>66.25</ele><time>2026-04-26T14:21:03Z</time></trkpt><trkpt lat="41.07987719053983" lon="9.38682876663727"><ele>65.5</ele><time>2026-04-26T14:21:04Z</time></trkpt><trkpt lat="41.07974140070839" lon="9.386891281933616"><ele>64.75</ele><time>2026-04-26T14:21:05Z</time></trkpt><trkpt lat="41.07961008173572" lon="9.386995254534417"><ele>64.0</ele><time>2026-04-26T14:21:06Z</time></trkpt><trkpt lat="41.079487458887705" lon="9.387123831626532"><ele>66.0</ele><time>2026-04-26T14:21:07Z</time></trkpt><trkpt lat="41.07937452506262" lon="9.38723670624383"><ele>68.0</ele><time>2026-04-26T14:21:08Z</time></trkpt><trkpt lat="41.079281746375685" lon="9.387326190533447"><ele>70.0</ele><time>2026-04-26T14:21:09Z</time></trkpt><trkpt lat="41.079218475318164" lon="9.387403280890169"><ele>72.0</ele><time>2026-04-26T14:21:10Z</time></trkpt><trkpt lat="41.079175577869535" lon="9.387466631172643"><ele>74.0</ele><time>2026-04-26T14:21:11Z</time></trkpt><trkpt lat="41.07912094255046" lon="9.387553901266347"><ele>73.8</ele><time>2026-04-26T14:21:13Z</time></trkpt><trkpt lat="41.07907660764619" lon="9.387652613473728"><ele>73.60000000000001</ele><time>2026-04-26T14:21:23Z</time></trkpt><trkpt lat="41.0790102038438" lon="9.3877768689389"><ele>73.4</ele><time>2026-04-26T14:21:25Z</time></trkpt><trkpt lat="41.078937629666406" lon="9.387878133946998"><ele>73.2</ele><time>2026-04-26T14:21:26Z</time></trkpt><trkpt lat="41.07887915499393" lon="9.388033853881629"><ele>73.0</ele><time>2026-04-26T14:21:27Z</time></trkpt><trkpt lat="41.07880214582005" lon="9.388156340321597"><ele>73.0</ele><time>2026-04-26T14:21:28Z</time></trkpt><trkpt lat="41.078722106765994" lon="9.388257366022483"><ele>73.0</ele><time>2026-04-26T14:21:29Z</time></trkpt><trkpt lat="41.07863679132756" lon="9.388335484247293"><ele>73.0</ele><time>2026-04-26T14:21:30Z</time></trkpt><trkpt lat="41.07855439693029" lon="9.388398900550168"><ele>73.0</ele><time>2026-04-26T14:21:31Z</time></trkpt><trkpt lat="41.07847295019414" lon="9.388461692895387"><ele>73.0</ele><time>2026-04-26T14:21:32Z</time></trkpt><trkpt lat="41.07840791162078" lon="9.388535225832877"><ele>73.0</ele><time>2026-04-26T14:21:33Z</time></trkpt><trkpt lat="41.07836914928683" lon="9.388632776023279"><ele>73.0</ele><time>2026-04-26T14:21:34Z</time></trkpt><trkpt lat="41.07836619353738" lon="9.388743528067286"><ele>73.0</ele><time>2026-04-26T14:21:35Z</time></trkpt><trkpt lat="41.078376036900295" lon="9.388872608101984"><ele>73.0</ele><time>2026-04-26T14:21:36Z</time></trkpt><trkpt lat="41.078395560698524" lon="9.389002142909218"><ele>73.0</ele><time>2026-04-26T14:21:37Z</time></trkpt><trkpt lat="41.07840841631541" lon="9.389137157232195"><ele>73.16666666666666</ele><time>2026-04-26T14:21:38Z</time></trkpt><trkpt lat="41.0784208449043" lon="9.389269309380927"><ele>73.33333333333333</ele><time>2026-04-26T14:21:39Z</time></trkpt><trkpt lat="41.07843164755764" lon="9.389384859822385"><ele>73.5</ele><time>2026-04-26T14:21:40Z</time></trkpt><trkpt lat="41.07843836965188" lon="9.389496981408252"><ele>73.66666666666667</ele><time>2026-04-26T14:21:41Z</time></trkpt><trkpt lat="41.078425894870605" lon="9.389599397374925"><ele>73.83333333333334</ele><time>2026-04-26T14:21:42Z</time></trkpt><trkpt lat="41.07838676791699" lon="9.389700592483095"><ele>74.0</ele><time>2026-04-26T14:21:43Z</time></trkpt><trkpt lat="41.07833982965664" lon="9.389790259849267"><ele>74.16666666666667</ele><time>2026-04-26T14:21:44Z</time></trkpt><trkpt lat="41.07827450985667" lon="9.389858330604424"><ele>74.33333333333334</ele><time>2026-04-26T14:21:45Z</time></trkpt><trkpt lat="41.07821353748575" lon="9.389937181772495"><ele>74.5</ele><time>2026-04-26T14:21:46Z</time></trkpt><trkpt lat="41.078152470362745" lon="9.390023643224847"><ele>74.66666666666667</ele><time>2026-04-26T14:21:47Z</time></trkpt><trkpt lat="41.07808916693084" lon="9.390102935148906"><ele>74.83333333333333</ele><time>2026-04-26T14:21:48Z</time></trkpt><trkpt lat="41.07802708565021" lon="9.390176979821563"><ele>75.0</ele><time>2026-04-26T14:21:49Z</time></trkpt><trkpt lat="41.07796740567555" lon="9.390259368103886"><ele>73.66666666666667</ele><time>2026-04-26T14:21:50Z</time></trkpt><trkpt lat="41.077909394849314" lon="9.39033517467428"><ele>72.33333333333333</ele><time>2026-04-26T14:21:51Z</time></trkpt><trkpt lat="41.07784953059632" lon="9.390403168406989"><ele>71.0</ele><time>2026-04-26T14:21:52Z</time></trkpt><trkpt lat="41.07779135849458" lon="9.390479351896575"><ele>69.66666666666666</ele><time>2026-04-26T14:21:53Z</time></trkpt><trkpt lat="41.077727891292135" lon="9.39056315737459"><ele>68.33333333333333</ele><time>2026-04-26T14:21:54Z</time></trkpt><trkpt lat="41.077667002579766" lon="9.390640387669928"><ele>67.0</ele><time>2026-04-26T14:21:55Z</time></trkpt><trkpt lat="41.077606664392185" lon="9.39071583932645"><ele>67.0</ele><time>2026-04-26T14:21:56Z</time></trkpt><trkpt lat="41.07754944050267" lon="9.390789648811182"><ele>67.0</ele><time>2026-04-26T14:21:57Z</time></trkpt><trkpt lat="41.077491822116734" lon="9.390856867381448"><ele>67.0</ele><time>2026-04-26T14:21:58Z</time></trkpt><trkpt lat="41.07743952494042" lon="9.390921095508332"><ele>67.0</ele><time>2026-04-26T14:21:59Z</time></trkpt><trkpt lat="41.07739246353662" lon="9.390981310055924"><ele>67.0</ele><time>2026-04-26T14:22:00Z</time></trkpt><trkpt lat="41.07730760369526" lon="9.391088694125251"><ele>67.0</ele><time>2026-04-26T14:22:02Z</time></trkpt><trkpt lat="41.07725721235488" lon="9.391157206360136"><ele>65.6</ele><time>2026-04-26T14:22:03Z</time></trkpt><trkpt lat="41.07720023215328" lon="9.391239575353794"><ele>64.2</ele><time>2026-04-26T14:22:03.999Z</time></trkpt><trkpt lat="41.077136819607425" lon="9.391329564551148"><ele>62.8</ele><time>2026-04-26T14:22:04.999Z</time></trkpt><trkpt lat="41.077067366280325" lon="9.391421598350146"><ele>61.4</ele><time>2026-04-26T14:22:05.999Z</time></trkpt><trkpt lat="41.07699957801001" lon="9.3915039385891"><ele>60.0</ele><time>2026-04-26T14:22:06.999Z</time></trkpt><trkpt lat="41.076936106174465" lon="9.391586384074524"><ele>60.0</ele><time>2026-04-26T14:22:07.999Z</time></trkpt><trkpt lat="41.07687283913809" lon="9.391666207954678"><ele>60.0</ele><time>2026-04-26T14:22:08.999Z</time></trkpt><trkpt lat="41.07681706873533" lon="9.391735836226108"><ele>60.0</ele><time>2026-04-26T14:22:09.999Z</time></trkpt><trkpt lat="41.076722519350405" lon="9.391857662558126"><ele>60.0</ele><time>2026-04-26T14:22:11.999Z</time></trkpt><trkpt lat="41.076658114953744" lon="9.391939149444841"><ele>60.0</ele><time>2026-04-26T14:22:12.999Z</time></trkpt><trkpt lat="41.076585776826526" lon="9.392034887110158"><ele>59.0</ele><time>2026-04-26T14:22:13.999Z</time></trkpt><trkpt lat="41.07650399379014" lon="9.392142669308683"><ele>58.0</ele><time>2026-04-26T14:22:14.999Z</time></trkpt><trkpt lat="41.07641386007738" lon="9.392255809218314"><ele>57.0</ele><time>2026-04-26T14:22:15.999Z</time></trkpt><trkpt lat="41.076315561316" lon="9.392377934177123"><ele>56.0</ele><time>2026-04-26T14:22:16.999Z</time></trkpt><trkpt lat="41.07621376596836" lon="9.392504985441477"><ele>56.0</ele><time>2026-04-26T14:22:17.999Z</time></trkpt><trkpt lat="41.076105913731446" lon="9.392642971921456"><ele>56.0</ele><time>2026-04-26T14:22:18.999Z</time></trkpt><trkpt lat="41.07600111890929" lon="9.392774912222276"><ele>56.0</ele><time>2026-04-26T14:22:19.999Z</time></trkpt><trkpt lat="41.07590199822849" lon="9.392903040833362"><ele>56.0</ele><time>2026-04-26T14:22:20.999Z</time></trkpt><trkpt lat="41.07581089396015" lon="9.393019460548924"><ele>56.5</ele><time>2026-04-26T14:22:21.999Z</time></trkpt><trkpt lat="41.07572058740785" lon="9.39313960510962"><ele>57.0</ele><time>2026-04-26T14:22:22.999Z</time></trkpt><trkpt lat="41.075629293264086" lon="9.393253412715577"><ele>57.5</ele><time>2026-04-26T14:22:23.999Z</time></trkpt><trkpt lat="41.07553759137553" lon="9.393361979870255"><ele>58.0</ele><time>2026-04-26T14:22:24.999Z</time></trkpt><trkpt lat="41.075440858707296" lon="9.393465215806424"><ele>58.0</ele><time>2026-04-26T14:22:25.999Z</time></trkpt><trkpt lat="41.075337355752225" lon="9.393560269758416"><ele>58.0</ele><time>2026-04-26T14:22:26.999Z</time></trkpt><trkpt lat="41.07522597508037" lon="9.393653076616935"><ele>58.0</ele><time>2026-04-26T14:22:28Z</time></trkpt><trkpt lat="41.075111271203056" lon="9.393743179103303"><ele>58.0</ele><time>2026-04-26T14:22:29Z</time></trkpt><trkpt lat="41.07499764733472" lon="9.393831872168587"><ele>57.2</ele><time>2026-04-26T14:22:30Z</time></trkpt><trkpt lat="41.07489434394582" lon="9.393912405039103"><ele>56.4</ele><time>2026-04-26T14:22:31Z</time></trkpt><trkpt lat="41.07480107197363" lon="9.39398681789737"><ele>55.60000000000001</ele><time>2026-04-26T14:22:32Z</time></trkpt><trkpt lat="41.07471004708127" lon="9.3940584717609"><ele>54.800000000000004</ele><time>2026-04-26T14:22:33Z</time></trkpt><trkpt lat="41.074621364252856" lon="9.394121321455351"><ele>54.0</ele><time>2026-04-26T14:22:34Z</time></trkpt><trkpt lat="41.074539558267624" lon="9.3941849543494"><ele>54.0</ele><time>2026-04-26T14:22:35Z</time></trkpt><trkpt lat="41.07445280519281" lon="9.394259615011354"><ele>54.00000000000001</ele><time>2026-04-26T14:22:36Z</time></trkpt><trkpt lat="41.07435448319913" lon="9.394343643335665"><ele>54.00000000000001</ele><time>2026-04-26T14:22:37Z</time></trkpt><trkpt lat="41.074256595001856" lon="9.394423612250327"><ele>54.0</ele><time>2026-04-26T14:22:38Z</time></trkpt><trkpt lat="41.07416421270041" lon="9.394502793076118"><ele>54.0</ele><time>2026-04-26T14:22:39Z</time></trkpt><trkpt lat="41.074077156423115" lon="9.394575131217032"><ele>53.400000000000006</ele><time>2026-04-26T14:22:40Z</time></trkpt><trkpt lat="41.07398866315817" lon="9.39464305576972"><ele>52.800000000000004</ele><time>2026-04-26T14:22:41Z</time></trkpt><trkpt lat="41.07390628857472" lon="9.3947034209166"><ele>52.2</ele><time>2026-04-26T14:22:42Z</time></trkpt><trkpt lat="41.07382626569978" lon="9.394762991606752"><ele>51.599999999999994</ele><time>2026-04-26T14:22:43Z</time></trkpt><trkpt lat="41.07374385474491" lon="9.394825934739872"><ele>51.0</ele><time>2026-04-26T14:22:44Z</time></trkpt><trkpt lat="41.07365051995368" lon="9.394899261583399"><ele>51.0</ele><time>2026-04-26T14:22:45Z</time></trkpt><trkpt lat="41.073560189834076" lon="9.39498607452531"><ele>51.0</ele><time>2026-04-26T14:22:46Z</time></trkpt><trkpt lat="41.073496707589726" lon="9.39511183473604"><ele>51.0</ele><time>2026-04-26T14:22:47Z</time></trkpt><trkpt lat="41.073453404223535" lon="9.395253383515206"><ele>51.0</ele><time>2026-04-26T14:22:48Z</time></trkpt><trkpt lat="41.07343632995138" lon="9.395407132542298"><ele>50.25</ele><time>2026-04-26T14:22:49Z</time></trkpt><trkpt lat="41.073451004866236" lon="9.395580803448393"><ele>49.5</ele><time>2026-04-26T14:22:50Z</time></trkpt><trkpt lat="41.0734919238789" lon="9.395784500762222"><ele>48.75</ele><time>2026-04-26T14:22:51Z</time></trkpt><trkpt lat="41.07353984656934" lon="9.395963643243528"><ele>48.0</ele><time>2026-04-26T14:22:52Z</time></trkpt><trkpt lat="41.073575830515196" lon="9.396145994042522"><ele>48.0</ele><time>2026-04-26T14:22:53Z</time></trkpt><trkpt lat="41.07360580464644" lon="9.396322383343039"><ele>48.0</ele><time>2026-04-26T14:22:54Z</time></trkpt><trkpt lat="41.07363473285876" lon="9.396492837774574"><ele>48.0</ele><time>2026-04-26T14:22:55Z</time></trkpt><trkpt lat="41.073659460155575" lon="9.396649484553244"><ele>48.0</ele><time>2026-04-26T14:22:56Z</time></trkpt><trkpt lat="41.07367472855607" lon="9.396804549028577"><ele>47.5</ele><time>2026-04-26T14:22:57Z</time></trkpt><trkpt lat="41.07367220152516" lon="9.396957183297939"><ele>47.0</ele><time>2026-04-26T14:22:58Z</time></trkpt><trkpt lat="41.07365350961869" lon="9.397111615058284"><ele>46.5</ele><time>2026-04-26T14:22:59Z</time></trkpt><trkpt lat="41.07362086251818" lon="9.397265578219173"><ele>46.0</ele><time>2026-04-26T14:23:00Z</time></trkpt><trkpt lat="41.07357036714441" lon="9.397408349214864"><ele>45.4</ele><time>2026-04-26T14:23:01Z</time></trkpt><trkpt lat="41.07351933794479" lon="9.397531240146758"><ele>44.8</ele><time>2026-04-26T14:23:02Z</time></trkpt><trkpt lat="41.073467258943175" lon="9.397649731690285"><ele>44.199999999999996</ele><time>2026-04-26T14:23:03Z</time></trkpt><trkpt lat="41.07341722532418" lon="9.397765337338853"><ele>43.599999999999994</ele><time>2026-04-26T14:23:04Z</time></trkpt><trkpt lat="41.07336752702071" lon="9.397879360017734"><ele>43.0</ele><time>2026-04-26T14:23:05Z</time></trkpt><trkpt lat="41.0733165791592" lon="9.397997388351104"><ele>41.5</ele><time>2026-04-26T14:23:06Z</time></trkpt><trkpt lat="41.073263621512936" lon="9.398118975077663"><ele>40.0</ele><time>2026-04-26T14:23:07Z</time></trkpt><trkpt lat="41.07320331651923" lon="9.398244159793657"><ele>38.5</ele><time>2026-04-26T14:23:08Z</time></trkpt><trkpt lat="41.07313273540647" lon="9.398370292266266"><ele>37.0</ele><time>2026-04-26T14:23:09Z</time></trkpt><trkpt lat="41.073052608462966" lon="9.3984966031756"><ele>37.0</ele><time>2026-04-26T14:23:10Z</time></trkpt><trkpt lat="41.07296157810295" lon="9.398623688538542"><ele>37.0</ele><time>2026-04-26T14:23:11Z</time></trkpt><trkpt lat="41.07286091269117" lon="9.398752115331265"><ele>37.0</ele><time>2026-04-26T14:23:12Z</time></trkpt><trkpt lat="41.07275593055496" lon="9.398885678436402"><ele>37.0</ele><time>2026-04-26T14:23:13Z</time></trkpt><trkpt lat="41.07265284208608" lon="9.399019560300319"><ele>37.0</ele><time>2026-04-26T14:23:14Z</time></trkpt><trkpt lat="41.072552603992" lon="9.399148078825515"><ele>37.0</ele><time>2026-04-26T14:23:15Z</time></trkpt><trkpt lat="41.07245879128846" lon="9.39928072554906"><ele>37.0</ele><time>2026-04-26T14:23:16Z</time></trkpt><trkpt lat="41.07236175847014" lon="9.399398548567797"><ele>37.0</ele><time>2026-04-26T14:23:17Z</time></trkpt><trkpt lat="41.07226907480486" lon="9.399512543404924"><ele>36.25</ele><time>2026-04-26T14:23:18Z</time></trkpt><trkpt lat="41.07218077777442" lon="9.399622565139001"><ele>35.5</ele><time>2026-04-26T14:23:19Z</time></trkpt><trkpt lat="41.07209561368339" lon="9.399726387990546"><ele>34.75</ele><time>2026-04-26T14:23:20Z</time></trkpt><trkpt lat="41.07201598705333" lon="9.39982541568562"><ele>34.0</ele><time>2026-04-26T14:23:21Z</time></trkpt><trkpt lat="41.071941337782846" lon="9.399921139518119"><ele>34.0</ele><time>2026-04-26T14:23:22Z</time></trkpt><trkpt lat="41.071867920443026" lon="9.40001327298334"><ele>34.0</ele><time>2026-04-26T14:23:23Z</time></trkpt><trkpt lat="41.07178996525058" lon="9.400103792834571"><ele>34.0</ele><time>2026-04-26T14:23:24Z</time></trkpt><trkpt lat="41.07170608937012" lon="9.400191382543724"><ele>34.0</ele><time>2026-04-26T14:23:25Z</time></trkpt><trkpt lat="41.071610041938044" lon="9.40027552052222"><ele>34.0</ele><time>2026-04-26T14:23:26Z</time></trkpt><trkpt lat="41.07150923258381" lon="9.400345787449904"><ele>33.5</ele><time>2026-04-26T14:23:27Z</time></trkpt><trkpt lat="41.07140191428364" lon="9.400413635622613"><ele>33.0</ele><time>2026-04-26T14:23:28Z</time></trkpt><trkpt lat="41.071287797773195" lon="9.40048146174922"><ele>32.5</ele><time>2026-04-26T14:23:29Z</time></trkpt><trkpt lat="41.071169014552964" lon="9.400550918347426"><ele>32.0</ele><time>2026-04-26T14:23:30Z</time></trkpt><trkpt lat="41.07105543899435" lon="9.400617308219612"><ele>32.0</ele><time>2026-04-26T14:23:31Z</time></trkpt><trkpt lat="41.070942962970705" lon="9.400683824265945"><ele>32.0</ele><time>2026-04-26T14:23:32Z</time></trkpt><trkpt lat="41.07083515457921" lon="9.40074810541632"><ele>32.0</ele><time>2026-04-26T14:23:33Z</time></trkpt><trkpt lat="41.07073021162927" lon="9.400808308663667"><ele>32.0</ele><time>2026-04-26T14:23:34Z</time></trkpt><trkpt lat="41.070625914313965" lon="9.40086447081143"><ele>30.5</ele><time>2026-04-26T14:23:35Z</time></trkpt><trkpt lat="41.070523335039674" lon="9.400918459212667"><ele>29.0</ele><time>2026-04-26T14:23:36Z</time></trkpt><trkpt lat="41.070422288841385" lon="9.400981736609413"><ele>27.5</ele><time>2026-04-26T14:23:37Z</time></trkpt><trkpt lat="41.070332449368955" lon="9.401073629924861"><ele>26.0</ele><time>2026-04-26T14:23:38Z</time></trkpt><trkpt lat="41.0702548191716" lon="9.401198565505913"><ele>25.75</ele><time>2026-04-26T14:23:39Z</time></trkpt><trkpt lat="41.07018900204028" lon="9.401348639779483"><ele>25.5</ele><time>2026-04-26T14:23:40Z</time></trkpt><trkpt lat="41.07013552559846" lon="9.401513284643306"><ele>25.25</ele><time>2026-04-26T14:23:41Z</time></trkpt><trkpt lat="41.07008721985638" lon="9.401683701999477"><ele>25.0</ele><time>2026-04-26T14:23:42Z</time></trkpt><trkpt lat="41.070037432284025" lon="9.401848290289394"><ele>25.0</ele><time>2026-04-26T14:23:43Z</time></trkpt><trkpt lat="41.06997985332079" lon="9.40201373872598"><ele>25.0</ele><time>2026-04-26T14:23:44Z</time></trkpt><trkpt lat="41.06992061434599" lon="9.402183085156373"><ele>25.0</ele><time>2026-04-26T14:23:45Z</time></trkpt><trkpt lat="41.069858949577224" lon="9.402360229878434"><ele>25.0</ele><time>2026-04-26T14:23:46Z</time></trkpt><trkpt lat="41.069795645578644" lon="9.40254437590755"><ele>23.333333333333336</ele><time>2026-04-26T14:23:47Z</time></trkpt><trkpt lat="41.06973118238143" lon="9.402734552035142"><ele>21.666666666666668</ele><time>2026-04-26T14:23:48Z</time></trkpt><trkpt lat="41.06966576637711" lon="9.402927233078834"><ele>20.0</ele><time>2026-04-26T14:23:49Z</time></trkpt><trkpt lat="41.06959964520861" lon="9.403120369017714"><ele>20.0</ele><time>2026-04-26T14:23:50Z</time></trkpt><trkpt lat="41.069531170014606" lon="9.403314632353084"><ele>20.0</ele><time>2026-04-26T14:23:51Z</time></trkpt><trkpt lat="41.06946149290119" lon="9.403507448708504"><ele>20.0</ele><time>2026-04-26T14:23:52Z</time></trkpt><trkpt lat="41.06939646176982" lon="9.403692383583294"><ele>19.333333333333336</ele><time>2026-04-26T14:23:53Z</time></trkpt><trkpt lat="41.06933144289472" lon="9.403872622726201"><ele>18.666666666666668</ele><time>2026-04-26T14:23:54Z</time></trkpt><trkpt lat="41.06926889351491" lon="9.404062826512599"><ele>18.0</ele><time>2026-04-26T14:23:55Z</time></trkpt><trkpt lat="41.069211361325024" lon="9.404256390496661"><ele>18.0</ele><time>2026-04-26T14:23:55.999Z</time></trkpt><trkpt lat="41.0691626617763" lon="9.404458846700184"><ele>18.0</ele><time>2026-04-26T14:23:56.999Z</time></trkpt><trkpt lat="41.06912705220836" lon="9.404664765019103"><ele>18.0</ele><time>2026-04-26T14:23:57.999Z</time></trkpt><trkpt lat="41.06910105250664" lon="9.404867909640453"><ele>18.0</ele><time>2026-04-26T14:23:58.999Z</time></trkpt><trkpt lat="41.069078025151484" lon="9.405061430067125"><ele>18.0</ele><time>2026-04-26T14:23:59.999Z</time></trkpt><trkpt lat="41.06905832422608" lon="9.405251706355102"><ele>18.0</ele><time>2026-04-26T14:24:00.999Z</time></trkpt><trkpt lat="41.069041431937976" lon="9.405446223511907"><ele>18.0</ele><time>2026-04-26T14:24:01.999Z</time></trkpt><trkpt lat="41.06902484635338" lon="9.405643466804802"><ele>18.333333333333332</ele><time>2026-04-26T14:24:02.999Z</time></trkpt><trkpt lat="41.069006697790826" lon="9.405845088181447"><ele>18.666666666666664</ele><time>2026-04-26T14:24:03.999Z</time></trkpt><trkpt lat="41.068986961920295" lon="9.406049784379034"><ele>19.0</ele><time>2026-04-26T14:24:04.999Z</time></trkpt><trkpt lat="41.06896422204918" lon="9.40626186757648"><ele>19.666666666666664</ele><time>2026-04-26T14:24:05.999Z</time></trkpt><trkpt lat="41.06893892099716" lon="9.40647571892609"><ele>20.333333333333332</ele><time>2026-04-26T14:24:06.999Z</time></trkpt><trkpt lat="41.06891689756462" lon="9.40667910486547"><ele>21.0</ele><time>2026-04-26T14:24:07.999Z</time></trkpt><trkpt lat="41.068903258327396" lon="9.406881951821251"><ele>21.0</ele><time>2026-04-26T14:24:08.999Z</time></trkpt><trkpt lat="41.06888770586891" lon="9.407091073047702"><ele>21.0</ele><time>2026-04-26T14:24:09.999Z</time></trkpt><trkpt lat="41.068870307240765" lon="9.407307483880174"><ele>21.0</ele><time>2026-04-26T14:24:10.999Z</time></trkpt><trkpt lat="41.068848699236405" lon="9.407535873008843"><ele>21.0</ele><time>2026-04-26T14:24:11.999Z</time></trkpt><trkpt lat="41.068826017791615" lon="9.407784288269786"><ele>21.0</ele><time>2026-04-26T14:24:12.999Z</time></trkpt><trkpt lat="41.06880642775864" lon="9.40803713976823"><ele>21.0</ele><time>2026-04-26T14:24:13.999Z</time></trkpt><trkpt lat="41.0687890960794" lon="9.408270743206026"><ele>20.333333333333332</ele><time>2026-04-26T14:24:14.999Z</time></trkpt><trkpt lat="41.06876744687606" lon="9.408488499309716"><ele>19.666666666666664</ele><time>2026-04-26T14:24:15.999Z</time></trkpt><trkpt lat="41.06874620626002" lon="9.408707498251932"><ele>19.0</ele><time>2026-04-26T14:24:16.999Z</time></trkpt><trkpt lat="41.06872763602748" lon="9.408929886972551"><ele>19.0</ele><time>2026-04-26T14:24:17.999Z</time></trkpt><trkpt lat="41.0687079052231" lon="9.40915129124862"><ele>19.0</ele><time>2026-04-26T14:24:18.999Z</time></trkpt><trkpt lat="41.06868641939826" lon="9.409355426414594"><ele>19.0</ele><time>2026-04-26T14:24:19.999Z</time></trkpt><trkpt lat="41.06866526175172" lon="9.409550366018832"><ele>19.5</ele><time>2026-04-26T14:24:20.999Z</time></trkpt><trkpt lat="41.06864441405021" lon="9.409732596129961"><ele>20.0</ele><time>2026-04-26T14:24:21.999Z</time></trkpt><trkpt lat="41.068628157722735" lon="9.409910880368919"><ele>20.5</ele><time>2026-04-26T14:24:22.999Z</time></trkpt><trkpt lat="41.06861273627996" lon="9.410098256607496"><ele>21.0</ele><time>2026-04-26T14:24:23.999Z</time></trkpt><trkpt lat="41.06859784176225" lon="9.410291029664874"><ele>21.0</ele><time>2026-04-26T14:24:24.999Z</time></trkpt><trkpt lat="41.06858328036768" lon="9.410487584745155"><ele>21.0</ele><time>2026-04-26T14:24:25.999Z</time></trkpt><trkpt lat="41.068565776317456" lon="9.410689137666758"><ele>21.0</ele><time>2026-04-26T14:24:26.999Z</time></trkpt><trkpt lat="41.06854521737742" lon="9.410897328968176"><ele>21.0</ele><time>2026-04-26T14:24:27.999Z</time></trkpt><trkpt lat="41.068524359339726" lon="9.411106491705457"><ele>21.0</ele><time>2026-04-26T14:24:28.999Z</time></trkpt><trkpt lat="41.06850486306183" lon="9.411314466009463"><ele>21.0</ele><time>2026-04-26T14:24:29.999Z</time></trkpt><trkpt lat="41.06848957042802" lon="9.411522562008672"><ele>20.666666666666668</ele><time>2026-04-26T14:24:30.999Z</time></trkpt><trkpt lat="41.06848384462111" lon="9.411738966005675"><ele>20.333333333333336</ele><time>2026-04-26T14:24:31.999Z</time></trkpt><trkpt lat="41.068491158672416" lon="9.411965943794057"><ele>20.0</ele><time>2026-04-26T14:24:32.999Z</time></trkpt><trkpt lat="41.068505436968195" lon="9.412194867141125"><ele>19.0</ele><time>2026-04-26T14:24:34Z</time></trkpt><trkpt lat="41.0685214825673" lon="9.412422690401975"><ele>18.0</ele><time>2026-04-26T14:24:35Z</time></trkpt><trkpt lat="41.06853454884915" lon="9.412637072997427"><ele>17.0</ele><time>2026-04-26T14:24:36Z</time></trkpt><trkpt lat="41.068545682499575" lon="9.412853595301868"><ele>16.666666666666668</ele><time>2026-04-26T14:24:37Z</time></trkpt><trkpt lat="41.0685587716605" lon="9.413071589669789"><ele>16.333333333333332</ele><time>2026-04-26T14:24:38Z</time></trkpt><trkpt lat="41.068571631094706" lon="9.41329363923299"><ele>16.0</ele><time>2026-04-26T14:24:39Z</time></trkpt><trkpt lat="41.06858404144565" lon="9.41352053937384"><ele>16.0</ele><time>2026-04-26T14:24:40Z</time></trkpt><trkpt lat="41.06859997429149" lon="9.413756724485463"><ele>16.0</ele><time>2026-04-26T14:24:41Z</time></trkpt><trkpt lat="41.06862170271844" lon="9.414008448902846"><ele>16.0</ele><time>2026-04-26T14:24:42Z</time></trkpt><trkpt lat="41.068627225252314" lon="9.414289513615989"><ele>16.0</ele><time>2026-04-26T14:24:43Z</time></trkpt><trkpt lat="41.068646724097555" lon="9.414587353613083"><ele>16.0</ele><time>2026-04-26T14:24:44Z</time></trkpt><trkpt lat="41.06866717994094" lon="9.414899811258472"><ele>16.0</ele><time>2026-04-26T14:24:45Z</time></trkpt><trkpt lat="41.06868839960932" lon="9.41522393628033"><ele>16.0</ele><time>2026-04-26T14:24:46Z</time></trkpt><trkpt lat="41.0687213334042" lon="9.415557639539143"><ele>14.5</ele><time>2026-04-26T14:24:47Z</time></trkpt><trkpt lat="41.06873690471226" lon="9.415905934676443"><ele>13.0</ele><time>2026-04-26T14:24:48Z</time></trkpt><trkpt lat="41.06875925136738" lon="9.416267880730027"><ele>12.5</ele><time>2026-04-26T14:24:49Z</time></trkpt><trkpt lat="41.06878384960967" lon="9.416620714546287"><ele>12.0</ele><time>2026-04-26T14:24:50Z</time></trkpt><trkpt lat="41.06880445322477" lon="9.416966705533504"><ele>11.5</ele><time>2026-04-26T14:24:51Z</time></trkpt><trkpt lat="41.06882598416034" lon="9.417300064333778"><ele>11.0</ele><time>2026-04-26T14:24:52Z</time></trkpt><trkpt lat="41.0688474284328" lon="9.417609447578409"><ele>11.0</ele><time>2026-04-26T14:24:53Z</time></trkpt><trkpt lat="41.0688670212875" lon="9.417901513903509"><ele>11.0</ele><time>2026-04-26T14:24:54Z</time></trkpt><trkpt lat="41.068885451547864" lon="9.41817921520168"><ele>11.0</ele><time>2026-04-26T14:24:55Z</time></trkpt><trkpt lat="41.06890176125472" lon="9.418450729114905"><ele>10.666666666666666</ele><time>2026-04-26T14:24:56Z</time></trkpt><trkpt lat="41.06891569871896" lon="9.418726767543472"><ele>10.333333333333334</ele><time>2026-04-26T14:24:57Z</time></trkpt><trkpt lat="41.06891947673004" lon="9.419010961708365"><ele>10.0</ele><time>2026-04-26T14:24:58Z</time></trkpt><trkpt lat="41.06890101317459" lon="9.419315511718489"><ele>10.0</ele><time>2026-04-26T14:24:59Z</time></trkpt><trkpt lat="41.06886251902521" lon="9.419638231325406"><ele>10.0</ele><time>2026-04-26T14:25:00Z</time></trkpt><trkpt lat="41.0688204774391" lon="9.41996624517211"><ele>10.5</ele><time>2026-04-26T14:25:01Z</time></trkpt><trkpt lat="41.06878161807066" lon="9.420274301190442"><ele>11.0</ele><time>2026-04-26T14:25:02Z</time></trkpt><trkpt lat="41.06874474809985" lon="9.420561590204166"><ele>10.0</ele><time>2026-04-26T14:25:03Z</time></trkpt><trkpt lat="41.06871035726409" lon="9.420837952833374"><ele>9.0</ele><time>2026-04-26T14:25:04Z</time></trkpt><trkpt lat="41.06867771804401" lon="9.421104132838714"><ele>8.0</ele><time>2026-04-26T14:25:05Z</time></trkpt><trkpt lat="41.068646089242314" lon="9.421365055268208"><ele>7.666666666666666</ele><time>2026-04-26T14:25:06Z</time></trkpt><trkpt lat="41.0686144031201" lon="9.421630342019759"><ele>7.333333333333334</ele><time>2026-04-26T14:25:07Z</time></trkpt><trkpt lat="41.06858055647027" lon="9.421910667553819"><ele>7.0</ele><time>2026-04-26T14:25:08Z</time></trkpt><trkpt lat="41.068546515618806" lon="9.422199019412522"><ele>6.666666666666667</ele><time>2026-04-26T14:25:09Z</time></trkpt><trkpt lat="41.068517500597025" lon="9.42246396318927"><ele>6.333333333333334</ele><time>2026-04-26T14:25:10Z</time></trkpt><trkpt lat="41.068490055809264" lon="9.422710053984396"><ele>6.0</ele><time>2026-04-26T14:25:11Z</time></trkpt><trkpt lat="41.06846259541726" lon="9.422949017836224"><ele>6.333333333333334</ele><time>2026-04-26T14:25:12Z</time></trkpt><trkpt lat="41.068434551393565" lon="9.423194116457596"><ele>6.666666666666667</ele><time>2026-04-26T14:25:13Z</time></trkpt><trkpt lat="41.06840849571482" lon="9.423438384842234"><ele>7.0</ele><time>2026-04-26T14:25:14Z</time></trkpt><trkpt lat="41.068377550386415" lon="9.423685375899527"><ele>7.333333333333334</ele><time>2026-04-26T14:25:15Z</time></trkpt><trkpt lat="41.06834359269821" lon="9.423933670364463"><ele>7.666666666666666</ele><time>2026-04-26T14:25:16Z</time></trkpt><trkpt lat="41.06830961268102" lon="9.42417679274233"><ele>8.0</ele><time>2026-04-26T14:25:17Z</time></trkpt><trkpt lat="41.06828240759752" lon="9.424403214614623"><ele>8.333333333333332</ele><time>2026-04-26T14:25:18Z</time></trkpt><trkpt lat="41.06825798084375" lon="9.424617312975094"><ele>8.666666666666666</ele><time>2026-04-26T14:25:19Z</time></trkpt><trkpt lat="41.06823287876764" lon="9.424819114966837"><ele>9.0</ele><time>2026-04-26T14:25:20Z</time></trkpt><trkpt lat="41.068210003067875" lon="9.425011649586812"><ele>9.0</ele><time>2026-04-26T14:25:21Z</time></trkpt><trkpt lat="41.06820657984481" lon="9.425190796938583"><ele>9.0</ele><time>2026-04-26T14:25:22Z</time></trkpt><trkpt lat="41.0682100656441" lon="9.425365142404628"><ele>9.0</ele><time>2026-04-26T14:25:23Z</time></trkpt><trkpt lat="41.06820731110484" lon="9.425527663045264"><ele>9.0</ele><time>2026-04-26T14:25:24Z</time></trkpt><trkpt lat="41.06820886323769" lon="9.425667671014393"><ele>9.0</ele><time>2026-04-26T14:25:25Z</time></trkpt><trkpt lat="41.068459358604784" lon="9.425791658479204"><ele>9.0</ele><time>2026-04-26T14:25:26Z</time></trkpt><trkpt lat="41.068536718035816" lon="9.425913467173514"><ele>9.0</ele><time>2026-04-26T14:25:27Z</time></trkpt><trkpt lat="41.06860861075881" lon="9.42603228657972"><ele>9.0</ele><time>2026-04-26T14:25:28Z</time></trkpt><trkpt lat="41.06868013685737" lon="9.426147404650624"><ele>9.0</ele><time>2026-04-26T14:25:29Z</time></trkpt><trkpt lat="41.06874795070136" lon="9.426251448619578"><ele>9.0</ele><time>2026-04-26T14:25:30Z</time></trkpt><trkpt lat="41.06880702413494" lon="9.426348968178722"><ele>9.0</ele><time>2026-04-26T14:25:31Z</time></trkpt><trkpt lat="41.06883978494906" lon="9.426454873392311"><ele>9.0</ele><time>2026-04-26T14:25:32Z</time></trkpt><trkpt lat="41.06883729123342" lon="9.426568300233086"><ele>9.2</ele><time>2026-04-26T14:25:33Z</time></trkpt><trkpt lat="41.06880201757943" lon="9.42669514233435"><ele>9.4</ele><time>2026-04-26T14:25:34Z</time></trkpt><trkpt lat="41.06874125267553" lon="9.426825044676228"><ele>9.6</ele><time>2026-04-26T14:25:35Z</time></trkpt><trkpt lat="41.06868197631583" lon="9.426948576514908"><ele>9.8</ele><time>2026-04-26T14:25:36Z</time></trkpt><trkpt lat="41.06862885593292" lon="9.427073348851417"><ele>10.0</ele><time>2026-04-26T14:25:37Z</time></trkpt><trkpt lat="41.068573700961835" lon="9.427206278596287"><ele>10.0</ele><time>2026-04-26T14:25:38Z</time></trkpt><trkpt lat="41.06851481913183" lon="9.427343002243292"><ele>10.0</ele><time>2026-04-26T14:25:39Z</time></trkpt><trkpt lat="41.06845108177856" lon="9.427490606379926"><ele>10.0</ele><time>2026-04-26T14:25:40Z</time></trkpt><trkpt lat="41.068382454081956" lon="9.427649262598724"><ele>10.0</ele><time>2026-04-26T14:25:41Z</time></trkpt><trkpt lat="41.06830564322464" lon="9.427816012922289"><ele>10.0</ele><time>2026-04-26T14:25:42Z</time></trkpt><trkpt lat="41.06822096718736" lon="9.427995843616662"><ele>10.0</ele><time>2026-04-26T14:25:43Z</time></trkpt><trkpt lat="41.06813385889672" lon="9.42816551452847"><ele>10.0</ele><time>2026-04-26T14:25:44Z</time></trkpt><trkpt lat="41.068038471703716" lon="9.428330519250135"><ele>10.0</ele><time>2026-04-26T14:25:45Z</time></trkpt><trkpt lat="41.06792362765232" lon="9.428480645504488"><ele>10.0</ele><time>2026-04-26T14:25:46Z</time></trkpt><trkpt lat="41.067795163658246" lon="9.428618697993498"><ele>10.0</ele><time>2026-04-26T14:25:47Z</time></trkpt><trkpt lat="41.06766188657093" lon="9.42875899469976"><ele>10.0</ele><time>2026-04-26T14:25:48Z</time></trkpt><trkpt lat="41.06751378344007" lon="9.428921266925592"><ele>10.0</ele><time>2026-04-26T14:25:49Z</time></trkpt><trkpt lat="41.06734519112898" lon="9.429099232551934"><ele>10.0</ele><time>2026-04-26T14:25:50Z</time></trkpt><trkpt lat="41.06716111056114" lon="9.429275376419604"><ele>10.0</ele><time>2026-04-26T14:25:51Z</time></trkpt><trkpt lat="41.06696834733034" lon="9.42945512980809"><ele>10.0</ele><time>2026-04-26T14:25:52Z</time></trkpt><trkpt lat="41.06678840158661" lon="9.42962809138292"><ele>9.666666666666668</ele><time>2026-04-26T14:25:53Z</time></trkpt><trkpt lat="41.0666218994542" lon="9.429794350707896"><ele>9.333333333333334</ele><time>2026-04-26T14:25:54Z</time></trkpt><trkpt lat="41.06646399277042" lon="9.42995241094118"><ele>9.0</ele><time>2026-04-26T14:25:55Z</time></trkpt><trkpt lat="41.06631750232685" lon="9.43010302361969"><ele>9.0</ele><time>2026-04-26T14:25:56Z</time></trkpt><trkpt lat="41.06617926691037" lon="9.430244833276285"><ele>9.0</ele><time>2026-04-26T14:25:57Z</time></trkpt><trkpt lat="41.06606178605186" lon="9.430364009145055"><ele>9.0</ele><time>2026-04-26T14:25:58Z</time></trkpt><trkpt lat="41.06595799656073" lon="9.430452881534823"><ele>9.0</ele><time>2026-04-26T14:25:59Z</time></trkpt><trkpt lat="41.06584135968029" lon="9.430508728051556"><ele>9.5</ele><time>2026-04-26T14:26:00Z</time></trkpt><trkpt lat="41.065712129276015" lon="9.430528971970558"><ele>10.0</ele><time>2026-04-26T14:26:01Z</time></trkpt><trkpt lat="41.065576050018784" lon="9.430522181028591"><ele>10.5</ele><time>2026-04-26T14:26:01.999Z</time></trkpt><trkpt lat="41.06545492839929" lon="9.43052651845241"><ele>11.0</ele><time>2026-04-26T14:26:02.999Z</time></trkpt><trkpt lat="41.06535058872481" lon="9.430578621504303"><ele>11.0</ele><time>2026-04-26T14:26:03.999Z</time></trkpt><trkpt lat="41.06527187079503" lon="9.430672793862547"><ele>11.0</ele><time>2026-04-26T14:26:04.999Z</time></trkpt><trkpt lat="41.06522544439523" lon="9.430791606390608"><ele>11.0</ele><time>2026-04-26T14:26:05.999Z</time></trkpt><trkpt lat="41.06521865918522" lon="9.430915646686078"><ele>11.0</ele><time>2026-04-26T14:26:06.999Z</time></trkpt><trkpt lat="41.06524262198298" lon="9.431035949836089"><ele>11.0</ele><time>2026-04-26T14:26:07.999Z</time></trkpt><trkpt lat="41.06529830431845" lon="9.431149012941194"><ele>11.0</ele><time>2026-04-26T14:26:08.999Z</time></trkpt><trkpt lat="41.065382345244345" lon="9.431252266260914"><ele>11.0</ele><time>2026-04-26T14:26:09.999Z</time></trkpt><trkpt lat="41.06550545489923" lon="9.431359038450841"><ele>11.0</ele><time>2026-04-26T14:26:10.999Z</time></trkpt><trkpt lat="41.06563371818142" lon="9.431479580939724"><ele>11.0</ele><time>2026-04-26T14:26:11.999Z</time></trkpt><trkpt lat="41.06573409185886" lon="9.431638664499262"><ele>11.0</ele><time>2026-04-26T14:26:12.999Z</time></trkpt><trkpt lat="41.065815053038136" lon="9.431856800372264"><ele>11.0</ele><time>2026-04-26T14:26:13.999Z</time></trkpt><trkpt lat="41.06588814912847" lon="9.432108757543615"><ele>11.0</ele><time>2026-04-26T14:26:14.999Z</time></trkpt><trkpt lat="41.065955930093025" lon="9.43238219134405"><ele>11.0</ele><time>2026-04-26T14:26:15.999Z</time></trkpt><trkpt lat="41.06603696223263" lon="9.432665319539224"><ele>11.0</ele><time>2026-04-26T14:26:16.999Z</time></trkpt><trkpt lat="41.06612539866687" lon="9.432961344109067"><ele>10.5</ele><time>2026-04-26T14:26:17.999Z</time></trkpt><trkpt lat="41.06621754294365" lon="9.433267215371961"><ele>10.0</ele><time>2026-04-26T14:26:18.999Z</time></trkpt><trkpt lat="41.06631139905471" lon="9.433580098011001"><ele>10.5</ele><time>2026-04-26T14:26:19.999Z</time></trkpt><trkpt lat="41.066402012860365" lon="9.433872713175077"><ele>11.0</ele><time>2026-04-26T14:26:20.999Z</time></trkpt><trkpt lat="41.066484008943156" lon="9.43414401275162"><ele>11.0</ele><time>2026-04-26T14:26:21.999Z</time></trkpt><trkpt lat="41.06656257989003" lon="9.434411891827402"><ele>11.0</ele><time>2026-04-26T14:26:22.999Z</time></trkpt><trkpt lat="41.0666417398241" lon="9.434677108697196"><ele>11.0</ele><time>2026-04-26T14:26:23.999Z</time></trkpt><trkpt lat="41.066720237117714" lon="9.4349389567487"><ele>11.333333333333332</ele><time>2026-04-26T14:26:24.999Z</time></trkpt><trkpt lat="41.06679724072712" lon="9.435195603626022"><ele>11.666666666666666</ele><time>2026-04-26T14:26:25.999Z</time></trkpt><trkpt lat="41.066875102769565" lon="9.435449072647739"><ele>12.0</ele><time>2026-04-26T14:26:26.999Z</time></trkpt><trkpt lat="41.066950618379856" lon="9.43570216986061"><ele>12.0</ele><time>2026-04-26T14:26:27.999Z</time></trkpt><trkpt lat="41.06703000376349" lon="9.435965904538723"><ele>12.0</ele><time>2026-04-26T14:26:28.999Z</time></trkpt><trkpt lat="41.06711210659811" lon="9.43625452949217"><ele>12.0</ele><time>2026-04-26T14:26:29.999Z</time></trkpt><trkpt lat="41.067190151096746" lon="9.436552889445109"><ele>11.666666666666666</ele><time>2026-04-26T14:26:30.999Z</time></trkpt><trkpt lat="41.06725037219114" lon="9.43684007874596"><ele>11.333333333333332</ele><time>2026-04-26T14:26:31.999Z</time></trkpt><trkpt lat="41.06729738618429" lon="9.4371188741554"><ele>11.0</ele><time>2026-04-26T14:26:32.999Z</time></trkpt><trkpt lat="41.06734059987735" lon="9.43739288443876"><ele>12.333333333333332</ele><time>2026-04-26T14:26:33.999Z</time></trkpt><trkpt lat="41.067382567359395" lon="9.437667878309508"><ele>13.666666666666666</ele><time>2026-04-26T14:26:34.999Z</time></trkpt><trkpt lat="41.06742297011908" lon="9.437940993867656"><ele>15.0</ele><time>2026-04-26T14:26:35.999Z</time></trkpt><trkpt lat="41.06746339959872" lon="9.43821609485249"><ele>15.0</ele><time>2026-04-26T14:26:36.999Z</time></trkpt><trkpt lat="41.067498951420916" lon="9.438496299387767"><ele>15.0</ele><time>2026-04-26T14:26:37.999Z</time></trkpt><trkpt lat="41.06753241472305" lon="9.438786694704424"><ele>15.0</ele><time>2026-04-26T14:26:38.999Z</time></trkpt><trkpt lat="41.067558051010735" lon="9.439078570702351"><ele>15.333333333333332</ele><time>2026-04-26T14:26:40Z</time></trkpt><trkpt lat="41.06758000850071" lon="9.43936556207664"><ele>15.666666666666666</ele><time>2026-04-26T14:26:41Z</time></trkpt><trkpt lat="41.06760601562611" lon="9.439657465612521"><ele>16.0</ele><time>2026-04-26T14:26:42Z</time></trkpt><trkpt lat="41.067636039117865" lon="9.43995603907368"><ele>15.0</ele><time>2026-04-26T14:26:43Z</time></trkpt><trkpt lat="41.067671545018534" lon="9.44027199915974"><ele>14.0</ele><time>2026-04-26T14:26:44Z</time></trkpt><trkpt lat="41.06769989487679" lon="9.440585263420532"><ele>14.0</ele><time>2026-04-26T14:26:45Z</time></trkpt><trkpt lat="41.06772945836881" lon="9.44089527323515"><ele>14.0</ele><time>2026-04-26T14:26:46Z</time></trkpt><trkpt lat="41.06776049228673" lon="9.441196438473094"><ele>13.666666666666668</ele><time>2026-04-26T14:26:47Z</time></trkpt><trkpt lat="41.06778620621512" lon="9.441491204287658"><ele>13.333333333333332</ele><time>2026-04-26T14:26:48Z</time></trkpt><trkpt lat="41.06780841089032" lon="9.441775019362089"><ele>13.0</ele><time>2026-04-26T14:26:49Z</time></trkpt><trkpt lat="41.06783558246557" lon="9.442061715853546"><ele>11.666666666666666</ele><time>2026-04-26T14:26:50Z</time></trkpt><trkpt lat="41.06785828379289" lon="9.442347909837846"><ele>10.333333333333332</ele><time>2026-04-26T14:26:51Z</time></trkpt><trkpt lat="41.067884982791966" lon="9.442637219839538"><ele>9.0</ele><time>2026-04-26T14:26:52Z</time></trkpt><trkpt lat="41.0679133694149" lon="9.442930296100398"><ele>9.0</ele><time>2026-04-26T14:26:53Z</time></trkpt><trkpt lat="41.06794260015779" lon="9.44322834712034"><ele>9.0</ele><time>2026-04-26T14:26:54Z</time></trkpt><trkpt lat="41.06797300139471" lon="9.44353598192746"><ele>9.0</ele><time>2026-04-26T14:26:55Z</time></trkpt><trkpt lat="41.067999837759096" lon="9.443863184649357"><ele>9.0</ele><time>2026-04-26T14:26:56Z</time></trkpt><trkpt lat="41.06802981204214" lon="9.444196444359608"><ele>9.0</ele><time>2026-04-26T14:26:57Z</time></trkpt><trkpt lat="41.06806111033963" lon="9.444541355804876"><ele>9.0</ele><time>2026-04-26T14:26:58Z</time></trkpt><trkpt lat="41.06809119182172" lon="9.444873142018515"><ele>8.5</ele><time>2026-04-26T14:26:59Z</time></trkpt><trkpt lat="41.068123421346876" lon="9.445190239476693"><ele>8.0</ele><time>2026-04-26T14:27:00Z</time></trkpt><trkpt lat="41.06815043693194" lon="9.445499890960043"><ele>8.0</ele><time>2026-04-26T14:27:01Z</time></trkpt><trkpt lat="41.06817750826432" lon="9.445795414706673"><ele>8.0</ele><time>2026-04-26T14:27:02Z</time></trkpt><trkpt lat="41.0682040985091" lon="9.446085996807078"><ele>8.0</ele><time>2026-04-26T14:27:03Z</time></trkpt><trkpt lat="41.06823893752913" lon="9.44637051505231"><ele>9.666666666666666</ele><time>2026-04-26T14:27:04Z</time></trkpt><trkpt lat="41.068288072966595" lon="9.446647816248705"><ele>11.333333333333332</ele><time>2026-04-26T14:27:05Z</time></trkpt><trkpt lat="41.068352809952145" lon="9.44692355556921"><ele>13.0</ele><time>2026-04-26T14:27:06Z</time></trkpt><trkpt lat="41.0684307382785" lon="9.447195130459116"><ele>13.0</ele><time>2026-04-26T14:27:07Z</time></trkpt><trkpt lat="41.06851497496699" lon="9.447457858017561"><ele>13.0</ele><time>2026-04-26T14:27:08Z</time></trkpt><trkpt lat="41.068601624705565" lon="9.447719505580997"><ele>13.0</ele><time>2026-04-26T14:27:09Z</time></trkpt><trkpt lat="41.06868460366264" lon="9.447978159246052"><ele>12.0</ele><time>2026-04-26T14:27:10Z</time></trkpt><trkpt lat="41.06876564666953" lon="9.448241748689771"><ele>11.0</ele><time>2026-04-26T14:27:11Z</time></trkpt><trkpt lat="41.068848642595" lon="9.448507118397137"><ele>10.0</ele><time>2026-04-26T14:27:12Z</time></trkpt><trkpt lat="41.068934572173" lon="9.44877292559699"><ele>10.333333333333334</ele><time>2026-04-26T14:27:13Z</time></trkpt><trkpt lat="41.0690268051247" lon="9.44904376394473"><ele>10.666666666666666</ele><time>2026-04-26T14:27:14Z</time></trkpt><trkpt lat="41.069115389164274" lon="9.449314156604217"><ele>11.0</ele><time>2026-04-26T14:27:15Z</time></trkpt><trkpt lat="41.069199284605254" lon="9.449581743559948"><ele>10.0</ele><time>2026-04-26T14:27:16Z</time></trkpt><trkpt lat="41.069284181033794" lon="9.449849895540545"><ele>9.0</ele><time>2026-04-26T14:27:17Z</time></trkpt><trkpt lat="41.06936823719921" lon="9.450119901506707"><ele>8.0</ele><time>2026-04-26T14:27:18Z</time></trkpt><trkpt lat="41.06945178451656" lon="9.450383980877886"><ele>7.666666666666666</ele><time>2026-04-26T14:27:19Z</time></trkpt><trkpt lat="41.069528216206095" lon="9.450625582576887"><ele>7.333333333333334</ele><time>2026-04-26T14:27:20Z</time></trkpt><trkpt lat="41.06959388023283" lon="9.450842396690511"><ele>7.0</ele><time>2026-04-26T14:27:21Z</time></trkpt><trkpt lat="41.069650859639445" lon="9.45103398923937"><ele>7.0</ele><time>2026-04-26T14:27:22Z</time></trkpt><trkpt lat="41.069698905143504" lon="9.451200009506259"><ele>7.0</ele><time>2026-04-26T14:27:23Z</time></trkpt><trkpt lat="41.0697423181757" lon="9.45135275484354"><ele>7.0</ele><time>2026-04-26T14:27:24Z</time></trkpt><trkpt lat="41.06978404751807" lon="9.45154316812793"><ele>7.0</ele><time>2026-04-26T14:27:25Z</time></trkpt><trkpt lat="41.06982931698449" lon="9.451780309407185"><ele>6.333333333333334</ele><time>2026-04-26T14:27:26Z</time></trkpt><trkpt lat="41.06985941991987" lon="9.452046801879993"><ele>5.666666666666667</ele><time>2026-04-26T14:27:27Z</time></trkpt><trkpt lat="41.069881459996246" lon="9.452335748174228"><ele>5.0</ele><time>2026-04-26T14:27:28Z</time></trkpt><trkpt lat="41.069904209914235" lon="9.452632598908863"><ele>6.0</ele><time>2026-04-26T14:27:29Z</time></trkpt><trkpt lat="41.069927943742265" lon="9.452959579112981"><ele>7.0</ele><time>2026-04-26T14:27:30Z</time></trkpt><trkpt lat="41.06994931012282" lon="9.45328823820213"><ele>7.0</ele><time>2026-04-26T14:27:31Z</time></trkpt><trkpt lat="41.06997507946652" lon="9.453629620865954"><ele>7.0</ele><time>2026-04-26T14:27:32Z</time></trkpt><trkpt lat="41.06999826782589" lon="9.453980360053858"><ele>7.5</ele><time>2026-04-26T14:27:33Z</time></trkpt><trkpt lat="41.07001930933333" lon="9.454341794738474"><ele>8.0</ele><time>2026-04-26T14:27:34Z</time></trkpt><trkpt lat="41.07004590929248" lon="9.454709512559"><ele>8.0</ele><time>2026-04-26T14:27:35Z</time></trkpt><trkpt lat="41.070070368008366" lon="9.455082145622688"><ele>8.0</ele><time>2026-04-26T14:27:36Z</time></trkpt><trkpt lat="41.07009591749132" lon="9.45545789130774"><ele>7.5</ele><time>2026-04-26T14:27:37Z</time></trkpt><trkpt lat="41.070122827948325" lon="9.45583686691633"><ele>7.0</ele><time>2026-04-26T14:27:38Z</time></trkpt><trkpt lat="41.07015023553854" lon="9.456219701520928"><ele>7.0</ele><time>2026-04-26T14:27:39Z</time></trkpt><trkpt lat="41.070179807575" lon="9.456607873341014"><ele>7.0</ele><time>2026-04-26T14:27:40Z</time></trkpt><trkpt lat="41.070208558587964" lon="9.457000687447739"><ele>7.0</ele><time>2026-04-26T14:27:41Z</time></trkpt><trkpt lat="41.070239472538525" lon="9.457397651604067"><ele>7.0</ele><time>2026-04-26T14:27:42Z</time></trkpt><trkpt lat="41.07026706345724" lon="9.457781699646644"><ele>7.0</ele><time>2026-04-26T14:27:43Z</time></trkpt><trkpt lat="41.07029065782654" lon="9.458134340729497"><ele>7.0</ele><time>2026-04-26T14:27:44Z</time></trkpt><trkpt lat="41.07031373906283" lon="9.458459722560345"><ele>7.0</ele><time>2026-04-26T14:27:45Z</time></trkpt><trkpt lat="41.07033292604683" lon="9.458777132891136"><ele>7.0</ele><time>2026-04-26T14:27:46Z</time></trkpt><trkpt lat="41.07035366011311" lon="9.459075228103021"><ele>7.0</ele><time>2026-04-26T14:27:47Z</time></trkpt><trkpt lat="41.0703738555828" lon="9.459361138131904"><ele>7.0</ele><time>2026-04-26T14:27:48Z</time></trkpt><trkpt lat="41.0703959335265" lon="9.459628102904569"><ele>7.0</ele><time>2026-04-26T14:27:49Z</time></trkpt><trkpt lat="41.07042926584505" lon="9.459879656796149"><ele>7.0</ele><time>2026-04-26T14:27:50Z</time></trkpt><trkpt lat="41.07048268332081" lon="9.460103842031359"><ele>7.0</ele><time>2026-04-26T14:27:51Z</time></trkpt><trkpt lat="41.070561017298004" lon="9.460310195084618"><ele>7.0</ele><time>2026-04-26T14:27:52Z</time></trkpt><trkpt lat="41.07067189793663" lon="9.460515154052274"><ele>6.333333333333334</ele><time>2026-04-26T14:27:53Z</time></trkpt><trkpt lat="41.07081329874181" lon="9.460720071480992"><ele>5.666666666666667</ele><time>2026-04-26T14:27:54Z</time></trkpt><trkpt lat="41.070973491710305" lon="9.46092408832529"><ele>5.0</ele><time>2026-04-26T14:27:55Z</time></trkpt><trkpt lat="41.07113921886064" lon="9.461137291359089"><ele>5.0</ele><time>2026-04-26T14:27:56Z</time></trkpt><trkpt lat="41.071307977538545" lon="9.461368099588897"><ele>5.0</ele><time>2026-04-26T14:27:57Z</time></trkpt><trkpt lat="41.07146401077881" lon="9.461586643979997"><ele>5.0</ele><time>2026-04-26T14:27:58Z</time></trkpt><trkpt lat="41.071601121142095" lon="9.461790666333837"><ele>5.0</ele><time>2026-04-26T14:27:59Z</time></trkpt><trkpt lat="41.07171009220278" lon="9.462005000262435"><ele>5.0</ele><time>2026-04-26T14:28:00Z</time></trkpt><trkpt lat="41.071782882857164" lon="9.462234625810472"><ele>5.666666666666667</ele><time>2026-04-26T14:28:01Z</time></trkpt><trkpt lat="41.07181942392807" lon="9.462495960502254"><ele>6.333333333333334</ele><time>2026-04-26T14:28:01.999Z</time></trkpt><trkpt lat="41.07184081512988" lon="9.462785795207278"><ele>7.0</ele><time>2026-04-26T14:28:02.999Z</time></trkpt><trkpt lat="41.07186341556498" lon="9.463095099873183"><ele>7.5</ele><time>2026-04-26T14:28:03.999Z</time></trkpt><trkpt lat="41.071892460792895" lon="9.46341650340582"><ele>8.0</ele><time>2026-04-26T14:28:04.999Z</time></trkpt><trkpt lat="41.07192556959229" lon="9.463740724079914"><ele>7.333333333333333</ele><time>2026-04-26T14:28:05.999Z</time></trkpt><trkpt lat="41.07195639026444" lon="9.46403756105102"><ele>6.666666666666666</ele><time>2026-04-26T14:28:06.999Z</time></trkpt><trkpt lat="41.07198388496365" lon="9.464312068726462"><ele>6.0</ele><time>2026-04-26T14:28:07.999Z</time></trkpt><trkpt lat="41.07201154646764" lon="9.4645724011424"><ele>6.333333333333334</ele><time>2026-04-26T14:28:08.999Z</time></trkpt><trkpt lat="41.07205104583742" lon="9.464814958043954"><ele>6.666666666666667</ele><time>2026-04-26T14:28:09.999Z</time></trkpt><trkpt lat="41.072116933223555" lon="9.465041463016687"><ele>7.0</ele><time>2026-04-26T14:28:10.999Z</time></trkpt><trkpt lat="41.072215312695405" lon="9.465258532994012"><ele>7.666666666666667</ele><time>2026-04-26T14:28:11.999Z</time></trkpt><trkpt lat="41.07234691117134" lon="9.465464370436882"><ele>8.333333333333334</ele><time>2026-04-26T14:28:12.999Z</time></trkpt><trkpt lat="41.07250646926459" lon="9.46564129667179"><ele>9.0</ele><time>2026-04-26T14:28:13.999Z</time></trkpt><trkpt lat="41.07269652414346" lon="9.465788305249252"><ele>9.5</ele><time>2026-04-26T14:28:14.999Z</time></trkpt><trkpt lat="41.0729064415026" lon="9.465928175066855"><ele>10.0</ele><time>2026-04-26T14:28:15.999Z</time></trkpt><trkpt lat="41.073126649706445" lon="9.466073119474633"><ele>9.0</ele><time>2026-04-26T14:28:16.999Z</time></trkpt><trkpt lat="41.07334254595634" lon="9.466236416135585"><ele>8.0</ele><time>2026-04-26T14:28:17.999Z</time></trkpt><trkpt lat="41.07354960033294" lon="9.466399123329495"><ele>8.0</ele><time>2026-04-26T14:28:18.999Z</time></trkpt><trkpt lat="41.073743595059625" lon="9.46655071951781"><ele>8.0</ele><time>2026-04-26T14:28:19.999Z</time></trkpt><trkpt lat="41.07394348011284" lon="9.466700714810036"><ele>8.5</ele><time>2026-04-26T14:28:20.999Z</time></trkpt><trkpt lat="41.07415373220817" lon="9.466859889094557"><ele>9.0</ele><time>2026-04-26T14:28:21.999Z</time></trkpt><trkpt lat="41.074363001239526" lon="9.46701236497464"><ele>9.0</ele><time>2026-04-26T14:28:22.999Z</time></trkpt><trkpt lat="41.07455608864689" lon="9.467158780627798"><ele>9.0</ele><time>2026-04-26T14:28:23.999Z</time></trkpt><trkpt lat="41.07471830121521" lon="9.467307575445968"><ele>9.0</ele><time>2026-04-26T14:28:24.999Z</time></trkpt><trkpt lat="41.07485478166287" lon="9.467493096734339"><ele>8.5</ele><time>2026-04-26T14:28:25.999Z</time></trkpt><trkpt lat="41.07505259173414" lon="9.467955697490128"><ele>8.0</ele><time>2026-04-26T14:28:27.999Z</time></trkpt><trkpt lat="41.075129122821345" lon="9.468231258432882"><ele>8.0</ele><time>2026-04-26T14:28:28.999Z</time></trkpt><trkpt lat="41.075206804450346" lon="9.468520596968887"><ele>8.0</ele><time>2026-04-26T14:28:29.999Z</time></trkpt><trkpt lat="41.07529460606863" lon="9.468824269670339"><ele>9.0</ele><time>2026-04-26T14:28:30.999Z</time></trkpt><trkpt lat="41.07538434659557" lon="9.469133530093506"><ele>10.0</ele><time>2026-04-26T14:28:31.999Z</time></trkpt><trkpt lat="41.07547777362645" lon="9.46945054420161"><ele>10.0</ele><time>2026-04-26T14:28:32.999Z</time></trkpt><trkpt lat="41.07556268146807" lon="9.469760018121496"><ele>10.0</ele><time>2026-04-26T14:28:33.999Z</time></trkpt><trkpt lat="41.07563765146963" lon="9.470059723727008"><ele>10.0</ele><time>2026-04-26T14:28:34.999Z</time></trkpt><trkpt lat="41.07569953580024" lon="9.470374646686757"><ele>10.0</ele><time>2026-04-26T14:28:35.999Z</time></trkpt><trkpt lat="41.075746010078475" lon="9.470691500662008"><ele>10.666666666666668</ele><time>2026-04-26T14:28:36.999Z</time></trkpt><trkpt lat="41.07578194381575" lon="9.470979789899795"><ele>11.333333333333334</ele><time>2026-04-26T14:28:37.999Z</time></trkpt><trkpt lat="41.0758175561163" lon="9.471247783516942"><ele>12.0</ele><time>2026-04-26T14:28:38.999Z</time></trkpt><trkpt lat="41.07585902573354" lon="9.471500724465987"><ele>12.0</ele><time>2026-04-26T14:28:39.999Z</time></trkpt><trkpt lat="41.07590790275852" lon="9.471736845682035"><ele>12.0</ele><time>2026-04-26T14:28:40.999Z</time></trkpt><trkpt lat="41.07596600522384" lon="9.471963179502062"><ele>12.0</ele><time>2026-04-26T14:28:41.999Z</time></trkpt><trkpt lat="41.076045561596544" lon="9.472208532711223"><ele>12.0</ele><time>2026-04-26T14:28:42.999Z</time></trkpt><trkpt lat="41.07614319187853" lon="9.472472813252098"><ele>12.0</ele><time>2026-04-26T14:28:43.999Z</time></trkpt><trkpt lat="41.07625775392004" lon="9.472741507351785"><ele>12.5</ele><time>2026-04-26T14:28:44.999Z</time></trkpt><trkpt lat="41.0763760430513" lon="9.473020030645023"><ele>13.0</ele><time>2026-04-26T14:28:46Z</time></trkpt><trkpt lat="41.076491096384125" lon="9.473313317407618"><ele>13.5</ele><time>2026-04-26T14:28:47Z</time></trkpt><trkpt lat="41.07660922107348" lon="9.473614954918327"><ele>14.0</ele><time>2026-04-26T14:28:48Z</time></trkpt><trkpt lat="41.07673310144201" lon="9.473924660768606"><ele>14.0</ele><time>2026-04-26T14:28:49Z</time></trkpt><trkpt lat="41.076854861837646" lon="9.474235321589164"><ele>14.0</ele><time>2026-04-26T14:28:50Z</time></trkpt><trkpt lat="41.07697609847293" lon="9.474536524041511"><ele>14.0</ele><time>2026-04-26T14:28:51Z</time></trkpt><trkpt lat="41.07709769329493" lon="9.474833919771417"><ele>14.0</ele><time>2026-04-26T14:28:52Z</time></trkpt><trkpt lat="41.077222874579924" lon="9.475146533545258"><ele>14.0</ele><time>2026-04-26T14:28:53Z</time></trkpt><trkpt lat="41.07735251774482" lon="9.475463522545306"><ele>14.0</ele><time>2026-04-26T14:28:54Z</time></trkpt><trkpt lat="41.077483499869246" lon="9.475790103793884"><ele>14.0</ele><time>2026-04-26T14:28:55Z</time></trkpt><trkpt lat="41.077612659997044" lon="9.476125171962913"><ele>14.0</ele><time>2026-04-26T14:28:56Z</time></trkpt><trkpt lat="41.077740258089534" lon="9.476468501272157"><ele>14.0</ele><time>2026-04-26T14:28:57Z</time></trkpt><trkpt lat="41.077861947715505" lon="9.476817427649296"><ele>14.0</ele><time>2026-04-26T14:28:58Z</time></trkpt><trkpt lat="41.07798380984984" lon="9.47717156330853"><ele>14.0</ele><time>2026-04-26T14:28:59Z</time></trkpt><trkpt lat="41.07810810368056" lon="9.477529463393395"><ele>14.0</ele><time>2026-04-26T14:29:00Z</time></trkpt><trkpt lat="41.07823492244628" lon="9.477886540935524"><ele>16.0</ele><time>2026-04-26T14:29:01Z</time></trkpt><trkpt lat="41.07836169256825" lon="9.478247319754843"><ele>18.0</ele><time>2026-04-26T14:29:02Z</time></trkpt><trkpt lat="41.07848458796003" lon="9.478596390430834"><ele>19.0</ele><time>2026-04-26T14:29:03Z</time></trkpt><trkpt lat="41.07859392725456" lon="9.478917424477082"><ele>20.0</ele><time>2026-04-26T14:29:04Z</time></trkpt><trkpt lat="41.07870432378322" lon="9.479234059288187"><ele>20.0</ele><time>2026-04-26T14:29:05Z</time></trkpt><trkpt lat="41.078825023767" lon="9.479565607145492"><ele>20.0</ele><time>2026-04-26T14:29:06Z</time></trkpt><trkpt lat="41.07895612823887" lon="9.47990000027146"><ele>20.0</ele><time>2026-04-26T14:29:07Z</time></trkpt><trkpt lat="41.07910008141492" lon="9.480229285778288"><ele>20.0</ele><time>2026-04-26T14:29:08Z</time></trkpt><trkpt lat="41.079251348542186" lon="9.480557234809927"><ele>20.0</ele><time>2026-04-26T14:29:09Z</time></trkpt><trkpt lat="41.079407067318556" lon="9.480887636918359"><ele>20.0</ele><time>2026-04-26T14:29:10Z</time></trkpt><trkpt lat="41.079563245400884" lon="9.481223946267951"><ele>20.0</ele><time>2026-04-26T14:29:11Z</time></trkpt><trkpt lat="41.07972003513421" lon="9.481563232998115"><ele>20.0</ele><time>2026-04-26T14:29:12Z</time></trkpt><trkpt lat="41.07987319112619" lon="9.481898237058846"><ele>21.5</ele><time>2026-04-26T14:29:13Z</time></trkpt><trkpt lat="41.08001596862136" lon="9.482213625612603"><ele>23.0</ele><time>2026-04-26T14:29:14Z</time></trkpt><trkpt lat="41.080166742436575" lon="9.482531804395013"><ele>23.0</ele><time>2026-04-26T14:29:15Z</time></trkpt><trkpt lat="41.08032320917294" lon="9.482852219615495"><ele>23.0</ele><time>2026-04-26T14:29:16Z</time></trkpt><trkpt lat="41.08049152910853" lon="9.483170555115333"><ele>22.5</ele><time>2026-04-26T14:29:17Z</time></trkpt><trkpt lat="41.08067561757763" lon="9.483474687500614"><ele>22.0</ele><time>2026-04-26T14:29:18Z</time></trkpt><trkpt lat="41.080870528535094" lon="9.483768366586467"><ele>23.5</ele><time>2026-04-26T14:29:19Z</time></trkpt><trkpt lat="41.08106679461547" lon="9.484065501724038"><ele>25.0</ele><time>2026-04-26T14:29:20Z</time></trkpt><trkpt lat="41.081257901933185" lon="9.484359903184986"><ele>24.5</ele><time>2026-04-26T14:29:21Z</time></trkpt><trkpt lat="41.08143546753306" lon="9.484637534451274"><ele>24.0</ele><time>2026-04-26T14:29:22Z</time></trkpt><trkpt lat="41.081587299876865" lon="9.484902344767947"><ele>25.0</ele><time>2026-04-26T14:29:23Z</time></trkpt><trkpt lat="41.08172846344111" lon="9.48516851764344"><ele>26.0</ele><time>2026-04-26T14:29:24Z</time></trkpt><trkpt lat="41.081861659937054" lon="9.485466083720508"><ele>26.0</ele><time>2026-04-26T14:29:25Z</time></trkpt><trkpt lat="41.081992344902176" lon="9.48578203964424"><ele>26.0</ele><time>2026-04-26T14:29:26Z</time></trkpt><trkpt lat="41.08212703461059" lon="9.486102490852256"><ele>25.5</ele><time>2026-04-26T14:29:27Z</time></trkpt><trkpt lat="41.08226175002144" lon="9.48642936986847"><ele>25.0</ele><time>2026-04-26T14:29:28Z</time></trkpt><trkpt lat="41.0823960808371" lon="9.486761763495156"><ele>27.0</ele><time>2026-04-26T14:29:29Z</time></trkpt><trkpt lat="41.082535214939796" lon="9.48709751277203"><ele>29.0</ele><time>2026-04-26T14:29:30Z</time></trkpt><trkpt lat="41.08267662908133" lon="9.487427020905159"><ele>29.0</ele><time>2026-04-26T14:29:31Z</time></trkpt><trkpt lat="41.08281015881376" lon="9.487733043802221"><ele>29.0</ele><time>2026-04-26T14:29:32Z</time></trkpt><trkpt lat="41.082944933622784" lon="9.488029753161626"><ele>28.5</ele><time>2026-04-26T14:29:33Z</time></trkpt><trkpt lat="41.08308616619441" lon="9.48832918796699"><ele>28.0</ele><time>2026-04-26T14:29:34Z</time></trkpt><trkpt lat="41.083234215409675" lon="9.48863872864247"><ele>28.5</ele><time>2026-04-26T14:29:35Z</time></trkpt><trkpt lat="41.083388328594225" lon="9.488959657263575"><ele>29.0</ele><time>2026-04-26T14:29:36Z</time></trkpt><trkpt lat="41.08354057996977" lon="9.489276776535736"><ele>29.0</ele><time>2026-04-26T14:29:37Z</time></trkpt><trkpt lat="41.08369761310725" lon="9.489603728612336"><ele>29.0</ele><time>2026-04-26T14:29:38Z</time></trkpt><trkpt lat="41.08385262287389" lon="9.489921392617811"><ele>29.0</ele><time>2026-04-26T14:29:39Z</time></trkpt><trkpt lat="41.083994318696725" lon="9.490211994211727"><ele>29.0</ele><time>2026-04-26T14:29:40Z</time></trkpt><trkpt lat="41.0841268412352" lon="9.490475499789493"><ele>31.0</ele><time>2026-04-26T14:29:41Z</time></trkpt><trkpt lat="41.08425025346143" lon="9.490726643294915"><ele>33.0</ele><time>2026-04-26T14:29:42Z</time></trkpt><trkpt lat="41.084364273141716" lon="9.490965761288482"><ele>35.0</ele><time>2026-04-26T14:29:43Z</time></trkpt><trkpt lat="41.08447400717522" lon="9.491192644933195"><ele>35.0</ele><time>2026-04-26T14:29:44Z</time></trkpt><trkpt lat="41.08458951361652" lon="9.491399393628447"><ele>35.0</ele><time>2026-04-26T14:29:45Z</time></trkpt><trkpt lat="41.08472484973286" lon="9.491587026425488"><ele>35.0</ele><time>2026-04-26T14:29:46Z</time></trkpt><trkpt lat="41.084887428073394" lon="9.491739998362767"><ele>35.0</ele><time>2026-04-26T14:29:47Z</time></trkpt><trkpt lat="41.08508229870776" lon="9.491878963150407"><ele>35.0</ele><time>2026-04-26T14:29:48Z</time></trkpt><trkpt lat="41.085293722823245" lon="9.492010788105494"><ele>35.0</ele><time>2026-04-26T14:29:49Z</time></trkpt><trkpt lat="41.085508780647224" lon="9.492148625654355"><ele>35.0</ele><time>2026-04-26T14:29:50Z</time></trkpt><trkpt lat="41.085704481457284" lon="9.492285317859047"><ele>36.0</ele><time>2026-04-26T14:29:51Z</time></trkpt><trkpt lat="41.0858845158644" lon="9.492411356607555"><ele>37.0</ele><time>2026-04-26T14:29:52Z</time></trkpt><trkpt lat="41.086052482688565" lon="9.492526131637604"><ele>38.0</ele><time>2026-04-26T14:29:53Z</time></trkpt><trkpt lat="41.08620104925317" lon="9.492628444880294"><ele>38.0</ele><time>2026-04-26T14:29:54Z</time></trkpt><trkpt lat="41.08633066246685" lon="9.492714549855865"><ele>38.0</ele><time>2026-04-26T14:29:55Z</time></trkpt><trkpt lat="41.08643905871254" lon="9.492793353458058"><ele>38.0</ele><time>2026-04-26T14:29:56Z</time></trkpt><trkpt lat="41.08654298301433" lon="9.492873257817301"><ele>38.0</ele><time>2026-04-26T14:29:57Z</time></trkpt><trkpt lat="41.08664663118064" lon="9.492955064727282"><ele>38.0</ele><time>2026-04-26T14:29:58Z</time></trkpt><trkpt lat="41.086749874379436" lon="9.493045669151714"><ele>38.0</ele><time>2026-04-26T14:29:59Z</time></trkpt><trkpt lat="41.08684743107659" lon="9.4931419520144"><ele>38.0</ele><time>2026-04-26T14:30:00Z</time></trkpt><trkpt lat="41.08693704403447" lon="9.493253912336932"><ele>38.0</ele><time>2026-04-26T14:30:01Z</time></trkpt><trkpt lat="41.08702167810364" lon="9.493386280634223"><ele>38.0</ele><time>2026-04-26T14:30:02Z</time></trkpt><trkpt lat="41.087093225580915" lon="9.493543825782455"><ele>38.0</ele><time>2026-04-26T14:30:03Z</time></trkpt><trkpt lat="41.08715027079692" lon="9.493718232615969"><ele>38.0</ele><time>2026-04-26T14:30:04Z</time></trkpt><trkpt lat="41.08719403357543" lon="9.493906707503612"><ele>38.0</ele><time>2026-04-26T14:30:05Z</time></trkpt><trkpt lat="41.087225273986434" lon="9.494107696645957"><ele>38.5</ele><time>2026-04-26T14:30:06Z</time></trkpt><trkpt lat="41.08724484755159" lon="9.494300283456731"><ele>39.0</ele><time>2026-04-26T14:30:07Z</time></trkpt><trkpt lat="41.087255453209586" lon="9.494490207021933"><ele>39.5</ele><time>2026-04-26T14:30:08Z</time></trkpt><trkpt lat="41.08724965560466" lon="9.494666291386155"><ele>40.0</ele><time>2026-04-26T14:30:09Z</time></trkpt><trkpt lat="41.08723082743894" lon="9.494837739233649"><ele>40.0</ele><time>2026-04-26T14:30:10Z</time></trkpt><trkpt lat="41.0872048897937" lon="9.495012337341382"><ele>40.0</ele><time>2026-04-26T14:30:11Z</time></trkpt><trkpt lat="41.08718286150713" lon="9.495193591428032"><ele>40.0</ele><time>2026-04-26T14:30:12Z</time></trkpt><trkpt lat="41.087163053028966" lon="9.495371926199994"><ele>40.0</ele><time>2026-04-26T14:30:13Z</time></trkpt><trkpt lat="41.087145572586635" lon="9.495540962714559"><ele>40.25</ele><time>2026-04-26T14:30:14Z</time></trkpt><trkpt lat="41.08712635366505" lon="9.49571317258304"><ele>40.5</ele><time>2026-04-26T14:30:15Z</time></trkpt><trkpt lat="41.08710702359631" lon="9.495903567094382"><ele>40.75</ele><time>2026-04-26T14:30:16Z</time></trkpt><trkpt lat="41.08709205452353" lon="9.49609596777069"><ele>41.0</ele><time>2026-04-26T14:30:17Z</time></trkpt><trkpt lat="41.08708762386237" lon="9.496282715305274"><ele>41.25</ele><time>2026-04-26T14:30:18Z</time></trkpt><trkpt lat="41.087099608993306" lon="9.49646938106117"><ele>41.5</ele><time>2026-04-26T14:30:19Z</time></trkpt><trkpt lat="41.0871264092844" lon="9.496657365433405"><ele>41.75</ele><time>2026-04-26T14:30:20Z</time></trkpt><trkpt lat="41.08715996299706" lon="9.496841054315269"><ele>42.0</ele><time>2026-04-26T14:30:21Z</time></trkpt><trkpt lat="41.087191094134525" lon="9.497019963677378"><ele>42.75</ele><time>2026-04-26T14:30:22Z</time></trkpt><trkpt lat="41.08721545359815" lon="9.497194920104288"><ele>43.5</ele><time>2026-04-26T14:30:23Z</time></trkpt><trkpt lat="41.08723834955351" lon="9.497365231387587"><ele>44.25</ele><time>2026-04-26T14:30:24Z</time></trkpt><trkpt lat="41.08726444783024" lon="9.497532743360729"><ele>45.0</ele><time>2026-04-26T14:30:25Z</time></trkpt><trkpt lat="41.08729674005742" lon="9.497696671668463"><ele>45.0</ele><time>2026-04-26T14:30:26Z</time></trkpt><trkpt lat="41.087344476638336" lon="9.497854546053189"><ele>45.0</ele><time>2026-04-26T14:30:27Z</time></trkpt><trkpt lat="41.087410490892914" lon="9.498007235440543"><ele>45.0</ele><time>2026-04-26T14:30:28Z</time></trkpt><trkpt lat="41.087496281615714" lon="9.498144725466872"><ele>45.0</ele><time>2026-04-26T14:30:29Z</time></trkpt><trkpt lat="41.08759243630108" lon="9.498272762777658"><ele>45.0</ele><time>2026-04-26T14:30:30Z</time></trkpt><trkpt lat="41.08769819273947" lon="9.498386037780215"><ele>45.0</ele><time>2026-04-26T14:30:31Z</time></trkpt><trkpt lat="41.087807076957105" lon="9.49849939831988"><ele>45.0</ele><time>2026-04-26T14:30:32Z</time></trkpt><trkpt lat="41.087914371986564" lon="9.49861764754409"><ele>45.0</ele><time>2026-04-26T14:30:33Z</time></trkpt><trkpt lat="41.08803140331722" lon="9.498747465531157"><ele>46.33333333333333</ele><time>2026-04-26T14:30:34Z</time></trkpt><trkpt lat="41.08815377676233" lon="9.498884267820376"><ele>47.666666666666664</ele><time>2026-04-26T14:30:35Z</time></trkpt><trkpt lat="41.08827411787329" lon="9.499021583227053"><ele>49.0</ele><time>2026-04-26T14:30:36Z</time></trkpt><trkpt lat="41.0884054200061" lon="9.499167440798654"><ele>49.666666666666664</ele><time>2026-04-26T14:30:37Z</time></trkpt><trkpt lat="41.08856390867644" lon="9.499326790153043"><ele>50.33333333333333</ele><time>2026-04-26T14:30:38Z</time></trkpt><trkpt lat="41.0887172707943" lon="9.499518527558118"><ele>51.0</ele><time>2026-04-26T14:30:39Z</time></trkpt><trkpt lat="41.08888601523762" lon="9.499708076934812"><ele>51.5</ele><time>2026-04-26T14:30:40Z</time></trkpt><trkpt lat="41.089067761131936" lon="9.499898209189276"><ele>52.0</ele><time>2026-04-26T14:30:41Z</time></trkpt><trkpt lat="41.08924749344255" lon="9.500108864715878"><ele>53.5</ele><time>2026-04-26T14:30:42Z</time></trkpt><trkpt lat="41.089429298290646" lon="9.500320111566324"><ele>55.0</ele><time>2026-04-26T14:30:43Z</time></trkpt><trkpt lat="41.08959046302984" lon="9.500525009806866"><ele>55.0</ele><time>2026-04-26T14:30:44Z</time></trkpt><trkpt lat="41.08973106496066" lon="9.500753682803072"><ele>55.0</ele><time>2026-04-26T14:30:45Z</time></trkpt><trkpt lat="41.089855673382914" lon="9.50102548878576"><ele>54.5</ele><time>2026-04-26T14:30:46Z</time></trkpt><trkpt lat="41.08997380546144" lon="9.50132167149808"><ele>54.0</ele><time>2026-04-26T14:30:47Z</time></trkpt><trkpt lat="41.09009289070989" lon="9.501625656798236"><ele>54.0</ele><time>2026-04-26T14:30:48Z</time></trkpt><trkpt lat="41.09021983968288" lon="9.501935404225954"><ele>54.0</ele><time>2026-04-26T14:30:49Z</time></trkpt><trkpt lat="41.090351657350645" lon="9.502250296633719"><ele>54.5</ele><time>2026-04-26T14:30:50Z</time></trkpt><trkpt lat="41.090486253214905" lon="9.502567622889812"><ele>55.0</ele><time>2026-04-26T14:30:50.999Z</time></trkpt><trkpt lat="41.09062102278284" lon="9.502886793216067"><ele>56.5</ele><time>2026-04-26T14:30:52Z</time></trkpt><trkpt lat="41.090749244032" lon="9.503186723327621"><ele>58.0</ele><time>2026-04-26T14:30:53Z</time></trkpt><trkpt lat="41.090874155743855" lon="9.503471338356094"><ele>59.0</ele><time>2026-04-26T14:30:54Z</time></trkpt><trkpt lat="41.09101567165365" lon="9.503748257993129"><ele>60.0</ele><time>2026-04-26T14:30:55Z</time></trkpt><trkpt lat="41.09118280270405" lon="9.504017593342622"><ele>60.0</ele><time>2026-04-26T14:30:56Z</time></trkpt><trkpt lat="41.091363600669816" lon="9.504283002827638"><ele>60.0</ele><time>2026-04-26T14:30:57Z</time></trkpt><trkpt lat="41.09154303450848" lon="9.504554127976663"><ele>59.5</ele><time>2026-04-26T14:30:58Z</time></trkpt><trkpt lat="41.09172160295283" lon="9.504827826384485"><ele>59.0</ele><time>2026-04-26T14:30:59Z</time></trkpt><trkpt lat="41.09190301986259" lon="9.505104662559186"><ele>59.0</ele><time>2026-04-26T14:31:00Z</time></trkpt><trkpt lat="41.092083288191695" lon="9.505390527103627"><ele>59.0</ele><time>2026-04-26T14:31:01Z</time></trkpt><trkpt lat="41.09225393767271" lon="9.505691874402604"><ele>60.0</ele><time>2026-04-26T14:31:02Z</time></trkpt><trkpt lat="41.09241669388534" lon="9.50600024794591"><ele>61.0</ele><time>2026-04-26T14:31:03Z</time></trkpt><trkpt lat="41.09258257255928" lon="9.506313361914366"><ele>61.0</ele><time>2026-04-26T14:31:04Z</time></trkpt><trkpt lat="41.092749256788494" lon="9.506624045673462"><ele>61.0</ele><time>2026-04-26T14:31:05Z</time></trkpt><trkpt lat="41.0929200616957" lon="9.506938156376908"><ele>62.0</ele><time>2026-04-26T14:31:06Z</time></trkpt><trkpt lat="41.093090195219695" lon="9.507252875477128"><ele>63.0</ele><time>2026-04-26T14:31:07Z</time></trkpt><trkpt lat="41.09325990885445" lon="9.507570363260852"><ele>64.5</ele><time>2026-04-26T14:31:08Z</time></trkpt><trkpt lat="41.0934281376901" lon="9.507887712232638"><ele>66.0</ele><time>2026-04-26T14:31:09Z</time></trkpt><trkpt lat="41.09359674683236" lon="9.508208489477543"><ele>66.0</ele><time>2026-04-26T14:31:10Z</time></trkpt><trkpt lat="41.09376552333731" lon="9.508528215395435"><ele>66.0</ele><time>2026-04-26T14:31:11Z</time></trkpt><trkpt lat="41.09393691786531" lon="9.508849716361617"><ele>70.5</ele><time>2026-04-26T14:31:12Z</time></trkpt><trkpt lat="41.09411218514328" lon="9.50917265272497"><ele>75.0</ele><time>2026-04-26T14:31:13Z</time></trkpt><trkpt lat="41.094288921106134" lon="9.50949047084306"><ele>73.5</ele><time>2026-04-26T14:31:14Z</time></trkpt><trkpt lat="41.09446946135242" lon="9.509808003231374"><ele>72.0</ele><time>2026-04-26T14:31:15Z</time></trkpt><trkpt lat="41.09465361792352" lon="9.51012027055877"><ele>73.5</ele><time>2026-04-26T14:31:16Z</time></trkpt><trkpt lat="41.09483870136033" lon="9.510430408987137"><ele>75.0</ele><time>2026-04-26T14:31:17Z</time></trkpt><trkpt lat="41.09501734792395" lon="9.51073458806364"><ele>75.0</ele><time>2026-04-26T14:31:18Z</time></trkpt><trkpt lat="41.09518013848823" lon="9.511008321213724"><ele>75.0</ele><time>2026-04-26T14:31:19Z</time></trkpt><trkpt lat="41.095331101815205" lon="9.51126348559438"><ele>76.5</ele><time>2026-04-26T14:31:20Z</time></trkpt><trkpt lat="41.09547283939127" lon="9.511514273229716"><ele>78.0</ele><time>2026-04-26T14:31:21Z</time></trkpt><trkpt lat="41.09559605390841" lon="9.511778678225978"><ele>78.0</ele><time>2026-04-26T14:31:22Z</time></trkpt><trkpt lat="41.09570223883625" lon="9.512066602438322"><ele>78.0</ele><time>2026-04-26T14:31:23Z</time></trkpt><trkpt lat="41.09580968948868" lon="9.512372206754534"><ele>80.5</ele><time>2026-04-26T14:31:24Z</time></trkpt><trkpt lat="41.095917042824304" lon="9.512661582743474"><ele>83.0</ele><time>2026-04-26T14:31:25Z</time></trkpt><trkpt lat="41.09601380241923" lon="9.512925064573057"><ele>83.0</ele><time>2026-04-26T14:31:26Z</time></trkpt><trkpt lat="41.09609527247932" lon="9.513180091757107"><ele>83.0</ele><time>2026-04-26T14:31:27Z</time></trkpt><trkpt lat="41.096152180987936" lon="9.513449232968993"><ele>83.0</ele><time>2026-04-26T14:31:28Z</time></trkpt><trkpt lat="41.09618113027382" lon="9.513747624888447"><ele>83.0</ele><time>2026-04-26T14:31:29Z</time></trkpt><trkpt lat="41.09619081460492" lon="9.514066632537205"><ele>83.0</ele><time>2026-04-26T14:31:30Z</time></trkpt><trkpt lat="41.096195293151816" lon="9.514391505297096"><ele>86.5</ele><time>2026-04-26T14:31:31Z</time></trkpt><trkpt lat="41.09620498154387" lon="9.514697154415265"><ele>90.0</ele><time>2026-04-26T14:31:32Z</time></trkpt><trkpt lat="41.09623922694532" lon="9.514985159841254"><ele>90.0</ele><time>2026-04-26T14:31:33Z</time></trkpt><trkpt lat="41.09629940509915" lon="9.515281439231904"><ele>90.0</ele><time>2026-04-26T14:31:34Z</time></trkpt><trkpt lat="41.09639115068338" lon="9.515581733423666"><ele>90.0</ele><time>2026-04-26T14:31:35Z</time></trkpt><trkpt lat="41.09650463568061" lon="9.51588219384737"><ele>90.0</ele><time>2026-04-26T14:31:36Z</time></trkpt><trkpt lat="41.09662166835363" lon="9.516186522513175"><ele>92.0</ele><time>2026-04-26T14:31:37Z</time></trkpt><trkpt lat="41.09673167537814" lon="9.516497868014476"><ele>94.0</ele><time>2026-04-26T14:31:38Z</time></trkpt><trkpt lat="41.096841925131535" lon="9.51682029113232"><ele>96.0</ele><time>2026-04-26T14:31:39Z</time></trkpt><trkpt lat="41.0969518277476" lon="9.51713316107166"><ele>98.0</ele><time>2026-04-26T14:31:40Z</time></trkpt><trkpt lat="41.097056096234176" lon="9.517421037142196"><ele>98.0</ele><time>2026-04-26T14:31:41Z</time></trkpt><trkpt lat="41.09714998846248" lon="9.517683537866356"><ele>98.0</ele><time>2026-04-26T14:31:42Z</time></trkpt><trkpt lat="41.09724126556397" lon="9.517919716674458"><ele>98.0</ele><time>2026-04-26T14:31:43Z</time></trkpt><trkpt lat="41.097346695738736" lon="9.518135331163615"><ele>98.0</ele><time>2026-04-26T14:31:44Z</time></trkpt><trkpt lat="41.09748706261591" lon="9.518327040498729"><ele>98.0</ele><time>2026-04-26T14:31:45Z</time></trkpt><trkpt lat="41.097657426152416" lon="9.5185068243123"><ele>98.0</ele><time>2026-04-26T14:31:46Z</time></trkpt><trkpt lat="41.09784249615336" lon="9.51868382832297"><ele>99.66666666666666</ele><time>2026-04-26T14:31:47Z</time></trkpt><trkpt lat="41.09802682667488" lon="9.518856244343725"><ele>101.33333333333334</ele><time>2026-04-26T14:31:48Z</time></trkpt><trkpt lat="41.098190374423616" lon="9.51901335175425"><ele>103.0</ele><time>2026-04-26T14:31:49Z</time></trkpt><trkpt lat="41.098333521560996" lon="9.519166403476612"><ele>104.33333333333334</ele><time>2026-04-26T14:31:50Z</time></trkpt><trkpt lat="41.09846375923434" lon="9.519317001767746"><ele>105.66666666666666</ele><time>2026-04-26T14:31:51Z</time></trkpt><trkpt lat="41.09857741813851" lon="9.519470661353076"><ele>107.0</ele><time>2026-04-26T14:31:52Z</time></trkpt><trkpt lat="41.09868001305285" lon="9.519635733006302"><ele>107.0</ele><time>2026-04-26T14:31:53Z</time></trkpt><trkpt lat="41.098771392783846" lon="9.519810379140981"><ele>107.0</ele><time>2026-04-26T14:31:54Z</time></trkpt><trkpt lat="41.098861573546316" lon="9.519987707254128"><ele>107.0</ele><time>2026-04-26T14:31:55Z</time></trkpt><trkpt lat="41.098954537503985" lon="9.520164310586663"><ele>107.0</ele><time>2026-04-26T14:31:56Z</time></trkpt><trkpt lat="41.09904915172358" lon="9.520346483544246"><ele>107.0</ele><time>2026-04-26T14:31:57Z</time></trkpt><trkpt lat="41.0991503952385" lon="9.520542606076354"><ele>107.0</ele><time>2026-04-26T14:31:58Z</time></trkpt><trkpt lat="41.099256430393496" lon="9.520744236230064"><ele>106.66666666666666</ele><time>2026-04-26T14:31:59Z</time></trkpt><trkpt lat="41.099366276899204" lon="9.520943006060458"><ele>106.33333333333334</ele><time>2026-04-26T14:32:00Z</time></trkpt><trkpt lat="41.09947203236472" lon="9.521121146693797"><ele>106.0</ele><time>2026-04-26T14:32:01Z</time></trkpt><trkpt lat="41.09957329414367" lon="9.521283704845487"><ele>105.75</ele><time>2026-04-26T14:32:02Z</time></trkpt><trkpt lat="41.099671171670586" lon="9.521435628668115"><ele>105.5</ele><time>2026-04-26T14:32:03Z</time></trkpt><trkpt lat="41.099757745751276" lon="9.521570615899439"><ele>105.25</ele><time>2026-04-26T14:32:04Z</time></trkpt><trkpt lat="41.099827536682504" lon="9.521689686641281"><ele>105.0</ele><time>2026-04-26T14:32:05Z</time></trkpt><trkpt lat="41.099884957459224" lon="9.521817905260596"><ele>105.0</ele><time>2026-04-26T14:32:06Z</time></trkpt><trkpt lat="41.09991321397757" lon="9.521956000909446"><ele>105.0</ele><time>2026-04-26T14:32:07Z</time></trkpt><trkpt lat="41.09990609245789" lon="9.522088770893847"><ele>105.0</ele><time>2026-04-26T14:32:08Z</time></trkpt><trkpt lat="41.09987648319259" lon="9.522218499528801"><ele>105.0</ele><time>2026-04-26T14:32:09Z</time></trkpt><trkpt lat="41.09982601195357" lon="9.522334590759872"><ele>105.0</ele><time>2026-04-26T14:32:10Z</time></trkpt><trkpt lat="41.09975583471683" lon="9.52243746072706"><ele>105.4</ele><time>2026-04-26T14:32:11Z</time></trkpt><trkpt lat="41.09967517128801" lon="9.522527168478568"><ele>105.8</ele><time>2026-04-26T14:32:12Z</time></trkpt><trkpt lat="41.099598137725884" lon="9.52261347177133"><ele>106.19999999999999</ele><time>2026-04-26T14:32:13Z</time></trkpt><trkpt lat="41.09952835699571" lon="9.522698088306278"><ele>106.6</ele><time>2026-04-26T14:32:14Z</time></trkpt><trkpt lat="41.09945808882514" lon="9.522790334623075"><ele>107.0</ele><time>2026-04-26T14:32:15Z</time></trkpt><trkpt lat="41.0993861478708" lon="9.522891759809054"><ele>107.25</ele><time>2026-04-26T14:32:16Z</time></trkpt><trkpt lat="41.099317843122" lon="9.523006147537457"><ele>107.5</ele><time>2026-04-26T14:32:17Z</time></trkpt><trkpt lat="41.099244439565894" lon="9.523118914731244"><ele>107.75</ele><time>2026-04-26T14:32:18Z</time></trkpt><trkpt lat="41.09917310085565" lon="9.523238096993213"><ele>108.0</ele><time>2026-04-26T14:32:19Z</time></trkpt><trkpt lat="41.09910541403264" lon="9.523362025209712"><ele>107.5</ele><time>2026-04-26T14:32:20Z</time></trkpt><trkpt lat="41.09904773030553" lon="9.52346883810985"><ele>107.0</ele><time>2026-04-26T14:32:21Z</time></trkpt><trkpt lat="41.09899107469252" lon="9.523571620178064"><ele>106.5</ele><time>2026-04-26T14:32:22Z</time></trkpt><trkpt lat="41.09893502907234" lon="9.523669840025708"><ele>106.0</ele><time>2026-04-26T14:32:23Z</time></trkpt><trkpt lat="41.098888037821645" lon="9.523757379964739"><ele>105.5</ele><time>2026-04-26T14:32:24Z</time></trkpt><trkpt lat="41.0988442612017" lon="9.523827041363903"><ele>105.0</ele><time>2026-04-26T14:32:25Z</time></trkpt><trkpt lat="41.09877998443802" lon="9.523866785594226"><ele>105.0</ele><time>2026-04-26T14:32:27Z</time></trkpt><trkpt lat="41.098730113032545" lon="9.523747340199792"><ele>105.0</ele><time>2026-04-26T14:32:28Z</time></trkpt><trkpt lat="41.098664993765546" lon="9.523667178087301"><ele>105.0</ele><time>2026-04-26T14:32:29Z</time></trkpt><trkpt lat="41.098600515150096" lon="9.523611780958424"><ele>105.0</ele><time>2026-04-26T14:32:30Z</time></trkpt><trkpt lat="41.098554763127076" lon="9.523548731018955"><ele>105.0</ele><time>2026-04-26T14:32:31Z</time></trkpt><trkpt lat="41.09848935770067" lon="9.523453467949025"><ele>105.0</ele><time>2026-04-26T14:32:33Z</time></trkpt><trkpt lat="41.09842234369752" lon="9.523369954967043"><ele>105.0</ele><time>2026-04-26T14:32:36Z</time></trkpt><trkpt lat="41.098382190027515" lon="9.523302191052604"><ele>105.0</ele><time>2026-04-26T14:32:39Z</time></trkpt></trkseg></trk></gpx>